<?xml version="1.0" encoding="UTF-8" standalone="no" ?>
<gpx xmlns="http://www.topografix.com/GPX/1/1" xmlns:xsi="http://www.w3.org/2001/XMLSchema-instance" xsi:schemaLocation="http://www.topografix.com/GPX/1/1 http://www.topografix.com/GPX/1/1/gpx.xsd" version="1.1" creator="VisuGPX - https://www.visugpx.com">
  <metadata>
    <name>2019-11-09 Vtt St Fortunat-Aurelle</name>
    <desc><![CDATA[Une rando avec tout ce qu'il faut... des montées sur petites routes et pistes, des panoramas de folie et 2 superbes descentes typiques ardéchoises.
A faire et à refaire
Parole de Lucho (vtt ardbike Valence)]]></desc>
  </metadata>
  <trk>
    <name><![CDATA[2019-11-09 Vtt St Fortunat-Aurelle]]></name>
    <trkseg>
      <trkpt lat="44.82759" lon="4.67694">
        <ele>242.2</ele>
        <time>2019-11-09T07:17:40Z</time>
      </trkpt>
      <trkpt lat="44.82759" lon="4.67694">
        <ele>242.2</ele>
        <time>2019-11-09T07:17:41Z</time>
      </trkpt>
      <trkpt lat="44.82759" lon="4.67694">
        <ele>240.2</ele>
        <time>2019-11-09T07:17:44Z</time>
      </trkpt>
      <trkpt lat="44.82759" lon="4.67694">
        <ele>239</ele>
        <time>2019-11-09T07:17:45Z</time>
      </trkpt>
      <trkpt lat="44.82759" lon="4.67694">
        <ele>237.8</ele>
        <time>2019-11-09T07:17:47Z</time>
      </trkpt>
      <trkpt lat="44.82759" lon="4.67694">
        <ele>237.6</ele>
        <time>2019-11-09T07:17:50Z</time>
      </trkpt>
      <trkpt lat="44.82759" lon="4.67694">
        <ele>237.6</ele>
        <time>2019-11-09T07:17:51Z</time>
      </trkpt>
      <trkpt lat="44.82759" lon="4.67694">
        <ele>237.8</ele>
        <time>2019-11-09T07:17:53Z</time>
      </trkpt>
      <trkpt lat="44.82759" lon="4.67694">
        <ele>237.8</ele>
        <time>2019-11-09T07:17:54Z</time>
      </trkpt>
      <trkpt lat="44.82759" lon="4.67694">
        <ele>238.2</ele>
        <time>2019-11-09T07:17:56Z</time>
      </trkpt>
      <trkpt lat="44.82759" lon="4.67694">
        <ele>238.6</ele>
        <time>2019-11-09T07:18:05Z</time>
      </trkpt>
      <trkpt lat="44.82759" lon="4.67694">
        <ele>238.4</ele>
        <time>2019-11-09T07:18:07Z</time>
      </trkpt>
      <trkpt lat="44.82759" lon="4.67694">
        <ele>238.4</ele>
        <time>2019-11-09T07:18:24Z</time>
      </trkpt>
      <trkpt lat="44.82765" lon="4.67688">
        <ele>238.4</ele>
        <time>2019-11-09T07:18:27Z</time>
      </trkpt>
      <trkpt lat="44.82768" lon="4.67686">
        <ele>238.4</ele>
        <time>2019-11-09T07:18:28Z</time>
      </trkpt>
      <trkpt lat="44.82774" lon="4.67683">
        <ele>238.4</ele>
        <time>2019-11-09T07:18:30Z</time>
      </trkpt>
      <trkpt lat="44.82786" lon="4.67677">
        <ele>238.2</ele>
        <time>2019-11-09T07:18:34Z</time>
      </trkpt>
      <trkpt lat="44.82793" lon="4.67674">
        <ele>237.8</ele>
        <time>2019-11-09T07:18:36Z</time>
      </trkpt>
      <trkpt lat="44.82804" lon="4.67668">
        <ele>237.4</ele>
        <time>2019-11-09T07:18:40Z</time>
      </trkpt>
      <trkpt lat="44.82824" lon="4.67655">
        <ele>237.4</ele>
        <time>2019-11-09T07:18:47Z</time>
      </trkpt>
      <trkpt lat="44.82845" lon="4.67648">
        <ele>237.6</ele>
        <time>2019-11-09T07:18:54Z</time>
      </trkpt>
      <trkpt lat="44.82868" lon="4.67633">
        <ele>238.2</ele>
        <time>2019-11-09T07:19:02Z</time>
      </trkpt>
      <trkpt lat="44.82877" lon="4.67629">
        <ele>238.2</ele>
        <time>2019-11-09T07:19:05Z</time>
      </trkpt>
      <trkpt lat="44.82897" lon="4.67615">
        <ele>238.2</ele>
        <time>2019-11-09T07:19:13Z</time>
      </trkpt>
      <trkpt lat="44.82901" lon="4.67611">
        <ele>238.2</ele>
        <time>2019-11-09T07:19:15Z</time>
      </trkpt>
      <trkpt lat="44.82903" lon="4.67608">
        <ele>238.2</ele>
        <time>2019-11-09T07:19:17Z</time>
      </trkpt>
      <trkpt lat="44.82915" lon="4.67599">
        <ele>238.2</ele>
        <time>2019-11-09T07:19:23Z</time>
      </trkpt>
      <trkpt lat="44.82922" lon="4.67594">
        <ele>238.4</ele>
        <time>2019-11-09T07:19:26Z</time>
      </trkpt>
      <trkpt lat="44.82928" lon="4.67589">
        <ele>238.6</ele>
        <time>2019-11-09T07:19:29Z</time>
      </trkpt>
      <trkpt lat="44.8293" lon="4.67586">
        <ele>238.8</ele>
        <time>2019-11-09T07:19:31Z</time>
      </trkpt>
      <trkpt lat="44.82928" lon="4.67582">
        <ele>239.2</ele>
        <time>2019-11-09T07:19:32Z</time>
      </trkpt>
      <trkpt lat="44.82923" lon="4.67573">
        <ele>239.4</ele>
        <time>2019-11-09T07:19:35Z</time>
      </trkpt>
      <trkpt lat="44.82921" lon="4.67565">
        <ele>239.4</ele>
        <time>2019-11-09T07:19:37Z</time>
      </trkpt>
      <trkpt lat="44.82917" lon="4.67547">
        <ele>240.2</ele>
        <time>2019-11-09T07:19:43Z</time>
      </trkpt>
      <trkpt lat="44.82916" lon="4.67544">
        <ele>240.4</ele>
        <time>2019-11-09T07:19:44Z</time>
      </trkpt>
      <trkpt lat="44.82908" lon="4.67514">
        <ele>241.2</ele>
        <time>2019-11-09T07:19:52Z</time>
      </trkpt>
      <trkpt lat="44.82907" lon="4.67507">
        <ele>241.6</ele>
        <time>2019-11-09T07:19:54Z</time>
      </trkpt>
      <trkpt lat="44.82902" lon="4.67494">
        <ele>242.4</ele>
        <time>2019-11-09T07:19:58Z</time>
      </trkpt>
      <trkpt lat="44.82897" lon="4.67476">
        <ele>242.6</ele>
        <time>2019-11-09T07:20:03Z</time>
      </trkpt>
      <trkpt lat="44.82895" lon="4.67468">
        <ele>242.6</ele>
        <time>2019-11-09T07:20:05Z</time>
      </trkpt>
      <trkpt lat="44.82893" lon="4.6746">
        <ele>242.8</ele>
        <time>2019-11-09T07:20:07Z</time>
      </trkpt>
      <trkpt lat="44.82884" lon="4.67431">
        <ele>243</ele>
        <time>2019-11-09T07:20:14Z</time>
      </trkpt>
      <trkpt lat="44.82883" lon="4.67428">
        <ele>243</ele>
        <time>2019-11-09T07:20:15Z</time>
      </trkpt>
      <trkpt lat="44.82882" lon="4.67424">
        <ele>242.8</ele>
        <time>2019-11-09T07:20:16Z</time>
      </trkpt>
      <trkpt lat="44.82875" lon="4.67405">
        <ele>243.4</ele>
        <time>2019-11-09T07:20:21Z</time>
      </trkpt>
      <trkpt lat="44.82871" lon="4.67394">
        <ele>243.8</ele>
        <time>2019-11-09T07:20:24Z</time>
      </trkpt>
      <trkpt lat="44.82859" lon="4.67364">
        <ele>243.4</ele>
        <time>2019-11-09T07:20:32Z</time>
      </trkpt>
      <trkpt lat="44.82847" lon="4.6733">
        <ele>242.8</ele>
        <time>2019-11-09T07:20:40Z</time>
      </trkpt>
      <trkpt lat="44.82845" lon="4.67325">
        <ele>242.8</ele>
        <time>2019-11-09T07:20:41Z</time>
      </trkpt>
      <trkpt lat="44.82843" lon="4.67316">
        <ele>242.6</ele>
        <time>2019-11-09T07:20:43Z</time>
      </trkpt>
      <trkpt lat="44.8284" lon="4.67308">
        <ele>242.6</ele>
        <time>2019-11-09T07:20:45Z</time>
      </trkpt>
      <trkpt lat="44.82836" lon="4.67303">
        <ele>242.6</ele>
        <time>2019-11-09T07:20:47Z</time>
      </trkpt>
      <trkpt lat="44.82824" lon="4.67278">
        <ele>243</ele>
        <time>2019-11-09T07:20:54Z</time>
      </trkpt>
      <trkpt lat="44.82806" lon="4.67243">
        <ele>242.6</ele>
        <time>2019-11-09T07:21:03Z</time>
      </trkpt>
      <trkpt lat="44.82802" lon="4.6723">
        <ele>242.8</ele>
        <time>2019-11-09T07:21:06Z</time>
      </trkpt>
      <trkpt lat="44.82795" lon="4.67209">
        <ele>243</ele>
        <time>2019-11-09T07:21:11Z</time>
      </trkpt>
      <trkpt lat="44.8279" lon="4.67197">
        <ele>243</ele>
        <time>2019-11-09T07:21:14Z</time>
      </trkpt>
      <trkpt lat="44.82789" lon="4.67192">
        <ele>243</ele>
        <time>2019-11-09T07:21:15Z</time>
      </trkpt>
      <trkpt lat="44.82782" lon="4.67171">
        <ele>243.2</ele>
        <time>2019-11-09T07:21:20Z</time>
      </trkpt>
      <trkpt lat="44.8278" lon="4.67162">
        <ele>243</ele>
        <time>2019-11-09T07:21:22Z</time>
      </trkpt>
      <trkpt lat="44.82773" lon="4.67128">
        <ele>243.4</ele>
        <time>2019-11-09T07:21:30Z</time>
      </trkpt>
      <trkpt lat="44.82769" lon="4.67115">
        <ele>243.6</ele>
        <time>2019-11-09T07:21:33Z</time>
      </trkpt>
      <trkpt lat="44.8276" lon="4.67087">
        <ele>243.8</ele>
        <time>2019-11-09T07:21:40Z</time>
      </trkpt>
      <trkpt lat="44.82752" lon="4.67058">
        <ele>244.4</ele>
        <time>2019-11-09T07:21:48Z</time>
      </trkpt>
      <trkpt lat="44.82751" lon="4.67054">
        <ele>244.6</ele>
        <time>2019-11-09T07:21:49Z</time>
      </trkpt>
      <trkpt lat="44.82751" lon="4.67051">
        <ele>244.6</ele>
        <time>2019-11-09T07:21:50Z</time>
      </trkpt>
      <trkpt lat="44.82749" lon="4.67031">
        <ele>245.2</ele>
        <time>2019-11-09T07:21:55Z</time>
      </trkpt>
      <trkpt lat="44.82749" lon="4.67008">
        <ele>244.8</ele>
        <time>2019-11-09T07:22:00Z</time>
      </trkpt>
      <trkpt lat="44.82749" lon="4.67">
        <ele>244.6</ele>
        <time>2019-11-09T07:22:01Z</time>
      </trkpt>
      <trkpt lat="44.8275" lon="4.66977">
        <ele>244.2</ele>
        <time>2019-11-09T07:22:04Z</time>
      </trkpt>
      <trkpt lat="44.82752" lon="4.6696">
        <ele>243.4</ele>
        <time>2019-11-09T07:22:06Z</time>
      </trkpt>
      <trkpt lat="44.82755" lon="4.66943">
        <ele>242.4</ele>
        <time>2019-11-09T07:22:08Z</time>
      </trkpt>
      <trkpt lat="44.82755" lon="4.66936">
        <ele>242</ele>
        <time>2019-11-09T07:22:09Z</time>
      </trkpt>
      <trkpt lat="44.82756" lon="4.66929">
        <ele>241.8</ele>
        <time>2019-11-09T07:22:10Z</time>
      </trkpt>
      <trkpt lat="44.82758" lon="4.66908">
        <ele>241.6</ele>
        <time>2019-11-09T07:22:14Z</time>
      </trkpt>
      <trkpt lat="44.82753" lon="4.66895">
        <ele>242.4</ele>
        <time>2019-11-09T07:22:18Z</time>
      </trkpt>
      <trkpt lat="44.82751" lon="4.66892">
        <ele>242.6</ele>
        <time>2019-11-09T07:22:19Z</time>
      </trkpt>
      <trkpt lat="44.82748" lon="4.66888">
        <ele>243</ele>
        <time>2019-11-09T07:22:21Z</time>
      </trkpt>
      <trkpt lat="44.82742" lon="4.66887">
        <ele>243.2</ele>
        <time>2019-11-09T07:22:24Z</time>
      </trkpt>
      <trkpt lat="44.82737" lon="4.66891">
        <ele>243.4</ele>
        <time>2019-11-09T07:22:27Z</time>
      </trkpt>
      <trkpt lat="44.82731" lon="4.66897">
        <ele>244.2</ele>
        <time>2019-11-09T07:22:30Z</time>
      </trkpt>
      <trkpt lat="44.82727" lon="4.669">
        <ele>244.8</ele>
        <time>2019-11-09T07:22:32Z</time>
      </trkpt>
      <trkpt lat="44.82723" lon="4.66901">
        <ele>245.6</ele>
        <time>2019-11-09T07:22:34Z</time>
      </trkpt>
      <trkpt lat="44.82719" lon="4.66901">
        <ele>246.2</ele>
        <time>2019-11-09T07:22:36Z</time>
      </trkpt>
      <trkpt lat="44.82715" lon="4.66901">
        <ele>246.8</ele>
        <time>2019-11-09T07:22:38Z</time>
      </trkpt>
      <trkpt lat="44.82707" lon="4.669">
        <ele>247.8</ele>
        <time>2019-11-09T07:22:42Z</time>
      </trkpt>
      <trkpt lat="44.82703" lon="4.669">
        <ele>248.2</ele>
        <time>2019-11-09T07:22:44Z</time>
      </trkpt>
      <trkpt lat="44.82697" lon="4.66899">
        <ele>249.2</ele>
        <time>2019-11-09T07:22:47Z</time>
      </trkpt>
      <trkpt lat="44.82696" lon="4.66899">
        <ele>249.4</ele>
        <time>2019-11-09T07:22:48Z</time>
      </trkpt>
      <trkpt lat="44.8269" lon="4.669">
        <ele>250.2</ele>
        <time>2019-11-09T07:22:51Z</time>
      </trkpt>
      <trkpt lat="44.82683" lon="4.669">
        <ele>250.8</ele>
        <time>2019-11-09T07:22:55Z</time>
      </trkpt>
      <trkpt lat="44.82679" lon="4.66899">
        <ele>251</ele>
        <time>2019-11-09T07:22:57Z</time>
      </trkpt>
      <trkpt lat="44.82677" lon="4.66898">
        <ele>251</ele>
        <time>2019-11-09T07:22:58Z</time>
      </trkpt>
      <trkpt lat="44.8266" lon="4.66887">
        <ele>250.6</ele>
        <time>2019-11-09T07:23:05Z</time>
      </trkpt>
      <trkpt lat="44.82653" lon="4.66871">
        <ele>250.2</ele>
        <time>2019-11-09T07:23:09Z</time>
      </trkpt>
      <trkpt lat="44.82651" lon="4.66859">
        <ele>249.4</ele>
        <time>2019-11-09T07:23:11Z</time>
      </trkpt>
      <trkpt lat="44.82649" lon="4.66854">
        <ele>249</ele>
        <time>2019-11-09T07:23:12Z</time>
      </trkpt>
      <trkpt lat="44.82646" lon="4.66844">
        <ele>248.6</ele>
        <time>2019-11-09T07:23:14Z</time>
      </trkpt>
      <trkpt lat="44.82635" lon="4.66829">
        <ele>248.2</ele>
        <time>2019-11-09T07:23:19Z</time>
      </trkpt>
      <trkpt lat="44.82621" lon="4.66822">
        <ele>248.4</ele>
        <time>2019-11-09T07:23:24Z</time>
      </trkpt>
      <trkpt lat="44.82618" lon="4.66819">
        <ele>248.8</ele>
        <time>2019-11-09T07:23:26Z</time>
      </trkpt>
      <trkpt lat="44.826" lon="4.66804">
        <ele>249.8</ele>
        <time>2019-11-09T07:23:36Z</time>
      </trkpt>
      <trkpt lat="44.82598" lon="4.66803">
        <ele>250</ele>
        <time>2019-11-09T07:23:37Z</time>
      </trkpt>
      <trkpt lat="44.82588" lon="4.66795">
        <ele>251</ele>
        <time>2019-11-09T07:23:43Z</time>
      </trkpt>
      <trkpt lat="44.82584" lon="4.66792">
        <ele>251.2</ele>
        <time>2019-11-09T07:23:45Z</time>
      </trkpt>
      <trkpt lat="44.82575" lon="4.66785">
        <ele>251.4</ele>
        <time>2019-11-09T07:23:50Z</time>
      </trkpt>
      <trkpt lat="44.82572" lon="4.66783">
        <ele>251.8</ele>
        <time>2019-11-09T07:23:52Z</time>
      </trkpt>
      <trkpt lat="44.82567" lon="4.66779">
        <ele>252.2</ele>
        <time>2019-11-09T07:23:55Z</time>
      </trkpt>
      <trkpt lat="44.82562" lon="4.66778">
        <ele>252.2</ele>
        <time>2019-11-09T07:23:57Z</time>
      </trkpt>
      <trkpt lat="44.8256" lon="4.66777">
        <ele>252.4</ele>
        <time>2019-11-09T07:23:58Z</time>
      </trkpt>
      <trkpt lat="44.82558" lon="4.66776">
        <ele>252.2</ele>
        <time>2019-11-09T07:23:59Z</time>
      </trkpt>
      <trkpt lat="44.82555" lon="4.66775">
        <ele>252.2</ele>
        <time>2019-11-09T07:24:00Z</time>
      </trkpt>
      <trkpt lat="44.82543" lon="4.66774">
        <ele>251.2</ele>
        <time>2019-11-09T07:24:03Z</time>
      </trkpt>
      <trkpt lat="44.82539" lon="4.66772">
        <ele>251</ele>
        <time>2019-11-09T07:24:04Z</time>
      </trkpt>
      <trkpt lat="44.82524" lon="4.66758">
        <ele>250.2</ele>
        <time>2019-11-09T07:24:08Z</time>
      </trkpt>
      <trkpt lat="44.8252" lon="4.66753">
        <ele>250</ele>
        <time>2019-11-09T07:24:09Z</time>
      </trkpt>
      <trkpt lat="44.82512" lon="4.66741">
        <ele>249.2</ele>
        <time>2019-11-09T07:24:12Z</time>
      </trkpt>
      <trkpt lat="44.82508" lon="4.66733">
        <ele>249.2</ele>
        <time>2019-11-09T07:24:14Z</time>
      </trkpt>
      <trkpt lat="44.82506" lon="4.66729">
        <ele>249.2</ele>
        <time>2019-11-09T07:24:15Z</time>
      </trkpt>
      <trkpt lat="44.82502" lon="4.66721">
        <ele>249.6</ele>
        <time>2019-11-09T07:24:17Z</time>
      </trkpt>
      <trkpt lat="44.82497" lon="4.66709">
        <ele>250</ele>
        <time>2019-11-09T07:24:20Z</time>
      </trkpt>
      <trkpt lat="44.82495" lon="4.66704">
        <ele>250</ele>
        <time>2019-11-09T07:24:21Z</time>
      </trkpt>
      <trkpt lat="44.82488" lon="4.66683">
        <ele>250.2</ele>
        <time>2019-11-09T07:24:26Z</time>
      </trkpt>
      <trkpt lat="44.82483" lon="4.66666">
        <ele>250.6</ele>
        <time>2019-11-09T07:24:30Z</time>
      </trkpt>
      <trkpt lat="44.82481" lon="4.66661">
        <ele>250.6</ele>
        <time>2019-11-09T07:24:31Z</time>
      </trkpt>
      <trkpt lat="44.82479" lon="4.66653">
        <ele>250.2</ele>
        <time>2019-11-09T07:24:33Z</time>
      </trkpt>
      <trkpt lat="44.82474" lon="4.66631">
        <ele>251.2</ele>
        <time>2019-11-09T07:24:38Z</time>
      </trkpt>
      <trkpt lat="44.82473" lon="4.66627">
        <ele>251.6</ele>
        <time>2019-11-09T07:24:39Z</time>
      </trkpt>
      <trkpt lat="44.82461" lon="4.66587">
        <ele>252.2</ele>
        <time>2019-11-09T07:24:48Z</time>
      </trkpt>
      <trkpt lat="44.82459" lon="4.66583">
        <ele>252.2</ele>
        <time>2019-11-09T07:24:49Z</time>
      </trkpt>
      <trkpt lat="44.82458" lon="4.66579">
        <ele>252.4</ele>
        <time>2019-11-09T07:24:50Z</time>
      </trkpt>
      <trkpt lat="44.82456" lon="4.66575">
        <ele>252.4</ele>
        <time>2019-11-09T07:24:51Z</time>
      </trkpt>
      <trkpt lat="44.82453" lon="4.66567">
        <ele>252.8</ele>
        <time>2019-11-09T07:24:53Z</time>
      </trkpt>
      <trkpt lat="44.82449" lon="4.66559">
        <ele>253</ele>
        <time>2019-11-09T07:24:55Z</time>
      </trkpt>
      <trkpt lat="44.82438" lon="4.66536">
        <ele>253.4</ele>
        <time>2019-11-09T07:25:01Z</time>
      </trkpt>
      <trkpt lat="44.82429" lon="4.66505">
        <ele>254.2</ele>
        <time>2019-11-09T07:25:08Z</time>
      </trkpt>
      <trkpt lat="44.82419" lon="4.66479">
        <ele>254.4</ele>
        <time>2019-11-09T07:25:14Z</time>
      </trkpt>
      <trkpt lat="44.82417" lon="4.66475">
        <ele>254.4</ele>
        <time>2019-11-09T07:25:15Z</time>
      </trkpt>
      <trkpt lat="44.82416" lon="4.66471">
        <ele>254.4</ele>
        <time>2019-11-09T07:25:16Z</time>
      </trkpt>
      <trkpt lat="44.8241" lon="4.66455">
        <ele>254.6</ele>
        <time>2019-11-09T07:25:20Z</time>
      </trkpt>
      <trkpt lat="44.82403" lon="4.66436">
        <ele>255.2</ele>
        <time>2019-11-09T07:25:24Z</time>
      </trkpt>
      <trkpt lat="44.82393" lon="4.66404">
        <ele>255.4</ele>
        <time>2019-11-09T07:25:31Z</time>
      </trkpt>
      <trkpt lat="44.82385" lon="4.66372">
        <ele>254.6</ele>
        <time>2019-11-09T07:25:37Z</time>
      </trkpt>
      <trkpt lat="44.82373" lon="4.66328">
        <ele>254</ele>
        <time>2019-11-09T07:25:45Z</time>
      </trkpt>
      <trkpt lat="44.82368" lon="4.66311">
        <ele>253.4</ele>
        <time>2019-11-09T07:25:48Z</time>
      </trkpt>
      <trkpt lat="44.82357" lon="4.66268">
        <ele>252.8</ele>
        <time>2019-11-09T07:25:55Z</time>
      </trkpt>
      <trkpt lat="44.82356" lon="4.66262">
        <ele>252.6</ele>
        <time>2019-11-09T07:25:56Z</time>
      </trkpt>
      <trkpt lat="44.82355" lon="4.66256">
        <ele>252.4</ele>
        <time>2019-11-09T07:25:57Z</time>
      </trkpt>
      <trkpt lat="44.82352" lon="4.66242">
        <ele>251.8</ele>
        <time>2019-11-09T07:25:59Z</time>
      </trkpt>
      <trkpt lat="44.82349" lon="4.6623">
        <ele>251.2</ele>
        <time>2019-11-09T07:26:01Z</time>
      </trkpt>
      <trkpt lat="44.82345" lon="4.66209">
        <ele>250.6</ele>
        <time>2019-11-09T07:26:04Z</time>
      </trkpt>
      <trkpt lat="44.82341" lon="4.66194">
        <ele>250.2</ele>
        <time>2019-11-09T07:26:06Z</time>
      </trkpt>
      <trkpt lat="44.82339" lon="4.66187">
        <ele>249.8</ele>
        <time>2019-11-09T07:26:07Z</time>
      </trkpt>
      <trkpt lat="44.82331" lon="4.66151">
        <ele>248.6</ele>
        <time>2019-11-09T07:26:12Z</time>
      </trkpt>
      <trkpt lat="44.82329" lon="4.66143">
        <ele>248.4</ele>
        <time>2019-11-09T07:26:13Z</time>
      </trkpt>
      <trkpt lat="44.82319" lon="4.66095">
        <ele>247.6</ele>
        <time>2019-11-09T07:26:19Z</time>
      </trkpt>
      <trkpt lat="44.82317" lon="4.66087">
        <ele>247.4</ele>
        <time>2019-11-09T07:26:20Z</time>
      </trkpt>
      <trkpt lat="44.82312" lon="4.66064">
        <ele>246.8</ele>
        <time>2019-11-09T07:26:23Z</time>
      </trkpt>
      <trkpt lat="44.8231" lon="4.66057">
        <ele>246.6</ele>
        <time>2019-11-09T07:26:24Z</time>
      </trkpt>
      <trkpt lat="44.82303" lon="4.66028">
        <ele>245.4</ele>
        <time>2019-11-09T07:26:28Z</time>
      </trkpt>
      <trkpt lat="44.82301" lon="4.66021">
        <ele>245.2</ele>
        <time>2019-11-09T07:26:29Z</time>
      </trkpt>
      <trkpt lat="44.82291" lon="4.65977">
        <ele>244.6</ele>
        <time>2019-11-09T07:26:36Z</time>
      </trkpt>
      <trkpt lat="44.82289" lon="4.6596">
        <ele>244.6</ele>
        <time>2019-11-09T07:26:39Z</time>
      </trkpt>
      <trkpt lat="44.82291" lon="4.65955">
        <ele>244.6</ele>
        <time>2019-11-09T07:26:40Z</time>
      </trkpt>
      <trkpt lat="44.82305" lon="4.6595">
        <ele>244.6</ele>
        <time>2019-11-09T07:26:44Z</time>
      </trkpt>
      <trkpt lat="44.82313" lon="4.65944">
        <ele>244.6</ele>
        <time>2019-11-09T07:26:47Z</time>
      </trkpt>
      <trkpt lat="44.82327" lon="4.65938">
        <ele>245.2</ele>
        <time>2019-11-09T07:26:51Z</time>
      </trkpt>
      <trkpt lat="44.82347" lon="4.65932">
        <ele>246.4</ele>
        <time>2019-11-09T07:26:59Z</time>
      </trkpt>
      <trkpt lat="44.82349" lon="4.65931">
        <ele>246.6</ele>
        <time>2019-11-09T07:27:00Z</time>
      </trkpt>
      <trkpt lat="44.82358" lon="4.65929">
        <ele>247.8</ele>
        <time>2019-11-09T07:27:04Z</time>
      </trkpt>
      <trkpt lat="44.82362" lon="4.65928">
        <ele>248.4</ele>
        <time>2019-11-09T07:27:06Z</time>
      </trkpt>
      <trkpt lat="44.82367" lon="4.65924">
        <ele>249</ele>
        <time>2019-11-09T07:27:09Z</time>
      </trkpt>
      <trkpt lat="44.82373" lon="4.65921">
        <ele>249.6</ele>
        <time>2019-11-09T07:27:12Z</time>
      </trkpt>
      <trkpt lat="44.82377" lon="4.65919">
        <ele>250</ele>
        <time>2019-11-09T07:27:14Z</time>
      </trkpt>
      <trkpt lat="44.82388" lon="4.65914">
        <ele>251</ele>
        <time>2019-11-09T07:27:19Z</time>
      </trkpt>
      <trkpt lat="44.8239" lon="4.65912">
        <ele>251.2</ele>
        <time>2019-11-09T07:27:20Z</time>
      </trkpt>
      <trkpt lat="44.82398" lon="4.65909">
        <ele>251.6</ele>
        <time>2019-11-09T07:27:24Z</time>
      </trkpt>
      <trkpt lat="44.82402" lon="4.65907">
        <ele>251.8</ele>
        <time>2019-11-09T07:27:26Z</time>
      </trkpt>
      <trkpt lat="44.82408" lon="4.65904">
        <ele>252.2</ele>
        <time>2019-11-09T07:27:30Z</time>
      </trkpt>
      <trkpt lat="44.82412" lon="4.65901">
        <ele>252.6</ele>
        <time>2019-11-09T07:27:32Z</time>
      </trkpt>
      <trkpt lat="44.82417" lon="4.65901">
        <ele>253</ele>
        <time>2019-11-09T07:27:35Z</time>
      </trkpt>
      <trkpt lat="44.82422" lon="4.659">
        <ele>253.4</ele>
        <time>2019-11-09T07:27:38Z</time>
      </trkpt>
      <trkpt lat="44.82425" lon="4.65897">
        <ele>254</ele>
        <time>2019-11-09T07:27:40Z</time>
      </trkpt>
      <trkpt lat="44.82426" lon="4.65894">
        <ele>254.6</ele>
        <time>2019-11-09T07:27:42Z</time>
      </trkpt>
      <trkpt lat="44.82435" lon="4.65883">
        <ele>255.8</ele>
        <time>2019-11-09T07:27:47Z</time>
      </trkpt>
      <trkpt lat="44.82437" lon="4.65878">
        <ele>256</ele>
        <time>2019-11-09T07:27:49Z</time>
      </trkpt>
      <trkpt lat="44.82436" lon="4.6587">
        <ele>256.6</ele>
        <time>2019-11-09T07:27:52Z</time>
      </trkpt>
      <trkpt lat="44.82436" lon="4.65868">
        <ele>257.2</ele>
        <time>2019-11-09T07:27:53Z</time>
      </trkpt>
      <trkpt lat="44.82438" lon="4.65852">
        <ele>258</ele>
        <time>2019-11-09T07:28:00Z</time>
      </trkpt>
      <trkpt lat="44.82439" lon="4.65847">
        <ele>258.2</ele>
        <time>2019-11-09T07:28:02Z</time>
      </trkpt>
      <trkpt lat="44.8244" lon="4.65831">
        <ele>259.2</ele>
        <time>2019-11-09T07:28:08Z</time>
      </trkpt>
      <trkpt lat="44.82441" lon="4.65828">
        <ele>259.2</ele>
        <time>2019-11-09T07:28:09Z</time>
      </trkpt>
      <trkpt lat="44.82441" lon="4.65814">
        <ele>259.2</ele>
        <time>2019-11-09T07:28:14Z</time>
      </trkpt>
      <trkpt lat="44.82442" lon="4.65803">
        <ele>259.6</ele>
        <time>2019-11-09T07:28:18Z</time>
      </trkpt>
      <trkpt lat="44.82444" lon="4.65784">
        <ele>260.2</ele>
        <time>2019-11-09T07:28:25Z</time>
      </trkpt>
      <trkpt lat="44.82444" lon="4.65781">
        <ele>260.4</ele>
        <time>2019-11-09T07:28:26Z</time>
      </trkpt>
      <trkpt lat="44.82444" lon="4.65779">
        <ele>260.4</ele>
        <time>2019-11-09T07:28:27Z</time>
      </trkpt>
      <trkpt lat="44.82448" lon="4.65762">
        <ele>261.2</ele>
        <time>2019-11-09T07:28:34Z</time>
      </trkpt>
      <trkpt lat="44.82449" lon="4.6576">
        <ele>261.4</ele>
        <time>2019-11-09T07:28:35Z</time>
      </trkpt>
      <trkpt lat="44.82452" lon="4.65755">
        <ele>261.6</ele>
        <time>2019-11-09T07:28:37Z</time>
      </trkpt>
      <trkpt lat="44.82453" lon="4.65753">
        <ele>261.8</ele>
        <time>2019-11-09T07:28:38Z</time>
      </trkpt>
      <trkpt lat="44.82455" lon="4.65749">
        <ele>262</ele>
        <time>2019-11-09T07:28:40Z</time>
      </trkpt>
      <trkpt lat="44.82457" lon="4.65745">
        <ele>262.4</ele>
        <time>2019-11-09T07:28:42Z</time>
      </trkpt>
      <trkpt lat="44.82458" lon="4.65742">
        <ele>262.6</ele>
        <time>2019-11-09T07:28:43Z</time>
      </trkpt>
      <trkpt lat="44.82462" lon="4.65732">
        <ele>263.6</ele>
        <time>2019-11-09T07:28:48Z</time>
      </trkpt>
      <trkpt lat="44.82462" lon="4.65727">
        <ele>264</ele>
        <time>2019-11-09T07:28:50Z</time>
      </trkpt>
      <trkpt lat="44.82458" lon="4.65717">
        <ele>264.8</ele>
        <time>2019-11-09T07:28:55Z</time>
      </trkpt>
      <trkpt lat="44.82456" lon="4.65714">
        <ele>265.2</ele>
        <time>2019-11-09T07:28:57Z</time>
      </trkpt>
      <trkpt lat="44.82454" lon="4.6571">
        <ele>265.4</ele>
        <time>2019-11-09T07:28:59Z</time>
      </trkpt>
      <trkpt lat="44.82448" lon="4.65708">
        <ele>266</ele>
        <time>2019-11-09T07:29:02Z</time>
      </trkpt>
      <trkpt lat="44.82441" lon="4.65699">
        <ele>267.2</ele>
        <time>2019-11-09T07:29:07Z</time>
      </trkpt>
      <trkpt lat="44.8244" lon="4.65695">
        <ele>267.4</ele>
        <time>2019-11-09T07:29:09Z</time>
      </trkpt>
      <trkpt lat="44.82438" lon="4.65689">
        <ele>268.2</ele>
        <time>2019-11-09T07:29:12Z</time>
      </trkpt>
      <trkpt lat="44.82437" lon="4.65682">
        <ele>268.6</ele>
        <time>2019-11-09T07:29:15Z</time>
      </trkpt>
      <trkpt lat="44.82437" lon="4.65668">
        <ele>269.2</ele>
        <time>2019-11-09T07:29:21Z</time>
      </trkpt>
      <trkpt lat="44.82437" lon="4.65666">
        <ele>269.4</ele>
        <time>2019-11-09T07:29:22Z</time>
      </trkpt>
      <trkpt lat="44.82437" lon="4.65664">
        <ele>269.4</ele>
        <time>2019-11-09T07:29:23Z</time>
      </trkpt>
      <trkpt lat="44.82437" lon="4.6566">
        <ele>269.8</ele>
        <time>2019-11-09T07:29:25Z</time>
      </trkpt>
      <trkpt lat="44.82437" lon="4.65657">
        <ele>269.8</ele>
        <time>2019-11-09T07:29:26Z</time>
      </trkpt>
      <trkpt lat="44.82437" lon="4.65653">
        <ele>270.4</ele>
        <time>2019-11-09T07:29:28Z</time>
      </trkpt>
      <trkpt lat="44.82437" lon="4.65647">
        <ele>271</ele>
        <time>2019-11-09T07:29:31Z</time>
      </trkpt>
      <trkpt lat="44.82437" lon="4.65644">
        <ele>271.2</ele>
        <time>2019-11-09T07:29:32Z</time>
      </trkpt>
      <trkpt lat="44.82437" lon="4.6564">
        <ele>271.4</ele>
        <time>2019-11-09T07:29:34Z</time>
      </trkpt>
      <trkpt lat="44.82436" lon="4.65628">
        <ele>272.4</ele>
        <time>2019-11-09T07:29:40Z</time>
      </trkpt>
      <trkpt lat="44.82437" lon="4.6562">
        <ele>273.2</ele>
        <time>2019-11-09T07:29:44Z</time>
      </trkpt>
      <trkpt lat="44.82437" lon="4.65615">
        <ele>273.6</ele>
        <time>2019-11-09T07:29:46Z</time>
      </trkpt>
      <trkpt lat="44.82436" lon="4.65611">
        <ele>273.8</ele>
        <time>2019-11-09T07:29:48Z</time>
      </trkpt>
      <trkpt lat="44.82435" lon="4.65605">
        <ele>274.4</ele>
        <time>2019-11-09T07:29:51Z</time>
      </trkpt>
      <trkpt lat="44.82435" lon="4.65601">
        <ele>274.8</ele>
        <time>2019-11-09T07:29:53Z</time>
      </trkpt>
      <trkpt lat="44.82434" lon="4.65594">
        <ele>275.2</ele>
        <time>2019-11-09T07:29:56Z</time>
      </trkpt>
      <trkpt lat="44.82433" lon="4.65588">
        <ele>275.8</ele>
        <time>2019-11-09T07:29:59Z</time>
      </trkpt>
      <trkpt lat="44.82429" lon="4.6557">
        <ele>276.8</ele>
        <time>2019-11-09T07:30:07Z</time>
      </trkpt>
      <trkpt lat="44.82426" lon="4.65555">
        <ele>278</ele>
        <time>2019-11-09T07:30:14Z</time>
      </trkpt>
      <trkpt lat="44.82425" lon="4.65549">
        <ele>278.6</ele>
        <time>2019-11-09T07:30:17Z</time>
      </trkpt>
      <trkpt lat="44.82424" lon="4.65544">
        <ele>279</ele>
        <time>2019-11-09T07:30:19Z</time>
      </trkpt>
      <trkpt lat="44.82421" lon="4.65531">
        <ele>280</ele>
        <time>2019-11-09T07:30:25Z</time>
      </trkpt>
      <trkpt lat="44.82419" lon="4.65521">
        <ele>280.8</ele>
        <time>2019-11-09T07:30:30Z</time>
      </trkpt>
      <trkpt lat="44.82419" lon="4.65519">
        <ele>281.2</ele>
        <time>2019-11-09T07:30:31Z</time>
      </trkpt>
      <trkpt lat="44.82418" lon="4.65515">
        <ele>281.6</ele>
        <time>2019-11-09T07:30:33Z</time>
      </trkpt>
      <trkpt lat="44.82414" lon="4.65498">
        <ele>282.4</ele>
        <time>2019-11-09T07:30:41Z</time>
      </trkpt>
      <trkpt lat="44.82413" lon="4.65496">
        <ele>282.6</ele>
        <time>2019-11-09T07:30:42Z</time>
      </trkpt>
      <trkpt lat="44.82411" lon="4.65483">
        <ele>283.4</ele>
        <time>2019-11-09T07:30:48Z</time>
      </trkpt>
      <trkpt lat="44.82411" lon="4.65478">
        <ele>284</ele>
        <time>2019-11-09T07:30:50Z</time>
      </trkpt>
      <trkpt lat="44.82411" lon="4.65474">
        <ele>284.4</ele>
        <time>2019-11-09T07:30:52Z</time>
      </trkpt>
      <trkpt lat="44.82411" lon="4.65466">
        <ele>284.8</ele>
        <time>2019-11-09T07:30:55Z</time>
      </trkpt>
      <trkpt lat="44.82412" lon="4.65464">
        <ele>284.8</ele>
        <time>2019-11-09T07:30:56Z</time>
      </trkpt>
      <trkpt lat="44.82412" lon="4.65462">
        <ele>285</ele>
        <time>2019-11-09T07:30:57Z</time>
      </trkpt>
      <trkpt lat="44.82412" lon="4.65457">
        <ele>285.2</ele>
        <time>2019-11-09T07:30:59Z</time>
      </trkpt>
      <trkpt lat="44.82412" lon="4.65455">
        <ele>285.6</ele>
        <time>2019-11-09T07:31:00Z</time>
      </trkpt>
      <trkpt lat="44.82412" lon="4.65451">
        <ele>286</ele>
        <time>2019-11-09T07:31:02Z</time>
      </trkpt>
      <trkpt lat="44.82412" lon="4.65444">
        <ele>286.6</ele>
        <time>2019-11-09T07:31:05Z</time>
      </trkpt>
      <trkpt lat="44.82411" lon="4.65439">
        <ele>287</ele>
        <time>2019-11-09T07:31:07Z</time>
      </trkpt>
      <trkpt lat="44.8241" lon="4.65435">
        <ele>287.2</ele>
        <time>2019-11-09T07:31:09Z</time>
      </trkpt>
      <trkpt lat="44.82408" lon="4.65431">
        <ele>287.6</ele>
        <time>2019-11-09T07:31:11Z</time>
      </trkpt>
      <trkpt lat="44.82407" lon="4.65427">
        <ele>287.8</ele>
        <time>2019-11-09T07:31:13Z</time>
      </trkpt>
      <trkpt lat="44.82404" lon="4.65421">
        <ele>288.4</ele>
        <time>2019-11-09T07:31:16Z</time>
      </trkpt>
      <trkpt lat="44.82403" lon="4.65419">
        <ele>288.6</ele>
        <time>2019-11-09T07:31:17Z</time>
      </trkpt>
      <trkpt lat="44.82402" lon="4.65417">
        <ele>288.8</ele>
        <time>2019-11-09T07:31:18Z</time>
      </trkpt>
      <trkpt lat="44.82401" lon="4.65415">
        <ele>289</ele>
        <time>2019-11-09T07:31:19Z</time>
      </trkpt>
      <trkpt lat="44.824" lon="4.65413">
        <ele>289.2</ele>
        <time>2019-11-09T07:31:20Z</time>
      </trkpt>
      <trkpt lat="44.82398" lon="4.6541">
        <ele>289.2</ele>
        <time>2019-11-09T07:31:22Z</time>
      </trkpt>
      <trkpt lat="44.82396" lon="4.65404">
        <ele>289.8</ele>
        <time>2019-11-09T07:31:25Z</time>
      </trkpt>
      <trkpt lat="44.82395" lon="4.65402">
        <ele>290</ele>
        <time>2019-11-09T07:31:26Z</time>
      </trkpt>
      <trkpt lat="44.82394" lon="4.654">
        <ele>290.2</ele>
        <time>2019-11-09T07:31:27Z</time>
      </trkpt>
      <trkpt lat="44.82393" lon="4.65392">
        <ele>290.8</ele>
        <time>2019-11-09T07:31:31Z</time>
      </trkpt>
      <trkpt lat="44.82392" lon="4.65389">
        <ele>291</ele>
        <time>2019-11-09T07:31:32Z</time>
      </trkpt>
      <trkpt lat="44.82392" lon="4.6538">
        <ele>291.8</ele>
        <time>2019-11-09T07:31:36Z</time>
      </trkpt>
      <trkpt lat="44.82392" lon="4.65375">
        <ele>292.2</ele>
        <time>2019-11-09T07:31:38Z</time>
      </trkpt>
      <trkpt lat="44.8239" lon="4.65361">
        <ele>293.4</ele>
        <time>2019-11-09T07:31:44Z</time>
      </trkpt>
      <trkpt lat="44.8239" lon="4.65357">
        <ele>293.8</ele>
        <time>2019-11-09T07:31:46Z</time>
      </trkpt>
      <trkpt lat="44.82388" lon="4.6535">
        <ele>294.4</ele>
        <time>2019-11-09T07:31:49Z</time>
      </trkpt>
      <trkpt lat="44.82388" lon="4.65343">
        <ele>294.6</ele>
        <time>2019-11-09T07:31:52Z</time>
      </trkpt>
      <trkpt lat="44.82387" lon="4.65341">
        <ele>294.8</ele>
        <time>2019-11-09T07:31:53Z</time>
      </trkpt>
      <trkpt lat="44.82386" lon="4.65336">
        <ele>295.2</ele>
        <time>2019-11-09T07:31:55Z</time>
      </trkpt>
      <trkpt lat="44.82386" lon="4.65334">
        <ele>295.4</ele>
        <time>2019-11-09T07:31:56Z</time>
      </trkpt>
      <trkpt lat="44.82383" lon="4.65318">
        <ele>296.6</ele>
        <time>2019-11-09T07:32:03Z</time>
      </trkpt>
      <trkpt lat="44.8238" lon="4.65305">
        <ele>297.8</ele>
        <time>2019-11-09T07:32:09Z</time>
      </trkpt>
      <trkpt lat="44.82377" lon="4.65293">
        <ele>298.4</ele>
        <time>2019-11-09T07:32:14Z</time>
      </trkpt>
      <trkpt lat="44.82376" lon="4.65289">
        <ele>298.8</ele>
        <time>2019-11-09T07:32:16Z</time>
      </trkpt>
      <trkpt lat="44.82374" lon="4.65272">
        <ele>300</ele>
        <time>2019-11-09T07:32:24Z</time>
      </trkpt>
      <trkpt lat="44.82372" lon="4.65264">
        <ele>301.2</ele>
        <time>2019-11-09T07:32:28Z</time>
      </trkpt>
      <trkpt lat="44.82371" lon="4.65261">
        <ele>301.4</ele>
        <time>2019-11-09T07:32:29Z</time>
      </trkpt>
      <trkpt lat="44.8237" lon="4.65257">
        <ele>301.6</ele>
        <time>2019-11-09T07:32:31Z</time>
      </trkpt>
      <trkpt lat="44.82369" lon="4.65248">
        <ele>301.6</ele>
        <time>2019-11-09T07:32:35Z</time>
      </trkpt>
      <trkpt lat="44.82367" lon="4.65238">
        <ele>302.2</ele>
        <time>2019-11-09T07:32:39Z</time>
      </trkpt>
      <trkpt lat="44.82366" lon="4.65236">
        <ele>302.4</ele>
        <time>2019-11-09T07:32:40Z</time>
      </trkpt>
      <trkpt lat="44.82361" lon="4.65219">
        <ele>303</ele>
        <time>2019-11-09T07:32:47Z</time>
      </trkpt>
      <trkpt lat="44.82361" lon="4.65217">
        <ele>303</ele>
        <time>2019-11-09T07:32:48Z</time>
      </trkpt>
      <trkpt lat="44.8236" lon="4.65214">
        <ele>303</ele>
        <time>2019-11-09T07:32:49Z</time>
      </trkpt>
      <trkpt lat="44.82358" lon="4.65206">
        <ele>303.2</ele>
        <time>2019-11-09T07:32:53Z</time>
      </trkpt>
      <trkpt lat="44.82355" lon="4.65197">
        <ele>304</ele>
        <time>2019-11-09T07:32:57Z</time>
      </trkpt>
      <trkpt lat="44.82355" lon="4.65191">
        <ele>304.4</ele>
        <time>2019-11-09T07:32:59Z</time>
      </trkpt>
      <trkpt lat="44.82353" lon="4.65181">
        <ele>305</ele>
        <time>2019-11-09T07:33:04Z</time>
      </trkpt>
      <trkpt lat="44.8235" lon="4.65171">
        <ele>305.6</ele>
        <time>2019-11-09T07:33:09Z</time>
      </trkpt>
      <trkpt lat="44.82349" lon="4.65165">
        <ele>306.2</ele>
        <time>2019-11-09T07:33:12Z</time>
      </trkpt>
      <trkpt lat="44.82347" lon="4.65158">
        <ele>306.6</ele>
        <time>2019-11-09T07:33:15Z</time>
      </trkpt>
      <trkpt lat="44.82346" lon="4.65153">
        <ele>307</ele>
        <time>2019-11-09T07:33:17Z</time>
      </trkpt>
      <trkpt lat="44.82346" lon="4.65151">
        <ele>307.2</ele>
        <time>2019-11-09T07:33:18Z</time>
      </trkpt>
      <trkpt lat="44.82346" lon="4.65148">
        <ele>307.6</ele>
        <time>2019-11-09T07:33:19Z</time>
      </trkpt>
      <trkpt lat="44.82346" lon="4.65146">
        <ele>307.8</ele>
        <time>2019-11-09T07:33:20Z</time>
      </trkpt>
      <trkpt lat="44.82347" lon="4.65135">
        <ele>309</ele>
        <time>2019-11-09T07:33:25Z</time>
      </trkpt>
      <trkpt lat="44.82347" lon="4.65129">
        <ele>309.6</ele>
        <time>2019-11-09T07:33:28Z</time>
      </trkpt>
      <trkpt lat="44.82347" lon="4.65127">
        <ele>309.8</ele>
        <time>2019-11-09T07:33:29Z</time>
      </trkpt>
      <trkpt lat="44.82347" lon="4.65124">
        <ele>310</ele>
        <time>2019-11-09T07:33:30Z</time>
      </trkpt>
      <trkpt lat="44.82346" lon="4.65108">
        <ele>311.2</ele>
        <time>2019-11-09T07:33:37Z</time>
      </trkpt>
      <trkpt lat="44.82345" lon="4.65105">
        <ele>311.4</ele>
        <time>2019-11-09T07:33:38Z</time>
      </trkpt>
      <trkpt lat="44.82343" lon="4.65091">
        <ele>312.2</ele>
        <time>2019-11-09T07:33:44Z</time>
      </trkpt>
      <trkpt lat="44.82342" lon="4.65084">
        <ele>312.6</ele>
        <time>2019-11-09T07:33:47Z</time>
      </trkpt>
      <trkpt lat="44.82341" lon="4.65075">
        <ele>313.2</ele>
        <time>2019-11-09T07:33:51Z</time>
      </trkpt>
      <trkpt lat="44.8234" lon="4.65067">
        <ele>314.4</ele>
        <time>2019-11-09T07:33:55Z</time>
      </trkpt>
      <trkpt lat="44.82339" lon="4.65056">
        <ele>315.4</ele>
        <time>2019-11-09T07:34:00Z</time>
      </trkpt>
      <trkpt lat="44.82339" lon="4.65048">
        <ele>316.4</ele>
        <time>2019-11-09T07:34:04Z</time>
      </trkpt>
      <trkpt lat="44.82339" lon="4.65046">
        <ele>316.4</ele>
        <time>2019-11-09T07:34:05Z</time>
      </trkpt>
      <trkpt lat="44.8234" lon="4.6503">
        <ele>317.6</ele>
        <time>2019-11-09T07:34:12Z</time>
      </trkpt>
      <trkpt lat="44.8234" lon="4.65028">
        <ele>317.8</ele>
        <time>2019-11-09T07:34:13Z</time>
      </trkpt>
      <trkpt lat="44.8234" lon="4.65019">
        <ele>318.8</ele>
        <time>2019-11-09T07:34:17Z</time>
      </trkpt>
      <trkpt lat="44.8234" lon="4.65008">
        <ele>319.6</ele>
        <time>2019-11-09T07:34:22Z</time>
      </trkpt>
      <trkpt lat="44.8234" lon="4.65006">
        <ele>319.8</ele>
        <time>2019-11-09T07:34:23Z</time>
      </trkpt>
      <trkpt lat="44.82341" lon="4.64995">
        <ele>320.8</ele>
        <time>2019-11-09T07:34:28Z</time>
      </trkpt>
      <trkpt lat="44.82342" lon="4.64981">
        <ele>321.6</ele>
        <time>2019-11-09T07:34:34Z</time>
      </trkpt>
      <trkpt lat="44.82342" lon="4.64976">
        <ele>321.8</ele>
        <time>2019-11-09T07:34:36Z</time>
      </trkpt>
      <trkpt lat="44.82343" lon="4.64963">
        <ele>323</ele>
        <time>2019-11-09T07:34:42Z</time>
      </trkpt>
      <trkpt lat="44.82343" lon="4.64956">
        <ele>323.6</ele>
        <time>2019-11-09T07:34:45Z</time>
      </trkpt>
      <trkpt lat="44.82343" lon="4.64951">
        <ele>324.2</ele>
        <time>2019-11-09T07:34:47Z</time>
      </trkpt>
      <trkpt lat="44.82342" lon="4.64934">
        <ele>325.2</ele>
        <time>2019-11-09T07:34:55Z</time>
      </trkpt>
      <trkpt lat="44.82343" lon="4.64923">
        <ele>326.2</ele>
        <time>2019-11-09T07:35:01Z</time>
      </trkpt>
      <trkpt lat="44.82344" lon="4.6492">
        <ele>326.4</ele>
        <time>2019-11-09T07:35:03Z</time>
      </trkpt>
      <trkpt lat="44.82344" lon="4.64909">
        <ele>327.4</ele>
        <time>2019-11-09T07:35:09Z</time>
      </trkpt>
      <trkpt lat="44.82343" lon="4.64904">
        <ele>327.6</ele>
        <time>2019-11-09T07:35:11Z</time>
      </trkpt>
      <trkpt lat="44.82343" lon="4.64895">
        <ele>328.2</ele>
        <time>2019-11-09T07:35:15Z</time>
      </trkpt>
      <trkpt lat="44.82344" lon="4.64891">
        <ele>328.4</ele>
        <time>2019-11-09T07:35:17Z</time>
      </trkpt>
      <trkpt lat="44.82344" lon="4.64884">
        <ele>329.2</ele>
        <time>2019-11-09T07:35:20Z</time>
      </trkpt>
      <trkpt lat="44.82343" lon="4.64877">
        <ele>329.6</ele>
        <time>2019-11-09T07:35:23Z</time>
      </trkpt>
      <trkpt lat="44.82343" lon="4.64875">
        <ele>329.6</ele>
        <time>2019-11-09T07:35:24Z</time>
      </trkpt>
      <trkpt lat="44.82343" lon="4.6487">
        <ele>330</ele>
        <time>2019-11-09T07:35:26Z</time>
      </trkpt>
      <trkpt lat="44.82343" lon="4.64868">
        <ele>330.2</ele>
        <time>2019-11-09T07:35:27Z</time>
      </trkpt>
      <trkpt lat="44.82343" lon="4.64864">
        <ele>330.6</ele>
        <time>2019-11-09T07:35:29Z</time>
      </trkpt>
      <trkpt lat="44.82343" lon="4.64855">
        <ele>331</ele>
        <time>2019-11-09T07:35:33Z</time>
      </trkpt>
      <trkpt lat="44.82343" lon="4.64849">
        <ele>331.6</ele>
        <time>2019-11-09T07:35:36Z</time>
      </trkpt>
      <trkpt lat="44.82343" lon="4.64841">
        <ele>332.2</ele>
        <time>2019-11-09T07:35:40Z</time>
      </trkpt>
      <trkpt lat="44.82343" lon="4.64839">
        <ele>332.8</ele>
        <time>2019-11-09T07:35:41Z</time>
      </trkpt>
      <trkpt lat="44.82343" lon="4.64838">
        <ele>333.2</ele>
        <time>2019-11-09T07:35:42Z</time>
      </trkpt>
      <trkpt lat="44.82344" lon="4.64835">
        <ele>333.4</ele>
        <time>2019-11-09T07:35:43Z</time>
      </trkpt>
      <trkpt lat="44.82344" lon="4.64833">
        <ele>333.6</ele>
        <time>2019-11-09T07:35:44Z</time>
      </trkpt>
      <trkpt lat="44.82344" lon="4.64831">
        <ele>333.8</ele>
        <time>2019-11-09T07:35:45Z</time>
      </trkpt>
      <trkpt lat="44.82344" lon="4.64822">
        <ele>334.2</ele>
        <time>2019-11-09T07:35:49Z</time>
      </trkpt>
      <trkpt lat="44.82345" lon="4.64818">
        <ele>334.6</ele>
        <time>2019-11-09T07:35:51Z</time>
      </trkpt>
      <trkpt lat="44.82345" lon="4.64816">
        <ele>334.8</ele>
        <time>2019-11-09T07:35:52Z</time>
      </trkpt>
      <trkpt lat="44.82345" lon="4.64814">
        <ele>335</ele>
        <time>2019-11-09T07:35:53Z</time>
      </trkpt>
      <trkpt lat="44.82345" lon="4.64809">
        <ele>335.2</ele>
        <time>2019-11-09T07:35:55Z</time>
      </trkpt>
      <trkpt lat="44.82344" lon="4.64807">
        <ele>335.2</ele>
        <time>2019-11-09T07:35:56Z</time>
      </trkpt>
      <trkpt lat="44.82344" lon="4.64798">
        <ele>336</ele>
        <time>2019-11-09T07:36:00Z</time>
      </trkpt>
      <trkpt lat="44.82344" lon="4.64784">
        <ele>337</ele>
        <time>2019-11-09T07:36:06Z</time>
      </trkpt>
      <trkpt lat="44.82344" lon="4.64782">
        <ele>337.4</ele>
        <time>2019-11-09T07:36:07Z</time>
      </trkpt>
      <trkpt lat="44.82344" lon="4.64769">
        <ele>338.4</ele>
        <time>2019-11-09T07:36:13Z</time>
      </trkpt>
      <trkpt lat="44.82343" lon="4.64762">
        <ele>338.8</ele>
        <time>2019-11-09T07:36:16Z</time>
      </trkpt>
      <trkpt lat="44.82341" lon="4.64753">
        <ele>339.6</ele>
        <time>2019-11-09T07:36:20Z</time>
      </trkpt>
      <trkpt lat="44.82339" lon="4.64746">
        <ele>340</ele>
        <time>2019-11-09T07:36:23Z</time>
      </trkpt>
      <trkpt lat="44.82338" lon="4.64742">
        <ele>340.4</ele>
        <time>2019-11-09T07:36:25Z</time>
      </trkpt>
      <trkpt lat="44.82336" lon="4.64738">
        <ele>340.8</ele>
        <time>2019-11-09T07:36:27Z</time>
      </trkpt>
      <trkpt lat="44.82332" lon="4.64728">
        <ele>341.8</ele>
        <time>2019-11-09T07:36:33Z</time>
      </trkpt>
      <trkpt lat="44.82331" lon="4.64726">
        <ele>342</ele>
        <time>2019-11-09T07:36:34Z</time>
      </trkpt>
      <trkpt lat="44.82328" lon="4.64719">
        <ele>342.8</ele>
        <time>2019-11-09T07:36:38Z</time>
      </trkpt>
      <trkpt lat="44.82324" lon="4.6471">
        <ele>343.6</ele>
        <time>2019-11-09T07:36:43Z</time>
      </trkpt>
      <trkpt lat="44.82322" lon="4.64706">
        <ele>344</ele>
        <time>2019-11-09T07:36:45Z</time>
      </trkpt>
      <trkpt lat="44.82319" lon="4.64696">
        <ele>344.8</ele>
        <time>2019-11-09T07:36:50Z</time>
      </trkpt>
      <trkpt lat="44.82317" lon="4.64689">
        <ele>345.2</ele>
        <time>2019-11-09T07:36:53Z</time>
      </trkpt>
      <trkpt lat="44.82313" lon="4.64679">
        <ele>346.4</ele>
        <time>2019-11-09T07:36:58Z</time>
      </trkpt>
      <trkpt lat="44.82313" lon="4.64677">
        <ele>346.6</ele>
        <time>2019-11-09T07:36:59Z</time>
      </trkpt>
      <trkpt lat="44.8231" lon="4.64659">
        <ele>347.8</ele>
        <time>2019-11-09T07:37:07Z</time>
      </trkpt>
      <trkpt lat="44.82311" lon="4.64655">
        <ele>348.2</ele>
        <time>2019-11-09T07:37:09Z</time>
      </trkpt>
      <trkpt lat="44.82311" lon="4.64645">
        <ele>349</ele>
        <time>2019-11-09T07:37:14Z</time>
      </trkpt>
      <trkpt lat="44.82312" lon="4.64636">
        <ele>350</ele>
        <time>2019-11-09T07:37:18Z</time>
      </trkpt>
      <trkpt lat="44.82312" lon="4.64634">
        <ele>350</ele>
        <time>2019-11-09T07:37:19Z</time>
      </trkpt>
      <trkpt lat="44.82312" lon="4.64621">
        <ele>351.2</ele>
        <time>2019-11-09T07:37:25Z</time>
      </trkpt>
      <trkpt lat="44.82312" lon="4.64614">
        <ele>351.8</ele>
        <time>2019-11-09T07:37:28Z</time>
      </trkpt>
      <trkpt lat="44.82311" lon="4.64608">
        <ele>352.2</ele>
        <time>2019-11-09T07:37:31Z</time>
      </trkpt>
      <trkpt lat="44.82307" lon="4.64597">
        <ele>353</ele>
        <time>2019-11-09T07:37:36Z</time>
      </trkpt>
      <trkpt lat="44.82306" lon="4.64593">
        <ele>353.4</ele>
        <time>2019-11-09T07:37:38Z</time>
      </trkpt>
      <trkpt lat="44.82301" lon="4.64582">
        <ele>354.4</ele>
        <time>2019-11-09T07:37:44Z</time>
      </trkpt>
      <trkpt lat="44.823" lon="4.6458">
        <ele>354.6</ele>
        <time>2019-11-09T07:37:45Z</time>
      </trkpt>
      <trkpt lat="44.82296" lon="4.64568">
        <ele>355.8</ele>
        <time>2019-11-09T07:37:51Z</time>
      </trkpt>
      <trkpt lat="44.82295" lon="4.64566">
        <ele>356</ele>
        <time>2019-11-09T07:37:52Z</time>
      </trkpt>
      <trkpt lat="44.8229" lon="4.64553">
        <ele>356.8</ele>
        <time>2019-11-09T07:37:58Z</time>
      </trkpt>
      <trkpt lat="44.82288" lon="4.64544">
        <ele>357.8</ele>
        <time>2019-11-09T07:38:02Z</time>
      </trkpt>
      <trkpt lat="44.82287" lon="4.6454">
        <ele>358</ele>
        <time>2019-11-09T07:38:04Z</time>
      </trkpt>
      <trkpt lat="44.82288" lon="4.64526">
        <ele>358.8</ele>
        <time>2019-11-09T07:38:10Z</time>
      </trkpt>
      <trkpt lat="44.82288" lon="4.64524">
        <ele>359</ele>
        <time>2019-11-09T07:38:11Z</time>
      </trkpt>
      <trkpt lat="44.82289" lon="4.64515">
        <ele>360.2</ele>
        <time>2019-11-09T07:38:15Z</time>
      </trkpt>
      <trkpt lat="44.82291" lon="4.64507">
        <ele>360.6</ele>
        <time>2019-11-09T07:38:19Z</time>
      </trkpt>
      <trkpt lat="44.82292" lon="4.64501">
        <ele>361.4</ele>
        <time>2019-11-09T07:38:22Z</time>
      </trkpt>
      <trkpt lat="44.82294" lon="4.64489">
        <ele>362.4</ele>
        <time>2019-11-09T07:38:28Z</time>
      </trkpt>
      <trkpt lat="44.82294" lon="4.64486">
        <ele>362.8</ele>
        <time>2019-11-09T07:38:29Z</time>
      </trkpt>
      <trkpt lat="44.82296" lon="4.64476">
        <ele>363.6</ele>
        <time>2019-11-09T07:38:34Z</time>
      </trkpt>
      <trkpt lat="44.82296" lon="4.64466">
        <ele>364.8</ele>
        <time>2019-11-09T07:38:38Z</time>
      </trkpt>
      <trkpt lat="44.82298" lon="4.64451">
        <ele>365.6</ele>
        <time>2019-11-09T07:38:45Z</time>
      </trkpt>
      <trkpt lat="44.82298" lon="4.64447">
        <ele>365.8</ele>
        <time>2019-11-09T07:38:47Z</time>
      </trkpt>
      <trkpt lat="44.82297" lon="4.64434">
        <ele>366.8</ele>
        <time>2019-11-09T07:38:53Z</time>
      </trkpt>
      <trkpt lat="44.82297" lon="4.6443">
        <ele>367.2</ele>
        <time>2019-11-09T07:38:55Z</time>
      </trkpt>
      <trkpt lat="44.82297" lon="4.64418">
        <ele>367.8</ele>
        <time>2019-11-09T07:39:00Z</time>
      </trkpt>
      <trkpt lat="44.82298" lon="4.64412">
        <ele>368.4</ele>
        <time>2019-11-09T07:39:03Z</time>
      </trkpt>
      <trkpt lat="44.82299" lon="4.64406">
        <ele>369</ele>
        <time>2019-11-09T07:39:06Z</time>
      </trkpt>
      <trkpt lat="44.82302" lon="4.64395">
        <ele>370</ele>
        <time>2019-11-09T07:39:11Z</time>
      </trkpt>
      <trkpt lat="44.82306" lon="4.64379">
        <ele>371.2</ele>
        <time>2019-11-09T07:39:19Z</time>
      </trkpt>
      <trkpt lat="44.82307" lon="4.64377">
        <ele>371.4</ele>
        <time>2019-11-09T07:39:20Z</time>
      </trkpt>
      <trkpt lat="44.82308" lon="4.6437">
        <ele>372.2</ele>
        <time>2019-11-09T07:39:24Z</time>
      </trkpt>
      <trkpt lat="44.82308" lon="4.64363">
        <ele>372.8</ele>
        <time>2019-11-09T07:39:27Z</time>
      </trkpt>
      <trkpt lat="44.82309" lon="4.64356">
        <ele>373.4</ele>
        <time>2019-11-09T07:39:30Z</time>
      </trkpt>
      <trkpt lat="44.82308" lon="4.64345">
        <ele>374.6</ele>
        <time>2019-11-09T07:39:35Z</time>
      </trkpt>
      <trkpt lat="44.82307" lon="4.64341">
        <ele>375</ele>
        <time>2019-11-09T07:39:37Z</time>
      </trkpt>
      <trkpt lat="44.82305" lon="4.6433">
        <ele>375.6</ele>
        <time>2019-11-09T07:39:42Z</time>
      </trkpt>
      <trkpt lat="44.82301" lon="4.64316">
        <ele>376.8</ele>
        <time>2019-11-09T07:39:49Z</time>
      </trkpt>
      <trkpt lat="44.82293" lon="4.64305">
        <ele>377.8</ele>
        <time>2019-11-09T07:39:56Z</time>
      </trkpt>
      <trkpt lat="44.82287" lon="4.643">
        <ele>379</ele>
        <time>2019-11-09T07:40:00Z</time>
      </trkpt>
      <trkpt lat="44.82281" lon="4.64295">
        <ele>379.6</ele>
        <time>2019-11-09T07:40:04Z</time>
      </trkpt>
      <trkpt lat="44.82277" lon="4.64293">
        <ele>380</ele>
        <time>2019-11-09T07:40:07Z</time>
      </trkpt>
      <trkpt lat="44.8227" lon="4.64288">
        <ele>380.8</ele>
        <time>2019-11-09T07:40:13Z</time>
      </trkpt>
      <trkpt lat="44.82268" lon="4.64285">
        <ele>381</ele>
        <time>2019-11-09T07:40:15Z</time>
      </trkpt>
      <trkpt lat="44.82265" lon="4.64275">
        <ele>382.2</ele>
        <time>2019-11-09T07:40:20Z</time>
      </trkpt>
      <trkpt lat="44.82265" lon="4.64273">
        <ele>382.4</ele>
        <time>2019-11-09T07:40:21Z</time>
      </trkpt>
      <trkpt lat="44.82264" lon="4.64266">
        <ele>383.2</ele>
        <time>2019-11-09T07:40:24Z</time>
      </trkpt>
      <trkpt lat="44.82265" lon="4.64256">
        <ele>383.8</ele>
        <time>2019-11-09T07:40:29Z</time>
      </trkpt>
      <trkpt lat="44.82265" lon="4.64248">
        <ele>384.4</ele>
        <time>2019-11-09T07:40:33Z</time>
      </trkpt>
      <trkpt lat="44.82266" lon="4.64244">
        <ele>384.6</ele>
        <time>2019-11-09T07:40:35Z</time>
      </trkpt>
      <trkpt lat="44.82266" lon="4.64235">
        <ele>385.4</ele>
        <time>2019-11-09T07:40:40Z</time>
      </trkpt>
      <trkpt lat="44.82266" lon="4.64231">
        <ele>386</ele>
        <time>2019-11-09T07:40:42Z</time>
      </trkpt>
      <trkpt lat="44.82266" lon="4.64227">
        <ele>386.6</ele>
        <time>2019-11-09T07:40:44Z</time>
      </trkpt>
      <trkpt lat="44.82266" lon="4.64218">
        <ele>387.4</ele>
        <time>2019-11-09T07:40:49Z</time>
      </trkpt>
      <trkpt lat="44.82265" lon="4.64211">
        <ele>387.8</ele>
        <time>2019-11-09T07:40:53Z</time>
      </trkpt>
      <trkpt lat="44.82264" lon="4.64201">
        <ele>389</ele>
        <time>2019-11-09T07:40:58Z</time>
      </trkpt>
      <trkpt lat="44.82263" lon="4.64188">
        <ele>390</ele>
        <time>2019-11-09T07:41:05Z</time>
      </trkpt>
      <trkpt lat="44.82263" lon="4.64186">
        <ele>390.4</ele>
        <time>2019-11-09T07:41:06Z</time>
      </trkpt>
      <trkpt lat="44.82262" lon="4.6418">
        <ele>391</ele>
        <time>2019-11-09T07:41:09Z</time>
      </trkpt>
      <trkpt lat="44.82261" lon="4.64166">
        <ele>392.2</ele>
        <time>2019-11-09T07:41:17Z</time>
      </trkpt>
      <trkpt lat="44.8226" lon="4.64158">
        <ele>393.2</ele>
        <time>2019-11-09T07:41:22Z</time>
      </trkpt>
      <trkpt lat="44.82262" lon="4.64152">
        <ele>394</ele>
        <time>2019-11-09T07:41:25Z</time>
      </trkpt>
      <trkpt lat="44.82264" lon="4.64149">
        <ele>394.4</ele>
        <time>2019-11-09T07:41:27Z</time>
      </trkpt>
      <trkpt lat="44.82268" lon="4.64142">
        <ele>395.2</ele>
        <time>2019-11-09T07:41:32Z</time>
      </trkpt>
      <trkpt lat="44.8227" lon="4.64139">
        <ele>395.6</ele>
        <time>2019-11-09T07:41:34Z</time>
      </trkpt>
      <trkpt lat="44.82276" lon="4.64131">
        <ele>396.6</ele>
        <time>2019-11-09T07:41:40Z</time>
      </trkpt>
      <trkpt lat="44.82285" lon="4.64117">
        <ele>397.8</ele>
        <time>2019-11-09T07:41:49Z</time>
      </trkpt>
      <trkpt lat="44.82286" lon="4.64116">
        <ele>398</ele>
        <time>2019-11-09T07:41:50Z</time>
      </trkpt>
      <trkpt lat="44.82288" lon="4.64109">
        <ele>398.8</ele>
        <time>2019-11-09T07:41:54Z</time>
      </trkpt>
      <trkpt lat="44.82291" lon="4.64101">
        <ele>399.4</ele>
        <time>2019-11-09T07:41:58Z</time>
      </trkpt>
      <trkpt lat="44.82293" lon="4.6409">
        <ele>400</ele>
        <time>2019-11-09T07:42:04Z</time>
      </trkpt>
      <trkpt lat="44.82294" lon="4.64084">
        <ele>400.4</ele>
        <time>2019-11-09T07:42:07Z</time>
      </trkpt>
      <trkpt lat="44.82295" lon="4.6408">
        <ele>401</ele>
        <time>2019-11-09T07:42:09Z</time>
      </trkpt>
      <trkpt lat="44.82295" lon="4.64069">
        <ele>401.8</ele>
        <time>2019-11-09T07:42:15Z</time>
      </trkpt>
      <trkpt lat="44.82295" lon="4.64063">
        <ele>402</ele>
        <time>2019-11-09T07:42:18Z</time>
      </trkpt>
      <trkpt lat="44.82295" lon="4.6405">
        <ele>403</ele>
        <time>2019-11-09T07:42:25Z</time>
      </trkpt>
      <trkpt lat="44.82295" lon="4.64048">
        <ele>403.2</ele>
        <time>2019-11-09T07:42:26Z</time>
      </trkpt>
      <trkpt lat="44.82297" lon="4.6404">
        <ele>404.2</ele>
        <time>2019-11-09T07:42:30Z</time>
      </trkpt>
      <trkpt lat="44.82299" lon="4.64035">
        <ele>404.6</ele>
        <time>2019-11-09T07:42:33Z</time>
      </trkpt>
      <trkpt lat="44.82305" lon="4.64026">
        <ele>405.2</ele>
        <time>2019-11-09T07:42:39Z</time>
      </trkpt>
      <trkpt lat="44.82309" lon="4.64022">
        <ele>406</ele>
        <time>2019-11-09T07:42:43Z</time>
      </trkpt>
      <trkpt lat="44.82311" lon="4.64021">
        <ele>406.4</ele>
        <time>2019-11-09T07:42:44Z</time>
      </trkpt>
      <trkpt lat="44.82315" lon="4.64017">
        <ele>407.4</ele>
        <time>2019-11-09T07:42:48Z</time>
      </trkpt>
      <trkpt lat="44.8232" lon="4.64014">
        <ele>408.2</ele>
        <time>2019-11-09T07:42:52Z</time>
      </trkpt>
      <trkpt lat="44.82324" lon="4.64011">
        <ele>408.4</ele>
        <time>2019-11-09T07:42:55Z</time>
      </trkpt>
      <trkpt lat="44.82332" lon="4.64007">
        <ele>409.2</ele>
        <time>2019-11-09T07:43:01Z</time>
      </trkpt>
      <trkpt lat="44.82334" lon="4.64006">
        <ele>409.6</ele>
        <time>2019-11-09T07:43:03Z</time>
      </trkpt>
      <trkpt lat="44.82339" lon="4.64003">
        <ele>410.6</ele>
        <time>2019-11-09T07:43:07Z</time>
      </trkpt>
      <trkpt lat="44.82342" lon="4.64002">
        <ele>411</ele>
        <time>2019-11-09T07:43:09Z</time>
      </trkpt>
      <trkpt lat="44.82349" lon="4.63999">
        <ele>411.8</ele>
        <time>2019-11-09T07:43:14Z</time>
      </trkpt>
      <trkpt lat="44.82351" lon="4.63997">
        <ele>412.2</ele>
        <time>2019-11-09T07:43:16Z</time>
      </trkpt>
      <trkpt lat="44.82355" lon="4.63994">
        <ele>412.8</ele>
        <time>2019-11-09T07:43:19Z</time>
      </trkpt>
      <trkpt lat="44.82363" lon="4.63988">
        <ele>414</ele>
        <time>2019-11-09T07:43:25Z</time>
      </trkpt>
      <trkpt lat="44.8237" lon="4.63982">
        <ele>414.8</ele>
        <time>2019-11-09T07:43:31Z</time>
      </trkpt>
      <trkpt lat="44.82371" lon="4.63981">
        <ele>415.2</ele>
        <time>2019-11-09T07:43:32Z</time>
      </trkpt>
      <trkpt lat="44.82376" lon="4.63976">
        <ele>416.2</ele>
        <time>2019-11-09T07:43:37Z</time>
      </trkpt>
      <trkpt lat="44.82384" lon="4.63969">
        <ele>417.4</ele>
        <time>2019-11-09T07:43:45Z</time>
      </trkpt>
      <trkpt lat="44.82392" lon="4.6396">
        <ele>418.4</ele>
        <time>2019-11-09T07:43:51Z</time>
      </trkpt>
      <trkpt lat="44.82397" lon="4.63946">
        <ele>419.6</ele>
        <time>2019-11-09T07:43:58Z</time>
      </trkpt>
      <trkpt lat="44.82393" lon="4.63932">
        <ele>420.2</ele>
        <time>2019-11-09T07:44:05Z</time>
      </trkpt>
      <trkpt lat="44.82391" lon="4.63924">
        <ele>420.6</ele>
        <time>2019-11-09T07:44:09Z</time>
      </trkpt>
      <trkpt lat="44.82388" lon="4.63916">
        <ele>421.6</ele>
        <time>2019-11-09T07:44:13Z</time>
      </trkpt>
      <trkpt lat="44.82387" lon="4.63914">
        <ele>421.8</ele>
        <time>2019-11-09T07:44:14Z</time>
      </trkpt>
      <trkpt lat="44.82382" lon="4.63904">
        <ele>422.8</ele>
        <time>2019-11-09T07:44:20Z</time>
      </trkpt>
      <trkpt lat="44.82381" lon="4.63902">
        <ele>423</ele>
        <time>2019-11-09T07:44:21Z</time>
      </trkpt>
      <trkpt lat="44.82378" lon="4.63891">
        <ele>424</ele>
        <time>2019-11-09T07:44:27Z</time>
      </trkpt>
      <trkpt lat="44.82375" lon="4.63886">
        <ele>425</ele>
        <time>2019-11-09T07:44:30Z</time>
      </trkpt>
      <trkpt lat="44.82375" lon="4.63884">
        <ele>425.2</ele>
        <time>2019-11-09T07:44:31Z</time>
      </trkpt>
      <trkpt lat="44.8237" lon="4.6387">
        <ele>426.2</ele>
        <time>2019-11-09T07:44:39Z</time>
      </trkpt>
      <trkpt lat="44.8237" lon="4.63868">
        <ele>426.4</ele>
        <time>2019-11-09T07:44:40Z</time>
      </trkpt>
      <trkpt lat="44.82366" lon="4.63859">
        <ele>427.4</ele>
        <time>2019-11-09T07:44:45Z</time>
      </trkpt>
      <trkpt lat="44.82361" lon="4.63851">
        <ele>428.2</ele>
        <time>2019-11-09T07:44:50Z</time>
      </trkpt>
      <trkpt lat="44.8236" lon="4.63849">
        <ele>428.4</ele>
        <time>2019-11-09T07:44:51Z</time>
      </trkpt>
      <trkpt lat="44.82352" lon="4.63834">
        <ele>429.4</ele>
        <time>2019-11-09T07:44:59Z</time>
      </trkpt>
      <trkpt lat="44.8235" lon="4.63822">
        <ele>430.4</ele>
        <time>2019-11-09T07:45:06Z</time>
      </trkpt>
      <trkpt lat="44.8235" lon="4.63821">
        <ele>430.6</ele>
        <time>2019-11-09T07:45:07Z</time>
      </trkpt>
      <trkpt lat="44.8235" lon="4.63817">
        <ele>431.6</ele>
        <time>2019-11-09T07:45:11Z</time>
      </trkpt>
      <trkpt lat="44.82352" lon="4.63816">
        <ele>431.6</ele>
        <time>2019-11-09T07:45:13Z</time>
      </trkpt>
      <trkpt lat="44.82351" lon="4.63815">
        <ele>432</ele>
        <time>2019-11-09T07:45:16Z</time>
      </trkpt>
      <trkpt lat="44.82349" lon="4.63815">
        <ele>432</ele>
        <time>2019-11-09T07:45:17Z</time>
      </trkpt>
      <trkpt lat="44.82347" lon="4.63817">
        <ele>432</ele>
        <time>2019-11-09T07:45:21Z</time>
      </trkpt>
      <trkpt lat="44.82348" lon="4.63816">
        <ele>432</ele>
        <time>2019-11-09T07:45:26Z</time>
      </trkpt>
      <trkpt lat="44.82349" lon="4.63814">
        <ele>431.4</ele>
        <time>2019-11-09T07:45:32Z</time>
      </trkpt>
      <trkpt lat="44.8235" lon="4.63811">
        <ele>431.8</ele>
        <time>2019-11-09T07:45:38Z</time>
      </trkpt>
      <trkpt lat="44.82348" lon="4.63814">
        <ele>431.6</ele>
        <time>2019-11-09T07:45:41Z</time>
      </trkpt>
      <trkpt lat="44.82351" lon="4.63812">
        <ele>431.6</ele>
        <time>2019-11-09T07:45:47Z</time>
      </trkpt>
      <trkpt lat="44.82351" lon="4.63813">
        <ele>431.4</ele>
        <time>2019-11-09T07:45:54Z</time>
      </trkpt>
      <trkpt lat="44.82351" lon="4.63814">
        <ele>431.2</ele>
        <time>2019-11-09T07:45:58Z</time>
      </trkpt>
      <trkpt lat="44.82351" lon="4.63814">
        <ele>431.4</ele>
        <time>2019-11-09T07:46:00Z</time>
      </trkpt>
      <trkpt lat="44.82351" lon="4.63814">
        <ele>431.2</ele>
        <time>2019-11-09T07:46:03Z</time>
      </trkpt>
      <trkpt lat="44.82351" lon="4.63816">
        <ele>430.8</ele>
        <time>2019-11-09T07:46:07Z</time>
      </trkpt>
      <trkpt lat="44.82351" lon="4.63816">
        <ele>431.2</ele>
        <time>2019-11-09T07:46:14Z</time>
      </trkpt>
      <trkpt lat="44.82351" lon="4.63811">
        <ele>431.2</ele>
        <time>2019-11-09T07:46:19Z</time>
      </trkpt>
      <trkpt lat="44.82351" lon="4.63811">
        <ele>431.2</ele>
        <time>2019-11-09T07:46:20Z</time>
      </trkpt>
      <trkpt lat="44.82351" lon="4.63808">
        <ele>431.2</ele>
        <time>2019-11-09T07:46:30Z</time>
      </trkpt>
      <trkpt lat="44.82349" lon="4.63808">
        <ele>431.4</ele>
        <time>2019-11-09T07:46:33Z</time>
      </trkpt>
      <trkpt lat="44.82352" lon="4.63808">
        <ele>431.2</ele>
        <time>2019-11-09T07:46:37Z</time>
      </trkpt>
      <trkpt lat="44.82352" lon="4.63808">
        <ele>431.2</ele>
        <time>2019-11-09T07:46:38Z</time>
      </trkpt>
      <trkpt lat="44.82352" lon="4.63809">
        <ele>431.2</ele>
        <time>2019-11-09T07:46:40Z</time>
      </trkpt>
      <trkpt lat="44.82351" lon="4.63807">
        <ele>431.2</ele>
        <time>2019-11-09T07:46:42Z</time>
      </trkpt>
      <trkpt lat="44.8235" lon="4.63806">
        <ele>431.2</ele>
        <time>2019-11-09T07:46:43Z</time>
      </trkpt>
      <trkpt lat="44.82348" lon="4.63803">
        <ele>430.6</ele>
        <time>2019-11-09T07:46:49Z</time>
      </trkpt>
      <trkpt lat="44.82347" lon="4.63803">
        <ele>430.4</ele>
        <time>2019-11-09T07:46:51Z</time>
      </trkpt>
      <trkpt lat="44.82347" lon="4.63804">
        <ele>430.2</ele>
        <time>2019-11-09T07:46:59Z</time>
      </trkpt>
      <trkpt lat="44.82346" lon="4.63804">
        <ele>430.2</ele>
        <time>2019-11-09T07:47:01Z</time>
      </trkpt>
      <trkpt lat="44.82347" lon="4.63804">
        <ele>430</ele>
        <time>2019-11-09T07:47:08Z</time>
      </trkpt>
      <trkpt lat="44.82347" lon="4.63806">
        <ele>430</ele>
        <time>2019-11-09T07:47:17Z</time>
      </trkpt>
      <trkpt lat="44.82349" lon="4.63811">
        <ele>431.2</ele>
        <time>2019-11-09T07:47:25Z</time>
      </trkpt>
      <trkpt lat="44.82352" lon="4.63811">
        <ele>431.2</ele>
        <time>2019-11-09T07:47:30Z</time>
      </trkpt>
      <trkpt lat="44.82352" lon="4.6381">
        <ele>431.2</ele>
        <time>2019-11-09T07:47:31Z</time>
      </trkpt>
      <trkpt lat="44.82355" lon="4.63808">
        <ele>431.2</ele>
        <time>2019-11-09T07:47:34Z</time>
      </trkpt>
      <trkpt lat="44.82355" lon="4.63807">
        <ele>431.2</ele>
        <time>2019-11-09T07:47:36Z</time>
      </trkpt>
      <trkpt lat="44.82355" lon="4.63806">
        <ele>431.2</ele>
        <time>2019-11-09T07:47:42Z</time>
      </trkpt>
      <trkpt lat="44.82354" lon="4.63806">
        <ele>431.2</ele>
        <time>2019-11-09T07:47:43Z</time>
      </trkpt>
      <trkpt lat="44.82354" lon="4.63807">
        <ele>431.2</ele>
        <time>2019-11-09T07:47:44Z</time>
      </trkpt>
      <trkpt lat="44.82354" lon="4.63807">
        <ele>431.2</ele>
        <time>2019-11-09T07:47:45Z</time>
      </trkpt>
      <trkpt lat="44.82354" lon="4.63807">
        <ele>431.2</ele>
        <time>2019-11-09T07:47:46Z</time>
      </trkpt>
      <trkpt lat="44.82354" lon="4.63807">
        <ele>431.2</ele>
        <time>2019-11-09T07:47:47Z</time>
      </trkpt>
      <trkpt lat="44.82354" lon="4.63807">
        <ele>431.2</ele>
        <time>2019-11-09T07:47:51Z</time>
      </trkpt>
      <trkpt lat="44.82354" lon="4.63807">
        <ele>431.2</ele>
        <time>2019-11-09T07:47:55Z</time>
      </trkpt>
      <trkpt lat="44.82353" lon="4.63808">
        <ele>431.2</ele>
        <time>2019-11-09T07:48:04Z</time>
      </trkpt>
      <trkpt lat="44.82354" lon="4.63808">
        <ele>431.2</ele>
        <time>2019-11-09T07:48:07Z</time>
      </trkpt>
      <trkpt lat="44.82354" lon="4.63808">
        <ele>431.2</ele>
        <time>2019-11-09T07:48:09Z</time>
      </trkpt>
      <trkpt lat="44.82354" lon="4.63808">
        <ele>431.2</ele>
        <time>2019-11-09T07:48:15Z</time>
      </trkpt>
      <trkpt lat="44.82352" lon="4.63814">
        <ele>431.2</ele>
        <time>2019-11-09T07:48:23Z</time>
      </trkpt>
      <trkpt lat="44.82354" lon="4.63818">
        <ele>431.2</ele>
        <time>2019-11-09T07:48:31Z</time>
      </trkpt>
      <trkpt lat="44.82353" lon="4.63817">
        <ele>431.2</ele>
        <time>2019-11-09T07:48:37Z</time>
      </trkpt>
      <trkpt lat="44.82352" lon="4.63816">
        <ele>431.2</ele>
        <time>2019-11-09T07:48:38Z</time>
      </trkpt>
      <trkpt lat="44.82353" lon="4.63814">
        <ele>431.2</ele>
        <time>2019-11-09T07:48:43Z</time>
      </trkpt>
      <trkpt lat="44.82353" lon="4.63814">
        <ele>431.2</ele>
        <time>2019-11-09T07:48:50Z</time>
      </trkpt>
      <trkpt lat="44.82353" lon="4.63814">
        <ele>431.2</ele>
        <time>2019-11-09T07:48:51Z</time>
      </trkpt>
      <trkpt lat="44.82354" lon="4.63815">
        <ele>431.2</ele>
        <time>2019-11-09T07:48:55Z</time>
      </trkpt>
      <trkpt lat="44.82354" lon="4.63816">
        <ele>431.2</ele>
        <time>2019-11-09T07:48:56Z</time>
      </trkpt>
      <trkpt lat="44.82354" lon="4.63815">
        <ele>431.2</ele>
        <time>2019-11-09T07:48:57Z</time>
      </trkpt>
      <trkpt lat="44.82354" lon="4.63815">
        <ele>431.2</ele>
        <time>2019-11-09T07:48:58Z</time>
      </trkpt>
      <trkpt lat="44.82354" lon="4.63814">
        <ele>431.2</ele>
        <time>2019-11-09T07:49:00Z</time>
      </trkpt>
      <trkpt lat="44.82356" lon="4.63815">
        <ele>431.2</ele>
        <time>2019-11-09T07:49:03Z</time>
      </trkpt>
      <trkpt lat="44.82357" lon="4.63815">
        <ele>431.2</ele>
        <time>2019-11-09T07:49:04Z</time>
      </trkpt>
      <trkpt lat="44.82358" lon="4.63816">
        <ele>431.2</ele>
        <time>2019-11-09T07:49:05Z</time>
      </trkpt>
      <trkpt lat="44.82358" lon="4.63818">
        <ele>431.2</ele>
        <time>2019-11-09T07:49:08Z</time>
      </trkpt>
      <trkpt lat="44.82357" lon="4.63818">
        <ele>431.2</ele>
        <time>2019-11-09T07:49:10Z</time>
      </trkpt>
      <trkpt lat="44.82356" lon="4.63819">
        <ele>431.2</ele>
        <time>2019-11-09T07:49:17Z</time>
      </trkpt>
      <trkpt lat="44.82356" lon="4.63821">
        <ele>431.2</ele>
        <time>2019-11-09T07:49:24Z</time>
      </trkpt>
      <trkpt lat="44.82356" lon="4.63819">
        <ele>431.2</ele>
        <time>2019-11-09T07:49:32Z</time>
      </trkpt>
      <trkpt lat="44.82356" lon="4.63819">
        <ele>431.2</ele>
        <time>2019-11-09T07:49:34Z</time>
      </trkpt>
      <trkpt lat="44.82355" lon="4.63817">
        <ele>431.2</ele>
        <time>2019-11-09T07:49:43Z</time>
      </trkpt>
      <trkpt lat="44.82354" lon="4.63816">
        <ele>431.2</ele>
        <time>2019-11-09T07:49:46Z</time>
      </trkpt>
      <trkpt lat="44.82354" lon="4.63816">
        <ele>431.2</ele>
        <time>2019-11-09T07:49:47Z</time>
      </trkpt>
      <trkpt lat="44.82354" lon="4.63815">
        <ele>431.2</ele>
        <time>2019-11-09T07:49:48Z</time>
      </trkpt>
      <trkpt lat="44.82354" lon="4.63815">
        <ele>431.2</ele>
        <time>2019-11-09T07:49:49Z</time>
      </trkpt>
      <trkpt lat="44.82353" lon="4.63816">
        <ele>431.2</ele>
        <time>2019-11-09T07:49:50Z</time>
      </trkpt>
      <trkpt lat="44.82353" lon="4.63816">
        <ele>431.2</ele>
        <time>2019-11-09T07:49:51Z</time>
      </trkpt>
      <trkpt lat="44.8235" lon="4.63817">
        <ele>431.2</ele>
        <time>2019-11-09T07:49:58Z</time>
      </trkpt>
      <trkpt lat="44.82349" lon="4.63817">
        <ele>431.2</ele>
        <time>2019-11-09T07:50:04Z</time>
      </trkpt>
      <trkpt lat="44.82351" lon="4.63813">
        <ele>431.2</ele>
        <time>2019-11-09T07:50:08Z</time>
      </trkpt>
      <trkpt lat="44.82351" lon="4.63812">
        <ele>431.2</ele>
        <time>2019-11-09T07:50:10Z</time>
      </trkpt>
      <trkpt lat="44.82352" lon="4.63809">
        <ele>431.2</ele>
        <time>2019-11-09T07:50:17Z</time>
      </trkpt>
      <trkpt lat="44.82352" lon="4.63808">
        <ele>431.2</ele>
        <time>2019-11-09T07:50:19Z</time>
      </trkpt>
      <trkpt lat="44.82351" lon="4.63808">
        <ele>431.2</ele>
        <time>2019-11-09T07:50:21Z</time>
      </trkpt>
      <trkpt lat="44.8235" lon="4.63807">
        <ele>431.2</ele>
        <time>2019-11-09T07:50:26Z</time>
      </trkpt>
      <trkpt lat="44.8235" lon="4.63807">
        <ele>431.2</ele>
        <time>2019-11-09T07:50:27Z</time>
      </trkpt>
      <trkpt lat="44.82351" lon="4.63806">
        <ele>431.2</ele>
        <time>2019-11-09T07:50:29Z</time>
      </trkpt>
      <trkpt lat="44.82352" lon="4.63805">
        <ele>431.2</ele>
        <time>2019-11-09T07:50:33Z</time>
      </trkpt>
      <trkpt lat="44.82351" lon="4.63808">
        <ele>431.2</ele>
        <time>2019-11-09T07:50:40Z</time>
      </trkpt>
      <trkpt lat="44.82353" lon="4.63808">
        <ele>431.2</ele>
        <time>2019-11-09T07:50:47Z</time>
      </trkpt>
      <trkpt lat="44.82355" lon="4.63809">
        <ele>431.2</ele>
        <time>2019-11-09T07:50:50Z</time>
      </trkpt>
      <trkpt lat="44.82357" lon="4.63812">
        <ele>431.2</ele>
        <time>2019-11-09T07:50:52Z</time>
      </trkpt>
      <trkpt lat="44.82363" lon="4.63819">
        <ele>431</ele>
        <time>2019-11-09T07:50:58Z</time>
      </trkpt>
      <trkpt lat="44.82365" lon="4.63823">
        <ele>431.2</ele>
        <time>2019-11-09T07:51:00Z</time>
      </trkpt>
      <trkpt lat="44.82365" lon="4.63826">
        <ele>431.2</ele>
        <time>2019-11-09T07:51:01Z</time>
      </trkpt>
      <trkpt lat="44.82366" lon="4.63828">
        <ele>431.4</ele>
        <time>2019-11-09T07:51:02Z</time>
      </trkpt>
      <trkpt lat="44.82367" lon="4.6383">
        <ele>431.6</ele>
        <time>2019-11-09T07:51:03Z</time>
      </trkpt>
      <trkpt lat="44.82367" lon="4.63833">
        <ele>431.8</ele>
        <time>2019-11-09T07:51:04Z</time>
      </trkpt>
      <trkpt lat="44.82368" lon="4.63838">
        <ele>432.6</ele>
        <time>2019-11-09T07:51:06Z</time>
      </trkpt>
      <trkpt lat="44.82369" lon="4.63842">
        <ele>433</ele>
        <time>2019-11-09T07:51:08Z</time>
      </trkpt>
      <trkpt lat="44.82369" lon="4.63844">
        <ele>433</ele>
        <time>2019-11-09T07:51:09Z</time>
      </trkpt>
      <trkpt lat="44.82371" lon="4.63849">
        <ele>433.2</ele>
        <time>2019-11-09T07:51:11Z</time>
      </trkpt>
      <trkpt lat="44.82372" lon="4.63851">
        <ele>433.4</ele>
        <time>2019-11-09T07:51:12Z</time>
      </trkpt>
      <trkpt lat="44.82374" lon="4.63855">
        <ele>433.8</ele>
        <time>2019-11-09T07:51:14Z</time>
      </trkpt>
      <trkpt lat="44.82375" lon="4.63856">
        <ele>434</ele>
        <time>2019-11-09T07:51:15Z</time>
      </trkpt>
      <trkpt lat="44.82377" lon="4.6386">
        <ele>434.4</ele>
        <time>2019-11-09T07:51:17Z</time>
      </trkpt>
      <trkpt lat="44.82383" lon="4.63866">
        <ele>435</ele>
        <time>2019-11-09T07:51:22Z</time>
      </trkpt>
      <trkpt lat="44.82384" lon="4.63867">
        <ele>435.2</ele>
        <time>2019-11-09T07:51:23Z</time>
      </trkpt>
      <trkpt lat="44.82385" lon="4.63868">
        <ele>435.2</ele>
        <time>2019-11-09T07:51:24Z</time>
      </trkpt>
      <trkpt lat="44.82386" lon="4.6387">
        <ele>435.4</ele>
        <time>2019-11-09T07:51:25Z</time>
      </trkpt>
      <trkpt lat="44.82388" lon="4.63872">
        <ele>435.8</ele>
        <time>2019-11-09T07:51:28Z</time>
      </trkpt>
      <trkpt lat="44.82392" lon="4.63875">
        <ele>436.2</ele>
        <time>2019-11-09T07:51:31Z</time>
      </trkpt>
      <trkpt lat="44.82394" lon="4.63876">
        <ele>436.4</ele>
        <time>2019-11-09T07:51:32Z</time>
      </trkpt>
      <trkpt lat="44.82397" lon="4.63879">
        <ele>436.6</ele>
        <time>2019-11-09T07:51:35Z</time>
      </trkpt>
      <trkpt lat="44.82402" lon="4.63885">
        <ele>437.4</ele>
        <time>2019-11-09T07:51:39Z</time>
      </trkpt>
      <trkpt lat="44.82405" lon="4.63886">
        <ele>437.6</ele>
        <time>2019-11-09T07:51:40Z</time>
      </trkpt>
      <trkpt lat="44.8241" lon="4.63889">
        <ele>438.2</ele>
        <time>2019-11-09T07:51:44Z</time>
      </trkpt>
      <trkpt lat="44.82411" lon="4.6389">
        <ele>438.4</ele>
        <time>2019-11-09T07:51:45Z</time>
      </trkpt>
      <trkpt lat="44.82413" lon="4.63891">
        <ele>438.4</ele>
        <time>2019-11-09T07:51:46Z</time>
      </trkpt>
      <trkpt lat="44.82416" lon="4.63895">
        <ele>439</ele>
        <time>2019-11-09T07:51:50Z</time>
      </trkpt>
      <trkpt lat="44.82418" lon="4.63898">
        <ele>439.4</ele>
        <time>2019-11-09T07:51:52Z</time>
      </trkpt>
      <trkpt lat="44.82428" lon="4.63909">
        <ele>440.2</ele>
        <time>2019-11-09T07:51:59Z</time>
      </trkpt>
      <trkpt lat="44.82428" lon="4.63911">
        <ele>440.4</ele>
        <time>2019-11-09T07:52:00Z</time>
      </trkpt>
      <trkpt lat="44.82438" lon="4.63924">
        <ele>441.6</ele>
        <time>2019-11-09T07:52:09Z</time>
      </trkpt>
      <trkpt lat="44.82443" lon="4.63932">
        <ele>442.6</ele>
        <time>2019-11-09T07:52:15Z</time>
      </trkpt>
      <trkpt lat="44.82445" lon="4.63935">
        <ele>443</ele>
        <time>2019-11-09T07:52:17Z</time>
      </trkpt>
      <trkpt lat="44.82448" lon="4.63942">
        <ele>443.8</ele>
        <time>2019-11-09T07:52:21Z</time>
      </trkpt>
      <trkpt lat="44.8245" lon="4.63946">
        <ele>444</ele>
        <time>2019-11-09T07:52:23Z</time>
      </trkpt>
      <trkpt lat="44.82451" lon="4.6395">
        <ele>444.2</ele>
        <time>2019-11-09T07:52:25Z</time>
      </trkpt>
      <trkpt lat="44.82453" lon="4.63956">
        <ele>445</ele>
        <time>2019-11-09T07:52:29Z</time>
      </trkpt>
      <trkpt lat="44.82457" lon="4.63966">
        <ele>445.6</ele>
        <time>2019-11-09T07:52:35Z</time>
      </trkpt>
      <trkpt lat="44.82459" lon="4.63972">
        <ele>446.2</ele>
        <time>2019-11-09T07:52:38Z</time>
      </trkpt>
      <trkpt lat="44.82463" lon="4.63982">
        <ele>447.2</ele>
        <time>2019-11-09T07:52:43Z</time>
      </trkpt>
      <trkpt lat="44.82463" lon="4.63984">
        <ele>447.4</ele>
        <time>2019-11-09T07:52:44Z</time>
      </trkpt>
      <trkpt lat="44.82467" lon="4.63999">
        <ele>448.2</ele>
        <time>2019-11-09T07:52:51Z</time>
      </trkpt>
      <trkpt lat="44.82469" lon="4.64011">
        <ele>449.4</ele>
        <time>2019-11-09T07:52:57Z</time>
      </trkpt>
      <trkpt lat="44.82469" lon="4.64013">
        <ele>449.6</ele>
        <time>2019-11-09T07:52:58Z</time>
      </trkpt>
      <trkpt lat="44.82469" lon="4.64023">
        <ele>450.6</ele>
        <time>2019-11-09T07:53:03Z</time>
      </trkpt>
      <trkpt lat="44.82468" lon="4.64029">
        <ele>451</ele>
        <time>2019-11-09T07:53:06Z</time>
      </trkpt>
      <trkpt lat="44.82466" lon="4.64034">
        <ele>451.6</ele>
        <time>2019-11-09T07:53:09Z</time>
      </trkpt>
      <trkpt lat="44.82463" lon="4.64039">
        <ele>452.2</ele>
        <time>2019-11-09T07:53:12Z</time>
      </trkpt>
      <trkpt lat="44.82462" lon="4.64042">
        <ele>452.6</ele>
        <time>2019-11-09T07:53:14Z</time>
      </trkpt>
      <trkpt lat="44.82457" lon="4.64049">
        <ele>454</ele>
        <time>2019-11-09T07:53:20Z</time>
      </trkpt>
      <trkpt lat="44.82456" lon="4.6405">
        <ele>454.2</ele>
        <time>2019-11-09T07:53:21Z</time>
      </trkpt>
      <trkpt lat="44.82449" lon="4.64058">
        <ele>455.2</ele>
        <time>2019-11-09T07:53:27Z</time>
      </trkpt>
      <trkpt lat="44.82446" lon="4.64062">
        <ele>455.6</ele>
        <time>2019-11-09T07:53:30Z</time>
      </trkpt>
      <trkpt lat="44.82439" lon="4.64067">
        <ele>456.2</ele>
        <time>2019-11-09T07:53:35Z</time>
      </trkpt>
      <trkpt lat="44.82437" lon="4.64069">
        <ele>456.6</ele>
        <time>2019-11-09T07:53:37Z</time>
      </trkpt>
      <trkpt lat="44.82431" lon="4.64073">
        <ele>457.6</ele>
        <time>2019-11-09T07:53:42Z</time>
      </trkpt>
      <trkpt lat="44.82428" lon="4.64075">
        <ele>458.2</ele>
        <time>2019-11-09T07:53:44Z</time>
      </trkpt>
      <trkpt lat="44.82424" lon="4.64076">
        <ele>458.8</ele>
        <time>2019-11-09T07:53:46Z</time>
      </trkpt>
      <trkpt lat="44.82421" lon="4.64079">
        <ele>459.2</ele>
        <time>2019-11-09T07:53:49Z</time>
      </trkpt>
      <trkpt lat="44.82418" lon="4.64081">
        <ele>459.6</ele>
        <time>2019-11-09T07:53:51Z</time>
      </trkpt>
      <trkpt lat="44.82414" lon="4.64082">
        <ele>459.8</ele>
        <time>2019-11-09T07:53:54Z</time>
      </trkpt>
      <trkpt lat="44.8241" lon="4.64084">
        <ele>460.4</ele>
        <time>2019-11-09T07:53:57Z</time>
      </trkpt>
      <trkpt lat="44.82404" lon="4.64093">
        <ele>461</ele>
        <time>2019-11-09T07:54:02Z</time>
      </trkpt>
      <trkpt lat="44.82404" lon="4.64095">
        <ele>461.2</ele>
        <time>2019-11-09T07:54:03Z</time>
      </trkpt>
      <trkpt lat="44.82402" lon="4.64099">
        <ele>461.4</ele>
        <time>2019-11-09T07:54:05Z</time>
      </trkpt>
      <trkpt lat="44.82406" lon="4.64106">
        <ele>461.8</ele>
        <time>2019-11-09T07:54:09Z</time>
      </trkpt>
      <trkpt lat="44.82407" lon="4.64107">
        <ele>462</ele>
        <time>2019-11-09T07:54:10Z</time>
      </trkpt>
      <trkpt lat="44.82412" lon="4.64107">
        <ele>463</ele>
        <time>2019-11-09T07:54:14Z</time>
      </trkpt>
      <trkpt lat="44.82413" lon="4.64106">
        <ele>463.2</ele>
        <time>2019-11-09T07:54:15Z</time>
      </trkpt>
      <trkpt lat="44.82419" lon="4.64099">
        <ele>463.6</ele>
        <time>2019-11-09T07:54:19Z</time>
      </trkpt>
      <trkpt lat="44.82423" lon="4.64096">
        <ele>464.2</ele>
        <time>2019-11-09T07:54:22Z</time>
      </trkpt>
      <trkpt lat="44.82427" lon="4.64094">
        <ele>464.8</ele>
        <time>2019-11-09T07:54:25Z</time>
      </trkpt>
      <trkpt lat="44.82435" lon="4.64092">
        <ele>465.4</ele>
        <time>2019-11-09T07:54:30Z</time>
      </trkpt>
      <trkpt lat="44.82446" lon="4.64091">
        <ele>466</ele>
        <time>2019-11-09T07:54:36Z</time>
      </trkpt>
      <trkpt lat="44.82447" lon="4.64091">
        <ele>466.2</ele>
        <time>2019-11-09T07:54:37Z</time>
      </trkpt>
      <trkpt lat="44.82448" lon="4.6409">
        <ele>466.4</ele>
        <time>2019-11-09T07:54:38Z</time>
      </trkpt>
      <trkpt lat="44.82455" lon="4.64087">
        <ele>467.4</ele>
        <time>2019-11-09T07:54:43Z</time>
      </trkpt>
      <trkpt lat="44.82458" lon="4.64087">
        <ele>468</ele>
        <time>2019-11-09T07:54:45Z</time>
      </trkpt>
      <trkpt lat="44.82461" lon="4.64085">
        <ele>468.4</ele>
        <time>2019-11-09T07:54:48Z</time>
      </trkpt>
      <trkpt lat="44.82463" lon="4.64085">
        <ele>468.6</ele>
        <time>2019-11-09T07:54:49Z</time>
      </trkpt>
      <trkpt lat="44.82466" lon="4.64084">
        <ele>469</ele>
        <time>2019-11-09T07:54:51Z</time>
      </trkpt>
      <trkpt lat="44.8247" lon="4.64083">
        <ele>469.6</ele>
        <time>2019-11-09T07:54:54Z</time>
      </trkpt>
      <trkpt lat="44.82478" lon="4.6408">
        <ele>470.6</ele>
        <time>2019-11-09T07:54:59Z</time>
      </trkpt>
      <trkpt lat="44.82479" lon="4.6408">
        <ele>470.8</ele>
        <time>2019-11-09T07:55:00Z</time>
      </trkpt>
      <trkpt lat="44.82488" lon="4.64076">
        <ele>472</ele>
        <time>2019-11-09T07:55:06Z</time>
      </trkpt>
      <trkpt lat="44.82497" lon="4.64071">
        <ele>472.8</ele>
        <time>2019-11-09T07:55:12Z</time>
      </trkpt>
      <trkpt lat="44.825" lon="4.6407">
        <ele>473</ele>
        <time>2019-11-09T07:55:14Z</time>
      </trkpt>
      <trkpt lat="44.82508" lon="4.64066">
        <ele>474</ele>
        <time>2019-11-09T07:55:19Z</time>
      </trkpt>
      <trkpt lat="44.8251" lon="4.64065">
        <ele>474.2</ele>
        <time>2019-11-09T07:55:20Z</time>
      </trkpt>
      <trkpt lat="44.82518" lon="4.6406">
        <ele>475</ele>
        <time>2019-11-09T07:55:26Z</time>
      </trkpt>
      <trkpt lat="44.82518" lon="4.64058">
        <ele>475.2</ele>
        <time>2019-11-09T07:55:27Z</time>
      </trkpt>
      <trkpt lat="44.82521" lon="4.64053">
        <ele>476.2</ele>
        <time>2019-11-09T07:55:31Z</time>
      </trkpt>
      <trkpt lat="44.82523" lon="4.64051">
        <ele>476.4</ele>
        <time>2019-11-09T07:55:32Z</time>
      </trkpt>
      <trkpt lat="44.82527" lon="4.64044">
        <ele>476.8</ele>
        <time>2019-11-09T07:55:36Z</time>
      </trkpt>
      <trkpt lat="44.82531" lon="4.64035">
        <ele>477.6</ele>
        <time>2019-11-09T07:55:41Z</time>
      </trkpt>
      <trkpt lat="44.82533" lon="4.64023">
        <ele>478.6</ele>
        <time>2019-11-09T07:55:47Z</time>
      </trkpt>
      <trkpt lat="44.82534" lon="4.64021">
        <ele>478.8</ele>
        <time>2019-11-09T07:55:48Z</time>
      </trkpt>
      <trkpt lat="44.82536" lon="4.64011">
        <ele>479.8</ele>
        <time>2019-11-09T07:55:54Z</time>
      </trkpt>
      <trkpt lat="44.82537" lon="4.64008">
        <ele>480.4</ele>
        <time>2019-11-09T07:55:56Z</time>
      </trkpt>
      <trkpt lat="44.82539" lon="4.64001">
        <ele>480.8</ele>
        <time>2019-11-09T07:55:59Z</time>
      </trkpt>
      <trkpt lat="44.8254" lon="4.63994">
        <ele>481.2</ele>
        <time>2019-11-09T07:56:03Z</time>
      </trkpt>
      <trkpt lat="44.82542" lon="4.63989">
        <ele>482</ele>
        <time>2019-11-09T07:56:06Z</time>
      </trkpt>
      <trkpt lat="44.82546" lon="4.63978">
        <ele>482.6</ele>
        <time>2019-11-09T07:56:12Z</time>
      </trkpt>
      <trkpt lat="44.82547" lon="4.63972">
        <ele>483.2</ele>
        <time>2019-11-09T07:56:15Z</time>
      </trkpt>
      <trkpt lat="44.82551" lon="4.63959">
        <ele>484</ele>
        <time>2019-11-09T07:56:21Z</time>
      </trkpt>
      <trkpt lat="44.82551" lon="4.63957">
        <ele>484.4</ele>
        <time>2019-11-09T07:56:22Z</time>
      </trkpt>
      <trkpt lat="44.82557" lon="4.63946">
        <ele>485.4</ele>
        <time>2019-11-09T07:56:28Z</time>
      </trkpt>
      <trkpt lat="44.82564" lon="4.6394">
        <ele>486.4</ele>
        <time>2019-11-09T07:56:34Z</time>
      </trkpt>
      <trkpt lat="44.82566" lon="4.6394">
        <ele>486.6</ele>
        <time>2019-11-09T07:56:35Z</time>
      </trkpt>
      <trkpt lat="44.82572" lon="4.63938">
        <ele>487.6</ele>
        <time>2019-11-09T07:56:39Z</time>
      </trkpt>
      <trkpt lat="44.82578" lon="4.63936">
        <ele>488.2</ele>
        <time>2019-11-09T07:56:43Z</time>
      </trkpt>
      <trkpt lat="44.82584" lon="4.63934">
        <ele>488.6</ele>
        <time>2019-11-09T07:56:47Z</time>
      </trkpt>
      <trkpt lat="44.8259" lon="4.63934">
        <ele>489.2</ele>
        <time>2019-11-09T07:56:51Z</time>
      </trkpt>
      <trkpt lat="44.82594" lon="4.63932">
        <ele>489.6</ele>
        <time>2019-11-09T07:56:54Z</time>
      </trkpt>
      <trkpt lat="44.826" lon="4.63927">
        <ele>490.2</ele>
        <time>2019-11-09T07:56:58Z</time>
      </trkpt>
      <trkpt lat="44.82602" lon="4.63923">
        <ele>490.8</ele>
        <time>2019-11-09T07:57:01Z</time>
      </trkpt>
      <trkpt lat="44.82603" lon="4.63916">
        <ele>491.2</ele>
        <time>2019-11-09T07:57:05Z</time>
      </trkpt>
      <trkpt lat="44.82603" lon="4.63905">
        <ele>491.8</ele>
        <time>2019-11-09T07:57:10Z</time>
      </trkpt>
      <trkpt lat="44.82602" lon="4.63894">
        <ele>492.2</ele>
        <time>2019-11-09T07:57:15Z</time>
      </trkpt>
      <trkpt lat="44.82601" lon="4.63888">
        <ele>493</ele>
        <time>2019-11-09T07:57:18Z</time>
      </trkpt>
      <trkpt lat="44.826" lon="4.63873">
        <ele>494</ele>
        <time>2019-11-09T07:57:25Z</time>
      </trkpt>
      <trkpt lat="44.826" lon="4.63871">
        <ele>494</ele>
        <time>2019-11-09T07:57:26Z</time>
      </trkpt>
      <trkpt lat="44.82599" lon="4.63856">
        <ele>495.2</ele>
        <time>2019-11-09T07:57:33Z</time>
      </trkpt>
      <trkpt lat="44.82599" lon="4.63854">
        <ele>495.4</ele>
        <time>2019-11-09T07:57:34Z</time>
      </trkpt>
      <trkpt lat="44.82599" lon="4.63845">
        <ele>496.2</ele>
        <time>2019-11-09T07:57:39Z</time>
      </trkpt>
      <trkpt lat="44.82599" lon="4.63841">
        <ele>496.4</ele>
        <time>2019-11-09T07:57:41Z</time>
      </trkpt>
      <trkpt lat="44.82599" lon="4.63824">
        <ele>497.2</ele>
        <time>2019-11-09T07:57:49Z</time>
      </trkpt>
      <trkpt lat="44.826" lon="4.63822">
        <ele>497.4</ele>
        <time>2019-11-09T07:57:50Z</time>
      </trkpt>
      <trkpt lat="44.82602" lon="4.63813">
        <ele>498.4</ele>
        <time>2019-11-09T07:57:55Z</time>
      </trkpt>
      <trkpt lat="44.82605" lon="4.63807">
        <ele>498.8</ele>
        <time>2019-11-09T07:57:58Z</time>
      </trkpt>
      <trkpt lat="44.82606" lon="4.63799">
        <ele>499.4</ele>
        <time>2019-11-09T07:58:03Z</time>
      </trkpt>
      <trkpt lat="44.82607" lon="4.63798">
        <ele>499.6</ele>
        <time>2019-11-09T07:58:04Z</time>
      </trkpt>
      <trkpt lat="44.82609" lon="4.63796">
        <ele>499.8</ele>
        <time>2019-11-09T07:58:05Z</time>
      </trkpt>
      <trkpt lat="44.82612" lon="4.63789">
        <ele>500.6</ele>
        <time>2019-11-09T07:58:09Z</time>
      </trkpt>
      <trkpt lat="44.82615" lon="4.63783">
        <ele>501.4</ele>
        <time>2019-11-09T07:58:12Z</time>
      </trkpt>
      <trkpt lat="44.82616" lon="4.63782">
        <ele>501.6</ele>
        <time>2019-11-09T07:58:13Z</time>
      </trkpt>
      <trkpt lat="44.82622" lon="4.63771">
        <ele>502.6</ele>
        <time>2019-11-09T07:58:20Z</time>
      </trkpt>
      <trkpt lat="44.82623" lon="4.6377">
        <ele>502.8</ele>
        <time>2019-11-09T07:58:21Z</time>
      </trkpt>
      <trkpt lat="44.82627" lon="4.63762">
        <ele>503.8</ele>
        <time>2019-11-09T07:58:26Z</time>
      </trkpt>
      <trkpt lat="44.82636" lon="4.63754">
        <ele>504.6</ele>
        <time>2019-11-09T07:58:33Z</time>
      </trkpt>
      <trkpt lat="44.82638" lon="4.63751">
        <ele>504.8</ele>
        <time>2019-11-09T07:58:35Z</time>
      </trkpt>
      <trkpt lat="44.82642" lon="4.63746">
        <ele>505.8</ele>
        <time>2019-11-09T07:58:40Z</time>
      </trkpt>
      <trkpt lat="44.82643" lon="4.63745">
        <ele>506</ele>
        <time>2019-11-09T07:58:41Z</time>
      </trkpt>
      <trkpt lat="44.82655" lon="4.63731">
        <ele>507.2</ele>
        <time>2019-11-09T07:58:48Z</time>
      </trkpt>
      <trkpt lat="44.82663" lon="4.63719">
        <ele>508.2</ele>
        <time>2019-11-09T07:58:55Z</time>
      </trkpt>
      <trkpt lat="44.82664" lon="4.63718">
        <ele>508.4</ele>
        <time>2019-11-09T07:58:56Z</time>
      </trkpt>
      <trkpt lat="44.82668" lon="4.63711">
        <ele>509.2</ele>
        <time>2019-11-09T07:59:01Z</time>
      </trkpt>
      <trkpt lat="44.82671" lon="4.63709">
        <ele>509.6</ele>
        <time>2019-11-09T07:59:03Z</time>
      </trkpt>
      <trkpt lat="44.82679" lon="4.63704">
        <ele>510.4</ele>
        <time>2019-11-09T07:59:09Z</time>
      </trkpt>
      <trkpt lat="44.82683" lon="4.63703">
        <ele>511</ele>
        <time>2019-11-09T07:59:12Z</time>
      </trkpt>
      <trkpt lat="44.82687" lon="4.63701">
        <ele>511.6</ele>
        <time>2019-11-09T07:59:15Z</time>
      </trkpt>
      <trkpt lat="44.82692" lon="4.63699">
        <ele>512.8</ele>
        <time>2019-11-09T07:59:19Z</time>
      </trkpt>
      <trkpt lat="44.82694" lon="4.63699">
        <ele>513</ele>
        <time>2019-11-09T07:59:20Z</time>
      </trkpt>
      <trkpt lat="44.827" lon="4.63698">
        <ele>514</ele>
        <time>2019-11-09T07:59:25Z</time>
      </trkpt>
      <trkpt lat="44.82705" lon="4.63698">
        <ele>514.2</ele>
        <time>2019-11-09T07:59:28Z</time>
      </trkpt>
      <trkpt lat="44.82708" lon="4.63699">
        <ele>515</ele>
        <time>2019-11-09T07:59:33Z</time>
      </trkpt>
      <trkpt lat="44.82709" lon="4.637">
        <ele>515.2</ele>
        <time>2019-11-09T07:59:34Z</time>
      </trkpt>
      <trkpt lat="44.82717" lon="4.63706">
        <ele>516.2</ele>
        <time>2019-11-09T07:59:40Z</time>
      </trkpt>
      <trkpt lat="44.82724" lon="4.63714">
        <ele>517.4</ele>
        <time>2019-11-09T07:59:46Z</time>
      </trkpt>
      <trkpt lat="44.82725" lon="4.63715">
        <ele>517.6</ele>
        <time>2019-11-09T07:59:47Z</time>
      </trkpt>
      <trkpt lat="44.82736" lon="4.63721">
        <ele>518.6</ele>
        <time>2019-11-09T07:59:54Z</time>
      </trkpt>
      <trkpt lat="44.82739" lon="4.63722">
        <ele>519</ele>
        <time>2019-11-09T07:59:56Z</time>
      </trkpt>
      <trkpt lat="44.82744" lon="4.63722">
        <ele>519.8</ele>
        <time>2019-11-09T07:59:59Z</time>
      </trkpt>
      <trkpt lat="44.82752" lon="4.63721">
        <ele>520.2</ele>
        <time>2019-11-09T08:00:04Z</time>
      </trkpt>
      <trkpt lat="44.82759" lon="4.63718">
        <ele>520.8</ele>
        <time>2019-11-09T08:00:08Z</time>
      </trkpt>
      <trkpt lat="44.82765" lon="4.63717">
        <ele>521.6</ele>
        <time>2019-11-09T08:00:12Z</time>
      </trkpt>
      <trkpt lat="44.82768" lon="4.63716">
        <ele>522</ele>
        <time>2019-11-09T08:00:14Z</time>
      </trkpt>
      <trkpt lat="44.82773" lon="4.63715">
        <ele>522.4</ele>
        <time>2019-11-09T08:00:17Z</time>
      </trkpt>
      <trkpt lat="44.8278" lon="4.63714">
        <ele>523</ele>
        <time>2019-11-09T08:00:22Z</time>
      </trkpt>
      <trkpt lat="44.82788" lon="4.63713">
        <ele>524</ele>
        <time>2019-11-09T08:00:27Z</time>
      </trkpt>
      <trkpt lat="44.82789" lon="4.63713">
        <ele>524.2</ele>
        <time>2019-11-09T08:00:28Z</time>
      </trkpt>
      <trkpt lat="44.82799" lon="4.6371">
        <ele>525.2</ele>
        <time>2019-11-09T08:00:34Z</time>
      </trkpt>
      <trkpt lat="44.82808" lon="4.63701">
        <ele>526.4</ele>
        <time>2019-11-09T08:00:41Z</time>
      </trkpt>
      <trkpt lat="44.82809" lon="4.63699">
        <ele>526.6</ele>
        <time>2019-11-09T08:00:42Z</time>
      </trkpt>
      <trkpt lat="44.82809" lon="4.63685">
        <ele>527.4</ele>
        <time>2019-11-09T08:00:49Z</time>
      </trkpt>
      <trkpt lat="44.82806" lon="4.6367">
        <ele>528.8</ele>
        <time>2019-11-09T08:00:56Z</time>
      </trkpt>
      <trkpt lat="44.82804" lon="4.63666">
        <ele>529.2</ele>
        <time>2019-11-09T08:00:58Z</time>
      </trkpt>
      <trkpt lat="44.82795" lon="4.6365">
        <ele>529</ele>
        <time>2019-11-09T08:01:06Z</time>
      </trkpt>
      <trkpt lat="44.82786" lon="4.63636">
        <ele>528.8</ele>
        <time>2019-11-09T08:01:13Z</time>
      </trkpt>
      <trkpt lat="44.82781" lon="4.6363">
        <ele>529</ele>
        <time>2019-11-09T08:01:16Z</time>
      </trkpt>
      <trkpt lat="44.82779" lon="4.63625">
        <ele>529</ele>
        <time>2019-11-09T08:01:22Z</time>
      </trkpt>
      <trkpt lat="44.82779" lon="4.63625">
        <ele>529.2</ele>
        <time>2019-11-09T08:01:26Z</time>
      </trkpt>
      <trkpt lat="44.82779" lon="4.63626">
        <ele>529.2</ele>
        <time>2019-11-09T08:01:29Z</time>
      </trkpt>
      <trkpt lat="44.82778" lon="4.63626">
        <ele>529.2</ele>
        <time>2019-11-09T08:01:36Z</time>
      </trkpt>
      <trkpt lat="44.82778" lon="4.63626">
        <ele>529.2</ele>
        <time>2019-11-09T08:01:40Z</time>
      </trkpt>
      <trkpt lat="44.82778" lon="4.63626">
        <ele>529</ele>
        <time>2019-11-09T08:01:43Z</time>
      </trkpt>
      <trkpt lat="44.82778" lon="4.63626">
        <ele>529</ele>
        <time>2019-11-09T08:01:45Z</time>
      </trkpt>
      <trkpt lat="44.82778" lon="4.63626">
        <ele>528.8</ele>
        <time>2019-11-09T08:01:48Z</time>
      </trkpt>
      <trkpt lat="44.82779" lon="4.63627">
        <ele>528.8</ele>
        <time>2019-11-09T08:01:52Z</time>
      </trkpt>
      <trkpt lat="44.82778" lon="4.63628">
        <ele>528.8</ele>
        <time>2019-11-09T08:02:00Z</time>
      </trkpt>
      <trkpt lat="44.82778" lon="4.63628">
        <ele>528.8</ele>
        <time>2019-11-09T08:02:08Z</time>
      </trkpt>
      <trkpt lat="44.82777" lon="4.63629">
        <ele>528.6</ele>
        <time>2019-11-09T08:02:28Z</time>
      </trkpt>
      <trkpt lat="44.82777" lon="4.63629">
        <ele>528.8</ele>
        <time>2019-11-09T08:02:35Z</time>
      </trkpt>
      <trkpt lat="44.82777" lon="4.6363">
        <ele>528.6</ele>
        <time>2019-11-09T08:02:42Z</time>
      </trkpt>
      <trkpt lat="44.82777" lon="4.6363">
        <ele>528.6</ele>
        <time>2019-11-09T08:02:45Z</time>
      </trkpt>
      <trkpt lat="44.82777" lon="4.6363">
        <ele>528.6</ele>
        <time>2019-11-09T08:02:49Z</time>
      </trkpt>
      <trkpt lat="44.82776" lon="4.63628">
        <ele>528.8</ele>
        <time>2019-11-09T08:02:59Z</time>
      </trkpt>
      <trkpt lat="44.82773" lon="4.63624">
        <ele>528.6</ele>
        <time>2019-11-09T08:03:02Z</time>
      </trkpt>
      <trkpt lat="44.8277" lon="4.63619">
        <ele>528.8</ele>
        <time>2019-11-09T08:03:05Z</time>
      </trkpt>
      <trkpt lat="44.82759" lon="4.636">
        <ele>529.2</ele>
        <time>2019-11-09T08:03:13Z</time>
      </trkpt>
      <trkpt lat="44.8275" lon="4.63579">
        <ele>529.8</ele>
        <time>2019-11-09T08:03:21Z</time>
      </trkpt>
      <trkpt lat="44.8275" lon="4.63576">
        <ele>529.8</ele>
        <time>2019-11-09T08:03:22Z</time>
      </trkpt>
      <trkpt lat="44.82746" lon="4.63559">
        <ele>530</ele>
        <time>2019-11-09T08:03:28Z</time>
      </trkpt>
      <trkpt lat="44.82745" lon="4.63557">
        <ele>530.2</ele>
        <time>2019-11-09T08:03:29Z</time>
      </trkpt>
      <trkpt lat="44.82742" lon="4.63543">
        <ele>530.8</ele>
        <time>2019-11-09T08:03:34Z</time>
      </trkpt>
      <trkpt lat="44.82742" lon="4.63523">
        <ele>531.2</ele>
        <time>2019-11-09T08:03:40Z</time>
      </trkpt>
      <trkpt lat="44.82745" lon="4.63508">
        <ele>532</ele>
        <time>2019-11-09T08:03:46Z</time>
      </trkpt>
      <trkpt lat="44.82745" lon="4.63504">
        <ele>532.4</ele>
        <time>2019-11-09T08:03:48Z</time>
      </trkpt>
      <trkpt lat="44.82744" lon="4.63499">
        <ele>532.6</ele>
        <time>2019-11-09T08:03:50Z</time>
      </trkpt>
      <trkpt lat="44.82743" lon="4.63492">
        <ele>533</ele>
        <time>2019-11-09T08:03:53Z</time>
      </trkpt>
      <trkpt lat="44.82743" lon="4.6349">
        <ele>533</ele>
        <time>2019-11-09T08:03:54Z</time>
      </trkpt>
      <trkpt lat="44.82742" lon="4.63472">
        <ele>533.2</ele>
        <time>2019-11-09T08:03:58Z</time>
      </trkpt>
      <trkpt lat="44.82741" lon="4.63469">
        <ele>533.2</ele>
        <time>2019-11-09T08:03:59Z</time>
      </trkpt>
      <trkpt lat="44.82741" lon="4.63466">
        <ele>533.4</ele>
        <time>2019-11-09T08:04:00Z</time>
      </trkpt>
      <trkpt lat="44.82739" lon="4.63463">
        <ele>533.4</ele>
        <time>2019-11-09T08:04:01Z</time>
      </trkpt>
      <trkpt lat="44.82736" lon="4.63457">
        <ele>533.6</ele>
        <time>2019-11-09T08:04:03Z</time>
      </trkpt>
      <trkpt lat="44.82731" lon="4.63451">
        <ele>533.8</ele>
        <time>2019-11-09T08:04:06Z</time>
      </trkpt>
      <trkpt lat="44.82729" lon="4.63445">
        <ele>534</ele>
        <time>2019-11-09T08:04:08Z</time>
      </trkpt>
      <trkpt lat="44.82724" lon="4.63437">
        <ele>534.2</ele>
        <time>2019-11-09T08:04:11Z</time>
      </trkpt>
      <trkpt lat="44.82717" lon="4.63418">
        <ele>534.8</ele>
        <time>2019-11-09T08:04:17Z</time>
      </trkpt>
      <trkpt lat="44.82711" lon="4.63407">
        <ele>535</ele>
        <time>2019-11-09T08:04:21Z</time>
      </trkpt>
      <trkpt lat="44.82706" lon="4.63401">
        <ele>535</ele>
        <time>2019-11-09T08:04:24Z</time>
      </trkpt>
      <trkpt lat="44.82694" lon="4.63383">
        <ele>534.2</ele>
        <time>2019-11-09T08:04:31Z</time>
      </trkpt>
      <trkpt lat="44.8269" lon="4.63379">
        <ele>533.8</ele>
        <time>2019-11-09T08:04:33Z</time>
      </trkpt>
      <trkpt lat="44.82686" lon="4.63368">
        <ele>533.4</ele>
        <time>2019-11-09T08:04:36Z</time>
      </trkpt>
      <trkpt lat="44.82676" lon="4.63347">
        <ele>533.8</ele>
        <time>2019-11-09T08:04:43Z</time>
      </trkpt>
      <trkpt lat="44.82666" lon="4.63329">
        <ele>534.4</ele>
        <time>2019-11-09T08:04:48Z</time>
      </trkpt>
      <trkpt lat="44.82663" lon="4.63322">
        <ele>534.4</ele>
        <time>2019-11-09T08:04:50Z</time>
      </trkpt>
      <trkpt lat="44.82661" lon="4.63316">
        <ele>534.4</ele>
        <time>2019-11-09T08:04:52Z</time>
      </trkpt>
      <trkpt lat="44.82658" lon="4.63298">
        <ele>534.6</ele>
        <time>2019-11-09T08:04:57Z</time>
      </trkpt>
      <trkpt lat="44.82657" lon="4.6329">
        <ele>534.8</ele>
        <time>2019-11-09T08:04:59Z</time>
      </trkpt>
      <trkpt lat="44.82656" lon="4.63279">
        <ele>535.8</ele>
        <time>2019-11-09T08:05:02Z</time>
      </trkpt>
      <trkpt lat="44.82656" lon="4.63274">
        <ele>536</ele>
        <time>2019-11-09T08:05:03Z</time>
      </trkpt>
      <trkpt lat="44.82658" lon="4.63256">
        <ele>536.4</ele>
        <time>2019-11-09T08:05:08Z</time>
      </trkpt>
      <trkpt lat="44.82658" lon="4.63242">
        <ele>537</ele>
        <time>2019-11-09T08:05:13Z</time>
      </trkpt>
      <trkpt lat="44.82659" lon="4.63238">
        <ele>537.2</ele>
        <time>2019-11-09T08:05:14Z</time>
      </trkpt>
      <trkpt lat="44.8266" lon="4.63234">
        <ele>537.4</ele>
        <time>2019-11-09T08:05:15Z</time>
      </trkpt>
      <trkpt lat="44.82662" lon="4.63222">
        <ele>537.8</ele>
        <time>2019-11-09T08:05:18Z</time>
      </trkpt>
      <trkpt lat="44.82664" lon="4.63211">
        <ele>538</ele>
        <time>2019-11-09T08:05:21Z</time>
      </trkpt>
      <trkpt lat="44.82665" lon="4.63198">
        <ele>538.2</ele>
        <time>2019-11-09T08:05:25Z</time>
      </trkpt>
      <trkpt lat="44.82667" lon="4.63192">
        <ele>538.6</ele>
        <time>2019-11-09T08:05:27Z</time>
      </trkpt>
      <trkpt lat="44.82668" lon="4.63182">
        <ele>539.4</ele>
        <time>2019-11-09T08:05:31Z</time>
      </trkpt>
      <trkpt lat="44.82669" lon="4.63176">
        <ele>539.6</ele>
        <time>2019-11-09T08:05:33Z</time>
      </trkpt>
      <trkpt lat="44.82672" lon="4.63161">
        <ele>540.2</ele>
        <time>2019-11-09T08:05:39Z</time>
      </trkpt>
      <trkpt lat="44.82673" lon="4.63159">
        <ele>540.4</ele>
        <time>2019-11-09T08:05:40Z</time>
      </trkpt>
      <trkpt lat="44.82676" lon="4.63147">
        <ele>541.4</ele>
        <time>2019-11-09T08:05:46Z</time>
      </trkpt>
      <trkpt lat="44.82678" lon="4.63131">
        <ele>542.6</ele>
        <time>2019-11-09T08:05:51Z</time>
      </trkpt>
      <trkpt lat="44.82678" lon="4.63124">
        <ele>542.8</ele>
        <time>2019-11-09T08:05:53Z</time>
      </trkpt>
      <trkpt lat="44.82677" lon="4.63115">
        <ele>543.6</ele>
        <time>2019-11-09T08:05:56Z</time>
      </trkpt>
      <trkpt lat="44.82672" lon="4.63104">
        <ele>544.8</ele>
        <time>2019-11-09T08:06:01Z</time>
      </trkpt>
      <trkpt lat="44.8267" lon="4.63102">
        <ele>544.8</ele>
        <time>2019-11-09T08:06:02Z</time>
      </trkpt>
      <trkpt lat="44.82666" lon="4.63092">
        <ele>545.6</ele>
        <time>2019-11-09T08:06:07Z</time>
      </trkpt>
      <trkpt lat="44.82664" lon="4.6309">
        <ele>546</ele>
        <time>2019-11-09T08:06:08Z</time>
      </trkpt>
      <trkpt lat="44.82663" lon="4.63089">
        <ele>546.4</ele>
        <time>2019-11-09T08:06:09Z</time>
      </trkpt>
      <trkpt lat="44.82659" lon="4.63081">
        <ele>547.2</ele>
        <time>2019-11-09T08:06:13Z</time>
      </trkpt>
      <trkpt lat="44.82657" lon="4.63075">
        <ele>547.8</ele>
        <time>2019-11-09T08:06:16Z</time>
      </trkpt>
      <trkpt lat="44.82655" lon="4.63071">
        <ele>548.2</ele>
        <time>2019-11-09T08:06:18Z</time>
      </trkpt>
      <trkpt lat="44.82652" lon="4.63062">
        <ele>549.2</ele>
        <time>2019-11-09T08:06:22Z</time>
      </trkpt>
      <trkpt lat="44.82651" lon="4.63059">
        <ele>549.4</ele>
        <time>2019-11-09T08:06:23Z</time>
      </trkpt>
      <trkpt lat="44.82647" lon="4.63046">
        <ele>549.8</ele>
        <time>2019-11-09T08:06:28Z</time>
      </trkpt>
      <trkpt lat="44.82645" lon="4.6303">
        <ele>550.6</ele>
        <time>2019-11-09T08:06:34Z</time>
      </trkpt>
      <trkpt lat="44.82644" lon="4.63025">
        <ele>550.8</ele>
        <time>2019-11-09T08:06:36Z</time>
      </trkpt>
      <trkpt lat="44.82643" lon="4.63014">
        <ele>551.2</ele>
        <time>2019-11-09T08:06:41Z</time>
      </trkpt>
      <trkpt lat="44.82641" lon="4.63005">
        <ele>551.8</ele>
        <time>2019-11-09T08:06:45Z</time>
      </trkpt>
      <trkpt lat="44.8264" lon="4.62997">
        <ele>552.2</ele>
        <time>2019-11-09T08:06:49Z</time>
      </trkpt>
      <trkpt lat="44.8264" lon="4.62992">
        <ele>552.2</ele>
        <time>2019-11-09T08:06:51Z</time>
      </trkpt>
      <trkpt lat="44.82639" lon="4.62985">
        <ele>552.4</ele>
        <time>2019-11-09T08:06:54Z</time>
      </trkpt>
      <trkpt lat="44.82639" lon="4.62975">
        <ele>552.8</ele>
        <time>2019-11-09T08:06:58Z</time>
      </trkpt>
      <trkpt lat="44.82638" lon="4.62967">
        <ele>553.2</ele>
        <time>2019-11-09T08:07:01Z</time>
      </trkpt>
      <trkpt lat="44.82636" lon="4.62948">
        <ele>553.8</ele>
        <time>2019-11-09T08:07:07Z</time>
      </trkpt>
      <trkpt lat="44.82633" lon="4.62935">
        <ele>554.4</ele>
        <time>2019-11-09T08:07:12Z</time>
      </trkpt>
      <trkpt lat="44.82631" lon="4.62927">
        <ele>555</ele>
        <time>2019-11-09T08:07:15Z</time>
      </trkpt>
      <trkpt lat="44.82628" lon="4.62923">
        <ele>555.4</ele>
        <time>2019-11-09T08:07:17Z</time>
      </trkpt>
      <trkpt lat="44.82624" lon="4.62912">
        <ele>556.2</ele>
        <time>2019-11-09T08:07:22Z</time>
      </trkpt>
      <trkpt lat="44.82624" lon="4.62909">
        <ele>556.4</ele>
        <time>2019-11-09T08:07:23Z</time>
      </trkpt>
      <trkpt lat="44.8262" lon="4.62897">
        <ele>557</ele>
        <time>2019-11-09T08:07:28Z</time>
      </trkpt>
      <trkpt lat="44.82619" lon="4.62895">
        <ele>557.2</ele>
        <time>2019-11-09T08:07:29Z</time>
      </trkpt>
      <trkpt lat="44.82617" lon="4.62889">
        <ele>558.4</ele>
        <time>2019-11-09T08:07:32Z</time>
      </trkpt>
      <trkpt lat="44.82617" lon="4.62886">
        <ele>558.6</ele>
        <time>2019-11-09T08:07:33Z</time>
      </trkpt>
      <trkpt lat="44.82611" lon="4.62875">
        <ele>559.4</ele>
        <time>2019-11-09T08:07:38Z</time>
      </trkpt>
      <trkpt lat="44.8261" lon="4.62873">
        <ele>559.6</ele>
        <time>2019-11-09T08:07:39Z</time>
      </trkpt>
      <trkpt lat="44.82606" lon="4.62863">
        <ele>560.8</ele>
        <time>2019-11-09T08:07:44Z</time>
      </trkpt>
      <trkpt lat="44.82605" lon="4.62858">
        <ele>561</ele>
        <time>2019-11-09T08:07:46Z</time>
      </trkpt>
      <trkpt lat="44.82604" lon="4.62849">
        <ele>561.8</ele>
        <time>2019-11-09T08:07:50Z</time>
      </trkpt>
      <trkpt lat="44.82604" lon="4.62841">
        <ele>562.4</ele>
        <time>2019-11-09T08:07:54Z</time>
      </trkpt>
      <trkpt lat="44.82606" lon="4.62835">
        <ele>562.8</ele>
        <time>2019-11-09T08:07:57Z</time>
      </trkpt>
      <trkpt lat="44.8261" lon="4.62826">
        <ele>563.6</ele>
        <time>2019-11-09T08:08:03Z</time>
      </trkpt>
      <trkpt lat="44.82613" lon="4.62822">
        <ele>564</ele>
        <time>2019-11-09T08:08:05Z</time>
      </trkpt>
      <trkpt lat="44.82614" lon="4.62819">
        <ele>564.2</ele>
        <time>2019-11-09T08:08:07Z</time>
      </trkpt>
      <trkpt lat="44.82616" lon="4.62815">
        <ele>564.6</ele>
        <time>2019-11-09T08:08:09Z</time>
      </trkpt>
      <trkpt lat="44.82617" lon="4.62812">
        <ele>565</ele>
        <time>2019-11-09T08:08:11Z</time>
      </trkpt>
      <trkpt lat="44.82619" lon="4.62802">
        <ele>565.2</ele>
        <time>2019-11-09T08:08:15Z</time>
      </trkpt>
      <trkpt lat="44.82621" lon="4.62783">
        <ele>565.8</ele>
        <time>2019-11-09T08:08:23Z</time>
      </trkpt>
      <trkpt lat="44.82623" lon="4.62781">
        <ele>566</ele>
        <time>2019-11-09T08:08:24Z</time>
      </trkpt>
      <trkpt lat="44.82625" lon="4.62769">
        <ele>566.8</ele>
        <time>2019-11-09T08:08:30Z</time>
      </trkpt>
      <trkpt lat="44.82627" lon="4.62763">
        <ele>567</ele>
        <time>2019-11-09T08:08:33Z</time>
      </trkpt>
      <trkpt lat="44.82628" lon="4.62759">
        <ele>567.4</ele>
        <time>2019-11-09T08:08:35Z</time>
      </trkpt>
      <trkpt lat="44.82629" lon="4.62755">
        <ele>568</ele>
        <time>2019-11-09T08:08:37Z</time>
      </trkpt>
      <trkpt lat="44.82629" lon="4.62752">
        <ele>568.2</ele>
        <time>2019-11-09T08:08:39Z</time>
      </trkpt>
      <trkpt lat="44.82631" lon="4.62747">
        <ele>569</ele>
        <time>2019-11-09T08:08:43Z</time>
      </trkpt>
      <trkpt lat="44.82631" lon="4.62744">
        <ele>569.2</ele>
        <time>2019-11-09T08:08:44Z</time>
      </trkpt>
      <trkpt lat="44.82634" lon="4.62737">
        <ele>570.2</ele>
        <time>2019-11-09T08:08:47Z</time>
      </trkpt>
      <trkpt lat="44.82636" lon="4.62733">
        <ele>570.8</ele>
        <time>2019-11-09T08:08:49Z</time>
      </trkpt>
      <trkpt lat="44.8264" lon="4.62726">
        <ele>571.6</ele>
        <time>2019-11-09T08:08:52Z</time>
      </trkpt>
      <trkpt lat="44.82648" lon="4.62717">
        <ele>572.4</ele>
        <time>2019-11-09T08:08:56Z</time>
      </trkpt>
      <trkpt lat="44.82649" lon="4.62714">
        <ele>572.6</ele>
        <time>2019-11-09T08:08:57Z</time>
      </trkpt>
      <trkpt lat="44.82654" lon="4.62706">
        <ele>573.8</ele>
        <time>2019-11-09T08:09:02Z</time>
      </trkpt>
      <trkpt lat="44.82658" lon="4.62702">
        <ele>575</ele>
        <time>2019-11-09T08:09:05Z</time>
      </trkpt>
      <trkpt lat="44.82662" lon="4.62697">
        <ele>575.6</ele>
        <time>2019-11-09T08:09:08Z</time>
      </trkpt>
      <trkpt lat="44.82672" lon="4.62688">
        <ele>575.8</ele>
        <time>2019-11-09T08:09:14Z</time>
      </trkpt>
      <trkpt lat="44.82683" lon="4.62681">
        <ele>576.2</ele>
        <time>2019-11-09T08:09:19Z</time>
      </trkpt>
      <trkpt lat="44.82696" lon="4.62676">
        <ele>576.4</ele>
        <time>2019-11-09T08:09:25Z</time>
      </trkpt>
      <trkpt lat="44.82706" lon="4.62678">
        <ele>576.8</ele>
        <time>2019-11-09T08:09:31Z</time>
      </trkpt>
      <trkpt lat="44.82721" lon="4.62681">
        <ele>576.8</ele>
        <time>2019-11-09T08:09:39Z</time>
      </trkpt>
      <trkpt lat="44.82729" lon="4.6268">
        <ele>577.4</ele>
        <time>2019-11-09T08:09:42Z</time>
      </trkpt>
      <trkpt lat="44.82737" lon="4.62681">
        <ele>578</ele>
        <time>2019-11-09T08:09:46Z</time>
      </trkpt>
      <trkpt lat="44.8274" lon="4.62683">
        <ele>578.4</ele>
        <time>2019-11-09T08:09:48Z</time>
      </trkpt>
      <trkpt lat="44.82744" lon="4.62685">
        <ele>579</ele>
        <time>2019-11-09T08:09:51Z</time>
      </trkpt>
      <trkpt lat="44.8275" lon="4.62695">
        <ele>579.4</ele>
        <time>2019-11-09T08:09:55Z</time>
      </trkpt>
      <trkpt lat="44.82754" lon="4.62699">
        <ele>580</ele>
        <time>2019-11-09T08:09:57Z</time>
      </trkpt>
      <trkpt lat="44.82761" lon="4.62704">
        <ele>580.6</ele>
        <time>2019-11-09T08:10:01Z</time>
      </trkpt>
      <trkpt lat="44.82766" lon="4.62709">
        <ele>580.6</ele>
        <time>2019-11-09T08:10:04Z</time>
      </trkpt>
      <trkpt lat="44.82774" lon="4.62716">
        <ele>581.6</ele>
        <time>2019-11-09T08:10:10Z</time>
      </trkpt>
      <trkpt lat="44.82777" lon="4.62718">
        <ele>582</ele>
        <time>2019-11-09T08:10:12Z</time>
      </trkpt>
      <trkpt lat="44.82785" lon="4.62722">
        <ele>582.6</ele>
        <time>2019-11-09T08:10:17Z</time>
      </trkpt>
      <trkpt lat="44.82789" lon="4.62725">
        <ele>583</ele>
        <time>2019-11-09T08:10:19Z</time>
      </trkpt>
      <trkpt lat="44.82797" lon="4.62731">
        <ele>583.6</ele>
        <time>2019-11-09T08:10:24Z</time>
      </trkpt>
      <trkpt lat="44.828" lon="4.62732">
        <ele>583.8</ele>
        <time>2019-11-09T08:10:25Z</time>
      </trkpt>
      <trkpt lat="44.82804" lon="4.62734">
        <ele>584.2</ele>
        <time>2019-11-09T08:10:27Z</time>
      </trkpt>
      <trkpt lat="44.82812" lon="4.62737">
        <ele>585</ele>
        <time>2019-11-09T08:10:31Z</time>
      </trkpt>
      <trkpt lat="44.82821" lon="4.62738">
        <ele>585.2</ele>
        <time>2019-11-09T08:10:35Z</time>
      </trkpt>
      <trkpt lat="44.82827" lon="4.62738">
        <ele>585.6</ele>
        <time>2019-11-09T08:10:38Z</time>
      </trkpt>
      <trkpt lat="44.82837" lon="4.62735">
        <ele>585.8</ele>
        <time>2019-11-09T08:10:43Z</time>
      </trkpt>
      <trkpt lat="44.82841" lon="4.62734">
        <ele>586</ele>
        <time>2019-11-09T08:10:45Z</time>
      </trkpt>
      <trkpt lat="44.82848" lon="4.62729">
        <ele>586.6</ele>
        <time>2019-11-09T08:10:50Z</time>
      </trkpt>
      <trkpt lat="44.8285" lon="4.62723">
        <ele>587.2</ele>
        <time>2019-11-09T08:10:53Z</time>
      </trkpt>
      <trkpt lat="44.82854" lon="4.62716">
        <ele>587.8</ele>
        <time>2019-11-09T08:10:57Z</time>
      </trkpt>
      <trkpt lat="44.82857" lon="4.62707">
        <ele>588.4</ele>
        <time>2019-11-09T08:11:01Z</time>
      </trkpt>
      <trkpt lat="44.82857" lon="4.627">
        <ele>588.8</ele>
        <time>2019-11-09T08:11:04Z</time>
      </trkpt>
      <trkpt lat="44.82858" lon="4.62684">
        <ele>589.2</ele>
        <time>2019-11-09T08:11:11Z</time>
      </trkpt>
      <trkpt lat="44.82857" lon="4.6268">
        <ele>589.4</ele>
        <time>2019-11-09T08:11:13Z</time>
      </trkpt>
      <trkpt lat="44.82857" lon="4.62661">
        <ele>589.8</ele>
        <time>2019-11-09T08:11:20Z</time>
      </trkpt>
      <trkpt lat="44.82858" lon="4.62646">
        <ele>590.4</ele>
        <time>2019-11-09T08:11:25Z</time>
      </trkpt>
      <trkpt lat="44.82858" lon="4.62634">
        <ele>590.8</ele>
        <time>2019-11-09T08:11:29Z</time>
      </trkpt>
      <trkpt lat="44.82856" lon="4.62608">
        <ele>591</ele>
        <time>2019-11-09T08:11:38Z</time>
      </trkpt>
      <trkpt lat="44.82854" lon="4.62592">
        <ele>590.8</ele>
        <time>2019-11-09T08:11:44Z</time>
      </trkpt>
      <trkpt lat="44.82854" lon="4.62575">
        <ele>591.4</ele>
        <time>2019-11-09T08:11:49Z</time>
      </trkpt>
      <trkpt lat="44.82854" lon="4.62572">
        <ele>591.6</ele>
        <time>2019-11-09T08:11:50Z</time>
      </trkpt>
      <trkpt lat="44.82856" lon="4.62559">
        <ele>591.6</ele>
        <time>2019-11-09T08:11:55Z</time>
      </trkpt>
      <trkpt lat="44.8286" lon="4.62552">
        <ele>592.2</ele>
        <time>2019-11-09T08:12:00Z</time>
      </trkpt>
      <trkpt lat="44.82865" lon="4.62546">
        <ele>592.8</ele>
        <time>2019-11-09T08:12:03Z</time>
      </trkpt>
      <trkpt lat="44.82868" lon="4.62537">
        <ele>593.4</ele>
        <time>2019-11-09T08:12:06Z</time>
      </trkpt>
      <trkpt lat="44.8287" lon="4.62533">
        <ele>593.8</ele>
        <time>2019-11-09T08:12:08Z</time>
      </trkpt>
      <trkpt lat="44.82878" lon="4.62525">
        <ele>594.2</ele>
        <time>2019-11-09T08:12:12Z</time>
      </trkpt>
      <trkpt lat="44.82888" lon="4.62521">
        <ele>594.2</ele>
        <time>2019-11-09T08:12:16Z</time>
      </trkpt>
      <trkpt lat="44.82892" lon="4.62519">
        <ele>594.2</ele>
        <time>2019-11-09T08:12:17Z</time>
      </trkpt>
      <trkpt lat="44.82912" lon="4.62514">
        <ele>593.8</ele>
        <time>2019-11-09T08:12:24Z</time>
      </trkpt>
      <trkpt lat="44.82938" lon="4.62504">
        <ele>594.2</ele>
        <time>2019-11-09T08:12:34Z</time>
      </trkpt>
      <trkpt lat="44.82946" lon="4.62493">
        <ele>592.8</ele>
        <time>2019-11-09T08:12:39Z</time>
      </trkpt>
      <trkpt lat="44.82947" lon="4.62491">
        <ele>592.2</ele>
        <time>2019-11-09T08:12:40Z</time>
      </trkpt>
      <trkpt lat="44.82948" lon="4.62488">
        <ele>591.6</ele>
        <time>2019-11-09T08:12:41Z</time>
      </trkpt>
      <trkpt lat="44.82951" lon="4.6248">
        <ele>590</ele>
        <time>2019-11-09T08:12:44Z</time>
      </trkpt>
      <trkpt lat="44.82952" lon="4.62475">
        <ele>589</ele>
        <time>2019-11-09T08:12:46Z</time>
      </trkpt>
      <trkpt lat="44.82953" lon="4.62468">
        <ele>587.8</ele>
        <time>2019-11-09T08:12:49Z</time>
      </trkpt>
      <trkpt lat="44.82953" lon="4.62462">
        <ele>587.2</ele>
        <time>2019-11-09T08:12:51Z</time>
      </trkpt>
      <trkpt lat="44.82953" lon="4.6246">
        <ele>586.6</ele>
        <time>2019-11-09T08:12:52Z</time>
      </trkpt>
      <trkpt lat="44.82953" lon="4.62455">
        <ele>585.2</ele>
        <time>2019-11-09T08:12:54Z</time>
      </trkpt>
      <trkpt lat="44.82952" lon="4.62448">
        <ele>584.2</ele>
        <time>2019-11-09T08:12:57Z</time>
      </trkpt>
      <trkpt lat="44.82952" lon="4.62445">
        <ele>584</ele>
        <time>2019-11-09T08:12:58Z</time>
      </trkpt>
      <trkpt lat="44.82953" lon="4.62427">
        <ele>583.6</ele>
        <time>2019-11-09T08:13:03Z</time>
      </trkpt>
      <trkpt lat="44.82953" lon="4.62424">
        <ele>583.4</ele>
        <time>2019-11-09T08:13:04Z</time>
      </trkpt>
      <trkpt lat="44.82951" lon="4.62417">
        <ele>583</ele>
        <time>2019-11-09T08:13:06Z</time>
      </trkpt>
      <trkpt lat="44.82951" lon="4.62413">
        <ele>582.8</ele>
        <time>2019-11-09T08:13:07Z</time>
      </trkpt>
      <trkpt lat="44.82952" lon="4.62395">
        <ele>582</ele>
        <time>2019-11-09T08:13:12Z</time>
      </trkpt>
      <trkpt lat="44.82952" lon="4.62391">
        <ele>581.8</ele>
        <time>2019-11-09T08:13:13Z</time>
      </trkpt>
      <trkpt lat="44.82955" lon="4.62383">
        <ele>581.6</ele>
        <time>2019-11-09T08:13:16Z</time>
      </trkpt>
      <trkpt lat="44.82957" lon="4.62378">
        <ele>581.4</ele>
        <time>2019-11-09T08:13:18Z</time>
      </trkpt>
      <trkpt lat="44.82958" lon="4.62374">
        <ele>581.2</ele>
        <time>2019-11-09T08:13:20Z</time>
      </trkpt>
      <trkpt lat="44.82958" lon="4.62371">
        <ele>581.2</ele>
        <time>2019-11-09T08:13:21Z</time>
      </trkpt>
      <trkpt lat="44.82963" lon="4.62358">
        <ele>581</ele>
        <time>2019-11-09T08:13:25Z</time>
      </trkpt>
      <trkpt lat="44.82965" lon="4.62352">
        <ele>580.8</ele>
        <time>2019-11-09T08:13:27Z</time>
      </trkpt>
      <trkpt lat="44.82973" lon="4.62339">
        <ele>579.8</ele>
        <time>2019-11-09T08:13:33Z</time>
      </trkpt>
      <trkpt lat="44.82973" lon="4.62336">
        <ele>579.6</ele>
        <time>2019-11-09T08:13:34Z</time>
      </trkpt>
      <trkpt lat="44.82979" lon="4.62325">
        <ele>579.4</ele>
        <time>2019-11-09T08:13:39Z</time>
      </trkpt>
      <trkpt lat="44.82982" lon="4.62315">
        <ele>579.8</ele>
        <time>2019-11-09T08:13:42Z</time>
      </trkpt>
      <trkpt lat="44.82993" lon="4.62289">
        <ele>580.6</ele>
        <time>2019-11-09T08:13:49Z</time>
      </trkpt>
      <trkpt lat="44.83003" lon="4.62277">
        <ele>580.6</ele>
        <time>2019-11-09T08:13:55Z</time>
      </trkpt>
      <trkpt lat="44.83008" lon="4.62265">
        <ele>580.4</ele>
        <time>2019-11-09T08:13:59Z</time>
      </trkpt>
      <trkpt lat="44.8301" lon="4.62252">
        <ele>580.2</ele>
        <time>2019-11-09T08:14:02Z</time>
      </trkpt>
      <trkpt lat="44.83009" lon="4.62235">
        <ele>579.8</ele>
        <time>2019-11-09T08:14:07Z</time>
      </trkpt>
      <trkpt lat="44.83009" lon="4.62228">
        <ele>579.2</ele>
        <time>2019-11-09T08:14:09Z</time>
      </trkpt>
      <trkpt lat="44.8301" lon="4.62222">
        <ele>578.6</ele>
        <time>2019-11-09T08:14:11Z</time>
      </trkpt>
      <trkpt lat="44.83013" lon="4.62208">
        <ele>578</ele>
        <time>2019-11-09T08:14:14Z</time>
      </trkpt>
      <trkpt lat="44.83018" lon="4.62181">
        <ele>578</ele>
        <time>2019-11-09T08:14:21Z</time>
      </trkpt>
      <trkpt lat="44.83022" lon="4.62162">
        <ele>579.4</ele>
        <time>2019-11-09T08:14:27Z</time>
      </trkpt>
      <trkpt lat="44.83023" lon="4.62159">
        <ele>579.6</ele>
        <time>2019-11-09T08:14:28Z</time>
      </trkpt>
      <trkpt lat="44.8303" lon="4.62148">
        <ele>578</ele>
        <time>2019-11-09T08:14:31Z</time>
      </trkpt>
      <trkpt lat="44.83032" lon="4.62144">
        <ele>577.6</ele>
        <time>2019-11-09T08:14:32Z</time>
      </trkpt>
      <trkpt lat="44.83035" lon="4.62137">
        <ele>577</ele>
        <time>2019-11-09T08:14:34Z</time>
      </trkpt>
      <trkpt lat="44.83039" lon="4.62126">
        <ele>575</ele>
        <time>2019-11-09T08:14:37Z</time>
      </trkpt>
      <trkpt lat="44.8304" lon="4.62123">
        <ele>573.6</ele>
        <time>2019-11-09T08:14:38Z</time>
      </trkpt>
      <trkpt lat="44.83041" lon="4.62118">
        <ele>572.2</ele>
        <time>2019-11-09T08:14:39Z</time>
      </trkpt>
      <trkpt lat="44.83042" lon="4.62115">
        <ele>571.4</ele>
        <time>2019-11-09T08:14:40Z</time>
      </trkpt>
      <trkpt lat="44.83044" lon="4.62111">
        <ele>570.6</ele>
        <time>2019-11-09T08:14:41Z</time>
      </trkpt>
      <trkpt lat="44.83045" lon="4.62105">
        <ele>569.4</ele>
        <time>2019-11-09T08:14:42Z</time>
      </trkpt>
      <trkpt lat="44.83049" lon="4.62097">
        <ele>567.8</ele>
        <time>2019-11-09T08:14:44Z</time>
      </trkpt>
      <trkpt lat="44.83052" lon="4.62088">
        <ele>567.2</ele>
        <time>2019-11-09T08:14:46Z</time>
      </trkpt>
      <trkpt lat="44.83063" lon="4.62068">
        <ele>566.8</ele>
        <time>2019-11-09T08:14:51Z</time>
      </trkpt>
      <trkpt lat="44.83065" lon="4.62065">
        <ele>566.6</ele>
        <time>2019-11-09T08:14:52Z</time>
      </trkpt>
      <trkpt lat="44.83074" lon="4.62046">
        <ele>566.6</ele>
        <time>2019-11-09T08:14:57Z</time>
      </trkpt>
      <trkpt lat="44.83078" lon="4.62031">
        <ele>567</ele>
        <time>2019-11-09T08:15:00Z</time>
      </trkpt>
      <trkpt lat="44.8308" lon="4.62019">
        <ele>567.4</ele>
        <time>2019-11-09T08:15:03Z</time>
      </trkpt>
      <trkpt lat="44.83079" lon="4.62008">
        <ele>567.4</ele>
        <time>2019-11-09T08:15:06Z</time>
      </trkpt>
      <trkpt lat="44.83079" lon="4.61997">
        <ele>565.6</ele>
        <time>2019-11-09T08:15:08Z</time>
      </trkpt>
      <trkpt lat="44.83078" lon="4.61991">
        <ele>563.6</ele>
        <time>2019-11-09T08:15:09Z</time>
      </trkpt>
      <trkpt lat="44.83077" lon="4.61986">
        <ele>561.6</ele>
        <time>2019-11-09T08:15:10Z</time>
      </trkpt>
      <trkpt lat="44.83077" lon="4.61982">
        <ele>560.4</ele>
        <time>2019-11-09T08:15:11Z</time>
      </trkpt>
      <trkpt lat="44.83074" lon="4.6197">
        <ele>559.4</ele>
        <time>2019-11-09T08:15:14Z</time>
      </trkpt>
      <trkpt lat="44.83073" lon="4.61942">
        <ele>560.2</ele>
        <time>2019-11-09T08:15:20Z</time>
      </trkpt>
      <trkpt lat="44.83073" lon="4.61938">
        <ele>560.8</ele>
        <time>2019-11-09T08:15:21Z</time>
      </trkpt>
      <trkpt lat="44.83073" lon="4.61927">
        <ele>562</ele>
        <time>2019-11-09T08:15:23Z</time>
      </trkpt>
      <trkpt lat="44.83075" lon="4.61912">
        <ele>562.4</ele>
        <time>2019-11-09T08:15:26Z</time>
      </trkpt>
      <trkpt lat="44.83079" lon="4.6189">
        <ele>562.8</ele>
        <time>2019-11-09T08:15:32Z</time>
      </trkpt>
      <trkpt lat="44.83081" lon="4.61869">
        <ele>561.8</ele>
        <time>2019-11-09T08:15:37Z</time>
      </trkpt>
      <trkpt lat="44.8308" lon="4.6186">
        <ele>560.8</ele>
        <time>2019-11-09T08:15:39Z</time>
      </trkpt>
      <trkpt lat="44.83078" lon="4.61852">
        <ele>559.4</ele>
        <time>2019-11-09T08:15:41Z</time>
      </trkpt>
      <trkpt lat="44.83076" lon="4.61842">
        <ele>557.8</ele>
        <time>2019-11-09T08:15:43Z</time>
      </trkpt>
      <trkpt lat="44.83075" lon="4.6183">
        <ele>556.6</ele>
        <time>2019-11-09T08:15:45Z</time>
      </trkpt>
      <trkpt lat="44.83072" lon="4.61812">
        <ele>556.4</ele>
        <time>2019-11-09T08:15:48Z</time>
      </trkpt>
      <trkpt lat="44.83071" lon="4.61805">
        <ele>557</ele>
        <time>2019-11-09T08:15:49Z</time>
      </trkpt>
      <trkpt lat="44.8307" lon="4.61798">
        <ele>558</ele>
        <time>2019-11-09T08:15:50Z</time>
      </trkpt>
      <trkpt lat="44.83069" lon="4.61784">
        <ele>559.4</ele>
        <time>2019-11-09T08:15:52Z</time>
      </trkpt>
      <trkpt lat="44.83065" lon="4.61759">
        <ele>557.8</ele>
        <time>2019-11-09T08:15:56Z</time>
      </trkpt>
      <trkpt lat="44.83064" lon="4.61754">
        <ele>556.2</ele>
        <time>2019-11-09T08:15:57Z</time>
      </trkpt>
      <trkpt lat="44.83063" lon="4.61746">
        <ele>554.8</ele>
        <time>2019-11-09T08:15:59Z</time>
      </trkpt>
      <trkpt lat="44.83062" lon="4.61737">
        <ele>554.6</ele>
        <time>2019-11-09T08:16:01Z</time>
      </trkpt>
      <trkpt lat="44.83059" lon="4.6171">
        <ele>554.2</ele>
        <time>2019-11-09T08:16:07Z</time>
      </trkpt>
      <trkpt lat="44.83058" lon="4.61705">
        <ele>553.8</ele>
        <time>2019-11-09T08:16:08Z</time>
      </trkpt>
      <trkpt lat="44.83055" lon="4.61689">
        <ele>552.6</ele>
        <time>2019-11-09T08:16:11Z</time>
      </trkpt>
      <trkpt lat="44.83057" lon="4.61672">
        <ele>552.2</ele>
        <time>2019-11-09T08:16:13Z</time>
      </trkpt>
      <trkpt lat="44.8306" lon="4.61651">
        <ele>552</ele>
        <time>2019-11-09T08:16:16Z</time>
      </trkpt>
      <trkpt lat="44.83061" lon="4.61631">
        <ele>551.8</ele>
        <time>2019-11-09T08:16:19Z</time>
      </trkpt>
      <trkpt lat="44.83062" lon="4.61613">
        <ele>551.6</ele>
        <time>2019-11-09T08:16:22Z</time>
      </trkpt>
      <trkpt lat="44.83062" lon="4.61581">
        <ele>550.4</ele>
        <time>2019-11-09T08:16:27Z</time>
      </trkpt>
      <trkpt lat="44.83064" lon="4.61569">
        <ele>550.2</ele>
        <time>2019-11-09T08:16:29Z</time>
      </trkpt>
      <trkpt lat="44.83068" lon="4.61542">
        <ele>550</ele>
        <time>2019-11-09T08:16:34Z</time>
      </trkpt>
      <trkpt lat="44.83068" lon="4.61537">
        <ele>549.8</ele>
        <time>2019-11-09T08:16:35Z</time>
      </trkpt>
      <trkpt lat="44.8307" lon="4.61523">
        <ele>549.2</ele>
        <time>2019-11-09T08:16:38Z</time>
      </trkpt>
      <trkpt lat="44.83071" lon="4.61518">
        <ele>548</ele>
        <time>2019-11-09T08:16:39Z</time>
      </trkpt>
      <trkpt lat="44.83071" lon="4.61514">
        <ele>546.8</ele>
        <time>2019-11-09T08:16:40Z</time>
      </trkpt>
      <trkpt lat="44.83072" lon="4.61506">
        <ele>545.8</ele>
        <time>2019-11-09T08:16:42Z</time>
      </trkpt>
      <trkpt lat="44.83077" lon="4.61484">
        <ele>546.2</ele>
        <time>2019-11-09T08:16:46Z</time>
      </trkpt>
      <trkpt lat="44.83081" lon="4.61474">
        <ele>547</ele>
        <time>2019-11-09T08:16:48Z</time>
      </trkpt>
      <trkpt lat="44.83089" lon="4.61462">
        <ele>546.2</ele>
        <time>2019-11-09T08:16:51Z</time>
      </trkpt>
      <trkpt lat="44.83092" lon="4.61459">
        <ele>545.8</ele>
        <time>2019-11-09T08:16:52Z</time>
      </trkpt>
      <trkpt lat="44.83102" lon="4.6146">
        <ele>545.2</ele>
        <time>2019-11-09T08:16:54Z</time>
      </trkpt>
      <trkpt lat="44.83105" lon="4.61458">
        <ele>545.2</ele>
        <time>2019-11-09T08:16:55Z</time>
      </trkpt>
      <trkpt lat="44.83118" lon="4.61454">
        <ele>547</ele>
        <time>2019-11-09T08:16:59Z</time>
      </trkpt>
      <trkpt lat="44.83123" lon="4.61453">
        <ele>548.2</ele>
        <time>2019-11-09T08:17:01Z</time>
      </trkpt>
      <trkpt lat="44.83133" lon="4.61452">
        <ele>549.6</ele>
        <time>2019-11-09T08:17:04Z</time>
      </trkpt>
      <trkpt lat="44.8315" lon="4.61451">
        <ele>550</ele>
        <time>2019-11-09T08:17:08Z</time>
      </trkpt>
      <trkpt lat="44.83171" lon="4.61437">
        <ele>549.8</ele>
        <time>2019-11-09T08:17:14Z</time>
      </trkpt>
      <trkpt lat="44.83174" lon="4.61433">
        <ele>550</ele>
        <time>2019-11-09T08:17:15Z</time>
      </trkpt>
      <trkpt lat="44.83194" lon="4.61407">
        <ele>549.2</ele>
        <time>2019-11-09T08:17:22Z</time>
      </trkpt>
      <trkpt lat="44.83201" lon="4.61395">
        <ele>548.2</ele>
        <time>2019-11-09T08:17:25Z</time>
      </trkpt>
      <trkpt lat="44.83209" lon="4.61386">
        <ele>546.4</ele>
        <time>2019-11-09T08:17:27Z</time>
      </trkpt>
      <trkpt lat="44.83212" lon="4.61382">
        <ele>545.8</ele>
        <time>2019-11-09T08:17:28Z</time>
      </trkpt>
      <trkpt lat="44.83215" lon="4.61378">
        <ele>544.8</ele>
        <time>2019-11-09T08:17:29Z</time>
      </trkpt>
      <trkpt lat="44.83224" lon="4.61362">
        <ele>543.8</ele>
        <time>2019-11-09T08:17:32Z</time>
      </trkpt>
      <trkpt lat="44.83231" lon="4.61353">
        <ele>543.8</ele>
        <time>2019-11-09T08:17:34Z</time>
      </trkpt>
      <trkpt lat="44.83238" lon="4.61348">
        <ele>544</ele>
        <time>2019-11-09T08:17:36Z</time>
      </trkpt>
      <trkpt lat="44.83248" lon="4.61344">
        <ele>544.6</ele>
        <time>2019-11-09T08:17:39Z</time>
      </trkpt>
      <trkpt lat="44.83252" lon="4.61343">
        <ele>544.8</ele>
        <time>2019-11-09T08:17:40Z</time>
      </trkpt>
      <trkpt lat="44.83262" lon="4.61337">
        <ele>545.2</ele>
        <time>2019-11-09T08:17:43Z</time>
      </trkpt>
      <trkpt lat="44.83264" lon="4.61334">
        <ele>545.6</ele>
        <time>2019-11-09T08:17:44Z</time>
      </trkpt>
      <trkpt lat="44.83265" lon="4.6133">
        <ele>546</ele>
        <time>2019-11-09T08:17:45Z</time>
      </trkpt>
      <trkpt lat="44.83268" lon="4.61311">
        <ele>545.8</ele>
        <time>2019-11-09T08:17:49Z</time>
      </trkpt>
      <trkpt lat="44.83267" lon="4.61292">
        <ele>545.2</ele>
        <time>2019-11-09T08:17:52Z</time>
      </trkpt>
      <trkpt lat="44.83265" lon="4.61278">
        <ele>544.8</ele>
        <time>2019-11-09T08:17:54Z</time>
      </trkpt>
      <trkpt lat="44.83264" lon="4.61271">
        <ele>544.6</ele>
        <time>2019-11-09T08:17:55Z</time>
      </trkpt>
      <trkpt lat="44.83262" lon="4.61257">
        <ele>543.2</ele>
        <time>2019-11-09T08:17:57Z</time>
      </trkpt>
      <trkpt lat="44.8326" lon="4.61242">
        <ele>541.6</ele>
        <time>2019-11-09T08:17:59Z</time>
      </trkpt>
      <trkpt lat="44.8326" lon="4.61226">
        <ele>540</ele>
        <time>2019-11-09T08:18:01Z</time>
      </trkpt>
      <trkpt lat="44.83261" lon="4.61201">
        <ele>539</ele>
        <time>2019-11-09T08:18:04Z</time>
      </trkpt>
      <trkpt lat="44.83262" lon="4.61193">
        <ele>539</ele>
        <time>2019-11-09T08:18:05Z</time>
      </trkpt>
      <trkpt lat="44.83265" lon="4.61179">
        <ele>539.4</ele>
        <time>2019-11-09T08:18:07Z</time>
      </trkpt>
      <trkpt lat="44.8327" lon="4.61164">
        <ele>540</ele>
        <time>2019-11-09T08:18:10Z</time>
      </trkpt>
      <trkpt lat="44.83273" lon="4.61153">
        <ele>540.4</ele>
        <time>2019-11-09T08:18:12Z</time>
      </trkpt>
      <trkpt lat="44.8328" lon="4.61141">
        <ele>541.4</ele>
        <time>2019-11-09T08:18:16Z</time>
      </trkpt>
      <trkpt lat="44.83286" lon="4.61138">
        <ele>542.2</ele>
        <time>2019-11-09T08:18:19Z</time>
      </trkpt>
      <trkpt lat="44.83289" lon="4.61134">
        <ele>542.4</ele>
        <time>2019-11-09T08:18:20Z</time>
      </trkpt>
      <trkpt lat="44.83291" lon="4.6113">
        <ele>542.2</ele>
        <time>2019-11-09T08:18:21Z</time>
      </trkpt>
      <trkpt lat="44.83308" lon="4.61097">
        <ele>541.6</ele>
        <time>2019-11-09T08:18:27Z</time>
      </trkpt>
      <trkpt lat="44.83309" lon="4.6109">
        <ele>541.2</ele>
        <time>2019-11-09T08:18:28Z</time>
      </trkpt>
      <trkpt lat="44.83315" lon="4.61073">
        <ele>540</ele>
        <time>2019-11-09T08:18:31Z</time>
      </trkpt>
      <trkpt lat="44.83321" lon="4.61059">
        <ele>539.8</ele>
        <time>2019-11-09T08:18:33Z</time>
      </trkpt>
      <trkpt lat="44.83324" lon="4.61052">
        <ele>539.6</ele>
        <time>2019-11-09T08:18:34Z</time>
      </trkpt>
      <trkpt lat="44.83343" lon="4.61013">
        <ele>539.2</ele>
        <time>2019-11-09T08:18:41Z</time>
      </trkpt>
      <trkpt lat="44.83347" lon="4.61005">
        <ele>539</ele>
        <time>2019-11-09T08:18:43Z</time>
      </trkpt>
      <trkpt lat="44.83352" lon="4.60984">
        <ele>539</ele>
        <time>2019-11-09T08:18:47Z</time>
      </trkpt>
      <trkpt lat="44.83354" lon="4.60974">
        <ele>538.6</ele>
        <time>2019-11-09T08:18:50Z</time>
      </trkpt>
      <trkpt lat="44.83354" lon="4.6097">
        <ele>538.6</ele>
        <time>2019-11-09T08:18:51Z</time>
      </trkpt>
      <trkpt lat="44.83355" lon="4.60967">
        <ele>538.4</ele>
        <time>2019-11-09T08:18:52Z</time>
      </trkpt>
      <trkpt lat="44.83356" lon="4.60958">
        <ele>538.2</ele>
        <time>2019-11-09T08:18:55Z</time>
      </trkpt>
      <trkpt lat="44.83358" lon="4.60948">
        <ele>538</ele>
        <time>2019-11-09T08:18:58Z</time>
      </trkpt>
      <trkpt lat="44.83365" lon="4.60927">
        <ele>536.8</ele>
        <time>2019-11-09T08:19:03Z</time>
      </trkpt>
      <trkpt lat="44.83368" lon="4.60917">
        <ele>536.2</ele>
        <time>2019-11-09T08:19:05Z</time>
      </trkpt>
      <trkpt lat="44.83369" lon="4.6091">
        <ele>535.6</ele>
        <time>2019-11-09T08:19:06Z</time>
      </trkpt>
      <trkpt lat="44.83371" lon="4.60904">
        <ele>535.2</ele>
        <time>2019-11-09T08:19:07Z</time>
      </trkpt>
      <trkpt lat="44.83373" lon="4.60898">
        <ele>534.8</ele>
        <time>2019-11-09T08:19:08Z</time>
      </trkpt>
      <trkpt lat="44.83376" lon="4.60887">
        <ele>534.4</ele>
        <time>2019-11-09T08:19:10Z</time>
      </trkpt>
      <trkpt lat="44.83377" lon="4.60882">
        <ele>534.2</ele>
        <time>2019-11-09T08:19:11Z</time>
      </trkpt>
      <trkpt lat="44.83381" lon="4.60871">
        <ele>533.8</ele>
        <time>2019-11-09T08:19:13Z</time>
      </trkpt>
      <trkpt lat="44.83385" lon="4.6086">
        <ele>533.2</ele>
        <time>2019-11-09T08:19:15Z</time>
      </trkpt>
      <trkpt lat="44.83387" lon="4.60856">
        <ele>533</ele>
        <time>2019-11-09T08:19:16Z</time>
      </trkpt>
      <trkpt lat="44.83394" lon="4.60849">
        <ele>533</ele>
        <time>2019-11-09T08:19:18Z</time>
      </trkpt>
      <trkpt lat="44.83402" lon="4.60846">
        <ele>532</ele>
        <time>2019-11-09T08:19:20Z</time>
      </trkpt>
      <trkpt lat="44.83413" lon="4.60841">
        <ele>530.8</ele>
        <time>2019-11-09T08:19:22Z</time>
      </trkpt>
      <trkpt lat="44.8342" lon="4.60837">
        <ele>530.4</ele>
        <time>2019-11-09T08:19:23Z</time>
      </trkpt>
      <trkpt lat="44.83431" lon="4.6083">
        <ele>529.8</ele>
        <time>2019-11-09T08:19:25Z</time>
      </trkpt>
      <trkpt lat="44.83451" lon="4.60817">
        <ele>529.4</ele>
        <time>2019-11-09T08:19:29Z</time>
      </trkpt>
      <trkpt lat="44.83456" lon="4.60813">
        <ele>529.2</ele>
        <time>2019-11-09T08:19:30Z</time>
      </trkpt>
      <trkpt lat="44.83466" lon="4.60803">
        <ele>528.8</ele>
        <time>2019-11-09T08:19:32Z</time>
      </trkpt>
      <trkpt lat="44.83469" lon="4.60798">
        <ele>528.8</ele>
        <time>2019-11-09T08:19:33Z</time>
      </trkpt>
      <trkpt lat="44.83473" lon="4.60791">
        <ele>528.4</ele>
        <time>2019-11-09T08:19:34Z</time>
      </trkpt>
      <trkpt lat="44.83475" lon="4.60785">
        <ele>528</ele>
        <time>2019-11-09T08:19:35Z</time>
      </trkpt>
      <trkpt lat="44.83478" lon="4.60778">
        <ele>527.6</ele>
        <time>2019-11-09T08:19:36Z</time>
      </trkpt>
      <trkpt lat="44.83479" lon="4.60771">
        <ele>527.2</ele>
        <time>2019-11-09T08:19:37Z</time>
      </trkpt>
      <trkpt lat="44.83481" lon="4.60756">
        <ele>526.8</ele>
        <time>2019-11-09T08:19:39Z</time>
      </trkpt>
      <trkpt lat="44.83481" lon="4.6075">
        <ele>526.8</ele>
        <time>2019-11-09T08:19:40Z</time>
      </trkpt>
      <trkpt lat="44.83484" lon="4.60725">
        <ele>527.2</ele>
        <time>2019-11-09T08:19:45Z</time>
      </trkpt>
      <trkpt lat="44.83484" lon="4.60713">
        <ele>528.2</ele>
        <time>2019-11-09T08:19:51Z</time>
      </trkpt>
      <trkpt lat="44.83484" lon="4.60713">
        <ele>529</ele>
        <time>2019-11-09T08:19:53Z</time>
      </trkpt>
      <trkpt lat="44.83484" lon="4.60713">
        <ele>529</ele>
        <time>2019-11-09T08:19:57Z</time>
      </trkpt>
      <trkpt lat="44.83485" lon="4.60714">
        <ele>529</ele>
        <time>2019-11-09T08:20:00Z</time>
      </trkpt>
      <trkpt lat="44.83483" lon="4.60713">
        <ele>529</ele>
        <time>2019-11-09T08:20:06Z</time>
      </trkpt>
      <trkpt lat="44.83482" lon="4.60711">
        <ele>529</ele>
        <time>2019-11-09T08:20:07Z</time>
      </trkpt>
      <trkpt lat="44.83481" lon="4.60709">
        <ele>528.6</ele>
        <time>2019-11-09T08:20:12Z</time>
      </trkpt>
      <trkpt lat="44.83482" lon="4.60708">
        <ele>527.8</ele>
        <time>2019-11-09T08:20:15Z</time>
      </trkpt>
      <trkpt lat="44.83483" lon="4.60708">
        <ele>526.8</ele>
        <time>2019-11-09T08:20:17Z</time>
      </trkpt>
      <trkpt lat="44.83484" lon="4.60708">
        <ele>526.4</ele>
        <time>2019-11-09T08:20:18Z</time>
      </trkpt>
      <trkpt lat="44.83484" lon="4.60709">
        <ele>526</ele>
        <time>2019-11-09T08:20:20Z</time>
      </trkpt>
      <trkpt lat="44.83485" lon="4.60709">
        <ele>526.2</ele>
        <time>2019-11-09T08:20:28Z</time>
      </trkpt>
      <trkpt lat="44.83484" lon="4.60709">
        <ele>525.8</ele>
        <time>2019-11-09T08:20:32Z</time>
      </trkpt>
      <trkpt lat="44.83485" lon="4.60708">
        <ele>525.8</ele>
        <time>2019-11-09T08:20:35Z</time>
      </trkpt>
      <trkpt lat="44.83485" lon="4.60711">
        <ele>527.2</ele>
        <time>2019-11-09T08:20:45Z</time>
      </trkpt>
      <trkpt lat="44.83485" lon="4.60712">
        <ele>527.4</ele>
        <time>2019-11-09T08:20:47Z</time>
      </trkpt>
      <trkpt lat="44.83484" lon="4.60714">
        <ele>528.2</ele>
        <time>2019-11-09T08:20:52Z</time>
      </trkpt>
      <trkpt lat="44.83481" lon="4.60713">
        <ele>528</ele>
        <time>2019-11-09T08:20:58Z</time>
      </trkpt>
      <trkpt lat="44.8348" lon="4.6071">
        <ele>528</ele>
        <time>2019-11-09T08:21:00Z</time>
      </trkpt>
      <trkpt lat="44.83481" lon="4.60707">
        <ele>527.4</ele>
        <time>2019-11-09T08:21:03Z</time>
      </trkpt>
      <trkpt lat="44.83483" lon="4.60706">
        <ele>526.8</ele>
        <time>2019-11-09T08:21:06Z</time>
      </trkpt>
      <trkpt lat="44.83485" lon="4.60703">
        <ele>527</ele>
        <time>2019-11-09T08:21:08Z</time>
      </trkpt>
      <trkpt lat="44.83496" lon="4.60689">
        <ele>526.8</ele>
        <time>2019-11-09T08:21:13Z</time>
      </trkpt>
      <trkpt lat="44.83499" lon="4.60685">
        <ele>526.2</ele>
        <time>2019-11-09T08:21:14Z</time>
      </trkpt>
      <trkpt lat="44.83506" lon="4.60673">
        <ele>525</ele>
        <time>2019-11-09T08:21:17Z</time>
      </trkpt>
      <trkpt lat="44.8351" lon="4.60661">
        <ele>524</ele>
        <time>2019-11-09T08:21:20Z</time>
      </trkpt>
      <trkpt lat="44.8351" lon="4.60657">
        <ele>523.8</ele>
        <time>2019-11-09T08:21:21Z</time>
      </trkpt>
      <trkpt lat="44.83511" lon="4.60633">
        <ele>523.2</ele>
        <time>2019-11-09T08:21:26Z</time>
      </trkpt>
      <trkpt lat="44.83511" lon="4.60627">
        <ele>523</ele>
        <time>2019-11-09T08:21:27Z</time>
      </trkpt>
      <trkpt lat="44.8351" lon="4.60616">
        <ele>522.8</ele>
        <time>2019-11-09T08:21:29Z</time>
      </trkpt>
      <trkpt lat="44.83509" lon="4.6061">
        <ele>522.8</ele>
        <time>2019-11-09T08:21:30Z</time>
      </trkpt>
      <trkpt lat="44.83506" lon="4.60589">
        <ele>522.4</ele>
        <time>2019-11-09T08:21:34Z</time>
      </trkpt>
      <trkpt lat="44.83502" lon="4.60569">
        <ele>522.2</ele>
        <time>2019-11-09T08:21:39Z</time>
      </trkpt>
      <trkpt lat="44.83501" lon="4.60565">
        <ele>522.2</ele>
        <time>2019-11-09T08:21:40Z</time>
      </trkpt>
      <trkpt lat="44.83496" lon="4.60541">
        <ele>522.6</ele>
        <time>2019-11-09T08:21:47Z</time>
      </trkpt>
      <trkpt lat="44.83489" lon="4.60519">
        <ele>522</ele>
        <time>2019-11-09T08:21:54Z</time>
      </trkpt>
      <trkpt lat="44.83478" lon="4.60509">
        <ele>521.8</ele>
        <time>2019-11-09T08:22:00Z</time>
      </trkpt>
      <trkpt lat="44.83466" lon="4.60501">
        <ele>522.8</ele>
        <time>2019-11-09T08:22:06Z</time>
      </trkpt>
      <trkpt lat="44.83455" lon="4.6049">
        <ele>522.8</ele>
        <time>2019-11-09T08:22:12Z</time>
      </trkpt>
      <trkpt lat="44.83445" lon="4.60471">
        <ele>522.8</ele>
        <time>2019-11-09T08:22:18Z</time>
      </trkpt>
      <trkpt lat="44.83439" lon="4.60444">
        <ele>522.2</ele>
        <time>2019-11-09T08:22:24Z</time>
      </trkpt>
      <trkpt lat="44.8344" lon="4.60419">
        <ele>522.6</ele>
        <time>2019-11-09T08:22:30Z</time>
      </trkpt>
      <trkpt lat="44.83447" lon="4.60391">
        <ele>523.2</ele>
        <time>2019-11-09T08:22:37Z</time>
      </trkpt>
      <trkpt lat="44.83448" lon="4.60385">
        <ele>523.6</ele>
        <time>2019-11-09T08:22:39Z</time>
      </trkpt>
      <trkpt lat="44.83451" lon="4.60376">
        <ele>523.6</ele>
        <time>2019-11-09T08:22:42Z</time>
      </trkpt>
      <trkpt lat="44.83452" lon="4.60369">
        <ele>523.6</ele>
        <time>2019-11-09T08:22:44Z</time>
      </trkpt>
      <trkpt lat="44.83453" lon="4.60366">
        <ele>524</ele>
        <time>2019-11-09T08:22:45Z</time>
      </trkpt>
      <trkpt lat="44.83456" lon="4.60353">
        <ele>525</ele>
        <time>2019-11-09T08:22:50Z</time>
      </trkpt>
      <trkpt lat="44.83457" lon="4.6035">
        <ele>525.2</ele>
        <time>2019-11-09T08:22:51Z</time>
      </trkpt>
      <trkpt lat="44.83459" lon="4.60343">
        <ele>526</ele>
        <time>2019-11-09T08:22:54Z</time>
      </trkpt>
      <trkpt lat="44.83461" lon="4.60333">
        <ele>527</ele>
        <time>2019-11-09T08:22:59Z</time>
      </trkpt>
      <trkpt lat="44.83462" lon="4.60332">
        <ele>527.4</ele>
        <time>2019-11-09T08:23:00Z</time>
      </trkpt>
      <trkpt lat="44.83463" lon="4.60327">
        <ele>527.8</ele>
        <time>2019-11-09T08:23:03Z</time>
      </trkpt>
      <trkpt lat="44.83465" lon="4.60324">
        <ele>528.2</ele>
        <time>2019-11-09T08:23:05Z</time>
      </trkpt>
      <trkpt lat="44.83466" lon="4.60322">
        <ele>528.6</ele>
        <time>2019-11-09T08:23:06Z</time>
      </trkpt>
      <trkpt lat="44.83466" lon="4.60321">
        <ele>528.8</ele>
        <time>2019-11-09T08:23:07Z</time>
      </trkpt>
      <trkpt lat="44.83467" lon="4.60319">
        <ele>529</ele>
        <time>2019-11-09T08:23:08Z</time>
      </trkpt>
      <trkpt lat="44.83468" lon="4.60317">
        <ele>529.2</ele>
        <time>2019-11-09T08:23:09Z</time>
      </trkpt>
      <trkpt lat="44.83469" lon="4.60315">
        <ele>529.6</ele>
        <time>2019-11-09T08:23:10Z</time>
      </trkpt>
      <trkpt lat="44.83469" lon="4.60312">
        <ele>529.8</ele>
        <time>2019-11-09T08:23:11Z</time>
      </trkpt>
      <trkpt lat="44.83469" lon="4.60311">
        <ele>530</ele>
        <time>2019-11-09T08:23:12Z</time>
      </trkpt>
      <trkpt lat="44.8347" lon="4.60307">
        <ele>530.8</ele>
        <time>2019-11-09T08:23:14Z</time>
      </trkpt>
      <trkpt lat="44.83474" lon="4.603">
        <ele>532</ele>
        <time>2019-11-09T08:23:18Z</time>
      </trkpt>
      <trkpt lat="44.83475" lon="4.60299">
        <ele>532.4</ele>
        <time>2019-11-09T08:23:19Z</time>
      </trkpt>
      <trkpt lat="44.83478" lon="4.60296">
        <ele>533</ele>
        <time>2019-11-09T08:23:22Z</time>
      </trkpt>
      <trkpt lat="44.83478" lon="4.60295">
        <ele>533</ele>
        <time>2019-11-09T08:23:23Z</time>
      </trkpt>
      <trkpt lat="44.83479" lon="4.60293">
        <ele>533.2</ele>
        <time>2019-11-09T08:23:25Z</time>
      </trkpt>
      <trkpt lat="44.8348" lon="4.60288">
        <ele>534</ele>
        <time>2019-11-09T08:23:29Z</time>
      </trkpt>
      <trkpt lat="44.83482" lon="4.60286">
        <ele>534.4</ele>
        <time>2019-11-09T08:23:31Z</time>
      </trkpt>
      <trkpt lat="44.83483" lon="4.60286">
        <ele>534.6</ele>
        <time>2019-11-09T08:23:36Z</time>
      </trkpt>
      <trkpt lat="44.83482" lon="4.60286">
        <ele>534.4</ele>
        <time>2019-11-09T08:23:40Z</time>
      </trkpt>
      <trkpt lat="44.83481" lon="4.60287">
        <ele>534.2</ele>
        <time>2019-11-09T08:23:52Z</time>
      </trkpt>
      <trkpt lat="44.83481" lon="4.60287">
        <ele>534.2</ele>
        <time>2019-11-09T08:23:53Z</time>
      </trkpt>
      <trkpt lat="44.83479" lon="4.60289">
        <ele>534.6</ele>
        <time>2019-11-09T08:23:59Z</time>
      </trkpt>
      <trkpt lat="44.8348" lon="4.60288">
        <ele>534.6</ele>
        <time>2019-11-09T08:24:01Z</time>
      </trkpt>
      <trkpt lat="44.8348" lon="4.60288">
        <ele>534.6</ele>
        <time>2019-11-09T08:24:03Z</time>
      </trkpt>
      <trkpt lat="44.83481" lon="4.60287">
        <ele>534.4</ele>
        <time>2019-11-09T08:24:08Z</time>
      </trkpt>
      <trkpt lat="44.83481" lon="4.60287">
        <ele>534.4</ele>
        <time>2019-11-09T08:24:13Z</time>
      </trkpt>
      <trkpt lat="44.83482" lon="4.60286">
        <ele>534.2</ele>
        <time>2019-11-09T08:24:16Z</time>
      </trkpt>
      <trkpt lat="44.83484" lon="4.60282">
        <ele>534.2</ele>
        <time>2019-11-09T08:24:18Z</time>
      </trkpt>
      <trkpt lat="44.83488" lon="4.60274">
        <ele>535</ele>
        <time>2019-11-09T08:24:22Z</time>
      </trkpt>
      <trkpt lat="44.83489" lon="4.6027">
        <ele>535.6</ele>
        <time>2019-11-09T08:24:24Z</time>
      </trkpt>
      <trkpt lat="44.83491" lon="4.60267">
        <ele>536.2</ele>
        <time>2019-11-09T08:24:26Z</time>
      </trkpt>
      <trkpt lat="44.83493" lon="4.60258">
        <ele>537.4</ele>
        <time>2019-11-09T08:24:32Z</time>
      </trkpt>
      <trkpt lat="44.83493" lon="4.60257">
        <ele>538.4</ele>
        <time>2019-11-09T08:24:36Z</time>
      </trkpt>
      <trkpt lat="44.83493" lon="4.60254">
        <ele>538.8</ele>
        <time>2019-11-09T08:24:39Z</time>
      </trkpt>
      <trkpt lat="44.83493" lon="4.60252">
        <ele>538.8</ele>
        <time>2019-11-09T08:24:41Z</time>
      </trkpt>
      <trkpt lat="44.83495" lon="4.60248">
        <ele>538</ele>
        <time>2019-11-09T08:24:47Z</time>
      </trkpt>
      <trkpt lat="44.83496" lon="4.60243">
        <ele>539.8</ele>
        <time>2019-11-09T08:24:54Z</time>
      </trkpt>
      <trkpt lat="44.83497" lon="4.60242">
        <ele>540.8</ele>
        <time>2019-11-09T08:24:57Z</time>
      </trkpt>
      <trkpt lat="44.83498" lon="4.60241">
        <ele>541.6</ele>
        <time>2019-11-09T08:24:59Z</time>
      </trkpt>
      <trkpt lat="44.83498" lon="4.6024">
        <ele>542</ele>
        <time>2019-11-09T08:25:00Z</time>
      </trkpt>
      <trkpt lat="44.83499" lon="4.60239">
        <ele>542</ele>
        <time>2019-11-09T08:25:01Z</time>
      </trkpt>
      <trkpt lat="44.835" lon="4.60233">
        <ele>543</ele>
        <time>2019-11-09T08:25:05Z</time>
      </trkpt>
      <trkpt lat="44.83501" lon="4.60231">
        <ele>543.2</ele>
        <time>2019-11-09T08:25:08Z</time>
      </trkpt>
      <trkpt lat="44.83502" lon="4.60231">
        <ele>543.4</ele>
        <time>2019-11-09T08:25:09Z</time>
      </trkpt>
      <trkpt lat="44.83504" lon="4.60228">
        <ele>544.2</ele>
        <time>2019-11-09T08:25:13Z</time>
      </trkpt>
      <trkpt lat="44.83505" lon="4.60228">
        <ele>544.6</ele>
        <time>2019-11-09T08:25:14Z</time>
      </trkpt>
      <trkpt lat="44.83506" lon="4.60227">
        <ele>545.4</ele>
        <time>2019-11-09T08:25:16Z</time>
      </trkpt>
      <trkpt lat="44.83509" lon="4.60226">
        <ele>546.2</ele>
        <time>2019-11-09T08:25:23Z</time>
      </trkpt>
      <trkpt lat="44.8351" lon="4.60225">
        <ele>546.6</ele>
        <time>2019-11-09T08:25:25Z</time>
      </trkpt>
      <trkpt lat="44.83511" lon="4.60222">
        <ele>547.6</ele>
        <time>2019-11-09T08:25:29Z</time>
      </trkpt>
      <trkpt lat="44.83512" lon="4.60222">
        <ele>547.8</ele>
        <time>2019-11-09T08:25:30Z</time>
      </trkpt>
      <trkpt lat="44.83514" lon="4.60218">
        <ele>548.8</ele>
        <time>2019-11-09T08:25:35Z</time>
      </trkpt>
      <trkpt lat="44.83515" lon="4.60217">
        <ele>549.4</ele>
        <time>2019-11-09T08:25:37Z</time>
      </trkpt>
      <trkpt lat="44.83515" lon="4.60216">
        <ele>549.4</ele>
        <time>2019-11-09T08:25:38Z</time>
      </trkpt>
      <trkpt lat="44.83516" lon="4.60216">
        <ele>549.6</ele>
        <time>2019-11-09T08:25:39Z</time>
      </trkpt>
      <trkpt lat="44.83516" lon="4.60215">
        <ele>550</ele>
        <time>2019-11-09T08:25:40Z</time>
      </trkpt>
      <trkpt lat="44.83517" lon="4.60215">
        <ele>550.2</ele>
        <time>2019-11-09T08:25:41Z</time>
      </trkpt>
      <trkpt lat="44.83518" lon="4.60213">
        <ele>550.4</ele>
        <time>2019-11-09T08:25:45Z</time>
      </trkpt>
      <trkpt lat="44.83519" lon="4.60212">
        <ele>550.4</ele>
        <time>2019-11-09T08:25:46Z</time>
      </trkpt>
      <trkpt lat="44.83522" lon="4.60211">
        <ele>551.2</ele>
        <time>2019-11-09T08:25:50Z</time>
      </trkpt>
      <trkpt lat="44.83524" lon="4.6021">
        <ele>552.2</ele>
        <time>2019-11-09T08:25:54Z</time>
      </trkpt>
      <trkpt lat="44.83525" lon="4.60208">
        <ele>552.6</ele>
        <time>2019-11-09T08:25:57Z</time>
      </trkpt>
      <trkpt lat="44.83526" lon="4.60206">
        <ele>553.2</ele>
        <time>2019-11-09T08:26:01Z</time>
      </trkpt>
      <trkpt lat="44.83527" lon="4.60205">
        <ele>553.6</ele>
        <time>2019-11-09T08:26:04Z</time>
      </trkpt>
      <trkpt lat="44.83529" lon="4.60202">
        <ele>553.6</ele>
        <time>2019-11-09T08:26:08Z</time>
      </trkpt>
      <trkpt lat="44.83532" lon="4.60198">
        <ele>554</ele>
        <time>2019-11-09T08:26:12Z</time>
      </trkpt>
      <trkpt lat="44.83533" lon="4.60196">
        <ele>554.2</ele>
        <time>2019-11-09T08:26:14Z</time>
      </trkpt>
      <trkpt lat="44.83534" lon="4.60194">
        <ele>555</ele>
        <time>2019-11-09T08:26:17Z</time>
      </trkpt>
      <trkpt lat="44.83535" lon="4.60193">
        <ele>555</ele>
        <time>2019-11-09T08:26:18Z</time>
      </trkpt>
      <trkpt lat="44.83536" lon="4.60192">
        <ele>555.4</ele>
        <time>2019-11-09T08:26:20Z</time>
      </trkpt>
      <trkpt lat="44.83536" lon="4.6019">
        <ele>555.6</ele>
        <time>2019-11-09T08:26:21Z</time>
      </trkpt>
      <trkpt lat="44.83537" lon="4.60189">
        <ele>556.2</ele>
        <time>2019-11-09T08:26:23Z</time>
      </trkpt>
      <trkpt lat="44.83537" lon="4.60189">
        <ele>556.4</ele>
        <time>2019-11-09T08:26:24Z</time>
      </trkpt>
      <trkpt lat="44.83541" lon="4.60188">
        <ele>557</ele>
        <time>2019-11-09T08:26:29Z</time>
      </trkpt>
      <trkpt lat="44.83542" lon="4.60189">
        <ele>557.2</ele>
        <time>2019-11-09T08:26:31Z</time>
      </trkpt>
      <trkpt lat="44.83543" lon="4.6019">
        <ele>557.6</ele>
        <time>2019-11-09T08:26:33Z</time>
      </trkpt>
      <trkpt lat="44.83545" lon="4.60193">
        <ele>558.8</ele>
        <time>2019-11-09T08:26:37Z</time>
      </trkpt>
      <trkpt lat="44.83548" lon="4.60194">
        <ele>560</ele>
        <time>2019-11-09T08:26:40Z</time>
      </trkpt>
      <trkpt lat="44.83551" lon="4.60195">
        <ele>560.8</ele>
        <time>2019-11-09T08:26:43Z</time>
      </trkpt>
      <trkpt lat="44.83552" lon="4.60195">
        <ele>561</ele>
        <time>2019-11-09T08:26:44Z</time>
      </trkpt>
      <trkpt lat="44.83557" lon="4.60196">
        <ele>562.4</ele>
        <time>2019-11-09T08:26:49Z</time>
      </trkpt>
      <trkpt lat="44.83561" lon="4.60198">
        <ele>563.4</ele>
        <time>2019-11-09T08:26:53Z</time>
      </trkpt>
      <trkpt lat="44.83565" lon="4.60202">
        <ele>564.4</ele>
        <time>2019-11-09T08:26:58Z</time>
      </trkpt>
      <trkpt lat="44.83566" lon="4.60202">
        <ele>564.6</ele>
        <time>2019-11-09T08:26:59Z</time>
      </trkpt>
      <trkpt lat="44.83567" lon="4.60202">
        <ele>564.6</ele>
        <time>2019-11-09T08:27:00Z</time>
      </trkpt>
      <trkpt lat="44.83568" lon="4.60204">
        <ele>565</ele>
        <time>2019-11-09T08:27:03Z</time>
      </trkpt>
      <trkpt lat="44.83571" lon="4.60205">
        <ele>565.4</ele>
        <time>2019-11-09T08:27:06Z</time>
      </trkpt>
      <trkpt lat="44.83572" lon="4.60205">
        <ele>565.6</ele>
        <time>2019-11-09T08:27:08Z</time>
      </trkpt>
      <trkpt lat="44.83575" lon="4.60209">
        <ele>566.4</ele>
        <time>2019-11-09T08:27:12Z</time>
      </trkpt>
      <trkpt lat="44.83575" lon="4.6021">
        <ele>566.6</ele>
        <time>2019-11-09T08:27:14Z</time>
      </trkpt>
      <trkpt lat="44.83577" lon="4.60211">
        <ele>566.8</ele>
        <time>2019-11-09T08:27:16Z</time>
      </trkpt>
      <trkpt lat="44.83578" lon="4.60213">
        <ele>566.8</ele>
        <time>2019-11-09T08:27:18Z</time>
      </trkpt>
      <trkpt lat="44.83585" lon="4.60216">
        <ele>567.8</ele>
        <time>2019-11-09T08:27:25Z</time>
      </trkpt>
      <trkpt lat="44.83588" lon="4.60209">
        <ele>568.8</ele>
        <time>2019-11-09T08:27:29Z</time>
      </trkpt>
      <trkpt lat="44.8359" lon="4.60206">
        <ele>569.2</ele>
        <time>2019-11-09T08:27:31Z</time>
      </trkpt>
      <trkpt lat="44.83598" lon="4.60194">
        <ele>569.8</ele>
        <time>2019-11-09T08:27:39Z</time>
      </trkpt>
      <trkpt lat="44.8361" lon="4.6019">
        <ele>569.6</ele>
        <time>2019-11-09T08:27:46Z</time>
      </trkpt>
      <trkpt lat="44.83612" lon="4.6019">
        <ele>570</ele>
        <time>2019-11-09T08:27:47Z</time>
      </trkpt>
      <trkpt lat="44.83619" lon="4.60186">
        <ele>570.8</ele>
        <time>2019-11-09T08:27:51Z</time>
      </trkpt>
      <trkpt lat="44.83623" lon="4.60183">
        <ele>570.8</ele>
        <time>2019-11-09T08:27:53Z</time>
      </trkpt>
      <trkpt lat="44.8364" lon="4.60171">
        <ele>570.2</ele>
        <time>2019-11-09T08:27:59Z</time>
      </trkpt>
      <trkpt lat="44.83644" lon="4.60169">
        <ele>570.2</ele>
        <time>2019-11-09T08:28:00Z</time>
      </trkpt>
      <trkpt lat="44.83653" lon="4.60167">
        <ele>570</ele>
        <time>2019-11-09T08:28:02Z</time>
      </trkpt>
      <trkpt lat="44.83657" lon="4.60169">
        <ele>569.4</ele>
        <time>2019-11-09T08:28:03Z</time>
      </trkpt>
      <trkpt lat="44.8366" lon="4.60171">
        <ele>569.4</ele>
        <time>2019-11-09T08:28:04Z</time>
      </trkpt>
      <trkpt lat="44.83668" lon="4.60176">
        <ele>569.4</ele>
        <time>2019-11-09T08:28:07Z</time>
      </trkpt>
      <trkpt lat="44.8368" lon="4.60184">
        <ele>571</ele>
        <time>2019-11-09T08:28:12Z</time>
      </trkpt>
      <trkpt lat="44.83684" lon="4.60186">
        <ele>571.6</ele>
        <time>2019-11-09T08:28:14Z</time>
      </trkpt>
      <trkpt lat="44.83694" lon="4.6019">
        <ele>570.6</ele>
        <time>2019-11-09T08:28:18Z</time>
      </trkpt>
      <trkpt lat="44.83699" lon="4.60193">
        <ele>570.2</ele>
        <time>2019-11-09T08:28:20Z</time>
      </trkpt>
      <trkpt lat="44.83702" lon="4.60196">
        <ele>570.2</ele>
        <time>2019-11-09T08:28:22Z</time>
      </trkpt>
      <trkpt lat="44.83716" lon="4.60202">
        <ele>572</ele>
        <time>2019-11-09T08:28:29Z</time>
      </trkpt>
      <trkpt lat="44.83718" lon="4.60203">
        <ele>572.4</ele>
        <time>2019-11-09T08:28:30Z</time>
      </trkpt>
      <trkpt lat="44.83727" lon="4.60207">
        <ele>573.6</ele>
        <time>2019-11-09T08:28:34Z</time>
      </trkpt>
      <trkpt lat="44.83736" lon="4.60209">
        <ele>574.2</ele>
        <time>2019-11-09T08:28:38Z</time>
      </trkpt>
      <trkpt lat="44.83748" lon="4.60213">
        <ele>574.6</ele>
        <time>2019-11-09T08:28:43Z</time>
      </trkpt>
      <trkpt lat="44.8375" lon="4.60214">
        <ele>574.6</ele>
        <time>2019-11-09T08:28:44Z</time>
      </trkpt>
      <trkpt lat="44.83754" lon="4.60217">
        <ele>575</ele>
        <time>2019-11-09T08:28:46Z</time>
      </trkpt>
      <trkpt lat="44.83756" lon="4.60217">
        <ele>575.2</ele>
        <time>2019-11-09T08:28:47Z</time>
      </trkpt>
      <trkpt lat="44.83766" lon="4.60222">
        <ele>575.6</ele>
        <time>2019-11-09T08:28:52Z</time>
      </trkpt>
      <trkpt lat="44.83768" lon="4.60223">
        <ele>576</ele>
        <time>2019-11-09T08:28:53Z</time>
      </trkpt>
      <trkpt lat="44.83769" lon="4.60224">
        <ele>576.2</ele>
        <time>2019-11-09T08:28:54Z</time>
      </trkpt>
      <trkpt lat="44.83773" lon="4.60226">
        <ele>576.8</ele>
        <time>2019-11-09T08:28:56Z</time>
      </trkpt>
      <trkpt lat="44.83779" lon="4.60229">
        <ele>577.2</ele>
        <time>2019-11-09T08:28:59Z</time>
      </trkpt>
      <trkpt lat="44.83784" lon="4.60231">
        <ele>577.2</ele>
        <time>2019-11-09T08:29:02Z</time>
      </trkpt>
      <trkpt lat="44.83789" lon="4.60235">
        <ele>577.8</ele>
        <time>2019-11-09T08:29:05Z</time>
      </trkpt>
      <trkpt lat="44.83791" lon="4.60236">
        <ele>578.2</ele>
        <time>2019-11-09T08:29:06Z</time>
      </trkpt>
      <trkpt lat="44.83795" lon="4.60239">
        <ele>579</ele>
        <time>2019-11-09T08:29:08Z</time>
      </trkpt>
      <trkpt lat="44.83798" lon="4.60241">
        <ele>579.6</ele>
        <time>2019-11-09T08:29:10Z</time>
      </trkpt>
      <trkpt lat="44.83805" lon="4.60247">
        <ele>580</ele>
        <time>2019-11-09T08:29:14Z</time>
      </trkpt>
      <trkpt lat="44.83813" lon="4.60252">
        <ele>580.4</ele>
        <time>2019-11-09T08:29:18Z</time>
      </trkpt>
      <trkpt lat="44.83818" lon="4.60255">
        <ele>581</ele>
        <time>2019-11-09T08:29:21Z</time>
      </trkpt>
      <trkpt lat="44.83827" lon="4.6026">
        <ele>582</ele>
        <time>2019-11-09T08:29:26Z</time>
      </trkpt>
      <trkpt lat="44.83829" lon="4.6026">
        <ele>582.2</ele>
        <time>2019-11-09T08:29:27Z</time>
      </trkpt>
      <trkpt lat="44.83838" lon="4.6026">
        <ele>583.2</ele>
        <time>2019-11-09T08:29:31Z</time>
      </trkpt>
      <trkpt lat="44.83845" lon="4.6026">
        <ele>583.4</ele>
        <time>2019-11-09T08:29:34Z</time>
      </trkpt>
      <trkpt lat="44.83856" lon="4.60261">
        <ele>584</ele>
        <time>2019-11-09T08:29:39Z</time>
      </trkpt>
      <trkpt lat="44.83858" lon="4.60261">
        <ele>584.4</ele>
        <time>2019-11-09T08:29:40Z</time>
      </trkpt>
      <trkpt lat="44.83863" lon="4.6026">
        <ele>585</ele>
        <time>2019-11-09T08:29:42Z</time>
      </trkpt>
      <trkpt lat="44.83867" lon="4.6026">
        <ele>585.4</ele>
        <time>2019-11-09T08:29:44Z</time>
      </trkpt>
      <trkpt lat="44.83869" lon="4.6026">
        <ele>585.6</ele>
        <time>2019-11-09T08:29:45Z</time>
      </trkpt>
      <trkpt lat="44.83885" lon="4.60258">
        <ele>586.4</ele>
        <time>2019-11-09T08:29:52Z</time>
      </trkpt>
      <trkpt lat="44.83898" lon="4.60259">
        <ele>587.4</ele>
        <time>2019-11-09T08:29:58Z</time>
      </trkpt>
      <trkpt lat="44.83902" lon="4.60258">
        <ele>587.6</ele>
        <time>2019-11-09T08:30:00Z</time>
      </trkpt>
      <trkpt lat="44.83911" lon="4.60255">
        <ele>588.6</ele>
        <time>2019-11-09T08:30:04Z</time>
      </trkpt>
      <trkpt lat="44.83921" lon="4.6025">
        <ele>589.6</ele>
        <time>2019-11-09T08:30:08Z</time>
      </trkpt>
      <trkpt lat="44.83942" lon="4.60237">
        <ele>590.4</ele>
        <time>2019-11-09T08:30:17Z</time>
      </trkpt>
      <trkpt lat="44.83955" lon="4.60232">
        <ele>590.4</ele>
        <time>2019-11-09T08:30:23Z</time>
      </trkpt>
      <trkpt lat="44.83957" lon="4.60232">
        <ele>590.4</ele>
        <time>2019-11-09T08:30:24Z</time>
      </trkpt>
      <trkpt lat="44.83961" lon="4.60232">
        <ele>590.6</ele>
        <time>2019-11-09T08:30:26Z</time>
      </trkpt>
      <trkpt lat="44.8397" lon="4.60235">
        <ele>591</ele>
        <time>2019-11-09T08:30:31Z</time>
      </trkpt>
      <trkpt lat="44.83972" lon="4.60236">
        <ele>591.2</ele>
        <time>2019-11-09T08:30:32Z</time>
      </trkpt>
      <trkpt lat="44.83975" lon="4.6024">
        <ele>591.4</ele>
        <time>2019-11-09T08:30:34Z</time>
      </trkpt>
      <trkpt lat="44.83979" lon="4.60241">
        <ele>591.8</ele>
        <time>2019-11-09T08:30:36Z</time>
      </trkpt>
      <trkpt lat="44.83981" lon="4.60242">
        <ele>592</ele>
        <time>2019-11-09T08:30:37Z</time>
      </trkpt>
      <trkpt lat="44.83991" lon="4.6025">
        <ele>592.8</ele>
        <time>2019-11-09T08:30:43Z</time>
      </trkpt>
      <trkpt lat="44.83998" lon="4.60249">
        <ele>593.4</ele>
        <time>2019-11-09T08:30:45Z</time>
      </trkpt>
      <trkpt lat="44.84003" lon="4.6025">
        <ele>593.8</ele>
        <time>2019-11-09T08:30:47Z</time>
      </trkpt>
      <trkpt lat="44.84005" lon="4.60251">
        <ele>594</ele>
        <time>2019-11-09T08:30:48Z</time>
      </trkpt>
      <trkpt lat="44.84008" lon="4.60251">
        <ele>594.2</ele>
        <time>2019-11-09T08:30:49Z</time>
      </trkpt>
      <trkpt lat="44.8401" lon="4.60251">
        <ele>594.4</ele>
        <time>2019-11-09T08:30:50Z</time>
      </trkpt>
      <trkpt lat="44.84012" lon="4.60251">
        <ele>594.8</ele>
        <time>2019-11-09T08:30:51Z</time>
      </trkpt>
      <trkpt lat="44.84016" lon="4.6025">
        <ele>595</ele>
        <time>2019-11-09T08:30:53Z</time>
      </trkpt>
      <trkpt lat="44.84025" lon="4.60255">
        <ele>596.2</ele>
        <time>2019-11-09T08:30:58Z</time>
      </trkpt>
      <trkpt lat="44.84029" lon="4.60263">
        <ele>597.2</ele>
        <time>2019-11-09T08:31:02Z</time>
      </trkpt>
      <trkpt lat="44.84031" lon="4.60267">
        <ele>597.6</ele>
        <time>2019-11-09T08:31:05Z</time>
      </trkpt>
      <trkpt lat="44.84031" lon="4.60267">
        <ele>597.8</ele>
        <time>2019-11-09T08:31:06Z</time>
      </trkpt>
      <trkpt lat="44.84035" lon="4.60274">
        <ele>598</ele>
        <time>2019-11-09T08:31:10Z</time>
      </trkpt>
      <trkpt lat="44.8404" lon="4.60278">
        <ele>598</ele>
        <time>2019-11-09T08:31:12Z</time>
      </trkpt>
      <trkpt lat="44.8405" lon="4.60278">
        <ele>597.6</ele>
        <time>2019-11-09T08:31:14Z</time>
      </trkpt>
      <trkpt lat="44.84055" lon="4.60279">
        <ele>597.2</ele>
        <time>2019-11-09T08:31:15Z</time>
      </trkpt>
      <trkpt lat="44.84055" lon="4.60281">
        <ele>597</ele>
        <time>2019-11-09T08:31:17Z</time>
      </trkpt>
      <trkpt lat="44.8405" lon="4.60279">
        <ele>596</ele>
        <time>2019-11-09T08:31:21Z</time>
      </trkpt>
      <trkpt lat="44.84049" lon="4.60278">
        <ele>596</ele>
        <time>2019-11-09T08:31:22Z</time>
      </trkpt>
      <trkpt lat="44.84039" lon="4.60281">
        <ele>595.6</ele>
        <time>2019-11-09T08:31:27Z</time>
      </trkpt>
      <trkpt lat="44.84038" lon="4.60282">
        <ele>595.4</ele>
        <time>2019-11-09T08:31:28Z</time>
      </trkpt>
      <trkpt lat="44.84037" lon="4.60284">
        <ele>595.2</ele>
        <time>2019-11-09T08:31:29Z</time>
      </trkpt>
      <trkpt lat="44.84036" lon="4.60287">
        <ele>594.8</ele>
        <time>2019-11-09T08:31:30Z</time>
      </trkpt>
      <trkpt lat="44.84037" lon="4.60296">
        <ele>594.2</ele>
        <time>2019-11-09T08:31:32Z</time>
      </trkpt>
      <trkpt lat="44.8404" lon="4.60306">
        <ele>593.2</ele>
        <time>2019-11-09T08:31:34Z</time>
      </trkpt>
      <trkpt lat="44.84043" lon="4.60312">
        <ele>591.8</ele>
        <time>2019-11-09T08:31:36Z</time>
      </trkpt>
      <trkpt lat="44.84044" lon="4.60317">
        <ele>590.8</ele>
        <time>2019-11-09T08:31:38Z</time>
      </trkpt>
      <trkpt lat="44.84046" lon="4.60324">
        <ele>590.2</ele>
        <time>2019-11-09T08:31:40Z</time>
      </trkpt>
      <trkpt lat="44.84048" lon="4.60327">
        <ele>589.8</ele>
        <time>2019-11-09T08:31:41Z</time>
      </trkpt>
      <trkpt lat="44.84051" lon="4.60329">
        <ele>589.2</ele>
        <time>2019-11-09T08:31:42Z</time>
      </trkpt>
      <trkpt lat="44.84057" lon="4.60331">
        <ele>588</ele>
        <time>2019-11-09T08:31:44Z</time>
      </trkpt>
      <trkpt lat="44.8408" lon="4.6034">
        <ele>587.4</ele>
        <time>2019-11-09T08:31:51Z</time>
      </trkpt>
      <trkpt lat="44.84096" lon="4.60351">
        <ele>587</ele>
        <time>2019-11-09T08:31:57Z</time>
      </trkpt>
      <trkpt lat="44.84111" lon="4.60369">
        <ele>585.6</ele>
        <time>2019-11-09T08:32:02Z</time>
      </trkpt>
      <trkpt lat="44.84115" lon="4.60374">
        <ele>584.8</ele>
        <time>2019-11-09T08:32:03Z</time>
      </trkpt>
      <trkpt lat="44.8412" lon="4.6038">
        <ele>584.4</ele>
        <time>2019-11-09T08:32:04Z</time>
      </trkpt>
      <trkpt lat="44.84124" lon="4.60386">
        <ele>583.2</ele>
        <time>2019-11-09T08:32:05Z</time>
      </trkpt>
      <trkpt lat="44.84129" lon="4.60389">
        <ele>582</ele>
        <time>2019-11-09T08:32:06Z</time>
      </trkpt>
      <trkpt lat="44.84134" lon="4.60393">
        <ele>581.4</ele>
        <time>2019-11-09T08:32:07Z</time>
      </trkpt>
      <trkpt lat="44.8414" lon="4.60395">
        <ele>581.2</ele>
        <time>2019-11-09T08:32:08Z</time>
      </trkpt>
      <trkpt lat="44.84151" lon="4.604">
        <ele>581</ele>
        <time>2019-11-09T08:32:10Z</time>
      </trkpt>
      <trkpt lat="44.84156" lon="4.60405">
        <ele>580.8</ele>
        <time>2019-11-09T08:32:11Z</time>
      </trkpt>
      <trkpt lat="44.84166" lon="4.60415">
        <ele>580.4</ele>
        <time>2019-11-09T08:32:13Z</time>
      </trkpt>
      <trkpt lat="44.84178" lon="4.60423">
        <ele>579.4</ele>
        <time>2019-11-09T08:32:15Z</time>
      </trkpt>
      <trkpt lat="44.84191" lon="4.60427">
        <ele>577.6</ele>
        <time>2019-11-09T08:32:17Z</time>
      </trkpt>
      <trkpt lat="44.84205" lon="4.6043">
        <ele>576.2</ele>
        <time>2019-11-09T08:32:19Z</time>
      </trkpt>
      <trkpt lat="44.84212" lon="4.60431">
        <ele>575.2</ele>
        <time>2019-11-09T08:32:20Z</time>
      </trkpt>
      <trkpt lat="44.84218" lon="4.60433">
        <ele>573.8</ele>
        <time>2019-11-09T08:32:21Z</time>
      </trkpt>
      <trkpt lat="44.84225" lon="4.60434">
        <ele>572.4</ele>
        <time>2019-11-09T08:32:22Z</time>
      </trkpt>
      <trkpt lat="44.84232" lon="4.60437">
        <ele>571.4</ele>
        <time>2019-11-09T08:32:23Z</time>
      </trkpt>
      <trkpt lat="44.84239" lon="4.60441">
        <ele>571</ele>
        <time>2019-11-09T08:32:24Z</time>
      </trkpt>
      <trkpt lat="44.84266" lon="4.60459">
        <ele>569.8</ele>
        <time>2019-11-09T08:32:28Z</time>
      </trkpt>
      <trkpt lat="44.84273" lon="4.60462">
        <ele>569.6</ele>
        <time>2019-11-09T08:32:29Z</time>
      </trkpt>
      <trkpt lat="44.84279" lon="4.60464">
        <ele>569.4</ele>
        <time>2019-11-09T08:32:30Z</time>
      </trkpt>
      <trkpt lat="44.84293" lon="4.60464">
        <ele>568</ele>
        <time>2019-11-09T08:32:32Z</time>
      </trkpt>
      <trkpt lat="44.84301" lon="4.60464">
        <ele>566.4</ele>
        <time>2019-11-09T08:32:33Z</time>
      </trkpt>
      <trkpt lat="44.84309" lon="4.60463">
        <ele>564.8</ele>
        <time>2019-11-09T08:32:34Z</time>
      </trkpt>
      <trkpt lat="44.84326" lon="4.60462">
        <ele>562.6</ele>
        <time>2019-11-09T08:32:36Z</time>
      </trkpt>
      <trkpt lat="44.84343" lon="4.60465">
        <ele>561.2</ele>
        <time>2019-11-09T08:32:38Z</time>
      </trkpt>
      <trkpt lat="44.84352" lon="4.60467">
        <ele>560</ele>
        <time>2019-11-09T08:32:39Z</time>
      </trkpt>
      <trkpt lat="44.84361" lon="4.6047">
        <ele>559.2</ele>
        <time>2019-11-09T08:32:40Z</time>
      </trkpt>
      <trkpt lat="44.84368" lon="4.60472">
        <ele>558.2</ele>
        <time>2019-11-09T08:32:41Z</time>
      </trkpt>
      <trkpt lat="44.84374" lon="4.60476">
        <ele>556.4</ele>
        <time>2019-11-09T08:32:42Z</time>
      </trkpt>
      <trkpt lat="44.84379" lon="4.60481">
        <ele>555.2</ele>
        <time>2019-11-09T08:32:43Z</time>
      </trkpt>
      <trkpt lat="44.8439" lon="4.60495">
        <ele>553.6</ele>
        <time>2019-11-09T08:32:45Z</time>
      </trkpt>
      <trkpt lat="44.84403" lon="4.60507">
        <ele>552.4</ele>
        <time>2019-11-09T08:32:47Z</time>
      </trkpt>
      <trkpt lat="44.8441" lon="4.60513">
        <ele>551.4</ele>
        <time>2019-11-09T08:32:48Z</time>
      </trkpt>
      <trkpt lat="44.84417" lon="4.60517">
        <ele>550.4</ele>
        <time>2019-11-09T08:32:49Z</time>
      </trkpt>
      <trkpt lat="44.84423" lon="4.60518">
        <ele>549.8</ele>
        <time>2019-11-09T08:32:50Z</time>
      </trkpt>
      <trkpt lat="44.8443" lon="4.60518">
        <ele>549.2</ele>
        <time>2019-11-09T08:32:51Z</time>
      </trkpt>
      <trkpt lat="44.84437" lon="4.60518">
        <ele>548.2</ele>
        <time>2019-11-09T08:32:52Z</time>
      </trkpt>
      <trkpt lat="44.84443" lon="4.60517">
        <ele>547.8</ele>
        <time>2019-11-09T08:32:53Z</time>
      </trkpt>
      <trkpt lat="44.84449" lon="4.60515">
        <ele>547.6</ele>
        <time>2019-11-09T08:32:54Z</time>
      </trkpt>
      <trkpt lat="44.84454" lon="4.60513">
        <ele>547.4</ele>
        <time>2019-11-09T08:32:55Z</time>
      </trkpt>
      <trkpt lat="44.84466" lon="4.60515">
        <ele>546.6</ele>
        <time>2019-11-09T08:32:57Z</time>
      </trkpt>
      <trkpt lat="44.84473" lon="4.60518">
        <ele>546</ele>
        <time>2019-11-09T08:32:58Z</time>
      </trkpt>
      <trkpt lat="44.84479" lon="4.60523">
        <ele>545.6</ele>
        <time>2019-11-09T08:32:59Z</time>
      </trkpt>
      <trkpt lat="44.84483" lon="4.60529">
        <ele>545</ele>
        <time>2019-11-09T08:33:00Z</time>
      </trkpt>
      <trkpt lat="44.84487" lon="4.60535">
        <ele>545.2</ele>
        <time>2019-11-09T08:33:01Z</time>
      </trkpt>
      <trkpt lat="44.84491" lon="4.60547">
        <ele>545.2</ele>
        <time>2019-11-09T08:33:03Z</time>
      </trkpt>
      <trkpt lat="44.84491" lon="4.60552">
        <ele>545.4</ele>
        <time>2019-11-09T08:33:04Z</time>
      </trkpt>
      <trkpt lat="44.84491" lon="4.60559">
        <ele>546.2</ele>
        <time>2019-11-09T08:33:06Z</time>
      </trkpt>
      <trkpt lat="44.8449" lon="4.60567">
        <ele>547.6</ele>
        <time>2019-11-09T08:33:09Z</time>
      </trkpt>
      <trkpt lat="44.84488" lon="4.60573">
        <ele>548.8</ele>
        <time>2019-11-09T08:33:12Z</time>
      </trkpt>
      <trkpt lat="44.84485" lon="4.60579">
        <ele>550</ele>
        <time>2019-11-09T08:33:15Z</time>
      </trkpt>
      <trkpt lat="44.84484" lon="4.60583">
        <ele>550.4</ele>
        <time>2019-11-09T08:33:17Z</time>
      </trkpt>
      <trkpt lat="44.84482" lon="4.60595">
        <ele>551.2</ele>
        <time>2019-11-09T08:33:23Z</time>
      </trkpt>
      <trkpt lat="44.84482" lon="4.60597">
        <ele>551.4</ele>
        <time>2019-11-09T08:33:24Z</time>
      </trkpt>
      <trkpt lat="44.84481" lon="4.60606">
        <ele>552.6</ele>
        <time>2019-11-09T08:33:28Z</time>
      </trkpt>
      <trkpt lat="44.84479" lon="4.60611">
        <ele>553</ele>
        <time>2019-11-09T08:33:31Z</time>
      </trkpt>
      <trkpt lat="44.84478" lon="4.60615">
        <ele>553.2</ele>
        <time>2019-11-09T08:33:33Z</time>
      </trkpt>
      <trkpt lat="44.84477" lon="4.60618">
        <ele>553.2</ele>
        <time>2019-11-09T08:33:35Z</time>
      </trkpt>
      <trkpt lat="44.84475" lon="4.60624">
        <ele>553.6</ele>
        <time>2019-11-09T08:33:38Z</time>
      </trkpt>
      <trkpt lat="44.8447" lon="4.60636">
        <ele>554.2</ele>
        <time>2019-11-09T08:33:44Z</time>
      </trkpt>
      <trkpt lat="44.84469" lon="4.60639">
        <ele>554.4</ele>
        <time>2019-11-09T08:33:46Z</time>
      </trkpt>
      <trkpt lat="44.84468" lon="4.60643">
        <ele>555</ele>
        <time>2019-11-09T08:33:48Z</time>
      </trkpt>
      <trkpt lat="44.84467" lon="4.60647">
        <ele>555.4</ele>
        <time>2019-11-09T08:33:50Z</time>
      </trkpt>
      <trkpt lat="44.84468" lon="4.60656">
        <ele>555.6</ele>
        <time>2019-11-09T08:33:55Z</time>
      </trkpt>
      <trkpt lat="44.84469" lon="4.60662">
        <ele>556.2</ele>
        <time>2019-11-09T08:33:58Z</time>
      </trkpt>
      <trkpt lat="44.8447" lon="4.60666">
        <ele>556.6</ele>
        <time>2019-11-09T08:34:00Z</time>
      </trkpt>
      <trkpt lat="44.84472" lon="4.60669">
        <ele>557.2</ele>
        <time>2019-11-09T08:34:02Z</time>
      </trkpt>
      <trkpt lat="44.84477" lon="4.60671">
        <ele>558</ele>
        <time>2019-11-09T08:34:06Z</time>
      </trkpt>
      <trkpt lat="44.84478" lon="4.60671">
        <ele>558.4</ele>
        <time>2019-11-09T08:34:07Z</time>
      </trkpt>
      <trkpt lat="44.84482" lon="4.6067">
        <ele>559.4</ele>
        <time>2019-11-09T08:34:10Z</time>
      </trkpt>
      <trkpt lat="44.84483" lon="4.60671">
        <ele>559.8</ele>
        <time>2019-11-09T08:34:11Z</time>
      </trkpt>
      <trkpt lat="44.84486" lon="4.60672">
        <ele>560.4</ele>
        <time>2019-11-09T08:34:14Z</time>
      </trkpt>
      <trkpt lat="44.84491" lon="4.60672">
        <ele>560.8</ele>
        <time>2019-11-09T08:34:18Z</time>
      </trkpt>
      <trkpt lat="44.84492" lon="4.60671">
        <ele>561.2</ele>
        <time>2019-11-09T08:34:19Z</time>
      </trkpt>
      <trkpt lat="44.84495" lon="4.60671">
        <ele>561.8</ele>
        <time>2019-11-09T08:34:21Z</time>
      </trkpt>
      <trkpt lat="44.84498" lon="4.6067">
        <ele>562</ele>
        <time>2019-11-09T08:34:23Z</time>
      </trkpt>
      <trkpt lat="44.84501" lon="4.6067">
        <ele>562.2</ele>
        <time>2019-11-09T08:34:25Z</time>
      </trkpt>
      <trkpt lat="44.84507" lon="4.60669">
        <ele>562.8</ele>
        <time>2019-11-09T08:34:30Z</time>
      </trkpt>
      <trkpt lat="44.84509" lon="4.60669">
        <ele>563.2</ele>
        <time>2019-11-09T08:34:31Z</time>
      </trkpt>
      <trkpt lat="44.8451" lon="4.60669">
        <ele>563.6</ele>
        <time>2019-11-09T08:34:32Z</time>
      </trkpt>
      <trkpt lat="44.84513" lon="4.6067">
        <ele>564.2</ele>
        <time>2019-11-09T08:34:35Z</time>
      </trkpt>
      <trkpt lat="44.84516" lon="4.60673">
        <ele>564.8</ele>
        <time>2019-11-09T08:34:38Z</time>
      </trkpt>
      <trkpt lat="44.84517" lon="4.60674">
        <ele>565.2</ele>
        <time>2019-11-09T08:34:39Z</time>
      </trkpt>
      <trkpt lat="44.8452" lon="4.60677">
        <ele>566.6</ele>
        <time>2019-11-09T08:34:42Z</time>
      </trkpt>
      <trkpt lat="44.84523" lon="4.6068">
        <ele>567</ele>
        <time>2019-11-09T08:34:45Z</time>
      </trkpt>
      <trkpt lat="44.84525" lon="4.60683">
        <ele>567.8</ele>
        <time>2019-11-09T08:34:47Z</time>
      </trkpt>
      <trkpt lat="44.84527" lon="4.60684">
        <ele>568.6</ele>
        <time>2019-11-09T08:34:49Z</time>
      </trkpt>
      <trkpt lat="44.84529" lon="4.60686">
        <ele>568.8</ele>
        <time>2019-11-09T08:34:51Z</time>
      </trkpt>
      <trkpt lat="44.84532" lon="4.60688">
        <ele>569</ele>
        <time>2019-11-09T08:34:53Z</time>
      </trkpt>
      <trkpt lat="44.84534" lon="4.60689">
        <ele>569.2</ele>
        <time>2019-11-09T08:34:54Z</time>
      </trkpt>
      <trkpt lat="44.84535" lon="4.60691">
        <ele>569.6</ele>
        <time>2019-11-09T08:34:56Z</time>
      </trkpt>
      <trkpt lat="44.84536" lon="4.60692">
        <ele>569.8</ele>
        <time>2019-11-09T08:34:57Z</time>
      </trkpt>
      <trkpt lat="44.84538" lon="4.60692">
        <ele>570</ele>
        <time>2019-11-09T08:34:58Z</time>
      </trkpt>
      <trkpt lat="44.8454" lon="4.60692">
        <ele>570.4</ele>
        <time>2019-11-09T08:35:00Z</time>
      </trkpt>
      <trkpt lat="44.84545" lon="4.60694">
        <ele>570.6</ele>
        <time>2019-11-09T08:35:06Z</time>
      </trkpt>
      <trkpt lat="44.84544" lon="4.60694">
        <ele>563.4</ele>
        <time>2019-11-09T08:35:08Z</time>
      </trkpt>
      <trkpt lat="44.84544" lon="4.60694">
        <ele>563.4</ele>
        <time>2019-11-09T08:35:11Z</time>
      </trkpt>
      <trkpt lat="44.84544" lon="4.60695">
        <ele>563.4</ele>
        <time>2019-11-09T08:35:13Z</time>
      </trkpt>
      <trkpt lat="44.84544" lon="4.60695">
        <ele>563.4</ele>
        <time>2019-11-09T08:35:16Z</time>
      </trkpt>
      <trkpt lat="44.84545" lon="4.60695">
        <ele>563.4</ele>
        <time>2019-11-09T08:35:21Z</time>
      </trkpt>
      <trkpt lat="44.84545" lon="4.60689">
        <ele>563.4</ele>
        <time>2019-11-09T08:35:29Z</time>
      </trkpt>
      <trkpt lat="44.84546" lon="4.60689">
        <ele>563.4</ele>
        <time>2019-11-09T08:35:31Z</time>
      </trkpt>
      <trkpt lat="44.84549" lon="4.60693">
        <ele>563.4</ele>
        <time>2019-11-09T08:35:34Z</time>
      </trkpt>
      <trkpt lat="44.8455" lon="4.60698">
        <ele>564.8</ele>
        <time>2019-11-09T08:35:36Z</time>
      </trkpt>
      <trkpt lat="44.84551" lon="4.60699">
        <ele>565.8</ele>
        <time>2019-11-09T08:35:37Z</time>
      </trkpt>
      <trkpt lat="44.84549" lon="4.607">
        <ele>566.4</ele>
        <time>2019-11-09T08:35:38Z</time>
      </trkpt>
      <trkpt lat="44.84549" lon="4.60699">
        <ele>567</ele>
        <time>2019-11-09T08:35:39Z</time>
      </trkpt>
      <trkpt lat="44.84548" lon="4.607">
        <ele>567.4</ele>
        <time>2019-11-09T08:35:41Z</time>
      </trkpt>
      <trkpt lat="44.84548" lon="4.607">
        <ele>567.6</ele>
        <time>2019-11-09T08:35:43Z</time>
      </trkpt>
      <trkpt lat="44.84546" lon="4.60703">
        <ele>567.6</ele>
        <time>2019-11-09T08:35:50Z</time>
      </trkpt>
      <trkpt lat="44.84545" lon="4.60704">
        <ele>567.4</ele>
        <time>2019-11-09T08:35:55Z</time>
      </trkpt>
      <trkpt lat="44.84545" lon="4.60704">
        <ele>567.6</ele>
        <time>2019-11-09T08:36:03Z</time>
      </trkpt>
      <trkpt lat="44.84546" lon="4.60702">
        <ele>567.8</ele>
        <time>2019-11-09T08:36:08Z</time>
      </trkpt>
      <trkpt lat="44.84547" lon="4.60702">
        <ele>567.6</ele>
        <time>2019-11-09T08:36:10Z</time>
      </trkpt>
      <trkpt lat="44.84548" lon="4.60701">
        <ele>568</ele>
        <time>2019-11-09T08:36:16Z</time>
      </trkpt>
      <trkpt lat="44.84548" lon="4.60701">
        <ele>568.2</ele>
        <time>2019-11-09T08:36:20Z</time>
      </trkpt>
      <trkpt lat="44.84547" lon="4.60702">
        <ele>568.4</ele>
        <time>2019-11-09T08:36:32Z</time>
      </trkpt>
      <trkpt lat="44.84548" lon="4.60703">
        <ele>568.6</ele>
        <time>2019-11-09T08:36:42Z</time>
      </trkpt>
      <trkpt lat="44.84548" lon="4.60703">
        <ele>568.8</ele>
        <time>2019-11-09T08:36:44Z</time>
      </trkpt>
      <trkpt lat="44.84548" lon="4.60703">
        <ele>569</ele>
        <time>2019-11-09T08:36:46Z</time>
      </trkpt>
      <trkpt lat="44.84549" lon="4.60702">
        <ele>569</ele>
        <time>2019-11-09T08:36:52Z</time>
      </trkpt>
      <trkpt lat="44.84549" lon="4.60702">
        <ele>569.2</ele>
        <time>2019-11-09T08:36:56Z</time>
      </trkpt>
      <trkpt lat="44.8455" lon="4.60702">
        <ele>569.6</ele>
        <time>2019-11-09T08:36:59Z</time>
      </trkpt>
      <trkpt lat="44.84551" lon="4.60703">
        <ele>569.8</ele>
        <time>2019-11-09T08:37:08Z</time>
      </trkpt>
      <trkpt lat="44.84551" lon="4.60703">
        <ele>568.2</ele>
        <time>2019-11-09T08:37:12Z</time>
      </trkpt>
      <trkpt lat="44.84551" lon="4.60703">
        <ele>565.8</ele>
        <time>2019-11-09T08:37:13Z</time>
      </trkpt>
      <trkpt lat="44.84551" lon="4.60703">
        <ele>563.4</ele>
        <time>2019-11-09T08:37:14Z</time>
      </trkpt>
      <trkpt lat="44.84551" lon="4.60703">
        <ele>562.2</ele>
        <time>2019-11-09T08:37:15Z</time>
      </trkpt>
      <trkpt lat="44.84551" lon="4.60703">
        <ele>561.2</ele>
        <time>2019-11-09T08:37:17Z</time>
      </trkpt>
      <trkpt lat="44.84551" lon="4.60703">
        <ele>560.8</ele>
        <time>2019-11-09T08:37:20Z</time>
      </trkpt>
      <trkpt lat="44.8455" lon="4.60701">
        <ele>560.6</ele>
        <time>2019-11-09T08:37:26Z</time>
      </trkpt>
      <trkpt lat="44.8455" lon="4.60701">
        <ele>561.6</ele>
        <time>2019-11-09T08:37:35Z</time>
      </trkpt>
      <trkpt lat="44.8455" lon="4.607">
        <ele>561.6</ele>
        <time>2019-11-09T08:37:36Z</time>
      </trkpt>
      <trkpt lat="44.84551" lon="4.60702">
        <ele>561.8</ele>
        <time>2019-11-09T08:37:42Z</time>
      </trkpt>
      <trkpt lat="44.84551" lon="4.60702">
        <ele>562</ele>
        <time>2019-11-09T08:37:44Z</time>
      </trkpt>
      <trkpt lat="44.84551" lon="4.60702">
        <ele>562</ele>
        <time>2019-11-09T08:37:45Z</time>
      </trkpt>
      <trkpt lat="44.84551" lon="4.60702">
        <ele>562</ele>
        <time>2019-11-09T08:37:46Z</time>
      </trkpt>
      <trkpt lat="44.84551" lon="4.60702">
        <ele>562</ele>
        <time>2019-11-09T08:37:47Z</time>
      </trkpt>
      <trkpt lat="44.84551" lon="4.60702">
        <ele>562.2</ele>
        <time>2019-11-09T08:37:49Z</time>
      </trkpt>
      <trkpt lat="44.84551" lon="4.60702">
        <ele>562.2</ele>
        <time>2019-11-09T08:37:51Z</time>
      </trkpt>
      <trkpt lat="44.84551" lon="4.60702">
        <ele>562.2</ele>
        <time>2019-11-09T08:37:52Z</time>
      </trkpt>
      <trkpt lat="44.8455" lon="4.60701">
        <ele>562.4</ele>
        <time>2019-11-09T08:37:59Z</time>
      </trkpt>
      <trkpt lat="44.84549" lon="4.60703">
        <ele>562.6</ele>
        <time>2019-11-09T08:38:10Z</time>
      </trkpt>
      <trkpt lat="44.84549" lon="4.60701">
        <ele>562.4</ele>
        <time>2019-11-09T08:38:16Z</time>
      </trkpt>
      <trkpt lat="44.8455" lon="4.60701">
        <ele>562.6</ele>
        <time>2019-11-09T08:38:20Z</time>
      </trkpt>
      <trkpt lat="44.8455" lon="4.60701">
        <ele>561.6</ele>
        <time>2019-11-09T08:38:28Z</time>
      </trkpt>
      <trkpt lat="44.8455" lon="4.60701">
        <ele>561.2</ele>
        <time>2019-11-09T08:38:30Z</time>
      </trkpt>
      <trkpt lat="44.8455" lon="4.607">
        <ele>561.2</ele>
        <time>2019-11-09T08:38:32Z</time>
      </trkpt>
      <trkpt lat="44.84549" lon="4.60701">
        <ele>561.6</ele>
        <time>2019-11-09T08:38:38Z</time>
      </trkpt>
      <trkpt lat="44.84549" lon="4.60701">
        <ele>562.2</ele>
        <time>2019-11-09T08:38:44Z</time>
      </trkpt>
      <trkpt lat="44.84549" lon="4.60701">
        <ele>562.2</ele>
        <time>2019-11-09T08:38:45Z</time>
      </trkpt>
      <trkpt lat="44.84549" lon="4.60701">
        <ele>562.4</ele>
        <time>2019-11-09T08:38:47Z</time>
      </trkpt>
      <trkpt lat="44.84548" lon="4.60703">
        <ele>562.8</ele>
        <time>2019-11-09T08:38:54Z</time>
      </trkpt>
      <trkpt lat="44.84551" lon="4.60701">
        <ele>563</ele>
        <time>2019-11-09T08:39:02Z</time>
      </trkpt>
      <trkpt lat="44.8455" lon="4.60701">
        <ele>563.4</ele>
        <time>2019-11-09T08:39:11Z</time>
      </trkpt>
      <trkpt lat="44.84547" lon="4.60699">
        <ele>563.2</ele>
        <time>2019-11-09T08:39:18Z</time>
      </trkpt>
      <trkpt lat="44.84547" lon="4.607">
        <ele>563.2</ele>
        <time>2019-11-09T08:39:21Z</time>
      </trkpt>
      <trkpt lat="44.84548" lon="4.607">
        <ele>563.2</ele>
        <time>2019-11-09T08:39:26Z</time>
      </trkpt>
      <trkpt lat="44.84548" lon="4.607">
        <ele>563.2</ele>
        <time>2019-11-09T08:39:30Z</time>
      </trkpt>
      <trkpt lat="44.84548" lon="4.60699">
        <ele>563.6</ele>
        <time>2019-11-09T08:39:36Z</time>
      </trkpt>
      <trkpt lat="44.84549" lon="4.60699">
        <ele>563.6</ele>
        <time>2019-11-09T08:39:38Z</time>
      </trkpt>
      <trkpt lat="44.84549" lon="4.60699">
        <ele>563.6</ele>
        <time>2019-11-09T08:39:42Z</time>
      </trkpt>
      <trkpt lat="44.84549" lon="4.60698">
        <ele>563.8</ele>
        <time>2019-11-09T08:39:47Z</time>
      </trkpt>
      <trkpt lat="44.84548" lon="4.60698">
        <ele>563.8</ele>
        <time>2019-11-09T08:39:55Z</time>
      </trkpt>
      <trkpt lat="44.84551" lon="4.60699">
        <ele>563.6</ele>
        <time>2019-11-09T08:40:05Z</time>
      </trkpt>
      <trkpt lat="44.84549" lon="4.607">
        <ele>564</ele>
        <time>2019-11-09T08:40:10Z</time>
      </trkpt>
      <trkpt lat="44.84549" lon="4.60701">
        <ele>564</ele>
        <time>2019-11-09T08:40:16Z</time>
      </trkpt>
      <trkpt lat="44.84549" lon="4.60701">
        <ele>563.8</ele>
        <time>2019-11-09T08:40:19Z</time>
      </trkpt>
      <trkpt lat="44.84549" lon="4.60701">
        <ele>563.8</ele>
        <time>2019-11-09T08:40:20Z</time>
      </trkpt>
      <trkpt lat="44.84549" lon="4.60702">
        <ele>564</ele>
        <time>2019-11-09T08:40:21Z</time>
      </trkpt>
      <trkpt lat="44.84549" lon="4.60702">
        <ele>564</ele>
        <time>2019-11-09T08:40:22Z</time>
      </trkpt>
      <trkpt lat="44.84549" lon="4.60702">
        <ele>564</ele>
        <time>2019-11-09T08:40:23Z</time>
      </trkpt>
      <trkpt lat="44.84549" lon="4.60702">
        <ele>564.2</ele>
        <time>2019-11-09T08:40:27Z</time>
      </trkpt>
      <trkpt lat="44.84549" lon="4.60701">
        <ele>561.8</ele>
        <time>2019-11-09T08:40:33Z</time>
      </trkpt>
      <trkpt lat="44.8455" lon="4.60701">
        <ele>561.8</ele>
        <time>2019-11-09T08:40:34Z</time>
      </trkpt>
      <trkpt lat="44.84551" lon="4.60701">
        <ele>561.6</ele>
        <time>2019-11-09T08:40:38Z</time>
      </trkpt>
      <trkpt lat="44.8455" lon="4.607">
        <ele>562.2</ele>
        <time>2019-11-09T08:40:42Z</time>
      </trkpt>
      <trkpt lat="44.84549" lon="4.60701">
        <ele>562.8</ele>
        <time>2019-11-09T08:40:47Z</time>
      </trkpt>
      <trkpt lat="44.84548" lon="4.60701">
        <ele>563</ele>
        <time>2019-11-09T08:40:52Z</time>
      </trkpt>
      <trkpt lat="44.84548" lon="4.607">
        <ele>564</ele>
        <time>2019-11-09T08:40:57Z</time>
      </trkpt>
      <trkpt lat="44.84548" lon="4.60699">
        <ele>563.8</ele>
        <time>2019-11-09T08:40:58Z</time>
      </trkpt>
      <trkpt lat="44.84549" lon="4.60697">
        <ele>562.8</ele>
        <time>2019-11-09T08:40:59Z</time>
      </trkpt>
      <trkpt lat="44.84549" lon="4.60694">
        <ele>562.2</ele>
        <time>2019-11-09T08:41:00Z</time>
      </trkpt>
      <trkpt lat="44.84551" lon="4.60692">
        <ele>562</ele>
        <time>2019-11-09T08:41:01Z</time>
      </trkpt>
      <trkpt lat="44.84554" lon="4.6069">
        <ele>561.4</ele>
        <time>2019-11-09T08:41:02Z</time>
      </trkpt>
      <trkpt lat="44.84559" lon="4.60689">
        <ele>561.2</ele>
        <time>2019-11-09T08:41:04Z</time>
      </trkpt>
      <trkpt lat="44.84568" lon="4.60695">
        <ele>560.4</ele>
        <time>2019-11-09T08:41:07Z</time>
      </trkpt>
      <trkpt lat="44.84571" lon="4.60698">
        <ele>559.8</ele>
        <time>2019-11-09T08:41:08Z</time>
      </trkpt>
      <trkpt lat="44.84576" lon="4.60701">
        <ele>559</ele>
        <time>2019-11-09T08:41:09Z</time>
      </trkpt>
      <trkpt lat="44.84586" lon="4.60701">
        <ele>557</ele>
        <time>2019-11-09T08:41:11Z</time>
      </trkpt>
      <trkpt lat="44.84592" lon="4.60697">
        <ele>556</ele>
        <time>2019-11-09T08:41:12Z</time>
      </trkpt>
      <trkpt lat="44.84596" lon="4.60695">
        <ele>554.8</ele>
        <time>2019-11-09T08:41:13Z</time>
      </trkpt>
      <trkpt lat="44.84601" lon="4.60695">
        <ele>554.2</ele>
        <time>2019-11-09T08:41:14Z</time>
      </trkpt>
      <trkpt lat="44.84605" lon="4.60697">
        <ele>553.4</ele>
        <time>2019-11-09T08:41:15Z</time>
      </trkpt>
      <trkpt lat="44.84613" lon="4.60702">
        <ele>552</ele>
        <time>2019-11-09T08:41:17Z</time>
      </trkpt>
      <trkpt lat="44.84622" lon="4.60709">
        <ele>550.6</ele>
        <time>2019-11-09T08:41:19Z</time>
      </trkpt>
      <trkpt lat="44.84631" lon="4.60716">
        <ele>549.6</ele>
        <time>2019-11-09T08:41:21Z</time>
      </trkpt>
      <trkpt lat="44.84635" lon="4.60721">
        <ele>548.6</ele>
        <time>2019-11-09T08:41:22Z</time>
      </trkpt>
      <trkpt lat="44.84644" lon="4.6073">
        <ele>546.8</ele>
        <time>2019-11-09T08:41:24Z</time>
      </trkpt>
      <trkpt lat="44.84649" lon="4.60735">
        <ele>546</ele>
        <time>2019-11-09T08:41:25Z</time>
      </trkpt>
      <trkpt lat="44.84654" lon="4.6074">
        <ele>545.6</ele>
        <time>2019-11-09T08:41:26Z</time>
      </trkpt>
      <trkpt lat="44.84664" lon="4.60749">
        <ele>544</ele>
        <time>2019-11-09T08:41:28Z</time>
      </trkpt>
      <trkpt lat="44.84669" lon="4.60752">
        <ele>543</ele>
        <time>2019-11-09T08:41:29Z</time>
      </trkpt>
      <trkpt lat="44.84679" lon="4.60757">
        <ele>541.2</ele>
        <time>2019-11-09T08:41:31Z</time>
      </trkpt>
      <trkpt lat="44.84692" lon="4.60765">
        <ele>540.4</ele>
        <time>2019-11-09T08:41:34Z</time>
      </trkpt>
      <trkpt lat="44.84694" lon="4.60766">
        <ele>540.2</ele>
        <time>2019-11-09T08:41:35Z</time>
      </trkpt>
      <trkpt lat="44.84702" lon="4.60766">
        <ele>540</ele>
        <time>2019-11-09T08:41:39Z</time>
      </trkpt>
      <trkpt lat="44.8471" lon="4.60768">
        <ele>539.8</ele>
        <time>2019-11-09T08:41:44Z</time>
      </trkpt>
      <trkpt lat="44.8471" lon="4.60768">
        <ele>539.6</ele>
        <time>2019-11-09T08:41:45Z</time>
      </trkpt>
      <trkpt lat="44.8471" lon="4.6077">
        <ele>539.6</ele>
        <time>2019-11-09T08:41:49Z</time>
      </trkpt>
      <trkpt lat="44.8471" lon="4.6077">
        <ele>539.8</ele>
        <time>2019-11-09T08:41:51Z</time>
      </trkpt>
      <trkpt lat="44.8471" lon="4.6077">
        <ele>539.6</ele>
        <time>2019-11-09T08:41:54Z</time>
      </trkpt>
      <trkpt lat="44.8471" lon="4.6077">
        <ele>539.8</ele>
        <time>2019-11-09T08:41:55Z</time>
      </trkpt>
      <trkpt lat="44.8471" lon="4.6077">
        <ele>539.6</ele>
        <time>2019-11-09T08:41:59Z</time>
      </trkpt>
      <trkpt lat="44.8471" lon="4.60771">
        <ele>539.8</ele>
        <time>2019-11-09T08:42:06Z</time>
      </trkpt>
      <trkpt lat="44.8471" lon="4.60771">
        <ele>539.8</ele>
        <time>2019-11-09T08:42:07Z</time>
      </trkpt>
      <trkpt lat="44.8471" lon="4.60771">
        <ele>539.8</ele>
        <time>2019-11-09T08:42:13Z</time>
      </trkpt>
      <trkpt lat="44.8471" lon="4.60771">
        <ele>539.6</ele>
        <time>2019-11-09T08:42:15Z</time>
      </trkpt>
      <trkpt lat="44.8471" lon="4.6077">
        <ele>539.4</ele>
        <time>2019-11-09T08:42:19Z</time>
      </trkpt>
      <trkpt lat="44.8471" lon="4.6077">
        <ele>539.4</ele>
        <time>2019-11-09T08:42:20Z</time>
      </trkpt>
      <trkpt lat="44.8471" lon="4.6077">
        <ele>539.4</ele>
        <time>2019-11-09T08:42:25Z</time>
      </trkpt>
      <trkpt lat="44.84711" lon="4.6077">
        <ele>539.4</ele>
        <time>2019-11-09T08:42:28Z</time>
      </trkpt>
      <trkpt lat="44.84715" lon="4.60771">
        <ele>539</ele>
        <time>2019-11-09T08:42:30Z</time>
      </trkpt>
      <trkpt lat="44.84728" lon="4.60769">
        <ele>538</ele>
        <time>2019-11-09T08:42:34Z</time>
      </trkpt>
      <trkpt lat="44.84732" lon="4.60769">
        <ele>537.2</ele>
        <time>2019-11-09T08:42:35Z</time>
      </trkpt>
      <trkpt lat="44.84736" lon="4.60768">
        <ele>536.8</ele>
        <time>2019-11-09T08:42:36Z</time>
      </trkpt>
      <trkpt lat="44.84751" lon="4.60766">
        <ele>536</ele>
        <time>2019-11-09T08:42:39Z</time>
      </trkpt>
      <trkpt lat="44.84757" lon="4.60768">
        <ele>535.4</ele>
        <time>2019-11-09T08:42:40Z</time>
      </trkpt>
      <trkpt lat="44.84763" lon="4.60769">
        <ele>534.4</ele>
        <time>2019-11-09T08:42:41Z</time>
      </trkpt>
      <trkpt lat="44.84767" lon="4.6077">
        <ele>533.6</ele>
        <time>2019-11-09T08:42:42Z</time>
      </trkpt>
      <trkpt lat="44.84771" lon="4.60773">
        <ele>533.2</ele>
        <time>2019-11-09T08:42:43Z</time>
      </trkpt>
      <trkpt lat="44.84773" lon="4.60775">
        <ele>533</ele>
        <time>2019-11-09T08:42:44Z</time>
      </trkpt>
      <trkpt lat="44.84774" lon="4.60777">
        <ele>532.6</ele>
        <time>2019-11-09T08:42:48Z</time>
      </trkpt>
      <trkpt lat="44.84773" lon="4.60777">
        <ele>532.6</ele>
        <time>2019-11-09T08:42:49Z</time>
      </trkpt>
      <trkpt lat="44.84775" lon="4.60779">
        <ele>532</ele>
        <time>2019-11-09T08:42:54Z</time>
      </trkpt>
      <trkpt lat="44.84775" lon="4.6078">
        <ele>532</ele>
        <time>2019-11-09T08:42:55Z</time>
      </trkpt>
      <trkpt lat="44.84768" lon="4.60782">
        <ele>531.6</ele>
        <time>2019-11-09T08:42:58Z</time>
      </trkpt>
      <trkpt lat="44.84763" lon="4.60781">
        <ele>531.2</ele>
        <time>2019-11-09T08:43:00Z</time>
      </trkpt>
      <trkpt lat="44.8475" lon="4.60786">
        <ele>530.8</ele>
        <time>2019-11-09T08:43:05Z</time>
      </trkpt>
      <trkpt lat="44.84745" lon="4.60791">
        <ele>530.2</ele>
        <time>2019-11-09T08:43:07Z</time>
      </trkpt>
      <trkpt lat="44.84737" lon="4.60798">
        <ele>529</ele>
        <time>2019-11-09T08:43:09Z</time>
      </trkpt>
      <trkpt lat="44.84733" lon="4.608">
        <ele>528.2</ele>
        <time>2019-11-09T08:43:10Z</time>
      </trkpt>
      <trkpt lat="44.84728" lon="4.60803">
        <ele>527.6</ele>
        <time>2019-11-09T08:43:11Z</time>
      </trkpt>
      <trkpt lat="44.84725" lon="4.60806">
        <ele>527.2</ele>
        <time>2019-11-09T08:43:12Z</time>
      </trkpt>
      <trkpt lat="44.84726" lon="4.60805">
        <ele>526.6</ele>
        <time>2019-11-09T08:43:13Z</time>
      </trkpt>
      <trkpt lat="44.84728" lon="4.60806">
        <ele>526.4</ele>
        <time>2019-11-09T08:43:14Z</time>
      </trkpt>
      <trkpt lat="44.84734" lon="4.60804">
        <ele>525.8</ele>
        <time>2019-11-09T08:43:16Z</time>
      </trkpt>
      <trkpt lat="44.84743" lon="4.60803">
        <ele>525.6</ele>
        <time>2019-11-09T08:43:18Z</time>
      </trkpt>
      <trkpt lat="44.84749" lon="4.60804">
        <ele>524.8</ele>
        <time>2019-11-09T08:43:19Z</time>
      </trkpt>
      <trkpt lat="44.84754" lon="4.60806">
        <ele>523.6</ele>
        <time>2019-11-09T08:43:20Z</time>
      </trkpt>
      <trkpt lat="44.84759" lon="4.60809">
        <ele>522</ele>
        <time>2019-11-09T08:43:21Z</time>
      </trkpt>
      <trkpt lat="44.84764" lon="4.60812">
        <ele>521</ele>
        <time>2019-11-09T08:43:22Z</time>
      </trkpt>
      <trkpt lat="44.84776" lon="4.60819">
        <ele>520</ele>
        <time>2019-11-09T08:43:25Z</time>
      </trkpt>
      <trkpt lat="44.84779" lon="4.60822">
        <ele>520</ele>
        <time>2019-11-09T08:43:26Z</time>
      </trkpt>
      <trkpt lat="44.84781" lon="4.60826">
        <ele>520</ele>
        <time>2019-11-09T08:43:28Z</time>
      </trkpt>
      <trkpt lat="44.84782" lon="4.60828">
        <ele>520</ele>
        <time>2019-11-09T08:43:31Z</time>
      </trkpt>
      <trkpt lat="44.84782" lon="4.60828">
        <ele>520</ele>
        <time>2019-11-09T08:43:32Z</time>
      </trkpt>
      <trkpt lat="44.84782" lon="4.60829">
        <ele>520.2</ele>
        <time>2019-11-09T08:43:39Z</time>
      </trkpt>
      <trkpt lat="44.84783" lon="4.6083">
        <ele>520.8</ele>
        <time>2019-11-09T08:43:44Z</time>
      </trkpt>
      <trkpt lat="44.84782" lon="4.6083">
        <ele>520</ele>
        <time>2019-11-09T08:43:55Z</time>
      </trkpt>
      <trkpt lat="44.84779" lon="4.6083">
        <ele>520</ele>
        <time>2019-11-09T08:43:57Z</time>
      </trkpt>
      <trkpt lat="44.84769" lon="4.60826">
        <ele>519.4</ele>
        <time>2019-11-09T08:44:00Z</time>
      </trkpt>
      <trkpt lat="44.84765" lon="4.60827">
        <ele>518.8</ele>
        <time>2019-11-09T08:44:01Z</time>
      </trkpt>
      <trkpt lat="44.8476" lon="4.60828">
        <ele>518.2</ele>
        <time>2019-11-09T08:44:02Z</time>
      </trkpt>
      <trkpt lat="44.84751" lon="4.60834">
        <ele>517.2</ele>
        <time>2019-11-09T08:44:04Z</time>
      </trkpt>
      <trkpt lat="44.84747" lon="4.60837">
        <ele>516.4</ele>
        <time>2019-11-09T08:44:05Z</time>
      </trkpt>
      <trkpt lat="44.84742" lon="4.60841">
        <ele>515.8</ele>
        <time>2019-11-09T08:44:06Z</time>
      </trkpt>
      <trkpt lat="44.84726" lon="4.6085">
        <ele>514.6</ele>
        <time>2019-11-09T08:44:09Z</time>
      </trkpt>
      <trkpt lat="44.84715" lon="4.60856">
        <ele>514.2</ele>
        <time>2019-11-09T08:44:11Z</time>
      </trkpt>
      <trkpt lat="44.84708" lon="4.60857">
        <ele>514</ele>
        <time>2019-11-09T08:44:12Z</time>
      </trkpt>
      <trkpt lat="44.84702" lon="4.60857">
        <ele>513.4</ele>
        <time>2019-11-09T08:44:13Z</time>
      </trkpt>
      <trkpt lat="44.84695" lon="4.60857">
        <ele>512.6</ele>
        <time>2019-11-09T08:44:14Z</time>
      </trkpt>
      <trkpt lat="44.84687" lon="4.60857">
        <ele>511.4</ele>
        <time>2019-11-09T08:44:15Z</time>
      </trkpt>
      <trkpt lat="44.8468" lon="4.60856">
        <ele>510.4</ele>
        <time>2019-11-09T08:44:16Z</time>
      </trkpt>
      <trkpt lat="44.84674" lon="4.60856">
        <ele>509.4</ele>
        <time>2019-11-09T08:44:17Z</time>
      </trkpt>
      <trkpt lat="44.84669" lon="4.60858">
        <ele>508.8</ele>
        <time>2019-11-09T08:44:18Z</time>
      </trkpt>
      <trkpt lat="44.84665" lon="4.60863">
        <ele>508.2</ele>
        <time>2019-11-09T08:44:19Z</time>
      </trkpt>
      <trkpt lat="44.84663" lon="4.6087">
        <ele>507.6</ele>
        <time>2019-11-09T08:44:20Z</time>
      </trkpt>
      <trkpt lat="44.84662" lon="4.60879">
        <ele>507</ele>
        <time>2019-11-09T08:44:21Z</time>
      </trkpt>
      <trkpt lat="44.84661" lon="4.60888">
        <ele>506.4</ele>
        <time>2019-11-09T08:44:22Z</time>
      </trkpt>
      <trkpt lat="44.84661" lon="4.60898">
        <ele>506</ele>
        <time>2019-11-09T08:44:23Z</time>
      </trkpt>
      <trkpt lat="44.84663" lon="4.60907">
        <ele>504.8</ele>
        <time>2019-11-09T08:44:24Z</time>
      </trkpt>
      <trkpt lat="44.84666" lon="4.60918">
        <ele>503.8</ele>
        <time>2019-11-09T08:44:25Z</time>
      </trkpt>
      <trkpt lat="44.84671" lon="4.60939">
        <ele>502.6</ele>
        <time>2019-11-09T08:44:27Z</time>
      </trkpt>
      <trkpt lat="44.84673" lon="4.6095">
        <ele>502</ele>
        <time>2019-11-09T08:44:28Z</time>
      </trkpt>
      <trkpt lat="44.84674" lon="4.60961">
        <ele>501.4</ele>
        <time>2019-11-09T08:44:29Z</time>
      </trkpt>
      <trkpt lat="44.84674" lon="4.60972">
        <ele>501</ele>
        <time>2019-11-09T08:44:30Z</time>
      </trkpt>
      <trkpt lat="44.84673" lon="4.60982">
        <ele>500.6</ele>
        <time>2019-11-09T08:44:31Z</time>
      </trkpt>
      <trkpt lat="44.84672" lon="4.60992">
        <ele>499.8</ele>
        <time>2019-11-09T08:44:32Z</time>
      </trkpt>
      <trkpt lat="44.84669" lon="4.61002">
        <ele>499.2</ele>
        <time>2019-11-09T08:44:33Z</time>
      </trkpt>
      <trkpt lat="44.84666" lon="4.61012">
        <ele>498.2</ele>
        <time>2019-11-09T08:44:34Z</time>
      </trkpt>
      <trkpt lat="44.84663" lon="4.61023">
        <ele>496.8</ele>
        <time>2019-11-09T08:44:35Z</time>
      </trkpt>
      <trkpt lat="44.84661" lon="4.61034">
        <ele>495.2</ele>
        <time>2019-11-09T08:44:36Z</time>
      </trkpt>
      <trkpt lat="44.84657" lon="4.61044">
        <ele>494.2</ele>
        <time>2019-11-09T08:44:37Z</time>
      </trkpt>
      <trkpt lat="44.84648" lon="4.61062">
        <ele>492.6</ele>
        <time>2019-11-09T08:44:39Z</time>
      </trkpt>
      <trkpt lat="44.84639" lon="4.61077">
        <ele>491.6</ele>
        <time>2019-11-09T08:44:41Z</time>
      </trkpt>
      <trkpt lat="44.84635" lon="4.61082">
        <ele>491.4</ele>
        <time>2019-11-09T08:44:42Z</time>
      </trkpt>
      <trkpt lat="44.84629" lon="4.61087">
        <ele>490.8</ele>
        <time>2019-11-09T08:44:44Z</time>
      </trkpt>
      <trkpt lat="44.84627" lon="4.6109">
        <ele>490.2</ele>
        <time>2019-11-09T08:44:46Z</time>
      </trkpt>
      <trkpt lat="44.84625" lon="4.61091">
        <ele>489.8</ele>
        <time>2019-11-09T08:44:49Z</time>
      </trkpt>
      <trkpt lat="44.84625" lon="4.61091">
        <ele>489.8</ele>
        <time>2019-11-09T08:44:50Z</time>
      </trkpt>
      <trkpt lat="44.84624" lon="4.61095">
        <ele>489.4</ele>
        <time>2019-11-09T08:44:53Z</time>
      </trkpt>
      <trkpt lat="44.84623" lon="4.61097">
        <ele>489</ele>
        <time>2019-11-09T08:44:55Z</time>
      </trkpt>
      <trkpt lat="44.8462" lon="4.61101">
        <ele>488</ele>
        <time>2019-11-09T08:44:57Z</time>
      </trkpt>
      <trkpt lat="44.84619" lon="4.61104">
        <ele>486.8</ele>
        <time>2019-11-09T08:44:58Z</time>
      </trkpt>
      <trkpt lat="44.84617" lon="4.61108">
        <ele>485.8</ele>
        <time>2019-11-09T08:44:59Z</time>
      </trkpt>
      <trkpt lat="44.84613" lon="4.61115">
        <ele>484.6</ele>
        <time>2019-11-09T08:45:01Z</time>
      </trkpt>
      <trkpt lat="44.84612" lon="4.61119">
        <ele>484.2</ele>
        <time>2019-11-09T08:45:02Z</time>
      </trkpt>
      <trkpt lat="44.84613" lon="4.61124">
        <ele>483.4</ele>
        <time>2019-11-09T08:45:04Z</time>
      </trkpt>
      <trkpt lat="44.84615" lon="4.61125">
        <ele>483.2</ele>
        <time>2019-11-09T08:45:05Z</time>
      </trkpt>
      <trkpt lat="44.84617" lon="4.61124">
        <ele>483</ele>
        <time>2019-11-09T08:45:06Z</time>
      </trkpt>
      <trkpt lat="44.84626" lon="4.61122">
        <ele>482.4</ele>
        <time>2019-11-09T08:45:09Z</time>
      </trkpt>
      <trkpt lat="44.84635" lon="4.61117">
        <ele>481.4</ele>
        <time>2019-11-09T08:45:13Z</time>
      </trkpt>
      <trkpt lat="44.84642" lon="4.61113">
        <ele>481</ele>
        <time>2019-11-09T08:45:16Z</time>
      </trkpt>
      <trkpt lat="44.84654" lon="4.61107">
        <ele>480.2</ele>
        <time>2019-11-09T08:45:20Z</time>
      </trkpt>
      <trkpt lat="44.8466" lon="4.61107">
        <ele>479</ele>
        <time>2019-11-09T08:45:22Z</time>
      </trkpt>
      <trkpt lat="44.8467" lon="4.61111">
        <ele>478</ele>
        <time>2019-11-09T08:45:25Z</time>
      </trkpt>
      <trkpt lat="44.84677" lon="4.61114">
        <ele>477.2</ele>
        <time>2019-11-09T08:45:27Z</time>
      </trkpt>
      <trkpt lat="44.84681" lon="4.61117">
        <ele>476.4</ele>
        <time>2019-11-09T08:45:28Z</time>
      </trkpt>
      <trkpt lat="44.84688" lon="4.61122">
        <ele>475</ele>
        <time>2019-11-09T08:45:30Z</time>
      </trkpt>
      <trkpt lat="44.84695" lon="4.61122">
        <ele>473.4</ele>
        <time>2019-11-09T08:45:32Z</time>
      </trkpt>
      <trkpt lat="44.84699" lon="4.6112">
        <ele>473.2</ele>
        <time>2019-11-09T08:45:33Z</time>
      </trkpt>
      <trkpt lat="44.84704" lon="4.61117">
        <ele>472.6</ele>
        <time>2019-11-09T08:45:34Z</time>
      </trkpt>
      <trkpt lat="44.84709" lon="4.61115">
        <ele>472.4</ele>
        <time>2019-11-09T08:45:35Z</time>
      </trkpt>
      <trkpt lat="44.84714" lon="4.61113">
        <ele>471.8</ele>
        <time>2019-11-09T08:45:36Z</time>
      </trkpt>
      <trkpt lat="44.84721" lon="4.61117">
        <ele>471</ele>
        <time>2019-11-09T08:45:38Z</time>
      </trkpt>
      <trkpt lat="44.84718" lon="4.61131">
        <ele>470</ele>
        <time>2019-11-09T08:45:41Z</time>
      </trkpt>
      <trkpt lat="44.84715" lon="4.61143">
        <ele>469.4</ele>
        <time>2019-11-09T08:45:43Z</time>
      </trkpt>
      <trkpt lat="44.84713" lon="4.61149">
        <ele>468.2</ele>
        <time>2019-11-09T08:45:44Z</time>
      </trkpt>
      <trkpt lat="44.84711" lon="4.61157">
        <ele>467.4</ele>
        <time>2019-11-09T08:45:45Z</time>
      </trkpt>
      <trkpt lat="44.8471" lon="4.61167">
        <ele>466.6</ele>
        <time>2019-11-09T08:45:46Z</time>
      </trkpt>
      <trkpt lat="44.84708" lon="4.61186">
        <ele>465.4</ele>
        <time>2019-11-09T08:45:48Z</time>
      </trkpt>
      <trkpt lat="44.84705" lon="4.61204">
        <ele>464.6</ele>
        <time>2019-11-09T08:45:50Z</time>
      </trkpt>
      <trkpt lat="44.84706" lon="4.61212">
        <ele>464.2</ele>
        <time>2019-11-09T08:45:51Z</time>
      </trkpt>
      <trkpt lat="44.84707" lon="4.61218">
        <ele>464</ele>
        <time>2019-11-09T08:45:52Z</time>
      </trkpt>
      <trkpt lat="44.84711" lon="4.61223">
        <ele>463.4</ele>
        <time>2019-11-09T08:45:53Z</time>
      </trkpt>
      <trkpt lat="44.84715" lon="4.61226">
        <ele>462.4</ele>
        <time>2019-11-09T08:45:54Z</time>
      </trkpt>
      <trkpt lat="44.84721" lon="4.61227">
        <ele>461.2</ele>
        <time>2019-11-09T08:45:55Z</time>
      </trkpt>
      <trkpt lat="44.84733" lon="4.61228">
        <ele>459.8</ele>
        <time>2019-11-09T08:45:57Z</time>
      </trkpt>
      <trkpt lat="44.84751" lon="4.61227">
        <ele>459.2</ele>
        <time>2019-11-09T08:46:00Z</time>
      </trkpt>
      <trkpt lat="44.84762" lon="4.61224">
        <ele>459.4</ele>
        <time>2019-11-09T08:46:02Z</time>
      </trkpt>
      <trkpt lat="44.8476" lon="4.61228">
        <ele>459.6</ele>
        <time>2019-11-09T08:46:03Z</time>
      </trkpt>
      <trkpt lat="44.8476" lon="4.61237">
        <ele>459.8</ele>
        <time>2019-11-09T08:46:05Z</time>
      </trkpt>
      <trkpt lat="44.84765" lon="4.61251">
        <ele>459.8</ele>
        <time>2019-11-09T08:46:09Z</time>
      </trkpt>
      <trkpt lat="44.84763" lon="4.61253">
        <ele>460</ele>
        <time>2019-11-09T08:46:10Z</time>
      </trkpt>
      <trkpt lat="44.84761" lon="4.61259">
        <ele>460.2</ele>
        <time>2019-11-09T08:46:14Z</time>
      </trkpt>
      <trkpt lat="44.84762" lon="4.61261">
        <ele>460.2</ele>
        <time>2019-11-09T08:46:16Z</time>
      </trkpt>
      <trkpt lat="44.84766" lon="4.6126">
        <ele>460.4</ele>
        <time>2019-11-09T08:46:21Z</time>
      </trkpt>
      <trkpt lat="44.84765" lon="4.61262">
        <ele>460.4</ele>
        <time>2019-11-09T08:46:27Z</time>
      </trkpt>
      <trkpt lat="44.84766" lon="4.61262">
        <ele>460.2</ele>
        <time>2019-11-09T08:46:33Z</time>
      </trkpt>
      <trkpt lat="44.84769" lon="4.61262">
        <ele>460.4</ele>
        <time>2019-11-09T08:46:40Z</time>
      </trkpt>
      <trkpt lat="44.8477" lon="4.61262">
        <ele>460</ele>
        <time>2019-11-09T08:46:47Z</time>
      </trkpt>
      <trkpt lat="44.8477" lon="4.61262">
        <ele>460</ele>
        <time>2019-11-09T08:46:48Z</time>
      </trkpt>
      <trkpt lat="44.84769" lon="4.61261">
        <ele>459.8</ele>
        <time>2019-11-09T08:46:50Z</time>
      </trkpt>
      <trkpt lat="44.84769" lon="4.6126">
        <ele>460</ele>
        <time>2019-11-09T08:46:54Z</time>
      </trkpt>
      <trkpt lat="44.84769" lon="4.61261">
        <ele>460</ele>
        <time>2019-11-09T08:46:57Z</time>
      </trkpt>
      <trkpt lat="44.84769" lon="4.6126">
        <ele>460</ele>
        <time>2019-11-09T08:47:04Z</time>
      </trkpt>
      <trkpt lat="44.84771" lon="4.61262">
        <ele>460.2</ele>
        <time>2019-11-09T08:47:11Z</time>
      </trkpt>
      <trkpt lat="44.8477" lon="4.61262">
        <ele>460.2</ele>
        <time>2019-11-09T08:47:15Z</time>
      </trkpt>
      <trkpt lat="44.8477" lon="4.61261">
        <ele>460.4</ele>
        <time>2019-11-09T08:47:18Z</time>
      </trkpt>
      <trkpt lat="44.8477" lon="4.61261">
        <ele>460.4</ele>
        <time>2019-11-09T08:47:24Z</time>
      </trkpt>
      <trkpt lat="44.8477" lon="4.61262">
        <ele>460.4</ele>
        <time>2019-11-09T08:47:30Z</time>
      </trkpt>
      <trkpt lat="44.84771" lon="4.61263">
        <ele>460.4</ele>
        <time>2019-11-09T08:47:33Z</time>
      </trkpt>
      <trkpt lat="44.84773" lon="4.61266">
        <ele>460.4</ele>
        <time>2019-11-09T08:47:39Z</time>
      </trkpt>
      <trkpt lat="44.84772" lon="4.61267">
        <ele>460.4</ele>
        <time>2019-11-09T08:47:46Z</time>
      </trkpt>
      <trkpt lat="44.84772" lon="4.61266">
        <ele>460.4</ele>
        <time>2019-11-09T08:47:48Z</time>
      </trkpt>
      <trkpt lat="44.84772" lon="4.61266">
        <ele>460.4</ele>
        <time>2019-11-09T08:47:51Z</time>
      </trkpt>
      <trkpt lat="44.84772" lon="4.61266">
        <ele>460.4</ele>
        <time>2019-11-09T08:47:52Z</time>
      </trkpt>
      <trkpt lat="44.84772" lon="4.61266">
        <ele>460.4</ele>
        <time>2019-11-09T08:47:53Z</time>
      </trkpt>
      <trkpt lat="44.84772" lon="4.61266">
        <ele>460.4</ele>
        <time>2019-11-09T08:47:54Z</time>
      </trkpt>
      <trkpt lat="44.84771" lon="4.61266">
        <ele>460.4</ele>
        <time>2019-11-09T08:47:55Z</time>
      </trkpt>
      <trkpt lat="44.84771" lon="4.61267">
        <ele>460.4</ele>
        <time>2019-11-09T08:47:56Z</time>
      </trkpt>
      <trkpt lat="44.84761" lon="4.61273">
        <ele>460.8</ele>
        <time>2019-11-09T08:48:02Z</time>
      </trkpt>
      <trkpt lat="44.84759" lon="4.61273">
        <ele>461</ele>
        <time>2019-11-09T08:48:03Z</time>
      </trkpt>
      <trkpt lat="44.84749" lon="4.61273">
        <ele>461.6</ele>
        <time>2019-11-09T08:48:09Z</time>
      </trkpt>
      <trkpt lat="44.84747" lon="4.61273">
        <ele>461.6</ele>
        <time>2019-11-09T08:48:10Z</time>
      </trkpt>
      <trkpt lat="44.84745" lon="4.61272">
        <ele>461.8</ele>
        <time>2019-11-09T08:48:12Z</time>
      </trkpt>
      <trkpt lat="44.84738" lon="4.61271">
        <ele>462.6</ele>
        <time>2019-11-09T08:48:16Z</time>
      </trkpt>
      <trkpt lat="44.84737" lon="4.61271">
        <ele>463</ele>
        <time>2019-11-09T08:48:17Z</time>
      </trkpt>
      <trkpt lat="44.84732" lon="4.61271">
        <ele>463.4</ele>
        <time>2019-11-09T08:48:20Z</time>
      </trkpt>
      <trkpt lat="44.84727" lon="4.61272">
        <ele>463.6</ele>
        <time>2019-11-09T08:48:23Z</time>
      </trkpt>
      <trkpt lat="44.84721" lon="4.61273">
        <ele>463.4</ele>
        <time>2019-11-09T08:48:27Z</time>
      </trkpt>
      <trkpt lat="44.84717" lon="4.61273">
        <ele>463.4</ele>
        <time>2019-11-09T08:48:30Z</time>
      </trkpt>
      <trkpt lat="44.84712" lon="4.61276">
        <ele>464</ele>
        <time>2019-11-09T08:48:34Z</time>
      </trkpt>
      <trkpt lat="44.8471" lon="4.61277">
        <ele>464.6</ele>
        <time>2019-11-09T08:48:37Z</time>
      </trkpt>
      <trkpt lat="44.84708" lon="4.61277">
        <ele>464.8</ele>
        <time>2019-11-09T08:48:39Z</time>
      </trkpt>
      <trkpt lat="44.84707" lon="4.61277">
        <ele>465</ele>
        <time>2019-11-09T08:48:40Z</time>
      </trkpt>
      <trkpt lat="44.84706" lon="4.61279">
        <ele>465.2</ele>
        <time>2019-11-09T08:48:41Z</time>
      </trkpt>
      <trkpt lat="44.84704" lon="4.6128">
        <ele>465.4</ele>
        <time>2019-11-09T08:48:42Z</time>
      </trkpt>
      <trkpt lat="44.84703" lon="4.61281">
        <ele>465.6</ele>
        <time>2019-11-09T08:48:43Z</time>
      </trkpt>
      <trkpt lat="44.84701" lon="4.61284">
        <ele>466.2</ele>
        <time>2019-11-09T08:48:45Z</time>
      </trkpt>
      <trkpt lat="44.84697" lon="4.61293">
        <ele>467</ele>
        <time>2019-11-09T08:48:50Z</time>
      </trkpt>
      <trkpt lat="44.84697" lon="4.61294">
        <ele>467.2</ele>
        <time>2019-11-09T08:48:51Z</time>
      </trkpt>
      <trkpt lat="44.84696" lon="4.61298">
        <ele>467.4</ele>
        <time>2019-11-09T08:48:53Z</time>
      </trkpt>
      <trkpt lat="44.84693" lon="4.61305">
        <ele>468</ele>
        <time>2019-11-09T08:48:57Z</time>
      </trkpt>
      <trkpt lat="44.84694" lon="4.61309">
        <ele>468.4</ele>
        <time>2019-11-09T08:48:59Z</time>
      </trkpt>
      <trkpt lat="44.84694" lon="4.61314">
        <ele>469.4</ele>
        <time>2019-11-09T08:49:02Z</time>
      </trkpt>
      <trkpt lat="44.84694" lon="4.61316">
        <ele>469.4</ele>
        <time>2019-11-09T08:49:03Z</time>
      </trkpt>
      <trkpt lat="44.84695" lon="4.61318">
        <ele>469.4</ele>
        <time>2019-11-09T08:49:04Z</time>
      </trkpt>
      <trkpt lat="44.84697" lon="4.61326">
        <ele>470.2</ele>
        <time>2019-11-09T08:49:09Z</time>
      </trkpt>
      <trkpt lat="44.84697" lon="4.61328">
        <ele>470.4</ele>
        <time>2019-11-09T08:49:10Z</time>
      </trkpt>
      <trkpt lat="44.84697" lon="4.61331">
        <ele>471</ele>
        <time>2019-11-09T08:49:12Z</time>
      </trkpt>
      <trkpt lat="44.84697" lon="4.61339">
        <ele>471.4</ele>
        <time>2019-11-09T08:49:16Z</time>
      </trkpt>
      <trkpt lat="44.84698" lon="4.61344">
        <ele>471.8</ele>
        <time>2019-11-09T08:49:19Z</time>
      </trkpt>
      <trkpt lat="44.84698" lon="4.6135">
        <ele>472.6</ele>
        <time>2019-11-09T08:49:23Z</time>
      </trkpt>
      <trkpt lat="44.84696" lon="4.61358">
        <ele>473</ele>
        <time>2019-11-09T08:49:28Z</time>
      </trkpt>
      <trkpt lat="44.84695" lon="4.61363">
        <ele>473.4</ele>
        <time>2019-11-09T08:49:31Z</time>
      </trkpt>
      <trkpt lat="44.84694" lon="4.61365">
        <ele>473.6</ele>
        <time>2019-11-09T08:49:32Z</time>
      </trkpt>
      <trkpt lat="44.84693" lon="4.61367">
        <ele>474</ele>
        <time>2019-11-09T08:49:34Z</time>
      </trkpt>
      <trkpt lat="44.8469" lon="4.6137">
        <ele>474.6</ele>
        <time>2019-11-09T08:49:37Z</time>
      </trkpt>
      <trkpt lat="44.84687" lon="4.61372">
        <ele>475.4</ele>
        <time>2019-11-09T08:49:41Z</time>
      </trkpt>
      <trkpt lat="44.84685" lon="4.61372">
        <ele>475.8</ele>
        <time>2019-11-09T08:49:43Z</time>
      </trkpt>
      <trkpt lat="44.8468" lon="4.61372">
        <ele>476.8</ele>
        <time>2019-11-09T08:49:48Z</time>
      </trkpt>
      <trkpt lat="44.84679" lon="4.61372">
        <ele>476.8</ele>
        <time>2019-11-09T08:49:49Z</time>
      </trkpt>
      <trkpt lat="44.84677" lon="4.61372">
        <ele>477</ele>
        <time>2019-11-09T08:49:51Z</time>
      </trkpt>
      <trkpt lat="44.84676" lon="4.61373">
        <ele>477.2</ele>
        <time>2019-11-09T08:49:52Z</time>
      </trkpt>
      <trkpt lat="44.84675" lon="4.61373">
        <ele>477.4</ele>
        <time>2019-11-09T08:49:53Z</time>
      </trkpt>
      <trkpt lat="44.84674" lon="4.61374">
        <ele>477.8</ele>
        <time>2019-11-09T08:49:55Z</time>
      </trkpt>
      <trkpt lat="44.84672" lon="4.61376">
        <ele>478</ele>
        <time>2019-11-09T08:49:56Z</time>
      </trkpt>
      <trkpt lat="44.84664" lon="4.61381">
        <ele>477.2</ele>
        <time>2019-11-09T08:50:03Z</time>
      </trkpt>
      <trkpt lat="44.84662" lon="4.61382">
        <ele>476.8</ele>
        <time>2019-11-09T08:50:05Z</time>
      </trkpt>
      <trkpt lat="44.84659" lon="4.61384">
        <ele>476.8</ele>
        <time>2019-11-09T08:50:07Z</time>
      </trkpt>
      <trkpt lat="44.84656" lon="4.61386">
        <ele>477.8</ele>
        <time>2019-11-09T08:50:10Z</time>
      </trkpt>
      <trkpt lat="44.84654" lon="4.61387">
        <ele>478.4</ele>
        <time>2019-11-09T08:50:13Z</time>
      </trkpt>
      <trkpt lat="44.8465" lon="4.61389">
        <ele>478.8</ele>
        <time>2019-11-09T08:50:17Z</time>
      </trkpt>
      <trkpt lat="44.84648" lon="4.61391">
        <ele>479</ele>
        <time>2019-11-09T08:50:19Z</time>
      </trkpt>
      <trkpt lat="44.8464" lon="4.61397">
        <ele>479.6</ele>
        <time>2019-11-09T08:50:25Z</time>
      </trkpt>
      <trkpt lat="44.84639" lon="4.61402">
        <ele>480.2</ele>
        <time>2019-11-09T08:50:29Z</time>
      </trkpt>
      <trkpt lat="44.8464" lon="4.61402">
        <ele>480.6</ele>
        <time>2019-11-09T08:50:30Z</time>
      </trkpt>
      <trkpt lat="44.84645" lon="4.61399">
        <ele>481.4</ele>
        <time>2019-11-09T08:50:35Z</time>
      </trkpt>
      <trkpt lat="44.84646" lon="4.61398">
        <ele>481.4</ele>
        <time>2019-11-09T08:50:36Z</time>
      </trkpt>
      <trkpt lat="44.84649" lon="4.61399">
        <ele>481.8</ele>
        <time>2019-11-09T08:50:40Z</time>
      </trkpt>
      <trkpt lat="44.8465" lon="4.61399">
        <ele>482</ele>
        <time>2019-11-09T08:50:41Z</time>
      </trkpt>
      <trkpt lat="44.84652" lon="4.61399">
        <ele>482</ele>
        <time>2019-11-09T08:50:42Z</time>
      </trkpt>
      <trkpt lat="44.84656" lon="4.61399">
        <ele>482.4</ele>
        <time>2019-11-09T08:50:45Z</time>
      </trkpt>
      <trkpt lat="44.84659" lon="4.61399">
        <ele>483</ele>
        <time>2019-11-09T08:50:48Z</time>
      </trkpt>
      <trkpt lat="44.84663" lon="4.61401">
        <ele>483.4</ele>
        <time>2019-11-09T08:50:52Z</time>
      </trkpt>
      <trkpt lat="44.84664" lon="4.61402">
        <ele>483.6</ele>
        <time>2019-11-09T08:50:53Z</time>
      </trkpt>
      <trkpt lat="44.84666" lon="4.61402">
        <ele>483.6</ele>
        <time>2019-11-09T08:50:54Z</time>
      </trkpt>
      <trkpt lat="44.84673" lon="4.61406">
        <ele>484</ele>
        <time>2019-11-09T08:50:59Z</time>
      </trkpt>
      <trkpt lat="44.84675" lon="4.61407">
        <ele>484.2</ele>
        <time>2019-11-09T08:51:00Z</time>
      </trkpt>
      <trkpt lat="44.84681" lon="4.61408">
        <ele>484.6</ele>
        <time>2019-11-09T08:51:04Z</time>
      </trkpt>
      <trkpt lat="44.84684" lon="4.61408">
        <ele>484.8</ele>
        <time>2019-11-09T08:51:06Z</time>
      </trkpt>
      <trkpt lat="44.8469" lon="4.61409">
        <ele>485</ele>
        <time>2019-11-09T08:51:09Z</time>
      </trkpt>
      <trkpt lat="44.84693" lon="4.61409">
        <ele>485</ele>
        <time>2019-11-09T08:51:10Z</time>
      </trkpt>
      <trkpt lat="44.84698" lon="4.61409">
        <ele>484.8</ele>
        <time>2019-11-09T08:51:12Z</time>
      </trkpt>
      <trkpt lat="44.84701" lon="4.61409">
        <ele>484.8</ele>
        <time>2019-11-09T08:51:14Z</time>
      </trkpt>
      <trkpt lat="44.84705" lon="4.61408">
        <ele>485</ele>
        <time>2019-11-09T08:51:17Z</time>
      </trkpt>
      <trkpt lat="44.8471" lon="4.61406">
        <ele>485.8</ele>
        <time>2019-11-09T08:51:20Z</time>
      </trkpt>
      <trkpt lat="44.84712" lon="4.61405">
        <ele>486</ele>
        <time>2019-11-09T08:51:21Z</time>
      </trkpt>
      <trkpt lat="44.84713" lon="4.61405">
        <ele>486</ele>
        <time>2019-11-09T08:51:22Z</time>
      </trkpt>
      <trkpt lat="44.84715" lon="4.61404">
        <ele>486.2</ele>
        <time>2019-11-09T08:51:23Z</time>
      </trkpt>
      <trkpt lat="44.84716" lon="4.61403">
        <ele>486.4</ele>
        <time>2019-11-09T08:51:24Z</time>
      </trkpt>
      <trkpt lat="44.84718" lon="4.61403">
        <ele>486.6</ele>
        <time>2019-11-09T08:51:25Z</time>
      </trkpt>
      <trkpt lat="44.84722" lon="4.61404">
        <ele>487</ele>
        <time>2019-11-09T08:51:27Z</time>
      </trkpt>
      <trkpt lat="44.84723" lon="4.61404">
        <ele>487.2</ele>
        <time>2019-11-09T08:51:28Z</time>
      </trkpt>
      <trkpt lat="44.84727" lon="4.61403">
        <ele>487.4</ele>
        <time>2019-11-09T08:51:30Z</time>
      </trkpt>
      <trkpt lat="44.84733" lon="4.61403">
        <ele>488</ele>
        <time>2019-11-09T08:51:34Z</time>
      </trkpt>
      <trkpt lat="44.84735" lon="4.61403">
        <ele>488.2</ele>
        <time>2019-11-09T08:51:35Z</time>
      </trkpt>
      <trkpt lat="44.84743" lon="4.61401">
        <ele>489.2</ele>
        <time>2019-11-09T08:51:40Z</time>
      </trkpt>
      <trkpt lat="44.84744" lon="4.61401">
        <ele>489.2</ele>
        <time>2019-11-09T08:51:41Z</time>
      </trkpt>
      <trkpt lat="44.84746" lon="4.614">
        <ele>489.4</ele>
        <time>2019-11-09T08:51:42Z</time>
      </trkpt>
      <trkpt lat="44.84751" lon="4.61397">
        <ele>489.8</ele>
        <time>2019-11-09T08:51:45Z</time>
      </trkpt>
      <trkpt lat="44.84756" lon="4.61395">
        <ele>490.2</ele>
        <time>2019-11-09T08:51:48Z</time>
      </trkpt>
      <trkpt lat="44.8476" lon="4.61391">
        <ele>491</ele>
        <time>2019-11-09T08:51:51Z</time>
      </trkpt>
      <trkpt lat="44.84761" lon="4.61391">
        <ele>491.4</ele>
        <time>2019-11-09T08:51:52Z</time>
      </trkpt>
      <trkpt lat="44.84762" lon="4.61392">
        <ele>491.8</ele>
        <time>2019-11-09T08:51:53Z</time>
      </trkpt>
      <trkpt lat="44.84764" lon="4.61393">
        <ele>492</ele>
        <time>2019-11-09T08:51:54Z</time>
      </trkpt>
      <trkpt lat="44.84764" lon="4.61395">
        <ele>492</ele>
        <time>2019-11-09T08:51:55Z</time>
      </trkpt>
      <trkpt lat="44.84764" lon="4.61397">
        <ele>492.2</ele>
        <time>2019-11-09T08:51:56Z</time>
      </trkpt>
      <trkpt lat="44.84763" lon="4.61398">
        <ele>492.4</ele>
        <time>2019-11-09T08:51:57Z</time>
      </trkpt>
      <trkpt lat="44.84761" lon="4.614">
        <ele>492.6</ele>
        <time>2019-11-09T08:51:59Z</time>
      </trkpt>
      <trkpt lat="44.8476" lon="4.61401">
        <ele>492.8</ele>
        <time>2019-11-09T08:52:00Z</time>
      </trkpt>
      <trkpt lat="44.84757" lon="4.61406">
        <ele>493.4</ele>
        <time>2019-11-09T08:52:04Z</time>
      </trkpt>
      <trkpt lat="44.84756" lon="4.61408">
        <ele>493.6</ele>
        <time>2019-11-09T08:52:05Z</time>
      </trkpt>
      <trkpt lat="44.84755" lon="4.61409">
        <ele>493.8</ele>
        <time>2019-11-09T08:52:06Z</time>
      </trkpt>
      <trkpt lat="44.84754" lon="4.6141">
        <ele>493.8</ele>
        <time>2019-11-09T08:52:07Z</time>
      </trkpt>
      <trkpt lat="44.84753" lon="4.61412">
        <ele>494</ele>
        <time>2019-11-09T08:52:08Z</time>
      </trkpt>
      <trkpt lat="44.84752" lon="4.61413">
        <ele>494.2</ele>
        <time>2019-11-09T08:52:09Z</time>
      </trkpt>
      <trkpt lat="44.84751" lon="4.61415">
        <ele>494.4</ele>
        <time>2019-11-09T08:52:10Z</time>
      </trkpt>
      <trkpt lat="44.84749" lon="4.61418">
        <ele>494.6</ele>
        <time>2019-11-09T08:52:12Z</time>
      </trkpt>
      <trkpt lat="44.84748" lon="4.6142">
        <ele>494.8</ele>
        <time>2019-11-09T08:52:13Z</time>
      </trkpt>
      <trkpt lat="44.84742" lon="4.61424">
        <ele>495.8</ele>
        <time>2019-11-09T08:52:17Z</time>
      </trkpt>
      <trkpt lat="44.84741" lon="4.61424">
        <ele>496.2</ele>
        <time>2019-11-09T08:52:18Z</time>
      </trkpt>
      <trkpt lat="44.84735" lon="4.61426">
        <ele>497</ele>
        <time>2019-11-09T08:52:22Z</time>
      </trkpt>
      <trkpt lat="44.84733" lon="4.61428">
        <ele>497.2</ele>
        <time>2019-11-09T08:52:24Z</time>
      </trkpt>
      <trkpt lat="44.84729" lon="4.61431">
        <ele>497.4</ele>
        <time>2019-11-09T08:52:27Z</time>
      </trkpt>
      <trkpt lat="44.84726" lon="4.61434">
        <ele>497.8</ele>
        <time>2019-11-09T08:52:30Z</time>
      </trkpt>
      <trkpt lat="44.84724" lon="4.61437">
        <ele>498</ele>
        <time>2019-11-09T08:52:32Z</time>
      </trkpt>
      <trkpt lat="44.84723" lon="4.61439">
        <ele>498.2</ele>
        <time>2019-11-09T08:52:33Z</time>
      </trkpt>
      <trkpt lat="44.84721" lon="4.61441">
        <ele>498.4</ele>
        <time>2019-11-09T08:52:35Z</time>
      </trkpt>
      <trkpt lat="44.84716" lon="4.61448">
        <ele>498.8</ele>
        <time>2019-11-09T08:52:40Z</time>
      </trkpt>
      <trkpt lat="44.84715" lon="4.61449">
        <ele>499</ele>
        <time>2019-11-09T08:52:41Z</time>
      </trkpt>
      <trkpt lat="44.84713" lon="4.61451">
        <ele>499.2</ele>
        <time>2019-11-09T08:52:43Z</time>
      </trkpt>
      <trkpt lat="44.84712" lon="4.61452">
        <ele>499.4</ele>
        <time>2019-11-09T08:52:44Z</time>
      </trkpt>
      <trkpt lat="44.84708" lon="4.61454">
        <ele>499.6</ele>
        <time>2019-11-09T08:52:47Z</time>
      </trkpt>
      <trkpt lat="44.84706" lon="4.61455">
        <ele>500.4</ele>
        <time>2019-11-09T08:52:50Z</time>
      </trkpt>
      <trkpt lat="44.84702" lon="4.61456">
        <ele>501</ele>
        <time>2019-11-09T08:52:54Z</time>
      </trkpt>
      <trkpt lat="44.847" lon="4.61457">
        <ele>501.4</ele>
        <time>2019-11-09T08:52:56Z</time>
      </trkpt>
      <trkpt lat="44.84696" lon="4.61459">
        <ele>502.2</ele>
        <time>2019-11-09T08:53:00Z</time>
      </trkpt>
      <trkpt lat="44.84695" lon="4.6146">
        <ele>502.6</ele>
        <time>2019-11-09T08:53:02Z</time>
      </trkpt>
      <trkpt lat="44.84694" lon="4.61461">
        <ele>502.8</ele>
        <time>2019-11-09T08:53:03Z</time>
      </trkpt>
      <trkpt lat="44.84693" lon="4.61462">
        <ele>503</ele>
        <time>2019-11-09T08:53:04Z</time>
      </trkpt>
      <trkpt lat="44.84692" lon="4.61464">
        <ele>503.2</ele>
        <time>2019-11-09T08:53:05Z</time>
      </trkpt>
      <trkpt lat="44.84691" lon="4.61464">
        <ele>503.4</ele>
        <time>2019-11-09T08:53:06Z</time>
      </trkpt>
      <trkpt lat="44.8469" lon="4.61466">
        <ele>503.6</ele>
        <time>2019-11-09T08:53:07Z</time>
      </trkpt>
      <trkpt lat="44.84686" lon="4.61474">
        <ele>504.6</ele>
        <time>2019-11-09T08:53:13Z</time>
      </trkpt>
      <trkpt lat="44.84685" lon="4.61475">
        <ele>504.8</ele>
        <time>2019-11-09T08:53:14Z</time>
      </trkpt>
      <trkpt lat="44.84682" lon="4.6148">
        <ele>505.2</ele>
        <time>2019-11-09T08:53:18Z</time>
      </trkpt>
      <trkpt lat="44.84682" lon="4.61483">
        <ele>505.2</ele>
        <time>2019-11-09T08:53:20Z</time>
      </trkpt>
      <trkpt lat="44.84679" lon="4.6149">
        <ele>505.8</ele>
        <time>2019-11-09T08:53:24Z</time>
      </trkpt>
      <trkpt lat="44.84679" lon="4.61492">
        <ele>505.8</ele>
        <time>2019-11-09T08:53:25Z</time>
      </trkpt>
      <trkpt lat="44.84678" lon="4.61495">
        <ele>506</ele>
        <time>2019-11-09T08:53:27Z</time>
      </trkpt>
      <trkpt lat="44.84677" lon="4.61501">
        <ele>506.6</ele>
        <time>2019-11-09T08:53:31Z</time>
      </trkpt>
      <trkpt lat="44.84675" lon="4.61503">
        <ele>506.6</ele>
        <time>2019-11-09T08:53:33Z</time>
      </trkpt>
      <trkpt lat="44.84674" lon="4.61503">
        <ele>506.8</ele>
        <time>2019-11-09T08:53:34Z</time>
      </trkpt>
      <trkpt lat="44.84673" lon="4.61505">
        <ele>507.2</ele>
        <time>2019-11-09T08:53:35Z</time>
      </trkpt>
      <trkpt lat="44.8467" lon="4.61508">
        <ele>507.8</ele>
        <time>2019-11-09T08:53:37Z</time>
      </trkpt>
      <trkpt lat="44.84668" lon="4.6151">
        <ele>508</ele>
        <time>2019-11-09T08:53:38Z</time>
      </trkpt>
      <trkpt lat="44.84668" lon="4.61511">
        <ele>508.2</ele>
        <time>2019-11-09T08:53:39Z</time>
      </trkpt>
      <trkpt lat="44.84667" lon="4.61512">
        <ele>508.4</ele>
        <time>2019-11-09T08:53:40Z</time>
      </trkpt>
      <trkpt lat="44.84666" lon="4.61512">
        <ele>508.4</ele>
        <time>2019-11-09T08:53:41Z</time>
      </trkpt>
      <trkpt lat="44.84665" lon="4.61513">
        <ele>508.6</ele>
        <time>2019-11-09T08:53:42Z</time>
      </trkpt>
      <trkpt lat="44.84665" lon="4.61514">
        <ele>508.8</ele>
        <time>2019-11-09T08:53:43Z</time>
      </trkpt>
      <trkpt lat="44.84664" lon="4.61516">
        <ele>509</ele>
        <time>2019-11-09T08:53:44Z</time>
      </trkpt>
      <trkpt lat="44.84663" lon="4.61519">
        <ele>509</ele>
        <time>2019-11-09T08:53:46Z</time>
      </trkpt>
      <trkpt lat="44.84662" lon="4.61519">
        <ele>509.2</ele>
        <time>2019-11-09T08:53:47Z</time>
      </trkpt>
      <trkpt lat="44.84661" lon="4.6152">
        <ele>509.2</ele>
        <time>2019-11-09T08:53:48Z</time>
      </trkpt>
      <trkpt lat="44.84654" lon="4.61526">
        <ele>510</ele>
        <time>2019-11-09T08:53:54Z</time>
      </trkpt>
      <trkpt lat="44.84653" lon="4.61528">
        <ele>510.2</ele>
        <time>2019-11-09T08:53:55Z</time>
      </trkpt>
      <trkpt lat="44.84649" lon="4.61534">
        <ele>511.2</ele>
        <time>2019-11-09T08:54:01Z</time>
      </trkpt>
      <trkpt lat="44.84647" lon="4.61535">
        <ele>511.4</ele>
        <time>2019-11-09T08:54:02Z</time>
      </trkpt>
      <trkpt lat="44.84644" lon="4.61537">
        <ele>511.6</ele>
        <time>2019-11-09T08:54:05Z</time>
      </trkpt>
      <trkpt lat="44.84642" lon="4.61537">
        <ele>511.8</ele>
        <time>2019-11-09T08:54:07Z</time>
      </trkpt>
      <trkpt lat="44.84641" lon="4.61537">
        <ele>511.8</ele>
        <time>2019-11-09T08:54:08Z</time>
      </trkpt>
      <trkpt lat="44.84635" lon="4.61538">
        <ele>512.4</ele>
        <time>2019-11-09T08:54:14Z</time>
      </trkpt>
      <trkpt lat="44.84634" lon="4.61539">
        <ele>512.4</ele>
        <time>2019-11-09T08:54:15Z</time>
      </trkpt>
      <trkpt lat="44.84632" lon="4.6154">
        <ele>512.6</ele>
        <time>2019-11-09T08:54:16Z</time>
      </trkpt>
      <trkpt lat="44.84628" lon="4.61542">
        <ele>513.4</ele>
        <time>2019-11-09T08:54:20Z</time>
      </trkpt>
      <trkpt lat="44.84625" lon="4.61541">
        <ele>513.6</ele>
        <time>2019-11-09T08:54:22Z</time>
      </trkpt>
      <trkpt lat="44.84618" lon="4.61539">
        <ele>514.4</ele>
        <time>2019-11-09T08:54:27Z</time>
      </trkpt>
      <trkpt lat="44.84616" lon="4.61539">
        <ele>514.8</ele>
        <time>2019-11-09T08:54:29Z</time>
      </trkpt>
      <trkpt lat="44.8461" lon="4.61537">
        <ele>515.6</ele>
        <time>2019-11-09T08:54:33Z</time>
      </trkpt>
      <trkpt lat="44.84607" lon="4.61536">
        <ele>516</ele>
        <time>2019-11-09T08:54:35Z</time>
      </trkpt>
      <trkpt lat="44.84602" lon="4.61538">
        <ele>516.6</ele>
        <time>2019-11-09T08:54:40Z</time>
      </trkpt>
      <trkpt lat="44.84602" lon="4.61538">
        <ele>517</ele>
        <time>2019-11-09T08:54:41Z</time>
      </trkpt>
      <trkpt lat="44.84601" lon="4.61539">
        <ele>517.2</ele>
        <time>2019-11-09T08:54:42Z</time>
      </trkpt>
      <trkpt lat="44.84597" lon="4.61542">
        <ele>517.8</ele>
        <time>2019-11-09T08:54:46Z</time>
      </trkpt>
      <trkpt lat="44.84592" lon="4.61546">
        <ele>518.6</ele>
        <time>2019-11-09T08:54:50Z</time>
      </trkpt>
      <trkpt lat="44.84591" lon="4.61548">
        <ele>518.8</ele>
        <time>2019-11-09T08:54:51Z</time>
      </trkpt>
      <trkpt lat="44.84586" lon="4.61557">
        <ele>519</ele>
        <time>2019-11-09T08:54:58Z</time>
      </trkpt>
      <trkpt lat="44.84579" lon="4.61562">
        <ele>520</ele>
        <time>2019-11-09T08:55:04Z</time>
      </trkpt>
      <trkpt lat="44.84575" lon="4.61567">
        <ele>521</ele>
        <time>2019-11-09T08:55:08Z</time>
      </trkpt>
      <trkpt lat="44.84573" lon="4.61571">
        <ele>522</ele>
        <time>2019-11-09T08:55:11Z</time>
      </trkpt>
      <trkpt lat="44.84573" lon="4.61572">
        <ele>522.2</ele>
        <time>2019-11-09T08:55:12Z</time>
      </trkpt>
      <trkpt lat="44.8457" lon="4.61582">
        <ele>522.8</ele>
        <time>2019-11-09T08:55:18Z</time>
      </trkpt>
      <trkpt lat="44.8457" lon="4.61584">
        <ele>523.2</ele>
        <time>2019-11-09T08:55:20Z</time>
      </trkpt>
      <trkpt lat="44.8457" lon="4.6159">
        <ele>524.2</ele>
        <time>2019-11-09T08:55:25Z</time>
      </trkpt>
      <trkpt lat="44.8457" lon="4.61591">
        <ele>524.4</ele>
        <time>2019-11-09T08:55:26Z</time>
      </trkpt>
      <trkpt lat="44.84573" lon="4.61594">
        <ele>525</ele>
        <time>2019-11-09T08:55:33Z</time>
      </trkpt>
      <trkpt lat="44.84575" lon="4.61595">
        <ele>525.4</ele>
        <time>2019-11-09T08:55:35Z</time>
      </trkpt>
      <trkpt lat="44.84576" lon="4.61596">
        <ele>525.6</ele>
        <time>2019-11-09T08:55:36Z</time>
      </trkpt>
      <trkpt lat="44.8458" lon="4.61597">
        <ele>526.4</ele>
        <time>2019-11-09T08:55:40Z</time>
      </trkpt>
      <trkpt lat="44.84584" lon="4.61598">
        <ele>526.8</ele>
        <time>2019-11-09T08:55:43Z</time>
      </trkpt>
      <trkpt lat="44.8459" lon="4.61599">
        <ele>527.8</ele>
        <time>2019-11-09T08:55:48Z</time>
      </trkpt>
      <trkpt lat="44.84592" lon="4.616">
        <ele>528.4</ele>
        <time>2019-11-09T08:55:50Z</time>
      </trkpt>
      <trkpt lat="44.84595" lon="4.61601">
        <ele>528.8</ele>
        <time>2019-11-09T08:55:54Z</time>
      </trkpt>
      <trkpt lat="44.84596" lon="4.61601">
        <ele>529</ele>
        <time>2019-11-09T08:55:55Z</time>
      </trkpt>
      <trkpt lat="44.84603" lon="4.61602">
        <ele>529.8</ele>
        <time>2019-11-09T08:56:01Z</time>
      </trkpt>
      <trkpt lat="44.84605" lon="4.61602">
        <ele>530</ele>
        <time>2019-11-09T08:56:03Z</time>
      </trkpt>
      <trkpt lat="44.8461" lon="4.61603">
        <ele>530.8</ele>
        <time>2019-11-09T08:56:09Z</time>
      </trkpt>
      <trkpt lat="44.84611" lon="4.61604">
        <ele>531</ele>
        <time>2019-11-09T08:56:10Z</time>
      </trkpt>
      <trkpt lat="44.84613" lon="4.61607">
        <ele>532.2</ele>
        <time>2019-11-09T08:56:14Z</time>
      </trkpt>
      <trkpt lat="44.84614" lon="4.61608">
        <ele>532.2</ele>
        <time>2019-11-09T08:56:15Z</time>
      </trkpt>
      <trkpt lat="44.84615" lon="4.61608">
        <ele>532.4</ele>
        <time>2019-11-09T08:56:16Z</time>
      </trkpt>
      <trkpt lat="44.84619" lon="4.61614">
        <ele>532.8</ele>
        <time>2019-11-09T08:56:22Z</time>
      </trkpt>
      <trkpt lat="44.8462" lon="4.61615">
        <ele>532.8</ele>
        <time>2019-11-09T08:56:23Z</time>
      </trkpt>
      <trkpt lat="44.84624" lon="4.61618">
        <ele>533.2</ele>
        <time>2019-11-09T08:56:26Z</time>
      </trkpt>
      <trkpt lat="44.84629" lon="4.61622">
        <ele>533.6</ele>
        <time>2019-11-09T08:56:30Z</time>
      </trkpt>
      <trkpt lat="44.84637" lon="4.61627">
        <ele>534.4</ele>
        <time>2019-11-09T08:56:36Z</time>
      </trkpt>
      <trkpt lat="44.84638" lon="4.61628">
        <ele>534.6</ele>
        <time>2019-11-09T08:56:37Z</time>
      </trkpt>
      <trkpt lat="44.84645" lon="4.61632">
        <ele>535.4</ele>
        <time>2019-11-09T08:56:44Z</time>
      </trkpt>
      <trkpt lat="44.84649" lon="4.61637">
        <ele>536.4</ele>
        <time>2019-11-09T08:56:49Z</time>
      </trkpt>
      <trkpt lat="44.8465" lon="4.61638">
        <ele>536.6</ele>
        <time>2019-11-09T08:56:50Z</time>
      </trkpt>
      <trkpt lat="44.84656" lon="4.61647">
        <ele>537.6</ele>
        <time>2019-11-09T08:56:57Z</time>
      </trkpt>
      <trkpt lat="44.84657" lon="4.61649">
        <ele>537.8</ele>
        <time>2019-11-09T08:56:59Z</time>
      </trkpt>
      <trkpt lat="44.84659" lon="4.61653">
        <ele>538.6</ele>
        <time>2019-11-09T08:57:02Z</time>
      </trkpt>
      <trkpt lat="44.84665" lon="4.61659">
        <ele>539.6</ele>
        <time>2019-11-09T08:57:08Z</time>
      </trkpt>
      <trkpt lat="44.84673" lon="4.61667">
        <ele>540.4</ele>
        <time>2019-11-09T08:57:16Z</time>
      </trkpt>
      <trkpt lat="44.84675" lon="4.61669">
        <ele>540.6</ele>
        <time>2019-11-09T08:57:18Z</time>
      </trkpt>
      <trkpt lat="44.8468" lon="4.61674">
        <ele>541.4</ele>
        <time>2019-11-09T08:57:23Z</time>
      </trkpt>
      <trkpt lat="44.84682" lon="4.61675">
        <ele>541.8</ele>
        <time>2019-11-09T08:57:25Z</time>
      </trkpt>
      <trkpt lat="44.84684" lon="4.61676">
        <ele>542.2</ele>
        <time>2019-11-09T08:57:27Z</time>
      </trkpt>
      <trkpt lat="44.84685" lon="4.61677">
        <ele>542.4</ele>
        <time>2019-11-09T08:57:28Z</time>
      </trkpt>
      <trkpt lat="44.84689" lon="4.6168">
        <ele>542.8</ele>
        <time>2019-11-09T08:57:32Z</time>
      </trkpt>
      <trkpt lat="44.84692" lon="4.61684">
        <ele>543.6</ele>
        <time>2019-11-09T08:57:36Z</time>
      </trkpt>
      <trkpt lat="44.84694" lon="4.61686">
        <ele>544</ele>
        <time>2019-11-09T08:57:38Z</time>
      </trkpt>
      <trkpt lat="44.847" lon="4.61692">
        <ele>544.8</ele>
        <time>2019-11-09T08:57:44Z</time>
      </trkpt>
      <trkpt lat="44.84702" lon="4.61694">
        <ele>545.2</ele>
        <time>2019-11-09T08:57:46Z</time>
      </trkpt>
      <trkpt lat="44.84707" lon="4.61697">
        <ele>546.4</ele>
        <time>2019-11-09T08:57:51Z</time>
      </trkpt>
      <trkpt lat="44.84711" lon="4.61693">
        <ele>547.2</ele>
        <time>2019-11-09T08:57:56Z</time>
      </trkpt>
      <trkpt lat="44.84712" lon="4.61691">
        <ele>547.4</ele>
        <time>2019-11-09T08:57:57Z</time>
      </trkpt>
      <trkpt lat="44.84712" lon="4.61689">
        <ele>547.6</ele>
        <time>2019-11-09T08:57:58Z</time>
      </trkpt>
      <trkpt lat="44.84714" lon="4.61679">
        <ele>547.8</ele>
        <time>2019-11-09T08:58:05Z</time>
      </trkpt>
      <trkpt lat="44.84716" lon="4.61671">
        <ele>548.4</ele>
        <time>2019-11-09T08:58:10Z</time>
      </trkpt>
      <trkpt lat="44.84718" lon="4.61666">
        <ele>549</ele>
        <time>2019-11-09T08:58:13Z</time>
      </trkpt>
      <trkpt lat="44.84722" lon="4.61659">
        <ele>549.6</ele>
        <time>2019-11-09T08:58:18Z</time>
      </trkpt>
      <trkpt lat="44.84722" lon="4.61658">
        <ele>549.8</ele>
        <time>2019-11-09T08:58:19Z</time>
      </trkpt>
      <trkpt lat="44.8473" lon="4.61652">
        <ele>550.6</ele>
        <time>2019-11-09T08:58:26Z</time>
      </trkpt>
      <trkpt lat="44.84731" lon="4.61651">
        <ele>550.6</ele>
        <time>2019-11-09T08:58:27Z</time>
      </trkpt>
      <trkpt lat="44.84739" lon="4.61647">
        <ele>551.2</ele>
        <time>2019-11-09T08:58:34Z</time>
      </trkpt>
      <trkpt lat="44.84745" lon="4.61645">
        <ele>551.8</ele>
        <time>2019-11-09T08:58:39Z</time>
      </trkpt>
      <trkpt lat="44.84747" lon="4.61645">
        <ele>552</ele>
        <time>2019-11-09T08:58:41Z</time>
      </trkpt>
      <trkpt lat="44.84759" lon="4.61642">
        <ele>552.6</ele>
        <time>2019-11-09T08:58:50Z</time>
      </trkpt>
      <trkpt lat="44.84761" lon="4.61642">
        <ele>553</ele>
        <time>2019-11-09T08:58:52Z</time>
      </trkpt>
      <trkpt lat="44.84771" lon="4.61642">
        <ele>553.8</ele>
        <time>2019-11-09T08:58:59Z</time>
      </trkpt>
      <trkpt lat="44.84772" lon="4.61642">
        <ele>554</ele>
        <time>2019-11-09T08:59:00Z</time>
      </trkpt>
      <trkpt lat="44.84775" lon="4.61642">
        <ele>554.4</ele>
        <time>2019-11-09T08:59:03Z</time>
      </trkpt>
      <trkpt lat="44.84781" lon="4.61645">
        <ele>554.8</ele>
        <time>2019-11-09T08:59:08Z</time>
      </trkpt>
      <trkpt lat="44.84783" lon="4.61646">
        <ele>555.4</ele>
        <time>2019-11-09T08:59:10Z</time>
      </trkpt>
      <trkpt lat="44.84787" lon="4.61649">
        <ele>556.6</ele>
        <time>2019-11-09T08:59:15Z</time>
      </trkpt>
      <trkpt lat="44.84793" lon="4.61653">
        <ele>557.6</ele>
        <time>2019-11-09T08:59:20Z</time>
      </trkpt>
      <trkpt lat="44.84796" lon="4.61655">
        <ele>558.2</ele>
        <time>2019-11-09T08:59:23Z</time>
      </trkpt>
      <trkpt lat="44.848" lon="4.61658">
        <ele>558.6</ele>
        <time>2019-11-09T08:59:27Z</time>
      </trkpt>
      <trkpt lat="44.84805" lon="4.6166">
        <ele>559.2</ele>
        <time>2019-11-09T08:59:32Z</time>
      </trkpt>
      <trkpt lat="44.84809" lon="4.61661">
        <ele>559.8</ele>
        <time>2019-11-09T08:59:36Z</time>
      </trkpt>
      <trkpt lat="44.84814" lon="4.61663">
        <ele>560.8</ele>
        <time>2019-11-09T08:59:41Z</time>
      </trkpt>
      <trkpt lat="44.84819" lon="4.61662">
        <ele>561.6</ele>
        <time>2019-11-09T08:59:46Z</time>
      </trkpt>
      <trkpt lat="44.84821" lon="4.61661">
        <ele>561.6</ele>
        <time>2019-11-09T08:59:48Z</time>
      </trkpt>
      <trkpt lat="44.84824" lon="4.61661">
        <ele>562</ele>
        <time>2019-11-09T08:59:50Z</time>
      </trkpt>
      <trkpt lat="44.84832" lon="4.61657">
        <ele>562.8</ele>
        <time>2019-11-09T08:59:57Z</time>
      </trkpt>
      <trkpt lat="44.84833" lon="4.61657">
        <ele>563</ele>
        <time>2019-11-09T08:59:58Z</time>
      </trkpt>
      <trkpt lat="44.84841" lon="4.61653">
        <ele>564.2</ele>
        <time>2019-11-09T09:00:05Z</time>
      </trkpt>
      <trkpt lat="44.84842" lon="4.61652">
        <ele>564.4</ele>
        <time>2019-11-09T09:00:06Z</time>
      </trkpt>
      <trkpt lat="44.84848" lon="4.61649">
        <ele>565.2</ele>
        <time>2019-11-09T09:00:11Z</time>
      </trkpt>
      <trkpt lat="44.84853" lon="4.61645">
        <ele>565.8</ele>
        <time>2019-11-09T09:00:16Z</time>
      </trkpt>
      <trkpt lat="44.84861" lon="4.61642">
        <ele>566.4</ele>
        <time>2019-11-09T09:00:23Z</time>
      </trkpt>
      <trkpt lat="44.84862" lon="4.61642">
        <ele>566.4</ele>
        <time>2019-11-09T09:00:24Z</time>
      </trkpt>
      <trkpt lat="44.8487" lon="4.61631">
        <ele>567.6</ele>
        <time>2019-11-09T09:00:33Z</time>
      </trkpt>
      <trkpt lat="44.84875" lon="4.61632">
        <ele>568.8</ele>
        <time>2019-11-09T09:00:38Z</time>
      </trkpt>
      <trkpt lat="44.84875" lon="4.61633">
        <ele>569</ele>
        <time>2019-11-09T09:00:39Z</time>
      </trkpt>
      <trkpt lat="44.84874" lon="4.6164">
        <ele>569.8</ele>
        <time>2019-11-09T09:00:44Z</time>
      </trkpt>
      <trkpt lat="44.84874" lon="4.61642">
        <ele>570</ele>
        <time>2019-11-09T09:00:45Z</time>
      </trkpt>
      <trkpt lat="44.8487" lon="4.6165">
        <ele>570.8</ele>
        <time>2019-11-09T09:00:51Z</time>
      </trkpt>
      <trkpt lat="44.84869" lon="4.61651">
        <ele>571</ele>
        <time>2019-11-09T09:00:52Z</time>
      </trkpt>
      <trkpt lat="44.84866" lon="4.61661">
        <ele>571.6</ele>
        <time>2019-11-09T09:00:58Z</time>
      </trkpt>
      <trkpt lat="44.84865" lon="4.61664">
        <ele>572</ele>
        <time>2019-11-09T09:01:00Z</time>
      </trkpt>
      <trkpt lat="44.84859" lon="4.61672">
        <ele>573</ele>
        <time>2019-11-09T09:01:05Z</time>
      </trkpt>
      <trkpt lat="44.84858" lon="4.61673">
        <ele>573.2</ele>
        <time>2019-11-09T09:01:06Z</time>
      </trkpt>
      <trkpt lat="44.84854" lon="4.61683">
        <ele>574</ele>
        <time>2019-11-09T09:01:12Z</time>
      </trkpt>
      <trkpt lat="44.84853" lon="4.61685">
        <ele>574.2</ele>
        <time>2019-11-09T09:01:13Z</time>
      </trkpt>
      <trkpt lat="44.84848" lon="4.61695">
        <ele>575.4</ele>
        <time>2019-11-09T09:01:20Z</time>
      </trkpt>
      <trkpt lat="44.84844" lon="4.61704">
        <ele>576.4</ele>
        <time>2019-11-09T09:01:26Z</time>
      </trkpt>
      <trkpt lat="44.84843" lon="4.61707">
        <ele>577</ele>
        <time>2019-11-09T09:01:29Z</time>
      </trkpt>
      <trkpt lat="44.8484" lon="4.6172">
        <ele>577.6</ele>
        <time>2019-11-09T09:01:36Z</time>
      </trkpt>
      <trkpt lat="44.84839" lon="4.61724">
        <ele>577.8</ele>
        <time>2019-11-09T09:01:38Z</time>
      </trkpt>
      <trkpt lat="44.84839" lon="4.61734">
        <ele>578.6</ele>
        <time>2019-11-09T09:01:43Z</time>
      </trkpt>
      <trkpt lat="44.84839" lon="4.61745">
        <ele>579</ele>
        <time>2019-11-09T09:01:48Z</time>
      </trkpt>
      <trkpt lat="44.8484" lon="4.61764">
        <ele>579.6</ele>
        <time>2019-11-09T09:01:57Z</time>
      </trkpt>
      <trkpt lat="44.84845" lon="4.61785">
        <ele>580.6</ele>
        <time>2019-11-09T09:02:07Z</time>
      </trkpt>
      <trkpt lat="44.84851" lon="4.61801">
        <ele>581.8</ele>
        <time>2019-11-09T09:02:16Z</time>
      </trkpt>
      <trkpt lat="44.84851" lon="4.61803">
        <ele>582</ele>
        <time>2019-11-09T09:02:17Z</time>
      </trkpt>
      <trkpt lat="44.84854" lon="4.61811">
        <ele>582.8</ele>
        <time>2019-11-09T09:02:22Z</time>
      </trkpt>
      <trkpt lat="44.84857" lon="4.6182">
        <ele>583.4</ele>
        <time>2019-11-09T09:02:27Z</time>
      </trkpt>
      <trkpt lat="44.84858" lon="4.61822">
        <ele>583.6</ele>
        <time>2019-11-09T09:02:28Z</time>
      </trkpt>
      <trkpt lat="44.8486" lon="4.61827">
        <ele>583.8</ele>
        <time>2019-11-09T09:02:31Z</time>
      </trkpt>
      <trkpt lat="44.84862" lon="4.61836">
        <ele>585</ele>
        <time>2019-11-09T09:02:36Z</time>
      </trkpt>
      <trkpt lat="44.84865" lon="4.61845">
        <ele>586.2</ele>
        <time>2019-11-09T09:02:41Z</time>
      </trkpt>
      <trkpt lat="44.84866" lon="4.61851">
        <ele>586.8</ele>
        <time>2019-11-09T09:02:45Z</time>
      </trkpt>
      <trkpt lat="44.84866" lon="4.61855">
        <ele>587.2</ele>
        <time>2019-11-09T09:02:47Z</time>
      </trkpt>
      <trkpt lat="44.84867" lon="4.61864">
        <ele>588.2</ele>
        <time>2019-11-09T09:02:52Z</time>
      </trkpt>
      <trkpt lat="44.84867" lon="4.61869">
        <ele>588.6</ele>
        <time>2019-11-09T09:02:55Z</time>
      </trkpt>
      <trkpt lat="44.84867" lon="4.6188">
        <ele>589.2</ele>
        <time>2019-11-09T09:03:00Z</time>
      </trkpt>
      <trkpt lat="44.84867" lon="4.61892">
        <ele>589.8</ele>
        <time>2019-11-09T09:03:05Z</time>
      </trkpt>
      <trkpt lat="44.84865" lon="4.61909">
        <ele>590.2</ele>
        <time>2019-11-09T09:03:13Z</time>
      </trkpt>
      <trkpt lat="44.84864" lon="4.61916">
        <ele>590.8</ele>
        <time>2019-11-09T09:03:16Z</time>
      </trkpt>
      <trkpt lat="44.84864" lon="4.61921">
        <ele>591.6</ele>
        <time>2019-11-09T09:03:19Z</time>
      </trkpt>
      <trkpt lat="44.84866" lon="4.61925">
        <ele>592</ele>
        <time>2019-11-09T09:03:23Z</time>
      </trkpt>
      <trkpt lat="44.84867" lon="4.61927">
        <ele>592.2</ele>
        <time>2019-11-09T09:03:25Z</time>
      </trkpt>
      <trkpt lat="44.84867" lon="4.6193">
        <ele>592.4</ele>
        <time>2019-11-09T09:03:27Z</time>
      </trkpt>
      <trkpt lat="44.84867" lon="4.61931">
        <ele>592.2</ele>
        <time>2019-11-09T09:03:28Z</time>
      </trkpt>
      <trkpt lat="44.84867" lon="4.61932">
        <ele>592.2</ele>
        <time>2019-11-09T09:03:29Z</time>
      </trkpt>
      <trkpt lat="44.84869" lon="4.6194">
        <ele>591.8</ele>
        <time>2019-11-09T09:03:33Z</time>
      </trkpt>
      <trkpt lat="44.84867" lon="4.61943">
        <ele>592</ele>
        <time>2019-11-09T09:03:37Z</time>
      </trkpt>
      <trkpt lat="44.84867" lon="4.61944">
        <ele>592</ele>
        <time>2019-11-09T09:03:44Z</time>
      </trkpt>
      <trkpt lat="44.84866" lon="4.61946">
        <ele>591.2</ele>
        <time>2019-11-09T09:03:52Z</time>
      </trkpt>
      <trkpt lat="44.84866" lon="4.61946">
        <ele>591.2</ele>
        <time>2019-11-09T09:04:01Z</time>
      </trkpt>
      <trkpt lat="44.84866" lon="4.61946">
        <ele>591.2</ele>
        <time>2019-11-09T09:04:04Z</time>
      </trkpt>
      <trkpt lat="44.84866" lon="4.61946">
        <ele>591.4</ele>
        <time>2019-11-09T09:04:05Z</time>
      </trkpt>
      <trkpt lat="44.84866" lon="4.61946">
        <ele>591.4</ele>
        <time>2019-11-09T09:04:07Z</time>
      </trkpt>
      <trkpt lat="44.84866" lon="4.61946">
        <ele>591.4</ele>
        <time>2019-11-09T09:04:16Z</time>
      </trkpt>
      <trkpt lat="44.84866" lon="4.61946">
        <ele>591.4</ele>
        <time>2019-11-09T09:04:19Z</time>
      </trkpt>
      <trkpt lat="44.84866" lon="4.61946">
        <ele>591.6</ele>
        <time>2019-11-09T09:04:31Z</time>
      </trkpt>
      <trkpt lat="44.84865" lon="4.61944">
        <ele>592.2</ele>
        <time>2019-11-09T09:04:46Z</time>
      </trkpt>
      <trkpt lat="44.84865" lon="4.61944">
        <ele>592.2</ele>
        <time>2019-11-09T09:04:49Z</time>
      </trkpt>
      <trkpt lat="44.84865" lon="4.61944">
        <ele>592.2</ele>
        <time>2019-11-09T09:04:59Z</time>
      </trkpt>
      <trkpt lat="44.84866" lon="4.61945">
        <ele>592.2</ele>
        <time>2019-11-09T09:05:06Z</time>
      </trkpt>
      <trkpt lat="44.84865" lon="4.61944">
        <ele>592.2</ele>
        <time>2019-11-09T09:05:12Z</time>
      </trkpt>
      <trkpt lat="44.84865" lon="4.61944">
        <ele>592.2</ele>
        <time>2019-11-09T09:05:15Z</time>
      </trkpt>
      <trkpt lat="44.84865" lon="4.61944">
        <ele>592.2</ele>
        <time>2019-11-09T09:05:42Z</time>
      </trkpt>
      <trkpt lat="44.84865" lon="4.61944">
        <ele>592.2</ele>
        <time>2019-11-09T09:05:51Z</time>
      </trkpt>
      <trkpt lat="44.84865" lon="4.61944">
        <ele>592.2</ele>
        <time>2019-11-09T09:06:02Z</time>
      </trkpt>
      <trkpt lat="44.84865" lon="4.61944">
        <ele>592.2</ele>
        <time>2019-11-09T09:06:09Z</time>
      </trkpt>
      <trkpt lat="44.84865" lon="4.61944">
        <ele>592.2</ele>
        <time>2019-11-09T09:06:18Z</time>
      </trkpt>
      <trkpt lat="44.84865" lon="4.61944">
        <ele>592.2</ele>
        <time>2019-11-09T09:06:24Z</time>
      </trkpt>
      <trkpt lat="44.84865" lon="4.61944">
        <ele>592.2</ele>
        <time>2019-11-09T09:06:31Z</time>
      </trkpt>
      <trkpt lat="44.84865" lon="4.61944">
        <ele>592.2</ele>
        <time>2019-11-09T09:06:33Z</time>
      </trkpt>
      <trkpt lat="44.84865" lon="4.61944">
        <ele>592.2</ele>
        <time>2019-11-09T09:06:41Z</time>
      </trkpt>
      <trkpt lat="44.84865" lon="4.61944">
        <ele>592.2</ele>
        <time>2019-11-09T09:06:44Z</time>
      </trkpt>
      <trkpt lat="44.84865" lon="4.61944">
        <ele>592.2</ele>
        <time>2019-11-09T09:06:50Z</time>
      </trkpt>
      <trkpt lat="44.84865" lon="4.61944">
        <ele>592.2</ele>
        <time>2019-11-09T09:06:53Z</time>
      </trkpt>
      <trkpt lat="44.84865" lon="4.61944">
        <ele>592.2</ele>
        <time>2019-11-09T09:06:55Z</time>
      </trkpt>
      <trkpt lat="44.84865" lon="4.61945">
        <ele>592.2</ele>
        <time>2019-11-09T09:06:57Z</time>
      </trkpt>
      <trkpt lat="44.84865" lon="4.61945">
        <ele>592.2</ele>
        <time>2019-11-09T09:07:00Z</time>
      </trkpt>
      <trkpt lat="44.84865" lon="4.61945">
        <ele>592.2</ele>
        <time>2019-11-09T09:07:01Z</time>
      </trkpt>
      <trkpt lat="44.84865" lon="4.61945">
        <ele>592.2</ele>
        <time>2019-11-09T09:07:03Z</time>
      </trkpt>
      <trkpt lat="44.84865" lon="4.61945">
        <ele>592.2</ele>
        <time>2019-11-09T09:07:06Z</time>
      </trkpt>
      <trkpt lat="44.84865" lon="4.61946">
        <ele>592.2</ele>
        <time>2019-11-09T09:07:19Z</time>
      </trkpt>
      <trkpt lat="44.84865" lon="4.61946">
        <ele>592.2</ele>
        <time>2019-11-09T09:07:22Z</time>
      </trkpt>
      <trkpt lat="44.84866" lon="4.61947">
        <ele>592.2</ele>
        <time>2019-11-09T09:07:27Z</time>
      </trkpt>
      <trkpt lat="44.84866" lon="4.61948">
        <ele>592.2</ele>
        <time>2019-11-09T09:07:30Z</time>
      </trkpt>
      <trkpt lat="44.84866" lon="4.61948">
        <ele>592.2</ele>
        <time>2019-11-09T09:07:33Z</time>
      </trkpt>
      <trkpt lat="44.84866" lon="4.61948">
        <ele>592.2</ele>
        <time>2019-11-09T09:07:34Z</time>
      </trkpt>
      <trkpt lat="44.84866" lon="4.61948">
        <ele>592.2</ele>
        <time>2019-11-09T09:07:39Z</time>
      </trkpt>
      <trkpt lat="44.84867" lon="4.61948">
        <ele>592.2</ele>
        <time>2019-11-09T09:07:50Z</time>
      </trkpt>
      <trkpt lat="44.84866" lon="4.61949">
        <ele>592.2</ele>
        <time>2019-11-09T09:07:51Z</time>
      </trkpt>
      <trkpt lat="44.84866" lon="4.61956">
        <ele>592.4</ele>
        <time>2019-11-09T09:07:55Z</time>
      </trkpt>
      <trkpt lat="44.84866" lon="4.61959">
        <ele>593</ele>
        <time>2019-11-09T09:07:56Z</time>
      </trkpt>
      <trkpt lat="44.84869" lon="4.61976">
        <ele>593.6</ele>
        <time>2019-11-09T09:08:01Z</time>
      </trkpt>
      <trkpt lat="44.8487" lon="4.61988">
        <ele>593</ele>
        <time>2019-11-09T09:08:04Z</time>
      </trkpt>
      <trkpt lat="44.84873" lon="4.62006">
        <ele>593</ele>
        <time>2019-11-09T09:08:08Z</time>
      </trkpt>
      <trkpt lat="44.84877" lon="4.62033">
        <ele>591.6</ele>
        <time>2019-11-09T09:08:13Z</time>
      </trkpt>
      <trkpt lat="44.84879" lon="4.62039">
        <ele>591.2</ele>
        <time>2019-11-09T09:08:14Z</time>
      </trkpt>
      <trkpt lat="44.84881" lon="4.62052">
        <ele>590.6</ele>
        <time>2019-11-09T09:08:16Z</time>
      </trkpt>
      <trkpt lat="44.84883" lon="4.62059">
        <ele>590.2</ele>
        <time>2019-11-09T09:08:17Z</time>
      </trkpt>
      <trkpt lat="44.84886" lon="4.62071">
        <ele>589.4</ele>
        <time>2019-11-09T09:08:19Z</time>
      </trkpt>
      <trkpt lat="44.84887" lon="4.62078">
        <ele>588.8</ele>
        <time>2019-11-09T09:08:20Z</time>
      </trkpt>
      <trkpt lat="44.84888" lon="4.62094">
        <ele>588.2</ele>
        <time>2019-11-09T09:08:22Z</time>
      </trkpt>
      <trkpt lat="44.84888" lon="4.62119">
        <ele>587.2</ele>
        <time>2019-11-09T09:08:25Z</time>
      </trkpt>
      <trkpt lat="44.84888" lon="4.62127">
        <ele>586.6</ele>
        <time>2019-11-09T09:08:26Z</time>
      </trkpt>
      <trkpt lat="44.84889" lon="4.62136">
        <ele>586.2</ele>
        <time>2019-11-09T09:08:27Z</time>
      </trkpt>
      <trkpt lat="44.84888" lon="4.62154">
        <ele>585.6</ele>
        <time>2019-11-09T09:08:29Z</time>
      </trkpt>
      <trkpt lat="44.84884" lon="4.6217">
        <ele>585.4</ele>
        <time>2019-11-09T09:08:31Z</time>
      </trkpt>
      <trkpt lat="44.8488" lon="4.6219">
        <ele>584.8</ele>
        <time>2019-11-09T09:08:33Z</time>
      </trkpt>
      <trkpt lat="44.8488" lon="4.622">
        <ele>584.4</ele>
        <time>2019-11-09T09:08:34Z</time>
      </trkpt>
      <trkpt lat="44.84881" lon="4.62207">
        <ele>584.2</ele>
        <time>2019-11-09T09:08:35Z</time>
      </trkpt>
      <trkpt lat="44.84883" lon="4.62229">
        <ele>585.2</ele>
        <time>2019-11-09T09:08:39Z</time>
      </trkpt>
      <trkpt lat="44.84883" lon="4.62232">
        <ele>586.2</ele>
        <time>2019-11-09T09:08:40Z</time>
      </trkpt>
      <trkpt lat="44.84885" lon="4.62232">
        <ele>587.2</ele>
        <time>2019-11-09T09:08:42Z</time>
      </trkpt>
      <trkpt lat="44.84886" lon="4.62233">
        <ele>587.6</ele>
        <time>2019-11-09T09:08:43Z</time>
      </trkpt>
      <trkpt lat="44.84886" lon="4.62242">
        <ele>587.8</ele>
        <time>2019-11-09T09:08:46Z</time>
      </trkpt>
      <trkpt lat="44.84886" lon="4.62245">
        <ele>587.8</ele>
        <time>2019-11-09T09:08:47Z</time>
      </trkpt>
      <trkpt lat="44.84884" lon="4.62258">
        <ele>588</ele>
        <time>2019-11-09T09:08:52Z</time>
      </trkpt>
      <trkpt lat="44.84882" lon="4.62266">
        <ele>588</ele>
        <time>2019-11-09T09:08:55Z</time>
      </trkpt>
      <trkpt lat="44.84881" lon="4.62269">
        <ele>588.2</ele>
        <time>2019-11-09T09:08:56Z</time>
      </trkpt>
      <trkpt lat="44.84878" lon="4.62279">
        <ele>588.8</ele>
        <time>2019-11-09T09:08:59Z</time>
      </trkpt>
      <trkpt lat="44.84876" lon="4.62284">
        <ele>589.2</ele>
        <time>2019-11-09T09:09:01Z</time>
      </trkpt>
      <trkpt lat="44.84876" lon="4.62287">
        <ele>589.4</ele>
        <time>2019-11-09T09:09:02Z</time>
      </trkpt>
      <trkpt lat="44.84875" lon="4.6229">
        <ele>589.6</ele>
        <time>2019-11-09T09:09:03Z</time>
      </trkpt>
      <trkpt lat="44.84872" lon="4.62301">
        <ele>590</ele>
        <time>2019-11-09T09:09:07Z</time>
      </trkpt>
      <trkpt lat="44.84871" lon="4.62306">
        <ele>590.4</ele>
        <time>2019-11-09T09:09:09Z</time>
      </trkpt>
      <trkpt lat="44.84867" lon="4.62312">
        <ele>590.8</ele>
        <time>2019-11-09T09:09:12Z</time>
      </trkpt>
      <trkpt lat="44.84865" lon="4.62313">
        <ele>591</ele>
        <time>2019-11-09T09:09:13Z</time>
      </trkpt>
      <trkpt lat="44.84861" lon="4.62314">
        <ele>591</ele>
        <time>2019-11-09T09:09:15Z</time>
      </trkpt>
      <trkpt lat="44.84859" lon="4.62314">
        <ele>591.2</ele>
        <time>2019-11-09T09:09:16Z</time>
      </trkpt>
      <trkpt lat="44.84857" lon="4.62314">
        <ele>591.2</ele>
        <time>2019-11-09T09:09:17Z</time>
      </trkpt>
      <trkpt lat="44.84853" lon="4.62314">
        <ele>591.4</ele>
        <time>2019-11-09T09:09:19Z</time>
      </trkpt>
      <trkpt lat="44.84851" lon="4.62314">
        <ele>591.6</ele>
        <time>2019-11-09T09:09:20Z</time>
      </trkpt>
      <trkpt lat="44.84841" lon="4.62315">
        <ele>592</ele>
        <time>2019-11-09T09:09:25Z</time>
      </trkpt>
      <trkpt lat="44.84832" lon="4.62315">
        <ele>592.6</ele>
        <time>2019-11-09T09:09:30Z</time>
      </trkpt>
      <trkpt lat="44.84829" lon="4.62315">
        <ele>592.6</ele>
        <time>2019-11-09T09:09:32Z</time>
      </trkpt>
      <trkpt lat="44.84819" lon="4.62311">
        <ele>593.2</ele>
        <time>2019-11-09T09:09:39Z</time>
      </trkpt>
      <trkpt lat="44.84813" lon="4.6231">
        <ele>593.6</ele>
        <time>2019-11-09T09:09:43Z</time>
      </trkpt>
      <trkpt lat="44.8481" lon="4.62309">
        <ele>594</ele>
        <time>2019-11-09T09:09:45Z</time>
      </trkpt>
      <trkpt lat="44.84798" lon="4.62302">
        <ele>594.8</ele>
        <time>2019-11-09T09:09:52Z</time>
      </trkpt>
      <trkpt lat="44.84795" lon="4.62299">
        <ele>595</ele>
        <time>2019-11-09T09:09:54Z</time>
      </trkpt>
      <trkpt lat="44.84788" lon="4.62296">
        <ele>595.4</ele>
        <time>2019-11-09T09:09:58Z</time>
      </trkpt>
      <trkpt lat="44.84782" lon="4.62293">
        <ele>596</ele>
        <time>2019-11-09T09:10:01Z</time>
      </trkpt>
      <trkpt lat="44.84781" lon="4.62292">
        <ele>596</ele>
        <time>2019-11-09T09:10:02Z</time>
      </trkpt>
      <trkpt lat="44.84774" lon="4.6229">
        <ele>597</ele>
        <time>2019-11-09T09:10:06Z</time>
      </trkpt>
      <trkpt lat="44.84766" lon="4.6229">
        <ele>598</ele>
        <time>2019-11-09T09:10:10Z</time>
      </trkpt>
      <trkpt lat="44.84764" lon="4.6229">
        <ele>598</ele>
        <time>2019-11-09T09:10:11Z</time>
      </trkpt>
      <trkpt lat="44.84758" lon="4.62291">
        <ele>598.4</ele>
        <time>2019-11-09T09:10:16Z</time>
      </trkpt>
      <trkpt lat="44.84756" lon="4.62293">
        <ele>598.4</ele>
        <time>2019-11-09T09:10:18Z</time>
      </trkpt>
      <trkpt lat="44.84752" lon="4.62298">
        <ele>599</ele>
        <time>2019-11-09T09:10:22Z</time>
      </trkpt>
      <trkpt lat="44.8475" lon="4.62299">
        <ele>599.2</ele>
        <time>2019-11-09T09:10:23Z</time>
      </trkpt>
      <trkpt lat="44.84745" lon="4.62312">
        <ele>599.6</ele>
        <time>2019-11-09T09:10:29Z</time>
      </trkpt>
      <trkpt lat="44.84742" lon="4.62319">
        <ele>600.2</ele>
        <time>2019-11-09T09:10:33Z</time>
      </trkpt>
      <trkpt lat="44.84741" lon="4.62323">
        <ele>600.6</ele>
        <time>2019-11-09T09:10:35Z</time>
      </trkpt>
      <trkpt lat="44.84741" lon="4.62325">
        <ele>600.6</ele>
        <time>2019-11-09T09:10:36Z</time>
      </trkpt>
      <trkpt lat="44.84739" lon="4.62336">
        <ele>601.4</ele>
        <time>2019-11-09T09:10:41Z</time>
      </trkpt>
      <trkpt lat="44.84738" lon="4.62339">
        <ele>601.6</ele>
        <time>2019-11-09T09:10:43Z</time>
      </trkpt>
      <trkpt lat="44.84736" lon="4.62344">
        <ele>602</ele>
        <time>2019-11-09T09:10:47Z</time>
      </trkpt>
      <trkpt lat="44.84734" lon="4.62349">
        <ele>602.4</ele>
        <time>2019-11-09T09:10:49Z</time>
      </trkpt>
      <trkpt lat="44.8473" lon="4.62361">
        <ele>603</ele>
        <time>2019-11-09T09:10:55Z</time>
      </trkpt>
      <trkpt lat="44.84728" lon="4.62366">
        <ele>603.6</ele>
        <time>2019-11-09T09:10:57Z</time>
      </trkpt>
      <trkpt lat="44.84727" lon="4.62373">
        <ele>604.2</ele>
        <time>2019-11-09T09:11:00Z</time>
      </trkpt>
      <trkpt lat="44.84724" lon="4.62378">
        <ele>604.6</ele>
        <time>2019-11-09T09:11:03Z</time>
      </trkpt>
      <trkpt lat="44.8472" lon="4.62387">
        <ele>605.8</ele>
        <time>2019-11-09T09:11:08Z</time>
      </trkpt>
      <trkpt lat="44.84716" lon="4.62396">
        <ele>606.8</ele>
        <time>2019-11-09T09:11:14Z</time>
      </trkpt>
      <trkpt lat="44.84715" lon="4.62397">
        <ele>606.8</ele>
        <time>2019-11-09T09:11:15Z</time>
      </trkpt>
      <trkpt lat="44.84708" lon="4.6241">
        <ele>607.6</ele>
        <time>2019-11-09T09:11:23Z</time>
      </trkpt>
      <trkpt lat="44.84705" lon="4.62412">
        <ele>608</ele>
        <time>2019-11-09T09:11:25Z</time>
      </trkpt>
      <trkpt lat="44.84701" lon="4.62417">
        <ele>608.2</ele>
        <time>2019-11-09T09:11:29Z</time>
      </trkpt>
      <trkpt lat="44.8469" lon="4.62423">
        <ele>609</ele>
        <time>2019-11-09T09:11:37Z</time>
      </trkpt>
      <trkpt lat="44.84685" lon="4.62424">
        <ele>609</ele>
        <time>2019-11-09T09:11:40Z</time>
      </trkpt>
      <trkpt lat="44.84678" lon="4.62426">
        <ele>609.8</ele>
        <time>2019-11-09T09:11:45Z</time>
      </trkpt>
      <trkpt lat="44.84677" lon="4.62426">
        <ele>609.8</ele>
        <time>2019-11-09T09:11:46Z</time>
      </trkpt>
      <trkpt lat="44.84674" lon="4.62427">
        <ele>610.2</ele>
        <time>2019-11-09T09:11:48Z</time>
      </trkpt>
      <trkpt lat="44.84665" lon="4.62429">
        <ele>611</ele>
        <time>2019-11-09T09:11:55Z</time>
      </trkpt>
      <trkpt lat="44.84664" lon="4.6243">
        <ele>611.2</ele>
        <time>2019-11-09T09:11:56Z</time>
      </trkpt>
      <trkpt lat="44.84656" lon="4.62435">
        <ele>612</ele>
        <time>2019-11-09T09:12:02Z</time>
      </trkpt>
      <trkpt lat="44.84653" lon="4.62438">
        <ele>612.2</ele>
        <time>2019-11-09T09:12:04Z</time>
      </trkpt>
      <trkpt lat="44.84648" lon="4.62441">
        <ele>612.8</ele>
        <time>2019-11-09T09:12:08Z</time>
      </trkpt>
      <trkpt lat="44.84646" lon="4.62443">
        <ele>613.4</ele>
        <time>2019-11-09T09:12:10Z</time>
      </trkpt>
      <trkpt lat="44.84642" lon="4.62444">
        <ele>614</ele>
        <time>2019-11-09T09:12:13Z</time>
      </trkpt>
      <trkpt lat="44.84641" lon="4.62445">
        <ele>614</ele>
        <time>2019-11-09T09:12:14Z</time>
      </trkpt>
      <trkpt lat="44.8464" lon="4.62445">
        <ele>614.4</ele>
        <time>2019-11-09T09:12:15Z</time>
      </trkpt>
      <trkpt lat="44.84639" lon="4.62446">
        <ele>614.8</ele>
        <time>2019-11-09T09:12:16Z</time>
      </trkpt>
      <trkpt lat="44.84635" lon="4.6245">
        <ele>615.6</ele>
        <time>2019-11-09T09:12:20Z</time>
      </trkpt>
      <trkpt lat="44.84634" lon="4.62452">
        <ele>615.8</ele>
        <time>2019-11-09T09:12:21Z</time>
      </trkpt>
      <trkpt lat="44.84633" lon="4.62454">
        <ele>616</ele>
        <time>2019-11-09T09:12:23Z</time>
      </trkpt>
      <trkpt lat="44.84631" lon="4.62455">
        <ele>616.2</ele>
        <time>2019-11-09T09:12:24Z</time>
      </trkpt>
      <trkpt lat="44.84631" lon="4.62456">
        <ele>616.4</ele>
        <time>2019-11-09T09:12:25Z</time>
      </trkpt>
      <trkpt lat="44.84629" lon="4.6246">
        <ele>616.8</ele>
        <time>2019-11-09T09:12:27Z</time>
      </trkpt>
      <trkpt lat="44.84628" lon="4.62462">
        <ele>617</ele>
        <time>2019-11-09T09:12:28Z</time>
      </trkpt>
      <trkpt lat="44.8462" lon="4.62473">
        <ele>617.8</ele>
        <time>2019-11-09T09:12:36Z</time>
      </trkpt>
      <trkpt lat="44.84612" lon="4.62477">
        <ele>618.6</ele>
        <time>2019-11-09T09:12:42Z</time>
      </trkpt>
      <trkpt lat="44.84608" lon="4.62479">
        <ele>618.6</ele>
        <time>2019-11-09T09:12:44Z</time>
      </trkpt>
      <trkpt lat="44.84603" lon="4.62486">
        <ele>618.6</ele>
        <time>2019-11-09T09:12:48Z</time>
      </trkpt>
      <trkpt lat="44.84601" lon="4.62485">
        <ele>618.6</ele>
        <time>2019-11-09T09:12:49Z</time>
      </trkpt>
      <trkpt lat="44.84597" lon="4.6249">
        <ele>618.8</ele>
        <time>2019-11-09T09:12:53Z</time>
      </trkpt>
      <trkpt lat="44.84592" lon="4.62501">
        <ele>618.8</ele>
        <time>2019-11-09T09:12:58Z</time>
      </trkpt>
      <trkpt lat="44.8459" lon="4.62505">
        <ele>619</ele>
        <time>2019-11-09T09:13:00Z</time>
      </trkpt>
      <trkpt lat="44.84583" lon="4.62515">
        <ele>619.2</ele>
        <time>2019-11-09T09:13:05Z</time>
      </trkpt>
      <trkpt lat="44.84576" lon="4.62526">
        <ele>618.8</ele>
        <time>2019-11-09T09:13:10Z</time>
      </trkpt>
      <trkpt lat="44.84567" lon="4.62543">
        <ele>619.2</ele>
        <time>2019-11-09T09:13:17Z</time>
      </trkpt>
      <trkpt lat="44.84559" lon="4.62555">
        <ele>619.2</ele>
        <time>2019-11-09T09:13:23Z</time>
      </trkpt>
      <trkpt lat="44.8455" lon="4.6256">
        <ele>619.8</ele>
        <time>2019-11-09T09:13:28Z</time>
      </trkpt>
      <trkpt lat="44.84548" lon="4.6256">
        <ele>620</ele>
        <time>2019-11-09T09:13:29Z</time>
      </trkpt>
      <trkpt lat="44.84545" lon="4.62562">
        <ele>620.4</ele>
        <time>2019-11-09T09:13:31Z</time>
      </trkpt>
      <trkpt lat="44.84535" lon="4.62563">
        <ele>621</ele>
        <time>2019-11-09T09:13:36Z</time>
      </trkpt>
      <trkpt lat="44.84533" lon="4.62564">
        <ele>621.2</ele>
        <time>2019-11-09T09:13:37Z</time>
      </trkpt>
      <trkpt lat="44.84517" lon="4.62565">
        <ele>621</ele>
        <time>2019-11-09T09:13:44Z</time>
      </trkpt>
      <trkpt lat="44.84504" lon="4.62561">
        <ele>621.2</ele>
        <time>2019-11-09T09:13:50Z</time>
      </trkpt>
      <trkpt lat="44.84496" lon="4.62557">
        <ele>621.8</ele>
        <time>2019-11-09T09:13:55Z</time>
      </trkpt>
      <trkpt lat="44.84494" lon="4.62557">
        <ele>621.8</ele>
        <time>2019-11-09T09:13:56Z</time>
      </trkpt>
      <trkpt lat="44.8448" lon="4.62554">
        <ele>622</ele>
        <time>2019-11-09T09:14:03Z</time>
      </trkpt>
      <trkpt lat="44.84478" lon="4.62555">
        <ele>622.2</ele>
        <time>2019-11-09T09:14:04Z</time>
      </trkpt>
      <trkpt lat="44.84468" lon="4.62563">
        <ele>622.8</ele>
        <time>2019-11-09T09:14:10Z</time>
      </trkpt>
      <trkpt lat="44.84459" lon="4.62571">
        <ele>623.2</ele>
        <time>2019-11-09T09:14:15Z</time>
      </trkpt>
      <trkpt lat="44.84456" lon="4.62572">
        <ele>623.6</ele>
        <time>2019-11-09T09:14:17Z</time>
      </trkpt>
      <trkpt lat="44.84448" lon="4.6258">
        <ele>623.4</ele>
        <time>2019-11-09T09:14:22Z</time>
      </trkpt>
      <trkpt lat="44.84448" lon="4.62583">
        <ele>623.4</ele>
        <time>2019-11-09T09:14:23Z</time>
      </trkpt>
      <trkpt lat="44.84448" lon="4.62596">
        <ele>622.2</ele>
        <time>2019-11-09T09:14:27Z</time>
      </trkpt>
      <trkpt lat="44.84449" lon="4.62606">
        <ele>621.4</ele>
        <time>2019-11-09T09:14:29Z</time>
      </trkpt>
      <trkpt lat="44.84449" lon="4.62613">
        <ele>620.8</ele>
        <time>2019-11-09T09:14:30Z</time>
      </trkpt>
      <trkpt lat="44.84449" lon="4.62628">
        <ele>620.2</ele>
        <time>2019-11-09T09:14:32Z</time>
      </trkpt>
      <trkpt lat="44.84451" lon="4.62637">
        <ele>619.8</ele>
        <time>2019-11-09T09:14:33Z</time>
      </trkpt>
      <trkpt lat="44.84454" lon="4.62647">
        <ele>618.6</ele>
        <time>2019-11-09T09:14:34Z</time>
      </trkpt>
      <trkpt lat="44.84457" lon="4.62658">
        <ele>617.4</ele>
        <time>2019-11-09T09:14:35Z</time>
      </trkpt>
      <trkpt lat="44.84461" lon="4.62669">
        <ele>616.2</ele>
        <time>2019-11-09T09:14:36Z</time>
      </trkpt>
      <trkpt lat="44.84466" lon="4.62677">
        <ele>614.8</ele>
        <time>2019-11-09T09:14:37Z</time>
      </trkpt>
      <trkpt lat="44.84471" lon="4.62684">
        <ele>613.8</ele>
        <time>2019-11-09T09:14:38Z</time>
      </trkpt>
      <trkpt lat="44.8448" lon="4.627">
        <ele>612.6</ele>
        <time>2019-11-09T09:14:40Z</time>
      </trkpt>
      <trkpt lat="44.84483" lon="4.62709">
        <ele>612.4</ele>
        <time>2019-11-09T09:14:41Z</time>
      </trkpt>
      <trkpt lat="44.84486" lon="4.62718">
        <ele>612.4</ele>
        <time>2019-11-09T09:14:42Z</time>
      </trkpt>
      <trkpt lat="44.84495" lon="4.62736">
        <ele>611.6</ele>
        <time>2019-11-09T09:14:45Z</time>
      </trkpt>
      <trkpt lat="44.84498" lon="4.62744">
        <ele>611.4</ele>
        <time>2019-11-09T09:14:46Z</time>
      </trkpt>
      <trkpt lat="44.84504" lon="4.6276">
        <ele>611.2</ele>
        <time>2019-11-09T09:14:48Z</time>
      </trkpt>
      <trkpt lat="44.84509" lon="4.62776">
        <ele>610.6</ele>
        <time>2019-11-09T09:14:50Z</time>
      </trkpt>
      <trkpt lat="44.84511" lon="4.62786">
        <ele>610.2</ele>
        <time>2019-11-09T09:14:51Z</time>
      </trkpt>
      <trkpt lat="44.84512" lon="4.62795">
        <ele>609.6</ele>
        <time>2019-11-09T09:14:52Z</time>
      </trkpt>
      <trkpt lat="44.84513" lon="4.62807">
        <ele>608.8</ele>
        <time>2019-11-09T09:14:53Z</time>
      </trkpt>
      <trkpt lat="44.84517" lon="4.62825">
        <ele>608</ele>
        <time>2019-11-09T09:14:56Z</time>
      </trkpt>
      <trkpt lat="44.84519" lon="4.62833">
        <ele>607.8</ele>
        <time>2019-11-09T09:14:57Z</time>
      </trkpt>
      <trkpt lat="44.84529" lon="4.62873">
        <ele>608.4</ele>
        <time>2019-11-09T09:15:02Z</time>
      </trkpt>
      <trkpt lat="44.84537" lon="4.62895">
        <ele>608.4</ele>
        <time>2019-11-09T09:15:06Z</time>
      </trkpt>
      <trkpt lat="44.8454" lon="4.62901">
        <ele>609.2</ele>
        <time>2019-11-09T09:15:08Z</time>
      </trkpt>
      <trkpt lat="44.84547" lon="4.6291">
        <ele>610</ele>
        <time>2019-11-09T09:15:13Z</time>
      </trkpt>
      <trkpt lat="44.84548" lon="4.62911">
        <ele>610.4</ele>
        <time>2019-11-09T09:15:14Z</time>
      </trkpt>
      <trkpt lat="44.84556" lon="4.62919">
        <ele>611.2</ele>
        <time>2019-11-09T09:15:19Z</time>
      </trkpt>
      <trkpt lat="44.84559" lon="4.62921">
        <ele>611.4</ele>
        <time>2019-11-09T09:15:21Z</time>
      </trkpt>
      <trkpt lat="44.84569" lon="4.62932">
        <ele>611.6</ele>
        <time>2019-11-09T09:15:27Z</time>
      </trkpt>
      <trkpt lat="44.84572" lon="4.62942">
        <ele>610.2</ele>
        <time>2019-11-09T09:15:32Z</time>
      </trkpt>
      <trkpt lat="44.84574" lon="4.62944">
        <ele>610</ele>
        <time>2019-11-09T09:15:33Z</time>
      </trkpt>
      <trkpt lat="44.84575" lon="4.62947">
        <ele>609.6</ele>
        <time>2019-11-09T09:15:34Z</time>
      </trkpt>
      <trkpt lat="44.84578" lon="4.62953">
        <ele>609</ele>
        <time>2019-11-09T09:15:36Z</time>
      </trkpt>
      <trkpt lat="44.84579" lon="4.62955">
        <ele>608.6</ele>
        <time>2019-11-09T09:15:37Z</time>
      </trkpt>
      <trkpt lat="44.84586" lon="4.62962">
        <ele>607.8</ele>
        <time>2019-11-09T09:15:40Z</time>
      </trkpt>
      <trkpt lat="44.84591" lon="4.62969">
        <ele>606.6</ele>
        <time>2019-11-09T09:15:42Z</time>
      </trkpt>
      <trkpt lat="44.84595" lon="4.62979">
        <ele>605.4</ele>
        <time>2019-11-09T09:15:44Z</time>
      </trkpt>
      <trkpt lat="44.84602" lon="4.62989">
        <ele>604.2</ele>
        <time>2019-11-09T09:15:46Z</time>
      </trkpt>
      <trkpt lat="44.84607" lon="4.62994">
        <ele>603.4</ele>
        <time>2019-11-09T09:15:47Z</time>
      </trkpt>
      <trkpt lat="44.84611" lon="4.63001">
        <ele>603.2</ele>
        <time>2019-11-09T09:15:48Z</time>
      </trkpt>
      <trkpt lat="44.84615" lon="4.63007">
        <ele>602.2</ele>
        <time>2019-11-09T09:15:49Z</time>
      </trkpt>
      <trkpt lat="44.84616" lon="4.63015">
        <ele>601</ele>
        <time>2019-11-09T09:15:50Z</time>
      </trkpt>
      <trkpt lat="44.84614" lon="4.63031">
        <ele>599.4</ele>
        <time>2019-11-09T09:15:52Z</time>
      </trkpt>
      <trkpt lat="44.8461" lon="4.63039">
        <ele>598.6</ele>
        <time>2019-11-09T09:15:53Z</time>
      </trkpt>
      <trkpt lat="44.84608" lon="4.6305">
        <ele>597.8</ele>
        <time>2019-11-09T09:15:54Z</time>
      </trkpt>
      <trkpt lat="44.84608" lon="4.63072">
        <ele>596</ele>
        <time>2019-11-09T09:15:56Z</time>
      </trkpt>
      <trkpt lat="44.84609" lon="4.63083">
        <ele>595.2</ele>
        <time>2019-11-09T09:15:57Z</time>
      </trkpt>
      <trkpt lat="44.84609" lon="4.63093">
        <ele>594.8</ele>
        <time>2019-11-09T09:15:58Z</time>
      </trkpt>
      <trkpt lat="44.84617" lon="4.63132">
        <ele>594.2</ele>
        <time>2019-11-09T09:16:02Z</time>
      </trkpt>
      <trkpt lat="44.84624" lon="4.63149">
        <ele>593.8</ele>
        <time>2019-11-09T09:16:04Z</time>
      </trkpt>
      <trkpt lat="44.84628" lon="4.63155">
        <ele>593.4</ele>
        <time>2019-11-09T09:16:05Z</time>
      </trkpt>
      <trkpt lat="44.84631" lon="4.63162">
        <ele>593.2</ele>
        <time>2019-11-09T09:16:06Z</time>
      </trkpt>
      <trkpt lat="44.8464" lon="4.63178">
        <ele>593.6</ele>
        <time>2019-11-09T09:16:09Z</time>
      </trkpt>
      <trkpt lat="44.84645" lon="4.6319">
        <ele>593.8</ele>
        <time>2019-11-09T09:16:11Z</time>
      </trkpt>
      <trkpt lat="44.84647" lon="4.63196">
        <ele>594</ele>
        <time>2019-11-09T09:16:12Z</time>
      </trkpt>
      <trkpt lat="44.84649" lon="4.63203">
        <ele>593.8</ele>
        <time>2019-11-09T09:16:13Z</time>
      </trkpt>
      <trkpt lat="44.84651" lon="4.6321">
        <ele>593.4</ele>
        <time>2019-11-09T09:16:14Z</time>
      </trkpt>
      <trkpt lat="44.84655" lon="4.63217">
        <ele>592.6</ele>
        <time>2019-11-09T09:16:15Z</time>
      </trkpt>
      <trkpt lat="44.84658" lon="4.63225">
        <ele>592.2</ele>
        <time>2019-11-09T09:16:16Z</time>
      </trkpt>
      <trkpt lat="44.84662" lon="4.63232">
        <ele>592</ele>
        <time>2019-11-09T09:16:17Z</time>
      </trkpt>
      <trkpt lat="44.84672" lon="4.63245">
        <ele>590.8</ele>
        <time>2019-11-09T09:16:19Z</time>
      </trkpt>
      <trkpt lat="44.84679" lon="4.63249">
        <ele>590</ele>
        <time>2019-11-09T09:16:20Z</time>
      </trkpt>
      <trkpt lat="44.84685" lon="4.63254">
        <ele>589</ele>
        <time>2019-11-09T09:16:21Z</time>
      </trkpt>
      <trkpt lat="44.84691" lon="4.63259">
        <ele>588</ele>
        <time>2019-11-09T09:16:22Z</time>
      </trkpt>
      <trkpt lat="44.84704" lon="4.63271">
        <ele>586.4</ele>
        <time>2019-11-09T09:16:24Z</time>
      </trkpt>
      <trkpt lat="44.8471" lon="4.63277">
        <ele>586</ele>
        <time>2019-11-09T09:16:25Z</time>
      </trkpt>
      <trkpt lat="44.84714" lon="4.63283">
        <ele>585.6</ele>
        <time>2019-11-09T09:16:26Z</time>
      </trkpt>
      <trkpt lat="44.84718" lon="4.63289">
        <ele>585.2</ele>
        <time>2019-11-09T09:16:27Z</time>
      </trkpt>
      <trkpt lat="44.84729" lon="4.63306">
        <ele>584.8</ele>
        <time>2019-11-09T09:16:30Z</time>
      </trkpt>
      <trkpt lat="44.8474" lon="4.63329">
        <ele>584.2</ele>
        <time>2019-11-09T09:16:34Z</time>
      </trkpt>
      <trkpt lat="44.84743" lon="4.63335">
        <ele>583.8</ele>
        <time>2019-11-09T09:16:35Z</time>
      </trkpt>
      <trkpt lat="44.84746" lon="4.6334">
        <ele>583.6</ele>
        <time>2019-11-09T09:16:36Z</time>
      </trkpt>
      <trkpt lat="44.84753" lon="4.63347">
        <ele>582.8</ele>
        <time>2019-11-09T09:16:38Z</time>
      </trkpt>
      <trkpt lat="44.84756" lon="4.6335">
        <ele>582.4</ele>
        <time>2019-11-09T09:16:39Z</time>
      </trkpt>
      <trkpt lat="44.84762" lon="4.63356">
        <ele>581.4</ele>
        <time>2019-11-09T09:16:41Z</time>
      </trkpt>
      <trkpt lat="44.84764" lon="4.63364">
        <ele>580.8</ele>
        <time>2019-11-09T09:16:43Z</time>
      </trkpt>
      <trkpt lat="44.8476" lon="4.63372">
        <ele>580.4</ele>
        <time>2019-11-09T09:16:45Z</time>
      </trkpt>
      <trkpt lat="44.84757" lon="4.63374">
        <ele>580.4</ele>
        <time>2019-11-09T09:16:46Z</time>
      </trkpt>
      <trkpt lat="44.84749" lon="4.63374">
        <ele>579.8</ele>
        <time>2019-11-09T09:16:48Z</time>
      </trkpt>
      <trkpt lat="44.84745" lon="4.63372">
        <ele>579.2</ele>
        <time>2019-11-09T09:16:49Z</time>
      </trkpt>
      <trkpt lat="44.84735" lon="4.63365">
        <ele>577.4</ele>
        <time>2019-11-09T09:16:51Z</time>
      </trkpt>
      <trkpt lat="44.8473" lon="4.63361">
        <ele>576.6</ele>
        <time>2019-11-09T09:16:52Z</time>
      </trkpt>
      <trkpt lat="44.84726" lon="4.63357">
        <ele>576</ele>
        <time>2019-11-09T09:16:53Z</time>
      </trkpt>
      <trkpt lat="44.84721" lon="4.63354">
        <ele>575.6</ele>
        <time>2019-11-09T09:16:54Z</time>
      </trkpt>
      <trkpt lat="44.84706" lon="4.63352">
        <ele>576.2</ele>
        <time>2019-11-09T09:16:58Z</time>
      </trkpt>
      <trkpt lat="44.84697" lon="4.63352">
        <ele>577.2</ele>
        <time>2019-11-09T09:17:01Z</time>
      </trkpt>
      <trkpt lat="44.84693" lon="4.63351">
        <ele>577.4</ele>
        <time>2019-11-09T09:17:03Z</time>
      </trkpt>
      <trkpt lat="44.84686" lon="4.63351">
        <ele>578</ele>
        <time>2019-11-09T09:17:06Z</time>
      </trkpt>
      <trkpt lat="44.84684" lon="4.63351">
        <ele>578.2</ele>
        <time>2019-11-09T09:17:07Z</time>
      </trkpt>
      <trkpt lat="44.84682" lon="4.6335">
        <ele>578.4</ele>
        <time>2019-11-09T09:17:08Z</time>
      </trkpt>
      <trkpt lat="44.84673" lon="4.6335">
        <ele>578.4</ele>
        <time>2019-11-09T09:17:12Z</time>
      </trkpt>
      <trkpt lat="44.84664" lon="4.63351">
        <ele>578.4</ele>
        <time>2019-11-09T09:17:16Z</time>
      </trkpt>
      <trkpt lat="44.8466" lon="4.63352">
        <ele>578.6</ele>
        <time>2019-11-09T09:17:18Z</time>
      </trkpt>
      <trkpt lat="44.84653" lon="4.63354">
        <ele>578.8</ele>
        <time>2019-11-09T09:17:21Z</time>
      </trkpt>
      <trkpt lat="44.84642" lon="4.63356">
        <ele>579.2</ele>
        <time>2019-11-09T09:17:26Z</time>
      </trkpt>
      <trkpt lat="44.84639" lon="4.63357">
        <ele>579.2</ele>
        <time>2019-11-09T09:17:27Z</time>
      </trkpt>
      <trkpt lat="44.84637" lon="4.63357">
        <ele>579.4</ele>
        <time>2019-11-09T09:17:28Z</time>
      </trkpt>
      <trkpt lat="44.84624" lon="4.6336">
        <ele>580.4</ele>
        <time>2019-11-09T09:17:34Z</time>
      </trkpt>
      <trkpt lat="44.84618" lon="4.63361">
        <ele>581</ele>
        <time>2019-11-09T09:17:37Z</time>
      </trkpt>
      <trkpt lat="44.84611" lon="4.63361">
        <ele>581.6</ele>
        <time>2019-11-09T09:17:40Z</time>
      </trkpt>
      <trkpt lat="44.84601" lon="4.6336">
        <ele>582.2</ele>
        <time>2019-11-09T09:17:44Z</time>
      </trkpt>
      <trkpt lat="44.84589" lon="4.63357">
        <ele>582.6</ele>
        <time>2019-11-09T09:17:49Z</time>
      </trkpt>
      <trkpt lat="44.84584" lon="4.63355">
        <ele>582.6</ele>
        <time>2019-11-09T09:17:51Z</time>
      </trkpt>
      <trkpt lat="44.84582" lon="4.63354">
        <ele>582.8</ele>
        <time>2019-11-09T09:17:52Z</time>
      </trkpt>
      <trkpt lat="44.84564" lon="4.6335">
        <ele>582.4</ele>
        <time>2019-11-09T09:17:59Z</time>
      </trkpt>
      <trkpt lat="44.84551" lon="4.63352">
        <ele>583.4</ele>
        <time>2019-11-09T09:18:05Z</time>
      </trkpt>
      <trkpt lat="44.84547" lon="4.63352">
        <ele>583.8</ele>
        <time>2019-11-09T09:18:07Z</time>
      </trkpt>
      <trkpt lat="44.84533" lon="4.63355">
        <ele>583.8</ele>
        <time>2019-11-09T09:18:12Z</time>
      </trkpt>
      <trkpt lat="44.84516" lon="4.63359">
        <ele>582.6</ele>
        <time>2019-11-09T09:18:16Z</time>
      </trkpt>
      <trkpt lat="44.84507" lon="4.63363">
        <ele>582.4</ele>
        <time>2019-11-09T09:18:18Z</time>
      </trkpt>
      <trkpt lat="44.84495" lon="4.63368">
        <ele>582.2</ele>
        <time>2019-11-09T09:18:21Z</time>
      </trkpt>
      <trkpt lat="44.84486" lon="4.63369">
        <ele>581.8</ele>
        <time>2019-11-09T09:18:23Z</time>
      </trkpt>
      <trkpt lat="44.84482" lon="4.63368">
        <ele>581.4</ele>
        <time>2019-11-09T09:18:24Z</time>
      </trkpt>
      <trkpt lat="44.84467" lon="4.63362">
        <ele>580.4</ele>
        <time>2019-11-09T09:18:27Z</time>
      </trkpt>
      <trkpt lat="44.84461" lon="4.63359">
        <ele>580.2</ele>
        <time>2019-11-09T09:18:28Z</time>
      </trkpt>
      <trkpt lat="44.84451" lon="4.63354">
        <ele>579.2</ele>
        <time>2019-11-09T09:18:30Z</time>
      </trkpt>
      <trkpt lat="44.84433" lon="4.63348">
        <ele>578.4</ele>
        <time>2019-11-09T09:18:34Z</time>
      </trkpt>
      <trkpt lat="44.84424" lon="4.63345">
        <ele>578.2</ele>
        <time>2019-11-09T09:18:36Z</time>
      </trkpt>
      <trkpt lat="44.84414" lon="4.63344">
        <ele>578.4</ele>
        <time>2019-11-09T09:18:39Z</time>
      </trkpt>
      <trkpt lat="44.84407" lon="4.63345">
        <ele>579.8</ele>
        <time>2019-11-09T09:18:44Z</time>
      </trkpt>
      <trkpt lat="44.84408" lon="4.63345">
        <ele>579.8</ele>
        <time>2019-11-09T09:18:47Z</time>
      </trkpt>
      <trkpt lat="44.84408" lon="4.63346">
        <ele>579.6</ele>
        <time>2019-11-09T09:18:48Z</time>
      </trkpt>
      <trkpt lat="44.84407" lon="4.63346">
        <ele>579.6</ele>
        <time>2019-11-09T09:18:50Z</time>
      </trkpt>
      <trkpt lat="44.84407" lon="4.63347">
        <ele>579.6</ele>
        <time>2019-11-09T09:18:53Z</time>
      </trkpt>
      <trkpt lat="44.84406" lon="4.63347">
        <ele>579.4</ele>
        <time>2019-11-09T09:18:55Z</time>
      </trkpt>
      <trkpt lat="44.84406" lon="4.63348">
        <ele>579.2</ele>
        <time>2019-11-09T09:18:59Z</time>
      </trkpt>
      <trkpt lat="44.84405" lon="4.63348">
        <ele>579</ele>
        <time>2019-11-09T09:19:01Z</time>
      </trkpt>
      <trkpt lat="44.84404" lon="4.63348">
        <ele>579</ele>
        <time>2019-11-09T09:19:02Z</time>
      </trkpt>
      <trkpt lat="44.84399" lon="4.63349">
        <ele>578</ele>
        <time>2019-11-09T09:19:04Z</time>
      </trkpt>
      <trkpt lat="44.84393" lon="4.63347">
        <ele>576.4</ele>
        <time>2019-11-09T09:19:06Z</time>
      </trkpt>
      <trkpt lat="44.84387" lon="4.63341">
        <ele>575.4</ele>
        <time>2019-11-09T09:19:08Z</time>
      </trkpt>
      <trkpt lat="44.84383" lon="4.63339">
        <ele>574.6</ele>
        <time>2019-11-09T09:19:10Z</time>
      </trkpt>
      <trkpt lat="44.84378" lon="4.63337">
        <ele>574.4</ele>
        <time>2019-11-09T09:19:12Z</time>
      </trkpt>
      <trkpt lat="44.84371" lon="4.63336">
        <ele>574.2</ele>
        <time>2019-11-09T09:19:14Z</time>
      </trkpt>
      <trkpt lat="44.84362" lon="4.63334">
        <ele>573.2</ele>
        <time>2019-11-09T09:19:17Z</time>
      </trkpt>
      <trkpt lat="44.84356" lon="4.63332">
        <ele>571.6</ele>
        <time>2019-11-09T09:19:19Z</time>
      </trkpt>
      <trkpt lat="44.84353" lon="4.63331">
        <ele>570.6</ele>
        <time>2019-11-09T09:19:20Z</time>
      </trkpt>
      <trkpt lat="44.84351" lon="4.63329">
        <ele>569.8</ele>
        <time>2019-11-09T09:19:21Z</time>
      </trkpt>
      <trkpt lat="44.84344" lon="4.63326">
        <ele>568.4</ele>
        <time>2019-11-09T09:19:23Z</time>
      </trkpt>
      <trkpt lat="44.84339" lon="4.63324">
        <ele>567.8</ele>
        <time>2019-11-09T09:19:24Z</time>
      </trkpt>
      <trkpt lat="44.84335" lon="4.63322">
        <ele>566.8</ele>
        <time>2019-11-09T09:19:25Z</time>
      </trkpt>
      <trkpt lat="44.84331" lon="4.63321">
        <ele>565.2</ele>
        <time>2019-11-09T09:19:26Z</time>
      </trkpt>
      <trkpt lat="44.84327" lon="4.6332">
        <ele>564</ele>
        <time>2019-11-09T09:19:27Z</time>
      </trkpt>
      <trkpt lat="44.84319" lon="4.6332">
        <ele>562.8</ele>
        <time>2019-11-09T09:19:29Z</time>
      </trkpt>
      <trkpt lat="44.84316" lon="4.63321">
        <ele>562.4</ele>
        <time>2019-11-09T09:19:30Z</time>
      </trkpt>
      <trkpt lat="44.84304" lon="4.63326">
        <ele>561.8</ele>
        <time>2019-11-09T09:19:34Z</time>
      </trkpt>
      <trkpt lat="44.843" lon="4.63325">
        <ele>560.8</ele>
        <time>2019-11-09T09:19:35Z</time>
      </trkpt>
      <trkpt lat="44.84296" lon="4.63324">
        <ele>559.6</ele>
        <time>2019-11-09T09:19:36Z</time>
      </trkpt>
      <trkpt lat="44.84287" lon="4.63321">
        <ele>558.6</ele>
        <time>2019-11-09T09:19:38Z</time>
      </trkpt>
      <trkpt lat="44.84283" lon="4.63321">
        <ele>558.2</ele>
        <time>2019-11-09T09:19:39Z</time>
      </trkpt>
      <trkpt lat="44.8428" lon="4.63324">
        <ele>557.2</ele>
        <time>2019-11-09T09:19:41Z</time>
      </trkpt>
      <trkpt lat="44.8428" lon="4.63323">
        <ele>557</ele>
        <time>2019-11-09T09:19:44Z</time>
      </trkpt>
      <trkpt lat="44.8428" lon="4.63323">
        <ele>557</ele>
        <time>2019-11-09T09:19:45Z</time>
      </trkpt>
      <trkpt lat="44.8428" lon="4.63322">
        <ele>557</ele>
        <time>2019-11-09T09:19:46Z</time>
      </trkpt>
      <trkpt lat="44.8428" lon="4.63322">
        <ele>556.2</ele>
        <time>2019-11-09T09:19:52Z</time>
      </trkpt>
      <trkpt lat="44.8428" lon="4.63323">
        <ele>556.4</ele>
        <time>2019-11-09T09:19:58Z</time>
      </trkpt>
      <trkpt lat="44.84279" lon="4.63324">
        <ele>556</ele>
        <time>2019-11-09T09:20:04Z</time>
      </trkpt>
      <trkpt lat="44.8428" lon="4.63324">
        <ele>556.4</ele>
        <time>2019-11-09T09:20:11Z</time>
      </trkpt>
      <trkpt lat="44.84279" lon="4.63325">
        <ele>556.4</ele>
        <time>2019-11-09T09:20:12Z</time>
      </trkpt>
      <trkpt lat="44.84279" lon="4.63327">
        <ele>556.4</ele>
        <time>2019-11-09T09:20:16Z</time>
      </trkpt>
      <trkpt lat="44.84279" lon="4.63326">
        <ele>556.2</ele>
        <time>2019-11-09T09:20:18Z</time>
      </trkpt>
      <trkpt lat="44.84279" lon="4.63326">
        <ele>555.8</ele>
        <time>2019-11-09T09:20:23Z</time>
      </trkpt>
      <trkpt lat="44.84279" lon="4.63326">
        <ele>555.2</ele>
        <time>2019-11-09T09:20:31Z</time>
      </trkpt>
      <trkpt lat="44.84279" lon="4.63326">
        <ele>555.2</ele>
        <time>2019-11-09T09:20:32Z</time>
      </trkpt>
      <trkpt lat="44.84279" lon="4.63326">
        <ele>555.2</ele>
        <time>2019-11-09T09:20:36Z</time>
      </trkpt>
      <trkpt lat="44.8428" lon="4.63326">
        <ele>555.4</ele>
        <time>2019-11-09T09:20:44Z</time>
      </trkpt>
      <trkpt lat="44.84279" lon="4.63326">
        <ele>555.6</ele>
        <time>2019-11-09T09:20:48Z</time>
      </trkpt>
      <trkpt lat="44.84279" lon="4.63327">
        <ele>555.8</ele>
        <time>2019-11-09T09:20:50Z</time>
      </trkpt>
      <trkpt lat="44.84277" lon="4.63329">
        <ele>555.8</ele>
        <time>2019-11-09T09:20:51Z</time>
      </trkpt>
      <trkpt lat="44.84264" lon="4.63336">
        <ele>556</ele>
        <time>2019-11-09T09:20:56Z</time>
      </trkpt>
      <trkpt lat="44.84257" lon="4.6334">
        <ele>555.2</ele>
        <time>2019-11-09T09:20:58Z</time>
      </trkpt>
      <trkpt lat="44.84247" lon="4.6335">
        <ele>554</ele>
        <time>2019-11-09T09:21:01Z</time>
      </trkpt>
      <trkpt lat="44.8424" lon="4.63358">
        <ele>553.2</ele>
        <time>2019-11-09T09:21:03Z</time>
      </trkpt>
      <trkpt lat="44.84237" lon="4.63361">
        <ele>552.6</ele>
        <time>2019-11-09T09:21:04Z</time>
      </trkpt>
      <trkpt lat="44.84232" lon="4.63363">
        <ele>552</ele>
        <time>2019-11-09T09:21:05Z</time>
      </trkpt>
      <trkpt lat="44.84228" lon="4.63364">
        <ele>551.4</ele>
        <time>2019-11-09T09:21:06Z</time>
      </trkpt>
      <trkpt lat="44.84224" lon="4.63364">
        <ele>550.8</ele>
        <time>2019-11-09T09:21:07Z</time>
      </trkpt>
      <trkpt lat="44.84219" lon="4.63363">
        <ele>550.2</ele>
        <time>2019-11-09T09:21:08Z</time>
      </trkpt>
      <trkpt lat="44.84215" lon="4.63362">
        <ele>549.8</ele>
        <time>2019-11-09T09:21:09Z</time>
      </trkpt>
      <trkpt lat="44.84207" lon="4.63362">
        <ele>549.2</ele>
        <time>2019-11-09T09:21:11Z</time>
      </trkpt>
      <trkpt lat="44.84203" lon="4.63365">
        <ele>548.8</ele>
        <time>2019-11-09T09:21:12Z</time>
      </trkpt>
      <trkpt lat="44.84196" lon="4.63372">
        <ele>547.8</ele>
        <time>2019-11-09T09:21:14Z</time>
      </trkpt>
      <trkpt lat="44.8419" lon="4.63377">
        <ele>546</ele>
        <time>2019-11-09T09:21:16Z</time>
      </trkpt>
      <trkpt lat="44.84187" lon="4.6338">
        <ele>545.6</ele>
        <time>2019-11-09T09:21:17Z</time>
      </trkpt>
      <trkpt lat="44.8418" lon="4.63386">
        <ele>545</ele>
        <time>2019-11-09T09:21:19Z</time>
      </trkpt>
      <trkpt lat="44.84173" lon="4.63388">
        <ele>543.8</ele>
        <time>2019-11-09T09:21:21Z</time>
      </trkpt>
      <trkpt lat="44.84165" lon="4.63389">
        <ele>542.6</ele>
        <time>2019-11-09T09:21:23Z</time>
      </trkpt>
      <trkpt lat="44.84151" lon="4.63391">
        <ele>541.6</ele>
        <time>2019-11-09T09:21:27Z</time>
      </trkpt>
      <trkpt lat="44.8414" lon="4.63405">
        <ele>540.4</ele>
        <time>2019-11-09T09:21:31Z</time>
      </trkpt>
      <trkpt lat="44.84133" lon="4.6341">
        <ele>539</ele>
        <time>2019-11-09T09:21:33Z</time>
      </trkpt>
      <trkpt lat="44.84128" lon="4.63412">
        <ele>537.8</ele>
        <time>2019-11-09T09:21:35Z</time>
      </trkpt>
      <trkpt lat="44.84118" lon="4.63407">
        <ele>537.2</ele>
        <time>2019-11-09T09:21:39Z</time>
      </trkpt>
      <trkpt lat="44.84115" lon="4.63398">
        <ele>536.8</ele>
        <time>2019-11-09T09:21:41Z</time>
      </trkpt>
      <trkpt lat="44.84116" lon="4.63394">
        <ele>536.8</ele>
        <time>2019-11-09T09:21:42Z</time>
      </trkpt>
      <trkpt lat="44.84117" lon="4.63387">
        <ele>536.8</ele>
        <time>2019-11-09T09:21:44Z</time>
      </trkpt>
      <trkpt lat="44.84117" lon="4.63386">
        <ele>536.8</ele>
        <time>2019-11-09T09:21:46Z</time>
      </trkpt>
      <trkpt lat="44.84117" lon="4.63386">
        <ele>536.8</ele>
        <time>2019-11-09T09:21:51Z</time>
      </trkpt>
      <trkpt lat="44.84116" lon="4.63386">
        <ele>536.8</ele>
        <time>2019-11-09T09:21:52Z</time>
      </trkpt>
      <trkpt lat="44.84112" lon="4.63386">
        <ele>536.6</ele>
        <time>2019-11-09T09:21:54Z</time>
      </trkpt>
      <trkpt lat="44.841" lon="4.63385">
        <ele>535.8</ele>
        <time>2019-11-09T09:22:00Z</time>
      </trkpt>
      <trkpt lat="44.84098" lon="4.63386">
        <ele>535.8</ele>
        <time>2019-11-09T09:22:01Z</time>
      </trkpt>
      <trkpt lat="44.84095" lon="4.6339">
        <ele>535</ele>
        <time>2019-11-09T09:22:03Z</time>
      </trkpt>
      <trkpt lat="44.84093" lon="4.63392">
        <ele>534.4</ele>
        <time>2019-11-09T09:22:04Z</time>
      </trkpt>
      <trkpt lat="44.84091" lon="4.63396">
        <ele>533.8</ele>
        <time>2019-11-09T09:22:05Z</time>
      </trkpt>
      <trkpt lat="44.84091" lon="4.634">
        <ele>533.2</ele>
        <time>2019-11-09T09:22:06Z</time>
      </trkpt>
      <trkpt lat="44.8409" lon="4.63404">
        <ele>532.4</ele>
        <time>2019-11-09T09:22:07Z</time>
      </trkpt>
      <trkpt lat="44.84087" lon="4.63407">
        <ele>531.6</ele>
        <time>2019-11-09T09:22:08Z</time>
      </trkpt>
      <trkpt lat="44.84081" lon="4.6341">
        <ele>530.4</ele>
        <time>2019-11-09T09:22:10Z</time>
      </trkpt>
      <trkpt lat="44.84079" lon="4.63412">
        <ele>529.8</ele>
        <time>2019-11-09T09:22:11Z</time>
      </trkpt>
      <trkpt lat="44.84076" lon="4.63414">
        <ele>529.4</ele>
        <time>2019-11-09T09:22:12Z</time>
      </trkpt>
      <trkpt lat="44.84069" lon="4.63417">
        <ele>528.6</ele>
        <time>2019-11-09T09:22:14Z</time>
      </trkpt>
      <trkpt lat="44.84066" lon="4.63416">
        <ele>528.4</ele>
        <time>2019-11-09T09:22:15Z</time>
      </trkpt>
      <trkpt lat="44.84062" lon="4.63414">
        <ele>527.8</ele>
        <time>2019-11-09T09:22:16Z</time>
      </trkpt>
      <trkpt lat="44.84059" lon="4.63413">
        <ele>527</ele>
        <time>2019-11-09T09:22:17Z</time>
      </trkpt>
      <trkpt lat="44.84057" lon="4.63412">
        <ele>526.2</ele>
        <time>2019-11-09T09:22:18Z</time>
      </trkpt>
      <trkpt lat="44.84055" lon="4.63413">
        <ele>525.4</ele>
        <time>2019-11-09T09:22:19Z</time>
      </trkpt>
      <trkpt lat="44.84053" lon="4.63418">
        <ele>524.2</ele>
        <time>2019-11-09T09:22:21Z</time>
      </trkpt>
      <trkpt lat="44.84051" lon="4.63421">
        <ele>523.6</ele>
        <time>2019-11-09T09:22:22Z</time>
      </trkpt>
      <trkpt lat="44.84048" lon="4.63426">
        <ele>522.6</ele>
        <time>2019-11-09T09:22:24Z</time>
      </trkpt>
      <trkpt lat="44.84044" lon="4.6343">
        <ele>521.4</ele>
        <time>2019-11-09T09:22:26Z</time>
      </trkpt>
      <trkpt lat="44.84042" lon="4.63431">
        <ele>521</ele>
        <time>2019-11-09T09:22:27Z</time>
      </trkpt>
      <trkpt lat="44.84041" lon="4.63432">
        <ele>520.6</ele>
        <time>2019-11-09T09:22:28Z</time>
      </trkpt>
      <trkpt lat="44.8404" lon="4.63433">
        <ele>520.2</ele>
        <time>2019-11-09T09:22:29Z</time>
      </trkpt>
      <trkpt lat="44.84039" lon="4.63436">
        <ele>519.8</ele>
        <time>2019-11-09T09:22:30Z</time>
      </trkpt>
      <trkpt lat="44.84039" lon="4.63438">
        <ele>519.6</ele>
        <time>2019-11-09T09:22:31Z</time>
      </trkpt>
      <trkpt lat="44.84038" lon="4.63447">
        <ele>519</ele>
        <time>2019-11-09T09:22:34Z</time>
      </trkpt>
      <trkpt lat="44.84037" lon="4.6345">
        <ele>518.8</ele>
        <time>2019-11-09T09:22:35Z</time>
      </trkpt>
      <trkpt lat="44.84034" lon="4.63455">
        <ele>517.8</ele>
        <time>2019-11-09T09:22:37Z</time>
      </trkpt>
      <trkpt lat="44.8403" lon="4.63461">
        <ele>516.6</ele>
        <time>2019-11-09T09:22:40Z</time>
      </trkpt>
      <trkpt lat="44.84028" lon="4.63468">
        <ele>515.8</ele>
        <time>2019-11-09T09:22:44Z</time>
      </trkpt>
      <trkpt lat="44.84027" lon="4.63469">
        <ele>515.6</ele>
        <time>2019-11-09T09:22:45Z</time>
      </trkpt>
      <trkpt lat="44.84026" lon="4.63474">
        <ele>515</ele>
        <time>2019-11-09T09:22:53Z</time>
      </trkpt>
      <trkpt lat="44.84026" lon="4.63474">
        <ele>515</ele>
        <time>2019-11-09T09:22:54Z</time>
      </trkpt>
      <trkpt lat="44.84026" lon="4.63473">
        <ele>514.8</ele>
        <time>2019-11-09T09:23:00Z</time>
      </trkpt>
      <trkpt lat="44.84027" lon="4.63475">
        <ele>514.8</ele>
        <time>2019-11-09T09:23:03Z</time>
      </trkpt>
      <trkpt lat="44.8403" lon="4.63486">
        <ele>515</ele>
        <time>2019-11-09T09:23:13Z</time>
      </trkpt>
      <trkpt lat="44.8403" lon="4.63487">
        <ele>515</ele>
        <time>2019-11-09T09:23:14Z</time>
      </trkpt>
      <trkpt lat="44.84031" lon="4.63487">
        <ele>514.8</ele>
        <time>2019-11-09T09:23:20Z</time>
      </trkpt>
      <trkpt lat="44.84029" lon="4.63485">
        <ele>515</ele>
        <time>2019-11-09T09:23:23Z</time>
      </trkpt>
      <trkpt lat="44.84027" lon="4.63479">
        <ele>514.8</ele>
        <time>2019-11-09T09:23:30Z</time>
      </trkpt>
      <trkpt lat="44.84025" lon="4.63479">
        <ele>514.6</ele>
        <time>2019-11-09T09:23:34Z</time>
      </trkpt>
      <trkpt lat="44.84023" lon="4.63479">
        <ele>514.4</ele>
        <time>2019-11-09T09:23:40Z</time>
      </trkpt>
      <trkpt lat="44.84023" lon="4.63477">
        <ele>515</ele>
        <time>2019-11-09T09:23:48Z</time>
      </trkpt>
      <trkpt lat="44.84022" lon="4.63477">
        <ele>515</ele>
        <time>2019-11-09T09:23:55Z</time>
      </trkpt>
      <trkpt lat="44.84024" lon="4.63477">
        <ele>515</ele>
        <time>2019-11-09T09:23:58Z</time>
      </trkpt>
      <trkpt lat="44.84024" lon="4.63477">
        <ele>515</ele>
        <time>2019-11-09T09:23:59Z</time>
      </trkpt>
      <trkpt lat="44.84023" lon="4.63475">
        <ele>515</ele>
        <time>2019-11-09T09:24:03Z</time>
      </trkpt>
      <trkpt lat="44.84022" lon="4.63475">
        <ele>515</ele>
        <time>2019-11-09T09:24:09Z</time>
      </trkpt>
      <trkpt lat="44.84023" lon="4.63476">
        <ele>515</ele>
        <time>2019-11-09T09:24:12Z</time>
      </trkpt>
      <trkpt lat="44.84025" lon="4.63477">
        <ele>515</ele>
        <time>2019-11-09T09:24:17Z</time>
      </trkpt>
      <trkpt lat="44.84026" lon="4.63477">
        <ele>515</ele>
        <time>2019-11-09T09:24:25Z</time>
      </trkpt>
      <trkpt lat="44.84026" lon="4.6348">
        <ele>515</ele>
        <time>2019-11-09T09:24:31Z</time>
      </trkpt>
      <trkpt lat="44.84025" lon="4.63483">
        <ele>515</ele>
        <time>2019-11-09T09:24:32Z</time>
      </trkpt>
      <trkpt lat="44.84023" lon="4.63489">
        <ele>515</ele>
        <time>2019-11-09T09:24:34Z</time>
      </trkpt>
      <trkpt lat="44.8402" lon="4.63495">
        <ele>513</ele>
        <time>2019-11-09T09:24:37Z</time>
      </trkpt>
      <trkpt lat="44.8402" lon="4.63497">
        <ele>512.4</ele>
        <time>2019-11-09T09:24:38Z</time>
      </trkpt>
      <trkpt lat="44.84019" lon="4.63497">
        <ele>512</ele>
        <time>2019-11-09T09:24:39Z</time>
      </trkpt>
      <trkpt lat="44.84018" lon="4.63496">
        <ele>511.6</ele>
        <time>2019-11-09T09:24:40Z</time>
      </trkpt>
      <trkpt lat="44.84017" lon="4.6349">
        <ele>511.2</ele>
        <time>2019-11-09T09:24:42Z</time>
      </trkpt>
      <trkpt lat="44.84016" lon="4.63487">
        <ele>510.8</ele>
        <time>2019-11-09T09:24:43Z</time>
      </trkpt>
      <trkpt lat="44.84015" lon="4.63485">
        <ele>510.4</ele>
        <time>2019-11-09T09:24:44Z</time>
      </trkpt>
      <trkpt lat="44.84013" lon="4.63487">
        <ele>509.4</ele>
        <time>2019-11-09T09:24:46Z</time>
      </trkpt>
      <trkpt lat="44.84012" lon="4.63494">
        <ele>508</ele>
        <time>2019-11-09T09:24:48Z</time>
      </trkpt>
      <trkpt lat="44.8401" lon="4.63501">
        <ele>506.6</ele>
        <time>2019-11-09T09:24:50Z</time>
      </trkpt>
      <trkpt lat="44.84008" lon="4.63514">
        <ele>505.6</ele>
        <time>2019-11-09T09:24:53Z</time>
      </trkpt>
      <trkpt lat="44.84006" lon="4.63521">
        <ele>505</ele>
        <time>2019-11-09T09:24:55Z</time>
      </trkpt>
      <trkpt lat="44.84005" lon="4.63524">
        <ele>504.2</ele>
        <time>2019-11-09T09:24:56Z</time>
      </trkpt>
      <trkpt lat="44.84003" lon="4.6353">
        <ele>502.6</ele>
        <time>2019-11-09T09:24:58Z</time>
      </trkpt>
      <trkpt lat="44.84003" lon="4.63539">
        <ele>501.8</ele>
        <time>2019-11-09T09:25:00Z</time>
      </trkpt>
      <trkpt lat="44.84003" lon="4.63544">
        <ele>501.6</ele>
        <time>2019-11-09T09:25:01Z</time>
      </trkpt>
      <trkpt lat="44.84002" lon="4.6355">
        <ele>500.8</ele>
        <time>2019-11-09T09:25:03Z</time>
      </trkpt>
      <trkpt lat="44.84001" lon="4.6355">
        <ele>500.4</ele>
        <time>2019-11-09T09:25:04Z</time>
      </trkpt>
      <trkpt lat="44.83998" lon="4.63547">
        <ele>499.2</ele>
        <time>2019-11-09T09:25:06Z</time>
      </trkpt>
      <trkpt lat="44.83996" lon="4.63546">
        <ele>498.2</ele>
        <time>2019-11-09T09:25:07Z</time>
      </trkpt>
      <trkpt lat="44.83991" lon="4.63545">
        <ele>496.4</ele>
        <time>2019-11-09T09:25:09Z</time>
      </trkpt>
      <trkpt lat="44.83989" lon="4.63547">
        <ele>495.4</ele>
        <time>2019-11-09T09:25:10Z</time>
      </trkpt>
      <trkpt lat="44.83985" lon="4.63554">
        <ele>493.8</ele>
        <time>2019-11-09T09:25:12Z</time>
      </trkpt>
      <trkpt lat="44.83984" lon="4.63561">
        <ele>492.8</ele>
        <time>2019-11-09T09:25:14Z</time>
      </trkpt>
      <trkpt lat="44.83983" lon="4.63566">
        <ele>491.6</ele>
        <time>2019-11-09T09:25:16Z</time>
      </trkpt>
      <trkpt lat="44.83983" lon="4.63569">
        <ele>491.2</ele>
        <time>2019-11-09T09:25:17Z</time>
      </trkpt>
      <trkpt lat="44.83984" lon="4.63573">
        <ele>490.4</ele>
        <time>2019-11-09T09:25:18Z</time>
      </trkpt>
      <trkpt lat="44.83986" lon="4.63583">
        <ele>489.2</ele>
        <time>2019-11-09T09:25:20Z</time>
      </trkpt>
      <trkpt lat="44.83987" lon="4.63588">
        <ele>488.8</ele>
        <time>2019-11-09T09:25:21Z</time>
      </trkpt>
      <trkpt lat="44.8398" lon="4.63588">
        <ele>488.4</ele>
        <time>2019-11-09T09:25:24Z</time>
      </trkpt>
      <trkpt lat="44.83978" lon="4.63588">
        <ele>488.2</ele>
        <time>2019-11-09T09:25:25Z</time>
      </trkpt>
      <trkpt lat="44.83974" lon="4.63586">
        <ele>487.4</ele>
        <time>2019-11-09T09:25:27Z</time>
      </trkpt>
      <trkpt lat="44.83973" lon="4.63587">
        <ele>487</ele>
        <time>2019-11-09T09:25:28Z</time>
      </trkpt>
      <trkpt lat="44.83971" lon="4.63588">
        <ele>486.6</ele>
        <time>2019-11-09T09:25:29Z</time>
      </trkpt>
      <trkpt lat="44.8397" lon="4.63591">
        <ele>486</ele>
        <time>2019-11-09T09:25:30Z</time>
      </trkpt>
      <trkpt lat="44.83969" lon="4.636">
        <ele>484.8</ele>
        <time>2019-11-09T09:25:32Z</time>
      </trkpt>
      <trkpt lat="44.83968" lon="4.63605">
        <ele>484.2</ele>
        <time>2019-11-09T09:25:33Z</time>
      </trkpt>
      <trkpt lat="44.83968" lon="4.63609">
        <ele>483.6</ele>
        <time>2019-11-09T09:25:34Z</time>
      </trkpt>
      <trkpt lat="44.83967" lon="4.63616">
        <ele>482.4</ele>
        <time>2019-11-09T09:25:36Z</time>
      </trkpt>
      <trkpt lat="44.83964" lon="4.63616">
        <ele>481.8</ele>
        <time>2019-11-09T09:25:37Z</time>
      </trkpt>
      <trkpt lat="44.8396" lon="4.63615">
        <ele>481.2</ele>
        <time>2019-11-09T09:25:38Z</time>
      </trkpt>
      <trkpt lat="44.83952" lon="4.6361">
        <ele>479.8</ele>
        <time>2019-11-09T09:25:41Z</time>
      </trkpt>
      <trkpt lat="44.83949" lon="4.63611">
        <ele>479.2</ele>
        <time>2019-11-09T09:25:43Z</time>
      </trkpt>
      <trkpt lat="44.83948" lon="4.63612">
        <ele>478.8</ele>
        <time>2019-11-09T09:25:45Z</time>
      </trkpt>
      <trkpt lat="44.8395" lon="4.63615">
        <ele>478.4</ele>
        <time>2019-11-09T09:25:53Z</time>
      </trkpt>
      <trkpt lat="44.83951" lon="4.63616">
        <ele>478.6</ele>
        <time>2019-11-09T09:26:00Z</time>
      </trkpt>
      <trkpt lat="44.83951" lon="4.63617">
        <ele>478.6</ele>
        <time>2019-11-09T09:26:01Z</time>
      </trkpt>
      <trkpt lat="44.83951" lon="4.63617">
        <ele>478.2</ele>
        <time>2019-11-09T09:26:13Z</time>
      </trkpt>
      <trkpt lat="44.8395" lon="4.63618">
        <ele>478</ele>
        <time>2019-11-09T09:26:21Z</time>
      </trkpt>
      <trkpt lat="44.8395" lon="4.63617">
        <ele>478</ele>
        <time>2019-11-09T09:26:24Z</time>
      </trkpt>
      <trkpt lat="44.8395" lon="4.63618">
        <ele>478</ele>
        <time>2019-11-09T09:26:32Z</time>
      </trkpt>
      <trkpt lat="44.83951" lon="4.63617">
        <ele>477.8</ele>
        <time>2019-11-09T09:26:37Z</time>
      </trkpt>
      <trkpt lat="44.83951" lon="4.63617">
        <ele>477.6</ele>
        <time>2019-11-09T09:26:40Z</time>
      </trkpt>
      <trkpt lat="44.83951" lon="4.63617">
        <ele>478.2</ele>
        <time>2019-11-09T09:26:50Z</time>
      </trkpt>
      <trkpt lat="44.83951" lon="4.63617">
        <ele>478.2</ele>
        <time>2019-11-09T09:26:54Z</time>
      </trkpt>
      <trkpt lat="44.83951" lon="4.63616">
        <ele>478.2</ele>
        <time>2019-11-09T09:26:58Z</time>
      </trkpt>
      <trkpt lat="44.83951" lon="4.63615">
        <ele>478.2</ele>
        <time>2019-11-09T09:27:02Z</time>
      </trkpt>
      <trkpt lat="44.83952" lon="4.63617">
        <ele>478.6</ele>
        <time>2019-11-09T09:27:12Z</time>
      </trkpt>
      <trkpt lat="44.83952" lon="4.63617">
        <ele>478.8</ele>
        <time>2019-11-09T09:27:14Z</time>
      </trkpt>
      <trkpt lat="44.83953" lon="4.63617">
        <ele>479</ele>
        <time>2019-11-09T09:27:18Z</time>
      </trkpt>
      <trkpt lat="44.83953" lon="4.63617">
        <ele>479</ele>
        <time>2019-11-09T09:27:19Z</time>
      </trkpt>
      <trkpt lat="44.83953" lon="4.63618">
        <ele>479</ele>
        <time>2019-11-09T09:27:26Z</time>
      </trkpt>
      <trkpt lat="44.83951" lon="4.6362">
        <ele>478.6</ele>
        <time>2019-11-09T09:27:36Z</time>
      </trkpt>
      <trkpt lat="44.8395" lon="4.63624">
        <ele>478.2</ele>
        <time>2019-11-09T09:27:44Z</time>
      </trkpt>
      <trkpt lat="44.83949" lon="4.63626">
        <ele>478</ele>
        <time>2019-11-09T09:27:45Z</time>
      </trkpt>
      <trkpt lat="44.83948" lon="4.63628">
        <ele>477.6</ele>
        <time>2019-11-09T09:27:46Z</time>
      </trkpt>
      <trkpt lat="44.83948" lon="4.63638">
        <ele>476.4</ele>
        <time>2019-11-09T09:27:49Z</time>
      </trkpt>
      <trkpt lat="44.83948" lon="4.63644">
        <ele>475.2</ele>
        <time>2019-11-09T09:27:51Z</time>
      </trkpt>
      <trkpt lat="44.83949" lon="4.63652">
        <ele>473.8</ele>
        <time>2019-11-09T09:27:54Z</time>
      </trkpt>
      <trkpt lat="44.83949" lon="4.63659">
        <ele>472.6</ele>
        <time>2019-11-09T09:27:56Z</time>
      </trkpt>
      <trkpt lat="44.83948" lon="4.63662">
        <ele>472.2</ele>
        <time>2019-11-09T09:27:57Z</time>
      </trkpt>
      <trkpt lat="44.83948" lon="4.63665">
        <ele>471.8</ele>
        <time>2019-11-09T09:27:58Z</time>
      </trkpt>
      <trkpt lat="44.83948" lon="4.63668">
        <ele>471.4</ele>
        <time>2019-11-09T09:27:59Z</time>
      </trkpt>
      <trkpt lat="44.83948" lon="4.63672">
        <ele>470.4</ele>
        <time>2019-11-09T09:28:01Z</time>
      </trkpt>
      <trkpt lat="44.83948" lon="4.63676">
        <ele>469.6</ele>
        <time>2019-11-09T09:28:02Z</time>
      </trkpt>
      <trkpt lat="44.83947" lon="4.6368">
        <ele>468.8</ele>
        <time>2019-11-09T09:28:03Z</time>
      </trkpt>
      <trkpt lat="44.83946" lon="4.63684">
        <ele>468.2</ele>
        <time>2019-11-09T09:28:04Z</time>
      </trkpt>
      <trkpt lat="44.83945" lon="4.63689">
        <ele>467.8</ele>
        <time>2019-11-09T09:28:05Z</time>
      </trkpt>
      <trkpt lat="44.83944" lon="4.63694">
        <ele>467.2</ele>
        <time>2019-11-09T09:28:06Z</time>
      </trkpt>
      <trkpt lat="44.83941" lon="4.63702">
        <ele>466</ele>
        <time>2019-11-09T09:28:08Z</time>
      </trkpt>
      <trkpt lat="44.8394" lon="4.63711">
        <ele>465</ele>
        <time>2019-11-09T09:28:10Z</time>
      </trkpt>
      <trkpt lat="44.83938" lon="4.63718">
        <ele>463.4</ele>
        <time>2019-11-09T09:28:12Z</time>
      </trkpt>
      <trkpt lat="44.83938" lon="4.6372">
        <ele>463</ele>
        <time>2019-11-09T09:28:13Z</time>
      </trkpt>
      <trkpt lat="44.83938" lon="4.63723">
        <ele>462.4</ele>
        <time>2019-11-09T09:28:14Z</time>
      </trkpt>
      <trkpt lat="44.83939" lon="4.63727">
        <ele>461.4</ele>
        <time>2019-11-09T09:28:16Z</time>
      </trkpt>
      <trkpt lat="44.83941" lon="4.63731">
        <ele>460.8</ele>
        <time>2019-11-09T09:28:18Z</time>
      </trkpt>
      <trkpt lat="44.83943" lon="4.63736">
        <ele>460.2</ele>
        <time>2019-11-09T09:28:20Z</time>
      </trkpt>
      <trkpt lat="44.83946" lon="4.63743">
        <ele>458.8</ele>
        <time>2019-11-09T09:28:22Z</time>
      </trkpt>
      <trkpt lat="44.83949" lon="4.63745">
        <ele>458.4</ele>
        <time>2019-11-09T09:28:23Z</time>
      </trkpt>
      <trkpt lat="44.83949" lon="4.63749">
        <ele>458.2</ele>
        <time>2019-11-09T09:28:24Z</time>
      </trkpt>
      <trkpt lat="44.83947" lon="4.63754">
        <ele>457.6</ele>
        <time>2019-11-09T09:28:26Z</time>
      </trkpt>
      <trkpt lat="44.83945" lon="4.6376">
        <ele>456.6</ele>
        <time>2019-11-09T09:28:28Z</time>
      </trkpt>
      <trkpt lat="44.83941" lon="4.63768">
        <ele>455.4</ele>
        <time>2019-11-09T09:28:31Z</time>
      </trkpt>
      <trkpt lat="44.83941" lon="4.63769">
        <ele>455.2</ele>
        <time>2019-11-09T09:28:32Z</time>
      </trkpt>
      <trkpt lat="44.8394" lon="4.63773">
        <ele>454.6</ele>
        <time>2019-11-09T09:28:38Z</time>
      </trkpt>
      <trkpt lat="44.83941" lon="4.63773">
        <ele>454.8</ele>
        <time>2019-11-09T09:28:45Z</time>
      </trkpt>
      <trkpt lat="44.83942" lon="4.63773">
        <ele>454.6</ele>
        <time>2019-11-09T09:28:48Z</time>
      </trkpt>
      <trkpt lat="44.83942" lon="4.63773">
        <ele>454.6</ele>
        <time>2019-11-09T09:28:49Z</time>
      </trkpt>
      <trkpt lat="44.83942" lon="4.63773">
        <ele>454.6</ele>
        <time>2019-11-09T09:28:52Z</time>
      </trkpt>
      <trkpt lat="44.83941" lon="4.63772">
        <ele>454.6</ele>
        <time>2019-11-09T09:28:54Z</time>
      </trkpt>
      <trkpt lat="44.83941" lon="4.63771">
        <ele>454.6</ele>
        <time>2019-11-09T09:29:01Z</time>
      </trkpt>
      <trkpt lat="44.83942" lon="4.63772">
        <ele>454.6</ele>
        <time>2019-11-09T09:29:02Z</time>
      </trkpt>
      <trkpt lat="44.83941" lon="4.63774">
        <ele>454.4</ele>
        <time>2019-11-09T09:29:07Z</time>
      </trkpt>
      <trkpt lat="44.83941" lon="4.63774">
        <ele>454.4</ele>
        <time>2019-11-09T09:29:08Z</time>
      </trkpt>
      <trkpt lat="44.83941" lon="4.63774">
        <ele>454.6</ele>
        <time>2019-11-09T09:29:13Z</time>
      </trkpt>
      <trkpt lat="44.83941" lon="4.63774">
        <ele>454.8</ele>
        <time>2019-11-09T09:29:16Z</time>
      </trkpt>
      <trkpt lat="44.83941" lon="4.63774">
        <ele>454.8</ele>
        <time>2019-11-09T09:29:17Z</time>
      </trkpt>
      <trkpt lat="44.83942" lon="4.63774">
        <ele>455</ele>
        <time>2019-11-09T09:29:24Z</time>
      </trkpt>
      <trkpt lat="44.83942" lon="4.63775">
        <ele>454.6</ele>
        <time>2019-11-09T09:29:28Z</time>
      </trkpt>
      <trkpt lat="44.83942" lon="4.63775">
        <ele>454.2</ele>
        <time>2019-11-09T09:29:32Z</time>
      </trkpt>
      <trkpt lat="44.83941" lon="4.63776">
        <ele>454.4</ele>
        <time>2019-11-09T09:29:38Z</time>
      </trkpt>
      <trkpt lat="44.83942" lon="4.63774">
        <ele>454.4</ele>
        <time>2019-11-09T09:29:40Z</time>
      </trkpt>
      <trkpt lat="44.83941" lon="4.63774">
        <ele>454</ele>
        <time>2019-11-09T09:29:44Z</time>
      </trkpt>
      <trkpt lat="44.83941" lon="4.63774">
        <ele>454</ele>
        <time>2019-11-09T09:29:45Z</time>
      </trkpt>
      <trkpt lat="44.83942" lon="4.63774">
        <ele>454</ele>
        <time>2019-11-09T09:29:52Z</time>
      </trkpt>
      <trkpt lat="44.83942" lon="4.63778">
        <ele>454.2</ele>
        <time>2019-11-09T09:29:56Z</time>
      </trkpt>
      <trkpt lat="44.83942" lon="4.63784">
        <ele>453.8</ele>
        <time>2019-11-09T09:29:58Z</time>
      </trkpt>
      <trkpt lat="44.83944" lon="4.63797">
        <ele>453.2</ele>
        <time>2019-11-09T09:30:01Z</time>
      </trkpt>
      <trkpt lat="44.83944" lon="4.63801">
        <ele>452.6</ele>
        <time>2019-11-09T09:30:02Z</time>
      </trkpt>
      <trkpt lat="44.83944" lon="4.63805">
        <ele>451.8</ele>
        <time>2019-11-09T09:30:03Z</time>
      </trkpt>
      <trkpt lat="44.83943" lon="4.63815">
        <ele>450.6</ele>
        <time>2019-11-09T09:30:05Z</time>
      </trkpt>
      <trkpt lat="44.83941" lon="4.63823">
        <ele>449.8</ele>
        <time>2019-11-09T09:30:07Z</time>
      </trkpt>
      <trkpt lat="44.8394" lon="4.63826">
        <ele>449.4</ele>
        <time>2019-11-09T09:30:08Z</time>
      </trkpt>
      <trkpt lat="44.83935" lon="4.63835">
        <ele>448.2</ele>
        <time>2019-11-09T09:30:12Z</time>
      </trkpt>
      <trkpt lat="44.83929" lon="4.6384">
        <ele>447.2</ele>
        <time>2019-11-09T09:30:15Z</time>
      </trkpt>
      <trkpt lat="44.83924" lon="4.63843">
        <ele>446.2</ele>
        <time>2019-11-09T09:30:17Z</time>
      </trkpt>
      <trkpt lat="44.83922" lon="4.63844">
        <ele>445.4</ele>
        <time>2019-11-09T09:30:18Z</time>
      </trkpt>
      <trkpt lat="44.83917" lon="4.63842">
        <ele>444</ele>
        <time>2019-11-09T09:30:20Z</time>
      </trkpt>
      <trkpt lat="44.83912" lon="4.63841">
        <ele>443</ele>
        <time>2019-11-09T09:30:22Z</time>
      </trkpt>
      <trkpt lat="44.83909" lon="4.63839">
        <ele>442.6</ele>
        <time>2019-11-09T09:30:23Z</time>
      </trkpt>
      <trkpt lat="44.83905" lon="4.63836">
        <ele>441.6</ele>
        <time>2019-11-09T09:30:25Z</time>
      </trkpt>
      <trkpt lat="44.83902" lon="4.63833">
        <ele>440.8</ele>
        <time>2019-11-09T09:30:27Z</time>
      </trkpt>
      <trkpt lat="44.839" lon="4.63832">
        <ele>440.6</ele>
        <time>2019-11-09T09:30:29Z</time>
      </trkpt>
      <trkpt lat="44.83899" lon="4.63831">
        <ele>440.2</ele>
        <time>2019-11-09T09:30:31Z</time>
      </trkpt>
      <trkpt lat="44.83898" lon="4.63832">
        <ele>440</ele>
        <time>2019-11-09T09:30:32Z</time>
      </trkpt>
      <trkpt lat="44.83897" lon="4.63835">
        <ele>439.2</ele>
        <time>2019-11-09T09:30:34Z</time>
      </trkpt>
      <trkpt lat="44.83898" lon="4.63838">
        <ele>438</ele>
        <time>2019-11-09T09:30:37Z</time>
      </trkpt>
      <trkpt lat="44.83897" lon="4.6384">
        <ele>437.6</ele>
        <time>2019-11-09T09:30:41Z</time>
      </trkpt>
      <trkpt lat="44.83897" lon="4.6384">
        <ele>437.6</ele>
        <time>2019-11-09T09:30:45Z</time>
      </trkpt>
      <trkpt lat="44.83896" lon="4.6384">
        <ele>437.6</ele>
        <time>2019-11-09T09:30:47Z</time>
      </trkpt>
      <trkpt lat="44.83896" lon="4.6384">
        <ele>437.8</ele>
        <time>2019-11-09T09:30:54Z</time>
      </trkpt>
      <trkpt lat="44.83896" lon="4.6384">
        <ele>437.8</ele>
        <time>2019-11-09T09:30:55Z</time>
      </trkpt>
      <trkpt lat="44.83897" lon="4.63841">
        <ele>437.8</ele>
        <time>2019-11-09T09:31:06Z</time>
      </trkpt>
      <trkpt lat="44.83896" lon="4.63841">
        <ele>437.6</ele>
        <time>2019-11-09T09:31:18Z</time>
      </trkpt>
      <trkpt lat="44.83897" lon="4.63841">
        <ele>437.6</ele>
        <time>2019-11-09T09:31:24Z</time>
      </trkpt>
      <trkpt lat="44.83897" lon="4.63842">
        <ele>437.6</ele>
        <time>2019-11-09T09:31:25Z</time>
      </trkpt>
      <trkpt lat="44.83897" lon="4.63842">
        <ele>437.6</ele>
        <time>2019-11-09T09:31:26Z</time>
      </trkpt>
      <trkpt lat="44.83897" lon="4.63842">
        <ele>437.6</ele>
        <time>2019-11-09T09:31:28Z</time>
      </trkpt>
      <trkpt lat="44.83899" lon="4.63844">
        <ele>437.6</ele>
        <time>2019-11-09T09:31:34Z</time>
      </trkpt>
      <trkpt lat="44.83899" lon="4.63845">
        <ele>437.6</ele>
        <time>2019-11-09T09:31:35Z</time>
      </trkpt>
      <trkpt lat="44.83899" lon="4.63846">
        <ele>437.6</ele>
        <time>2019-11-09T09:31:38Z</time>
      </trkpt>
      <trkpt lat="44.839" lon="4.63849">
        <ele>437.2</ele>
        <time>2019-11-09T09:31:41Z</time>
      </trkpt>
      <trkpt lat="44.839" lon="4.63851">
        <ele>437</ele>
        <time>2019-11-09T09:31:42Z</time>
      </trkpt>
      <trkpt lat="44.839" lon="4.63853">
        <ele>436.6</ele>
        <time>2019-11-09T09:31:44Z</time>
      </trkpt>
      <trkpt lat="44.83901" lon="4.63858">
        <ele>436</ele>
        <time>2019-11-09T09:31:47Z</time>
      </trkpt>
      <trkpt lat="44.83901" lon="4.63859">
        <ele>435.8</ele>
        <time>2019-11-09T09:31:48Z</time>
      </trkpt>
      <trkpt lat="44.83901" lon="4.6386">
        <ele>435.4</ele>
        <time>2019-11-09T09:31:53Z</time>
      </trkpt>
      <trkpt lat="44.83901" lon="4.6386">
        <ele>435.4</ele>
        <time>2019-11-09T09:31:54Z</time>
      </trkpt>
      <trkpt lat="44.83902" lon="4.63861">
        <ele>435.4</ele>
        <time>2019-11-09T09:32:02Z</time>
      </trkpt>
      <trkpt lat="44.83902" lon="4.63861">
        <ele>435.4</ele>
        <time>2019-11-09T09:32:04Z</time>
      </trkpt>
      <trkpt lat="44.83903" lon="4.63863">
        <ele>434.8</ele>
        <time>2019-11-09T09:32:11Z</time>
      </trkpt>
      <trkpt lat="44.83902" lon="4.63865">
        <ele>434.8</ele>
        <time>2019-11-09T09:32:12Z</time>
      </trkpt>
      <trkpt lat="44.83899" lon="4.63875">
        <ele>433.6</ele>
        <time>2019-11-09T09:32:15Z</time>
      </trkpt>
      <trkpt lat="44.83897" lon="4.63879">
        <ele>433</ele>
        <time>2019-11-09T09:32:16Z</time>
      </trkpt>
      <trkpt lat="44.83896" lon="4.63883">
        <ele>432.4</ele>
        <time>2019-11-09T09:32:17Z</time>
      </trkpt>
      <trkpt lat="44.83893" lon="4.63888">
        <ele>431.8</ele>
        <time>2019-11-09T09:32:18Z</time>
      </trkpt>
      <trkpt lat="44.83891" lon="4.63892">
        <ele>431.2</ele>
        <time>2019-11-09T09:32:19Z</time>
      </trkpt>
      <trkpt lat="44.83886" lon="4.63902">
        <ele>430.2</ele>
        <time>2019-11-09T09:32:21Z</time>
      </trkpt>
      <trkpt lat="44.8388" lon="4.63912">
        <ele>428.6</ele>
        <time>2019-11-09T09:32:23Z</time>
      </trkpt>
      <trkpt lat="44.83877" lon="4.63917">
        <ele>428</ele>
        <time>2019-11-09T09:32:24Z</time>
      </trkpt>
      <trkpt lat="44.83871" lon="4.63931">
        <ele>427.2</ele>
        <time>2019-11-09T09:32:26Z</time>
      </trkpt>
      <trkpt lat="44.83868" lon="4.63938">
        <ele>426.6</ele>
        <time>2019-11-09T09:32:27Z</time>
      </trkpt>
      <trkpt lat="44.83866" lon="4.63945">
        <ele>426</ele>
        <time>2019-11-09T09:32:28Z</time>
      </trkpt>
      <trkpt lat="44.83864" lon="4.6395">
        <ele>425.4</ele>
        <time>2019-11-09T09:32:29Z</time>
      </trkpt>
      <trkpt lat="44.83864" lon="4.63956">
        <ele>425.2</ele>
        <time>2019-11-09T09:32:30Z</time>
      </trkpt>
      <trkpt lat="44.83864" lon="4.63961">
        <ele>424.8</ele>
        <time>2019-11-09T09:32:31Z</time>
      </trkpt>
      <trkpt lat="44.83865" lon="4.63973">
        <ele>423.6</ele>
        <time>2019-11-09T09:32:33Z</time>
      </trkpt>
      <trkpt lat="44.83865" lon="4.63985">
        <ele>422.2</ele>
        <time>2019-11-09T09:32:35Z</time>
      </trkpt>
      <trkpt lat="44.83867" lon="4.63989">
        <ele>421.2</ele>
        <time>2019-11-09T09:32:36Z</time>
      </trkpt>
      <trkpt lat="44.83871" lon="4.63997">
        <ele>419.8</ele>
        <time>2019-11-09T09:32:38Z</time>
      </trkpt>
      <trkpt lat="44.83878" lon="4.64008">
        <ele>418.6</ele>
        <time>2019-11-09T09:32:41Z</time>
      </trkpt>
      <trkpt lat="44.83881" lon="4.64012">
        <ele>417.6</ele>
        <time>2019-11-09T09:32:43Z</time>
      </trkpt>
      <trkpt lat="44.83884" lon="4.64015">
        <ele>416</ele>
        <time>2019-11-09T09:32:45Z</time>
      </trkpt>
      <trkpt lat="44.83876" lon="4.64016">
        <ele>414.8</ele>
        <time>2019-11-09T09:32:49Z</time>
      </trkpt>
      <trkpt lat="44.8387" lon="4.64017">
        <ele>413.8</ele>
        <time>2019-11-09T09:32:51Z</time>
      </trkpt>
      <trkpt lat="44.83868" lon="4.64018">
        <ele>412.4</ele>
        <time>2019-11-09T09:32:52Z</time>
      </trkpt>
      <trkpt lat="44.83866" lon="4.64019">
        <ele>411.2</ele>
        <time>2019-11-09T09:32:53Z</time>
      </trkpt>
      <trkpt lat="44.83865" lon="4.64019">
        <ele>410.2</ele>
        <time>2019-11-09T09:32:55Z</time>
      </trkpt>
      <trkpt lat="44.83865" lon="4.6402">
        <ele>410</ele>
        <time>2019-11-09T09:32:56Z</time>
      </trkpt>
      <trkpt lat="44.83865" lon="4.64024">
        <ele>409.6</ele>
        <time>2019-11-09T09:32:58Z</time>
      </trkpt>
      <trkpt lat="44.83865" lon="4.64025">
        <ele>409.2</ele>
        <time>2019-11-09T09:32:59Z</time>
      </trkpt>
      <trkpt lat="44.83867" lon="4.64028">
        <ele>408.2</ele>
        <time>2019-11-09T09:33:03Z</time>
      </trkpt>
      <trkpt lat="44.83869" lon="4.64029">
        <ele>408</ele>
        <time>2019-11-09T09:33:04Z</time>
      </trkpt>
      <trkpt lat="44.83876" lon="4.64031">
        <ele>407.6</ele>
        <time>2019-11-09T09:33:08Z</time>
      </trkpt>
      <trkpt lat="44.83883" lon="4.64033">
        <ele>407.2</ele>
        <time>2019-11-09T09:33:11Z</time>
      </trkpt>
      <trkpt lat="44.83885" lon="4.64033">
        <ele>407</ele>
        <time>2019-11-09T09:33:12Z</time>
      </trkpt>
      <trkpt lat="44.83888" lon="4.64034">
        <ele>406.6</ele>
        <time>2019-11-09T09:33:13Z</time>
      </trkpt>
      <trkpt lat="44.83893" lon="4.64033">
        <ele>405.6</ele>
        <time>2019-11-09T09:33:15Z</time>
      </trkpt>
      <trkpt lat="44.83895" lon="4.64035">
        <ele>404.6</ele>
        <time>2019-11-09T09:33:17Z</time>
      </trkpt>
      <trkpt lat="44.83896" lon="4.64036">
        <ele>404.4</ele>
        <time>2019-11-09T09:33:18Z</time>
      </trkpt>
      <trkpt lat="44.83896" lon="4.64036">
        <ele>403.8</ele>
        <time>2019-11-09T09:33:21Z</time>
      </trkpt>
      <trkpt lat="44.83896" lon="4.64037">
        <ele>403.6</ele>
        <time>2019-11-09T09:33:24Z</time>
      </trkpt>
      <trkpt lat="44.83894" lon="4.64039">
        <ele>403.4</ele>
        <time>2019-11-09T09:33:29Z</time>
      </trkpt>
      <trkpt lat="44.83892" lon="4.64039">
        <ele>403.4</ele>
        <time>2019-11-09T09:33:30Z</time>
      </trkpt>
      <trkpt lat="44.83891" lon="4.6404">
        <ele>403.2</ele>
        <time>2019-11-09T09:33:31Z</time>
      </trkpt>
      <trkpt lat="44.83885" lon="4.64043">
        <ele>402.4</ele>
        <time>2019-11-09T09:33:34Z</time>
      </trkpt>
      <trkpt lat="44.83882" lon="4.64043">
        <ele>402</ele>
        <time>2019-11-09T09:33:35Z</time>
      </trkpt>
      <trkpt lat="44.83879" lon="4.64044">
        <ele>400.8</ele>
        <time>2019-11-09T09:33:37Z</time>
      </trkpt>
      <trkpt lat="44.83874" lon="4.64046">
        <ele>399.4</ele>
        <time>2019-11-09T09:33:39Z</time>
      </trkpt>
      <trkpt lat="44.83869" lon="4.6405">
        <ele>398.4</ele>
        <time>2019-11-09T09:33:41Z</time>
      </trkpt>
      <trkpt lat="44.83866" lon="4.64055">
        <ele>397.8</ele>
        <time>2019-11-09T09:33:42Z</time>
      </trkpt>
      <trkpt lat="44.83862" lon="4.64063">
        <ele>396.4</ele>
        <time>2019-11-09T09:33:44Z</time>
      </trkpt>
      <trkpt lat="44.83861" lon="4.64067">
        <ele>395.8</ele>
        <time>2019-11-09T09:33:45Z</time>
      </trkpt>
      <trkpt lat="44.83861" lon="4.6407">
        <ele>395.2</ele>
        <time>2019-11-09T09:33:46Z</time>
      </trkpt>
      <trkpt lat="44.83859" lon="4.64081">
        <ele>393.8</ele>
        <time>2019-11-09T09:33:49Z</time>
      </trkpt>
      <trkpt lat="44.83858" lon="4.64083">
        <ele>393.4</ele>
        <time>2019-11-09T09:33:50Z</time>
      </trkpt>
      <trkpt lat="44.83858" lon="4.64086">
        <ele>392.4</ele>
        <time>2019-11-09T09:33:52Z</time>
      </trkpt>
      <trkpt lat="44.83858" lon="4.64089">
        <ele>392.2</ele>
        <time>2019-11-09T09:33:55Z</time>
      </trkpt>
      <trkpt lat="44.83857" lon="4.64093">
        <ele>392</ele>
        <time>2019-11-09T09:33:57Z</time>
      </trkpt>
      <trkpt lat="44.83857" lon="4.64097">
        <ele>391.4</ele>
        <time>2019-11-09T09:33:59Z</time>
      </trkpt>
      <trkpt lat="44.83858" lon="4.64098">
        <ele>391</ele>
        <time>2019-11-09T09:34:00Z</time>
      </trkpt>
      <trkpt lat="44.83862" lon="4.64103">
        <ele>389.8</ele>
        <time>2019-11-09T09:34:02Z</time>
      </trkpt>
      <trkpt lat="44.83862" lon="4.64107">
        <ele>389.4</ele>
        <time>2019-11-09T09:34:03Z</time>
      </trkpt>
      <trkpt lat="44.8386" lon="4.64115">
        <ele>388.8</ele>
        <time>2019-11-09T09:34:05Z</time>
      </trkpt>
      <trkpt lat="44.83858" lon="4.64124">
        <ele>388</ele>
        <time>2019-11-09T09:34:07Z</time>
      </trkpt>
      <trkpt lat="44.83856" lon="4.64126">
        <ele>387.6</ele>
        <time>2019-11-09T09:34:08Z</time>
      </trkpt>
      <trkpt lat="44.83846" lon="4.64128">
        <ele>386.4</ele>
        <time>2019-11-09T09:34:11Z</time>
      </trkpt>
      <trkpt lat="44.83839" lon="4.64131">
        <ele>384.6</ele>
        <time>2019-11-09T09:34:13Z</time>
      </trkpt>
      <trkpt lat="44.83833" lon="4.64139">
        <ele>382.8</ele>
        <time>2019-11-09T09:34:15Z</time>
      </trkpt>
      <trkpt lat="44.83829" lon="4.64152">
        <ele>380.6</ele>
        <time>2019-11-09T09:34:17Z</time>
      </trkpt>
      <trkpt lat="44.83828" lon="4.64159">
        <ele>379.6</ele>
        <time>2019-11-09T09:34:18Z</time>
      </trkpt>
      <trkpt lat="44.83828" lon="4.64165">
        <ele>378.6</ele>
        <time>2019-11-09T09:34:19Z</time>
      </trkpt>
      <trkpt lat="44.83826" lon="4.64171">
        <ele>377.8</ele>
        <time>2019-11-09T09:34:20Z</time>
      </trkpt>
      <trkpt lat="44.83825" lon="4.64177">
        <ele>377.2</ele>
        <time>2019-11-09T09:34:21Z</time>
      </trkpt>
      <trkpt lat="44.83823" lon="4.64184">
        <ele>376.8</ele>
        <time>2019-11-09T09:34:22Z</time>
      </trkpt>
      <trkpt lat="44.83819" lon="4.64196">
        <ele>376</ele>
        <time>2019-11-09T09:34:24Z</time>
      </trkpt>
      <trkpt lat="44.83813" lon="4.64201">
        <ele>375.8</ele>
        <time>2019-11-09T09:34:26Z</time>
      </trkpt>
      <trkpt lat="44.83803" lon="4.64199">
        <ele>374.6</ele>
        <time>2019-11-09T09:34:29Z</time>
      </trkpt>
      <trkpt lat="44.838" lon="4.64197">
        <ele>372.6</ele>
        <time>2019-11-09T09:34:30Z</time>
      </trkpt>
      <trkpt lat="44.83797" lon="4.64194">
        <ele>370.8</ele>
        <time>2019-11-09T09:34:31Z</time>
      </trkpt>
      <trkpt lat="44.83793" lon="4.64191">
        <ele>369.8</ele>
        <time>2019-11-09T09:34:32Z</time>
      </trkpt>
      <trkpt lat="44.8379" lon="4.64188">
        <ele>368.6</ele>
        <time>2019-11-09T09:34:33Z</time>
      </trkpt>
      <trkpt lat="44.83785" lon="4.64186">
        <ele>367.4</ele>
        <time>2019-11-09T09:34:34Z</time>
      </trkpt>
      <trkpt lat="44.83776" lon="4.64183">
        <ele>365.8</ele>
        <time>2019-11-09T09:34:36Z</time>
      </trkpt>
      <trkpt lat="44.83767" lon="4.6418">
        <ele>364.4</ele>
        <time>2019-11-09T09:34:38Z</time>
      </trkpt>
      <trkpt lat="44.83759" lon="4.64178">
        <ele>363</ele>
        <time>2019-11-09T09:34:40Z</time>
      </trkpt>
      <trkpt lat="44.83756" lon="4.64176">
        <ele>362</ele>
        <time>2019-11-09T09:34:41Z</time>
      </trkpt>
      <trkpt lat="44.83752" lon="4.64174">
        <ele>361.2</ele>
        <time>2019-11-09T09:34:42Z</time>
      </trkpt>
      <trkpt lat="44.83747" lon="4.64171">
        <ele>360</ele>
        <time>2019-11-09T09:34:44Z</time>
      </trkpt>
      <trkpt lat="44.83746" lon="4.6417">
        <ele>359.4</ele>
        <time>2019-11-09T09:34:45Z</time>
      </trkpt>
      <trkpt lat="44.83746" lon="4.64172">
        <ele>359</ele>
        <time>2019-11-09T09:34:46Z</time>
      </trkpt>
      <trkpt lat="44.83745" lon="4.64173">
        <ele>358.6</ele>
        <time>2019-11-09T09:34:47Z</time>
      </trkpt>
      <trkpt lat="44.83748" lon="4.64175">
        <ele>357.6</ele>
        <time>2019-11-09T09:34:49Z</time>
      </trkpt>
      <trkpt lat="44.83754" lon="4.64179">
        <ele>356.2</ele>
        <time>2019-11-09T09:34:51Z</time>
      </trkpt>
      <trkpt lat="44.8376" lon="4.64184">
        <ele>355.2</ele>
        <time>2019-11-09T09:34:53Z</time>
      </trkpt>
      <trkpt lat="44.83764" lon="4.64186">
        <ele>354.4</ele>
        <time>2019-11-09T09:34:54Z</time>
      </trkpt>
      <trkpt lat="44.83767" lon="4.64189">
        <ele>353.6</ele>
        <time>2019-11-09T09:34:55Z</time>
      </trkpt>
      <trkpt lat="44.83773" lon="4.64197">
        <ele>351.8</ele>
        <time>2019-11-09T09:34:57Z</time>
      </trkpt>
      <trkpt lat="44.83778" lon="4.64205">
        <ele>350.2</ele>
        <time>2019-11-09T09:34:59Z</time>
      </trkpt>
      <trkpt lat="44.83783" lon="4.64211">
        <ele>348.8</ele>
        <time>2019-11-09T09:35:01Z</time>
      </trkpt>
      <trkpt lat="44.83787" lon="4.64221">
        <ele>347.2</ele>
        <time>2019-11-09T09:35:03Z</time>
      </trkpt>
      <trkpt lat="44.83787" lon="4.64228">
        <ele>346.6</ele>
        <time>2019-11-09T09:35:04Z</time>
      </trkpt>
      <trkpt lat="44.83783" lon="4.64234">
        <ele>346</ele>
        <time>2019-11-09T09:35:06Z</time>
      </trkpt>
      <trkpt lat="44.83779" lon="4.64232">
        <ele>345.4</ele>
        <time>2019-11-09T09:35:08Z</time>
      </trkpt>
      <trkpt lat="44.83772" lon="4.64229">
        <ele>344.8</ele>
        <time>2019-11-09T09:35:11Z</time>
      </trkpt>
      <trkpt lat="44.83765" lon="4.64224">
        <ele>343.4</ele>
        <time>2019-11-09T09:35:13Z</time>
      </trkpt>
      <trkpt lat="44.83761" lon="4.64221">
        <ele>342</ele>
        <time>2019-11-09T09:35:14Z</time>
      </trkpt>
      <trkpt lat="44.83756" lon="4.64218">
        <ele>340.8</ele>
        <time>2019-11-09T09:35:15Z</time>
      </trkpt>
      <trkpt lat="44.83751" lon="4.64216">
        <ele>339.6</ele>
        <time>2019-11-09T09:35:16Z</time>
      </trkpt>
      <trkpt lat="44.83746" lon="4.64215">
        <ele>338.4</ele>
        <time>2019-11-09T09:35:17Z</time>
      </trkpt>
      <trkpt lat="44.83741" lon="4.64216">
        <ele>337.4</ele>
        <time>2019-11-09T09:35:18Z</time>
      </trkpt>
      <trkpt lat="44.8373" lon="4.64223">
        <ele>336</ele>
        <time>2019-11-09T09:35:20Z</time>
      </trkpt>
      <trkpt lat="44.83725" lon="4.64226">
        <ele>335.4</ele>
        <time>2019-11-09T09:35:21Z</time>
      </trkpt>
      <trkpt lat="44.83721" lon="4.64226">
        <ele>335</ele>
        <time>2019-11-09T09:35:22Z</time>
      </trkpt>
      <trkpt lat="44.83713" lon="4.64215">
        <ele>333.2</ele>
        <time>2019-11-09T09:35:25Z</time>
      </trkpt>
      <trkpt lat="44.83708" lon="4.64213">
        <ele>332.6</ele>
        <time>2019-11-09T09:35:26Z</time>
      </trkpt>
      <trkpt lat="44.83703" lon="4.6421">
        <ele>331.8</ele>
        <time>2019-11-09T09:35:27Z</time>
      </trkpt>
      <trkpt lat="44.83698" lon="4.64208">
        <ele>330.6</ele>
        <time>2019-11-09T09:35:28Z</time>
      </trkpt>
      <trkpt lat="44.83693" lon="4.64206">
        <ele>329</ele>
        <time>2019-11-09T09:35:29Z</time>
      </trkpt>
      <trkpt lat="44.83688" lon="4.64204">
        <ele>327.6</ele>
        <time>2019-11-09T09:35:30Z</time>
      </trkpt>
      <trkpt lat="44.83684" lon="4.642">
        <ele>326.4</ele>
        <time>2019-11-09T09:35:31Z</time>
      </trkpt>
      <trkpt lat="44.83679" lon="4.64196">
        <ele>325.4</ele>
        <time>2019-11-09T09:35:32Z</time>
      </trkpt>
      <trkpt lat="44.83677" lon="4.64191">
        <ele>324.6</ele>
        <time>2019-11-09T09:35:33Z</time>
      </trkpt>
      <trkpt lat="44.83675" lon="4.64185">
        <ele>324.2</ele>
        <time>2019-11-09T09:35:34Z</time>
      </trkpt>
      <trkpt lat="44.83673" lon="4.64179">
        <ele>323.8</ele>
        <time>2019-11-09T09:35:35Z</time>
      </trkpt>
      <trkpt lat="44.83671" lon="4.64173">
        <ele>323.6</ele>
        <time>2019-11-09T09:35:36Z</time>
      </trkpt>
      <trkpt lat="44.83669" lon="4.64162">
        <ele>322.4</ele>
        <time>2019-11-09T09:35:38Z</time>
      </trkpt>
      <trkpt lat="44.83668" lon="4.64151">
        <ele>321.4</ele>
        <time>2019-11-09T09:35:40Z</time>
      </trkpt>
      <trkpt lat="44.83669" lon="4.64146">
        <ele>321</ele>
        <time>2019-11-09T09:35:41Z</time>
      </trkpt>
      <trkpt lat="44.83669" lon="4.64143">
        <ele>320.2</ele>
        <time>2019-11-09T09:35:42Z</time>
      </trkpt>
      <trkpt lat="44.83668" lon="4.64142">
        <ele>319.6</ele>
        <time>2019-11-09T09:35:43Z</time>
      </trkpt>
      <trkpt lat="44.83665" lon="4.64145">
        <ele>318.8</ele>
        <time>2019-11-09T09:35:45Z</time>
      </trkpt>
      <trkpt lat="44.83663" lon="4.6415">
        <ele>318.4</ele>
        <time>2019-11-09T09:35:46Z</time>
      </trkpt>
      <trkpt lat="44.83659" lon="4.6416">
        <ele>316.8</ele>
        <time>2019-11-09T09:35:48Z</time>
      </trkpt>
      <trkpt lat="44.83657" lon="4.64166">
        <ele>316.4</ele>
        <time>2019-11-09T09:35:49Z</time>
      </trkpt>
      <trkpt lat="44.83654" lon="4.6418">
        <ele>315.6</ele>
        <time>2019-11-09T09:35:51Z</time>
      </trkpt>
      <trkpt lat="44.83652" lon="4.64195">
        <ele>314.4</ele>
        <time>2019-11-09T09:35:53Z</time>
      </trkpt>
      <trkpt lat="44.83652" lon="4.64205">
        <ele>313</ele>
        <time>2019-11-09T09:35:55Z</time>
      </trkpt>
      <trkpt lat="44.83652" lon="4.64213">
        <ele>311.8</ele>
        <time>2019-11-09T09:35:57Z</time>
      </trkpt>
      <trkpt lat="44.83653" lon="4.64219">
        <ele>310.6</ele>
        <time>2019-11-09T09:35:59Z</time>
      </trkpt>
      <trkpt lat="44.83653" lon="4.64222">
        <ele>310</ele>
        <time>2019-11-09T09:36:00Z</time>
      </trkpt>
      <trkpt lat="44.83653" lon="4.64225">
        <ele>309.4</ele>
        <time>2019-11-09T09:36:01Z</time>
      </trkpt>
      <trkpt lat="44.83653" lon="4.64228">
        <ele>309</ele>
        <time>2019-11-09T09:36:02Z</time>
      </trkpt>
      <trkpt lat="44.83654" lon="4.64231">
        <ele>308.2</ele>
        <time>2019-11-09T09:36:03Z</time>
      </trkpt>
      <trkpt lat="44.83656" lon="4.64233">
        <ele>307.8</ele>
        <time>2019-11-09T09:36:04Z</time>
      </trkpt>
      <trkpt lat="44.83661" lon="4.64237">
        <ele>306.8</ele>
        <time>2019-11-09T09:36:06Z</time>
      </trkpt>
      <trkpt lat="44.83663" lon="4.64239">
        <ele>306.2</ele>
        <time>2019-11-09T09:36:07Z</time>
      </trkpt>
      <trkpt lat="44.83665" lon="4.64242">
        <ele>305.6</ele>
        <time>2019-11-09T09:36:08Z</time>
      </trkpt>
      <trkpt lat="44.83666" lon="4.64245">
        <ele>305.2</ele>
        <time>2019-11-09T09:36:09Z</time>
      </trkpt>
      <trkpt lat="44.83671" lon="4.64249">
        <ele>304</ele>
        <time>2019-11-09T09:36:11Z</time>
      </trkpt>
      <trkpt lat="44.83676" lon="4.64253">
        <ele>302.8</ele>
        <time>2019-11-09T09:36:13Z</time>
      </trkpt>
      <trkpt lat="44.83678" lon="4.64256">
        <ele>302</ele>
        <time>2019-11-09T09:36:14Z</time>
      </trkpt>
      <trkpt lat="44.8368" lon="4.64259">
        <ele>301.2</ele>
        <time>2019-11-09T09:36:15Z</time>
      </trkpt>
      <trkpt lat="44.83682" lon="4.64261">
        <ele>300.6</ele>
        <time>2019-11-09T09:36:16Z</time>
      </trkpt>
      <trkpt lat="44.83682" lon="4.64264">
        <ele>300</ele>
        <time>2019-11-09T09:36:18Z</time>
      </trkpt>
      <trkpt lat="44.83681" lon="4.64264">
        <ele>299.6</ele>
        <time>2019-11-09T09:36:19Z</time>
      </trkpt>
      <trkpt lat="44.83678" lon="4.64263">
        <ele>299.2</ele>
        <time>2019-11-09T09:36:21Z</time>
      </trkpt>
      <trkpt lat="44.83677" lon="4.64262">
        <ele>299</ele>
        <time>2019-11-09T09:36:22Z</time>
      </trkpt>
      <trkpt lat="44.83675" lon="4.64261">
        <ele>299</ele>
        <time>2019-11-09T09:36:23Z</time>
      </trkpt>
      <trkpt lat="44.83668" lon="4.6426">
        <ele>297.6</ele>
        <time>2019-11-09T09:36:26Z</time>
      </trkpt>
      <trkpt lat="44.83666" lon="4.6426">
        <ele>297</ele>
        <time>2019-11-09T09:36:27Z</time>
      </trkpt>
      <trkpt lat="44.83665" lon="4.6426">
        <ele>296.6</ele>
        <time>2019-11-09T09:36:28Z</time>
      </trkpt>
      <trkpt lat="44.83658" lon="4.64261">
        <ele>295.2</ele>
        <time>2019-11-09T09:36:31Z</time>
      </trkpt>
      <trkpt lat="44.83656" lon="4.64261">
        <ele>294.6</ele>
        <time>2019-11-09T09:36:32Z</time>
      </trkpt>
      <trkpt lat="44.83653" lon="4.64261">
        <ele>294</ele>
        <time>2019-11-09T09:36:33Z</time>
      </trkpt>
      <trkpt lat="44.83648" lon="4.64261">
        <ele>293.6</ele>
        <time>2019-11-09T09:36:35Z</time>
      </trkpt>
      <trkpt lat="44.83642" lon="4.6426">
        <ele>293</ele>
        <time>2019-11-09T09:36:37Z</time>
      </trkpt>
      <trkpt lat="44.83636" lon="4.64257">
        <ele>291.8</ele>
        <time>2019-11-09T09:36:39Z</time>
      </trkpt>
      <trkpt lat="44.83631" lon="4.64254">
        <ele>290.2</ele>
        <time>2019-11-09T09:36:41Z</time>
      </trkpt>
      <trkpt lat="44.83627" lon="4.64252">
        <ele>288.8</ele>
        <time>2019-11-09T09:36:43Z</time>
      </trkpt>
      <trkpt lat="44.83624" lon="4.64251">
        <ele>288</ele>
        <time>2019-11-09T09:36:44Z</time>
      </trkpt>
      <trkpt lat="44.83622" lon="4.6425">
        <ele>287.4</ele>
        <time>2019-11-09T09:36:45Z</time>
      </trkpt>
      <trkpt lat="44.8362" lon="4.64248">
        <ele>286.6</ele>
        <time>2019-11-09T09:36:46Z</time>
      </trkpt>
      <trkpt lat="44.83617" lon="4.64247">
        <ele>285.8</ele>
        <time>2019-11-09T09:36:47Z</time>
      </trkpt>
      <trkpt lat="44.83613" lon="4.64245">
        <ele>284.4</ele>
        <time>2019-11-09T09:36:49Z</time>
      </trkpt>
      <trkpt lat="44.83612" lon="4.64244">
        <ele>284</ele>
        <time>2019-11-09T09:36:50Z</time>
      </trkpt>
      <trkpt lat="44.83611" lon="4.64243">
        <ele>283.4</ele>
        <time>2019-11-09T09:36:52Z</time>
      </trkpt>
      <trkpt lat="44.83609" lon="4.64244">
        <ele>283.2</ele>
        <time>2019-11-09T09:36:54Z</time>
      </trkpt>
      <trkpt lat="44.83608" lon="4.64246">
        <ele>282.6</ele>
        <time>2019-11-09T09:36:56Z</time>
      </trkpt>
      <trkpt lat="44.8361" lon="4.6425">
        <ele>282.2</ele>
        <time>2019-11-09T09:36:58Z</time>
      </trkpt>
      <trkpt lat="44.83611" lon="4.64252">
        <ele>281.8</ele>
        <time>2019-11-09T09:36:59Z</time>
      </trkpt>
      <trkpt lat="44.83614" lon="4.64256">
        <ele>281</ele>
        <time>2019-11-09T09:37:01Z</time>
      </trkpt>
      <trkpt lat="44.83617" lon="4.64261">
        <ele>280</ele>
        <time>2019-11-09T09:37:03Z</time>
      </trkpt>
      <trkpt lat="44.83619" lon="4.64263">
        <ele>279.4</ele>
        <time>2019-11-09T09:37:04Z</time>
      </trkpt>
      <trkpt lat="44.83621" lon="4.64265">
        <ele>279</ele>
        <time>2019-11-09T09:37:05Z</time>
      </trkpt>
      <trkpt lat="44.83623" lon="4.64267">
        <ele>278.6</ele>
        <time>2019-11-09T09:37:06Z</time>
      </trkpt>
      <trkpt lat="44.83626" lon="4.64271">
        <ele>277.8</ele>
        <time>2019-11-09T09:37:08Z</time>
      </trkpt>
      <trkpt lat="44.83625" lon="4.64272">
        <ele>277.6</ele>
        <time>2019-11-09T09:37:09Z</time>
      </trkpt>
      <trkpt lat="44.83619" lon="4.6427">
        <ele>276.4</ele>
        <time>2019-11-09T09:37:12Z</time>
      </trkpt>
      <trkpt lat="44.83615" lon="4.64269">
        <ele>275.8</ele>
        <time>2019-11-09T09:37:13Z</time>
      </trkpt>
      <trkpt lat="44.8361" lon="4.64269">
        <ele>275.2</ele>
        <time>2019-11-09T09:37:14Z</time>
      </trkpt>
      <trkpt lat="44.83605" lon="4.64268">
        <ele>274.6</ele>
        <time>2019-11-09T09:37:15Z</time>
      </trkpt>
      <trkpt lat="44.836" lon="4.64266">
        <ele>274</ele>
        <time>2019-11-09T09:37:16Z</time>
      </trkpt>
      <trkpt lat="44.83596" lon="4.64263">
        <ele>273.2</ele>
        <time>2019-11-09T09:37:17Z</time>
      </trkpt>
      <trkpt lat="44.83592" lon="4.64261">
        <ele>272.6</ele>
        <time>2019-11-09T09:37:18Z</time>
      </trkpt>
      <trkpt lat="44.83587" lon="4.64257">
        <ele>271.2</ele>
        <time>2019-11-09T09:37:20Z</time>
      </trkpt>
      <trkpt lat="44.83585" lon="4.64255">
        <ele>270.2</ele>
        <time>2019-11-09T09:37:21Z</time>
      </trkpt>
      <trkpt lat="44.83583" lon="4.64253">
        <ele>269.6</ele>
        <time>2019-11-09T09:37:22Z</time>
      </trkpt>
      <trkpt lat="44.83581" lon="4.64252">
        <ele>269</ele>
        <time>2019-11-09T09:37:23Z</time>
      </trkpt>
      <trkpt lat="44.8358" lon="4.64252">
        <ele>268.6</ele>
        <time>2019-11-09T09:37:24Z</time>
      </trkpt>
      <trkpt lat="44.83579" lon="4.64253">
        <ele>268.2</ele>
        <time>2019-11-09T09:37:25Z</time>
      </trkpt>
      <trkpt lat="44.83578" lon="4.64254">
        <ele>268.2</ele>
        <time>2019-11-09T09:37:29Z</time>
      </trkpt>
      <trkpt lat="44.83578" lon="4.64255">
        <ele>268.2</ele>
        <time>2019-11-09T09:37:35Z</time>
      </trkpt>
      <trkpt lat="44.83579" lon="4.64255">
        <ele>267.8</ele>
        <time>2019-11-09T09:37:37Z</time>
      </trkpt>
      <trkpt lat="44.83579" lon="4.64255">
        <ele>267.6</ele>
        <time>2019-11-09T09:37:42Z</time>
      </trkpt>
      <trkpt lat="44.83579" lon="4.64256">
        <ele>267.6</ele>
        <time>2019-11-09T09:37:43Z</time>
      </trkpt>
      <trkpt lat="44.83579" lon="4.64255">
        <ele>267.8</ele>
        <time>2019-11-09T09:37:44Z</time>
      </trkpt>
      <trkpt lat="44.8358" lon="4.64256">
        <ele>268</ele>
        <time>2019-11-09T09:37:47Z</time>
      </trkpt>
      <trkpt lat="44.8358" lon="4.64257">
        <ele>268</ele>
        <time>2019-11-09T09:37:52Z</time>
      </trkpt>
      <trkpt lat="44.83581" lon="4.64257">
        <ele>267.8</ele>
        <time>2019-11-09T09:37:56Z</time>
      </trkpt>
      <trkpt lat="44.83581" lon="4.64256">
        <ele>267.6</ele>
        <time>2019-11-09T09:38:02Z</time>
      </trkpt>
      <trkpt lat="44.83582" lon="4.64255">
        <ele>267.4</ele>
        <time>2019-11-09T09:38:06Z</time>
      </trkpt>
      <trkpt lat="44.83583" lon="4.64257">
        <ele>267.6</ele>
        <time>2019-11-09T09:38:10Z</time>
      </trkpt>
      <trkpt lat="44.83582" lon="4.64257">
        <ele>267.6</ele>
        <time>2019-11-09T09:38:16Z</time>
      </trkpt>
      <trkpt lat="44.83581" lon="4.64257">
        <ele>267.6</ele>
        <time>2019-11-09T09:38:24Z</time>
      </trkpt>
      <trkpt lat="44.83581" lon="4.64257">
        <ele>267.6</ele>
        <time>2019-11-09T09:38:26Z</time>
      </trkpt>
      <trkpt lat="44.8358" lon="4.64257">
        <ele>267.8</ele>
        <time>2019-11-09T09:38:28Z</time>
      </trkpt>
      <trkpt lat="44.8358" lon="4.64257">
        <ele>267.8</ele>
        <time>2019-11-09T09:38:30Z</time>
      </trkpt>
      <trkpt lat="44.83579" lon="4.64257">
        <ele>267.8</ele>
        <time>2019-11-09T09:38:34Z</time>
      </trkpt>
      <trkpt lat="44.83579" lon="4.64257">
        <ele>267.6</ele>
        <time>2019-11-09T09:38:36Z</time>
      </trkpt>
      <trkpt lat="44.83579" lon="4.64257">
        <ele>267.8</ele>
        <time>2019-11-09T09:38:40Z</time>
      </trkpt>
      <trkpt lat="44.83579" lon="4.64257">
        <ele>267.8</ele>
        <time>2019-11-09T09:38:41Z</time>
      </trkpt>
      <trkpt lat="44.83579" lon="4.64257">
        <ele>267.8</ele>
        <time>2019-11-09T09:38:43Z</time>
      </trkpt>
      <trkpt lat="44.83579" lon="4.64257">
        <ele>267.8</ele>
        <time>2019-11-09T09:38:45Z</time>
      </trkpt>
      <trkpt lat="44.83579" lon="4.64257">
        <ele>267.6</ele>
        <time>2019-11-09T09:38:49Z</time>
      </trkpt>
      <trkpt lat="44.83579" lon="4.64257">
        <ele>267.6</ele>
        <time>2019-11-09T09:38:53Z</time>
      </trkpt>
      <trkpt lat="44.83579" lon="4.64257">
        <ele>267.6</ele>
        <time>2019-11-09T09:38:54Z</time>
      </trkpt>
      <trkpt lat="44.83578" lon="4.64258">
        <ele>267.6</ele>
        <time>2019-11-09T09:38:56Z</time>
      </trkpt>
      <trkpt lat="44.83578" lon="4.64258">
        <ele>267.6</ele>
        <time>2019-11-09T09:39:02Z</time>
      </trkpt>
      <trkpt lat="44.83578" lon="4.64258">
        <ele>267.6</ele>
        <time>2019-11-09T09:39:04Z</time>
      </trkpt>
      <trkpt lat="44.83578" lon="4.64258">
        <ele>267.6</ele>
        <time>2019-11-09T09:39:05Z</time>
      </trkpt>
      <trkpt lat="44.83578" lon="4.64258">
        <ele>267.6</ele>
        <time>2019-11-09T09:39:06Z</time>
      </trkpt>
      <trkpt lat="44.83578" lon="4.64258">
        <ele>267.6</ele>
        <time>2019-11-09T09:39:07Z</time>
      </trkpt>
      <trkpt lat="44.83578" lon="4.64258">
        <ele>267.6</ele>
        <time>2019-11-09T09:39:08Z</time>
      </trkpt>
      <trkpt lat="44.83578" lon="4.64258">
        <ele>267.6</ele>
        <time>2019-11-09T09:39:09Z</time>
      </trkpt>
      <trkpt lat="44.83578" lon="4.64258">
        <ele>267.6</ele>
        <time>2019-11-09T09:39:10Z</time>
      </trkpt>
      <trkpt lat="44.83578" lon="4.64258">
        <ele>267.6</ele>
        <time>2019-11-09T09:39:12Z</time>
      </trkpt>
      <trkpt lat="44.83578" lon="4.64258">
        <ele>267.6</ele>
        <time>2019-11-09T09:39:15Z</time>
      </trkpt>
      <trkpt lat="44.83578" lon="4.64258">
        <ele>267.6</ele>
        <time>2019-11-09T09:39:20Z</time>
      </trkpt>
      <trkpt lat="44.83578" lon="4.64259">
        <ele>267.6</ele>
        <time>2019-11-09T09:39:36Z</time>
      </trkpt>
      <trkpt lat="44.83578" lon="4.64259">
        <ele>267.6</ele>
        <time>2019-11-09T09:39:41Z</time>
      </trkpt>
      <trkpt lat="44.83578" lon="4.64259">
        <ele>267.6</ele>
        <time>2019-11-09T09:39:42Z</time>
      </trkpt>
      <trkpt lat="44.83578" lon="4.64258">
        <ele>267.6</ele>
        <time>2019-11-09T09:39:50Z</time>
      </trkpt>
      <trkpt lat="44.83578" lon="4.64258">
        <ele>267.6</ele>
        <time>2019-11-09T09:39:54Z</time>
      </trkpt>
      <trkpt lat="44.83578" lon="4.64258">
        <ele>267.6</ele>
        <time>2019-11-09T09:39:56Z</time>
      </trkpt>
      <trkpt lat="44.83578" lon="4.64258">
        <ele>267.6</ele>
        <time>2019-11-09T09:39:59Z</time>
      </trkpt>
      <trkpt lat="44.83578" lon="4.64258">
        <ele>267.6</ele>
        <time>2019-11-09T09:40:02Z</time>
      </trkpt>
      <trkpt lat="44.83578" lon="4.64258">
        <ele>267.6</ele>
        <time>2019-11-09T09:40:07Z</time>
      </trkpt>
      <trkpt lat="44.83578" lon="4.64258">
        <ele>267.6</ele>
        <time>2019-11-09T09:40:09Z</time>
      </trkpt>
      <trkpt lat="44.83578" lon="4.64258">
        <ele>267.6</ele>
        <time>2019-11-09T09:40:11Z</time>
      </trkpt>
      <trkpt lat="44.83578" lon="4.64258">
        <ele>267.6</ele>
        <time>2019-11-09T09:40:12Z</time>
      </trkpt>
      <trkpt lat="44.83578" lon="4.64258">
        <ele>267.6</ele>
        <time>2019-11-09T09:40:14Z</time>
      </trkpt>
      <trkpt lat="44.83578" lon="4.64258">
        <ele>267.6</ele>
        <time>2019-11-09T09:40:20Z</time>
      </trkpt>
      <trkpt lat="44.83578" lon="4.64258">
        <ele>267.6</ele>
        <time>2019-11-09T09:40:26Z</time>
      </trkpt>
      <trkpt lat="44.83579" lon="4.64258">
        <ele>267.6</ele>
        <time>2019-11-09T09:40:36Z</time>
      </trkpt>
      <trkpt lat="44.83579" lon="4.64258">
        <ele>267.6</ele>
        <time>2019-11-09T09:40:42Z</time>
      </trkpt>
      <trkpt lat="44.83579" lon="4.64258">
        <ele>267.6</ele>
        <time>2019-11-09T09:40:46Z</time>
      </trkpt>
      <trkpt lat="44.83579" lon="4.64258">
        <ele>267.6</ele>
        <time>2019-11-09T09:40:48Z</time>
      </trkpt>
      <trkpt lat="44.83579" lon="4.64258">
        <ele>267.6</ele>
        <time>2019-11-09T09:40:50Z</time>
      </trkpt>
      <trkpt lat="44.83579" lon="4.64258">
        <ele>267.6</ele>
        <time>2019-11-09T09:40:51Z</time>
      </trkpt>
      <trkpt lat="44.83579" lon="4.64258">
        <ele>267.6</ele>
        <time>2019-11-09T09:40:53Z</time>
      </trkpt>
      <trkpt lat="44.8358" lon="4.64258">
        <ele>267.6</ele>
        <time>2019-11-09T09:41:10Z</time>
      </trkpt>
      <trkpt lat="44.83579" lon="4.64258">
        <ele>267.6</ele>
        <time>2019-11-09T09:41:11Z</time>
      </trkpt>
      <trkpt lat="44.83579" lon="4.64257">
        <ele>267.6</ele>
        <time>2019-11-09T09:41:15Z</time>
      </trkpt>
      <trkpt lat="44.83579" lon="4.64258">
        <ele>267.6</ele>
        <time>2019-11-09T09:41:28Z</time>
      </trkpt>
      <trkpt lat="44.83579" lon="4.64258">
        <ele>267.6</ele>
        <time>2019-11-09T09:41:32Z</time>
      </trkpt>
      <trkpt lat="44.83579" lon="4.64258">
        <ele>267.6</ele>
        <time>2019-11-09T09:41:33Z</time>
      </trkpt>
      <trkpt lat="44.83579" lon="4.64258">
        <ele>267.6</ele>
        <time>2019-11-09T09:41:36Z</time>
      </trkpt>
      <trkpt lat="44.83579" lon="4.64258">
        <ele>267.6</ele>
        <time>2019-11-09T09:41:37Z</time>
      </trkpt>
      <trkpt lat="44.83579" lon="4.64258">
        <ele>267.6</ele>
        <time>2019-11-09T09:41:40Z</time>
      </trkpt>
      <trkpt lat="44.83579" lon="4.64258">
        <ele>267.6</ele>
        <time>2019-11-09T09:41:51Z</time>
      </trkpt>
      <trkpt lat="44.83579" lon="4.64258">
        <ele>267.6</ele>
        <time>2019-11-09T09:41:57Z</time>
      </trkpt>
      <trkpt lat="44.83579" lon="4.64259">
        <ele>267.6</ele>
        <time>2019-11-09T09:42:08Z</time>
      </trkpt>
      <trkpt lat="44.83579" lon="4.64259">
        <ele>267.6</ele>
        <time>2019-11-09T09:42:13Z</time>
      </trkpt>
      <trkpt lat="44.83579" lon="4.64258">
        <ele>267.6</ele>
        <time>2019-11-09T09:42:16Z</time>
      </trkpt>
      <trkpt lat="44.83579" lon="4.64258">
        <ele>267.6</ele>
        <time>2019-11-09T09:42:19Z</time>
      </trkpt>
      <trkpt lat="44.83579" lon="4.64259">
        <ele>267.6</ele>
        <time>2019-11-09T09:42:23Z</time>
      </trkpt>
      <trkpt lat="44.8358" lon="4.64258">
        <ele>267.6</ele>
        <time>2019-11-09T09:42:26Z</time>
      </trkpt>
      <trkpt lat="44.83579" lon="4.64257">
        <ele>267.6</ele>
        <time>2019-11-09T09:42:33Z</time>
      </trkpt>
      <trkpt lat="44.8358" lon="4.64257">
        <ele>267.6</ele>
        <time>2019-11-09T09:42:40Z</time>
      </trkpt>
      <trkpt lat="44.8358" lon="4.64257">
        <ele>267.6</ele>
        <time>2019-11-09T09:42:43Z</time>
      </trkpt>
      <trkpt lat="44.83581" lon="4.64258">
        <ele>267.6</ele>
        <time>2019-11-09T09:42:49Z</time>
      </trkpt>
      <trkpt lat="44.8358" lon="4.64259">
        <ele>267.6</ele>
        <time>2019-11-09T09:42:54Z</time>
      </trkpt>
      <trkpt lat="44.8358" lon="4.64259">
        <ele>267.6</ele>
        <time>2019-11-09T09:42:59Z</time>
      </trkpt>
      <trkpt lat="44.83579" lon="4.64259">
        <ele>267.6</ele>
        <time>2019-11-09T09:43:04Z</time>
      </trkpt>
      <trkpt lat="44.83579" lon="4.64259">
        <ele>267.6</ele>
        <time>2019-11-09T09:43:06Z</time>
      </trkpt>
      <trkpt lat="44.83579" lon="4.64259">
        <ele>267.6</ele>
        <time>2019-11-09T09:43:07Z</time>
      </trkpt>
      <trkpt lat="44.83579" lon="4.64259">
        <ele>267.6</ele>
        <time>2019-11-09T09:43:09Z</time>
      </trkpt>
      <trkpt lat="44.83579" lon="4.64259">
        <ele>267.6</ele>
        <time>2019-11-09T09:43:12Z</time>
      </trkpt>
      <trkpt lat="44.8358" lon="4.64259">
        <ele>267.6</ele>
        <time>2019-11-09T09:43:17Z</time>
      </trkpt>
      <trkpt lat="44.8358" lon="4.64259">
        <ele>267.6</ele>
        <time>2019-11-09T09:43:19Z</time>
      </trkpt>
      <trkpt lat="44.8358" lon="4.64259">
        <ele>267.6</ele>
        <time>2019-11-09T09:43:25Z</time>
      </trkpt>
      <trkpt lat="44.83579" lon="4.64259">
        <ele>267.6</ele>
        <time>2019-11-09T09:43:37Z</time>
      </trkpt>
      <trkpt lat="44.83579" lon="4.64259">
        <ele>267.6</ele>
        <time>2019-11-09T09:43:43Z</time>
      </trkpt>
      <trkpt lat="44.83579" lon="4.6426">
        <ele>267.6</ele>
        <time>2019-11-09T09:43:46Z</time>
      </trkpt>
      <trkpt lat="44.83579" lon="4.6426">
        <ele>267.6</ele>
        <time>2019-11-09T09:43:49Z</time>
      </trkpt>
      <trkpt lat="44.83579" lon="4.64259">
        <ele>267.6</ele>
        <time>2019-11-09T09:43:54Z</time>
      </trkpt>
      <trkpt lat="44.83579" lon="4.64259">
        <ele>267.6</ele>
        <time>2019-11-09T09:44:03Z</time>
      </trkpt>
      <trkpt lat="44.8358" lon="4.64257">
        <ele>267.6</ele>
        <time>2019-11-09T09:44:12Z</time>
      </trkpt>
      <trkpt lat="44.8358" lon="4.64258">
        <ele>267.6</ele>
        <time>2019-11-09T09:44:16Z</time>
      </trkpt>
      <trkpt lat="44.8358" lon="4.64258">
        <ele>267.6</ele>
        <time>2019-11-09T09:44:19Z</time>
      </trkpt>
      <trkpt lat="44.8358" lon="4.64258">
        <ele>267.6</ele>
        <time>2019-11-09T09:44:24Z</time>
      </trkpt>
      <trkpt lat="44.83579" lon="4.64258">
        <ele>267.6</ele>
        <time>2019-11-09T09:44:28Z</time>
      </trkpt>
      <trkpt lat="44.8358" lon="4.64259">
        <ele>267.6</ele>
        <time>2019-11-09T09:44:35Z</time>
      </trkpt>
      <trkpt lat="44.83579" lon="4.64259">
        <ele>267.6</ele>
        <time>2019-11-09T09:44:36Z</time>
      </trkpt>
      <trkpt lat="44.83579" lon="4.64259">
        <ele>267.6</ele>
        <time>2019-11-09T09:44:37Z</time>
      </trkpt>
      <trkpt lat="44.83579" lon="4.64258">
        <ele>267.6</ele>
        <time>2019-11-09T09:44:46Z</time>
      </trkpt>
      <trkpt lat="44.8358" lon="4.64258">
        <ele>267.6</ele>
        <time>2019-11-09T09:44:48Z</time>
      </trkpt>
      <trkpt lat="44.8358" lon="4.64258">
        <ele>267.6</ele>
        <time>2019-11-09T09:44:49Z</time>
      </trkpt>
      <trkpt lat="44.8358" lon="4.64259">
        <ele>267.6</ele>
        <time>2019-11-09T09:44:52Z</time>
      </trkpt>
      <trkpt lat="44.83579" lon="4.6426">
        <ele>267.6</ele>
        <time>2019-11-09T09:44:54Z</time>
      </trkpt>
      <trkpt lat="44.83579" lon="4.64261">
        <ele>267.6</ele>
        <time>2019-11-09T09:44:55Z</time>
      </trkpt>
      <trkpt lat="44.83576" lon="4.64274">
        <ele>268</ele>
        <time>2019-11-09T09:45:00Z</time>
      </trkpt>
      <trkpt lat="44.83577" lon="4.64276">
        <ele>268.4</ele>
        <time>2019-11-09T09:45:01Z</time>
      </trkpt>
      <trkpt lat="44.83577" lon="4.64278">
        <ele>268.6</ele>
        <time>2019-11-09T09:45:02Z</time>
      </trkpt>
      <trkpt lat="44.83578" lon="4.64282">
        <ele>268.6</ele>
        <time>2019-11-09T09:45:04Z</time>
      </trkpt>
      <trkpt lat="44.83577" lon="4.64284">
        <ele>268.4</ele>
        <time>2019-11-09T09:45:05Z</time>
      </trkpt>
      <trkpt lat="44.83576" lon="4.64289">
        <ele>268.2</ele>
        <time>2019-11-09T09:45:07Z</time>
      </trkpt>
      <trkpt lat="44.83574" lon="4.64299">
        <ele>268</ele>
        <time>2019-11-09T09:45:11Z</time>
      </trkpt>
      <trkpt lat="44.83572" lon="4.64306">
        <ele>268.2</ele>
        <time>2019-11-09T09:45:13Z</time>
      </trkpt>
      <trkpt lat="44.83566" lon="4.64337">
        <ele>268.4</ele>
        <time>2019-11-09T09:45:22Z</time>
      </trkpt>
      <trkpt lat="44.83561" lon="4.64363">
        <ele>268.6</ele>
        <time>2019-11-09T09:45:29Z</time>
      </trkpt>
      <trkpt lat="44.83558" lon="4.64374">
        <ele>268.4</ele>
        <time>2019-11-09T09:45:32Z</time>
      </trkpt>
      <trkpt lat="44.83554" lon="4.64383">
        <ele>268.2</ele>
        <time>2019-11-09T09:45:36Z</time>
      </trkpt>
      <trkpt lat="44.83552" lon="4.64385">
        <ele>268.2</ele>
        <time>2019-11-09T09:45:37Z</time>
      </trkpt>
      <trkpt lat="44.8355" lon="4.64387">
        <ele>268.2</ele>
        <time>2019-11-09T09:45:38Z</time>
      </trkpt>
      <trkpt lat="44.83541" lon="4.64393">
        <ele>268.8</ele>
        <time>2019-11-09T09:45:42Z</time>
      </trkpt>
      <trkpt lat="44.8353" lon="4.64396">
        <ele>269.6</ele>
        <time>2019-11-09T09:45:47Z</time>
      </trkpt>
      <trkpt lat="44.83523" lon="4.64397">
        <ele>270.2</ele>
        <time>2019-11-09T09:45:50Z</time>
      </trkpt>
      <trkpt lat="44.83511" lon="4.644">
        <ele>270.8</ele>
        <time>2019-11-09T09:45:55Z</time>
      </trkpt>
      <trkpt lat="44.83501" lon="4.64401">
        <ele>272</ele>
        <time>2019-11-09T09:46:00Z</time>
      </trkpt>
      <trkpt lat="44.83489" lon="4.64411">
        <ele>273</ele>
        <time>2019-11-09T09:46:07Z</time>
      </trkpt>
      <trkpt lat="44.83487" lon="4.64413">
        <ele>273.4</ele>
        <time>2019-11-09T09:46:08Z</time>
      </trkpt>
      <trkpt lat="44.83484" lon="4.64421">
        <ele>274.2</ele>
        <time>2019-11-09T09:46:11Z</time>
      </trkpt>
      <trkpt lat="44.83482" lon="4.64435">
        <ele>275</ele>
        <time>2019-11-09T09:46:15Z</time>
      </trkpt>
      <trkpt lat="44.83482" lon="4.64438">
        <ele>275.4</ele>
        <time>2019-11-09T09:46:16Z</time>
      </trkpt>
      <trkpt lat="44.83483" lon="4.64454">
        <ele>276</ele>
        <time>2019-11-09T09:46:21Z</time>
      </trkpt>
      <trkpt lat="44.83484" lon="4.64457">
        <ele>276.2</ele>
        <time>2019-11-09T09:46:22Z</time>
      </trkpt>
      <trkpt lat="44.83484" lon="4.64463">
        <ele>276.4</ele>
        <time>2019-11-09T09:46:24Z</time>
      </trkpt>
      <trkpt lat="44.83486" lon="4.64482">
        <ele>277.6</ele>
        <time>2019-11-09T09:46:30Z</time>
      </trkpt>
      <trkpt lat="44.83489" lon="4.64503">
        <ele>278.6</ele>
        <time>2019-11-09T09:46:37Z</time>
      </trkpt>
      <trkpt lat="44.83489" lon="4.64507">
        <ele>279</ele>
        <time>2019-11-09T09:46:38Z</time>
      </trkpt>
      <trkpt lat="44.83489" lon="4.64516">
        <ele>279.4</ele>
        <time>2019-11-09T09:46:41Z</time>
      </trkpt>
      <trkpt lat="44.8349" lon="4.64529">
        <ele>279.8</ele>
        <time>2019-11-09T09:46:45Z</time>
      </trkpt>
      <trkpt lat="44.83489" lon="4.64535">
        <ele>280</ele>
        <time>2019-11-09T09:46:47Z</time>
      </trkpt>
      <trkpt lat="44.83489" lon="4.64544">
        <ele>280.6</ele>
        <time>2019-11-09T09:46:50Z</time>
      </trkpt>
      <trkpt lat="44.83489" lon="4.64547">
        <ele>281</ele>
        <time>2019-11-09T09:46:51Z</time>
      </trkpt>
      <trkpt lat="44.83489" lon="4.6455">
        <ele>281.2</ele>
        <time>2019-11-09T09:46:52Z</time>
      </trkpt>
      <trkpt lat="44.83489" lon="4.64557">
        <ele>281.6</ele>
        <time>2019-11-09T09:46:54Z</time>
      </trkpt>
      <trkpt lat="44.83489" lon="4.64563">
        <ele>282.2</ele>
        <time>2019-11-09T09:46:56Z</time>
      </trkpt>
      <trkpt lat="44.83489" lon="4.64566">
        <ele>282.2</ele>
        <time>2019-11-09T09:46:57Z</time>
      </trkpt>
      <trkpt lat="44.83489" lon="4.64585">
        <ele>283.2</ele>
        <time>2019-11-09T09:47:03Z</time>
      </trkpt>
      <trkpt lat="44.83489" lon="4.64597">
        <ele>284.2</ele>
        <time>2019-11-09T09:47:07Z</time>
      </trkpt>
      <trkpt lat="44.83493" lon="4.64621">
        <ele>285.4</ele>
        <time>2019-11-09T09:47:15Z</time>
      </trkpt>
      <trkpt lat="44.83494" lon="4.64624">
        <ele>285.8</ele>
        <time>2019-11-09T09:47:16Z</time>
      </trkpt>
      <trkpt lat="44.83502" lon="4.6464">
        <ele>286.8</ele>
        <time>2019-11-09T09:47:22Z</time>
      </trkpt>
      <trkpt lat="44.83504" lon="4.64642">
        <ele>287.2</ele>
        <time>2019-11-09T09:47:23Z</time>
      </trkpt>
      <trkpt lat="44.83507" lon="4.64646">
        <ele>287.6</ele>
        <time>2019-11-09T09:47:25Z</time>
      </trkpt>
      <trkpt lat="44.8351" lon="4.6465">
        <ele>287.8</ele>
        <time>2019-11-09T09:47:27Z</time>
      </trkpt>
      <trkpt lat="44.83515" lon="4.64662">
        <ele>288.2</ele>
        <time>2019-11-09T09:47:31Z</time>
      </trkpt>
      <trkpt lat="44.83512" lon="4.64683">
        <ele>288</ele>
        <time>2019-11-09T09:47:37Z</time>
      </trkpt>
      <trkpt lat="44.835" lon="4.64694">
        <ele>288.8</ele>
        <time>2019-11-09T09:47:43Z</time>
      </trkpt>
      <trkpt lat="44.83498" lon="4.64695">
        <ele>289</ele>
        <time>2019-11-09T09:47:44Z</time>
      </trkpt>
      <trkpt lat="44.83484" lon="4.64704">
        <ele>289.6</ele>
        <time>2019-11-09T09:47:51Z</time>
      </trkpt>
      <trkpt lat="44.83481" lon="4.64709">
        <ele>290.4</ele>
        <time>2019-11-09T09:47:53Z</time>
      </trkpt>
      <trkpt lat="44.83475" lon="4.64719">
        <ele>291.4</ele>
        <time>2019-11-09T09:47:57Z</time>
      </trkpt>
      <trkpt lat="44.83474" lon="4.64722">
        <ele>291.4</ele>
        <time>2019-11-09T09:47:58Z</time>
      </trkpt>
      <trkpt lat="44.83471" lon="4.64728">
        <ele>291.6</ele>
        <time>2019-11-09T09:48:00Z</time>
      </trkpt>
      <trkpt lat="44.83466" lon="4.64745">
        <ele>292.2</ele>
        <time>2019-11-09T09:48:06Z</time>
      </trkpt>
      <trkpt lat="44.83465" lon="4.64748">
        <ele>292.6</ele>
        <time>2019-11-09T09:48:07Z</time>
      </trkpt>
      <trkpt lat="44.83463" lon="4.64761">
        <ele>293.4</ele>
        <time>2019-11-09T09:48:11Z</time>
      </trkpt>
      <trkpt lat="44.83463" lon="4.64764">
        <ele>293.6</ele>
        <time>2019-11-09T09:48:12Z</time>
      </trkpt>
      <trkpt lat="44.83462" lon="4.6477">
        <ele>294</ele>
        <time>2019-11-09T09:48:14Z</time>
      </trkpt>
      <trkpt lat="44.83461" lon="4.64792">
        <ele>294.6</ele>
        <time>2019-11-09T09:48:21Z</time>
      </trkpt>
      <trkpt lat="44.83462" lon="4.64795">
        <ele>294.8</ele>
        <time>2019-11-09T09:48:22Z</time>
      </trkpt>
      <trkpt lat="44.83464" lon="4.64813">
        <ele>295.4</ele>
        <time>2019-11-09T09:48:28Z</time>
      </trkpt>
      <trkpt lat="44.83465" lon="4.64824">
        <ele>295.8</ele>
        <time>2019-11-09T09:48:31Z</time>
      </trkpt>
      <trkpt lat="44.83467" lon="4.64843">
        <ele>296.6</ele>
        <time>2019-11-09T09:48:36Z</time>
      </trkpt>
      <trkpt lat="44.83469" lon="4.64857">
        <ele>296.8</ele>
        <time>2019-11-09T09:48:40Z</time>
      </trkpt>
      <trkpt lat="44.83467" lon="4.6487">
        <ele>297.2</ele>
        <time>2019-11-09T09:48:44Z</time>
      </trkpt>
      <trkpt lat="44.83463" lon="4.64879">
        <ele>297.8</ele>
        <time>2019-11-09T09:48:47Z</time>
      </trkpt>
      <trkpt lat="44.83459" lon="4.64887">
        <ele>298.2</ele>
        <time>2019-11-09T09:48:50Z</time>
      </trkpt>
      <trkpt lat="44.83453" lon="4.64898">
        <ele>298.8</ele>
        <time>2019-11-09T09:48:54Z</time>
      </trkpt>
      <trkpt lat="44.83445" lon="4.6491">
        <ele>300</ele>
        <time>2019-11-09T09:48:59Z</time>
      </trkpt>
      <trkpt lat="44.83436" lon="4.64926">
        <ele>301.2</ele>
        <time>2019-11-09T09:49:05Z</time>
      </trkpt>
      <trkpt lat="44.83431" lon="4.64934">
        <ele>301.6</ele>
        <time>2019-11-09T09:49:08Z</time>
      </trkpt>
      <trkpt lat="44.83423" lon="4.64946">
        <ele>302.2</ele>
        <time>2019-11-09T09:49:13Z</time>
      </trkpt>
      <trkpt lat="44.83418" lon="4.64953">
        <ele>302.8</ele>
        <time>2019-11-09T09:49:16Z</time>
      </trkpt>
      <trkpt lat="44.83412" lon="4.6496">
        <ele>303.4</ele>
        <time>2019-11-09T09:49:19Z</time>
      </trkpt>
      <trkpt lat="44.83401" lon="4.64974">
        <ele>304.4</ele>
        <time>2019-11-09T09:49:25Z</time>
      </trkpt>
      <trkpt lat="44.83399" lon="4.64976">
        <ele>304.6</ele>
        <time>2019-11-09T09:49:26Z</time>
      </trkpt>
      <trkpt lat="44.83388" lon="4.64989">
        <ele>305.6</ele>
        <time>2019-11-09T09:49:32Z</time>
      </trkpt>
      <trkpt lat="44.8338" lon="4.64998">
        <ele>306</ele>
        <time>2019-11-09T09:49:36Z</time>
      </trkpt>
      <trkpt lat="44.83374" lon="4.65004">
        <ele>306.6</ele>
        <time>2019-11-09T09:49:39Z</time>
      </trkpt>
      <trkpt lat="44.83358" lon="4.65018">
        <ele>307.6</ele>
        <time>2019-11-09T09:49:47Z</time>
      </trkpt>
      <trkpt lat="44.83343" lon="4.65028">
        <ele>308.6</ele>
        <time>2019-11-09T09:49:54Z</time>
      </trkpt>
      <trkpt lat="44.8334" lon="4.65029">
        <ele>308.8</ele>
        <time>2019-11-09T09:49:55Z</time>
      </trkpt>
      <trkpt lat="44.83323" lon="4.6504">
        <ele>309.6</ele>
        <time>2019-11-09T09:50:03Z</time>
      </trkpt>
      <trkpt lat="44.83317" lon="4.65044">
        <ele>310</ele>
        <time>2019-11-09T09:50:06Z</time>
      </trkpt>
      <trkpt lat="44.83311" lon="4.65053">
        <ele>310.2</ele>
        <time>2019-11-09T09:50:11Z</time>
      </trkpt>
      <trkpt lat="44.83312" lon="4.65058">
        <ele>310.4</ele>
        <time>2019-11-09T09:50:13Z</time>
      </trkpt>
      <trkpt lat="44.83315" lon="4.65061">
        <ele>310.4</ele>
        <time>2019-11-09T09:50:15Z</time>
      </trkpt>
      <trkpt lat="44.83317" lon="4.65061">
        <ele>310.4</ele>
        <time>2019-11-09T09:50:16Z</time>
      </trkpt>
      <trkpt lat="44.83325" lon="4.65057">
        <ele>311</ele>
        <time>2019-11-09T09:50:20Z</time>
      </trkpt>
      <trkpt lat="44.83328" lon="4.65054">
        <ele>311.2</ele>
        <time>2019-11-09T09:50:22Z</time>
      </trkpt>
      <trkpt lat="44.83336" lon="4.6505">
        <ele>312</ele>
        <time>2019-11-09T09:50:26Z</time>
      </trkpt>
      <trkpt lat="44.83342" lon="4.65047">
        <ele>312</ele>
        <time>2019-11-09T09:50:29Z</time>
      </trkpt>
      <trkpt lat="44.83351" lon="4.65043">
        <ele>313</ele>
        <time>2019-11-09T09:50:33Z</time>
      </trkpt>
      <trkpt lat="44.83353" lon="4.65042">
        <ele>313.2</ele>
        <time>2019-11-09T09:50:34Z</time>
      </trkpt>
      <trkpt lat="44.83367" lon="4.65033">
        <ele>314.2</ele>
        <time>2019-11-09T09:50:41Z</time>
      </trkpt>
      <trkpt lat="44.83373" lon="4.65028">
        <ele>314.6</ele>
        <time>2019-11-09T09:50:44Z</time>
      </trkpt>
      <trkpt lat="44.83383" lon="4.65019">
        <ele>314.8</ele>
        <time>2019-11-09T09:50:49Z</time>
      </trkpt>
      <trkpt lat="44.83393" lon="4.6501">
        <ele>315</ele>
        <time>2019-11-09T09:50:54Z</time>
      </trkpt>
      <trkpt lat="44.83395" lon="4.65008">
        <ele>315.2</ele>
        <time>2019-11-09T09:50:55Z</time>
      </trkpt>
      <trkpt lat="44.83404" lon="4.64999">
        <ele>316.4</ele>
        <time>2019-11-09T09:51:00Z</time>
      </trkpt>
      <trkpt lat="44.83417" lon="4.64987">
        <ele>317</ele>
        <time>2019-11-09T09:51:06Z</time>
      </trkpt>
      <trkpt lat="44.83427" lon="4.64979">
        <ele>317.4</ele>
        <time>2019-11-09T09:51:11Z</time>
      </trkpt>
      <trkpt lat="44.83436" lon="4.64971">
        <ele>318.4</ele>
        <time>2019-11-09T09:51:15Z</time>
      </trkpt>
      <trkpt lat="44.83438" lon="4.6497">
        <ele>318.6</ele>
        <time>2019-11-09T09:51:16Z</time>
      </trkpt>
      <trkpt lat="44.83449" lon="4.64961">
        <ele>319.4</ele>
        <time>2019-11-09T09:51:21Z</time>
      </trkpt>
      <trkpt lat="44.83458" lon="4.64954">
        <ele>319.8</ele>
        <time>2019-11-09T09:51:25Z</time>
      </trkpt>
      <trkpt lat="44.83468" lon="4.64944">
        <ele>320.4</ele>
        <time>2019-11-09T09:51:30Z</time>
      </trkpt>
      <trkpt lat="44.83478" lon="4.64931">
        <ele>320.8</ele>
        <time>2019-11-09T09:51:35Z</time>
      </trkpt>
      <trkpt lat="44.83485" lon="4.64921">
        <ele>321.4</ele>
        <time>2019-11-09T09:51:39Z</time>
      </trkpt>
      <trkpt lat="44.83495" lon="4.64908">
        <ele>322.6</ele>
        <time>2019-11-09T09:51:44Z</time>
      </trkpt>
      <trkpt lat="44.83498" lon="4.64903">
        <ele>322.8</ele>
        <time>2019-11-09T09:51:46Z</time>
      </trkpt>
      <trkpt lat="44.83508" lon="4.64887">
        <ele>323.6</ele>
        <time>2019-11-09T09:51:52Z</time>
      </trkpt>
      <trkpt lat="44.8351" lon="4.6488">
        <ele>323.8</ele>
        <time>2019-11-09T09:51:54Z</time>
      </trkpt>
      <trkpt lat="44.83511" lon="4.64866">
        <ele>324.6</ele>
        <time>2019-11-09T09:51:58Z</time>
      </trkpt>
      <trkpt lat="44.83511" lon="4.64862">
        <ele>324.8</ele>
        <time>2019-11-09T09:51:59Z</time>
      </trkpt>
      <trkpt lat="44.83511" lon="4.64858">
        <ele>325.2</ele>
        <time>2019-11-09T09:52:00Z</time>
      </trkpt>
      <trkpt lat="44.8351" lon="4.6483">
        <ele>326</ele>
        <time>2019-11-09T09:52:08Z</time>
      </trkpt>
      <trkpt lat="44.8351" lon="4.64818">
        <ele>326.4</ele>
        <time>2019-11-09T09:52:11Z</time>
      </trkpt>
      <trkpt lat="44.83512" lon="4.64804">
        <ele>327.2</ele>
        <time>2019-11-09T09:52:15Z</time>
      </trkpt>
      <trkpt lat="44.83513" lon="4.64793">
        <ele>327.6</ele>
        <time>2019-11-09T09:52:18Z</time>
      </trkpt>
      <trkpt lat="44.83515" lon="4.64786">
        <ele>328</ele>
        <time>2019-11-09T09:52:20Z</time>
      </trkpt>
      <trkpt lat="44.83516" lon="4.64782">
        <ele>328.2</ele>
        <time>2019-11-09T09:52:21Z</time>
      </trkpt>
      <trkpt lat="44.83524" lon="4.64768">
        <ele>328.4</ele>
        <time>2019-11-09T09:52:26Z</time>
      </trkpt>
      <trkpt lat="44.8354" lon="4.64765">
        <ele>329</ele>
        <time>2019-11-09T09:52:32Z</time>
      </trkpt>
      <trkpt lat="44.83545" lon="4.64766">
        <ele>329.4</ele>
        <time>2019-11-09T09:52:34Z</time>
      </trkpt>
      <trkpt lat="44.8356" lon="4.64773">
        <ele>330.2</ele>
        <time>2019-11-09T09:52:40Z</time>
      </trkpt>
      <trkpt lat="44.83566" lon="4.64775">
        <ele>330.4</ele>
        <time>2019-11-09T09:52:42Z</time>
      </trkpt>
      <trkpt lat="44.83584" lon="4.64779">
        <ele>331.4</ele>
        <time>2019-11-09T09:52:49Z</time>
      </trkpt>
      <trkpt lat="44.83592" lon="4.64782">
        <ele>331.8</ele>
        <time>2019-11-09T09:52:52Z</time>
      </trkpt>
      <trkpt lat="44.83599" lon="4.64786">
        <ele>332.6</ele>
        <time>2019-11-09T09:52:55Z</time>
      </trkpt>
      <trkpt lat="44.83608" lon="4.64793">
        <ele>333.4</ele>
        <time>2019-11-09T09:52:59Z</time>
      </trkpt>
      <trkpt lat="44.83616" lon="4.64802">
        <ele>333.8</ele>
        <time>2019-11-09T09:53:03Z</time>
      </trkpt>
      <trkpt lat="44.83622" lon="4.64808">
        <ele>334.4</ele>
        <time>2019-11-09T09:53:06Z</time>
      </trkpt>
      <trkpt lat="44.83632" lon="4.64808">
        <ele>334.8</ele>
        <time>2019-11-09T09:53:10Z</time>
      </trkpt>
      <trkpt lat="44.83634" lon="4.64807">
        <ele>334.8</ele>
        <time>2019-11-09T09:53:11Z</time>
      </trkpt>
      <trkpt lat="44.83646" lon="4.64791">
        <ele>335.4</ele>
        <time>2019-11-09T09:53:17Z</time>
      </trkpt>
      <trkpt lat="44.83647" lon="4.64776">
        <ele>335.8</ele>
        <time>2019-11-09T09:53:21Z</time>
      </trkpt>
      <trkpt lat="44.83648" lon="4.64768">
        <ele>336</ele>
        <time>2019-11-09T09:53:23Z</time>
      </trkpt>
      <trkpt lat="44.83646" lon="4.64741">
        <ele>336.8</ele>
        <time>2019-11-09T09:53:30Z</time>
      </trkpt>
      <trkpt lat="44.83646" lon="4.64738">
        <ele>337</ele>
        <time>2019-11-09T09:53:31Z</time>
      </trkpt>
      <trkpt lat="44.8365" lon="4.64712">
        <ele>338.2</ele>
        <time>2019-11-09T09:53:38Z</time>
      </trkpt>
      <trkpt lat="44.83651" lon="4.64709">
        <ele>338.4</ele>
        <time>2019-11-09T09:53:39Z</time>
      </trkpt>
      <trkpt lat="44.83657" lon="4.64698">
        <ele>339.2</ele>
        <time>2019-11-09T09:53:43Z</time>
      </trkpt>
      <trkpt lat="44.83664" lon="4.64692">
        <ele>339.8</ele>
        <time>2019-11-09T09:53:46Z</time>
      </trkpt>
      <trkpt lat="44.83672" lon="4.64692">
        <ele>340.2</ele>
        <time>2019-11-09T09:53:49Z</time>
      </trkpt>
      <trkpt lat="44.83678" lon="4.64694">
        <ele>340.2</ele>
        <time>2019-11-09T09:53:51Z</time>
      </trkpt>
      <trkpt lat="44.83697" lon="4.64713">
        <ele>340.6</ele>
        <time>2019-11-09T09:53:59Z</time>
      </trkpt>
      <trkpt lat="44.83721" lon="4.64727">
        <ele>341.2</ele>
        <time>2019-11-09T09:54:08Z</time>
      </trkpt>
      <trkpt lat="44.83724" lon="4.64728">
        <ele>341.4</ele>
        <time>2019-11-09T09:54:09Z</time>
      </trkpt>
      <trkpt lat="44.83735" lon="4.64731">
        <ele>341.6</ele>
        <time>2019-11-09T09:54:13Z</time>
      </trkpt>
      <trkpt lat="44.83747" lon="4.64735">
        <ele>342.2</ele>
        <time>2019-11-09T09:54:18Z</time>
      </trkpt>
      <trkpt lat="44.8375" lon="4.64735">
        <ele>342.4</ele>
        <time>2019-11-09T09:54:19Z</time>
      </trkpt>
      <trkpt lat="44.83769" lon="4.64743">
        <ele>343.4</ele>
        <time>2019-11-09T09:54:26Z</time>
      </trkpt>
      <trkpt lat="44.83791" lon="4.64754">
        <ele>343.6</ele>
        <time>2019-11-09T09:54:35Z</time>
      </trkpt>
      <trkpt lat="44.83805" lon="4.6476">
        <ele>344.4</ele>
        <time>2019-11-09T09:54:41Z</time>
      </trkpt>
      <trkpt lat="44.83812" lon="4.64762">
        <ele>344.8</ele>
        <time>2019-11-09T09:54:44Z</time>
      </trkpt>
      <trkpt lat="44.83822" lon="4.64765">
        <ele>345.6</ele>
        <time>2019-11-09T09:54:48Z</time>
      </trkpt>
      <trkpt lat="44.83825" lon="4.64765">
        <ele>345.8</ele>
        <time>2019-11-09T09:54:49Z</time>
      </trkpt>
      <trkpt lat="44.83836" lon="4.6476">
        <ele>346.6</ele>
        <time>2019-11-09T09:54:54Z</time>
      </trkpt>
      <trkpt lat="44.83848" lon="4.64739">
        <ele>347</ele>
        <time>2019-11-09T09:55:01Z</time>
      </trkpt>
      <trkpt lat="44.83853" lon="4.64729">
        <ele>347.6</ele>
        <time>2019-11-09T09:55:04Z</time>
      </trkpt>
      <trkpt lat="44.83854" lon="4.64726">
        <ele>347.8</ele>
        <time>2019-11-09T09:55:05Z</time>
      </trkpt>
      <trkpt lat="44.83862" lon="4.64716">
        <ele>348.2</ele>
        <time>2019-11-09T09:55:09Z</time>
      </trkpt>
      <trkpt lat="44.83869" lon="4.64712">
        <ele>348.8</ele>
        <time>2019-11-09T09:55:12Z</time>
      </trkpt>
      <trkpt lat="44.83878" lon="4.64709">
        <ele>349.4</ele>
        <time>2019-11-09T09:55:16Z</time>
      </trkpt>
      <trkpt lat="44.83883" lon="4.64708">
        <ele>349.8</ele>
        <time>2019-11-09T09:55:18Z</time>
      </trkpt>
      <trkpt lat="44.83903" lon="4.64709">
        <ele>350.6</ele>
        <time>2019-11-09T09:55:25Z</time>
      </trkpt>
      <trkpt lat="44.83905" lon="4.64709">
        <ele>350.8</ele>
        <time>2019-11-09T09:55:26Z</time>
      </trkpt>
      <trkpt lat="44.83916" lon="4.64711">
        <ele>351.8</ele>
        <time>2019-11-09T09:55:30Z</time>
      </trkpt>
      <trkpt lat="44.83918" lon="4.64712">
        <ele>352.2</ele>
        <time>2019-11-09T09:55:31Z</time>
      </trkpt>
      <trkpt lat="44.83937" lon="4.6471">
        <ele>352.8</ele>
        <time>2019-11-09T09:55:38Z</time>
      </trkpt>
      <trkpt lat="44.83939" lon="4.64709">
        <ele>353</ele>
        <time>2019-11-09T09:55:39Z</time>
      </trkpt>
      <trkpt lat="44.83952" lon="4.647">
        <ele>353.8</ele>
        <time>2019-11-09T09:55:45Z</time>
      </trkpt>
      <trkpt lat="44.83959" lon="4.64684">
        <ele>354.6</ele>
        <time>2019-11-09T09:55:50Z</time>
      </trkpt>
      <trkpt lat="44.8396" lon="4.64676">
        <ele>355</ele>
        <time>2019-11-09T09:55:52Z</time>
      </trkpt>
      <trkpt lat="44.83962" lon="4.64653">
        <ele>356</ele>
        <time>2019-11-09T09:55:58Z</time>
      </trkpt>
      <trkpt lat="44.83969" lon="4.64621">
        <ele>357</ele>
        <time>2019-11-09T09:56:07Z</time>
      </trkpt>
      <trkpt lat="44.83979" lon="4.64596">
        <ele>358</ele>
        <time>2019-11-09T09:56:15Z</time>
      </trkpt>
      <trkpt lat="44.83981" lon="4.64593">
        <ele>358.2</ele>
        <time>2019-11-09T09:56:16Z</time>
      </trkpt>
      <trkpt lat="44.83989" lon="4.64579">
        <ele>359.2</ele>
        <time>2019-11-09T09:56:21Z</time>
      </trkpt>
      <trkpt lat="44.83994" lon="4.64567">
        <ele>359.4</ele>
        <time>2019-11-09T09:56:25Z</time>
      </trkpt>
      <trkpt lat="44.83994" lon="4.64552">
        <ele>360.2</ele>
        <time>2019-11-09T09:56:29Z</time>
      </trkpt>
      <trkpt lat="44.83994" lon="4.64545">
        <ele>360.6</ele>
        <time>2019-11-09T09:56:31Z</time>
      </trkpt>
      <trkpt lat="44.83994" lon="4.64522">
        <ele>361.2</ele>
        <time>2019-11-09T09:56:37Z</time>
      </trkpt>
      <trkpt lat="44.83994" lon="4.64515">
        <ele>361.6</ele>
        <time>2019-11-09T09:56:39Z</time>
      </trkpt>
      <trkpt lat="44.83996" lon="4.64492">
        <ele>362.4</ele>
        <time>2019-11-09T09:56:45Z</time>
      </trkpt>
      <trkpt lat="44.83998" lon="4.64482">
        <ele>362.6</ele>
        <time>2019-11-09T09:56:48Z</time>
      </trkpt>
      <trkpt lat="44.84005" lon="4.64462">
        <ele>363.4</ele>
        <time>2019-11-09T09:56:54Z</time>
      </trkpt>
      <trkpt lat="44.84008" lon="4.64457">
        <ele>363.6</ele>
        <time>2019-11-09T09:56:56Z</time>
      </trkpt>
      <trkpt lat="44.84019" lon="4.64447">
        <ele>364.4</ele>
        <time>2019-11-09T09:57:01Z</time>
      </trkpt>
      <trkpt lat="44.84022" lon="4.64446">
        <ele>364.6</ele>
        <time>2019-11-09T09:57:02Z</time>
      </trkpt>
      <trkpt lat="44.84034" lon="4.64433">
        <ele>365.2</ele>
        <time>2019-11-09T09:57:08Z</time>
      </trkpt>
      <trkpt lat="44.84038" lon="4.64425">
        <ele>365.8</ele>
        <time>2019-11-09T09:57:11Z</time>
      </trkpt>
      <trkpt lat="44.84049" lon="4.64405">
        <ele>366.8</ele>
        <time>2019-11-09T09:57:18Z</time>
      </trkpt>
      <trkpt lat="44.8405" lon="4.64402">
        <ele>366.8</ele>
        <time>2019-11-09T09:57:19Z</time>
      </trkpt>
      <trkpt lat="44.84055" lon="4.64394">
        <ele>367.8</ele>
        <time>2019-11-09T09:57:22Z</time>
      </trkpt>
      <trkpt lat="44.84065" lon="4.64374">
        <ele>368.4</ele>
        <time>2019-11-09T09:57:29Z</time>
      </trkpt>
      <trkpt lat="44.84073" lon="4.6435">
        <ele>368.4</ele>
        <time>2019-11-09T09:57:36Z</time>
      </trkpt>
      <trkpt lat="44.84082" lon="4.64342">
        <ele>369</ele>
        <time>2019-11-09T09:57:40Z</time>
      </trkpt>
      <trkpt lat="44.84087" lon="4.64339">
        <ele>369.4</ele>
        <time>2019-11-09T09:57:42Z</time>
      </trkpt>
      <trkpt lat="44.84091" lon="4.64336">
        <ele>370.2</ele>
        <time>2019-11-09T09:57:44Z</time>
      </trkpt>
      <trkpt lat="44.84101" lon="4.64325">
        <ele>371.4</ele>
        <time>2019-11-09T09:57:49Z</time>
      </trkpt>
      <trkpt lat="44.84102" lon="4.64322">
        <ele>371.4</ele>
        <time>2019-11-09T09:57:50Z</time>
      </trkpt>
      <trkpt lat="44.84105" lon="4.64301">
        <ele>371.8</ele>
        <time>2019-11-09T09:57:56Z</time>
      </trkpt>
      <trkpt lat="44.84105" lon="4.64279">
        <ele>372.4</ele>
        <time>2019-11-09T09:58:02Z</time>
      </trkpt>
      <trkpt lat="44.84107" lon="4.64272">
        <ele>372.8</ele>
        <time>2019-11-09T09:58:04Z</time>
      </trkpt>
      <trkpt lat="44.84114" lon="4.64263">
        <ele>373.6</ele>
        <time>2019-11-09T09:58:08Z</time>
      </trkpt>
      <trkpt lat="44.84117" lon="4.64261">
        <ele>373.6</ele>
        <time>2019-11-09T09:58:09Z</time>
      </trkpt>
      <trkpt lat="44.84131" lon="4.64248">
        <ele>374.6</ele>
        <time>2019-11-09T09:58:16Z</time>
      </trkpt>
      <trkpt lat="44.84142" lon="4.64234">
        <ele>375.8</ele>
        <time>2019-11-09T09:58:22Z</time>
      </trkpt>
      <trkpt lat="44.84143" lon="4.64232">
        <ele>376.2</ele>
        <time>2019-11-09T09:58:23Z</time>
      </trkpt>
      <trkpt lat="44.84153" lon="4.64221">
        <ele>376.8</ele>
        <time>2019-11-09T09:58:28Z</time>
      </trkpt>
      <trkpt lat="44.84161" lon="4.64213">
        <ele>377</ele>
        <time>2019-11-09T09:58:32Z</time>
      </trkpt>
      <trkpt lat="44.84172" lon="4.64193">
        <ele>377.8</ele>
        <time>2019-11-09T09:58:40Z</time>
      </trkpt>
      <trkpt lat="44.84178" lon="4.64178">
        <ele>378</ele>
        <time>2019-11-09T09:58:45Z</time>
      </trkpt>
      <trkpt lat="44.84183" lon="4.64166">
        <ele>378.2</ele>
        <time>2019-11-09T09:58:49Z</time>
      </trkpt>
      <trkpt lat="44.84198" lon="4.64142">
        <ele>378.8</ele>
        <time>2019-11-09T09:58:58Z</time>
      </trkpt>
      <trkpt lat="44.84202" lon="4.64138">
        <ele>379</ele>
        <time>2019-11-09T09:59:00Z</time>
      </trkpt>
      <trkpt lat="44.84208" lon="4.64133">
        <ele>380</ele>
        <time>2019-11-09T09:59:03Z</time>
      </trkpt>
      <trkpt lat="44.84215" lon="4.64129">
        <ele>380.6</ele>
        <time>2019-11-09T09:59:06Z</time>
      </trkpt>
      <trkpt lat="44.84227" lon="4.64123">
        <ele>381.4</ele>
        <time>2019-11-09T09:59:11Z</time>
      </trkpt>
      <trkpt lat="44.8424" lon="4.64116">
        <ele>382.4</ele>
        <time>2019-11-09T09:59:17Z</time>
      </trkpt>
      <trkpt lat="44.84243" lon="4.64115">
        <ele>382.4</ele>
        <time>2019-11-09T09:59:18Z</time>
      </trkpt>
      <trkpt lat="44.84255" lon="4.64109">
        <ele>383.4</ele>
        <time>2019-11-09T09:59:23Z</time>
      </trkpt>
      <trkpt lat="44.84267" lon="4.64105">
        <ele>384.2</ele>
        <time>2019-11-09T09:59:28Z</time>
      </trkpt>
      <trkpt lat="44.8427" lon="4.64106">
        <ele>384.4</ele>
        <time>2019-11-09T09:59:29Z</time>
      </trkpt>
      <trkpt lat="44.84287" lon="4.64112">
        <ele>385.4</ele>
        <time>2019-11-09T09:59:36Z</time>
      </trkpt>
      <trkpt lat="44.84289" lon="4.64113">
        <ele>385.6</ele>
        <time>2019-11-09T09:59:37Z</time>
      </trkpt>
      <trkpt lat="44.84307" lon="4.64114">
        <ele>386.4</ele>
        <time>2019-11-09T09:59:44Z</time>
      </trkpt>
      <trkpt lat="44.8431" lon="4.64114">
        <ele>386.6</ele>
        <time>2019-11-09T09:59:45Z</time>
      </trkpt>
      <trkpt lat="44.84321" lon="4.64105">
        <ele>387.6</ele>
        <time>2019-11-09T09:59:50Z</time>
      </trkpt>
      <trkpt lat="44.84324" lon="4.64103">
        <ele>387.8</ele>
        <time>2019-11-09T09:59:51Z</time>
      </trkpt>
      <trkpt lat="44.84341" lon="4.64097">
        <ele>388.8</ele>
        <time>2019-11-09T09:59:58Z</time>
      </trkpt>
      <trkpt lat="44.8436" lon="4.64104">
        <ele>389.8</ele>
        <time>2019-11-09T10:00:06Z</time>
      </trkpt>
      <trkpt lat="44.84385" lon="4.64108">
        <ele>390.4</ele>
        <time>2019-11-09T10:00:16Z</time>
      </trkpt>
      <trkpt lat="44.8439" lon="4.64109">
        <ele>391</ele>
        <time>2019-11-09T10:00:18Z</time>
      </trkpt>
      <trkpt lat="44.84399" lon="4.64115">
        <ele>392.4</ele>
        <time>2019-11-09T10:00:22Z</time>
      </trkpt>
      <trkpt lat="44.84402" lon="4.64117">
        <ele>392.8</ele>
        <time>2019-11-09T10:00:23Z</time>
      </trkpt>
      <trkpt lat="44.84408" lon="4.64125">
        <ele>393.4</ele>
        <time>2019-11-09T10:00:26Z</time>
      </trkpt>
      <trkpt lat="44.84413" lon="4.64136">
        <ele>393.8</ele>
        <time>2019-11-09T10:00:30Z</time>
      </trkpt>
      <trkpt lat="44.84426" lon="4.64143">
        <ele>394</ele>
        <time>2019-11-09T10:00:36Z</time>
      </trkpt>
      <trkpt lat="44.84446" lon="4.64146">
        <ele>394.4</ele>
        <time>2019-11-09T10:00:44Z</time>
      </trkpt>
      <trkpt lat="44.84449" lon="4.64147">
        <ele>394.8</ele>
        <time>2019-11-09T10:00:45Z</time>
      </trkpt>
      <trkpt lat="44.84462" lon="4.6415">
        <ele>395.6</ele>
        <time>2019-11-09T10:00:50Z</time>
      </trkpt>
      <trkpt lat="44.84472" lon="4.64152">
        <ele>395.6</ele>
        <time>2019-11-09T10:00:54Z</time>
      </trkpt>
      <trkpt lat="44.8449" lon="4.64154">
        <ele>396.4</ele>
        <time>2019-11-09T10:01:01Z</time>
      </trkpt>
      <trkpt lat="44.84501" lon="4.64156">
        <ele>396.8</ele>
        <time>2019-11-09T10:01:05Z</time>
      </trkpt>
      <trkpt lat="44.84514" lon="4.6416">
        <ele>397.8</ele>
        <time>2019-11-09T10:01:10Z</time>
      </trkpt>
      <trkpt lat="44.84537" lon="4.64172">
        <ele>398.4</ele>
        <time>2019-11-09T10:01:20Z</time>
      </trkpt>
      <trkpt lat="44.84543" lon="4.6418">
        <ele>398.8</ele>
        <time>2019-11-09T10:01:23Z</time>
      </trkpt>
      <trkpt lat="44.84547" lon="4.64189">
        <ele>399.8</ele>
        <time>2019-11-09T10:01:26Z</time>
      </trkpt>
      <trkpt lat="44.8455" lon="4.64196">
        <ele>400</ele>
        <time>2019-11-09T10:01:28Z</time>
      </trkpt>
      <trkpt lat="44.84551" lon="4.64215">
        <ele>400.8</ele>
        <time>2019-11-09T10:01:33Z</time>
      </trkpt>
      <trkpt lat="44.84551" lon="4.64219">
        <ele>401</ele>
        <time>2019-11-09T10:01:34Z</time>
      </trkpt>
      <trkpt lat="44.84551" lon="4.64239">
        <ele>401.8</ele>
        <time>2019-11-09T10:01:40Z</time>
      </trkpt>
      <trkpt lat="44.84551" lon="4.64246">
        <ele>401.8</ele>
        <time>2019-11-09T10:01:42Z</time>
      </trkpt>
      <trkpt lat="44.84551" lon="4.64262">
        <ele>401.4</ele>
        <time>2019-11-09T10:01:47Z</time>
      </trkpt>
      <trkpt lat="44.84552" lon="4.64276">
        <ele>402.4</ele>
        <time>2019-11-09T10:01:51Z</time>
      </trkpt>
      <trkpt lat="44.84554" lon="4.64288">
        <ele>403.4</ele>
        <time>2019-11-09T10:01:54Z</time>
      </trkpt>
      <trkpt lat="44.84554" lon="4.64317">
        <ele>403.8</ele>
        <time>2019-11-09T10:02:02Z</time>
      </trkpt>
      <trkpt lat="44.84553" lon="4.64337">
        <ele>404.6</ele>
        <time>2019-11-09T10:02:08Z</time>
      </trkpt>
      <trkpt lat="44.84556" lon="4.64346">
        <ele>405.8</ele>
        <time>2019-11-09T10:02:11Z</time>
      </trkpt>
      <trkpt lat="44.84558" lon="4.64353">
        <ele>406</ele>
        <time>2019-11-09T10:02:13Z</time>
      </trkpt>
      <trkpt lat="44.84562" lon="4.64374">
        <ele>405.8</ele>
        <time>2019-11-09T10:02:19Z</time>
      </trkpt>
      <trkpt lat="44.84564" lon="4.64393">
        <ele>406.6</ele>
        <time>2019-11-09T10:02:25Z</time>
      </trkpt>
      <trkpt lat="44.84564" lon="4.64396">
        <ele>406.8</ele>
        <time>2019-11-09T10:02:26Z</time>
      </trkpt>
      <trkpt lat="44.8457" lon="4.64412">
        <ele>407.4</ele>
        <time>2019-11-09T10:02:31Z</time>
      </trkpt>
      <trkpt lat="44.84576" lon="4.64429">
        <ele>408</ele>
        <time>2019-11-09T10:02:37Z</time>
      </trkpt>
      <trkpt lat="44.84577" lon="4.64432">
        <ele>408</ele>
        <time>2019-11-09T10:02:38Z</time>
      </trkpt>
      <trkpt lat="44.84583" lon="4.64451">
        <ele>408.4</ele>
        <time>2019-11-09T10:02:44Z</time>
      </trkpt>
      <trkpt lat="44.84582" lon="4.64463">
        <ele>409.2</ele>
        <time>2019-11-09T10:02:48Z</time>
      </trkpt>
      <trkpt lat="44.8458" lon="4.64468">
        <ele>409.6</ele>
        <time>2019-11-09T10:02:50Z</time>
      </trkpt>
      <trkpt lat="44.84576" lon="4.64477">
        <ele>410.2</ele>
        <time>2019-11-09T10:02:53Z</time>
      </trkpt>
      <trkpt lat="44.84569" lon="4.64495">
        <ele>410.6</ele>
        <time>2019-11-09T10:02:59Z</time>
      </trkpt>
      <trkpt lat="44.84563" lon="4.6451">
        <ele>411.2</ele>
        <time>2019-11-09T10:03:04Z</time>
      </trkpt>
      <trkpt lat="44.84558" lon="4.64518">
        <ele>411.8</ele>
        <time>2019-11-09T10:03:07Z</time>
      </trkpt>
      <trkpt lat="44.84554" lon="4.64525">
        <ele>412.4</ele>
        <time>2019-11-09T10:03:10Z</time>
      </trkpt>
      <trkpt lat="44.84549" lon="4.64535">
        <ele>413</ele>
        <time>2019-11-09T10:03:14Z</time>
      </trkpt>
      <trkpt lat="44.84547" lon="4.64546">
        <ele>413.6</ele>
        <time>2019-11-09T10:03:17Z</time>
      </trkpt>
      <trkpt lat="44.84547" lon="4.64556">
        <ele>414.2</ele>
        <time>2019-11-09T10:03:20Z</time>
      </trkpt>
      <trkpt lat="44.84546" lon="4.64568">
        <ele>414.6</ele>
        <time>2019-11-09T10:03:23Z</time>
      </trkpt>
      <trkpt lat="44.84545" lon="4.64581">
        <ele>415</ele>
        <time>2019-11-09T10:03:27Z</time>
      </trkpt>
      <trkpt lat="44.84546" lon="4.646">
        <ele>415.6</ele>
        <time>2019-11-09T10:03:32Z</time>
      </trkpt>
      <trkpt lat="44.84547" lon="4.64607">
        <ele>415.8</ele>
        <time>2019-11-09T10:03:34Z</time>
      </trkpt>
      <trkpt lat="44.84554" lon="4.64632">
        <ele>416.8</ele>
        <time>2019-11-09T10:03:42Z</time>
      </trkpt>
      <trkpt lat="44.84555" lon="4.64635">
        <ele>416.8</ele>
        <time>2019-11-09T10:03:43Z</time>
      </trkpt>
      <trkpt lat="44.84563" lon="4.64659">
        <ele>418</ele>
        <time>2019-11-09T10:03:50Z</time>
      </trkpt>
      <trkpt lat="44.84565" lon="4.64662">
        <ele>418.4</ele>
        <time>2019-11-09T10:03:51Z</time>
      </trkpt>
      <trkpt lat="44.84573" lon="4.64671">
        <ele>419</ele>
        <time>2019-11-09T10:03:55Z</time>
      </trkpt>
      <trkpt lat="44.84576" lon="4.64672">
        <ele>419</ele>
        <time>2019-11-09T10:03:56Z</time>
      </trkpt>
      <trkpt lat="44.84596" lon="4.64675">
        <ele>419.8</ele>
        <time>2019-11-09T10:04:05Z</time>
      </trkpt>
      <trkpt lat="44.84602" lon="4.64673">
        <ele>420</ele>
        <time>2019-11-09T10:04:08Z</time>
      </trkpt>
      <trkpt lat="44.84613" lon="4.64666">
        <ele>420.4</ele>
        <time>2019-11-09T10:04:13Z</time>
      </trkpt>
      <trkpt lat="44.84624" lon="4.64662">
        <ele>421.2</ele>
        <time>2019-11-09T10:04:18Z</time>
      </trkpt>
      <trkpt lat="44.84626" lon="4.64664">
        <ele>421.4</ele>
        <time>2019-11-09T10:04:19Z</time>
      </trkpt>
      <trkpt lat="44.84632" lon="4.64676">
        <ele>422.2</ele>
        <time>2019-11-09T10:04:24Z</time>
      </trkpt>
      <trkpt lat="44.84631" lon="4.64692">
        <ele>423.2</ele>
        <time>2019-11-09T10:04:31Z</time>
      </trkpt>
      <trkpt lat="44.84631" lon="4.64694">
        <ele>423.4</ele>
        <time>2019-11-09T10:04:32Z</time>
      </trkpt>
      <trkpt lat="44.84629" lon="4.64703">
        <ele>424.2</ele>
        <time>2019-11-09T10:04:37Z</time>
      </trkpt>
      <trkpt lat="44.84628" lon="4.64705">
        <ele>424.4</ele>
        <time>2019-11-09T10:04:38Z</time>
      </trkpt>
      <trkpt lat="44.84627" lon="4.64715">
        <ele>425.4</ele>
        <time>2019-11-09T10:04:44Z</time>
      </trkpt>
      <trkpt lat="44.84628" lon="4.64716">
        <ele>425.6</ele>
        <time>2019-11-09T10:04:45Z</time>
      </trkpt>
      <trkpt lat="44.84627" lon="4.64727">
        <ele>426.8</ele>
        <time>2019-11-09T10:04:52Z</time>
      </trkpt>
      <trkpt lat="44.84627" lon="4.64728">
        <ele>427.2</ele>
        <time>2019-11-09T10:04:53Z</time>
      </trkpt>
      <trkpt lat="44.84626" lon="4.64731">
        <ele>427.8</ele>
        <time>2019-11-09T10:04:55Z</time>
      </trkpt>
      <trkpt lat="44.84625" lon="4.64738">
        <ele>429</ele>
        <time>2019-11-09T10:05:01Z</time>
      </trkpt>
      <trkpt lat="44.84625" lon="4.6474">
        <ele>429</ele>
        <time>2019-11-09T10:05:02Z</time>
      </trkpt>
      <trkpt lat="44.84625" lon="4.64748">
        <ele>430.2</ele>
        <time>2019-11-09T10:05:08Z</time>
      </trkpt>
      <trkpt lat="44.84625" lon="4.6475">
        <ele>430.6</ele>
        <time>2019-11-09T10:05:10Z</time>
      </trkpt>
      <trkpt lat="44.84624" lon="4.64753">
        <ele>431</ele>
        <time>2019-11-09T10:05:12Z</time>
      </trkpt>
      <trkpt lat="44.84624" lon="4.64756">
        <ele>431.2</ele>
        <time>2019-11-09T10:05:14Z</time>
      </trkpt>
      <trkpt lat="44.84624" lon="4.64758">
        <ele>431.6</ele>
        <time>2019-11-09T10:05:16Z</time>
      </trkpt>
      <trkpt lat="44.84624" lon="4.64759">
        <ele>431.6</ele>
        <time>2019-11-09T10:05:17Z</time>
      </trkpt>
      <trkpt lat="44.84622" lon="4.64764">
        <ele>432.2</ele>
        <time>2019-11-09T10:05:22Z</time>
      </trkpt>
      <trkpt lat="44.84622" lon="4.64766">
        <ele>432.6</ele>
        <time>2019-11-09T10:05:23Z</time>
      </trkpt>
      <trkpt lat="44.84621" lon="4.64767">
        <ele>433</ele>
        <time>2019-11-09T10:05:24Z</time>
      </trkpt>
      <trkpt lat="44.84619" lon="4.64769">
        <ele>433.4</ele>
        <time>2019-11-09T10:05:27Z</time>
      </trkpt>
      <trkpt lat="44.84619" lon="4.64768">
        <ele>433.6</ele>
        <time>2019-11-09T10:05:28Z</time>
      </trkpt>
      <trkpt lat="44.8462" lon="4.64769">
        <ele>433.6</ele>
        <time>2019-11-09T10:05:29Z</time>
      </trkpt>
      <trkpt lat="44.84621" lon="4.64769">
        <ele>433.2</ele>
        <time>2019-11-09T10:05:38Z</time>
      </trkpt>
      <trkpt lat="44.84622" lon="4.64771">
        <ele>433.2</ele>
        <time>2019-11-09T10:05:46Z</time>
      </trkpt>
      <trkpt lat="44.84623" lon="4.6477">
        <ele>433</ele>
        <time>2019-11-09T10:05:51Z</time>
      </trkpt>
      <trkpt lat="44.84624" lon="4.64769">
        <ele>432.8</ele>
        <time>2019-11-09T10:05:57Z</time>
      </trkpt>
      <trkpt lat="44.84624" lon="4.64769">
        <ele>433</ele>
        <time>2019-11-09T10:06:01Z</time>
      </trkpt>
      <trkpt lat="44.84625" lon="4.64769">
        <ele>432.8</ele>
        <time>2019-11-09T10:06:11Z</time>
      </trkpt>
      <trkpt lat="44.84625" lon="4.64769">
        <ele>432.8</ele>
        <time>2019-11-09T10:06:13Z</time>
      </trkpt>
      <trkpt lat="44.84625" lon="4.64768">
        <ele>432.8</ele>
        <time>2019-11-09T10:06:14Z</time>
      </trkpt>
      <trkpt lat="44.84625" lon="4.64768">
        <ele>432.6</ele>
        <time>2019-11-09T10:06:16Z</time>
      </trkpt>
      <trkpt lat="44.84626" lon="4.64767">
        <ele>432.8</ele>
        <time>2019-11-09T10:06:20Z</time>
      </trkpt>
      <trkpt lat="44.84626" lon="4.64769">
        <ele>432.6</ele>
        <time>2019-11-09T10:06:27Z</time>
      </trkpt>
      <trkpt lat="44.84625" lon="4.64769">
        <ele>432.8</ele>
        <time>2019-11-09T10:06:29Z</time>
      </trkpt>
      <trkpt lat="44.84624" lon="4.64771">
        <ele>432.8</ele>
        <time>2019-11-09T10:06:31Z</time>
      </trkpt>
      <trkpt lat="44.84622" lon="4.64775">
        <ele>433.2</ele>
        <time>2019-11-09T10:06:34Z</time>
      </trkpt>
      <trkpt lat="44.84616" lon="4.64786">
        <ele>434.6</ele>
        <time>2019-11-09T10:06:42Z</time>
      </trkpt>
      <trkpt lat="44.84615" lon="4.64788">
        <ele>435.2</ele>
        <time>2019-11-09T10:06:44Z</time>
      </trkpt>
      <trkpt lat="44.84614" lon="4.64792">
        <ele>435.8</ele>
        <time>2019-11-09T10:06:47Z</time>
      </trkpt>
      <trkpt lat="44.84613" lon="4.64793">
        <ele>435.8</ele>
        <time>2019-11-09T10:06:48Z</time>
      </trkpt>
      <trkpt lat="44.84611" lon="4.64799">
        <ele>436.8</ele>
        <time>2019-11-09T10:06:53Z</time>
      </trkpt>
      <trkpt lat="44.8461" lon="4.648">
        <ele>436.8</ele>
        <time>2019-11-09T10:06:54Z</time>
      </trkpt>
      <trkpt lat="44.84609" lon="4.64802">
        <ele>437.4</ele>
        <time>2019-11-09T10:06:56Z</time>
      </trkpt>
      <trkpt lat="44.84607" lon="4.64804">
        <ele>438</ele>
        <time>2019-11-09T10:06:58Z</time>
      </trkpt>
      <trkpt lat="44.84603" lon="4.64805">
        <ele>438.8</ele>
        <time>2019-11-09T10:07:02Z</time>
      </trkpt>
      <trkpt lat="44.84602" lon="4.64805">
        <ele>439</ele>
        <time>2019-11-09T10:07:03Z</time>
      </trkpt>
      <trkpt lat="44.84601" lon="4.64805">
        <ele>439.2</ele>
        <time>2019-11-09T10:07:04Z</time>
      </trkpt>
      <trkpt lat="44.846" lon="4.64804">
        <ele>439.2</ele>
        <time>2019-11-09T10:07:05Z</time>
      </trkpt>
      <trkpt lat="44.84598" lon="4.64799">
        <ele>439.6</ele>
        <time>2019-11-09T10:07:09Z</time>
      </trkpt>
      <trkpt lat="44.84597" lon="4.64793">
        <ele>440</ele>
        <time>2019-11-09T10:07:13Z</time>
      </trkpt>
      <trkpt lat="44.84595" lon="4.64788">
        <ele>440.6</ele>
        <time>2019-11-09T10:07:17Z</time>
      </trkpt>
      <trkpt lat="44.84595" lon="4.64786">
        <ele>440.8</ele>
        <time>2019-11-09T10:07:19Z</time>
      </trkpt>
      <trkpt lat="44.84594" lon="4.64782">
        <ele>441.2</ele>
        <time>2019-11-09T10:07:22Z</time>
      </trkpt>
      <trkpt lat="44.8459" lon="4.64771">
        <ele>442.2</ele>
        <time>2019-11-09T10:07:30Z</time>
      </trkpt>
      <trkpt lat="44.84585" lon="4.64764">
        <ele>443.2</ele>
        <time>2019-11-09T10:07:36Z</time>
      </trkpt>
      <trkpt lat="44.84585" lon="4.64763">
        <ele>443.4</ele>
        <time>2019-11-09T10:07:37Z</time>
      </trkpt>
      <trkpt lat="44.84582" lon="4.64758">
        <ele>444.4</ele>
        <time>2019-11-09T10:07:42Z</time>
      </trkpt>
      <trkpt lat="44.8458" lon="4.64755">
        <ele>444.8</ele>
        <time>2019-11-09T10:07:45Z</time>
      </trkpt>
      <trkpt lat="44.84575" lon="4.64751">
        <ele>445.4</ele>
        <time>2019-11-09T10:07:50Z</time>
      </trkpt>
      <trkpt lat="44.84573" lon="4.64751">
        <ele>445.6</ele>
        <time>2019-11-09T10:07:51Z</time>
      </trkpt>
      <trkpt lat="44.84571" lon="4.6475">
        <ele>446</ele>
        <time>2019-11-09T10:07:53Z</time>
      </trkpt>
      <trkpt lat="44.84568" lon="4.6475">
        <ele>446.6</ele>
        <time>2019-11-09T10:07:56Z</time>
      </trkpt>
      <trkpt lat="44.84565" lon="4.64755">
        <ele>447.4</ele>
        <time>2019-11-09T10:08:01Z</time>
      </trkpt>
      <trkpt lat="44.84565" lon="4.64757">
        <ele>447.4</ele>
        <time>2019-11-09T10:08:02Z</time>
      </trkpt>
      <trkpt lat="44.84565" lon="4.64759">
        <ele>447.8</ele>
        <time>2019-11-09T10:08:04Z</time>
      </trkpt>
      <trkpt lat="44.84567" lon="4.64764">
        <ele>448.6</ele>
        <time>2019-11-09T10:08:07Z</time>
      </trkpt>
      <trkpt lat="44.84568" lon="4.64767">
        <ele>448.8</ele>
        <time>2019-11-09T10:08:09Z</time>
      </trkpt>
      <trkpt lat="44.8457" lon="4.64773">
        <ele>449.2</ele>
        <time>2019-11-09T10:08:13Z</time>
      </trkpt>
      <trkpt lat="44.8457" lon="4.64775">
        <ele>449.6</ele>
        <time>2019-11-09T10:08:15Z</time>
      </trkpt>
      <trkpt lat="44.8457" lon="4.64778">
        <ele>450</ele>
        <time>2019-11-09T10:08:17Z</time>
      </trkpt>
      <trkpt lat="44.84571" lon="4.64779">
        <ele>450</ele>
        <time>2019-11-09T10:08:18Z</time>
      </trkpt>
      <trkpt lat="44.84572" lon="4.64781">
        <ele>450.2</ele>
        <time>2019-11-09T10:08:19Z</time>
      </trkpt>
      <trkpt lat="44.84577" lon="4.64792">
        <ele>450.4</ele>
        <time>2019-11-09T10:08:27Z</time>
      </trkpt>
      <trkpt lat="44.84577" lon="4.64794">
        <ele>450.4</ele>
        <time>2019-11-09T10:08:28Z</time>
      </trkpt>
      <trkpt lat="44.84578" lon="4.648">
        <ele>451.2</ele>
        <time>2019-11-09T10:08:32Z</time>
      </trkpt>
      <trkpt lat="44.84577" lon="4.64803">
        <ele>452</ele>
        <time>2019-11-09T10:08:34Z</time>
      </trkpt>
      <trkpt lat="44.84578" lon="4.64805">
        <ele>452.2</ele>
        <time>2019-11-09T10:08:35Z</time>
      </trkpt>
      <trkpt lat="44.8458" lon="4.64815">
        <ele>453.4</ele>
        <time>2019-11-09T10:08:41Z</time>
      </trkpt>
      <trkpt lat="44.8458" lon="4.64816">
        <ele>453.4</ele>
        <time>2019-11-09T10:08:42Z</time>
      </trkpt>
      <trkpt lat="44.8458" lon="4.64823">
        <ele>454.2</ele>
        <time>2019-11-09T10:08:46Z</time>
      </trkpt>
      <trkpt lat="44.8458" lon="4.64825">
        <ele>454.4</ele>
        <time>2019-11-09T10:08:47Z</time>
      </trkpt>
      <trkpt lat="44.8458" lon="4.6483">
        <ele>454.6</ele>
        <time>2019-11-09T10:08:50Z</time>
      </trkpt>
      <trkpt lat="44.84579" lon="4.64835">
        <ele>455.4</ele>
        <time>2019-11-09T10:08:53Z</time>
      </trkpt>
      <trkpt lat="44.84579" lon="4.6484">
        <ele>456</ele>
        <time>2019-11-09T10:08:56Z</time>
      </trkpt>
      <trkpt lat="44.84579" lon="4.64843">
        <ele>456.4</ele>
        <time>2019-11-09T10:08:58Z</time>
      </trkpt>
      <trkpt lat="44.84579" lon="4.64845">
        <ele>456.6</ele>
        <time>2019-11-09T10:08:59Z</time>
      </trkpt>
      <trkpt lat="44.84579" lon="4.6485">
        <ele>457</ele>
        <time>2019-11-09T10:09:02Z</time>
      </trkpt>
      <trkpt lat="44.84579" lon="4.64856">
        <ele>457.6</ele>
        <time>2019-11-09T10:09:07Z</time>
      </trkpt>
      <trkpt lat="44.8458" lon="4.64859">
        <ele>458</ele>
        <time>2019-11-09T10:09:09Z</time>
      </trkpt>
      <trkpt lat="44.84581" lon="4.64868">
        <ele>458.6</ele>
        <time>2019-11-09T10:09:14Z</time>
      </trkpt>
      <trkpt lat="44.84582" lon="4.64872">
        <ele>458.8</ele>
        <time>2019-11-09T10:09:16Z</time>
      </trkpt>
      <trkpt lat="44.84581" lon="4.64887">
        <ele>459.2</ele>
        <time>2019-11-09T10:09:24Z</time>
      </trkpt>
      <trkpt lat="44.84579" lon="4.64893">
        <ele>459.8</ele>
        <time>2019-11-09T10:09:27Z</time>
      </trkpt>
      <trkpt lat="44.84577" lon="4.64901">
        <ele>460.6</ele>
        <time>2019-11-09T10:09:32Z</time>
      </trkpt>
      <trkpt lat="44.84576" lon="4.64902">
        <ele>461</ele>
        <time>2019-11-09T10:09:33Z</time>
      </trkpt>
      <trkpt lat="44.84572" lon="4.64913">
        <ele>461.8</ele>
        <time>2019-11-09T10:09:40Z</time>
      </trkpt>
      <trkpt lat="44.84572" lon="4.64914">
        <ele>462.2</ele>
        <time>2019-11-09T10:09:41Z</time>
      </trkpt>
      <trkpt lat="44.84568" lon="4.64923">
        <ele>462.8</ele>
        <time>2019-11-09T10:09:47Z</time>
      </trkpt>
      <trkpt lat="44.84561" lon="4.64932">
        <ele>463.4</ele>
        <time>2019-11-09T10:09:54Z</time>
      </trkpt>
      <trkpt lat="44.8456" lon="4.64933">
        <ele>463.4</ele>
        <time>2019-11-09T10:09:55Z</time>
      </trkpt>
      <trkpt lat="44.8455" lon="4.64938">
        <ele>464.4</ele>
        <time>2019-11-09T10:10:04Z</time>
      </trkpt>
      <trkpt lat="44.84543" lon="4.64942">
        <ele>465.4</ele>
        <time>2019-11-09T10:10:10Z</time>
      </trkpt>
      <trkpt lat="44.84541" lon="4.64943">
        <ele>465.6</ele>
        <time>2019-11-09T10:10:11Z</time>
      </trkpt>
      <trkpt lat="44.8454" lon="4.64944">
        <ele>465.8</ele>
        <time>2019-11-09T10:10:12Z</time>
      </trkpt>
      <trkpt lat="44.84533" lon="4.64949">
        <ele>466.6</ele>
        <time>2019-11-09T10:10:19Z</time>
      </trkpt>
      <trkpt lat="44.84532" lon="4.64951">
        <ele>466.6</ele>
        <time>2019-11-09T10:10:20Z</time>
      </trkpt>
      <trkpt lat="44.84526" lon="4.64957">
        <ele>467.4</ele>
        <time>2019-11-09T10:10:26Z</time>
      </trkpt>
      <trkpt lat="44.84523" lon="4.64958">
        <ele>467.6</ele>
        <time>2019-11-09T10:10:28Z</time>
      </trkpt>
      <trkpt lat="44.84517" lon="4.64963">
        <ele>468.6</ele>
        <time>2019-11-09T10:10:33Z</time>
      </trkpt>
      <trkpt lat="44.84516" lon="4.64964">
        <ele>468.8</ele>
        <time>2019-11-09T10:10:34Z</time>
      </trkpt>
      <trkpt lat="44.84506" lon="4.6497">
        <ele>469.8</ele>
        <time>2019-11-09T10:10:42Z</time>
      </trkpt>
      <trkpt lat="44.84505" lon="4.64971">
        <ele>470.2</ele>
        <time>2019-11-09T10:10:43Z</time>
      </trkpt>
      <trkpt lat="44.84497" lon="4.64975">
        <ele>471</ele>
        <time>2019-11-09T10:10:49Z</time>
      </trkpt>
      <trkpt lat="44.84495" lon="4.64976">
        <ele>471</ele>
        <time>2019-11-09T10:10:50Z</time>
      </trkpt>
      <trkpt lat="44.84487" lon="4.64983">
        <ele>472</ele>
        <time>2019-11-09T10:10:56Z</time>
      </trkpt>
      <trkpt lat="44.84484" lon="4.64986">
        <ele>472.2</ele>
        <time>2019-11-09T10:10:58Z</time>
      </trkpt>
      <trkpt lat="44.84479" lon="4.64992">
        <ele>472.6</ele>
        <time>2019-11-09T10:11:03Z</time>
      </trkpt>
      <trkpt lat="44.84477" lon="4.64999">
        <ele>473</ele>
        <time>2019-11-09T10:11:06Z</time>
      </trkpt>
      <trkpt lat="44.84476" lon="4.65016">
        <ele>473.8</ele>
        <time>2019-11-09T10:11:13Z</time>
      </trkpt>
      <trkpt lat="44.84478" lon="4.65019">
        <ele>474.2</ele>
        <time>2019-11-09T10:11:15Z</time>
      </trkpt>
      <trkpt lat="44.84481" lon="4.65024">
        <ele>474.6</ele>
        <time>2019-11-09T10:11:20Z</time>
      </trkpt>
      <trkpt lat="44.84486" lon="4.65028">
        <ele>475.4</ele>
        <time>2019-11-09T10:11:24Z</time>
      </trkpt>
      <trkpt lat="44.84491" lon="4.65031">
        <ele>476</ele>
        <time>2019-11-09T10:11:27Z</time>
      </trkpt>
      <trkpt lat="44.84494" lon="4.65032">
        <ele>476.4</ele>
        <time>2019-11-09T10:11:29Z</time>
      </trkpt>
      <trkpt lat="44.84502" lon="4.65039">
        <ele>477.2</ele>
        <time>2019-11-09T10:11:34Z</time>
      </trkpt>
      <trkpt lat="44.84505" lon="4.65042">
        <ele>477.6</ele>
        <time>2019-11-09T10:11:37Z</time>
      </trkpt>
      <trkpt lat="44.84512" lon="4.65048">
        <ele>478.2</ele>
        <time>2019-11-09T10:11:42Z</time>
      </trkpt>
      <trkpt lat="44.84514" lon="4.65052">
        <ele>478.8</ele>
        <time>2019-11-09T10:11:45Z</time>
      </trkpt>
      <trkpt lat="44.84519" lon="4.65061">
        <ele>480</ele>
        <time>2019-11-09T10:11:50Z</time>
      </trkpt>
      <trkpt lat="44.84519" lon="4.65063">
        <ele>480.2</ele>
        <time>2019-11-09T10:11:51Z</time>
      </trkpt>
      <trkpt lat="44.84525" lon="4.65074">
        <ele>481.2</ele>
        <time>2019-11-09T10:11:58Z</time>
      </trkpt>
      <trkpt lat="44.84526" lon="4.65075">
        <ele>481.4</ele>
        <time>2019-11-09T10:11:59Z</time>
      </trkpt>
      <trkpt lat="44.84529" lon="4.65082">
        <ele>482.2</ele>
        <time>2019-11-09T10:12:03Z</time>
      </trkpt>
      <trkpt lat="44.84532" lon="4.65087">
        <ele>482.4</ele>
        <time>2019-11-09T10:12:06Z</time>
      </trkpt>
      <trkpt lat="44.84536" lon="4.65098">
        <ele>483.4</ele>
        <time>2019-11-09T10:12:13Z</time>
      </trkpt>
      <trkpt lat="44.84539" lon="4.65101">
        <ele>483.6</ele>
        <time>2019-11-09T10:12:15Z</time>
      </trkpt>
      <trkpt lat="44.84542" lon="4.65108">
        <ele>484.4</ele>
        <time>2019-11-09T10:12:20Z</time>
      </trkpt>
      <trkpt lat="44.84544" lon="4.6511">
        <ele>485</ele>
        <time>2019-11-09T10:12:22Z</time>
      </trkpt>
      <trkpt lat="44.84547" lon="4.65112">
        <ele>485.6</ele>
        <time>2019-11-09T10:12:25Z</time>
      </trkpt>
      <trkpt lat="44.8455" lon="4.65117">
        <ele>486.4</ele>
        <time>2019-11-09T10:12:29Z</time>
      </trkpt>
      <trkpt lat="44.84551" lon="4.65118">
        <ele>486.6</ele>
        <time>2019-11-09T10:12:30Z</time>
      </trkpt>
      <trkpt lat="44.84551" lon="4.65125">
        <ele>487.8</ele>
        <time>2019-11-09T10:12:36Z</time>
      </trkpt>
      <trkpt lat="44.84552" lon="4.65127">
        <ele>488</ele>
        <time>2019-11-09T10:12:37Z</time>
      </trkpt>
      <trkpt lat="44.84551" lon="4.65132">
        <ele>489</ele>
        <time>2019-11-09T10:12:40Z</time>
      </trkpt>
      <trkpt lat="44.84548" lon="4.65137">
        <ele>489.6</ele>
        <time>2019-11-09T10:12:44Z</time>
      </trkpt>
      <trkpt lat="44.84546" lon="4.6514">
        <ele>490.2</ele>
        <time>2019-11-09T10:12:46Z</time>
      </trkpt>
      <trkpt lat="44.84543" lon="4.65145">
        <ele>491.2</ele>
        <time>2019-11-09T10:12:51Z</time>
      </trkpt>
      <trkpt lat="44.84536" lon="4.65153">
        <ele>492.2</ele>
        <time>2019-11-09T10:12:58Z</time>
      </trkpt>
      <trkpt lat="44.84535" lon="4.65154">
        <ele>492.2</ele>
        <time>2019-11-09T10:12:59Z</time>
      </trkpt>
      <trkpt lat="44.84528" lon="4.65155">
        <ele>493</ele>
        <time>2019-11-09T10:13:05Z</time>
      </trkpt>
      <trkpt lat="44.84527" lon="4.65154">
        <ele>493.2</ele>
        <time>2019-11-09T10:13:06Z</time>
      </trkpt>
      <trkpt lat="44.84521" lon="4.65149">
        <ele>494</ele>
        <time>2019-11-09T10:13:12Z</time>
      </trkpt>
      <trkpt lat="44.84517" lon="4.65143">
        <ele>494.4</ele>
        <time>2019-11-09T10:13:16Z</time>
      </trkpt>
      <trkpt lat="44.84515" lon="4.65138">
        <ele>494.8</ele>
        <time>2019-11-09T10:13:19Z</time>
      </trkpt>
      <trkpt lat="44.84513" lon="4.65135">
        <ele>495.6</ele>
        <time>2019-11-09T10:13:22Z</time>
      </trkpt>
      <trkpt lat="44.84509" lon="4.6513">
        <ele>496.6</ele>
        <time>2019-11-09T10:13:27Z</time>
      </trkpt>
      <trkpt lat="44.84508" lon="4.65129">
        <ele>496.6</ele>
        <time>2019-11-09T10:13:28Z</time>
      </trkpt>
      <trkpt lat="44.84501" lon="4.65123">
        <ele>497.6</ele>
        <time>2019-11-09T10:13:35Z</time>
      </trkpt>
      <trkpt lat="44.84499" lon="4.65122">
        <ele>498</ele>
        <time>2019-11-09T10:13:37Z</time>
      </trkpt>
      <trkpt lat="44.84496" lon="4.65121">
        <ele>498.8</ele>
        <time>2019-11-09T10:13:40Z</time>
      </trkpt>
      <trkpt lat="44.8449" lon="4.6512">
        <ele>499.8</ele>
        <time>2019-11-09T10:13:45Z</time>
      </trkpt>
      <trkpt lat="44.84483" lon="4.65119">
        <ele>501</ele>
        <time>2019-11-09T10:13:52Z</time>
      </trkpt>
      <trkpt lat="44.84482" lon="4.65118">
        <ele>501.2</ele>
        <time>2019-11-09T10:13:53Z</time>
      </trkpt>
      <trkpt lat="44.84474" lon="4.65117">
        <ele>502.2</ele>
        <time>2019-11-09T10:13:59Z</time>
      </trkpt>
      <trkpt lat="44.84473" lon="4.65117">
        <ele>502.4</ele>
        <time>2019-11-09T10:14:00Z</time>
      </trkpt>
      <trkpt lat="44.84466" lon="4.65119">
        <ele>503.2</ele>
        <time>2019-11-09T10:14:06Z</time>
      </trkpt>
      <trkpt lat="44.84464" lon="4.65118">
        <ele>503.6</ele>
        <time>2019-11-09T10:14:08Z</time>
      </trkpt>
      <trkpt lat="44.84459" lon="4.65119">
        <ele>504.4</ele>
        <time>2019-11-09T10:14:12Z</time>
      </trkpt>
      <trkpt lat="44.84454" lon="4.65119">
        <ele>505</ele>
        <time>2019-11-09T10:14:16Z</time>
      </trkpt>
      <trkpt lat="44.84446" lon="4.6512">
        <ele>505.4</ele>
        <time>2019-11-09T10:14:22Z</time>
      </trkpt>
      <trkpt lat="44.84437" lon="4.65121">
        <ele>506.4</ele>
        <time>2019-11-09T10:14:28Z</time>
      </trkpt>
      <trkpt lat="44.84432" lon="4.65121">
        <ele>506.8</ele>
        <time>2019-11-09T10:14:32Z</time>
      </trkpt>
      <trkpt lat="44.84424" lon="4.65122">
        <ele>507.6</ele>
        <time>2019-11-09T10:14:37Z</time>
      </trkpt>
      <trkpt lat="44.84421" lon="4.65122">
        <ele>507.6</ele>
        <time>2019-11-09T10:14:39Z</time>
      </trkpt>
      <trkpt lat="44.84407" lon="4.65125">
        <ele>508.6</ele>
        <time>2019-11-09T10:14:49Z</time>
      </trkpt>
      <trkpt lat="44.84399" lon="4.65126">
        <ele>509.8</ele>
        <time>2019-11-09T10:14:55Z</time>
      </trkpt>
      <trkpt lat="44.84397" lon="4.65125">
        <ele>509.8</ele>
        <time>2019-11-09T10:14:56Z</time>
      </trkpt>
      <trkpt lat="44.84389" lon="4.65126">
        <ele>510.8</ele>
        <time>2019-11-09T10:15:02Z</time>
      </trkpt>
      <trkpt lat="44.84388" lon="4.65126">
        <ele>510.8</ele>
        <time>2019-11-09T10:15:03Z</time>
      </trkpt>
      <trkpt lat="44.84377" lon="4.65128">
        <ele>511.8</ele>
        <time>2019-11-09T10:15:11Z</time>
      </trkpt>
      <trkpt lat="44.84375" lon="4.65128">
        <ele>512</ele>
        <time>2019-11-09T10:15:12Z</time>
      </trkpt>
      <trkpt lat="44.84369" lon="4.65129">
        <ele>512.8</ele>
        <time>2019-11-09T10:15:17Z</time>
      </trkpt>
      <trkpt lat="44.84362" lon="4.65131">
        <ele>513.6</ele>
        <time>2019-11-09T10:15:22Z</time>
      </trkpt>
      <trkpt lat="44.84358" lon="4.65132">
        <ele>513.8</ele>
        <time>2019-11-09T10:15:25Z</time>
      </trkpt>
      <trkpt lat="44.8435" lon="4.65135">
        <ele>514.8</ele>
        <time>2019-11-09T10:15:31Z</time>
      </trkpt>
      <trkpt lat="44.84347" lon="4.65136">
        <ele>514.8</ele>
        <time>2019-11-09T10:15:33Z</time>
      </trkpt>
      <trkpt lat="44.84338" lon="4.65141">
        <ele>515.6</ele>
        <time>2019-11-09T10:15:39Z</time>
      </trkpt>
      <trkpt lat="44.84337" lon="4.65141">
        <ele>515.8</ele>
        <time>2019-11-09T10:15:40Z</time>
      </trkpt>
      <trkpt lat="44.84336" lon="4.65142">
        <ele>516</ele>
        <time>2019-11-09T10:15:41Z</time>
      </trkpt>
      <trkpt lat="44.84325" lon="4.65147">
        <ele>517</ele>
        <time>2019-11-09T10:15:49Z</time>
      </trkpt>
      <trkpt lat="44.84323" lon="4.65147">
        <ele>517</ele>
        <time>2019-11-09T10:15:50Z</time>
      </trkpt>
      <trkpt lat="44.84311" lon="4.65152">
        <ele>518</ele>
        <time>2019-11-09T10:15:59Z</time>
      </trkpt>
      <trkpt lat="44.84309" lon="4.65152">
        <ele>518.2</ele>
        <time>2019-11-09T10:16:00Z</time>
      </trkpt>
      <trkpt lat="44.84302" lon="4.65155">
        <ele>519</ele>
        <time>2019-11-09T10:16:05Z</time>
      </trkpt>
      <trkpt lat="44.843" lon="4.65155">
        <ele>519.6</ele>
        <time>2019-11-09T10:16:07Z</time>
      </trkpt>
      <trkpt lat="44.84296" lon="4.65157">
        <ele>520.2</ele>
        <time>2019-11-09T10:16:10Z</time>
      </trkpt>
      <trkpt lat="44.84287" lon="4.65161">
        <ele>520.8</ele>
        <time>2019-11-09T10:16:16Z</time>
      </trkpt>
      <trkpt lat="44.84282" lon="4.65164">
        <ele>521.2</ele>
        <time>2019-11-09T10:16:20Z</time>
      </trkpt>
      <trkpt lat="44.84273" lon="4.65169">
        <ele>522</ele>
        <time>2019-11-09T10:16:27Z</time>
      </trkpt>
      <trkpt lat="44.84267" lon="4.65172">
        <ele>522.4</ele>
        <time>2019-11-09T10:16:31Z</time>
      </trkpt>
      <trkpt lat="44.84264" lon="4.65173">
        <ele>522.8</ele>
        <time>2019-11-09T10:16:34Z</time>
      </trkpt>
      <trkpt lat="44.84262" lon="4.65174">
        <ele>522.8</ele>
        <time>2019-11-09T10:16:35Z</time>
      </trkpt>
      <trkpt lat="44.84258" lon="4.65176">
        <ele>523.6</ele>
        <time>2019-11-09T10:16:39Z</time>
      </trkpt>
      <trkpt lat="44.84257" lon="4.65176">
        <ele>523.6</ele>
        <time>2019-11-09T10:16:40Z</time>
      </trkpt>
      <trkpt lat="44.84247" lon="4.6517">
        <ele>524.6</ele>
        <time>2019-11-09T10:16:47Z</time>
      </trkpt>
      <trkpt lat="44.84245" lon="4.65168">
        <ele>524.6</ele>
        <time>2019-11-09T10:16:48Z</time>
      </trkpt>
      <trkpt lat="44.84243" lon="4.65165">
        <ele>524.8</ele>
        <time>2019-11-09T10:16:51Z</time>
      </trkpt>
      <trkpt lat="44.8424" lon="4.65158">
        <ele>525.6</ele>
        <time>2019-11-09T10:16:55Z</time>
      </trkpt>
      <trkpt lat="44.84239" lon="4.65157">
        <ele>525.8</ele>
        <time>2019-11-09T10:16:56Z</time>
      </trkpt>
      <trkpt lat="44.84235" lon="4.65148">
        <ele>527</ele>
        <time>2019-11-09T10:17:02Z</time>
      </trkpt>
      <trkpt lat="44.84234" lon="4.65147">
        <ele>527.2</ele>
        <time>2019-11-09T10:17:03Z</time>
      </trkpt>
      <trkpt lat="44.84232" lon="4.6514">
        <ele>528.2</ele>
        <time>2019-11-09T10:17:07Z</time>
      </trkpt>
      <trkpt lat="44.84229" lon="4.65132">
        <ele>529.2</ele>
        <time>2019-11-09T10:17:12Z</time>
      </trkpt>
      <trkpt lat="44.84229" lon="4.6513">
        <ele>529.4</ele>
        <time>2019-11-09T10:17:13Z</time>
      </trkpt>
      <trkpt lat="44.84228" lon="4.65122">
        <ele>530.6</ele>
        <time>2019-11-09T10:17:18Z</time>
      </trkpt>
      <trkpt lat="44.84228" lon="4.65118">
        <ele>530.8</ele>
        <time>2019-11-09T10:17:20Z</time>
      </trkpt>
      <trkpt lat="44.8423" lon="4.65108">
        <ele>531.6</ele>
        <time>2019-11-09T10:17:26Z</time>
      </trkpt>
      <trkpt lat="44.84232" lon="4.65105">
        <ele>532</ele>
        <time>2019-11-09T10:17:28Z</time>
      </trkpt>
      <trkpt lat="44.84234" lon="4.65101">
        <ele>532.8</ele>
        <time>2019-11-09T10:17:31Z</time>
      </trkpt>
      <trkpt lat="44.84237" lon="4.65095">
        <ele>533.8</ele>
        <time>2019-11-09T10:17:35Z</time>
      </trkpt>
      <trkpt lat="44.84239" lon="4.65091">
        <ele>534.6</ele>
        <time>2019-11-09T10:17:38Z</time>
      </trkpt>
      <trkpt lat="44.8424" lon="4.65088">
        <ele>535</ele>
        <time>2019-11-09T10:17:40Z</time>
      </trkpt>
      <trkpt lat="44.84241" lon="4.6508">
        <ele>535.8</ele>
        <time>2019-11-09T10:17:45Z</time>
      </trkpt>
      <trkpt lat="44.84241" lon="4.65079">
        <ele>536</ele>
        <time>2019-11-09T10:17:46Z</time>
      </trkpt>
      <trkpt lat="44.84239" lon="4.65075">
        <ele>536.6</ele>
        <time>2019-11-09T10:17:49Z</time>
      </trkpt>
      <trkpt lat="44.84238" lon="4.65075">
        <ele>536.6</ele>
        <time>2019-11-09T10:17:50Z</time>
      </trkpt>
      <trkpt lat="44.84237" lon="4.65075">
        <ele>536.8</ele>
        <time>2019-11-09T10:17:51Z</time>
      </trkpt>
      <trkpt lat="44.84235" lon="4.65077">
        <ele>537.2</ele>
        <time>2019-11-09T10:17:53Z</time>
      </trkpt>
      <trkpt lat="44.84231" lon="4.65081">
        <ele>537.4</ele>
        <time>2019-11-09T10:17:57Z</time>
      </trkpt>
      <trkpt lat="44.84225" lon="4.6509">
        <ele>538.4</ele>
        <time>2019-11-09T10:18:03Z</time>
      </trkpt>
      <trkpt lat="44.84224" lon="4.65091">
        <ele>538.8</ele>
        <time>2019-11-09T10:18:04Z</time>
      </trkpt>
      <trkpt lat="44.84217" lon="4.65099">
        <ele>539.4</ele>
        <time>2019-11-09T10:18:10Z</time>
      </trkpt>
      <trkpt lat="44.84212" lon="4.65106">
        <ele>540</ele>
        <time>2019-11-09T10:18:15Z</time>
      </trkpt>
      <trkpt lat="44.84208" lon="4.65111">
        <ele>540.6</ele>
        <time>2019-11-09T10:18:19Z</time>
      </trkpt>
      <trkpt lat="44.84205" lon="4.65116">
        <ele>540.8</ele>
        <time>2019-11-09T10:18:22Z</time>
      </trkpt>
      <trkpt lat="44.84202" lon="4.65122">
        <ele>541.6</ele>
        <time>2019-11-09T10:18:26Z</time>
      </trkpt>
      <trkpt lat="44.84199" lon="4.65126">
        <ele>542.2</ele>
        <time>2019-11-09T10:18:29Z</time>
      </trkpt>
      <trkpt lat="44.84195" lon="4.65133">
        <ele>542.8</ele>
        <time>2019-11-09T10:18:33Z</time>
      </trkpt>
      <trkpt lat="44.84191" lon="4.65137">
        <ele>543.8</ele>
        <time>2019-11-09T10:18:37Z</time>
      </trkpt>
      <trkpt lat="44.8419" lon="4.65138">
        <ele>544</ele>
        <time>2019-11-09T10:18:38Z</time>
      </trkpt>
      <trkpt lat="44.84188" lon="4.65139">
        <ele>544.2</ele>
        <time>2019-11-09T10:18:39Z</time>
      </trkpt>
      <trkpt lat="44.84183" lon="4.6514">
        <ele>545.2</ele>
        <time>2019-11-09T10:18:43Z</time>
      </trkpt>
      <trkpt lat="44.8418" lon="4.6514">
        <ele>545.6</ele>
        <time>2019-11-09T10:18:45Z</time>
      </trkpt>
      <trkpt lat="44.84175" lon="4.65139">
        <ele>546.4</ele>
        <time>2019-11-09T10:18:49Z</time>
      </trkpt>
      <trkpt lat="44.84171" lon="4.65138">
        <ele>547</ele>
        <time>2019-11-09T10:18:52Z</time>
      </trkpt>
      <trkpt lat="44.84167" lon="4.65137">
        <ele>547.4</ele>
        <time>2019-11-09T10:18:55Z</time>
      </trkpt>
      <trkpt lat="44.84161" lon="4.65134">
        <ele>547.8</ele>
        <time>2019-11-09T10:19:00Z</time>
      </trkpt>
      <trkpt lat="44.84154" lon="4.65132">
        <ele>548.4</ele>
        <time>2019-11-09T10:19:07Z</time>
      </trkpt>
      <trkpt lat="44.84153" lon="4.65131">
        <ele>548.4</ele>
        <time>2019-11-09T10:19:08Z</time>
      </trkpt>
      <trkpt lat="44.84152" lon="4.6513">
        <ele>548.2</ele>
        <time>2019-11-09T10:19:09Z</time>
      </trkpt>
      <trkpt lat="44.8415" lon="4.65131">
        <ele>548</ele>
        <time>2019-11-09T10:19:11Z</time>
      </trkpt>
      <trkpt lat="44.8415" lon="4.65132">
        <ele>547.8</ele>
        <time>2019-11-09T10:19:12Z</time>
      </trkpt>
      <trkpt lat="44.84149" lon="4.65134">
        <ele>548.2</ele>
        <time>2019-11-09T10:19:17Z</time>
      </trkpt>
      <trkpt lat="44.84149" lon="4.65136">
        <ele>548.4</ele>
        <time>2019-11-09T10:19:20Z</time>
      </trkpt>
      <trkpt lat="44.84149" lon="4.65139">
        <ele>549</ele>
        <time>2019-11-09T10:19:23Z</time>
      </trkpt>
      <trkpt lat="44.84148" lon="4.6514">
        <ele>549</ele>
        <time>2019-11-09T10:19:25Z</time>
      </trkpt>
      <trkpt lat="44.84146" lon="4.65141">
        <ele>549.2</ele>
        <time>2019-11-09T10:19:28Z</time>
      </trkpt>
      <trkpt lat="44.84145" lon="4.65141">
        <ele>549.4</ele>
        <time>2019-11-09T10:19:29Z</time>
      </trkpt>
      <trkpt lat="44.84145" lon="4.65139">
        <ele>549.2</ele>
        <time>2019-11-09T10:19:34Z</time>
      </trkpt>
      <trkpt lat="44.84146" lon="4.65139">
        <ele>549.6</ele>
        <time>2019-11-09T10:19:39Z</time>
      </trkpt>
      <trkpt lat="44.84146" lon="4.65138">
        <ele>549.8</ele>
        <time>2019-11-09T10:19:42Z</time>
      </trkpt>
      <trkpt lat="44.84145" lon="4.65136">
        <ele>549.6</ele>
        <time>2019-11-09T10:19:47Z</time>
      </trkpt>
      <trkpt lat="44.84145" lon="4.65135">
        <ele>549.4</ele>
        <time>2019-11-09T10:19:50Z</time>
      </trkpt>
      <trkpt lat="44.84146" lon="4.65135">
        <ele>549.4</ele>
        <time>2019-11-09T10:20:01Z</time>
      </trkpt>
      <trkpt lat="44.84147" lon="4.65135">
        <ele>550.2</ele>
        <time>2019-11-09T10:20:12Z</time>
      </trkpt>
      <trkpt lat="44.84147" lon="4.65135">
        <ele>550.2</ele>
        <time>2019-11-09T10:20:18Z</time>
      </trkpt>
      <trkpt lat="44.84147" lon="4.65135">
        <ele>550.2</ele>
        <time>2019-11-09T10:20:19Z</time>
      </trkpt>
      <trkpt lat="44.84147" lon="4.65135">
        <ele>550.2</ele>
        <time>2019-11-09T10:20:20Z</time>
      </trkpt>
      <trkpt lat="44.84147" lon="4.65135">
        <ele>550.2</ele>
        <time>2019-11-09T10:20:21Z</time>
      </trkpt>
      <trkpt lat="44.84147" lon="4.65135">
        <ele>550.2</ele>
        <time>2019-11-09T10:20:25Z</time>
      </trkpt>
      <trkpt lat="44.84147" lon="4.65136">
        <ele>550.2</ele>
        <time>2019-11-09T10:20:26Z</time>
      </trkpt>
      <trkpt lat="44.84147" lon="4.65137">
        <ele>550.6</ele>
        <time>2019-11-09T10:20:33Z</time>
      </trkpt>
      <trkpt lat="44.84148" lon="4.65137">
        <ele>550.8</ele>
        <time>2019-11-09T10:20:34Z</time>
      </trkpt>
      <trkpt lat="44.84148" lon="4.65138">
        <ele>550.4</ele>
        <time>2019-11-09T10:20:41Z</time>
      </trkpt>
      <trkpt lat="44.84147" lon="4.65139">
        <ele>550.4</ele>
        <time>2019-11-09T10:20:55Z</time>
      </trkpt>
      <trkpt lat="44.84147" lon="4.6514">
        <ele>550.6</ele>
        <time>2019-11-09T10:21:00Z</time>
      </trkpt>
      <trkpt lat="44.84147" lon="4.65138">
        <ele>550.8</ele>
        <time>2019-11-09T10:21:06Z</time>
      </trkpt>
      <trkpt lat="44.84147" lon="4.65139">
        <ele>550.6</ele>
        <time>2019-11-09T10:21:13Z</time>
      </trkpt>
      <trkpt lat="44.84147" lon="4.65138">
        <ele>550.6</ele>
        <time>2019-11-09T10:21:20Z</time>
      </trkpt>
      <trkpt lat="44.84147" lon="4.65137">
        <ele>550.6</ele>
        <time>2019-11-09T10:21:31Z</time>
      </trkpt>
      <trkpt lat="44.84147" lon="4.65137">
        <ele>550.6</ele>
        <time>2019-11-09T10:21:37Z</time>
      </trkpt>
      <trkpt lat="44.84147" lon="4.65137">
        <ele>550.6</ele>
        <time>2019-11-09T10:21:43Z</time>
      </trkpt>
      <trkpt lat="44.84147" lon="4.65137">
        <ele>550.6</ele>
        <time>2019-11-09T10:21:46Z</time>
      </trkpt>
      <trkpt lat="44.84147" lon="4.65138">
        <ele>550.6</ele>
        <time>2019-11-09T10:21:49Z</time>
      </trkpt>
      <trkpt lat="44.84147" lon="4.65137">
        <ele>550.6</ele>
        <time>2019-11-09T10:22:00Z</time>
      </trkpt>
      <trkpt lat="44.84147" lon="4.65137">
        <ele>550.6</ele>
        <time>2019-11-09T10:22:08Z</time>
      </trkpt>
      <trkpt lat="44.84145" lon="4.65137">
        <ele>550.6</ele>
        <time>2019-11-09T10:22:23Z</time>
      </trkpt>
      <trkpt lat="44.84144" lon="4.65136">
        <ele>550.6</ele>
        <time>2019-11-09T10:22:39Z</time>
      </trkpt>
      <trkpt lat="44.84144" lon="4.65136">
        <ele>550.6</ele>
        <time>2019-11-09T10:22:41Z</time>
      </trkpt>
      <trkpt lat="44.84145" lon="4.65136">
        <ele>550.6</ele>
        <time>2019-11-09T10:22:48Z</time>
      </trkpt>
      <trkpt lat="44.84145" lon="4.65137">
        <ele>550.6</ele>
        <time>2019-11-09T10:22:54Z</time>
      </trkpt>
      <trkpt lat="44.84146" lon="4.65138">
        <ele>550.6</ele>
        <time>2019-11-09T10:23:13Z</time>
      </trkpt>
      <trkpt lat="44.84146" lon="4.65138">
        <ele>550.6</ele>
        <time>2019-11-09T10:23:16Z</time>
      </trkpt>
      <trkpt lat="44.84146" lon="4.65138">
        <ele>550.6</ele>
        <time>2019-11-09T10:23:32Z</time>
      </trkpt>
      <trkpt lat="44.84146" lon="4.65138">
        <ele>550.6</ele>
        <time>2019-11-09T10:23:38Z</time>
      </trkpt>
      <trkpt lat="44.84146" lon="4.65138">
        <ele>550.6</ele>
        <time>2019-11-09T10:23:54Z</time>
      </trkpt>
      <trkpt lat="44.84146" lon="4.65138">
        <ele>550.6</ele>
        <time>2019-11-09T10:24:07Z</time>
      </trkpt>
      <trkpt lat="44.84146" lon="4.65139">
        <ele>550.6</ele>
        <time>2019-11-09T10:24:13Z</time>
      </trkpt>
      <trkpt lat="44.84147" lon="4.65139">
        <ele>550.6</ele>
        <time>2019-11-09T10:24:22Z</time>
      </trkpt>
      <trkpt lat="44.84148" lon="4.6514">
        <ele>550.6</ele>
        <time>2019-11-09T10:24:28Z</time>
      </trkpt>
      <trkpt lat="44.84147" lon="4.6514">
        <ele>550.6</ele>
        <time>2019-11-09T10:24:36Z</time>
      </trkpt>
      <trkpt lat="44.84147" lon="4.6514">
        <ele>550.6</ele>
        <time>2019-11-09T10:24:48Z</time>
      </trkpt>
      <trkpt lat="44.84147" lon="4.6514">
        <ele>550.6</ele>
        <time>2019-11-09T10:24:52Z</time>
      </trkpt>
      <trkpt lat="44.84147" lon="4.6514">
        <ele>550.6</ele>
        <time>2019-11-09T10:25:02Z</time>
      </trkpt>
      <trkpt lat="44.84147" lon="4.6514">
        <ele>550.6</ele>
        <time>2019-11-09T10:25:15Z</time>
      </trkpt>
      <trkpt lat="44.84147" lon="4.65139">
        <ele>550.6</ele>
        <time>2019-11-09T10:25:31Z</time>
      </trkpt>
      <trkpt lat="44.84147" lon="4.6514">
        <ele>550.6</ele>
        <time>2019-11-09T10:25:47Z</time>
      </trkpt>
      <trkpt lat="44.84147" lon="4.6514">
        <ele>550.6</ele>
        <time>2019-11-09T10:25:55Z</time>
      </trkpt>
      <trkpt lat="44.84147" lon="4.65141">
        <ele>550.6</ele>
        <time>2019-11-09T10:26:00Z</time>
      </trkpt>
      <trkpt lat="44.84147" lon="4.65141">
        <ele>550.6</ele>
        <time>2019-11-09T10:26:01Z</time>
      </trkpt>
      <trkpt lat="44.84148" lon="4.65145">
        <ele>550.6</ele>
        <time>2019-11-09T10:26:04Z</time>
      </trkpt>
      <trkpt lat="44.84148" lon="4.65147">
        <ele>550.6</ele>
        <time>2019-11-09T10:26:05Z</time>
      </trkpt>
      <trkpt lat="44.84146" lon="4.65153">
        <ele>551</ele>
        <time>2019-11-09T10:26:09Z</time>
      </trkpt>
      <trkpt lat="44.84143" lon="4.65156">
        <ele>551.4</ele>
        <time>2019-11-09T10:26:11Z</time>
      </trkpt>
      <trkpt lat="44.84142" lon="4.65158">
        <ele>551.4</ele>
        <time>2019-11-09T10:26:12Z</time>
      </trkpt>
      <trkpt lat="44.84134" lon="4.65166">
        <ele>551.6</ele>
        <time>2019-11-09T10:26:18Z</time>
      </trkpt>
      <trkpt lat="44.84133" lon="4.65168">
        <ele>551.6</ele>
        <time>2019-11-09T10:26:19Z</time>
      </trkpt>
      <trkpt lat="44.84131" lon="4.65171">
        <ele>551.8</ele>
        <time>2019-11-09T10:26:21Z</time>
      </trkpt>
      <trkpt lat="44.84125" lon="4.65179">
        <ele>551.8</ele>
        <time>2019-11-09T10:26:26Z</time>
      </trkpt>
      <trkpt lat="44.84121" lon="4.65182">
        <ele>551.8</ele>
        <time>2019-11-09T10:26:29Z</time>
      </trkpt>
      <trkpt lat="44.84117" lon="4.65186">
        <ele>552</ele>
        <time>2019-11-09T10:26:32Z</time>
      </trkpt>
      <trkpt lat="44.84108" lon="4.65194">
        <ele>551.6</ele>
        <time>2019-11-09T10:26:38Z</time>
      </trkpt>
      <trkpt lat="44.84097" lon="4.65195">
        <ele>551</ele>
        <time>2019-11-09T10:26:44Z</time>
      </trkpt>
      <trkpt lat="44.84091" lon="4.6519">
        <ele>550.6</ele>
        <time>2019-11-09T10:26:46Z</time>
      </trkpt>
      <trkpt lat="44.84088" lon="4.65183">
        <ele>549.8</ele>
        <time>2019-11-09T10:26:48Z</time>
      </trkpt>
      <trkpt lat="44.84085" lon="4.6518">
        <ele>549.4</ele>
        <time>2019-11-09T10:26:49Z</time>
      </trkpt>
      <trkpt lat="44.84083" lon="4.65177">
        <ele>548.8</ele>
        <time>2019-11-09T10:26:50Z</time>
      </trkpt>
      <trkpt lat="44.8408" lon="4.65177">
        <ele>548.2</ele>
        <time>2019-11-09T10:26:51Z</time>
      </trkpt>
      <trkpt lat="44.84077" lon="4.65177">
        <ele>547.4</ele>
        <time>2019-11-09T10:26:52Z</time>
      </trkpt>
      <trkpt lat="44.84074" lon="4.65178">
        <ele>546.4</ele>
        <time>2019-11-09T10:26:53Z</time>
      </trkpt>
      <trkpt lat="44.8407" lon="4.65181">
        <ele>545.4</ele>
        <time>2019-11-09T10:26:54Z</time>
      </trkpt>
      <trkpt lat="44.84067" lon="4.65185">
        <ele>544.6</ele>
        <time>2019-11-09T10:26:55Z</time>
      </trkpt>
      <trkpt lat="44.84065" lon="4.6519">
        <ele>543.8</ele>
        <time>2019-11-09T10:26:56Z</time>
      </trkpt>
      <trkpt lat="44.84063" lon="4.65196">
        <ele>543.2</ele>
        <time>2019-11-09T10:26:57Z</time>
      </trkpt>
      <trkpt lat="44.84062" lon="4.65202">
        <ele>542.6</ele>
        <time>2019-11-09T10:26:58Z</time>
      </trkpt>
      <trkpt lat="44.84062" lon="4.65208">
        <ele>541.6</ele>
        <time>2019-11-09T10:26:59Z</time>
      </trkpt>
      <trkpt lat="44.84062" lon="4.65214">
        <ele>541.2</ele>
        <time>2019-11-09T10:27:00Z</time>
      </trkpt>
      <trkpt lat="44.84063" lon="4.6522">
        <ele>540</ele>
        <time>2019-11-09T10:27:01Z</time>
      </trkpt>
      <trkpt lat="44.84063" lon="4.65226">
        <ele>538.2</ele>
        <time>2019-11-09T10:27:02Z</time>
      </trkpt>
      <trkpt lat="44.84063" lon="4.65233">
        <ele>536.8</ele>
        <time>2019-11-09T10:27:03Z</time>
      </trkpt>
      <trkpt lat="44.84061" lon="4.6524">
        <ele>535.6</ele>
        <time>2019-11-09T10:27:04Z</time>
      </trkpt>
      <trkpt lat="44.84057" lon="4.65256">
        <ele>534.6</ele>
        <time>2019-11-09T10:27:06Z</time>
      </trkpt>
      <trkpt lat="44.8405" lon="4.65262">
        <ele>534</ele>
        <time>2019-11-09T10:27:08Z</time>
      </trkpt>
      <trkpt lat="44.84043" lon="4.65261">
        <ele>533.4</ele>
        <time>2019-11-09T10:27:10Z</time>
      </trkpt>
      <trkpt lat="44.84039" lon="4.65259">
        <ele>533</ele>
        <time>2019-11-09T10:27:11Z</time>
      </trkpt>
      <trkpt lat="44.84035" lon="4.65257">
        <ele>532.4</ele>
        <time>2019-11-09T10:27:12Z</time>
      </trkpt>
      <trkpt lat="44.8403" lon="4.65256">
        <ele>531.8</ele>
        <time>2019-11-09T10:27:13Z</time>
      </trkpt>
      <trkpt lat="44.8402" lon="4.65253">
        <ele>530.6</ele>
        <time>2019-11-09T10:27:15Z</time>
      </trkpt>
      <trkpt lat="44.84015" lon="4.65252">
        <ele>530.2</ele>
        <time>2019-11-09T10:27:16Z</time>
      </trkpt>
      <trkpt lat="44.84006" lon="4.6525">
        <ele>530</ele>
        <time>2019-11-09T10:27:18Z</time>
      </trkpt>
      <trkpt lat="44.83992" lon="4.65247">
        <ele>529.6</ele>
        <time>2019-11-09T10:27:21Z</time>
      </trkpt>
      <trkpt lat="44.83988" lon="4.65248">
        <ele>529.6</ele>
        <time>2019-11-09T10:27:22Z</time>
      </trkpt>
      <trkpt lat="44.83974" lon="4.65252">
        <ele>528.6</ele>
        <time>2019-11-09T10:27:25Z</time>
      </trkpt>
      <trkpt lat="44.83964" lon="4.65254">
        <ele>527.8</ele>
        <time>2019-11-09T10:27:27Z</time>
      </trkpt>
      <trkpt lat="44.8396" lon="4.65256">
        <ele>527.4</ele>
        <time>2019-11-09T10:27:28Z</time>
      </trkpt>
      <trkpt lat="44.8394" lon="4.6526">
        <ele>526.4</ele>
        <time>2019-11-09T10:27:32Z</time>
      </trkpt>
      <trkpt lat="44.83936" lon="4.6526">
        <ele>526.2</ele>
        <time>2019-11-09T10:27:33Z</time>
      </trkpt>
      <trkpt lat="44.83929" lon="4.65258">
        <ele>526.8</ele>
        <time>2019-11-09T10:27:35Z</time>
      </trkpt>
      <trkpt lat="44.83922" lon="4.65254">
        <ele>527.2</ele>
        <time>2019-11-09T10:27:37Z</time>
      </trkpt>
      <trkpt lat="44.83919" lon="4.65251">
        <ele>527.4</ele>
        <time>2019-11-09T10:27:38Z</time>
      </trkpt>
      <trkpt lat="44.8391" lon="4.65246">
        <ele>528.2</ele>
        <time>2019-11-09T10:27:42Z</time>
      </trkpt>
      <trkpt lat="44.83905" lon="4.65245">
        <ele>528.4</ele>
        <time>2019-11-09T10:27:44Z</time>
      </trkpt>
      <trkpt lat="44.83897" lon="4.65243">
        <ele>528.6</ele>
        <time>2019-11-09T10:27:47Z</time>
      </trkpt>
      <trkpt lat="44.83893" lon="4.65243">
        <ele>528.6</ele>
        <time>2019-11-09T10:27:48Z</time>
      </trkpt>
      <trkpt lat="44.83874" lon="4.65241">
        <ele>528.8</ele>
        <time>2019-11-09T10:27:55Z</time>
      </trkpt>
      <trkpt lat="44.83856" lon="4.65233">
        <ele>528.6</ele>
        <time>2019-11-09T10:28:00Z</time>
      </trkpt>
      <trkpt lat="44.83841" lon="4.65228">
        <ele>527.4</ele>
        <time>2019-11-09T10:28:04Z</time>
      </trkpt>
      <trkpt lat="44.83837" lon="4.65227">
        <ele>527.2</ele>
        <time>2019-11-09T10:28:05Z</time>
      </trkpt>
      <trkpt lat="44.83833" lon="4.65228">
        <ele>527.2</ele>
        <time>2019-11-09T10:28:06Z</time>
      </trkpt>
      <trkpt lat="44.83811" lon="4.65236">
        <ele>527.2</ele>
        <time>2019-11-09T10:28:12Z</time>
      </trkpt>
      <trkpt lat="44.83798" lon="4.65244">
        <ele>527.6</ele>
        <time>2019-11-09T10:28:16Z</time>
      </trkpt>
      <trkpt lat="44.83792" lon="4.65248">
        <ele>527.6</ele>
        <time>2019-11-09T10:28:18Z</time>
      </trkpt>
      <trkpt lat="44.83776" lon="4.65261">
        <ele>528.4</ele>
        <time>2019-11-09T10:28:24Z</time>
      </trkpt>
      <trkpt lat="44.83774" lon="4.65263">
        <ele>528.4</ele>
        <time>2019-11-09T10:28:25Z</time>
      </trkpt>
      <trkpt lat="44.83754" lon="4.65278">
        <ele>528.4</ele>
        <time>2019-11-09T10:28:32Z</time>
      </trkpt>
      <trkpt lat="44.83751" lon="4.65279">
        <ele>528.4</ele>
        <time>2019-11-09T10:28:33Z</time>
      </trkpt>
      <trkpt lat="44.83747" lon="4.6528">
        <ele>528.6</ele>
        <time>2019-11-09T10:28:34Z</time>
      </trkpt>
      <trkpt lat="44.83744" lon="4.65281">
        <ele>528.6</ele>
        <time>2019-11-09T10:28:35Z</time>
      </trkpt>
      <trkpt lat="44.83741" lon="4.65282">
        <ele>528.6</ele>
        <time>2019-11-09T10:28:36Z</time>
      </trkpt>
      <trkpt lat="44.83736" lon="4.65284">
        <ele>528.8</ele>
        <time>2019-11-09T10:28:38Z</time>
      </trkpt>
      <trkpt lat="44.83733" lon="4.65285">
        <ele>528.8</ele>
        <time>2019-11-09T10:28:39Z</time>
      </trkpt>
      <trkpt lat="44.8373" lon="4.65286">
        <ele>529</ele>
        <time>2019-11-09T10:28:40Z</time>
      </trkpt>
      <trkpt lat="44.83725" lon="4.65287">
        <ele>529.6</ele>
        <time>2019-11-09T10:28:42Z</time>
      </trkpt>
      <trkpt lat="44.83711" lon="4.65287">
        <ele>530.8</ele>
        <time>2019-11-09T10:28:48Z</time>
      </trkpt>
      <trkpt lat="44.83709" lon="4.65286">
        <ele>531.2</ele>
        <time>2019-11-09T10:28:49Z</time>
      </trkpt>
      <trkpt lat="44.83706" lon="4.65285">
        <ele>531.4</ele>
        <time>2019-11-09T10:28:50Z</time>
      </trkpt>
      <trkpt lat="44.83702" lon="4.65285">
        <ele>531.8</ele>
        <time>2019-11-09T10:28:52Z</time>
      </trkpt>
      <trkpt lat="44.837" lon="4.65285">
        <ele>531.8</ele>
        <time>2019-11-09T10:28:53Z</time>
      </trkpt>
      <trkpt lat="44.83694" lon="4.65285">
        <ele>532.2</ele>
        <time>2019-11-09T10:28:56Z</time>
      </trkpt>
      <trkpt lat="44.83689" lon="4.65297">
        <ele>531.4</ele>
        <time>2019-11-09T10:29:00Z</time>
      </trkpt>
      <trkpt lat="44.83689" lon="4.65303">
        <ele>530.6</ele>
        <time>2019-11-09T10:29:01Z</time>
      </trkpt>
      <trkpt lat="44.83689" lon="4.6531">
        <ele>529.6</ele>
        <time>2019-11-09T10:29:02Z</time>
      </trkpt>
      <trkpt lat="44.83691" lon="4.65318">
        <ele>528.8</ele>
        <time>2019-11-09T10:29:03Z</time>
      </trkpt>
      <trkpt lat="44.83692" lon="4.65328">
        <ele>527.8</ele>
        <time>2019-11-09T10:29:04Z</time>
      </trkpt>
      <trkpt lat="44.83695" lon="4.65344">
        <ele>526.8</ele>
        <time>2019-11-09T10:29:06Z</time>
      </trkpt>
      <trkpt lat="44.83699" lon="4.65359">
        <ele>526</ele>
        <time>2019-11-09T10:29:08Z</time>
      </trkpt>
      <trkpt lat="44.83699" lon="4.65366">
        <ele>524.8</ele>
        <time>2019-11-09T10:29:09Z</time>
      </trkpt>
      <trkpt lat="44.837" lon="4.65373">
        <ele>523</ele>
        <time>2019-11-09T10:29:10Z</time>
      </trkpt>
      <trkpt lat="44.837" lon="4.65381">
        <ele>521.6</ele>
        <time>2019-11-09T10:29:11Z</time>
      </trkpt>
      <trkpt lat="44.837" lon="4.65389">
        <ele>521</ele>
        <time>2019-11-09T10:29:12Z</time>
      </trkpt>
      <trkpt lat="44.83699" lon="4.65399">
        <ele>520.2</ele>
        <time>2019-11-09T10:29:13Z</time>
      </trkpt>
      <trkpt lat="44.83697" lon="4.65418">
        <ele>518.4</ele>
        <time>2019-11-09T10:29:15Z</time>
      </trkpt>
      <trkpt lat="44.83695" lon="4.65427">
        <ele>517.8</ele>
        <time>2019-11-09T10:29:16Z</time>
      </trkpt>
      <trkpt lat="44.83693" lon="4.65435">
        <ele>516.8</ele>
        <time>2019-11-09T10:29:17Z</time>
      </trkpt>
      <trkpt lat="44.8369" lon="4.65442">
        <ele>516.4</ele>
        <time>2019-11-09T10:29:18Z</time>
      </trkpt>
      <trkpt lat="44.83688" lon="4.65448">
        <ele>515.8</ele>
        <time>2019-11-09T10:29:19Z</time>
      </trkpt>
      <trkpt lat="44.83679" lon="4.65465">
        <ele>514.8</ele>
        <time>2019-11-09T10:29:22Z</time>
      </trkpt>
      <trkpt lat="44.83676" lon="4.65471">
        <ele>514.4</ele>
        <time>2019-11-09T10:29:23Z</time>
      </trkpt>
      <trkpt lat="44.83668" lon="4.65488">
        <ele>513.4</ele>
        <time>2019-11-09T10:29:26Z</time>
      </trkpt>
      <trkpt lat="44.83664" lon="4.655">
        <ele>513.2</ele>
        <time>2019-11-09T10:29:28Z</time>
      </trkpt>
      <trkpt lat="44.83659" lon="4.65512">
        <ele>513.2</ele>
        <time>2019-11-09T10:29:30Z</time>
      </trkpt>
      <trkpt lat="44.83646" lon="4.65538">
        <ele>513.4</ele>
        <time>2019-11-09T10:29:36Z</time>
      </trkpt>
      <trkpt lat="44.83639" lon="4.65548">
        <ele>513.4</ele>
        <time>2019-11-09T10:29:41Z</time>
      </trkpt>
      <trkpt lat="44.8363" lon="4.65562">
        <ele>513</ele>
        <time>2019-11-09T10:29:44Z</time>
      </trkpt>
      <trkpt lat="44.83627" lon="4.65569">
        <ele>512.2</ele>
        <time>2019-11-09T10:29:45Z</time>
      </trkpt>
      <trkpt lat="44.83625" lon="4.65577">
        <ele>511</ele>
        <time>2019-11-09T10:29:46Z</time>
      </trkpt>
      <trkpt lat="44.83623" lon="4.65585">
        <ele>510</ele>
        <time>2019-11-09T10:29:47Z</time>
      </trkpt>
      <trkpt lat="44.83622" lon="4.65594">
        <ele>508.4</ele>
        <time>2019-11-09T10:29:48Z</time>
      </trkpt>
      <trkpt lat="44.83622" lon="4.65609">
        <ele>506.6</ele>
        <time>2019-11-09T10:29:50Z</time>
      </trkpt>
      <trkpt lat="44.83622" lon="4.65617">
        <ele>506</ele>
        <time>2019-11-09T10:29:51Z</time>
      </trkpt>
      <trkpt lat="44.8362" lon="4.65623">
        <ele>505.8</ele>
        <time>2019-11-09T10:29:52Z</time>
      </trkpt>
      <trkpt lat="44.83618" lon="4.65627">
        <ele>505.8</ele>
        <time>2019-11-09T10:29:53Z</time>
      </trkpt>
      <trkpt lat="44.83615" lon="4.65628">
        <ele>505.6</ele>
        <time>2019-11-09T10:29:54Z</time>
      </trkpt>
      <trkpt lat="44.83612" lon="4.65629">
        <ele>505.4</ele>
        <time>2019-11-09T10:29:55Z</time>
      </trkpt>
      <trkpt lat="44.836" lon="4.65637">
        <ele>504.4</ele>
        <time>2019-11-09T10:30:00Z</time>
      </trkpt>
      <trkpt lat="44.83598" lon="4.6564">
        <ele>504.4</ele>
        <time>2019-11-09T10:30:01Z</time>
      </trkpt>
      <trkpt lat="44.83586" lon="4.65654">
        <ele>503.8</ele>
        <time>2019-11-09T10:30:07Z</time>
      </trkpt>
      <trkpt lat="44.83571" lon="4.65665">
        <ele>504</ele>
        <time>2019-11-09T10:30:14Z</time>
      </trkpt>
      <trkpt lat="44.83555" lon="4.65675">
        <ele>504.2</ele>
        <time>2019-11-09T10:30:21Z</time>
      </trkpt>
      <trkpt lat="44.83544" lon="4.6569">
        <ele>503.4</ele>
        <time>2019-11-09T10:30:26Z</time>
      </trkpt>
      <trkpt lat="44.83535" lon="4.65698">
        <ele>502.8</ele>
        <time>2019-11-09T10:30:29Z</time>
      </trkpt>
      <trkpt lat="44.83532" lon="4.65698">
        <ele>503</ele>
        <time>2019-11-09T10:30:30Z</time>
      </trkpt>
      <trkpt lat="44.83525" lon="4.65693">
        <ele>503.6</ele>
        <time>2019-11-09T10:30:33Z</time>
      </trkpt>
      <trkpt lat="44.83521" lon="4.65688">
        <ele>504.2</ele>
        <time>2019-11-09T10:30:35Z</time>
      </trkpt>
      <trkpt lat="44.8351" lon="4.6568">
        <ele>504</ele>
        <time>2019-11-09T10:30:38Z</time>
      </trkpt>
      <trkpt lat="44.83493" lon="4.65664">
        <ele>502.6</ele>
        <time>2019-11-09T10:30:42Z</time>
      </trkpt>
      <trkpt lat="44.83479" lon="4.65662">
        <ele>502.8</ele>
        <time>2019-11-09T10:30:46Z</time>
      </trkpt>
      <trkpt lat="44.83469" lon="4.65664">
        <ele>502.8</ele>
        <time>2019-11-09T10:30:48Z</time>
      </trkpt>
      <trkpt lat="44.83464" lon="4.65663">
        <ele>502.2</ele>
        <time>2019-11-09T10:30:49Z</time>
      </trkpt>
      <trkpt lat="44.83455" lon="4.65664">
        <ele>501.6</ele>
        <time>2019-11-09T10:30:51Z</time>
      </trkpt>
      <trkpt lat="44.83436" lon="4.65674">
        <ele>501.6</ele>
        <time>2019-11-09T10:30:56Z</time>
      </trkpt>
      <trkpt lat="44.83422" lon="4.65688">
        <ele>501.2</ele>
        <time>2019-11-09T10:31:01Z</time>
      </trkpt>
      <trkpt lat="44.8342" lon="4.65693">
        <ele>501</ele>
        <time>2019-11-09T10:31:02Z</time>
      </trkpt>
      <trkpt lat="44.83417" lon="4.65698">
        <ele>500.6</ele>
        <time>2019-11-09T10:31:03Z</time>
      </trkpt>
      <trkpt lat="44.83413" lon="4.65702">
        <ele>500.4</ele>
        <time>2019-11-09T10:31:04Z</time>
      </trkpt>
      <trkpt lat="44.83409" lon="4.65704">
        <ele>500.2</ele>
        <time>2019-11-09T10:31:05Z</time>
      </trkpt>
      <trkpt lat="44.83406" lon="4.65705">
        <ele>500.4</ele>
        <time>2019-11-09T10:31:06Z</time>
      </trkpt>
      <trkpt lat="44.83403" lon="4.65706">
        <ele>500.4</ele>
        <time>2019-11-09T10:31:07Z</time>
      </trkpt>
      <trkpt lat="44.83401" lon="4.65707">
        <ele>500.2</ele>
        <time>2019-11-09T10:31:08Z</time>
      </trkpt>
      <trkpt lat="44.83394" lon="4.65711">
        <ele>500.8</ele>
        <time>2019-11-09T10:31:10Z</time>
      </trkpt>
      <trkpt lat="44.83388" lon="4.65718">
        <ele>499.4</ele>
        <time>2019-11-09T10:31:12Z</time>
      </trkpt>
      <trkpt lat="44.83385" lon="4.65722">
        <ele>498.4</ele>
        <time>2019-11-09T10:31:13Z</time>
      </trkpt>
      <trkpt lat="44.8338" lon="4.65727">
        <ele>497.4</ele>
        <time>2019-11-09T10:31:14Z</time>
      </trkpt>
      <trkpt lat="44.83374" lon="4.6573">
        <ele>496.4</ele>
        <time>2019-11-09T10:31:15Z</time>
      </trkpt>
      <trkpt lat="44.83364" lon="4.65737">
        <ele>495</ele>
        <time>2019-11-09T10:31:17Z</time>
      </trkpt>
      <trkpt lat="44.8336" lon="4.6574">
        <ele>494.6</ele>
        <time>2019-11-09T10:31:18Z</time>
      </trkpt>
      <trkpt lat="44.83353" lon="4.65746">
        <ele>493.8</ele>
        <time>2019-11-09T10:31:21Z</time>
      </trkpt>
      <trkpt lat="44.83352" lon="4.65746">
        <ele>493.4</ele>
        <time>2019-11-09T10:31:22Z</time>
      </trkpt>
      <trkpt lat="44.83351" lon="4.65747">
        <ele>492.8</ele>
        <time>2019-11-09T10:31:27Z</time>
      </trkpt>
      <trkpt lat="44.83349" lon="4.65748">
        <ele>492.8</ele>
        <time>2019-11-09T10:31:33Z</time>
      </trkpt>
      <trkpt lat="44.83349" lon="4.65748">
        <ele>492.6</ele>
        <time>2019-11-09T10:31:37Z</time>
      </trkpt>
      <trkpt lat="44.83349" lon="4.65749">
        <ele>492.2</ele>
        <time>2019-11-09T10:31:43Z</time>
      </trkpt>
      <trkpt lat="44.8335" lon="4.65749">
        <ele>492</ele>
        <time>2019-11-09T10:31:51Z</time>
      </trkpt>
      <trkpt lat="44.83349" lon="4.65749">
        <ele>492.2</ele>
        <time>2019-11-09T10:31:54Z</time>
      </trkpt>
      <trkpt lat="44.83349" lon="4.6575">
        <ele>492.2</ele>
        <time>2019-11-09T10:31:55Z</time>
      </trkpt>
      <trkpt lat="44.83349" lon="4.65749">
        <ele>491.6</ele>
        <time>2019-11-09T10:32:04Z</time>
      </trkpt>
      <trkpt lat="44.83349" lon="4.65749">
        <ele>491.6</ele>
        <time>2019-11-09T10:32:07Z</time>
      </trkpt>
      <trkpt lat="44.83349" lon="4.65749">
        <ele>491.6</ele>
        <time>2019-11-09T10:32:17Z</time>
      </trkpt>
      <trkpt lat="44.83349" lon="4.65749">
        <ele>491.4</ele>
        <time>2019-11-09T10:32:22Z</time>
      </trkpt>
      <trkpt lat="44.83349" lon="4.65749">
        <ele>491</ele>
        <time>2019-11-09T10:32:33Z</time>
      </trkpt>
      <trkpt lat="44.8335" lon="4.65749">
        <ele>490.8</ele>
        <time>2019-11-09T10:32:41Z</time>
      </trkpt>
      <trkpt lat="44.8335" lon="4.65749">
        <ele>490.8</ele>
        <time>2019-11-09T10:32:42Z</time>
      </trkpt>
      <trkpt lat="44.8335" lon="4.65749">
        <ele>491</ele>
        <time>2019-11-09T10:32:44Z</time>
      </trkpt>
      <trkpt lat="44.83349" lon="4.6575">
        <ele>491.6</ele>
        <time>2019-11-09T10:32:51Z</time>
      </trkpt>
      <trkpt lat="44.83349" lon="4.6575">
        <ele>491.6</ele>
        <time>2019-11-09T10:33:03Z</time>
      </trkpt>
      <trkpt lat="44.83349" lon="4.6575">
        <ele>491.6</ele>
        <time>2019-11-09T10:33:06Z</time>
      </trkpt>
      <trkpt lat="44.83349" lon="4.6575">
        <ele>491.4</ele>
        <time>2019-11-09T10:33:09Z</time>
      </trkpt>
      <trkpt lat="44.83349" lon="4.6575">
        <ele>491.6</ele>
        <time>2019-11-09T10:33:10Z</time>
      </trkpt>
      <trkpt lat="44.83349" lon="4.6575">
        <ele>491.6</ele>
        <time>2019-11-09T10:33:11Z</time>
      </trkpt>
      <trkpt lat="44.83349" lon="4.6575">
        <ele>491.6</ele>
        <time>2019-11-09T10:33:12Z</time>
      </trkpt>
      <trkpt lat="44.83349" lon="4.6575">
        <ele>491.6</ele>
        <time>2019-11-09T10:33:13Z</time>
      </trkpt>
      <trkpt lat="44.83349" lon="4.6575">
        <ele>491.6</ele>
        <time>2019-11-09T10:33:15Z</time>
      </trkpt>
      <trkpt lat="44.83348" lon="4.6575">
        <ele>491.4</ele>
        <time>2019-11-09T10:33:29Z</time>
      </trkpt>
      <trkpt lat="44.83348" lon="4.6575">
        <ele>491.4</ele>
        <time>2019-11-09T10:33:35Z</time>
      </trkpt>
      <trkpt lat="44.83348" lon="4.65751">
        <ele>491.4</ele>
        <time>2019-11-09T10:33:43Z</time>
      </trkpt>
      <trkpt lat="44.83348" lon="4.65752">
        <ele>491.4</ele>
        <time>2019-11-09T10:33:47Z</time>
      </trkpt>
      <trkpt lat="44.83347" lon="4.65754">
        <ele>491.4</ele>
        <time>2019-11-09T10:33:49Z</time>
      </trkpt>
      <trkpt lat="44.83347" lon="4.65753">
        <ele>491.4</ele>
        <time>2019-11-09T10:33:51Z</time>
      </trkpt>
      <trkpt lat="44.83346" lon="4.65755">
        <ele>491.4</ele>
        <time>2019-11-09T10:33:55Z</time>
      </trkpt>
      <trkpt lat="44.83346" lon="4.65756">
        <ele>491.4</ele>
        <time>2019-11-09T10:33:56Z</time>
      </trkpt>
      <trkpt lat="44.83343" lon="4.65768">
        <ele>492.2</ele>
        <time>2019-11-09T10:34:03Z</time>
      </trkpt>
      <trkpt lat="44.83343" lon="4.6577">
        <ele>492.6</ele>
        <time>2019-11-09T10:34:04Z</time>
      </trkpt>
      <trkpt lat="44.83344" lon="4.65772">
        <ele>493.2</ele>
        <time>2019-11-09T10:34:05Z</time>
      </trkpt>
      <trkpt lat="44.83345" lon="4.65775">
        <ele>494.2</ele>
        <time>2019-11-09T10:34:08Z</time>
      </trkpt>
      <trkpt lat="44.83349" lon="4.65778">
        <ele>494.6</ele>
        <time>2019-11-09T10:34:12Z</time>
      </trkpt>
      <trkpt lat="44.83351" lon="4.65779">
        <ele>495</ele>
        <time>2019-11-09T10:34:15Z</time>
      </trkpt>
      <trkpt lat="44.83352" lon="4.6578">
        <ele>495.2</ele>
        <time>2019-11-09T10:34:16Z</time>
      </trkpt>
      <trkpt lat="44.83355" lon="4.65783">
        <ele>495.8</ele>
        <time>2019-11-09T10:34:19Z</time>
      </trkpt>
      <trkpt lat="44.83357" lon="4.65784">
        <ele>496.4</ele>
        <time>2019-11-09T10:34:21Z</time>
      </trkpt>
      <trkpt lat="44.83357" lon="4.65784">
        <ele>496.8</ele>
        <time>2019-11-09T10:34:22Z</time>
      </trkpt>
      <trkpt lat="44.83359" lon="4.65784">
        <ele>497</ele>
        <time>2019-11-09T10:34:24Z</time>
      </trkpt>
      <trkpt lat="44.83362" lon="4.65785">
        <ele>497.6</ele>
        <time>2019-11-09T10:34:28Z</time>
      </trkpt>
      <trkpt lat="44.83363" lon="4.65785">
        <ele>497.6</ele>
        <time>2019-11-09T10:34:30Z</time>
      </trkpt>
      <trkpt lat="44.83365" lon="4.65785">
        <ele>498</ele>
        <time>2019-11-09T10:34:33Z</time>
      </trkpt>
      <trkpt lat="44.83366" lon="4.65783">
        <ele>498.6</ele>
        <time>2019-11-09T10:34:37Z</time>
      </trkpt>
      <trkpt lat="44.83367" lon="4.65782">
        <ele>498.8</ele>
        <time>2019-11-09T10:34:38Z</time>
      </trkpt>
      <trkpt lat="44.83369" lon="4.65775">
        <ele>499.6</ele>
        <time>2019-11-09T10:34:45Z</time>
      </trkpt>
      <trkpt lat="44.8337" lon="4.65774">
        <ele>500</ele>
        <time>2019-11-09T10:34:47Z</time>
      </trkpt>
      <trkpt lat="44.83374" lon="4.65772">
        <ele>500.8</ele>
        <time>2019-11-09T10:34:53Z</time>
      </trkpt>
      <trkpt lat="44.83374" lon="4.65771">
        <ele>501.2</ele>
        <time>2019-11-09T10:34:55Z</time>
      </trkpt>
      <trkpt lat="44.83375" lon="4.6577">
        <ele>501.4</ele>
        <time>2019-11-09T10:34:56Z</time>
      </trkpt>
      <trkpt lat="44.83378" lon="4.65765">
        <ele>502</ele>
        <time>2019-11-09T10:35:01Z</time>
      </trkpt>
      <trkpt lat="44.83379" lon="4.65763">
        <ele>502.2</ele>
        <time>2019-11-09T10:35:04Z</time>
      </trkpt>
      <trkpt lat="44.83381" lon="4.6576">
        <ele>503</ele>
        <time>2019-11-09T10:35:07Z</time>
      </trkpt>
      <trkpt lat="44.83383" lon="4.65758">
        <ele>504</ele>
        <time>2019-11-09T10:35:11Z</time>
      </trkpt>
      <trkpt lat="44.83384" lon="4.65758">
        <ele>504.2</ele>
        <time>2019-11-09T10:35:12Z</time>
      </trkpt>
      <trkpt lat="44.83387" lon="4.65757">
        <ele>505.2</ele>
        <time>2019-11-09T10:35:17Z</time>
      </trkpt>
      <trkpt lat="44.83389" lon="4.65756">
        <ele>505.6</ele>
        <time>2019-11-09T10:35:20Z</time>
      </trkpt>
      <trkpt lat="44.8339" lon="4.65756">
        <ele>505.6</ele>
        <time>2019-11-09T10:35:21Z</time>
      </trkpt>
      <trkpt lat="44.83392" lon="4.65755">
        <ele>506.2</ele>
        <time>2019-11-09T10:35:24Z</time>
      </trkpt>
      <trkpt lat="44.83393" lon="4.65753">
        <ele>506.6</ele>
        <time>2019-11-09T10:35:27Z</time>
      </trkpt>
      <trkpt lat="44.83393" lon="4.65753">
        <ele>506.6</ele>
        <time>2019-11-09T10:35:28Z</time>
      </trkpt>
      <trkpt lat="44.83397" lon="4.65751">
        <ele>507.2</ele>
        <time>2019-11-09T10:35:34Z</time>
      </trkpt>
      <trkpt lat="44.83399" lon="4.65748">
        <ele>507.8</ele>
        <time>2019-11-09T10:35:37Z</time>
      </trkpt>
      <trkpt lat="44.83401" lon="4.65747">
        <ele>508.2</ele>
        <time>2019-11-09T10:35:39Z</time>
      </trkpt>
      <trkpt lat="44.83401" lon="4.65746">
        <ele>508.4</ele>
        <time>2019-11-09T10:35:40Z</time>
      </trkpt>
      <trkpt lat="44.83405" lon="4.65744">
        <ele>508.8</ele>
        <time>2019-11-09T10:35:44Z</time>
      </trkpt>
      <trkpt lat="44.83407" lon="4.65743">
        <ele>509.2</ele>
        <time>2019-11-09T10:35:48Z</time>
      </trkpt>
      <trkpt lat="44.83408" lon="4.65742">
        <ele>509.4</ele>
        <time>2019-11-09T10:35:50Z</time>
      </trkpt>
      <trkpt lat="44.83408" lon="4.65742">
        <ele>509.6</ele>
        <time>2019-11-09T10:35:51Z</time>
      </trkpt>
      <trkpt lat="44.83409" lon="4.65742">
        <ele>509.6</ele>
        <time>2019-11-09T10:35:52Z</time>
      </trkpt>
      <trkpt lat="44.83411" lon="4.65741">
        <ele>510.2</ele>
        <time>2019-11-09T10:35:55Z</time>
      </trkpt>
      <trkpt lat="44.83412" lon="4.65741">
        <ele>510.4</ele>
        <time>2019-11-09T10:35:56Z</time>
      </trkpt>
      <trkpt lat="44.83415" lon="4.65739">
        <ele>511</ele>
        <time>2019-11-09T10:36:00Z</time>
      </trkpt>
      <trkpt lat="44.83417" lon="4.6574">
        <ele>511.6</ele>
        <time>2019-11-09T10:36:02Z</time>
      </trkpt>
      <trkpt lat="44.83418" lon="4.65742">
        <ele>511.8</ele>
        <time>2019-11-09T10:36:04Z</time>
      </trkpt>
      <trkpt lat="44.83419" lon="4.65743">
        <ele>512</ele>
        <time>2019-11-09T10:36:05Z</time>
      </trkpt>
      <trkpt lat="44.8342" lon="4.65744">
        <ele>512.4</ele>
        <time>2019-11-09T10:36:06Z</time>
      </trkpt>
      <trkpt lat="44.8342" lon="4.65746">
        <ele>512.4</ele>
        <time>2019-11-09T10:36:07Z</time>
      </trkpt>
      <trkpt lat="44.83421" lon="4.65749">
        <ele>512.6</ele>
        <time>2019-11-09T10:36:09Z</time>
      </trkpt>
      <trkpt lat="44.83421" lon="4.65757">
        <ele>513.6</ele>
        <time>2019-11-09T10:36:14Z</time>
      </trkpt>
      <trkpt lat="44.8342" lon="4.65758">
        <ele>513.8</ele>
        <time>2019-11-09T10:36:15Z</time>
      </trkpt>
      <trkpt lat="44.83421" lon="4.65761">
        <ele>514</ele>
        <time>2019-11-09T10:36:17Z</time>
      </trkpt>
      <trkpt lat="44.83422" lon="4.65767">
        <ele>514.8</ele>
        <time>2019-11-09T10:36:21Z</time>
      </trkpt>
      <trkpt lat="44.83423" lon="4.65769">
        <ele>515.2</ele>
        <time>2019-11-09T10:36:23Z</time>
      </trkpt>
      <trkpt lat="44.83424" lon="4.6577">
        <ele>515.2</ele>
        <time>2019-11-09T10:36:24Z</time>
      </trkpt>
      <trkpt lat="44.83428" lon="4.65769">
        <ele>515.8</ele>
        <time>2019-11-09T10:36:31Z</time>
      </trkpt>
      <trkpt lat="44.83428" lon="4.65768">
        <ele>516</ele>
        <time>2019-11-09T10:36:32Z</time>
      </trkpt>
      <trkpt lat="44.83431" lon="4.65765">
        <ele>516.4</ele>
        <time>2019-11-09T10:36:37Z</time>
      </trkpt>
      <trkpt lat="44.83432" lon="4.65765">
        <ele>516.6</ele>
        <time>2019-11-09T10:36:38Z</time>
      </trkpt>
      <trkpt lat="44.83432" lon="4.65763">
        <ele>517</ele>
        <time>2019-11-09T10:36:40Z</time>
      </trkpt>
      <trkpt lat="44.83437" lon="4.6576">
        <ele>518.2</ele>
        <time>2019-11-09T10:36:48Z</time>
      </trkpt>
      <trkpt lat="44.83439" lon="4.65759">
        <ele>518.8</ele>
        <time>2019-11-09T10:36:51Z</time>
      </trkpt>
      <trkpt lat="44.8344" lon="4.65759">
        <ele>519.2</ele>
        <time>2019-11-09T10:36:53Z</time>
      </trkpt>
      <trkpt lat="44.83441" lon="4.65759">
        <ele>519.4</ele>
        <time>2019-11-09T10:36:54Z</time>
      </trkpt>
      <trkpt lat="44.83443" lon="4.6576">
        <ele>520.4</ele>
        <time>2019-11-09T10:36:58Z</time>
      </trkpt>
      <trkpt lat="44.83445" lon="4.65759">
        <ele>521.4</ele>
        <time>2019-11-09T10:37:02Z</time>
      </trkpt>
      <trkpt lat="44.83446" lon="4.65759">
        <ele>521.6</ele>
        <time>2019-11-09T10:37:03Z</time>
      </trkpt>
      <trkpt lat="44.83449" lon="4.65761">
        <ele>522.4</ele>
        <time>2019-11-09T10:37:08Z</time>
      </trkpt>
      <trkpt lat="44.83451" lon="4.65761">
        <ele>523</ele>
        <time>2019-11-09T10:37:11Z</time>
      </trkpt>
      <trkpt lat="44.83453" lon="4.65761">
        <ele>523.6</ele>
        <time>2019-11-09T10:37:15Z</time>
      </trkpt>
      <trkpt lat="44.83454" lon="4.65762">
        <ele>524</ele>
        <time>2019-11-09T10:37:17Z</time>
      </trkpt>
      <trkpt lat="44.83457" lon="4.65762">
        <ele>524.8</ele>
        <time>2019-11-09T10:37:21Z</time>
      </trkpt>
      <trkpt lat="44.8346" lon="4.6576">
        <ele>525.6</ele>
        <time>2019-11-09T10:37:26Z</time>
      </trkpt>
      <trkpt lat="44.83461" lon="4.65758">
        <ele>525.8</ele>
        <time>2019-11-09T10:37:28Z</time>
      </trkpt>
      <trkpt lat="44.83462" lon="4.65758">
        <ele>525.8</ele>
        <time>2019-11-09T10:37:29Z</time>
      </trkpt>
      <trkpt lat="44.83467" lon="4.65756">
        <ele>526.8</ele>
        <time>2019-11-09T10:37:37Z</time>
      </trkpt>
      <trkpt lat="44.83468" lon="4.65756">
        <ele>527.2</ele>
        <time>2019-11-09T10:37:38Z</time>
      </trkpt>
      <trkpt lat="44.83471" lon="4.65755">
        <ele>527.4</ele>
        <time>2019-11-09T10:37:43Z</time>
      </trkpt>
      <trkpt lat="44.83474" lon="4.65755">
        <ele>528</ele>
        <time>2019-11-09T10:37:47Z</time>
      </trkpt>
      <trkpt lat="44.83477" lon="4.65754">
        <ele>529</ele>
        <time>2019-11-09T10:37:54Z</time>
      </trkpt>
      <trkpt lat="44.83479" lon="4.65754">
        <ele>529.2</ele>
        <time>2019-11-09T10:37:56Z</time>
      </trkpt>
      <trkpt lat="44.8348" lon="4.65755">
        <ele>529.8</ele>
        <time>2019-11-09T10:38:02Z</time>
      </trkpt>
      <trkpt lat="44.83481" lon="4.65757">
        <ele>530.2</ele>
        <time>2019-11-09T10:38:06Z</time>
      </trkpt>
      <trkpt lat="44.83482" lon="4.65758">
        <ele>530.6</ele>
        <time>2019-11-09T10:38:08Z</time>
      </trkpt>
      <trkpt lat="44.83483" lon="4.65759">
        <ele>531</ele>
        <time>2019-11-09T10:38:10Z</time>
      </trkpt>
      <trkpt lat="44.83484" lon="4.6576">
        <ele>531.4</ele>
        <time>2019-11-09T10:38:12Z</time>
      </trkpt>
      <trkpt lat="44.83485" lon="4.65762">
        <ele>531.8</ele>
        <time>2019-11-09T10:38:15Z</time>
      </trkpt>
      <trkpt lat="44.83489" lon="4.65764">
        <ele>532.4</ele>
        <time>2019-11-09T10:38:20Z</time>
      </trkpt>
      <trkpt lat="44.8349" lon="4.65766">
        <ele>532.6</ele>
        <time>2019-11-09T10:38:21Z</time>
      </trkpt>
      <trkpt lat="44.83492" lon="4.6577">
        <ele>533.6</ele>
        <time>2019-11-09T10:38:25Z</time>
      </trkpt>
      <trkpt lat="44.83495" lon="4.65774">
        <ele>534.8</ele>
        <time>2019-11-09T10:38:32Z</time>
      </trkpt>
      <trkpt lat="44.83496" lon="4.65775">
        <ele>534.8</ele>
        <time>2019-11-09T10:38:33Z</time>
      </trkpt>
      <trkpt lat="44.83499" lon="4.65778">
        <ele>536</ele>
        <time>2019-11-09T10:38:39Z</time>
      </trkpt>
      <trkpt lat="44.83501" lon="4.65779">
        <ele>536.6</ele>
        <time>2019-11-09T10:38:42Z</time>
      </trkpt>
      <trkpt lat="44.83502" lon="4.65781">
        <ele>537</ele>
        <time>2019-11-09T10:38:44Z</time>
      </trkpt>
      <trkpt lat="44.83506" lon="4.65783">
        <ele>538</ele>
        <time>2019-11-09T10:38:50Z</time>
      </trkpt>
      <trkpt lat="44.83506" lon="4.65784">
        <ele>538</ele>
        <time>2019-11-09T10:38:51Z</time>
      </trkpt>
      <trkpt lat="44.8351" lon="4.65789">
        <ele>539</ele>
        <time>2019-11-09T10:38:58Z</time>
      </trkpt>
      <trkpt lat="44.8351" lon="4.65791">
        <ele>539.2</ele>
        <time>2019-11-09T10:38:59Z</time>
      </trkpt>
      <trkpt lat="44.83512" lon="4.65794">
        <ele>540.2</ele>
        <time>2019-11-09T10:39:03Z</time>
      </trkpt>
      <trkpt lat="44.83515" lon="4.658">
        <ele>541</ele>
        <time>2019-11-09T10:39:08Z</time>
      </trkpt>
      <trkpt lat="44.83516" lon="4.65801">
        <ele>541.2</ele>
        <time>2019-11-09T10:39:09Z</time>
      </trkpt>
      <trkpt lat="44.83517" lon="4.65802">
        <ele>541.4</ele>
        <time>2019-11-09T10:39:10Z</time>
      </trkpt>
      <trkpt lat="44.8352" lon="4.65804">
        <ele>542.4</ele>
        <time>2019-11-09T10:39:16Z</time>
      </trkpt>
      <trkpt lat="44.83525" lon="4.65809">
        <ele>543.4</ele>
        <time>2019-11-09T10:39:24Z</time>
      </trkpt>
      <trkpt lat="44.83527" lon="4.6581">
        <ele>543.6</ele>
        <time>2019-11-09T10:39:26Z</time>
      </trkpt>
      <trkpt lat="44.8353" lon="4.65811">
        <ele>544.6</ele>
        <time>2019-11-09T10:39:31Z</time>
      </trkpt>
      <trkpt lat="44.83534" lon="4.65814">
        <ele>545.4</ele>
        <time>2019-11-09T10:39:37Z</time>
      </trkpt>
      <trkpt lat="44.83534" lon="4.65814">
        <ele>545.6</ele>
        <time>2019-11-09T10:39:38Z</time>
      </trkpt>
      <trkpt lat="44.83535" lon="4.65814">
        <ele>546.2</ele>
        <time>2019-11-09T10:39:42Z</time>
      </trkpt>
      <trkpt lat="44.83535" lon="4.65815">
        <ele>546.2</ele>
        <time>2019-11-09T10:39:53Z</time>
      </trkpt>
      <trkpt lat="44.83535" lon="4.65815">
        <ele>546.6</ele>
        <time>2019-11-09T10:39:59Z</time>
      </trkpt>
      <trkpt lat="44.83535" lon="4.65815">
        <ele>546.8</ele>
        <time>2019-11-09T10:40:00Z</time>
      </trkpt>
      <trkpt lat="44.83535" lon="4.65815">
        <ele>546.6</ele>
        <time>2019-11-09T10:40:05Z</time>
      </trkpt>
      <trkpt lat="44.83535" lon="4.65815">
        <ele>546.6</ele>
        <time>2019-11-09T10:40:12Z</time>
      </trkpt>
      <trkpt lat="44.83535" lon="4.65815">
        <ele>546.4</ele>
        <time>2019-11-09T10:40:18Z</time>
      </trkpt>
      <trkpt lat="44.83535" lon="4.65815">
        <ele>546.4</ele>
        <time>2019-11-09T10:40:19Z</time>
      </trkpt>
      <trkpt lat="44.83536" lon="4.65815">
        <ele>546.4</ele>
        <time>2019-11-09T10:40:23Z</time>
      </trkpt>
      <trkpt lat="44.83537" lon="4.65816">
        <ele>546.8</ele>
        <time>2019-11-09T10:40:25Z</time>
      </trkpt>
      <trkpt lat="44.83542" lon="4.6582">
        <ele>547.8</ele>
        <time>2019-11-09T10:40:31Z</time>
      </trkpt>
      <trkpt lat="44.83543" lon="4.65821">
        <ele>548.2</ele>
        <time>2019-11-09T10:40:33Z</time>
      </trkpt>
      <trkpt lat="44.83545" lon="4.65823">
        <ele>548.8</ele>
        <time>2019-11-09T10:40:36Z</time>
      </trkpt>
      <trkpt lat="44.83546" lon="4.65825">
        <ele>549.2</ele>
        <time>2019-11-09T10:40:38Z</time>
      </trkpt>
      <trkpt lat="44.83548" lon="4.65828">
        <ele>549.8</ele>
        <time>2019-11-09T10:40:42Z</time>
      </trkpt>
      <trkpt lat="44.83548" lon="4.65829">
        <ele>549.8</ele>
        <time>2019-11-09T10:40:43Z</time>
      </trkpt>
      <trkpt lat="44.83549" lon="4.6583">
        <ele>550</ele>
        <time>2019-11-09T10:40:44Z</time>
      </trkpt>
      <trkpt lat="44.83551" lon="4.65831">
        <ele>551</ele>
        <time>2019-11-09T10:40:47Z</time>
      </trkpt>
      <trkpt lat="44.83556" lon="4.65829">
        <ele>551.6</ele>
        <time>2019-11-09T10:40:53Z</time>
      </trkpt>
      <trkpt lat="44.83558" lon="4.65829">
        <ele>552</ele>
        <time>2019-11-09T10:40:56Z</time>
      </trkpt>
      <trkpt lat="44.83563" lon="4.65826">
        <ele>553</ele>
        <time>2019-11-09T10:41:02Z</time>
      </trkpt>
      <trkpt lat="44.83564" lon="4.65826">
        <ele>553.4</ele>
        <time>2019-11-09T10:41:04Z</time>
      </trkpt>
      <trkpt lat="44.83568" lon="4.65825">
        <ele>554.2</ele>
        <time>2019-11-09T10:41:09Z</time>
      </trkpt>
      <trkpt lat="44.83571" lon="4.65824">
        <ele>555.2</ele>
        <time>2019-11-09T10:41:14Z</time>
      </trkpt>
      <trkpt lat="44.83572" lon="4.65824">
        <ele>555.4</ele>
        <time>2019-11-09T10:41:15Z</time>
      </trkpt>
      <trkpt lat="44.83577" lon="4.65825">
        <ele>556.4</ele>
        <time>2019-11-09T10:41:22Z</time>
      </trkpt>
      <trkpt lat="44.83578" lon="4.65825">
        <ele>556.6</ele>
        <time>2019-11-09T10:41:24Z</time>
      </trkpt>
      <trkpt lat="44.83582" lon="4.65823">
        <ele>557.6</ele>
        <time>2019-11-09T10:41:30Z</time>
      </trkpt>
      <trkpt lat="44.83585" lon="4.65823">
        <ele>558</ele>
        <time>2019-11-09T10:41:34Z</time>
      </trkpt>
      <trkpt lat="44.83589" lon="4.65823">
        <ele>558.8</ele>
        <time>2019-11-09T10:41:40Z</time>
      </trkpt>
      <trkpt lat="44.83591" lon="4.65823">
        <ele>559.4</ele>
        <time>2019-11-09T10:41:43Z</time>
      </trkpt>
      <trkpt lat="44.83594" lon="4.65824">
        <ele>559.8</ele>
        <time>2019-11-09T10:41:47Z</time>
      </trkpt>
      <trkpt lat="44.83596" lon="4.65825">
        <ele>560.8</ele>
        <time>2019-11-09T10:41:51Z</time>
      </trkpt>
      <trkpt lat="44.83599" lon="4.65826">
        <ele>561.8</ele>
        <time>2019-11-09T10:41:56Z</time>
      </trkpt>
      <trkpt lat="44.836" lon="4.65826">
        <ele>562.2</ele>
        <time>2019-11-09T10:41:57Z</time>
      </trkpt>
      <trkpt lat="44.83604" lon="4.65825">
        <ele>563.2</ele>
        <time>2019-11-09T10:42:02Z</time>
      </trkpt>
      <trkpt lat="44.83606" lon="4.65824">
        <ele>563.8</ele>
        <time>2019-11-09T10:42:05Z</time>
      </trkpt>
      <trkpt lat="44.83609" lon="4.65823">
        <ele>564.2</ele>
        <time>2019-11-09T10:42:09Z</time>
      </trkpt>
      <trkpt lat="44.83612" lon="4.65822">
        <ele>565</ele>
        <time>2019-11-09T10:42:14Z</time>
      </trkpt>
      <trkpt lat="44.83614" lon="4.65821">
        <ele>565.4</ele>
        <time>2019-11-09T10:42:16Z</time>
      </trkpt>
      <trkpt lat="44.83618" lon="4.65819">
        <ele>566.6</ele>
        <time>2019-11-09T10:42:21Z</time>
      </trkpt>
      <trkpt lat="44.83619" lon="4.65818">
        <ele>567</ele>
        <time>2019-11-09T10:42:23Z</time>
      </trkpt>
      <trkpt lat="44.83624" lon="4.65814">
        <ele>567.8</ele>
        <time>2019-11-09T10:42:30Z</time>
      </trkpt>
      <trkpt lat="44.83626" lon="4.65813">
        <ele>568.2</ele>
        <time>2019-11-09T10:42:33Z</time>
      </trkpt>
      <trkpt lat="44.83629" lon="4.65812">
        <ele>568.8</ele>
        <time>2019-11-09T10:42:37Z</time>
      </trkpt>
      <trkpt lat="44.83633" lon="4.65812">
        <ele>569.4</ele>
        <time>2019-11-09T10:42:42Z</time>
      </trkpt>
      <trkpt lat="44.83634" lon="4.65811">
        <ele>570</ele>
        <time>2019-11-09T10:42:45Z</time>
      </trkpt>
      <trkpt lat="44.83637" lon="4.6581">
        <ele>571.2</ele>
        <time>2019-11-09T10:42:49Z</time>
      </trkpt>
      <trkpt lat="44.8364" lon="4.65809">
        <ele>571.2</ele>
        <time>2019-11-09T10:42:52Z</time>
      </trkpt>
      <trkpt lat="44.83643" lon="4.65809">
        <ele>572.2</ele>
        <time>2019-11-09T10:42:56Z</time>
      </trkpt>
      <trkpt lat="44.83647" lon="4.65807">
        <ele>573</ele>
        <time>2019-11-09T10:43:03Z</time>
      </trkpt>
      <trkpt lat="44.83648" lon="4.65806">
        <ele>573.2</ele>
        <time>2019-11-09T10:43:04Z</time>
      </trkpt>
      <trkpt lat="44.83653" lon="4.65804">
        <ele>574.4</ele>
        <time>2019-11-09T10:43:12Z</time>
      </trkpt>
      <trkpt lat="44.83657" lon="4.65802">
        <ele>575.4</ele>
        <time>2019-11-09T10:43:17Z</time>
      </trkpt>
      <trkpt lat="44.8366" lon="4.65802">
        <ele>576.4</ele>
        <time>2019-11-09T10:43:22Z</time>
      </trkpt>
      <trkpt lat="44.8366" lon="4.65802">
        <ele>576.6</ele>
        <time>2019-11-09T10:43:23Z</time>
      </trkpt>
      <trkpt lat="44.83665" lon="4.65803">
        <ele>577.8</ele>
        <time>2019-11-09T10:43:29Z</time>
      </trkpt>
      <trkpt lat="44.83666" lon="4.65805">
        <ele>578.2</ele>
        <time>2019-11-09T10:43:32Z</time>
      </trkpt>
      <trkpt lat="44.83668" lon="4.6581">
        <ele>578.6</ele>
        <time>2019-11-09T10:43:36Z</time>
      </trkpt>
      <trkpt lat="44.83669" lon="4.65814">
        <ele>578.8</ele>
        <time>2019-11-09T10:43:38Z</time>
      </trkpt>
      <trkpt lat="44.83669" lon="4.65817">
        <ele>579.4</ele>
        <time>2019-11-09T10:43:40Z</time>
      </trkpt>
      <trkpt lat="44.8367" lon="4.6582">
        <ele>580</ele>
        <time>2019-11-09T10:43:42Z</time>
      </trkpt>
      <trkpt lat="44.8367" lon="4.65828">
        <ele>581</ele>
        <time>2019-11-09T10:43:49Z</time>
      </trkpt>
      <trkpt lat="44.83672" lon="4.65833">
        <ele>582</ele>
        <time>2019-11-09T10:43:54Z</time>
      </trkpt>
      <trkpt lat="44.83673" lon="4.65837">
        <ele>583</ele>
        <time>2019-11-09T10:43:58Z</time>
      </trkpt>
      <trkpt lat="44.83674" lon="4.65838">
        <ele>583.2</ele>
        <time>2019-11-09T10:43:59Z</time>
      </trkpt>
      <trkpt lat="44.83679" lon="4.65843">
        <ele>584.2</ele>
        <time>2019-11-09T10:44:06Z</time>
      </trkpt>
      <trkpt lat="44.83681" lon="4.65845">
        <ele>584.6</ele>
        <time>2019-11-09T10:44:14Z</time>
      </trkpt>
      <trkpt lat="44.83681" lon="4.65845">
        <ele>584.2</ele>
        <time>2019-11-09T10:44:20Z</time>
      </trkpt>
      <trkpt lat="44.8368" lon="4.65845">
        <ele>584.6</ele>
        <time>2019-11-09T10:44:33Z</time>
      </trkpt>
      <trkpt lat="44.83679" lon="4.65846">
        <ele>584.4</ele>
        <time>2019-11-09T10:44:44Z</time>
      </trkpt>
      <trkpt lat="44.83679" lon="4.65846">
        <ele>584.4</ele>
        <time>2019-11-09T10:44:46Z</time>
      </trkpt>
      <trkpt lat="44.83679" lon="4.65846">
        <ele>584.6</ele>
        <time>2019-11-09T10:44:48Z</time>
      </trkpt>
      <trkpt lat="44.83679" lon="4.65846">
        <ele>584.6</ele>
        <time>2019-11-09T10:44:50Z</time>
      </trkpt>
      <trkpt lat="44.83679" lon="4.65846">
        <ele>584.8</ele>
        <time>2019-11-09T10:44:54Z</time>
      </trkpt>
      <trkpt lat="44.83679" lon="4.65846">
        <ele>584.8</ele>
        <time>2019-11-09T10:44:58Z</time>
      </trkpt>
      <trkpt lat="44.83679" lon="4.65846">
        <ele>584.8</ele>
        <time>2019-11-09T10:45:03Z</time>
      </trkpt>
      <trkpt lat="44.83679" lon="4.65846">
        <ele>584.6</ele>
        <time>2019-11-09T10:45:08Z</time>
      </trkpt>
      <trkpt lat="44.83679" lon="4.65846">
        <ele>584.6</ele>
        <time>2019-11-09T10:45:13Z</time>
      </trkpt>
      <trkpt lat="44.83679" lon="4.65846">
        <ele>584.6</ele>
        <time>2019-11-09T10:45:14Z</time>
      </trkpt>
      <trkpt lat="44.83679" lon="4.65846">
        <ele>584.8</ele>
        <time>2019-11-09T10:45:18Z</time>
      </trkpt>
      <trkpt lat="44.83679" lon="4.65846">
        <ele>585</ele>
        <time>2019-11-09T10:45:25Z</time>
      </trkpt>
      <trkpt lat="44.83679" lon="4.65846">
        <ele>585.2</ele>
        <time>2019-11-09T10:45:37Z</time>
      </trkpt>
      <trkpt lat="44.83679" lon="4.65846">
        <ele>585.8</ele>
        <time>2019-11-09T10:45:43Z</time>
      </trkpt>
      <trkpt lat="44.8368" lon="4.65845">
        <ele>585.6</ele>
        <time>2019-11-09T10:46:04Z</time>
      </trkpt>
      <trkpt lat="44.8368" lon="4.65845">
        <ele>585.4</ele>
        <time>2019-11-09T10:46:07Z</time>
      </trkpt>
      <trkpt lat="44.8368" lon="4.65845">
        <ele>585.6</ele>
        <time>2019-11-09T10:46:18Z</time>
      </trkpt>
      <trkpt lat="44.8368" lon="4.65845">
        <ele>585.6</ele>
        <time>2019-11-09T10:46:22Z</time>
      </trkpt>
      <trkpt lat="44.8368" lon="4.65846">
        <ele>585.6</ele>
        <time>2019-11-09T10:46:31Z</time>
      </trkpt>
      <trkpt lat="44.8368" lon="4.65846">
        <ele>585.6</ele>
        <time>2019-11-09T10:46:33Z</time>
      </trkpt>
      <trkpt lat="44.8368" lon="4.65846">
        <ele>585.6</ele>
        <time>2019-11-09T10:46:38Z</time>
      </trkpt>
      <trkpt lat="44.8368" lon="4.65846">
        <ele>585.6</ele>
        <time>2019-11-09T10:46:47Z</time>
      </trkpt>
      <trkpt lat="44.8368" lon="4.65846">
        <ele>585.6</ele>
        <time>2019-11-09T10:46:54Z</time>
      </trkpt>
      <trkpt lat="44.8368" lon="4.65846">
        <ele>585.6</ele>
        <time>2019-11-09T10:46:57Z</time>
      </trkpt>
      <trkpt lat="44.8368" lon="4.65846">
        <ele>585.6</ele>
        <time>2019-11-09T10:46:58Z</time>
      </trkpt>
      <trkpt lat="44.83682" lon="4.65845">
        <ele>585.6</ele>
        <time>2019-11-09T10:47:08Z</time>
      </trkpt>
      <trkpt lat="44.83686" lon="4.65845">
        <ele>585.6</ele>
        <time>2019-11-09T10:47:14Z</time>
      </trkpt>
      <trkpt lat="44.83687" lon="4.65844">
        <ele>585.6</ele>
        <time>2019-11-09T10:47:15Z</time>
      </trkpt>
      <trkpt lat="44.83688" lon="4.65844">
        <ele>585.6</ele>
        <time>2019-11-09T10:47:16Z</time>
      </trkpt>
      <trkpt lat="44.8369" lon="4.65843">
        <ele>586.2</ele>
        <time>2019-11-09T10:47:19Z</time>
      </trkpt>
      <trkpt lat="44.83691" lon="4.65843">
        <ele>586.8</ele>
        <time>2019-11-09T10:47:20Z</time>
      </trkpt>
      <trkpt lat="44.83693" lon="4.65843">
        <ele>587.6</ele>
        <time>2019-11-09T10:47:23Z</time>
      </trkpt>
      <trkpt lat="44.83694" lon="4.65843">
        <ele>587.8</ele>
        <time>2019-11-09T10:47:24Z</time>
      </trkpt>
      <trkpt lat="44.83697" lon="4.65841">
        <ele>588.8</ele>
        <time>2019-11-09T10:47:28Z</time>
      </trkpt>
      <trkpt lat="44.83699" lon="4.6584">
        <ele>589.2</ele>
        <time>2019-11-09T10:47:30Z</time>
      </trkpt>
      <trkpt lat="44.83702" lon="4.65834">
        <ele>589.8</ele>
        <time>2019-11-09T10:47:36Z</time>
      </trkpt>
      <trkpt lat="44.83704" lon="4.65831">
        <ele>590</ele>
        <time>2019-11-09T10:47:39Z</time>
      </trkpt>
      <trkpt lat="44.83704" lon="4.6583">
        <ele>590.2</ele>
        <time>2019-11-09T10:47:40Z</time>
      </trkpt>
      <trkpt lat="44.83705" lon="4.65829">
        <ele>590.4</ele>
        <time>2019-11-09T10:47:43Z</time>
      </trkpt>
      <trkpt lat="44.83708" lon="4.65827">
        <ele>590.8</ele>
        <time>2019-11-09T10:47:47Z</time>
      </trkpt>
      <trkpt lat="44.83709" lon="4.65826">
        <ele>591.4</ele>
        <time>2019-11-09T10:47:49Z</time>
      </trkpt>
      <trkpt lat="44.8371" lon="4.65826">
        <ele>591.6</ele>
        <time>2019-11-09T10:47:50Z</time>
      </trkpt>
      <trkpt lat="44.83711" lon="4.65826">
        <ele>592</ele>
        <time>2019-11-09T10:47:52Z</time>
      </trkpt>
      <trkpt lat="44.83713" lon="4.65826">
        <ele>592.4</ele>
        <time>2019-11-09T10:47:54Z</time>
      </trkpt>
      <trkpt lat="44.83716" lon="4.65825">
        <ele>592.8</ele>
        <time>2019-11-09T10:47:57Z</time>
      </trkpt>
      <trkpt lat="44.83717" lon="4.65825">
        <ele>593</ele>
        <time>2019-11-09T10:47:58Z</time>
      </trkpt>
      <trkpt lat="44.83721" lon="4.65824">
        <ele>593.4</ele>
        <time>2019-11-09T10:48:03Z</time>
      </trkpt>
      <trkpt lat="44.83723" lon="4.65823">
        <ele>593.6</ele>
        <time>2019-11-09T10:48:05Z</time>
      </trkpt>
      <trkpt lat="44.83724" lon="4.65822">
        <ele>593.8</ele>
        <time>2019-11-09T10:48:07Z</time>
      </trkpt>
      <trkpt lat="44.83725" lon="4.65822">
        <ele>594</ele>
        <time>2019-11-09T10:48:08Z</time>
      </trkpt>
      <trkpt lat="44.83729" lon="4.65818">
        <ele>594.6</ele>
        <time>2019-11-09T10:48:14Z</time>
      </trkpt>
      <trkpt lat="44.8373" lon="4.65817">
        <ele>594.8</ele>
        <time>2019-11-09T10:48:16Z</time>
      </trkpt>
      <trkpt lat="44.83732" lon="4.65814">
        <ele>595.2</ele>
        <time>2019-11-09T10:48:19Z</time>
      </trkpt>
      <trkpt lat="44.83736" lon="4.6581">
        <ele>595.4</ele>
        <time>2019-11-09T10:48:24Z</time>
      </trkpt>
      <trkpt lat="44.83739" lon="4.65807">
        <ele>596.2</ele>
        <time>2019-11-09T10:48:29Z</time>
      </trkpt>
      <trkpt lat="44.83743" lon="4.65804">
        <ele>597.4</ele>
        <time>2019-11-09T10:48:34Z</time>
      </trkpt>
      <trkpt lat="44.83753" lon="4.65797">
        <ele>597.8</ele>
        <time>2019-11-09T10:48:45Z</time>
      </trkpt>
      <trkpt lat="44.83757" lon="4.65795">
        <ele>598.4</ele>
        <time>2019-11-09T10:48:49Z</time>
      </trkpt>
      <trkpt lat="44.83758" lon="4.65795">
        <ele>598.6</ele>
        <time>2019-11-09T10:48:51Z</time>
      </trkpt>
      <trkpt lat="44.8376" lon="4.65793">
        <ele>598.8</ele>
        <time>2019-11-09T10:48:53Z</time>
      </trkpt>
      <trkpt lat="44.83764" lon="4.65788">
        <ele>599.4</ele>
        <time>2019-11-09T10:48:59Z</time>
      </trkpt>
      <trkpt lat="44.83768" lon="4.65783">
        <ele>600</ele>
        <time>2019-11-09T10:49:03Z</time>
      </trkpt>
      <trkpt lat="44.83769" lon="4.65781">
        <ele>600.4</ele>
        <time>2019-11-09T10:49:06Z</time>
      </trkpt>
      <trkpt lat="44.83772" lon="4.65775">
        <ele>601</ele>
        <time>2019-11-09T10:49:11Z</time>
      </trkpt>
      <trkpt lat="44.83774" lon="4.65772">
        <ele>601.4</ele>
        <time>2019-11-09T10:49:14Z</time>
      </trkpt>
      <trkpt lat="44.83774" lon="4.65771">
        <ele>601.6</ele>
        <time>2019-11-09T10:49:15Z</time>
      </trkpt>
      <trkpt lat="44.83777" lon="4.65768">
        <ele>602.2</ele>
        <time>2019-11-09T10:49:19Z</time>
      </trkpt>
      <trkpt lat="44.83778" lon="4.65766">
        <ele>603</ele>
        <time>2019-11-09T10:49:21Z</time>
      </trkpt>
      <trkpt lat="44.83782" lon="4.65762">
        <ele>604</ele>
        <time>2019-11-09T10:49:27Z</time>
      </trkpt>
      <trkpt lat="44.83783" lon="4.65759">
        <ele>604.4</ele>
        <time>2019-11-09T10:49:30Z</time>
      </trkpt>
      <trkpt lat="44.83785" lon="4.65752">
        <ele>605</ele>
        <time>2019-11-09T10:49:37Z</time>
      </trkpt>
      <trkpt lat="44.83784" lon="4.65749">
        <ele>605.6</ele>
        <time>2019-11-09T10:49:40Z</time>
      </trkpt>
      <trkpt lat="44.83784" lon="4.65745">
        <ele>606.2</ele>
        <time>2019-11-09T10:49:43Z</time>
      </trkpt>
      <trkpt lat="44.83786" lon="4.65739">
        <ele>607.2</ele>
        <time>2019-11-09T10:49:49Z</time>
      </trkpt>
      <trkpt lat="44.83789" lon="4.65734">
        <ele>608.2</ele>
        <time>2019-11-09T10:49:55Z</time>
      </trkpt>
      <trkpt lat="44.8379" lon="4.65733">
        <ele>608.6</ele>
        <time>2019-11-09T10:49:56Z</time>
      </trkpt>
      <trkpt lat="44.83791" lon="4.6573">
        <ele>609</ele>
        <time>2019-11-09T10:49:59Z</time>
      </trkpt>
      <trkpt lat="44.83794" lon="4.65718">
        <ele>609.4</ele>
        <time>2019-11-09T10:50:09Z</time>
      </trkpt>
      <trkpt lat="44.83795" lon="4.65717">
        <ele>609.6</ele>
        <time>2019-11-09T10:50:10Z</time>
      </trkpt>
      <trkpt lat="44.83796" lon="4.65713">
        <ele>610.2</ele>
        <time>2019-11-09T10:50:15Z</time>
      </trkpt>
      <trkpt lat="44.83796" lon="4.65711">
        <ele>610.4</ele>
        <time>2019-11-09T10:50:17Z</time>
      </trkpt>
      <trkpt lat="44.83797" lon="4.65707">
        <ele>610.8</ele>
        <time>2019-11-09T10:50:20Z</time>
      </trkpt>
      <trkpt lat="44.83798" lon="4.65702">
        <ele>611.6</ele>
        <time>2019-11-09T10:50:25Z</time>
      </trkpt>
      <trkpt lat="44.83799" lon="4.65699">
        <ele>611.8</ele>
        <time>2019-11-09T10:50:28Z</time>
      </trkpt>
      <trkpt lat="44.838" lon="4.65692">
        <ele>613.2</ele>
        <time>2019-11-09T10:50:35Z</time>
      </trkpt>
      <trkpt lat="44.83801" lon="4.65688">
        <ele>613.6</ele>
        <time>2019-11-09T10:50:39Z</time>
      </trkpt>
      <trkpt lat="44.83803" lon="4.65684">
        <ele>613.6</ele>
        <time>2019-11-09T10:50:43Z</time>
      </trkpt>
      <trkpt lat="44.83804" lon="4.65677">
        <ele>614.2</ele>
        <time>2019-11-09T10:50:49Z</time>
      </trkpt>
      <trkpt lat="44.83804" lon="4.65675">
        <ele>614.4</ele>
        <time>2019-11-09T10:50:51Z</time>
      </trkpt>
      <trkpt lat="44.83805" lon="4.65665">
        <ele>615.2</ele>
        <time>2019-11-09T10:50:58Z</time>
      </trkpt>
      <trkpt lat="44.83805" lon="4.65663">
        <ele>615.4</ele>
        <time>2019-11-09T10:50:59Z</time>
      </trkpt>
      <trkpt lat="44.83807" lon="4.65656">
        <ele>616.4</ele>
        <time>2019-11-09T10:51:04Z</time>
      </trkpt>
      <trkpt lat="44.83809" lon="4.6565">
        <ele>617.2</ele>
        <time>2019-11-09T10:51:09Z</time>
      </trkpt>
      <trkpt lat="44.83809" lon="4.65648">
        <ele>617.6</ele>
        <time>2019-11-09T10:51:11Z</time>
      </trkpt>
      <trkpt lat="44.83811" lon="4.65641">
        <ele>618.6</ele>
        <time>2019-11-09T10:51:18Z</time>
      </trkpt>
      <trkpt lat="44.83811" lon="4.6564">
        <ele>618.6</ele>
        <time>2019-11-09T10:51:19Z</time>
      </trkpt>
      <trkpt lat="44.83813" lon="4.65633">
        <ele>619.8</ele>
        <time>2019-11-09T10:51:25Z</time>
      </trkpt>
      <trkpt lat="44.83816" lon="4.65624">
        <ele>620.8</ele>
        <time>2019-11-09T10:51:33Z</time>
      </trkpt>
      <trkpt lat="44.83816" lon="4.65623">
        <ele>621</ele>
        <time>2019-11-09T10:51:34Z</time>
      </trkpt>
      <trkpt lat="44.83817" lon="4.6562">
        <ele>622</ele>
        <time>2019-11-09T10:51:38Z</time>
      </trkpt>
      <trkpt lat="44.83818" lon="4.6562">
        <ele>622.2</ele>
        <time>2019-11-09T10:51:39Z</time>
      </trkpt>
      <trkpt lat="44.83819" lon="4.65619">
        <ele>622.4</ele>
        <time>2019-11-09T10:51:40Z</time>
      </trkpt>
      <trkpt lat="44.83822" lon="4.6562">
        <ele>623.2</ele>
        <time>2019-11-09T10:51:44Z</time>
      </trkpt>
      <trkpt lat="44.83824" lon="4.65622">
        <ele>623.4</ele>
        <time>2019-11-09T10:51:47Z</time>
      </trkpt>
      <trkpt lat="44.83824" lon="4.6563">
        <ele>624</ele>
        <time>2019-11-09T10:51:53Z</time>
      </trkpt>
      <trkpt lat="44.83823" lon="4.65633">
        <ele>624.2</ele>
        <time>2019-11-09T10:51:55Z</time>
      </trkpt>
      <trkpt lat="44.83825" lon="4.6564">
        <ele>624.4</ele>
        <time>2019-11-09T10:51:59Z</time>
      </trkpt>
      <trkpt lat="44.83825" lon="4.65643">
        <ele>624.6</ele>
        <time>2019-11-09T10:52:01Z</time>
      </trkpt>
      <trkpt lat="44.83828" lon="4.65654">
        <ele>625.2</ele>
        <time>2019-11-09T10:52:09Z</time>
      </trkpt>
      <trkpt lat="44.83832" lon="4.65667">
        <ele>626</ele>
        <time>2019-11-09T10:52:17Z</time>
      </trkpt>
      <trkpt lat="44.83833" lon="4.6567">
        <ele>626.4</ele>
        <time>2019-11-09T10:52:19Z</time>
      </trkpt>
      <trkpt lat="44.83834" lon="4.65679">
        <ele>627.2</ele>
        <time>2019-11-09T10:52:24Z</time>
      </trkpt>
      <trkpt lat="44.83835" lon="4.65681">
        <ele>627.4</ele>
        <time>2019-11-09T10:52:25Z</time>
      </trkpt>
      <trkpt lat="44.83837" lon="4.65688">
        <ele>628.4</ele>
        <time>2019-11-09T10:52:30Z</time>
      </trkpt>
      <trkpt lat="44.83838" lon="4.6569">
        <ele>628.6</ele>
        <time>2019-11-09T10:52:31Z</time>
      </trkpt>
      <trkpt lat="44.83841" lon="4.65695">
        <ele>630</ele>
        <time>2019-11-09T10:52:35Z</time>
      </trkpt>
      <trkpt lat="44.83844" lon="4.65698">
        <ele>630.6</ele>
        <time>2019-11-09T10:52:38Z</time>
      </trkpt>
      <trkpt lat="44.83846" lon="4.65701">
        <ele>631</ele>
        <time>2019-11-09T10:52:40Z</time>
      </trkpt>
      <trkpt lat="44.83851" lon="4.65707">
        <ele>631.8</ele>
        <time>2019-11-09T10:52:45Z</time>
      </trkpt>
      <trkpt lat="44.83856" lon="4.65714">
        <ele>632</ele>
        <time>2019-11-09T10:52:50Z</time>
      </trkpt>
      <trkpt lat="44.83858" lon="4.65717">
        <ele>632</ele>
        <time>2019-11-09T10:52:52Z</time>
      </trkpt>
      <trkpt lat="44.83868" lon="4.65724">
        <ele>631.8</ele>
        <time>2019-11-09T10:52:58Z</time>
      </trkpt>
      <trkpt lat="44.83879" lon="4.65736">
        <ele>631</ele>
        <time>2019-11-09T10:53:05Z</time>
      </trkpt>
      <trkpt lat="44.83881" lon="4.65738">
        <ele>631</ele>
        <time>2019-11-09T10:53:06Z</time>
      </trkpt>
      <trkpt lat="44.83892" lon="4.65749">
        <ele>630.8</ele>
        <time>2019-11-09T10:53:12Z</time>
      </trkpt>
      <trkpt lat="44.83896" lon="4.65753">
        <ele>631.2</ele>
        <time>2019-11-09T10:53:15Z</time>
      </trkpt>
      <trkpt lat="44.83899" lon="4.65756">
        <ele>631.6</ele>
        <time>2019-11-09T10:53:17Z</time>
      </trkpt>
      <trkpt lat="44.83901" lon="4.65759">
        <ele>631.8</ele>
        <time>2019-11-09T10:53:19Z</time>
      </trkpt>
      <trkpt lat="44.83902" lon="4.65761">
        <ele>632</ele>
        <time>2019-11-09T10:53:21Z</time>
      </trkpt>
      <trkpt lat="44.83906" lon="4.65762">
        <ele>632.4</ele>
        <time>2019-11-09T10:53:24Z</time>
      </trkpt>
      <trkpt lat="44.83905" lon="4.65763">
        <ele>632.4</ele>
        <time>2019-11-09T10:53:27Z</time>
      </trkpt>
      <trkpt lat="44.83904" lon="4.65764">
        <ele>632.6</ele>
        <time>2019-11-09T10:53:30Z</time>
      </trkpt>
      <trkpt lat="44.83904" lon="4.65765">
        <ele>632.6</ele>
        <time>2019-11-09T10:53:34Z</time>
      </trkpt>
      <trkpt lat="44.83904" lon="4.65766">
        <ele>632.8</ele>
        <time>2019-11-09T10:53:43Z</time>
      </trkpt>
      <trkpt lat="44.83904" lon="4.65766">
        <ele>632.8</ele>
        <time>2019-11-09T10:53:45Z</time>
      </trkpt>
      <trkpt lat="44.83904" lon="4.65766">
        <ele>633</ele>
        <time>2019-11-09T10:53:53Z</time>
      </trkpt>
      <trkpt lat="44.83903" lon="4.65765">
        <ele>632.8</ele>
        <time>2019-11-09T10:54:00Z</time>
      </trkpt>
      <trkpt lat="44.83905" lon="4.65763">
        <ele>633</ele>
        <time>2019-11-09T10:54:08Z</time>
      </trkpt>
      <trkpt lat="44.83905" lon="4.65764">
        <ele>633</ele>
        <time>2019-11-09T10:54:10Z</time>
      </trkpt>
      <trkpt lat="44.83906" lon="4.65767">
        <ele>632.8</ele>
        <time>2019-11-09T10:54:14Z</time>
      </trkpt>
      <trkpt lat="44.83907" lon="4.65766">
        <ele>633</ele>
        <time>2019-11-09T10:54:15Z</time>
      </trkpt>
      <trkpt lat="44.83907" lon="4.65766">
        <ele>633</ele>
        <time>2019-11-09T10:54:16Z</time>
      </trkpt>
      <trkpt lat="44.83907" lon="4.65766">
        <ele>633</ele>
        <time>2019-11-09T10:54:17Z</time>
      </trkpt>
      <trkpt lat="44.83908" lon="4.65767">
        <ele>633.2</ele>
        <time>2019-11-09T10:54:19Z</time>
      </trkpt>
      <trkpt lat="44.83908" lon="4.65767">
        <ele>633</ele>
        <time>2019-11-09T10:54:23Z</time>
      </trkpt>
      <trkpt lat="44.83908" lon="4.65767">
        <ele>633.2</ele>
        <time>2019-11-09T10:54:28Z</time>
      </trkpt>
      <trkpt lat="44.83907" lon="4.65766">
        <ele>633.2</ele>
        <time>2019-11-09T10:54:32Z</time>
      </trkpt>
      <trkpt lat="44.83906" lon="4.65766">
        <ele>633.2</ele>
        <time>2019-11-09T10:54:42Z</time>
      </trkpt>
      <trkpt lat="44.83906" lon="4.65766">
        <ele>632.8</ele>
        <time>2019-11-09T10:54:48Z</time>
      </trkpt>
      <trkpt lat="44.83906" lon="4.65765">
        <ele>633.2</ele>
        <time>2019-11-09T10:54:58Z</time>
      </trkpt>
      <trkpt lat="44.83906" lon="4.65764">
        <ele>633.2</ele>
        <time>2019-11-09T10:55:02Z</time>
      </trkpt>
      <trkpt lat="44.83906" lon="4.65764">
        <ele>633.2</ele>
        <time>2019-11-09T10:55:04Z</time>
      </trkpt>
      <trkpt lat="44.83906" lon="4.65765">
        <ele>633.2</ele>
        <time>2019-11-09T10:55:09Z</time>
      </trkpt>
      <trkpt lat="44.83906" lon="4.65766">
        <ele>633.2</ele>
        <time>2019-11-09T10:55:12Z</time>
      </trkpt>
      <trkpt lat="44.83906" lon="4.65767">
        <ele>633.6</ele>
        <time>2019-11-09T10:55:18Z</time>
      </trkpt>
      <trkpt lat="44.83905" lon="4.65768">
        <ele>633.4</ele>
        <time>2019-11-09T10:55:25Z</time>
      </trkpt>
      <trkpt lat="44.83905" lon="4.65768">
        <ele>633.4</ele>
        <time>2019-11-09T10:55:26Z</time>
      </trkpt>
      <trkpt lat="44.83905" lon="4.65767">
        <ele>633.4</ele>
        <time>2019-11-09T10:55:34Z</time>
      </trkpt>
      <trkpt lat="44.83905" lon="4.65767">
        <ele>633.4</ele>
        <time>2019-11-09T10:55:35Z</time>
      </trkpt>
      <trkpt lat="44.83904" lon="4.65768">
        <ele>633.4</ele>
        <time>2019-11-09T10:55:44Z</time>
      </trkpt>
      <trkpt lat="44.83906" lon="4.65767">
        <ele>633.4</ele>
        <time>2019-11-09T10:55:51Z</time>
      </trkpt>
      <trkpt lat="44.83906" lon="4.65766">
        <ele>633.4</ele>
        <time>2019-11-09T10:55:57Z</time>
      </trkpt>
      <trkpt lat="44.83907" lon="4.65766">
        <ele>633.4</ele>
        <time>2019-11-09T10:56:03Z</time>
      </trkpt>
      <trkpt lat="44.83907" lon="4.65766">
        <ele>633.4</ele>
        <time>2019-11-09T10:56:07Z</time>
      </trkpt>
      <trkpt lat="44.83907" lon="4.65765">
        <ele>633.4</ele>
        <time>2019-11-09T10:56:17Z</time>
      </trkpt>
      <trkpt lat="44.83906" lon="4.65766">
        <ele>633.4</ele>
        <time>2019-11-09T10:56:25Z</time>
      </trkpt>
      <trkpt lat="44.83904" lon="4.65767">
        <ele>633.4</ele>
        <time>2019-11-09T10:56:32Z</time>
      </trkpt>
      <trkpt lat="44.83905" lon="4.65767">
        <ele>633.4</ele>
        <time>2019-11-09T10:56:41Z</time>
      </trkpt>
      <trkpt lat="44.83903" lon="4.65766">
        <ele>633.4</ele>
        <time>2019-11-09T10:56:49Z</time>
      </trkpt>
      <trkpt lat="44.83902" lon="4.65765">
        <ele>633.4</ele>
        <time>2019-11-09T10:57:00Z</time>
      </trkpt>
      <trkpt lat="44.83902" lon="4.65765">
        <ele>633.4</ele>
        <time>2019-11-09T10:57:04Z</time>
      </trkpt>
      <trkpt lat="44.83902" lon="4.65764">
        <ele>633.4</ele>
        <time>2019-11-09T10:57:10Z</time>
      </trkpt>
      <trkpt lat="44.83902" lon="4.65764">
        <ele>633.4</ele>
        <time>2019-11-09T10:57:12Z</time>
      </trkpt>
      <trkpt lat="44.83903" lon="4.65764">
        <ele>633.4</ele>
        <time>2019-11-09T10:57:20Z</time>
      </trkpt>
      <trkpt lat="44.83904" lon="4.65764">
        <ele>633.4</ele>
        <time>2019-11-09T10:57:32Z</time>
      </trkpt>
      <trkpt lat="44.83903" lon="4.65762">
        <ele>633.4</ele>
        <time>2019-11-09T10:57:40Z</time>
      </trkpt>
      <trkpt lat="44.83904" lon="4.6576">
        <ele>633.4</ele>
        <time>2019-11-09T10:57:44Z</time>
      </trkpt>
      <trkpt lat="44.83904" lon="4.65761">
        <ele>633.4</ele>
        <time>2019-11-09T10:57:46Z</time>
      </trkpt>
      <trkpt lat="44.83904" lon="4.65764">
        <ele>633.4</ele>
        <time>2019-11-09T10:57:53Z</time>
      </trkpt>
      <trkpt lat="44.83904" lon="4.65764">
        <ele>633.4</ele>
        <time>2019-11-09T10:58:00Z</time>
      </trkpt>
      <trkpt lat="44.83904" lon="4.65764">
        <ele>633.4</ele>
        <time>2019-11-09T10:58:04Z</time>
      </trkpt>
      <trkpt lat="44.83905" lon="4.65764">
        <ele>633.4</ele>
        <time>2019-11-09T10:58:13Z</time>
      </trkpt>
      <trkpt lat="44.83906" lon="4.65764">
        <ele>633.4</ele>
        <time>2019-11-09T10:58:17Z</time>
      </trkpt>
      <trkpt lat="44.83906" lon="4.65763">
        <ele>633.4</ele>
        <time>2019-11-09T10:58:23Z</time>
      </trkpt>
      <trkpt lat="44.8391" lon="4.65759">
        <ele>633.4</ele>
        <time>2019-11-09T10:58:33Z</time>
      </trkpt>
      <trkpt lat="44.83911" lon="4.65759">
        <ele>633.4</ele>
        <time>2019-11-09T10:58:34Z</time>
      </trkpt>
      <trkpt lat="44.83911" lon="4.65759">
        <ele>633.4</ele>
        <time>2019-11-09T10:58:45Z</time>
      </trkpt>
      <trkpt lat="44.83911" lon="4.65762">
        <ele>633.4</ele>
        <time>2019-11-09T10:58:55Z</time>
      </trkpt>
      <trkpt lat="44.83909" lon="4.65762">
        <ele>633.4</ele>
        <time>2019-11-09T10:59:03Z</time>
      </trkpt>
      <trkpt lat="44.83909" lon="4.65761">
        <ele>633.4</ele>
        <time>2019-11-09T10:59:06Z</time>
      </trkpt>
      <trkpt lat="44.83909" lon="4.65761">
        <ele>633.4</ele>
        <time>2019-11-09T10:59:08Z</time>
      </trkpt>
      <trkpt lat="44.83909" lon="4.65761">
        <ele>633.4</ele>
        <time>2019-11-09T10:59:10Z</time>
      </trkpt>
      <trkpt lat="44.8391" lon="4.65762">
        <ele>633.4</ele>
        <time>2019-11-09T10:59:11Z</time>
      </trkpt>
      <trkpt lat="44.83916" lon="4.65766">
        <ele>633.6</ele>
        <time>2019-11-09T10:59:16Z</time>
      </trkpt>
      <trkpt lat="44.83921" lon="4.65769">
        <ele>634</ele>
        <time>2019-11-09T10:59:20Z</time>
      </trkpt>
      <trkpt lat="44.83922" lon="4.6577">
        <ele>634.2</ele>
        <time>2019-11-09T10:59:21Z</time>
      </trkpt>
      <trkpt lat="44.83926" lon="4.65774">
        <ele>634.6</ele>
        <time>2019-11-09T10:59:24Z</time>
      </trkpt>
      <trkpt lat="44.83932" lon="4.6578">
        <ele>635.2</ele>
        <time>2019-11-09T10:59:29Z</time>
      </trkpt>
      <trkpt lat="44.83934" lon="4.65782">
        <ele>635.6</ele>
        <time>2019-11-09T10:59:31Z</time>
      </trkpt>
      <trkpt lat="44.83936" lon="4.65783">
        <ele>635.8</ele>
        <time>2019-11-09T10:59:32Z</time>
      </trkpt>
      <trkpt lat="44.83947" lon="4.65795">
        <ele>635</ele>
        <time>2019-11-09T10:59:38Z</time>
      </trkpt>
      <trkpt lat="44.8395" lon="4.65797">
        <ele>634.6</ele>
        <time>2019-11-09T10:59:39Z</time>
      </trkpt>
      <trkpt lat="44.83962" lon="4.65811">
        <ele>634.2</ele>
        <time>2019-11-09T10:59:43Z</time>
      </trkpt>
      <trkpt lat="44.83965" lon="4.65814">
        <ele>634.2</ele>
        <time>2019-11-09T10:59:44Z</time>
      </trkpt>
      <trkpt lat="44.83975" lon="4.65824">
        <ele>634.2</ele>
        <time>2019-11-09T10:59:47Z</time>
      </trkpt>
      <trkpt lat="44.8398" lon="4.65834">
        <ele>634.2</ele>
        <time>2019-11-09T10:59:50Z</time>
      </trkpt>
      <trkpt lat="44.83983" lon="4.65841">
        <ele>634.2</ele>
        <time>2019-11-09T10:59:52Z</time>
      </trkpt>
      <trkpt lat="44.83989" lon="4.65859">
        <ele>634.8</ele>
        <time>2019-11-09T10:59:57Z</time>
      </trkpt>
      <trkpt lat="44.83994" lon="4.65868">
        <ele>634.8</ele>
        <time>2019-11-09T11:00:00Z</time>
      </trkpt>
      <trkpt lat="44.83999" lon="4.65877">
        <ele>634.8</ele>
        <time>2019-11-09T11:00:03Z</time>
      </trkpt>
      <trkpt lat="44.84003" lon="4.65882">
        <ele>635</ele>
        <time>2019-11-09T11:00:05Z</time>
      </trkpt>
      <trkpt lat="44.84006" lon="4.65885">
        <ele>635.2</ele>
        <time>2019-11-09T11:00:06Z</time>
      </trkpt>
      <trkpt lat="44.84018" lon="4.65895">
        <ele>635.8</ele>
        <time>2019-11-09T11:00:12Z</time>
      </trkpt>
      <trkpt lat="44.8402" lon="4.65897">
        <ele>635.8</ele>
        <time>2019-11-09T11:00:13Z</time>
      </trkpt>
      <trkpt lat="44.84027" lon="4.65901">
        <ele>636.4</ele>
        <time>2019-11-09T11:00:17Z</time>
      </trkpt>
      <trkpt lat="44.84038" lon="4.65906">
        <ele>637.8</ele>
        <time>2019-11-09T11:00:22Z</time>
      </trkpt>
      <trkpt lat="44.84046" lon="4.65908">
        <ele>638.8</ele>
        <time>2019-11-09T11:00:26Z</time>
      </trkpt>
      <trkpt lat="44.84052" lon="4.65908">
        <ele>639.6</ele>
        <time>2019-11-09T11:00:29Z</time>
      </trkpt>
      <trkpt lat="44.84054" lon="4.65909">
        <ele>639.8</ele>
        <time>2019-11-09T11:00:30Z</time>
      </trkpt>
      <trkpt lat="44.84065" lon="4.65908">
        <ele>640.8</ele>
        <time>2019-11-09T11:00:36Z</time>
      </trkpt>
      <trkpt lat="44.84067" lon="4.65908">
        <ele>641</ele>
        <time>2019-11-09T11:00:37Z</time>
      </trkpt>
      <trkpt lat="44.84082" lon="4.65907">
        <ele>641.8</ele>
        <time>2019-11-09T11:00:44Z</time>
      </trkpt>
      <trkpt lat="44.84091" lon="4.65908">
        <ele>642</ele>
        <time>2019-11-09T11:00:48Z</time>
      </trkpt>
      <trkpt lat="44.84093" lon="4.65909">
        <ele>642</ele>
        <time>2019-11-09T11:00:49Z</time>
      </trkpt>
      <trkpt lat="44.84095" lon="4.6591">
        <ele>642</ele>
        <time>2019-11-09T11:00:50Z</time>
      </trkpt>
      <trkpt lat="44.84097" lon="4.6591">
        <ele>642</ele>
        <time>2019-11-09T11:00:51Z</time>
      </trkpt>
      <trkpt lat="44.84099" lon="4.65911">
        <ele>642</ele>
        <time>2019-11-09T11:00:52Z</time>
      </trkpt>
      <trkpt lat="44.84101" lon="4.65912">
        <ele>642.2</ele>
        <time>2019-11-09T11:00:53Z</time>
      </trkpt>
      <trkpt lat="44.84103" lon="4.65912">
        <ele>642.2</ele>
        <time>2019-11-09T11:00:54Z</time>
      </trkpt>
      <trkpt lat="44.84107" lon="4.65911">
        <ele>642.6</ele>
        <time>2019-11-09T11:00:56Z</time>
      </trkpt>
      <trkpt lat="44.84112" lon="4.65911">
        <ele>642.8</ele>
        <time>2019-11-09T11:00:58Z</time>
      </trkpt>
      <trkpt lat="44.84113" lon="4.65911">
        <ele>643</ele>
        <time>2019-11-09T11:00:59Z</time>
      </trkpt>
      <trkpt lat="44.84123" lon="4.6591">
        <ele>643.4</ele>
        <time>2019-11-09T11:01:04Z</time>
      </trkpt>
      <trkpt lat="44.84139" lon="4.65907">
        <ele>643.8</ele>
        <time>2019-11-09T11:01:11Z</time>
      </trkpt>
      <trkpt lat="44.84143" lon="4.65908">
        <ele>644</ele>
        <time>2019-11-09T11:01:13Z</time>
      </trkpt>
      <trkpt lat="44.84145" lon="4.65908">
        <ele>644</ele>
        <time>2019-11-09T11:01:14Z</time>
      </trkpt>
      <trkpt lat="44.84158" lon="4.65913">
        <ele>644.6</ele>
        <time>2019-11-09T11:01:20Z</time>
      </trkpt>
      <trkpt lat="44.8416" lon="4.65913">
        <ele>644.8</ele>
        <time>2019-11-09T11:01:21Z</time>
      </trkpt>
      <trkpt lat="44.84164" lon="4.65911">
        <ele>645.2</ele>
        <time>2019-11-09T11:01:23Z</time>
      </trkpt>
      <trkpt lat="44.84177" lon="4.65907">
        <ele>646</ele>
        <time>2019-11-09T11:01:29Z</time>
      </trkpt>
      <trkpt lat="44.84193" lon="4.6591">
        <ele>645.8</ele>
        <time>2019-11-09T11:01:36Z</time>
      </trkpt>
      <trkpt lat="44.842" lon="4.65919">
        <ele>645.6</ele>
        <time>2019-11-09T11:01:40Z</time>
      </trkpt>
      <trkpt lat="44.84203" lon="4.65925">
        <ele>645.6</ele>
        <time>2019-11-09T11:01:42Z</time>
      </trkpt>
      <trkpt lat="44.84211" lon="4.65944">
        <ele>645.8</ele>
        <time>2019-11-09T11:01:49Z</time>
      </trkpt>
      <trkpt lat="44.84215" lon="4.65952">
        <ele>646.2</ele>
        <time>2019-11-09T11:01:52Z</time>
      </trkpt>
      <trkpt lat="44.84224" lon="4.65969">
        <ele>646.8</ele>
        <time>2019-11-09T11:01:58Z</time>
      </trkpt>
      <trkpt lat="44.84228" lon="4.65979">
        <ele>646.8</ele>
        <time>2019-11-09T11:02:01Z</time>
      </trkpt>
      <trkpt lat="44.84233" lon="4.65992">
        <ele>647</ele>
        <time>2019-11-09T11:02:05Z</time>
      </trkpt>
      <trkpt lat="44.84234" lon="4.65995">
        <ele>647</ele>
        <time>2019-11-09T11:02:06Z</time>
      </trkpt>
      <trkpt lat="44.84236" lon="4.66002">
        <ele>647.2</ele>
        <time>2019-11-09T11:02:08Z</time>
      </trkpt>
      <trkpt lat="44.84241" lon="4.6602">
        <ele>647.8</ele>
        <time>2019-11-09T11:02:14Z</time>
      </trkpt>
      <trkpt lat="44.84247" lon="4.66038">
        <ele>648.4</ele>
        <time>2019-11-09T11:02:20Z</time>
      </trkpt>
      <trkpt lat="44.84251" lon="4.66046">
        <ele>649.2</ele>
        <time>2019-11-09T11:02:23Z</time>
      </trkpt>
      <trkpt lat="44.84252" lon="4.66048">
        <ele>649.4</ele>
        <time>2019-11-09T11:02:24Z</time>
      </trkpt>
      <trkpt lat="44.84257" lon="4.66056">
        <ele>650</ele>
        <time>2019-11-09T11:02:27Z</time>
      </trkpt>
      <trkpt lat="44.84263" lon="4.66066">
        <ele>650.4</ele>
        <time>2019-11-09T11:02:31Z</time>
      </trkpt>
      <trkpt lat="44.84276" lon="4.6609">
        <ele>649.8</ele>
        <time>2019-11-09T11:02:39Z</time>
      </trkpt>
      <trkpt lat="44.84291" lon="4.66113">
        <ele>649.6</ele>
        <time>2019-11-09T11:02:46Z</time>
      </trkpt>
      <trkpt lat="44.84308" lon="4.66125">
        <ele>649</ele>
        <time>2019-11-09T11:02:52Z</time>
      </trkpt>
      <trkpt lat="44.84328" lon="4.6614">
        <ele>649</ele>
        <time>2019-11-09T11:03:00Z</time>
      </trkpt>
      <trkpt lat="44.84333" lon="4.66143">
        <ele>649</ele>
        <time>2019-11-09T11:03:02Z</time>
      </trkpt>
      <trkpt lat="44.84355" lon="4.6615">
        <ele>649.4</ele>
        <time>2019-11-09T11:03:10Z</time>
      </trkpt>
      <trkpt lat="44.84375" lon="4.6615">
        <ele>649.8</ele>
        <time>2019-11-09T11:03:17Z</time>
      </trkpt>
      <trkpt lat="44.84394" lon="4.66157">
        <ele>648.4</ele>
        <time>2019-11-09T11:03:23Z</time>
      </trkpt>
      <trkpt lat="44.84397" lon="4.66159">
        <ele>648.4</ele>
        <time>2019-11-09T11:03:24Z</time>
      </trkpt>
      <trkpt lat="44.84418" lon="4.66174">
        <ele>648.4</ele>
        <time>2019-11-09T11:03:31Z</time>
      </trkpt>
      <trkpt lat="44.84433" lon="4.66195">
        <ele>648.6</ele>
        <time>2019-11-09T11:03:38Z</time>
      </trkpt>
      <trkpt lat="44.84452" lon="4.66207">
        <ele>648.4</ele>
        <time>2019-11-09T11:03:44Z</time>
      </trkpt>
      <trkpt lat="44.84469" lon="4.66221">
        <ele>648.6</ele>
        <time>2019-11-09T11:03:50Z</time>
      </trkpt>
      <trkpt lat="44.84479" lon="4.66238">
        <ele>648.6</ele>
        <time>2019-11-09T11:03:55Z</time>
      </trkpt>
      <trkpt lat="44.84483" lon="4.66264">
        <ele>649.6</ele>
        <time>2019-11-09T11:04:02Z</time>
      </trkpt>
      <trkpt lat="44.84484" lon="4.66277">
        <ele>650.6</ele>
        <time>2019-11-09T11:04:06Z</time>
      </trkpt>
      <trkpt lat="44.84486" lon="4.66284">
        <ele>651.4</ele>
        <time>2019-11-09T11:04:09Z</time>
      </trkpt>
      <trkpt lat="44.84487" lon="4.66287">
        <ele>651.8</ele>
        <time>2019-11-09T11:04:10Z</time>
      </trkpt>
      <trkpt lat="44.84495" lon="4.66302">
        <ele>652.6</ele>
        <time>2019-11-09T11:04:16Z</time>
      </trkpt>
      <trkpt lat="44.84496" lon="4.66304">
        <ele>653</ele>
        <time>2019-11-09T11:04:17Z</time>
      </trkpt>
      <trkpt lat="44.84507" lon="4.66318">
        <ele>652.6</ele>
        <time>2019-11-09T11:04:23Z</time>
      </trkpt>
      <trkpt lat="44.84511" lon="4.66323">
        <ele>652.4</ele>
        <time>2019-11-09T11:04:25Z</time>
      </trkpt>
      <trkpt lat="44.84517" lon="4.66331">
        <ele>652.6</ele>
        <time>2019-11-09T11:04:28Z</time>
      </trkpt>
      <trkpt lat="44.8452" lon="4.66333">
        <ele>652.6</ele>
        <time>2019-11-09T11:04:29Z</time>
      </trkpt>
      <trkpt lat="44.84522" lon="4.66335">
        <ele>652.6</ele>
        <time>2019-11-09T11:04:30Z</time>
      </trkpt>
      <trkpt lat="44.84525" lon="4.66337">
        <ele>652.6</ele>
        <time>2019-11-09T11:04:31Z</time>
      </trkpt>
      <trkpt lat="44.84543" lon="4.6634">
        <ele>652.4</ele>
        <time>2019-11-09T11:04:37Z</time>
      </trkpt>
      <trkpt lat="44.8456" lon="4.66339">
        <ele>653</ele>
        <time>2019-11-09T11:04:44Z</time>
      </trkpt>
      <trkpt lat="44.84565" lon="4.66348">
        <ele>654.4</ele>
        <time>2019-11-09T11:04:47Z</time>
      </trkpt>
      <trkpt lat="44.84567" lon="4.66354">
        <ele>655.4</ele>
        <time>2019-11-09T11:04:49Z</time>
      </trkpt>
      <trkpt lat="44.84569" lon="4.66357">
        <ele>655.6</ele>
        <time>2019-11-09T11:04:50Z</time>
      </trkpt>
      <trkpt lat="44.84581" lon="4.66372">
        <ele>655.6</ele>
        <time>2019-11-09T11:04:56Z</time>
      </trkpt>
      <trkpt lat="44.84587" lon="4.66377">
        <ele>656</ele>
        <time>2019-11-09T11:04:59Z</time>
      </trkpt>
      <trkpt lat="44.84597" lon="4.66383">
        <ele>656.4</ele>
        <time>2019-11-09T11:05:03Z</time>
      </trkpt>
      <trkpt lat="44.846" lon="4.66385">
        <ele>656.8</ele>
        <time>2019-11-09T11:05:04Z</time>
      </trkpt>
      <trkpt lat="44.84613" lon="4.66388">
        <ele>657.8</ele>
        <time>2019-11-09T11:05:09Z</time>
      </trkpt>
      <trkpt lat="44.84627" lon="4.66393">
        <ele>658.2</ele>
        <time>2019-11-09T11:05:15Z</time>
      </trkpt>
      <trkpt lat="44.84629" lon="4.66394">
        <ele>658.4</ele>
        <time>2019-11-09T11:05:16Z</time>
      </trkpt>
      <trkpt lat="44.84643" lon="4.66407">
        <ele>657.2</ele>
        <time>2019-11-09T11:05:21Z</time>
      </trkpt>
      <trkpt lat="44.84647" lon="4.6641">
        <ele>656.2</ele>
        <time>2019-11-09T11:05:22Z</time>
      </trkpt>
      <trkpt lat="44.84659" lon="4.66413">
        <ele>655</ele>
        <time>2019-11-09T11:05:24Z</time>
      </trkpt>
      <trkpt lat="44.84664" lon="4.66415">
        <ele>654.8</ele>
        <time>2019-11-09T11:05:25Z</time>
      </trkpt>
      <trkpt lat="44.84674" lon="4.66422">
        <ele>653.8</ele>
        <time>2019-11-09T11:05:27Z</time>
      </trkpt>
      <trkpt lat="44.8468" lon="4.66431">
        <ele>653.6</ele>
        <time>2019-11-09T11:05:29Z</time>
      </trkpt>
      <trkpt lat="44.84692" lon="4.66445">
        <ele>654.6</ele>
        <time>2019-11-09T11:05:33Z</time>
      </trkpt>
      <trkpt lat="44.84697" lon="4.66451">
        <ele>655.2</ele>
        <time>2019-11-09T11:05:35Z</time>
      </trkpt>
      <trkpt lat="44.84705" lon="4.66456">
        <ele>656.4</ele>
        <time>2019-11-09T11:05:38Z</time>
      </trkpt>
      <trkpt lat="44.8471" lon="4.66459">
        <ele>657</ele>
        <time>2019-11-09T11:05:40Z</time>
      </trkpt>
      <trkpt lat="44.84713" lon="4.66461">
        <ele>657.4</ele>
        <time>2019-11-09T11:05:41Z</time>
      </trkpt>
      <trkpt lat="44.84718" lon="4.66464">
        <ele>658.8</ele>
        <time>2019-11-09T11:05:43Z</time>
      </trkpt>
      <trkpt lat="44.8472" lon="4.66465">
        <ele>659.2</ele>
        <time>2019-11-09T11:05:44Z</time>
      </trkpt>
      <trkpt lat="44.84734" lon="4.66477">
        <ele>658.6</ele>
        <time>2019-11-09T11:05:51Z</time>
      </trkpt>
      <trkpt lat="44.84736" lon="4.6648">
        <ele>658.4</ele>
        <time>2019-11-09T11:05:52Z</time>
      </trkpt>
      <trkpt lat="44.84742" lon="4.66485">
        <ele>657.6</ele>
        <time>2019-11-09T11:05:54Z</time>
      </trkpt>
      <trkpt lat="44.84754" lon="4.66494">
        <ele>656.6</ele>
        <time>2019-11-09T11:05:57Z</time>
      </trkpt>
      <trkpt lat="44.84758" lon="4.66499">
        <ele>656</ele>
        <time>2019-11-09T11:05:58Z</time>
      </trkpt>
      <trkpt lat="44.84763" lon="4.66504">
        <ele>655.2</ele>
        <time>2019-11-09T11:05:59Z</time>
      </trkpt>
      <trkpt lat="44.84766" lon="4.6651">
        <ele>654.4</ele>
        <time>2019-11-09T11:06:00Z</time>
      </trkpt>
      <trkpt lat="44.84769" lon="4.66518">
        <ele>653.8</ele>
        <time>2019-11-09T11:06:01Z</time>
      </trkpt>
      <trkpt lat="44.8477" lon="4.66527">
        <ele>653.2</ele>
        <time>2019-11-09T11:06:02Z</time>
      </trkpt>
      <trkpt lat="44.84771" lon="4.66544">
        <ele>652.4</ele>
        <time>2019-11-09T11:06:04Z</time>
      </trkpt>
      <trkpt lat="44.84778" lon="4.66572">
        <ele>651.4</ele>
        <time>2019-11-09T11:06:08Z</time>
      </trkpt>
      <trkpt lat="44.84781" lon="4.66578">
        <ele>651.4</ele>
        <time>2019-11-09T11:06:09Z</time>
      </trkpt>
      <trkpt lat="44.84784" lon="4.6659">
        <ele>651.6</ele>
        <time>2019-11-09T11:06:11Z</time>
      </trkpt>
      <trkpt lat="44.84782" lon="4.66598">
        <ele>652.6</ele>
        <time>2019-11-09T11:06:13Z</time>
      </trkpt>
      <trkpt lat="44.84778" lon="4.66596">
        <ele>654.2</ele>
        <time>2019-11-09T11:06:15Z</time>
      </trkpt>
      <trkpt lat="44.84776" lon="4.66595">
        <ele>654.8</ele>
        <time>2019-11-09T11:06:16Z</time>
      </trkpt>
      <trkpt lat="44.84773" lon="4.66593">
        <ele>655.2</ele>
        <time>2019-11-09T11:06:18Z</time>
      </trkpt>
      <trkpt lat="44.84766" lon="4.66589">
        <ele>655.2</ele>
        <time>2019-11-09T11:06:22Z</time>
      </trkpt>
      <trkpt lat="44.8476" lon="4.66588">
        <ele>655</ele>
        <time>2019-11-09T11:06:25Z</time>
      </trkpt>
      <trkpt lat="44.84754" lon="4.66588">
        <ele>655.4</ele>
        <time>2019-11-09T11:06:28Z</time>
      </trkpt>
      <trkpt lat="44.84747" lon="4.6659">
        <ele>655.2</ele>
        <time>2019-11-09T11:06:31Z</time>
      </trkpt>
      <trkpt lat="44.84737" lon="4.66598">
        <ele>655</ele>
        <time>2019-11-09T11:06:36Z</time>
      </trkpt>
      <trkpt lat="44.84734" lon="4.66602">
        <ele>655</ele>
        <time>2019-11-09T11:06:38Z</time>
      </trkpt>
      <trkpt lat="44.84725" lon="4.66609">
        <ele>655.6</ele>
        <time>2019-11-09T11:06:44Z</time>
      </trkpt>
      <trkpt lat="44.84715" lon="4.66611">
        <ele>655</ele>
        <time>2019-11-09T11:06:51Z</time>
      </trkpt>
      <trkpt lat="44.84715" lon="4.66611">
        <ele>654.8</ele>
        <time>2019-11-09T11:06:55Z</time>
      </trkpt>
      <trkpt lat="44.84715" lon="4.66611">
        <ele>654.2</ele>
        <time>2019-11-09T11:07:04Z</time>
      </trkpt>
      <trkpt lat="44.84715" lon="4.66611">
        <ele>654</ele>
        <time>2019-11-09T11:07:15Z</time>
      </trkpt>
      <trkpt lat="44.84715" lon="4.66611">
        <ele>653.8</ele>
        <time>2019-11-09T11:07:28Z</time>
      </trkpt>
      <trkpt lat="44.84714" lon="4.66612">
        <ele>653.8</ele>
        <time>2019-11-09T11:07:40Z</time>
      </trkpt>
      <trkpt lat="44.84711" lon="4.66614">
        <ele>653.6</ele>
        <time>2019-11-09T11:07:43Z</time>
      </trkpt>
      <trkpt lat="44.84709" lon="4.66617">
        <ele>653.6</ele>
        <time>2019-11-09T11:07:44Z</time>
      </trkpt>
      <trkpt lat="44.84701" lon="4.66622">
        <ele>653</ele>
        <time>2019-11-09T11:07:46Z</time>
      </trkpt>
      <trkpt lat="44.84691" lon="4.66628">
        <ele>651.8</ele>
        <time>2019-11-09T11:07:48Z</time>
      </trkpt>
      <trkpt lat="44.84682" lon="4.66633">
        <ele>650.6</ele>
        <time>2019-11-09T11:07:50Z</time>
      </trkpt>
      <trkpt lat="44.84672" lon="4.6664">
        <ele>649.4</ele>
        <time>2019-11-09T11:07:52Z</time>
      </trkpt>
      <trkpt lat="44.84662" lon="4.66646">
        <ele>648.4</ele>
        <time>2019-11-09T11:07:54Z</time>
      </trkpt>
      <trkpt lat="44.84657" lon="4.66648">
        <ele>647.8</ele>
        <time>2019-11-09T11:07:55Z</time>
      </trkpt>
      <trkpt lat="44.84646" lon="4.66654">
        <ele>646</ele>
        <time>2019-11-09T11:07:57Z</time>
      </trkpt>
      <trkpt lat="44.84633" lon="4.66662">
        <ele>645</ele>
        <time>2019-11-09T11:07:59Z</time>
      </trkpt>
      <trkpt lat="44.84622" lon="4.66673">
        <ele>643.2</ele>
        <time>2019-11-09T11:08:01Z</time>
      </trkpt>
      <trkpt lat="44.8461" lon="4.66685">
        <ele>641.8</ele>
        <time>2019-11-09T11:08:03Z</time>
      </trkpt>
      <trkpt lat="44.84603" lon="4.66691">
        <ele>641.4</ele>
        <time>2019-11-09T11:08:04Z</time>
      </trkpt>
      <trkpt lat="44.84597" lon="4.66695">
        <ele>641</ele>
        <time>2019-11-09T11:08:05Z</time>
      </trkpt>
      <trkpt lat="44.8459" lon="4.66701">
        <ele>640.8</ele>
        <time>2019-11-09T11:08:06Z</time>
      </trkpt>
      <trkpt lat="44.84571" lon="4.66716">
        <ele>639.6</ele>
        <time>2019-11-09T11:08:09Z</time>
      </trkpt>
      <trkpt lat="44.84555" lon="4.66729">
        <ele>638.4</ele>
        <time>2019-11-09T11:08:12Z</time>
      </trkpt>
      <trkpt lat="44.84549" lon="4.66734">
        <ele>638</ele>
        <time>2019-11-09T11:08:13Z</time>
      </trkpt>
      <trkpt lat="44.84537" lon="4.66744">
        <ele>637.2</ele>
        <time>2019-11-09T11:08:15Z</time>
      </trkpt>
      <trkpt lat="44.84528" lon="4.66752">
        <ele>636.8</ele>
        <time>2019-11-09T11:08:17Z</time>
      </trkpt>
      <trkpt lat="44.84519" lon="4.66766">
        <ele>637</ele>
        <time>2019-11-09T11:08:21Z</time>
      </trkpt>
      <trkpt lat="44.84517" lon="4.66767">
        <ele>636.8</ele>
        <time>2019-11-09T11:08:22Z</time>
      </trkpt>
      <trkpt lat="44.84511" lon="4.66771">
        <ele>636.4</ele>
        <time>2019-11-09T11:08:24Z</time>
      </trkpt>
      <trkpt lat="44.84508" lon="4.66773">
        <ele>635.8</ele>
        <time>2019-11-09T11:08:25Z</time>
      </trkpt>
      <trkpt lat="44.84505" lon="4.66776">
        <ele>634.6</ele>
        <time>2019-11-09T11:08:26Z</time>
      </trkpt>
      <trkpt lat="44.84502" lon="4.66777">
        <ele>633.4</ele>
        <time>2019-11-09T11:08:27Z</time>
      </trkpt>
      <trkpt lat="44.84498" lon="4.66778">
        <ele>632</ele>
        <time>2019-11-09T11:08:28Z</time>
      </trkpt>
      <trkpt lat="44.84493" lon="4.6678">
        <ele>630.6</ele>
        <time>2019-11-09T11:08:30Z</time>
      </trkpt>
      <trkpt lat="44.84485" lon="4.66786">
        <ele>629.6</ele>
        <time>2019-11-09T11:08:33Z</time>
      </trkpt>
      <trkpt lat="44.84481" lon="4.66789">
        <ele>629.4</ele>
        <time>2019-11-09T11:08:34Z</time>
      </trkpt>
      <trkpt lat="44.84474" lon="4.66796">
        <ele>628.4</ele>
        <time>2019-11-09T11:08:36Z</time>
      </trkpt>
      <trkpt lat="44.84461" lon="4.66804">
        <ele>627.6</ele>
        <time>2019-11-09T11:08:40Z</time>
      </trkpt>
      <trkpt lat="44.84457" lon="4.66806">
        <ele>627.4</ele>
        <time>2019-11-09T11:08:41Z</time>
      </trkpt>
      <trkpt lat="44.84445" lon="4.6682">
        <ele>626.2</ele>
        <time>2019-11-09T11:08:46Z</time>
      </trkpt>
      <trkpt lat="44.84439" lon="4.66841">
        <ele>625</ele>
        <time>2019-11-09T11:08:53Z</time>
      </trkpt>
      <trkpt lat="44.84434" lon="4.66856">
        <ele>624.4</ele>
        <time>2019-11-09T11:08:57Z</time>
      </trkpt>
      <trkpt lat="44.84433" lon="4.66864">
        <ele>624.2</ele>
        <time>2019-11-09T11:08:59Z</time>
      </trkpt>
      <trkpt lat="44.8443" lon="4.66873">
        <ele>624</ele>
        <time>2019-11-09T11:09:01Z</time>
      </trkpt>
      <trkpt lat="44.84426" lon="4.66888">
        <ele>623.2</ele>
        <time>2019-11-09T11:09:04Z</time>
      </trkpt>
      <trkpt lat="44.84425" lon="4.66894">
        <ele>623</ele>
        <time>2019-11-09T11:09:05Z</time>
      </trkpt>
      <trkpt lat="44.84424" lon="4.66909">
        <ele>621.8</ele>
        <time>2019-11-09T11:09:08Z</time>
      </trkpt>
      <trkpt lat="44.84423" lon="4.66913">
        <ele>621.6</ele>
        <time>2019-11-09T11:09:09Z</time>
      </trkpt>
      <trkpt lat="44.84419" lon="4.66924">
        <ele>620.4</ele>
        <time>2019-11-09T11:09:11Z</time>
      </trkpt>
      <trkpt lat="44.84415" lon="4.66932">
        <ele>619.4</ele>
        <time>2019-11-09T11:09:13Z</time>
      </trkpt>
      <trkpt lat="44.84413" lon="4.66935">
        <ele>619</ele>
        <time>2019-11-09T11:09:14Z</time>
      </trkpt>
      <trkpt lat="44.8441" lon="4.66944">
        <ele>617.8</ele>
        <time>2019-11-09T11:09:16Z</time>
      </trkpt>
      <trkpt lat="44.84407" lon="4.6695">
        <ele>616.4</ele>
        <time>2019-11-09T11:09:18Z</time>
      </trkpt>
      <trkpt lat="44.84405" lon="4.66953">
        <ele>616</ele>
        <time>2019-11-09T11:09:19Z</time>
      </trkpt>
      <trkpt lat="44.84398" lon="4.6697">
        <ele>614.8</ele>
        <time>2019-11-09T11:09:23Z</time>
      </trkpt>
      <trkpt lat="44.84395" lon="4.66978">
        <ele>613.8</ele>
        <time>2019-11-09T11:09:25Z</time>
      </trkpt>
      <trkpt lat="44.84393" lon="4.66985">
        <ele>612.8</ele>
        <time>2019-11-09T11:09:27Z</time>
      </trkpt>
      <trkpt lat="44.84392" lon="4.66986">
        <ele>612</ele>
        <time>2019-11-09T11:09:29Z</time>
      </trkpt>
      <trkpt lat="44.84392" lon="4.66987">
        <ele>611.8</ele>
        <time>2019-11-09T11:09:33Z</time>
      </trkpt>
      <trkpt lat="44.84392" lon="4.66987">
        <ele>611.8</ele>
        <time>2019-11-09T11:09:34Z</time>
      </trkpt>
      <trkpt lat="44.84392" lon="4.66988">
        <ele>611.6</ele>
        <time>2019-11-09T11:09:35Z</time>
      </trkpt>
      <trkpt lat="44.84391" lon="4.6699">
        <ele>611.2</ele>
        <time>2019-11-09T11:09:38Z</time>
      </trkpt>
      <trkpt lat="44.84383" lon="4.67">
        <ele>610.2</ele>
        <time>2019-11-09T11:09:43Z</time>
      </trkpt>
      <trkpt lat="44.84376" lon="4.67008">
        <ele>609</ele>
        <time>2019-11-09T11:09:46Z</time>
      </trkpt>
      <trkpt lat="44.84367" lon="4.67015">
        <ele>607.6</ele>
        <time>2019-11-09T11:09:49Z</time>
      </trkpt>
      <trkpt lat="44.84364" lon="4.67017">
        <ele>606.6</ele>
        <time>2019-11-09T11:09:50Z</time>
      </trkpt>
      <trkpt lat="44.84358" lon="4.67021">
        <ele>605.2</ele>
        <time>2019-11-09T11:09:52Z</time>
      </trkpt>
      <trkpt lat="44.84349" lon="4.67025">
        <ele>604.2</ele>
        <time>2019-11-09T11:09:55Z</time>
      </trkpt>
      <trkpt lat="44.84347" lon="4.67028">
        <ele>604</ele>
        <time>2019-11-09T11:09:56Z</time>
      </trkpt>
      <trkpt lat="44.8434" lon="4.67036">
        <ele>603.2</ele>
        <time>2019-11-09T11:10:00Z</time>
      </trkpt>
      <trkpt lat="44.84338" lon="4.67038">
        <ele>602.8</ele>
        <time>2019-11-09T11:10:01Z</time>
      </trkpt>
      <trkpt lat="44.84337" lon="4.67041">
        <ele>602.6</ele>
        <time>2019-11-09T11:10:02Z</time>
      </trkpt>
      <trkpt lat="44.8433" lon="4.67049">
        <ele>601.6</ele>
        <time>2019-11-09T11:10:05Z</time>
      </trkpt>
      <trkpt lat="44.84327" lon="4.67054">
        <ele>600</ele>
        <time>2019-11-09T11:10:07Z</time>
      </trkpt>
      <trkpt lat="44.84324" lon="4.67065">
        <ele>599</ele>
        <time>2019-11-09T11:10:10Z</time>
      </trkpt>
      <trkpt lat="44.84322" lon="4.67068">
        <ele>598.6</ele>
        <time>2019-11-09T11:10:11Z</time>
      </trkpt>
      <trkpt lat="44.8432" lon="4.67071">
        <ele>597.8</ele>
        <time>2019-11-09T11:10:12Z</time>
      </trkpt>
      <trkpt lat="44.84315" lon="4.67076">
        <ele>596.4</ele>
        <time>2019-11-09T11:10:14Z</time>
      </trkpt>
      <trkpt lat="44.84312" lon="4.67079">
        <ele>596</ele>
        <time>2019-11-09T11:10:15Z</time>
      </trkpt>
      <trkpt lat="44.84307" lon="4.67086">
        <ele>595.2</ele>
        <time>2019-11-09T11:10:17Z</time>
      </trkpt>
      <trkpt lat="44.84303" lon="4.67092">
        <ele>594.8</ele>
        <time>2019-11-09T11:10:20Z</time>
      </trkpt>
      <trkpt lat="44.84304" lon="4.67093">
        <ele>594.8</ele>
        <time>2019-11-09T11:10:25Z</time>
      </trkpt>
      <trkpt lat="44.84304" lon="4.67093">
        <ele>594.8</ele>
        <time>2019-11-09T11:10:26Z</time>
      </trkpt>
      <trkpt lat="44.84304" lon="4.67094">
        <ele>594.8</ele>
        <time>2019-11-09T11:10:29Z</time>
      </trkpt>
      <trkpt lat="44.84303" lon="4.67095">
        <ele>594.8</ele>
        <time>2019-11-09T11:10:30Z</time>
      </trkpt>
      <trkpt lat="44.84301" lon="4.67097">
        <ele>594.8</ele>
        <time>2019-11-09T11:10:32Z</time>
      </trkpt>
      <trkpt lat="44.84293" lon="4.67098">
        <ele>595.2</ele>
        <time>2019-11-09T11:10:38Z</time>
      </trkpt>
      <trkpt lat="44.84291" lon="4.67098">
        <ele>595.2</ele>
        <time>2019-11-09T11:10:43Z</time>
      </trkpt>
      <trkpt lat="44.84291" lon="4.67099">
        <ele>594.8</ele>
        <time>2019-11-09T11:10:53Z</time>
      </trkpt>
      <trkpt lat="44.84291" lon="4.67099">
        <ele>594.8</ele>
        <time>2019-11-09T11:11:01Z</time>
      </trkpt>
      <trkpt lat="44.84291" lon="4.67099">
        <ele>594.6</ele>
        <time>2019-11-09T11:11:07Z</time>
      </trkpt>
      <trkpt lat="44.84291" lon="4.67099">
        <ele>594.6</ele>
        <time>2019-11-09T11:11:09Z</time>
      </trkpt>
      <trkpt lat="44.84291" lon="4.67099">
        <ele>594.6</ele>
        <time>2019-11-09T11:11:12Z</time>
      </trkpt>
      <trkpt lat="44.8429" lon="4.67099">
        <ele>594.6</ele>
        <time>2019-11-09T11:11:20Z</time>
      </trkpt>
      <trkpt lat="44.8429" lon="4.671">
        <ele>594.6</ele>
        <time>2019-11-09T11:11:28Z</time>
      </trkpt>
      <trkpt lat="44.8429" lon="4.671">
        <ele>594.4</ele>
        <time>2019-11-09T11:11:30Z</time>
      </trkpt>
      <trkpt lat="44.84289" lon="4.671">
        <ele>594.2</ele>
        <time>2019-11-09T11:11:31Z</time>
      </trkpt>
      <trkpt lat="44.84288" lon="4.67099">
        <ele>594.2</ele>
        <time>2019-11-09T11:11:33Z</time>
      </trkpt>
      <trkpt lat="44.84288" lon="4.67099">
        <ele>594</ele>
        <time>2019-11-09T11:11:34Z</time>
      </trkpt>
      <trkpt lat="44.84288" lon="4.67099">
        <ele>594</ele>
        <time>2019-11-09T11:11:35Z</time>
      </trkpt>
      <trkpt lat="44.84288" lon="4.67098">
        <ele>594</ele>
        <time>2019-11-09T11:11:36Z</time>
      </trkpt>
      <trkpt lat="44.84286" lon="4.67095">
        <ele>594.6</ele>
        <time>2019-11-09T11:11:42Z</time>
      </trkpt>
      <trkpt lat="44.84286" lon="4.67095">
        <ele>594.6</ele>
        <time>2019-11-09T11:11:45Z</time>
      </trkpt>
      <trkpt lat="44.84286" lon="4.67095">
        <ele>594.6</ele>
        <time>2019-11-09T11:11:57Z</time>
      </trkpt>
      <trkpt lat="44.84286" lon="4.67095">
        <ele>594.6</ele>
        <time>2019-11-09T11:12:09Z</time>
      </trkpt>
      <trkpt lat="44.84285" lon="4.67095">
        <ele>594.6</ele>
        <time>2019-11-09T11:12:24Z</time>
      </trkpt>
      <trkpt lat="44.84285" lon="4.67096">
        <ele>594.6</ele>
        <time>2019-11-09T11:12:28Z</time>
      </trkpt>
      <trkpt lat="44.84285" lon="4.67096">
        <ele>594.6</ele>
        <time>2019-11-09T11:12:31Z</time>
      </trkpt>
      <trkpt lat="44.84285" lon="4.67096">
        <ele>594.6</ele>
        <time>2019-11-09T11:12:34Z</time>
      </trkpt>
      <trkpt lat="44.84285" lon="4.67096">
        <ele>594.6</ele>
        <time>2019-11-09T11:12:35Z</time>
      </trkpt>
      <trkpt lat="44.84284" lon="4.67098">
        <ele>594.6</ele>
        <time>2019-11-09T11:12:43Z</time>
      </trkpt>
      <trkpt lat="44.84279" lon="4.67099">
        <ele>594.6</ele>
        <time>2019-11-09T11:12:45Z</time>
      </trkpt>
      <trkpt lat="44.84271" lon="4.67102">
        <ele>593.4</ele>
        <time>2019-11-09T11:12:48Z</time>
      </trkpt>
      <trkpt lat="44.84268" lon="4.67103">
        <ele>593</ele>
        <time>2019-11-09T11:12:49Z</time>
      </trkpt>
      <trkpt lat="44.84266" lon="4.67106">
        <ele>592.4</ele>
        <time>2019-11-09T11:12:50Z</time>
      </trkpt>
      <trkpt lat="44.84265" lon="4.67109">
        <ele>592</ele>
        <time>2019-11-09T11:12:51Z</time>
      </trkpt>
      <trkpt lat="44.84263" lon="4.67111">
        <ele>591.6</ele>
        <time>2019-11-09T11:12:52Z</time>
      </trkpt>
      <trkpt lat="44.84261" lon="4.67112">
        <ele>591.4</ele>
        <time>2019-11-09T11:12:53Z</time>
      </trkpt>
      <trkpt lat="44.84255" lon="4.67113">
        <ele>590.6</ele>
        <time>2019-11-09T11:12:55Z</time>
      </trkpt>
      <trkpt lat="44.84251" lon="4.67113">
        <ele>590.2</ele>
        <time>2019-11-09T11:12:56Z</time>
      </trkpt>
      <trkpt lat="44.84245" lon="4.67111">
        <ele>588.6</ele>
        <time>2019-11-09T11:12:58Z</time>
      </trkpt>
      <trkpt lat="44.84242" lon="4.67111">
        <ele>587.8</ele>
        <time>2019-11-09T11:12:59Z</time>
      </trkpt>
      <trkpt lat="44.84238" lon="4.67112">
        <ele>587</ele>
        <time>2019-11-09T11:13:00Z</time>
      </trkpt>
      <trkpt lat="44.84234" lon="4.67113">
        <ele>585.8</ele>
        <time>2019-11-09T11:13:02Z</time>
      </trkpt>
      <trkpt lat="44.84233" lon="4.67115">
        <ele>585</ele>
        <time>2019-11-09T11:13:03Z</time>
      </trkpt>
      <trkpt lat="44.8423" lon="4.67117">
        <ele>584.6</ele>
        <time>2019-11-09T11:13:04Z</time>
      </trkpt>
      <trkpt lat="44.84228" lon="4.67117">
        <ele>583.6</ele>
        <time>2019-11-09T11:13:06Z</time>
      </trkpt>
      <trkpt lat="44.84228" lon="4.67117">
        <ele>583.4</ele>
        <time>2019-11-09T11:13:07Z</time>
      </trkpt>
      <trkpt lat="44.84226" lon="4.67117">
        <ele>583</ele>
        <time>2019-11-09T11:13:09Z</time>
      </trkpt>
      <trkpt lat="44.84224" lon="4.67118">
        <ele>582.8</ele>
        <time>2019-11-09T11:13:10Z</time>
      </trkpt>
      <trkpt lat="44.84221" lon="4.67118">
        <ele>582.4</ele>
        <time>2019-11-09T11:13:11Z</time>
      </trkpt>
      <trkpt lat="44.84217" lon="4.67118">
        <ele>581.2</ele>
        <time>2019-11-09T11:13:13Z</time>
      </trkpt>
      <trkpt lat="44.84209" lon="4.67116">
        <ele>580</ele>
        <time>2019-11-09T11:13:16Z</time>
      </trkpt>
      <trkpt lat="44.84208" lon="4.67118">
        <ele>579.4</ele>
        <time>2019-11-09T11:13:18Z</time>
      </trkpt>
      <trkpt lat="44.8421" lon="4.6712">
        <ele>579</ele>
        <time>2019-11-09T11:13:19Z</time>
      </trkpt>
      <trkpt lat="44.84212" lon="4.67124">
        <ele>578.6</ele>
        <time>2019-11-09T11:13:20Z</time>
      </trkpt>
      <trkpt lat="44.84219" lon="4.67138">
        <ele>577.4</ele>
        <time>2019-11-09T11:13:23Z</time>
      </trkpt>
      <trkpt lat="44.84224" lon="4.67145">
        <ele>576.2</ele>
        <time>2019-11-09T11:13:25Z</time>
      </trkpt>
      <trkpt lat="44.8423" lon="4.67153">
        <ele>575.4</ele>
        <time>2019-11-09T11:13:27Z</time>
      </trkpt>
      <trkpt lat="44.84233" lon="4.67156">
        <ele>575.2</ele>
        <time>2019-11-09T11:13:28Z</time>
      </trkpt>
      <trkpt lat="44.84244" lon="4.67171">
        <ele>574.6</ele>
        <time>2019-11-09T11:13:32Z</time>
      </trkpt>
      <trkpt lat="44.84251" lon="4.67175">
        <ele>574</ele>
        <time>2019-11-09T11:13:34Z</time>
      </trkpt>
      <trkpt lat="44.84257" lon="4.67175">
        <ele>574</ele>
        <time>2019-11-09T11:13:36Z</time>
      </trkpt>
      <trkpt lat="44.84267" lon="4.6718">
        <ele>572.8</ele>
        <time>2019-11-09T11:13:39Z</time>
      </trkpt>
      <trkpt lat="44.8427" lon="4.6718">
        <ele>572.2</ele>
        <time>2019-11-09T11:13:40Z</time>
      </trkpt>
      <trkpt lat="44.84281" lon="4.67176">
        <ele>571.8</ele>
        <time>2019-11-09T11:13:43Z</time>
      </trkpt>
      <trkpt lat="44.84287" lon="4.67172">
        <ele>571.4</ele>
        <time>2019-11-09T11:13:45Z</time>
      </trkpt>
      <trkpt lat="44.84295" lon="4.67165">
        <ele>571</ele>
        <time>2019-11-09T11:13:49Z</time>
      </trkpt>
      <trkpt lat="44.84302" lon="4.67162">
        <ele>572</ele>
        <time>2019-11-09T11:13:55Z</time>
      </trkpt>
      <trkpt lat="44.84307" lon="4.67163">
        <ele>572.8</ele>
        <time>2019-11-09T11:13:59Z</time>
      </trkpt>
      <trkpt lat="44.84314" lon="4.67165">
        <ele>574</ele>
        <time>2019-11-09T11:14:04Z</time>
      </trkpt>
      <trkpt lat="44.84317" lon="4.67167">
        <ele>574.4</ele>
        <time>2019-11-09T11:14:07Z</time>
      </trkpt>
      <trkpt lat="44.8432" lon="4.67168">
        <ele>575</ele>
        <time>2019-11-09T11:14:10Z</time>
      </trkpt>
      <trkpt lat="44.84327" lon="4.67174">
        <ele>576.2</ele>
        <time>2019-11-09T11:14:16Z</time>
      </trkpt>
      <trkpt lat="44.84328" lon="4.67175">
        <ele>576.4</ele>
        <time>2019-11-09T11:14:17Z</time>
      </trkpt>
      <trkpt lat="44.84332" lon="4.67179">
        <ele>577.2</ele>
        <time>2019-11-09T11:14:22Z</time>
      </trkpt>
      <trkpt lat="44.84334" lon="4.67181">
        <ele>577.8</ele>
        <time>2019-11-09T11:14:24Z</time>
      </trkpt>
      <trkpt lat="44.84336" lon="4.67182">
        <ele>578.4</ele>
        <time>2019-11-09T11:14:26Z</time>
      </trkpt>
      <trkpt lat="44.8434" lon="4.67184">
        <ele>579.4</ele>
        <time>2019-11-09T11:14:29Z</time>
      </trkpt>
      <trkpt lat="44.84342" lon="4.67186">
        <ele>580</ele>
        <time>2019-11-09T11:14:31Z</time>
      </trkpt>
      <trkpt lat="44.84346" lon="4.67189">
        <ele>580.4</ele>
        <time>2019-11-09T11:14:39Z</time>
      </trkpt>
      <trkpt lat="44.84347" lon="4.6719">
        <ele>580.4</ele>
        <time>2019-11-09T11:14:40Z</time>
      </trkpt>
      <trkpt lat="44.84348" lon="4.6719">
        <ele>581</ele>
        <time>2019-11-09T11:14:44Z</time>
      </trkpt>
      <trkpt lat="44.84349" lon="4.6719">
        <ele>581.2</ele>
        <time>2019-11-09T11:14:45Z</time>
      </trkpt>
      <trkpt lat="44.84351" lon="4.67189">
        <ele>581.6</ele>
        <time>2019-11-09T11:14:48Z</time>
      </trkpt>
      <trkpt lat="44.84351" lon="4.67189">
        <ele>581.8</ele>
        <time>2019-11-09T11:14:49Z</time>
      </trkpt>
      <trkpt lat="44.84353" lon="4.67189">
        <ele>582</ele>
        <time>2019-11-09T11:14:52Z</time>
      </trkpt>
      <trkpt lat="44.84355" lon="4.67189">
        <ele>582.4</ele>
        <time>2019-11-09T11:14:56Z</time>
      </trkpt>
      <trkpt lat="44.84356" lon="4.67189">
        <ele>582.6</ele>
        <time>2019-11-09T11:14:57Z</time>
      </trkpt>
      <trkpt lat="44.84356" lon="4.6719">
        <ele>582.8</ele>
        <time>2019-11-09T11:14:58Z</time>
      </trkpt>
      <trkpt lat="44.84357" lon="4.6719">
        <ele>583</ele>
        <time>2019-11-09T11:14:59Z</time>
      </trkpt>
      <trkpt lat="44.84358" lon="4.6719">
        <ele>583.2</ele>
        <time>2019-11-09T11:15:00Z</time>
      </trkpt>
      <trkpt lat="44.84358" lon="4.6719">
        <ele>583.2</ele>
        <time>2019-11-09T11:15:01Z</time>
      </trkpt>
      <trkpt lat="44.84359" lon="4.6719">
        <ele>583.4</ele>
        <time>2019-11-09T11:15:02Z</time>
      </trkpt>
      <trkpt lat="44.8436" lon="4.67191">
        <ele>583.8</ele>
        <time>2019-11-09T11:15:04Z</time>
      </trkpt>
      <trkpt lat="44.8436" lon="4.67191">
        <ele>583.8</ele>
        <time>2019-11-09T11:15:05Z</time>
      </trkpt>
      <trkpt lat="44.8436" lon="4.67192">
        <ele>584.6</ele>
        <time>2019-11-09T11:15:12Z</time>
      </trkpt>
      <trkpt lat="44.8436" lon="4.67193">
        <ele>584.8</ele>
        <time>2019-11-09T11:15:13Z</time>
      </trkpt>
      <trkpt lat="44.84361" lon="4.67192">
        <ele>584.4</ele>
        <time>2019-11-09T11:15:19Z</time>
      </trkpt>
      <trkpt lat="44.84353" lon="4.67188">
        <ele>583.6</ele>
        <time>2019-11-09T11:15:22Z</time>
      </trkpt>
      <trkpt lat="44.84349" lon="4.67189">
        <ele>582.6</ele>
        <time>2019-11-09T11:15:24Z</time>
      </trkpt>
      <trkpt lat="44.84349" lon="4.67191">
        <ele>582</ele>
        <time>2019-11-09T11:15:25Z</time>
      </trkpt>
      <trkpt lat="44.84348" lon="4.67194">
        <ele>581.2</ele>
        <time>2019-11-09T11:15:27Z</time>
      </trkpt>
      <trkpt lat="44.84349" lon="4.67195">
        <ele>580.6</ele>
        <time>2019-11-09T11:15:30Z</time>
      </trkpt>
      <trkpt lat="44.84349" lon="4.67198">
        <ele>580.4</ele>
        <time>2019-11-09T11:15:36Z</time>
      </trkpt>
      <trkpt lat="44.84349" lon="4.67198">
        <ele>580.6</ele>
        <time>2019-11-09T11:15:46Z</time>
      </trkpt>
      <trkpt lat="44.84349" lon="4.67197">
        <ele>580.4</ele>
        <time>2019-11-09T11:15:53Z</time>
      </trkpt>
      <trkpt lat="44.84349" lon="4.67197">
        <ele>580.4</ele>
        <time>2019-11-09T11:15:54Z</time>
      </trkpt>
      <trkpt lat="44.84349" lon="4.67196">
        <ele>580.2</ele>
        <time>2019-11-09T11:16:01Z</time>
      </trkpt>
      <trkpt lat="44.84349" lon="4.67193">
        <ele>580.6</ele>
        <time>2019-11-09T11:16:05Z</time>
      </trkpt>
      <trkpt lat="44.84349" lon="4.67192">
        <ele>580.6</ele>
        <time>2019-11-09T11:16:06Z</time>
      </trkpt>
      <trkpt lat="44.84349" lon="4.67191">
        <ele>580.8</ele>
        <time>2019-11-09T11:16:07Z</time>
      </trkpt>
      <trkpt lat="44.8435" lon="4.67191">
        <ele>581</ele>
        <time>2019-11-09T11:16:08Z</time>
      </trkpt>
      <trkpt lat="44.84352" lon="4.6719">
        <ele>581.8</ele>
        <time>2019-11-09T11:16:14Z</time>
      </trkpt>
      <trkpt lat="44.84353" lon="4.6719">
        <ele>582</ele>
        <time>2019-11-09T11:16:17Z</time>
      </trkpt>
      <trkpt lat="44.84353" lon="4.6719">
        <ele>582</ele>
        <time>2019-11-09T11:16:18Z</time>
      </trkpt>
      <trkpt lat="44.84353" lon="4.6719">
        <ele>582.2</ele>
        <time>2019-11-09T11:16:19Z</time>
      </trkpt>
      <trkpt lat="44.84354" lon="4.6719">
        <ele>582.2</ele>
        <time>2019-11-09T11:16:20Z</time>
      </trkpt>
      <trkpt lat="44.84354" lon="4.6719">
        <ele>582.4</ele>
        <time>2019-11-09T11:16:21Z</time>
      </trkpt>
      <trkpt lat="44.84355" lon="4.6719">
        <ele>582.6</ele>
        <time>2019-11-09T11:16:22Z</time>
      </trkpt>
      <trkpt lat="44.84356" lon="4.6719">
        <ele>582.8</ele>
        <time>2019-11-09T11:16:23Z</time>
      </trkpt>
      <trkpt lat="44.84357" lon="4.67192">
        <ele>583</ele>
        <time>2019-11-09T11:16:27Z</time>
      </trkpt>
      <trkpt lat="44.84358" lon="4.67192">
        <ele>583.2</ele>
        <time>2019-11-09T11:16:28Z</time>
      </trkpt>
      <trkpt lat="44.84361" lon="4.67193">
        <ele>584</ele>
        <time>2019-11-09T11:16:32Z</time>
      </trkpt>
      <trkpt lat="44.84361" lon="4.67194">
        <ele>584.2</ele>
        <time>2019-11-09T11:16:33Z</time>
      </trkpt>
      <trkpt lat="44.84362" lon="4.67194">
        <ele>584.2</ele>
        <time>2019-11-09T11:16:34Z</time>
      </trkpt>
      <trkpt lat="44.84364" lon="4.67195">
        <ele>584.8</ele>
        <time>2019-11-09T11:16:37Z</time>
      </trkpt>
      <trkpt lat="44.84366" lon="4.67196">
        <ele>585.2</ele>
        <time>2019-11-09T11:16:40Z</time>
      </trkpt>
      <trkpt lat="44.84367" lon="4.67196">
        <ele>585.2</ele>
        <time>2019-11-09T11:16:41Z</time>
      </trkpt>
      <trkpt lat="44.84371" lon="4.67198">
        <ele>586.6</ele>
        <time>2019-11-09T11:16:47Z</time>
      </trkpt>
      <trkpt lat="44.84372" lon="4.67198">
        <ele>586.6</ele>
        <time>2019-11-09T11:16:48Z</time>
      </trkpt>
      <trkpt lat="44.84378" lon="4.672">
        <ele>587.4</ele>
        <time>2019-11-09T11:16:56Z</time>
      </trkpt>
      <trkpt lat="44.84378" lon="4.67201">
        <ele>587.8</ele>
        <time>2019-11-09T11:16:57Z</time>
      </trkpt>
      <trkpt lat="44.84379" lon="4.67201">
        <ele>588.2</ele>
        <time>2019-11-09T11:17:00Z</time>
      </trkpt>
      <trkpt lat="44.84381" lon="4.67202">
        <ele>588.6</ele>
        <time>2019-11-09T11:17:02Z</time>
      </trkpt>
      <trkpt lat="44.84382" lon="4.67202">
        <ele>588.8</ele>
        <time>2019-11-09T11:17:03Z</time>
      </trkpt>
      <trkpt lat="44.84391" lon="4.67202">
        <ele>589.6</ele>
        <time>2019-11-09T11:17:12Z</time>
      </trkpt>
      <trkpt lat="44.84393" lon="4.67202">
        <ele>590</ele>
        <time>2019-11-09T11:17:15Z</time>
      </trkpt>
      <trkpt lat="44.84396" lon="4.67203">
        <ele>590.6</ele>
        <time>2019-11-09T11:17:19Z</time>
      </trkpt>
      <trkpt lat="44.84399" lon="4.67203">
        <ele>591</ele>
        <time>2019-11-09T11:17:22Z</time>
      </trkpt>
      <trkpt lat="44.84405" lon="4.67204">
        <ele>592</ele>
        <time>2019-11-09T11:17:28Z</time>
      </trkpt>
      <trkpt lat="44.84405" lon="4.67204">
        <ele>592.2</ele>
        <time>2019-11-09T11:17:29Z</time>
      </trkpt>
      <trkpt lat="44.84408" lon="4.67205">
        <ele>592.4</ele>
        <time>2019-11-09T11:17:32Z</time>
      </trkpt>
      <trkpt lat="44.8441" lon="4.67204">
        <ele>593</ele>
        <time>2019-11-09T11:17:35Z</time>
      </trkpt>
      <trkpt lat="44.84412" lon="4.67204">
        <ele>593.2</ele>
        <time>2019-11-09T11:17:37Z</time>
      </trkpt>
      <trkpt lat="44.84414" lon="4.67205">
        <ele>593.4</ele>
        <time>2019-11-09T11:17:40Z</time>
      </trkpt>
      <trkpt lat="44.84416" lon="4.67206">
        <ele>593.8</ele>
        <time>2019-11-09T11:17:43Z</time>
      </trkpt>
      <trkpt lat="44.84419" lon="4.67206">
        <ele>594.4</ele>
        <time>2019-11-09T11:17:46Z</time>
      </trkpt>
      <trkpt lat="44.84423" lon="4.67206">
        <ele>595.4</ele>
        <time>2019-11-09T11:17:52Z</time>
      </trkpt>
      <trkpt lat="44.84428" lon="4.67208">
        <ele>596.2</ele>
        <time>2019-11-09T11:17:58Z</time>
      </trkpt>
      <trkpt lat="44.8443" lon="4.67208">
        <ele>596.6</ele>
        <time>2019-11-09T11:18:00Z</time>
      </trkpt>
      <trkpt lat="44.8443" lon="4.67208">
        <ele>597</ele>
        <time>2019-11-09T11:18:01Z</time>
      </trkpt>
      <trkpt lat="44.84435" lon="4.67208">
        <ele>597.8</ele>
        <time>2019-11-09T11:18:06Z</time>
      </trkpt>
      <trkpt lat="44.84437" lon="4.67208">
        <ele>598.2</ele>
        <time>2019-11-09T11:18:10Z</time>
      </trkpt>
      <trkpt lat="44.8444" lon="4.6721">
        <ele>598.4</ele>
        <time>2019-11-09T11:18:13Z</time>
      </trkpt>
      <trkpt lat="44.84446" lon="4.67212">
        <ele>598.8</ele>
        <time>2019-11-09T11:18:18Z</time>
      </trkpt>
      <trkpt lat="44.84448" lon="4.67213">
        <ele>599</ele>
        <time>2019-11-09T11:18:19Z</time>
      </trkpt>
      <trkpt lat="44.84452" lon="4.67215">
        <ele>599.6</ele>
        <time>2019-11-09T11:18:23Z</time>
      </trkpt>
      <trkpt lat="44.84454" lon="4.67216">
        <ele>600</ele>
        <time>2019-11-09T11:18:25Z</time>
      </trkpt>
      <trkpt lat="44.84458" lon="4.67217">
        <ele>600.6</ele>
        <time>2019-11-09T11:18:29Z</time>
      </trkpt>
      <trkpt lat="44.84461" lon="4.67217">
        <ele>601.2</ele>
        <time>2019-11-09T11:18:33Z</time>
      </trkpt>
      <trkpt lat="44.84464" lon="4.67219">
        <ele>601.8</ele>
        <time>2019-11-09T11:18:37Z</time>
      </trkpt>
      <trkpt lat="44.84465" lon="4.67217">
        <ele>601.8</ele>
        <time>2019-11-09T11:18:42Z</time>
      </trkpt>
      <trkpt lat="44.84466" lon="4.67217">
        <ele>601.8</ele>
        <time>2019-11-09T11:18:43Z</time>
      </trkpt>
      <trkpt lat="44.84468" lon="4.67217">
        <ele>602.2</ele>
        <time>2019-11-09T11:18:46Z</time>
      </trkpt>
      <trkpt lat="44.8447" lon="4.67218">
        <ele>602.2</ele>
        <time>2019-11-09T11:18:50Z</time>
      </trkpt>
      <trkpt lat="44.84474" lon="4.67218">
        <ele>602.4</ele>
        <time>2019-11-09T11:18:56Z</time>
      </trkpt>
      <trkpt lat="44.8448" lon="4.6722">
        <ele>602.8</ele>
        <time>2019-11-09T11:19:02Z</time>
      </trkpt>
      <trkpt lat="44.84487" lon="4.67223">
        <ele>603.2</ele>
        <time>2019-11-09T11:19:07Z</time>
      </trkpt>
      <trkpt lat="44.84491" lon="4.67225">
        <ele>603.4</ele>
        <time>2019-11-09T11:19:10Z</time>
      </trkpt>
      <trkpt lat="44.84499" lon="4.67228">
        <ele>604.4</ele>
        <time>2019-11-09T11:19:16Z</time>
      </trkpt>
      <trkpt lat="44.845" lon="4.67228">
        <ele>604.6</ele>
        <time>2019-11-09T11:19:17Z</time>
      </trkpt>
      <trkpt lat="44.84506" lon="4.67232">
        <ele>605.4</ele>
        <time>2019-11-09T11:19:21Z</time>
      </trkpt>
      <trkpt lat="44.84509" lon="4.67235">
        <ele>605.8</ele>
        <time>2019-11-09T11:19:24Z</time>
      </trkpt>
      <trkpt lat="44.84514" lon="4.67238">
        <ele>606.4</ele>
        <time>2019-11-09T11:19:30Z</time>
      </trkpt>
      <trkpt lat="44.84515" lon="4.67238">
        <ele>606.4</ele>
        <time>2019-11-09T11:19:31Z</time>
      </trkpt>
      <trkpt lat="44.84516" lon="4.67238">
        <ele>606.6</ele>
        <time>2019-11-09T11:19:32Z</time>
      </trkpt>
      <trkpt lat="44.84525" lon="4.67242">
        <ele>607</ele>
        <time>2019-11-09T11:19:38Z</time>
      </trkpt>
      <trkpt lat="44.8453" lon="4.67243">
        <ele>607.6</ele>
        <time>2019-11-09T11:19:42Z</time>
      </trkpt>
      <trkpt lat="44.84534" lon="4.67244">
        <ele>607.8</ele>
        <time>2019-11-09T11:19:45Z</time>
      </trkpt>
      <trkpt lat="44.84542" lon="4.67245">
        <ele>608.6</ele>
        <time>2019-11-09T11:19:51Z</time>
      </trkpt>
      <trkpt lat="44.84543" lon="4.67245">
        <ele>608.8</ele>
        <time>2019-11-09T11:19:52Z</time>
      </trkpt>
      <trkpt lat="44.8455" lon="4.67247">
        <ele>609.6</ele>
        <time>2019-11-09T11:19:58Z</time>
      </trkpt>
      <trkpt lat="44.84551" lon="4.67247">
        <ele>610</ele>
        <time>2019-11-09T11:19:59Z</time>
      </trkpt>
      <trkpt lat="44.84555" lon="4.67246">
        <ele>611</ele>
        <time>2019-11-09T11:20:03Z</time>
      </trkpt>
      <trkpt lat="44.84556" lon="4.67245">
        <ele>611.2</ele>
        <time>2019-11-09T11:20:04Z</time>
      </trkpt>
      <trkpt lat="44.8456" lon="4.67244">
        <ele>612</ele>
        <time>2019-11-09T11:20:08Z</time>
      </trkpt>
      <trkpt lat="44.84563" lon="4.67245">
        <ele>612.2</ele>
        <time>2019-11-09T11:20:11Z</time>
      </trkpt>
      <trkpt lat="44.84566" lon="4.67245">
        <ele>612.8</ele>
        <time>2019-11-09T11:20:15Z</time>
      </trkpt>
      <trkpt lat="44.84566" lon="4.67244">
        <ele>613.2</ele>
        <time>2019-11-09T11:20:17Z</time>
      </trkpt>
      <trkpt lat="44.84567" lon="4.67244">
        <ele>613.4</ele>
        <time>2019-11-09T11:20:18Z</time>
      </trkpt>
      <trkpt lat="44.84575" lon="4.67244">
        <ele>613.8</ele>
        <time>2019-11-09T11:20:24Z</time>
      </trkpt>
      <trkpt lat="44.84578" lon="4.67244">
        <ele>614.4</ele>
        <time>2019-11-09T11:20:27Z</time>
      </trkpt>
      <trkpt lat="44.84582" lon="4.67244">
        <ele>615.2</ele>
        <time>2019-11-09T11:20:31Z</time>
      </trkpt>
      <trkpt lat="44.84584" lon="4.67243">
        <ele>615.4</ele>
        <time>2019-11-09T11:20:33Z</time>
      </trkpt>
      <trkpt lat="44.8459" lon="4.6724">
        <ele>616.4</ele>
        <time>2019-11-09T11:20:38Z</time>
      </trkpt>
      <trkpt lat="44.84592" lon="4.6724">
        <ele>617</ele>
        <time>2019-11-09T11:20:40Z</time>
      </trkpt>
      <trkpt lat="44.84595" lon="4.67241">
        <ele>617.8</ele>
        <time>2019-11-09T11:20:43Z</time>
      </trkpt>
      <trkpt lat="44.84596" lon="4.67241">
        <ele>618</ele>
        <time>2019-11-09T11:20:44Z</time>
      </trkpt>
      <trkpt lat="44.84598" lon="4.67241">
        <ele>618.2</ele>
        <time>2019-11-09T11:20:46Z</time>
      </trkpt>
      <trkpt lat="44.84604" lon="4.67241">
        <ele>618.6</ele>
        <time>2019-11-09T11:20:51Z</time>
      </trkpt>
      <trkpt lat="44.84605" lon="4.67241">
        <ele>618.8</ele>
        <time>2019-11-09T11:20:52Z</time>
      </trkpt>
      <trkpt lat="44.84608" lon="4.67241">
        <ele>619.4</ele>
        <time>2019-11-09T11:20:57Z</time>
      </trkpt>
      <trkpt lat="44.84611" lon="4.67241">
        <ele>619.4</ele>
        <time>2019-11-09T11:21:00Z</time>
      </trkpt>
      <trkpt lat="44.84616" lon="4.67244">
        <ele>619.6</ele>
        <time>2019-11-09T11:21:04Z</time>
      </trkpt>
      <trkpt lat="44.84619" lon="4.67243">
        <ele>620</ele>
        <time>2019-11-09T11:21:07Z</time>
      </trkpt>
      <trkpt lat="44.84621" lon="4.67245">
        <ele>620.4</ele>
        <time>2019-11-09T11:21:12Z</time>
      </trkpt>
      <trkpt lat="44.84626" lon="4.67247">
        <ele>621</ele>
        <time>2019-11-09T11:21:18Z</time>
      </trkpt>
      <trkpt lat="44.84628" lon="4.67247">
        <ele>621</ele>
        <time>2019-11-09T11:21:19Z</time>
      </trkpt>
      <trkpt lat="44.84632" lon="4.67249">
        <ele>621.6</ele>
        <time>2019-11-09T11:21:24Z</time>
      </trkpt>
      <trkpt lat="44.84634" lon="4.67249">
        <ele>622</ele>
        <time>2019-11-09T11:21:26Z</time>
      </trkpt>
      <trkpt lat="44.84638" lon="4.6725">
        <ele>622.6</ele>
        <time>2019-11-09T11:21:29Z</time>
      </trkpt>
      <trkpt lat="44.84642" lon="4.67251">
        <ele>623</ele>
        <time>2019-11-09T11:21:31Z</time>
      </trkpt>
      <trkpt lat="44.84643" lon="4.67251">
        <ele>623.2</ele>
        <time>2019-11-09T11:21:32Z</time>
      </trkpt>
      <trkpt lat="44.84651" lon="4.67253">
        <ele>624.4</ele>
        <time>2019-11-09T11:21:38Z</time>
      </trkpt>
      <trkpt lat="44.84653" lon="4.67254">
        <ele>624.6</ele>
        <time>2019-11-09T11:21:39Z</time>
      </trkpt>
      <trkpt lat="44.84661" lon="4.67261">
        <ele>625.4</ele>
        <time>2019-11-09T11:21:45Z</time>
      </trkpt>
      <trkpt lat="44.84663" lon="4.67262">
        <ele>625.4</ele>
        <time>2019-11-09T11:21:46Z</time>
      </trkpt>
      <trkpt lat="44.8467" lon="4.67272">
        <ele>626</ele>
        <time>2019-11-09T11:21:52Z</time>
      </trkpt>
      <trkpt lat="44.84671" lon="4.67274">
        <ele>626.2</ele>
        <time>2019-11-09T11:21:53Z</time>
      </trkpt>
      <trkpt lat="44.8468" lon="4.67282">
        <ele>626.4</ele>
        <time>2019-11-09T11:21:59Z</time>
      </trkpt>
      <trkpt lat="44.84688" lon="4.67289">
        <ele>626.4</ele>
        <time>2019-11-09T11:22:05Z</time>
      </trkpt>
      <trkpt lat="44.84694" lon="4.67294">
        <ele>626.4</ele>
        <time>2019-11-09T11:22:09Z</time>
      </trkpt>
      <trkpt lat="44.84701" lon="4.67299">
        <ele>626.8</ele>
        <time>2019-11-09T11:22:13Z</time>
      </trkpt>
      <trkpt lat="44.84711" lon="4.67311">
        <ele>627.4</ele>
        <time>2019-11-09T11:22:20Z</time>
      </trkpt>
      <trkpt lat="44.84712" lon="4.67312">
        <ele>627.6</ele>
        <time>2019-11-09T11:22:21Z</time>
      </trkpt>
      <trkpt lat="44.84717" lon="4.67319">
        <ele>627.8</ele>
        <time>2019-11-09T11:22:26Z</time>
      </trkpt>
      <trkpt lat="44.84722" lon="4.67325">
        <ele>628.2</ele>
        <time>2019-11-09T11:22:30Z</time>
      </trkpt>
      <trkpt lat="44.84724" lon="4.67327">
        <ele>628.6</ele>
        <time>2019-11-09T11:22:32Z</time>
      </trkpt>
      <trkpt lat="44.8473" lon="4.67331">
        <ele>629.2</ele>
        <time>2019-11-09T11:22:36Z</time>
      </trkpt>
      <trkpt lat="44.84733" lon="4.67334">
        <ele>629.8</ele>
        <time>2019-11-09T11:22:39Z</time>
      </trkpt>
      <trkpt lat="44.84737" lon="4.67338">
        <ele>630.6</ele>
        <time>2019-11-09T11:22:43Z</time>
      </trkpt>
      <trkpt lat="44.84739" lon="4.67341">
        <ele>630.8</ele>
        <time>2019-11-09T11:22:45Z</time>
      </trkpt>
      <trkpt lat="44.84748" lon="4.67348">
        <ele>631</ele>
        <time>2019-11-09T11:22:50Z</time>
      </trkpt>
      <trkpt lat="44.84759" lon="4.67358">
        <ele>631.2</ele>
        <time>2019-11-09T11:22:59Z</time>
      </trkpt>
      <trkpt lat="44.84765" lon="4.67362">
        <ele>632</ele>
        <time>2019-11-09T11:23:04Z</time>
      </trkpt>
      <trkpt lat="44.84769" lon="4.67364">
        <ele>632.4</ele>
        <time>2019-11-09T11:23:07Z</time>
      </trkpt>
      <trkpt lat="44.84775" lon="4.67367">
        <ele>633</ele>
        <time>2019-11-09T11:23:12Z</time>
      </trkpt>
      <trkpt lat="44.84778" lon="4.67368">
        <ele>633.2</ele>
        <time>2019-11-09T11:23:14Z</time>
      </trkpt>
      <trkpt lat="44.84786" lon="4.6737">
        <ele>634.2</ele>
        <time>2019-11-09T11:23:21Z</time>
      </trkpt>
      <trkpt lat="44.84795" lon="4.67374">
        <ele>635</ele>
        <time>2019-11-09T11:23:29Z</time>
      </trkpt>
      <trkpt lat="44.84797" lon="4.67375">
        <ele>635.4</ele>
        <time>2019-11-09T11:23:31Z</time>
      </trkpt>
      <trkpt lat="44.84802" lon="4.67376">
        <ele>636.2</ele>
        <time>2019-11-09T11:23:36Z</time>
      </trkpt>
      <trkpt lat="44.84804" lon="4.67376">
        <ele>636.4</ele>
        <time>2019-11-09T11:23:38Z</time>
      </trkpt>
      <trkpt lat="44.8481" lon="4.67378">
        <ele>636.8</ele>
        <time>2019-11-09T11:23:43Z</time>
      </trkpt>
      <trkpt lat="44.84815" lon="4.67381">
        <ele>637.8</ele>
        <time>2019-11-09T11:23:48Z</time>
      </trkpt>
      <trkpt lat="44.8482" lon="4.67382">
        <ele>638.2</ele>
        <time>2019-11-09T11:23:52Z</time>
      </trkpt>
      <trkpt lat="44.84825" lon="4.67382">
        <ele>638.8</ele>
        <time>2019-11-09T11:23:56Z</time>
      </trkpt>
      <trkpt lat="44.84827" lon="4.67382">
        <ele>639</ele>
        <time>2019-11-09T11:23:58Z</time>
      </trkpt>
      <trkpt lat="44.84829" lon="4.67383">
        <ele>639.6</ele>
        <time>2019-11-09T11:24:04Z</time>
      </trkpt>
      <trkpt lat="44.8483" lon="4.67384">
        <ele>639.6</ele>
        <time>2019-11-09T11:24:05Z</time>
      </trkpt>
      <trkpt lat="44.84834" lon="4.67386">
        <ele>639.8</ele>
        <time>2019-11-09T11:24:08Z</time>
      </trkpt>
      <trkpt lat="44.84837" lon="4.67388">
        <ele>640.4</ele>
        <time>2019-11-09T11:24:12Z</time>
      </trkpt>
      <trkpt lat="44.8484" lon="4.6739">
        <ele>640.6</ele>
        <time>2019-11-09T11:24:15Z</time>
      </trkpt>
      <trkpt lat="44.84843" lon="4.6739">
        <ele>641</ele>
        <time>2019-11-09T11:24:17Z</time>
      </trkpt>
      <trkpt lat="44.84846" lon="4.67392">
        <ele>641.4</ele>
        <time>2019-11-09T11:24:20Z</time>
      </trkpt>
      <trkpt lat="44.84849" lon="4.67392">
        <ele>642</ele>
        <time>2019-11-09T11:24:22Z</time>
      </trkpt>
      <trkpt lat="44.84853" lon="4.67394">
        <ele>642.8</ele>
        <time>2019-11-09T11:24:26Z</time>
      </trkpt>
      <trkpt lat="44.84856" lon="4.67397">
        <ele>643.2</ele>
        <time>2019-11-09T11:24:29Z</time>
      </trkpt>
      <trkpt lat="44.8486" lon="4.67399">
        <ele>643.6</ele>
        <time>2019-11-09T11:24:33Z</time>
      </trkpt>
      <trkpt lat="44.84869" lon="4.67404">
        <ele>644.2</ele>
        <time>2019-11-09T11:24:40Z</time>
      </trkpt>
      <trkpt lat="44.8487" lon="4.67405">
        <ele>644.2</ele>
        <time>2019-11-09T11:24:41Z</time>
      </trkpt>
      <trkpt lat="44.84874" lon="4.67408">
        <ele>644</ele>
        <time>2019-11-09T11:24:43Z</time>
      </trkpt>
      <trkpt lat="44.84879" lon="4.67413">
        <ele>643.8</ele>
        <time>2019-11-09T11:24:47Z</time>
      </trkpt>
      <trkpt lat="44.84885" lon="4.67417">
        <ele>643.2</ele>
        <time>2019-11-09T11:24:51Z</time>
      </trkpt>
      <trkpt lat="44.84894" lon="4.67422">
        <ele>643.6</ele>
        <time>2019-11-09T11:24:58Z</time>
      </trkpt>
      <trkpt lat="44.84902" lon="4.67429">
        <ele>643.8</ele>
        <time>2019-11-09T11:25:05Z</time>
      </trkpt>
      <trkpt lat="44.84912" lon="4.67441">
        <ele>643.2</ele>
        <time>2019-11-09T11:25:11Z</time>
      </trkpt>
      <trkpt lat="44.84913" lon="4.67444">
        <ele>643.2</ele>
        <time>2019-11-09T11:25:13Z</time>
      </trkpt>
      <trkpt lat="44.84915" lon="4.67445">
        <ele>643.2</ele>
        <time>2019-11-09T11:25:16Z</time>
      </trkpt>
      <trkpt lat="44.84918" lon="4.67446">
        <ele>643.8</ele>
        <time>2019-11-09T11:25:20Z</time>
      </trkpt>
      <trkpt lat="44.84919" lon="4.67446">
        <ele>643.8</ele>
        <time>2019-11-09T11:25:22Z</time>
      </trkpt>
      <trkpt lat="44.8492" lon="4.67443">
        <ele>643.4</ele>
        <time>2019-11-09T11:25:31Z</time>
      </trkpt>
      <trkpt lat="44.84925" lon="4.67443">
        <ele>643.2</ele>
        <time>2019-11-09T11:25:41Z</time>
      </trkpt>
      <trkpt lat="44.84925" lon="4.67443">
        <ele>643.2</ele>
        <time>2019-11-09T11:25:45Z</time>
      </trkpt>
      <trkpt lat="44.84923" lon="4.67443">
        <ele>642.8</ele>
        <time>2019-11-09T11:25:49Z</time>
      </trkpt>
      <trkpt lat="44.84922" lon="4.67443">
        <ele>642.8</ele>
        <time>2019-11-09T11:25:51Z</time>
      </trkpt>
      <trkpt lat="44.84922" lon="4.67442">
        <ele>642.4</ele>
        <time>2019-11-09T11:26:01Z</time>
      </trkpt>
      <trkpt lat="44.84922" lon="4.67442">
        <ele>642.4</ele>
        <time>2019-11-09T11:26:06Z</time>
      </trkpt>
      <trkpt lat="44.84921" lon="4.67442">
        <ele>642.4</ele>
        <time>2019-11-09T11:26:09Z</time>
      </trkpt>
      <trkpt lat="44.84919" lon="4.67442">
        <ele>643</ele>
        <time>2019-11-09T11:26:16Z</time>
      </trkpt>
      <trkpt lat="44.84921" lon="4.67441">
        <ele>643.2</ele>
        <time>2019-11-09T11:26:23Z</time>
      </trkpt>
      <trkpt lat="44.84921" lon="4.67441">
        <ele>643</ele>
        <time>2019-11-09T11:26:26Z</time>
      </trkpt>
      <trkpt lat="44.84921" lon="4.67442">
        <ele>643</ele>
        <time>2019-11-09T11:26:33Z</time>
      </trkpt>
      <trkpt lat="44.84921" lon="4.67441">
        <ele>643.4</ele>
        <time>2019-11-09T11:26:44Z</time>
      </trkpt>
      <trkpt lat="44.8492" lon="4.6744">
        <ele>643.2</ele>
        <time>2019-11-09T11:26:53Z</time>
      </trkpt>
      <trkpt lat="44.8492" lon="4.6744">
        <ele>643.2</ele>
        <time>2019-11-09T11:26:55Z</time>
      </trkpt>
      <trkpt lat="44.84921" lon="4.67441">
        <ele>643</ele>
        <time>2019-11-09T11:27:07Z</time>
      </trkpt>
      <trkpt lat="44.84921" lon="4.67442">
        <ele>643.2</ele>
        <time>2019-11-09T11:27:17Z</time>
      </trkpt>
      <trkpt lat="44.84922" lon="4.67442">
        <ele>643</ele>
        <time>2019-11-09T11:27:21Z</time>
      </trkpt>
      <trkpt lat="44.84922" lon="4.67442">
        <ele>643</ele>
        <time>2019-11-09T11:27:24Z</time>
      </trkpt>
      <trkpt lat="44.84923" lon="4.67443">
        <ele>643</ele>
        <time>2019-11-09T11:27:28Z</time>
      </trkpt>
      <trkpt lat="44.84924" lon="4.67442">
        <ele>643</ele>
        <time>2019-11-09T11:27:32Z</time>
      </trkpt>
      <trkpt lat="44.84921" lon="4.67438">
        <ele>643</ele>
        <time>2019-11-09T11:27:41Z</time>
      </trkpt>
      <trkpt lat="44.84921" lon="4.67438">
        <ele>643</ele>
        <time>2019-11-09T11:27:43Z</time>
      </trkpt>
      <trkpt lat="44.8492" lon="4.67438">
        <ele>643</ele>
        <time>2019-11-09T11:27:53Z</time>
      </trkpt>
      <trkpt lat="44.84918" lon="4.67439">
        <ele>643</ele>
        <time>2019-11-09T11:27:59Z</time>
      </trkpt>
      <trkpt lat="44.84919" lon="4.6744">
        <ele>643</ele>
        <time>2019-11-09T11:28:04Z</time>
      </trkpt>
      <trkpt lat="44.8492" lon="4.6744">
        <ele>643</ele>
        <time>2019-11-09T11:28:11Z</time>
      </trkpt>
      <trkpt lat="44.84919" lon="4.67441">
        <ele>643</ele>
        <time>2019-11-09T11:28:18Z</time>
      </trkpt>
      <trkpt lat="44.84919" lon="4.67441">
        <ele>643</ele>
        <time>2019-11-09T11:28:20Z</time>
      </trkpt>
      <trkpt lat="44.8492" lon="4.67441">
        <ele>643</ele>
        <time>2019-11-09T11:28:36Z</time>
      </trkpt>
      <trkpt lat="44.8492" lon="4.6744">
        <ele>643</ele>
        <time>2019-11-09T11:28:45Z</time>
      </trkpt>
      <trkpt lat="44.84922" lon="4.67444">
        <ele>643</ele>
        <time>2019-11-09T11:28:55Z</time>
      </trkpt>
      <trkpt lat="44.84924" lon="4.67447">
        <ele>643</ele>
        <time>2019-11-09T11:28:57Z</time>
      </trkpt>
      <trkpt lat="44.84928" lon="4.6745">
        <ele>644</ele>
        <time>2019-11-09T11:29:01Z</time>
      </trkpt>
      <trkpt lat="44.8493" lon="4.6745">
        <ele>644.2</ele>
        <time>2019-11-09T11:29:02Z</time>
      </trkpt>
      <trkpt lat="44.84931" lon="4.67452">
        <ele>644.2</ele>
        <time>2019-11-09T11:29:03Z</time>
      </trkpt>
      <trkpt lat="44.84938" lon="4.67461">
        <ele>644.8</ele>
        <time>2019-11-09T11:29:10Z</time>
      </trkpt>
      <trkpt lat="44.84941" lon="4.67464">
        <ele>645.2</ele>
        <time>2019-11-09T11:29:13Z</time>
      </trkpt>
      <trkpt lat="44.84943" lon="4.67465">
        <ele>645.4</ele>
        <time>2019-11-09T11:29:14Z</time>
      </trkpt>
      <trkpt lat="44.84948" lon="4.6747">
        <ele>645.8</ele>
        <time>2019-11-09T11:29:18Z</time>
      </trkpt>
      <trkpt lat="44.84953" lon="4.67476">
        <ele>646.4</ele>
        <time>2019-11-09T11:29:22Z</time>
      </trkpt>
      <trkpt lat="44.84955" lon="4.67478">
        <ele>646.8</ele>
        <time>2019-11-09T11:29:24Z</time>
      </trkpt>
      <trkpt lat="44.84956" lon="4.6748">
        <ele>647</ele>
        <time>2019-11-09T11:29:25Z</time>
      </trkpt>
      <trkpt lat="44.84958" lon="4.67482">
        <ele>647.2</ele>
        <time>2019-11-09T11:29:27Z</time>
      </trkpt>
      <trkpt lat="44.84961" lon="4.67485">
        <ele>647.4</ele>
        <time>2019-11-09T11:29:29Z</time>
      </trkpt>
      <trkpt lat="44.84963" lon="4.67487">
        <ele>647.6</ele>
        <time>2019-11-09T11:29:30Z</time>
      </trkpt>
      <trkpt lat="44.84964" lon="4.67488">
        <ele>647.8</ele>
        <time>2019-11-09T11:29:31Z</time>
      </trkpt>
      <trkpt lat="44.84976" lon="4.675">
        <ele>648.6</ele>
        <time>2019-11-09T11:29:39Z</time>
      </trkpt>
      <trkpt lat="44.84978" lon="4.67503">
        <ele>648.8</ele>
        <time>2019-11-09T11:29:41Z</time>
      </trkpt>
      <trkpt lat="44.84987" lon="4.67512">
        <ele>649.8</ele>
        <time>2019-11-09T11:29:47Z</time>
      </trkpt>
      <trkpt lat="44.84988" lon="4.67514">
        <ele>650</ele>
        <time>2019-11-09T11:29:48Z</time>
      </trkpt>
      <trkpt lat="44.84994" lon="4.67521">
        <ele>650.8</ele>
        <time>2019-11-09T11:29:52Z</time>
      </trkpt>
      <trkpt lat="44.84995" lon="4.67523">
        <ele>651</ele>
        <time>2019-11-09T11:29:53Z</time>
      </trkpt>
      <trkpt lat="44.84997" lon="4.67527">
        <ele>651.2</ele>
        <time>2019-11-09T11:29:55Z</time>
      </trkpt>
      <trkpt lat="44.84999" lon="4.67529">
        <ele>651.4</ele>
        <time>2019-11-09T11:29:56Z</time>
      </trkpt>
      <trkpt lat="44.85006" lon="4.67544">
        <ele>652</ele>
        <time>2019-11-09T11:30:03Z</time>
      </trkpt>
      <trkpt lat="44.85007" lon="4.67546">
        <ele>652</ele>
        <time>2019-11-09T11:30:04Z</time>
      </trkpt>
      <trkpt lat="44.8501" lon="4.67555">
        <ele>652.4</ele>
        <time>2019-11-09T11:30:08Z</time>
      </trkpt>
      <trkpt lat="44.85014" lon="4.67566">
        <ele>653.2</ele>
        <time>2019-11-09T11:30:13Z</time>
      </trkpt>
      <trkpt lat="44.85015" lon="4.6757">
        <ele>653.2</ele>
        <time>2019-11-09T11:30:15Z</time>
      </trkpt>
      <trkpt lat="44.8502" lon="4.67581">
        <ele>654.2</ele>
        <time>2019-11-09T11:30:20Z</time>
      </trkpt>
      <trkpt lat="44.85023" lon="4.67588">
        <ele>654.8</ele>
        <time>2019-11-09T11:30:24Z</time>
      </trkpt>
      <trkpt lat="44.85025" lon="4.67599">
        <ele>655.4</ele>
        <time>2019-11-09T11:30:29Z</time>
      </trkpt>
      <trkpt lat="44.85026" lon="4.67606">
        <ele>655.8</ele>
        <time>2019-11-09T11:30:32Z</time>
      </trkpt>
      <trkpt lat="44.85029" lon="4.6762">
        <ele>656.6</ele>
        <time>2019-11-09T11:30:39Z</time>
      </trkpt>
      <trkpt lat="44.85031" lon="4.67626">
        <ele>657</ele>
        <time>2019-11-09T11:30:42Z</time>
      </trkpt>
      <trkpt lat="44.85033" lon="4.67634">
        <ele>657.6</ele>
        <time>2019-11-09T11:30:46Z</time>
      </trkpt>
      <trkpt lat="44.85035" lon="4.6764">
        <ele>658.4</ele>
        <time>2019-11-09T11:30:49Z</time>
      </trkpt>
      <trkpt lat="44.85036" lon="4.67644">
        <ele>658.8</ele>
        <time>2019-11-09T11:30:51Z</time>
      </trkpt>
      <trkpt lat="44.85039" lon="4.67657">
        <ele>659.2</ele>
        <time>2019-11-09T11:30:57Z</time>
      </trkpt>
      <trkpt lat="44.85043" lon="4.67677">
        <ele>659.8</ele>
        <time>2019-11-09T11:31:06Z</time>
      </trkpt>
      <trkpt lat="44.85044" lon="4.6768">
        <ele>659.8</ele>
        <time>2019-11-09T11:31:07Z</time>
      </trkpt>
      <trkpt lat="44.85048" lon="4.67694">
        <ele>660.6</ele>
        <time>2019-11-09T11:31:14Z</time>
      </trkpt>
      <trkpt lat="44.8505" lon="4.67704">
        <ele>661</ele>
        <time>2019-11-09T11:31:18Z</time>
      </trkpt>
      <trkpt lat="44.85053" lon="4.67715">
        <ele>661.4</ele>
        <time>2019-11-09T11:31:23Z</time>
      </trkpt>
      <trkpt lat="44.85057" lon="4.67733">
        <ele>662</ele>
        <time>2019-11-09T11:31:31Z</time>
      </trkpt>
      <trkpt lat="44.85057" lon="4.67735">
        <ele>662.2</ele>
        <time>2019-11-09T11:31:32Z</time>
      </trkpt>
      <trkpt lat="44.85061" lon="4.67756">
        <ele>663</ele>
        <time>2019-11-09T11:31:40Z</time>
      </trkpt>
      <trkpt lat="44.85062" lon="4.67761">
        <ele>663.2</ele>
        <time>2019-11-09T11:31:42Z</time>
      </trkpt>
      <trkpt lat="44.85063" lon="4.67784">
        <ele>663.6</ele>
        <time>2019-11-09T11:31:51Z</time>
      </trkpt>
      <trkpt lat="44.85063" lon="4.67792">
        <ele>664</ele>
        <time>2019-11-09T11:31:54Z</time>
      </trkpt>
      <trkpt lat="44.85065" lon="4.67806">
        <ele>664.6</ele>
        <time>2019-11-09T11:32:00Z</time>
      </trkpt>
      <trkpt lat="44.85069" lon="4.67827">
        <ele>665</ele>
        <time>2019-11-09T11:32:08Z</time>
      </trkpt>
      <trkpt lat="44.85066" lon="4.67847">
        <ele>664.6</ele>
        <time>2019-11-09T11:32:15Z</time>
      </trkpt>
      <trkpt lat="44.85062" lon="4.67861">
        <ele>665.2</ele>
        <time>2019-11-09T11:32:21Z</time>
      </trkpt>
      <trkpt lat="44.8506" lon="4.67867">
        <ele>666</ele>
        <time>2019-11-09T11:32:24Z</time>
      </trkpt>
      <trkpt lat="44.85059" lon="4.67868">
        <ele>666.2</ele>
        <time>2019-11-09T11:32:25Z</time>
      </trkpt>
      <trkpt lat="44.85057" lon="4.67877">
        <ele>667.2</ele>
        <time>2019-11-09T11:32:30Z</time>
      </trkpt>
      <trkpt lat="44.85053" lon="4.67893">
        <ele>667.8</ele>
        <time>2019-11-09T11:32:39Z</time>
      </trkpt>
      <trkpt lat="44.85052" lon="4.67903">
        <ele>668.4</ele>
        <time>2019-11-09T11:32:45Z</time>
      </trkpt>
      <trkpt lat="44.85051" lon="4.67906">
        <ele>668.8</ele>
        <time>2019-11-09T11:32:47Z</time>
      </trkpt>
      <trkpt lat="44.85051" lon="4.67914">
        <ele>669.4</ele>
        <time>2019-11-09T11:32:52Z</time>
      </trkpt>
      <trkpt lat="44.85051" lon="4.67916">
        <ele>669.6</ele>
        <time>2019-11-09T11:32:53Z</time>
      </trkpt>
      <trkpt lat="44.8505" lon="4.67919">
        <ele>669.6</ele>
        <time>2019-11-09T11:32:55Z</time>
      </trkpt>
      <trkpt lat="44.8505" lon="4.67922">
        <ele>669.8</ele>
        <time>2019-11-09T11:32:57Z</time>
      </trkpt>
      <trkpt lat="44.85049" lon="4.67929">
        <ele>670.6</ele>
        <time>2019-11-09T11:33:02Z</time>
      </trkpt>
      <trkpt lat="44.85048" lon="4.67934">
        <ele>671.2</ele>
        <time>2019-11-09T11:33:05Z</time>
      </trkpt>
      <trkpt lat="44.85048" lon="4.67936">
        <ele>671.6</ele>
        <time>2019-11-09T11:33:07Z</time>
      </trkpt>
      <trkpt lat="44.85047" lon="4.67941">
        <ele>672.2</ele>
        <time>2019-11-09T11:33:11Z</time>
      </trkpt>
      <trkpt lat="44.85046" lon="4.67944">
        <ele>672.8</ele>
        <time>2019-11-09T11:33:14Z</time>
      </trkpt>
      <trkpt lat="44.85046" lon="4.67951">
        <ele>673.6</ele>
        <time>2019-11-09T11:33:19Z</time>
      </trkpt>
      <trkpt lat="44.85045" lon="4.67953">
        <ele>673.8</ele>
        <time>2019-11-09T11:33:20Z</time>
      </trkpt>
      <trkpt lat="44.85044" lon="4.67959">
        <ele>674.6</ele>
        <time>2019-11-09T11:33:24Z</time>
      </trkpt>
      <trkpt lat="44.85043" lon="4.67961">
        <ele>674.8</ele>
        <time>2019-11-09T11:33:25Z</time>
      </trkpt>
      <trkpt lat="44.85043" lon="4.67962">
        <ele>675</ele>
        <time>2019-11-09T11:33:26Z</time>
      </trkpt>
      <trkpt lat="44.85043" lon="4.67965">
        <ele>675.2</ele>
        <time>2019-11-09T11:33:28Z</time>
      </trkpt>
      <trkpt lat="44.85044" lon="4.67972">
        <ele>675.8</ele>
        <time>2019-11-09T11:33:34Z</time>
      </trkpt>
      <trkpt lat="44.85044" lon="4.67975">
        <ele>676.2</ele>
        <time>2019-11-09T11:33:36Z</time>
      </trkpt>
      <trkpt lat="44.85044" lon="4.67979">
        <ele>677</ele>
        <time>2019-11-09T11:33:39Z</time>
      </trkpt>
      <trkpt lat="44.85046" lon="4.67985">
        <ele>678</ele>
        <time>2019-11-09T11:33:44Z</time>
      </trkpt>
      <trkpt lat="44.85046" lon="4.67986">
        <ele>678</ele>
        <time>2019-11-09T11:33:45Z</time>
      </trkpt>
      <trkpt lat="44.85047" lon="4.67994">
        <ele>678.4</ele>
        <time>2019-11-09T11:33:51Z</time>
      </trkpt>
      <trkpt lat="44.85045" lon="4.68004">
        <ele>678.8</ele>
        <time>2019-11-09T11:33:57Z</time>
      </trkpt>
      <trkpt lat="44.85044" lon="4.68008">
        <ele>679.2</ele>
        <time>2019-11-09T11:33:59Z</time>
      </trkpt>
      <trkpt lat="44.85045" lon="4.68016">
        <ele>679.6</ele>
        <time>2019-11-09T11:34:04Z</time>
      </trkpt>
      <trkpt lat="44.85047" lon="4.68031">
        <ele>680.2</ele>
        <time>2019-11-09T11:34:12Z</time>
      </trkpt>
      <trkpt lat="44.85049" lon="4.68045">
        <ele>680.6</ele>
        <time>2019-11-09T11:34:19Z</time>
      </trkpt>
      <trkpt lat="44.8505" lon="4.68064">
        <ele>680.2</ele>
        <time>2019-11-09T11:34:27Z</time>
      </trkpt>
      <trkpt lat="44.85053" lon="4.68087">
        <ele>679.8</ele>
        <time>2019-11-09T11:34:35Z</time>
      </trkpt>
      <trkpt lat="44.85056" lon="4.68099">
        <ele>679</ele>
        <time>2019-11-09T11:34:39Z</time>
      </trkpt>
      <trkpt lat="44.85056" lon="4.68104">
        <ele>678.8</ele>
        <time>2019-11-09T11:34:40Z</time>
      </trkpt>
      <trkpt lat="44.85052" lon="4.68115">
        <ele>678.4</ele>
        <time>2019-11-09T11:34:43Z</time>
      </trkpt>
      <trkpt lat="44.8505" lon="4.68117">
        <ele>678.4</ele>
        <time>2019-11-09T11:34:44Z</time>
      </trkpt>
      <trkpt lat="44.8504" lon="4.68126">
        <ele>679.2</ele>
        <time>2019-11-09T11:34:51Z</time>
      </trkpt>
      <trkpt lat="44.85038" lon="4.68128">
        <ele>679.2</ele>
        <time>2019-11-09T11:34:52Z</time>
      </trkpt>
      <trkpt lat="44.85031" lon="4.68134">
        <ele>679.4</ele>
        <time>2019-11-09T11:34:56Z</time>
      </trkpt>
      <trkpt lat="44.85028" lon="4.68138">
        <ele>679.4</ele>
        <time>2019-11-09T11:34:59Z</time>
      </trkpt>
      <trkpt lat="44.85026" lon="4.6814">
        <ele>679.4</ele>
        <time>2019-11-09T11:35:00Z</time>
      </trkpt>
      <trkpt lat="44.85022" lon="4.68145">
        <ele>679.8</ele>
        <time>2019-11-09T11:35:03Z</time>
      </trkpt>
      <trkpt lat="44.85021" lon="4.68146">
        <ele>680</ele>
        <time>2019-11-09T11:35:04Z</time>
      </trkpt>
      <trkpt lat="44.85017" lon="4.68152">
        <ele>680.8</ele>
        <time>2019-11-09T11:35:08Z</time>
      </trkpt>
      <trkpt lat="44.85014" lon="4.68156">
        <ele>681</ele>
        <time>2019-11-09T11:35:11Z</time>
      </trkpt>
      <trkpt lat="44.85012" lon="4.6816">
        <ele>682</ele>
        <time>2019-11-09T11:35:15Z</time>
      </trkpt>
      <trkpt lat="44.85011" lon="4.68161">
        <ele>682.2</ele>
        <time>2019-11-09T11:35:16Z</time>
      </trkpt>
      <trkpt lat="44.85005" lon="4.68168">
        <ele>683.2</ele>
        <time>2019-11-09T11:35:22Z</time>
      </trkpt>
      <trkpt lat="44.85003" lon="4.6817">
        <ele>683.4</ele>
        <time>2019-11-09T11:35:23Z</time>
      </trkpt>
      <trkpt lat="44.85" lon="4.68175">
        <ele>684.2</ele>
        <time>2019-11-09T11:35:28Z</time>
      </trkpt>
      <trkpt lat="44.84999" lon="4.68175">
        <ele>684.2</ele>
        <time>2019-11-09T11:35:29Z</time>
      </trkpt>
      <trkpt lat="44.84998" lon="4.68176">
        <ele>684.4</ele>
        <time>2019-11-09T11:35:30Z</time>
      </trkpt>
      <trkpt lat="44.84994" lon="4.68179">
        <ele>685.4</ele>
        <time>2019-11-09T11:35:34Z</time>
      </trkpt>
      <trkpt lat="44.84992" lon="4.68181">
        <ele>685.8</ele>
        <time>2019-11-09T11:35:36Z</time>
      </trkpt>
      <trkpt lat="44.84992" lon="4.68182">
        <ele>686</ele>
        <time>2019-11-09T11:35:37Z</time>
      </trkpt>
      <trkpt lat="44.84991" lon="4.68183">
        <ele>686.4</ele>
        <time>2019-11-09T11:35:39Z</time>
      </trkpt>
      <trkpt lat="44.8499" lon="4.68184">
        <ele>686.4</ele>
        <time>2019-11-09T11:35:40Z</time>
      </trkpt>
      <trkpt lat="44.84988" lon="4.68185">
        <ele>687</ele>
        <time>2019-11-09T11:35:43Z</time>
      </trkpt>
      <trkpt lat="44.84985" lon="4.68187">
        <ele>687.6</ele>
        <time>2019-11-09T11:35:45Z</time>
      </trkpt>
      <trkpt lat="44.84981" lon="4.68189">
        <ele>688.2</ele>
        <time>2019-11-09T11:35:48Z</time>
      </trkpt>
      <trkpt lat="44.84979" lon="4.6819">
        <ele>688.8</ele>
        <time>2019-11-09T11:35:50Z</time>
      </trkpt>
      <trkpt lat="44.84975" lon="4.68192">
        <ele>689.2</ele>
        <time>2019-11-09T11:35:53Z</time>
      </trkpt>
      <trkpt lat="44.84971" lon="4.68196">
        <ele>689.8</ele>
        <time>2019-11-09T11:35:57Z</time>
      </trkpt>
      <trkpt lat="44.8497" lon="4.68197">
        <ele>689.8</ele>
        <time>2019-11-09T11:35:58Z</time>
      </trkpt>
      <trkpt lat="44.84969" lon="4.68199">
        <ele>690</ele>
        <time>2019-11-09T11:36:00Z</time>
      </trkpt>
      <trkpt lat="44.84967" lon="4.68204">
        <ele>691</ele>
        <time>2019-11-09T11:36:03Z</time>
      </trkpt>
      <trkpt lat="44.84966" lon="4.6821">
        <ele>692</ele>
        <time>2019-11-09T11:36:07Z</time>
      </trkpt>
      <trkpt lat="44.84965" lon="4.68216">
        <ele>692.6</ele>
        <time>2019-11-09T11:36:11Z</time>
      </trkpt>
      <trkpt lat="44.84963" lon="4.68218">
        <ele>693.2</ele>
        <time>2019-11-09T11:36:13Z</time>
      </trkpt>
      <trkpt lat="44.84959" lon="4.68223">
        <ele>694</ele>
        <time>2019-11-09T11:36:18Z</time>
      </trkpt>
      <trkpt lat="44.84958" lon="4.68226">
        <ele>694.2</ele>
        <time>2019-11-09T11:36:21Z</time>
      </trkpt>
      <trkpt lat="44.84957" lon="4.6823">
        <ele>694.4</ele>
        <time>2019-11-09T11:36:25Z</time>
      </trkpt>
      <trkpt lat="44.84957" lon="4.68233">
        <ele>694.6</ele>
        <time>2019-11-09T11:36:27Z</time>
      </trkpt>
      <trkpt lat="44.84954" lon="4.68238">
        <ele>694.8</ele>
        <time>2019-11-09T11:36:32Z</time>
      </trkpt>
      <trkpt lat="44.84952" lon="4.68241">
        <ele>694.6</ele>
        <time>2019-11-09T11:36:38Z</time>
      </trkpt>
      <trkpt lat="44.84952" lon="4.68241">
        <ele>694.6</ele>
        <time>2019-11-09T11:36:49Z</time>
      </trkpt>
      <trkpt lat="44.84952" lon="4.6824">
        <ele>694.8</ele>
        <time>2019-11-09T11:36:55Z</time>
      </trkpt>
      <trkpt lat="44.84952" lon="4.6824">
        <ele>694.6</ele>
        <time>2019-11-09T11:36:58Z</time>
      </trkpt>
      <trkpt lat="44.84956" lon="4.68239">
        <ele>694</ele>
        <time>2019-11-09T11:37:05Z</time>
      </trkpt>
      <trkpt lat="44.84957" lon="4.68239">
        <ele>694.2</ele>
        <time>2019-11-09T11:37:08Z</time>
      </trkpt>
      <trkpt lat="44.84954" lon="4.68241">
        <ele>694.4</ele>
        <time>2019-11-09T11:37:12Z</time>
      </trkpt>
      <trkpt lat="44.84953" lon="4.68243">
        <ele>694.2</ele>
        <time>2019-11-09T11:37:13Z</time>
      </trkpt>
      <trkpt lat="44.84948" lon="4.68258">
        <ele>693.8</ele>
        <time>2019-11-09T11:37:18Z</time>
      </trkpt>
      <trkpt lat="44.84945" lon="4.68265">
        <ele>693.6</ele>
        <time>2019-11-09T11:37:20Z</time>
      </trkpt>
      <trkpt lat="44.84945" lon="4.68272">
        <ele>693.4</ele>
        <time>2019-11-09T11:37:22Z</time>
      </trkpt>
      <trkpt lat="44.84944" lon="4.68275">
        <ele>693.6</ele>
        <time>2019-11-09T11:37:23Z</time>
      </trkpt>
      <trkpt lat="44.8494" lon="4.68289">
        <ele>694</ele>
        <time>2019-11-09T11:37:28Z</time>
      </trkpt>
      <trkpt lat="44.84937" lon="4.68292">
        <ele>694.2</ele>
        <time>2019-11-09T11:37:30Z</time>
      </trkpt>
      <trkpt lat="44.84936" lon="4.68299">
        <ele>695</ele>
        <time>2019-11-09T11:37:33Z</time>
      </trkpt>
      <trkpt lat="44.84936" lon="4.68301">
        <ele>695.2</ele>
        <time>2019-11-09T11:37:34Z</time>
      </trkpt>
      <trkpt lat="44.84929" lon="4.68313">
        <ele>696</ele>
        <time>2019-11-09T11:37:40Z</time>
      </trkpt>
      <trkpt lat="44.84922" lon="4.68331">
        <ele>696</ele>
        <time>2019-11-09T11:37:47Z</time>
      </trkpt>
      <trkpt lat="44.84907" lon="4.68343">
        <ele>696</ele>
        <time>2019-11-09T11:37:53Z</time>
      </trkpt>
      <trkpt lat="44.8489" lon="4.68347">
        <ele>695.2</ele>
        <time>2019-11-09T11:38:00Z</time>
      </trkpt>
      <trkpt lat="44.8488" lon="4.68347">
        <ele>695.6</ele>
        <time>2019-11-09T11:38:05Z</time>
      </trkpt>
      <trkpt lat="44.84879" lon="4.68349">
        <ele>696</ele>
        <time>2019-11-09T11:38:12Z</time>
      </trkpt>
      <trkpt lat="44.84877" lon="4.68349">
        <ele>695.8</ele>
        <time>2019-11-09T11:38:16Z</time>
      </trkpt>
      <trkpt lat="44.84875" lon="4.68349">
        <ele>695.8</ele>
        <time>2019-11-09T11:38:18Z</time>
      </trkpt>
      <trkpt lat="44.84874" lon="4.68349">
        <ele>695.6</ele>
        <time>2019-11-09T11:38:19Z</time>
      </trkpt>
      <trkpt lat="44.84873" lon="4.6835">
        <ele>695.6</ele>
        <time>2019-11-09T11:38:20Z</time>
      </trkpt>
      <trkpt lat="44.8487" lon="4.68352">
        <ele>695.4</ele>
        <time>2019-11-09T11:38:23Z</time>
      </trkpt>
      <trkpt lat="44.84869" lon="4.68352">
        <ele>695.2</ele>
        <time>2019-11-09T11:38:24Z</time>
      </trkpt>
      <trkpt lat="44.84866" lon="4.68353">
        <ele>694.8</ele>
        <time>2019-11-09T11:38:30Z</time>
      </trkpt>
      <trkpt lat="44.84865" lon="4.68353">
        <ele>695</ele>
        <time>2019-11-09T11:38:31Z</time>
      </trkpt>
      <trkpt lat="44.84858" lon="4.68356">
        <ele>695.8</ele>
        <time>2019-11-09T11:38:39Z</time>
      </trkpt>
      <trkpt lat="44.84855" lon="4.68353">
        <ele>696.4</ele>
        <time>2019-11-09T11:38:45Z</time>
      </trkpt>
      <trkpt lat="44.84855" lon="4.68353">
        <ele>696.4</ele>
        <time>2019-11-09T11:38:46Z</time>
      </trkpt>
      <trkpt lat="44.84854" lon="4.68352">
        <ele>696.8</ele>
        <time>2019-11-09T11:38:48Z</time>
      </trkpt>
      <trkpt lat="44.84853" lon="4.68351">
        <ele>697.2</ele>
        <time>2019-11-09T11:38:51Z</time>
      </trkpt>
      <trkpt lat="44.84852" lon="4.68352">
        <ele>697.4</ele>
        <time>2019-11-09T11:38:52Z</time>
      </trkpt>
      <trkpt lat="44.84852" lon="4.68351">
        <ele>697.8</ele>
        <time>2019-11-09T11:38:55Z</time>
      </trkpt>
      <trkpt lat="44.8485" lon="4.6835">
        <ele>698</ele>
        <time>2019-11-09T11:38:57Z</time>
      </trkpt>
      <trkpt lat="44.84849" lon="4.68349">
        <ele>698.2</ele>
        <time>2019-11-09T11:38:59Z</time>
      </trkpt>
      <trkpt lat="44.84848" lon="4.68348">
        <ele>698.4</ele>
        <time>2019-11-09T11:39:01Z</time>
      </trkpt>
      <trkpt lat="44.84845" lon="4.68347">
        <ele>699</ele>
        <time>2019-11-09T11:39:04Z</time>
      </trkpt>
      <trkpt lat="44.84841" lon="4.68347">
        <ele>699.4</ele>
        <time>2019-11-09T11:39:07Z</time>
      </trkpt>
      <trkpt lat="44.8484" lon="4.68347">
        <ele>699.6</ele>
        <time>2019-11-09T11:39:08Z</time>
      </trkpt>
      <trkpt lat="44.84836" lon="4.68347">
        <ele>700</ele>
        <time>2019-11-09T11:39:12Z</time>
      </trkpt>
      <trkpt lat="44.84832" lon="4.68343">
        <ele>700</ele>
        <time>2019-11-09T11:39:19Z</time>
      </trkpt>
      <trkpt lat="44.8483" lon="4.68341">
        <ele>700.6</ele>
        <time>2019-11-09T11:39:23Z</time>
      </trkpt>
      <trkpt lat="44.84829" lon="4.68339">
        <ele>701</ele>
        <time>2019-11-09T11:39:26Z</time>
      </trkpt>
      <trkpt lat="44.84827" lon="4.68339">
        <ele>701.4</ele>
        <time>2019-11-09T11:39:29Z</time>
      </trkpt>
      <trkpt lat="44.84823" lon="4.68339">
        <ele>701.8</ele>
        <time>2019-11-09T11:39:32Z</time>
      </trkpt>
      <trkpt lat="44.84821" lon="4.68337">
        <ele>702</ele>
        <time>2019-11-09T11:39:35Z</time>
      </trkpt>
      <trkpt lat="44.84821" lon="4.68333">
        <ele>702.6</ele>
        <time>2019-11-09T11:39:39Z</time>
      </trkpt>
      <trkpt lat="44.84818" lon="4.68331">
        <ele>702.8</ele>
        <time>2019-11-09T11:39:45Z</time>
      </trkpt>
      <trkpt lat="44.84817" lon="4.6833">
        <ele>703</ele>
        <time>2019-11-09T11:39:46Z</time>
      </trkpt>
      <trkpt lat="44.84815" lon="4.68328">
        <ele>704</ele>
        <time>2019-11-09T11:39:50Z</time>
      </trkpt>
      <trkpt lat="44.84815" lon="4.68323">
        <ele>704.4</ele>
        <time>2019-11-09T11:39:54Z</time>
      </trkpt>
      <trkpt lat="44.84815" lon="4.6832">
        <ele>705.2</ele>
        <time>2019-11-09T11:39:57Z</time>
      </trkpt>
      <trkpt lat="44.84816" lon="4.68319">
        <ele>705.6</ele>
        <time>2019-11-09T11:40:01Z</time>
      </trkpt>
      <trkpt lat="44.84814" lon="4.6832">
        <ele>706.2</ele>
        <time>2019-11-09T11:40:08Z</time>
      </trkpt>
      <trkpt lat="44.84814" lon="4.6832">
        <ele>706.4</ele>
        <time>2019-11-09T11:40:10Z</time>
      </trkpt>
      <trkpt lat="44.84812" lon="4.68319">
        <ele>706.2</ele>
        <time>2019-11-09T11:40:17Z</time>
      </trkpt>
      <trkpt lat="44.84811" lon="4.68318">
        <ele>706</ele>
        <time>2019-11-09T11:40:24Z</time>
      </trkpt>
      <trkpt lat="44.8481" lon="4.68319">
        <ele>706</ele>
        <time>2019-11-09T11:40:34Z</time>
      </trkpt>
      <trkpt lat="44.8481" lon="4.68319">
        <ele>705.8</ele>
        <time>2019-11-09T11:40:44Z</time>
      </trkpt>
      <trkpt lat="44.84811" lon="4.68319">
        <ele>705.8</ele>
        <time>2019-11-09T11:40:49Z</time>
      </trkpt>
      <trkpt lat="44.84811" lon="4.68319">
        <ele>705.8</ele>
        <time>2019-11-09T11:40:52Z</time>
      </trkpt>
      <trkpt lat="44.84811" lon="4.68318">
        <ele>706</ele>
        <time>2019-11-09T11:40:54Z</time>
      </trkpt>
      <trkpt lat="44.84811" lon="4.68318">
        <ele>706.2</ele>
        <time>2019-11-09T11:40:56Z</time>
      </trkpt>
      <trkpt lat="44.84811" lon="4.68319">
        <ele>705.6</ele>
        <time>2019-11-09T11:41:02Z</time>
      </trkpt>
      <trkpt lat="44.84811" lon="4.68321">
        <ele>706</ele>
        <time>2019-11-09T11:41:11Z</time>
      </trkpt>
      <trkpt lat="44.84811" lon="4.68321">
        <ele>706</ele>
        <time>2019-11-09T11:41:16Z</time>
      </trkpt>
      <trkpt lat="44.8481" lon="4.68321">
        <ele>706</ele>
        <time>2019-11-09T11:41:21Z</time>
      </trkpt>
      <trkpt lat="44.8481" lon="4.6832">
        <ele>706</ele>
        <time>2019-11-09T11:41:24Z</time>
      </trkpt>
      <trkpt lat="44.8481" lon="4.6832">
        <ele>706</ele>
        <time>2019-11-09T11:41:25Z</time>
      </trkpt>
      <trkpt lat="44.84809" lon="4.68319">
        <ele>706</ele>
        <time>2019-11-09T11:41:26Z</time>
      </trkpt>
      <trkpt lat="44.84807" lon="4.68317">
        <ele>705.8</ele>
        <time>2019-11-09T11:41:28Z</time>
      </trkpt>
      <trkpt lat="44.84801" lon="4.68312">
        <ele>705</ele>
        <time>2019-11-09T11:41:32Z</time>
      </trkpt>
      <trkpt lat="44.84799" lon="4.68311">
        <ele>704.6</ele>
        <time>2019-11-09T11:41:33Z</time>
      </trkpt>
      <trkpt lat="44.84796" lon="4.68315">
        <ele>703.6</ele>
        <time>2019-11-09T11:41:35Z</time>
      </trkpt>
      <trkpt lat="44.84793" lon="4.68321">
        <ele>702.6</ele>
        <time>2019-11-09T11:41:37Z</time>
      </trkpt>
      <trkpt lat="44.84789" lon="4.68327">
        <ele>701.6</ele>
        <time>2019-11-09T11:41:39Z</time>
      </trkpt>
      <trkpt lat="44.84785" lon="4.68332">
        <ele>700</ele>
        <time>2019-11-09T11:41:41Z</time>
      </trkpt>
      <trkpt lat="44.84779" lon="4.68335">
        <ele>698.8</ele>
        <time>2019-11-09T11:41:43Z</time>
      </trkpt>
      <trkpt lat="44.84774" lon="4.68337">
        <ele>698.2</ele>
        <time>2019-11-09T11:41:45Z</time>
      </trkpt>
      <trkpt lat="44.84768" lon="4.6834">
        <ele>697.4</ele>
        <time>2019-11-09T11:41:47Z</time>
      </trkpt>
      <trkpt lat="44.84762" lon="4.68342">
        <ele>696.2</ele>
        <time>2019-11-09T11:41:49Z</time>
      </trkpt>
      <trkpt lat="44.8476" lon="4.68342">
        <ele>694.8</ele>
        <time>2019-11-09T11:41:50Z</time>
      </trkpt>
      <trkpt lat="44.84756" lon="4.68342">
        <ele>693.6</ele>
        <time>2019-11-09T11:41:51Z</time>
      </trkpt>
      <trkpt lat="44.8475" lon="4.68343">
        <ele>691.6</ele>
        <time>2019-11-09T11:41:53Z</time>
      </trkpt>
      <trkpt lat="44.84749" lon="4.68343">
        <ele>690.6</ele>
        <time>2019-11-09T11:41:54Z</time>
      </trkpt>
      <trkpt lat="44.84744" lon="4.68344">
        <ele>689.2</ele>
        <time>2019-11-09T11:41:56Z</time>
      </trkpt>
      <trkpt lat="44.84741" lon="4.68344">
        <ele>689</ele>
        <time>2019-11-09T11:41:57Z</time>
      </trkpt>
      <trkpt lat="44.84739" lon="4.68344">
        <ele>687.8</ele>
        <time>2019-11-09T11:41:59Z</time>
      </trkpt>
      <trkpt lat="44.84736" lon="4.68343">
        <ele>686.8</ele>
        <time>2019-11-09T11:42:00Z</time>
      </trkpt>
      <trkpt lat="44.84733" lon="4.68343">
        <ele>685.6</ele>
        <time>2019-11-09T11:42:01Z</time>
      </trkpt>
      <trkpt lat="44.8473" lon="4.68343">
        <ele>684.2</ele>
        <time>2019-11-09T11:42:02Z</time>
      </trkpt>
      <trkpt lat="44.84728" lon="4.68343">
        <ele>683.4</ele>
        <time>2019-11-09T11:42:03Z</time>
      </trkpt>
      <trkpt lat="44.84726" lon="4.68343">
        <ele>682.6</ele>
        <time>2019-11-09T11:42:04Z</time>
      </trkpt>
      <trkpt lat="44.84725" lon="4.68342">
        <ele>681.8</ele>
        <time>2019-11-09T11:42:05Z</time>
      </trkpt>
      <trkpt lat="44.84723" lon="4.68342">
        <ele>681</ele>
        <time>2019-11-09T11:42:06Z</time>
      </trkpt>
      <trkpt lat="44.84722" lon="4.68342">
        <ele>680.2</ele>
        <time>2019-11-09T11:42:07Z</time>
      </trkpt>
      <trkpt lat="44.8472" lon="4.68343">
        <ele>679.4</ele>
        <time>2019-11-09T11:42:08Z</time>
      </trkpt>
      <trkpt lat="44.84715" lon="4.68348">
        <ele>678.2</ele>
        <time>2019-11-09T11:42:10Z</time>
      </trkpt>
      <trkpt lat="44.8471" lon="4.68351">
        <ele>676.6</ele>
        <time>2019-11-09T11:42:12Z</time>
      </trkpt>
      <trkpt lat="44.84706" lon="4.6835">
        <ele>675.6</ele>
        <time>2019-11-09T11:42:14Z</time>
      </trkpt>
      <trkpt lat="44.84701" lon="4.6835">
        <ele>674.4</ele>
        <time>2019-11-09T11:42:16Z</time>
      </trkpt>
      <trkpt lat="44.84695" lon="4.68351">
        <ele>673.2</ele>
        <time>2019-11-09T11:42:18Z</time>
      </trkpt>
      <trkpt lat="44.84692" lon="4.68352">
        <ele>672.6</ele>
        <time>2019-11-09T11:42:19Z</time>
      </trkpt>
      <trkpt lat="44.8469" lon="4.68353">
        <ele>671.6</ele>
        <time>2019-11-09T11:42:20Z</time>
      </trkpt>
      <trkpt lat="44.84688" lon="4.68354">
        <ele>670.6</ele>
        <time>2019-11-09T11:42:21Z</time>
      </trkpt>
      <trkpt lat="44.84682" lon="4.68354">
        <ele>669.2</ele>
        <time>2019-11-09T11:42:23Z</time>
      </trkpt>
      <trkpt lat="44.8468" lon="4.68353">
        <ele>668.6</ele>
        <time>2019-11-09T11:42:24Z</time>
      </trkpt>
      <trkpt lat="44.84679" lon="4.68353">
        <ele>668</ele>
        <time>2019-11-09T11:42:25Z</time>
      </trkpt>
      <trkpt lat="44.84674" lon="4.68356">
        <ele>666.6</ele>
        <time>2019-11-09T11:42:27Z</time>
      </trkpt>
      <trkpt lat="44.84672" lon="4.68355">
        <ele>665.8</ele>
        <time>2019-11-09T11:42:28Z</time>
      </trkpt>
      <trkpt lat="44.8467" lon="4.68353">
        <ele>665.2</ele>
        <time>2019-11-09T11:42:29Z</time>
      </trkpt>
      <trkpt lat="44.84669" lon="4.68352">
        <ele>664.8</ele>
        <time>2019-11-09T11:42:30Z</time>
      </trkpt>
      <trkpt lat="44.84666" lon="4.68352">
        <ele>663.8</ele>
        <time>2019-11-09T11:42:32Z</time>
      </trkpt>
      <trkpt lat="44.8466" lon="4.6835">
        <ele>662.8</ele>
        <time>2019-11-09T11:42:34Z</time>
      </trkpt>
      <trkpt lat="44.84659" lon="4.6835">
        <ele>662.4</ele>
        <time>2019-11-09T11:42:35Z</time>
      </trkpt>
      <trkpt lat="44.84655" lon="4.68349">
        <ele>661.6</ele>
        <time>2019-11-09T11:42:37Z</time>
      </trkpt>
      <trkpt lat="44.84654" lon="4.68349">
        <ele>661.2</ele>
        <time>2019-11-09T11:42:38Z</time>
      </trkpt>
      <trkpt lat="44.84649" lon="4.68349">
        <ele>660.2</ele>
        <time>2019-11-09T11:42:40Z</time>
      </trkpt>
      <trkpt lat="44.84644" lon="4.6835">
        <ele>659</ele>
        <time>2019-11-09T11:42:42Z</time>
      </trkpt>
      <trkpt lat="44.84643" lon="4.68349">
        <ele>658.4</ele>
        <time>2019-11-09T11:42:43Z</time>
      </trkpt>
      <trkpt lat="44.84641" lon="4.68349">
        <ele>658</ele>
        <time>2019-11-09T11:42:45Z</time>
      </trkpt>
      <trkpt lat="44.84637" lon="4.68349">
        <ele>657.4</ele>
        <time>2019-11-09T11:42:48Z</time>
      </trkpt>
      <trkpt lat="44.84635" lon="4.68349">
        <ele>657.2</ele>
        <time>2019-11-09T11:42:50Z</time>
      </trkpt>
      <trkpt lat="44.84634" lon="4.68348">
        <ele>656.8</ele>
        <time>2019-11-09T11:42:51Z</time>
      </trkpt>
      <trkpt lat="44.84629" lon="4.68348">
        <ele>656.4</ele>
        <time>2019-11-09T11:42:53Z</time>
      </trkpt>
      <trkpt lat="44.84625" lon="4.68348">
        <ele>655.6</ele>
        <time>2019-11-09T11:42:55Z</time>
      </trkpt>
      <trkpt lat="44.84621" lon="4.68348">
        <ele>654.2</ele>
        <time>2019-11-09T11:42:57Z</time>
      </trkpt>
      <trkpt lat="44.84616" lon="4.68351">
        <ele>652.4</ele>
        <time>2019-11-09T11:42:59Z</time>
      </trkpt>
      <trkpt lat="44.84609" lon="4.68354">
        <ele>650.8</ele>
        <time>2019-11-09T11:43:01Z</time>
      </trkpt>
      <trkpt lat="44.84602" lon="4.68354">
        <ele>649</ele>
        <time>2019-11-09T11:43:03Z</time>
      </trkpt>
      <trkpt lat="44.84598" lon="4.68355">
        <ele>648.4</ele>
        <time>2019-11-09T11:43:04Z</time>
      </trkpt>
      <trkpt lat="44.84596" lon="4.68354">
        <ele>647.8</ele>
        <time>2019-11-09T11:43:05Z</time>
      </trkpt>
      <trkpt lat="44.84595" lon="4.68354">
        <ele>647.2</ele>
        <time>2019-11-09T11:43:06Z</time>
      </trkpt>
      <trkpt lat="44.84593" lon="4.68353">
        <ele>646.8</ele>
        <time>2019-11-09T11:43:07Z</time>
      </trkpt>
      <trkpt lat="44.84589" lon="4.68351">
        <ele>645.6</ele>
        <time>2019-11-09T11:43:09Z</time>
      </trkpt>
      <trkpt lat="44.84583" lon="4.6835">
        <ele>644.8</ele>
        <time>2019-11-09T11:43:11Z</time>
      </trkpt>
      <trkpt lat="44.8458" lon="4.68348">
        <ele>643.8</ele>
        <time>2019-11-09T11:43:12Z</time>
      </trkpt>
      <trkpt lat="44.84577" lon="4.68349">
        <ele>642.6</ele>
        <time>2019-11-09T11:43:13Z</time>
      </trkpt>
      <trkpt lat="44.84572" lon="4.6835">
        <ele>640.8</ele>
        <time>2019-11-09T11:43:15Z</time>
      </trkpt>
      <trkpt lat="44.84566" lon="4.68351">
        <ele>639.6</ele>
        <time>2019-11-09T11:43:17Z</time>
      </trkpt>
      <trkpt lat="44.8456" lon="4.6835">
        <ele>638</ele>
        <time>2019-11-09T11:43:19Z</time>
      </trkpt>
      <trkpt lat="44.84557" lon="4.68349">
        <ele>637</ele>
        <time>2019-11-09T11:43:21Z</time>
      </trkpt>
      <trkpt lat="44.84555" lon="4.68347">
        <ele>635.8</ele>
        <time>2019-11-09T11:43:24Z</time>
      </trkpt>
      <trkpt lat="44.84553" lon="4.68348">
        <ele>635.6</ele>
        <time>2019-11-09T11:43:26Z</time>
      </trkpt>
      <trkpt lat="44.84551" lon="4.68349">
        <ele>635.2</ele>
        <time>2019-11-09T11:43:35Z</time>
      </trkpt>
      <trkpt lat="44.84547" lon="4.68349">
        <ele>635</ele>
        <time>2019-11-09T11:43:42Z</time>
      </trkpt>
      <trkpt lat="44.84546" lon="4.68351">
        <ele>635</ele>
        <time>2019-11-09T11:43:49Z</time>
      </trkpt>
      <trkpt lat="44.84546" lon="4.6835">
        <ele>634.8</ele>
        <time>2019-11-09T11:43:52Z</time>
      </trkpt>
      <trkpt lat="44.84546" lon="4.6835">
        <ele>634.8</ele>
        <time>2019-11-09T11:43:54Z</time>
      </trkpt>
      <trkpt lat="44.84546" lon="4.68351">
        <ele>634.8</ele>
        <time>2019-11-09T11:43:56Z</time>
      </trkpt>
      <trkpt lat="44.84542" lon="4.68352">
        <ele>634.8</ele>
        <time>2019-11-09T11:44:06Z</time>
      </trkpt>
      <trkpt lat="44.84538" lon="4.6835">
        <ele>634.8</ele>
        <time>2019-11-09T11:44:12Z</time>
      </trkpt>
      <trkpt lat="44.84538" lon="4.68349">
        <ele>634.8</ele>
        <time>2019-11-09T11:44:14Z</time>
      </trkpt>
      <trkpt lat="44.84539" lon="4.68348">
        <ele>634.6</ele>
        <time>2019-11-09T11:44:24Z</time>
      </trkpt>
      <trkpt lat="44.84539" lon="4.68348">
        <ele>634.6</ele>
        <time>2019-11-09T11:44:25Z</time>
      </trkpt>
      <trkpt lat="44.84541" lon="4.6835">
        <ele>634.4</ele>
        <time>2019-11-09T11:44:32Z</time>
      </trkpt>
      <trkpt lat="44.84542" lon="4.68352">
        <ele>634.2</ele>
        <time>2019-11-09T11:44:42Z</time>
      </trkpt>
      <trkpt lat="44.84546" lon="4.68353">
        <ele>634.2</ele>
        <time>2019-11-09T11:44:49Z</time>
      </trkpt>
      <trkpt lat="44.84545" lon="4.68355">
        <ele>634.2</ele>
        <time>2019-11-09T11:44:55Z</time>
      </trkpt>
      <trkpt lat="44.84541" lon="4.68359">
        <ele>634.2</ele>
        <time>2019-11-09T11:44:59Z</time>
      </trkpt>
      <trkpt lat="44.84543" lon="4.68358">
        <ele>634.2</ele>
        <time>2019-11-09T11:45:01Z</time>
      </trkpt>
      <trkpt lat="44.84544" lon="4.68359">
        <ele>634.6</ele>
        <time>2019-11-09T11:45:11Z</time>
      </trkpt>
      <trkpt lat="44.84542" lon="4.6836">
        <ele>634.6</ele>
        <time>2019-11-09T11:45:13Z</time>
      </trkpt>
      <trkpt lat="44.84537" lon="4.68363">
        <ele>634.2</ele>
        <time>2019-11-09T11:45:16Z</time>
      </trkpt>
      <trkpt lat="44.84534" lon="4.68362">
        <ele>633.8</ele>
        <time>2019-11-09T11:45:17Z</time>
      </trkpt>
      <trkpt lat="44.8453" lon="4.6836">
        <ele>632.4</ele>
        <time>2019-11-09T11:45:19Z</time>
      </trkpt>
      <trkpt lat="44.84527" lon="4.6836">
        <ele>631.8</ele>
        <time>2019-11-09T11:45:20Z</time>
      </trkpt>
      <trkpt lat="44.84525" lon="4.68359">
        <ele>631.2</ele>
        <time>2019-11-09T11:45:21Z</time>
      </trkpt>
      <trkpt lat="44.84518" lon="4.68356">
        <ele>629.4</ele>
        <time>2019-11-09T11:45:23Z</time>
      </trkpt>
      <trkpt lat="44.84514" lon="4.68354">
        <ele>628.2</ele>
        <time>2019-11-09T11:45:24Z</time>
      </trkpt>
      <trkpt lat="44.84506" lon="4.68353">
        <ele>626.6</ele>
        <time>2019-11-09T11:45:26Z</time>
      </trkpt>
      <trkpt lat="44.84498" lon="4.68354">
        <ele>625.6</ele>
        <time>2019-11-09T11:45:28Z</time>
      </trkpt>
      <trkpt lat="44.84493" lon="4.68352">
        <ele>623.8</ele>
        <time>2019-11-09T11:45:30Z</time>
      </trkpt>
      <trkpt lat="44.84491" lon="4.6835">
        <ele>623</ele>
        <time>2019-11-09T11:45:31Z</time>
      </trkpt>
      <trkpt lat="44.84489" lon="4.68349">
        <ele>622.6</ele>
        <time>2019-11-09T11:45:32Z</time>
      </trkpt>
      <trkpt lat="44.84485" lon="4.68348">
        <ele>622</ele>
        <time>2019-11-09T11:45:35Z</time>
      </trkpt>
      <trkpt lat="44.84482" lon="4.68347">
        <ele>621.6</ele>
        <time>2019-11-09T11:45:37Z</time>
      </trkpt>
      <trkpt lat="44.8448" lon="4.68346">
        <ele>621.2</ele>
        <time>2019-11-09T11:45:38Z</time>
      </trkpt>
      <trkpt lat="44.84475" lon="4.68346">
        <ele>620.2</ele>
        <time>2019-11-09T11:45:40Z</time>
      </trkpt>
      <trkpt lat="44.8447" lon="4.68347">
        <ele>619.6</ele>
        <time>2019-11-09T11:45:41Z</time>
      </trkpt>
      <trkpt lat="44.84465" lon="4.68346">
        <ele>619</ele>
        <time>2019-11-09T11:45:42Z</time>
      </trkpt>
      <trkpt lat="44.84458" lon="4.68341">
        <ele>618</ele>
        <time>2019-11-09T11:45:44Z</time>
      </trkpt>
      <trkpt lat="44.84454" lon="4.6834">
        <ele>617.6</ele>
        <time>2019-11-09T11:45:45Z</time>
      </trkpt>
      <trkpt lat="44.84443" lon="4.68337">
        <ele>616</ele>
        <time>2019-11-09T11:45:48Z</time>
      </trkpt>
      <trkpt lat="44.8444" lon="4.68336">
        <ele>615.2</ele>
        <time>2019-11-09T11:45:49Z</time>
      </trkpt>
      <trkpt lat="44.84437" lon="4.68335">
        <ele>614</ele>
        <time>2019-11-09T11:45:50Z</time>
      </trkpt>
      <trkpt lat="44.84431" lon="4.68336">
        <ele>612.6</ele>
        <time>2019-11-09T11:45:52Z</time>
      </trkpt>
      <trkpt lat="44.84426" lon="4.68337">
        <ele>611.8</ele>
        <time>2019-11-09T11:45:54Z</time>
      </trkpt>
      <trkpt lat="44.84422" lon="4.68338">
        <ele>611</ele>
        <time>2019-11-09T11:45:55Z</time>
      </trkpt>
      <trkpt lat="44.84414" lon="4.6834">
        <ele>609.2</ele>
        <time>2019-11-09T11:45:57Z</time>
      </trkpt>
      <trkpt lat="44.84405" lon="4.6834">
        <ele>607.4</ele>
        <time>2019-11-09T11:45:59Z</time>
      </trkpt>
      <trkpt lat="44.844" lon="4.68341">
        <ele>606.2</ele>
        <time>2019-11-09T11:46:02Z</time>
      </trkpt>
      <trkpt lat="44.84393" lon="4.68346">
        <ele>605.6</ele>
        <time>2019-11-09T11:46:10Z</time>
      </trkpt>
      <trkpt lat="44.84387" lon="4.6835">
        <ele>605.6</ele>
        <time>2019-11-09T11:46:17Z</time>
      </trkpt>
      <trkpt lat="44.84385" lon="4.68351">
        <ele>605.2</ele>
        <time>2019-11-09T11:46:19Z</time>
      </trkpt>
      <trkpt lat="44.84384" lon="4.6835">
        <ele>605</ele>
        <time>2019-11-09T11:46:20Z</time>
      </trkpt>
      <trkpt lat="44.84377" lon="4.6835">
        <ele>604.6</ele>
        <time>2019-11-09T11:46:23Z</time>
      </trkpt>
      <trkpt lat="44.84376" lon="4.6835">
        <ele>604</ele>
        <time>2019-11-09T11:46:25Z</time>
      </trkpt>
      <trkpt lat="44.84372" lon="4.68351">
        <ele>603.6</ele>
        <time>2019-11-09T11:46:27Z</time>
      </trkpt>
      <trkpt lat="44.8437" lon="4.6835">
        <ele>603.6</ele>
        <time>2019-11-09T11:46:29Z</time>
      </trkpt>
      <trkpt lat="44.84366" lon="4.6835">
        <ele>603.4</ele>
        <time>2019-11-09T11:46:31Z</time>
      </trkpt>
      <trkpt lat="44.8436" lon="4.68349">
        <ele>602.6</ele>
        <time>2019-11-09T11:46:33Z</time>
      </trkpt>
      <trkpt lat="44.84351" lon="4.68346">
        <ele>601.4</ele>
        <time>2019-11-09T11:46:36Z</time>
      </trkpt>
      <trkpt lat="44.84344" lon="4.68345">
        <ele>599.8</ele>
        <time>2019-11-09T11:46:38Z</time>
      </trkpt>
      <trkpt lat="44.84338" lon="4.68343">
        <ele>598.6</ele>
        <time>2019-11-09T11:46:40Z</time>
      </trkpt>
      <trkpt lat="44.84333" lon="4.68342">
        <ele>598</ele>
        <time>2019-11-09T11:46:41Z</time>
      </trkpt>
      <trkpt lat="44.8433" lon="4.68342">
        <ele>597.4</ele>
        <time>2019-11-09T11:46:42Z</time>
      </trkpt>
      <trkpt lat="44.84322" lon="4.68339">
        <ele>595.8</ele>
        <time>2019-11-09T11:46:44Z</time>
      </trkpt>
      <trkpt lat="44.84318" lon="4.68336">
        <ele>594.8</ele>
        <time>2019-11-09T11:46:45Z</time>
      </trkpt>
      <trkpt lat="44.84315" lon="4.68334">
        <ele>593.6</ele>
        <time>2019-11-09T11:46:46Z</time>
      </trkpt>
      <trkpt lat="44.84313" lon="4.68331">
        <ele>592.4</ele>
        <time>2019-11-09T11:46:47Z</time>
      </trkpt>
      <trkpt lat="44.84311" lon="4.68327">
        <ele>591.4</ele>
        <time>2019-11-09T11:46:48Z</time>
      </trkpt>
      <trkpt lat="44.84303" lon="4.68322">
        <ele>589.8</ele>
        <time>2019-11-09T11:46:50Z</time>
      </trkpt>
      <trkpt lat="44.84294" lon="4.68319">
        <ele>588</ele>
        <time>2019-11-09T11:46:52Z</time>
      </trkpt>
      <trkpt lat="44.84291" lon="4.68317">
        <ele>586.6</ele>
        <time>2019-11-09T11:46:53Z</time>
      </trkpt>
      <trkpt lat="44.84286" lon="4.68316">
        <ele>585.6</ele>
        <time>2019-11-09T11:46:54Z</time>
      </trkpt>
      <trkpt lat="44.84283" lon="4.68315">
        <ele>584.8</ele>
        <time>2019-11-09T11:46:55Z</time>
      </trkpt>
      <trkpt lat="44.84279" lon="4.68316">
        <ele>584.2</ele>
        <time>2019-11-09T11:46:56Z</time>
      </trkpt>
      <trkpt lat="44.84273" lon="4.68316">
        <ele>582.2</ele>
        <time>2019-11-09T11:46:58Z</time>
      </trkpt>
      <trkpt lat="44.84263" lon="4.68316">
        <ele>581.2</ele>
        <time>2019-11-09T11:47:00Z</time>
      </trkpt>
      <trkpt lat="44.84255" lon="4.68315">
        <ele>579.8</ele>
        <time>2019-11-09T11:47:03Z</time>
      </trkpt>
      <trkpt lat="44.84252" lon="4.68315">
        <ele>579.4</ele>
        <time>2019-11-09T11:47:04Z</time>
      </trkpt>
      <trkpt lat="44.84244" lon="4.68312">
        <ele>578.4</ele>
        <time>2019-11-09T11:47:07Z</time>
      </trkpt>
      <trkpt lat="44.84239" lon="4.68309">
        <ele>577.4</ele>
        <time>2019-11-09T11:47:09Z</time>
      </trkpt>
      <trkpt lat="44.84236" lon="4.68309">
        <ele>576.8</ele>
        <time>2019-11-09T11:47:10Z</time>
      </trkpt>
      <trkpt lat="44.84233" lon="4.68307">
        <ele>576</ele>
        <time>2019-11-09T11:47:11Z</time>
      </trkpt>
      <trkpt lat="44.84226" lon="4.68306">
        <ele>574.2</ele>
        <time>2019-11-09T11:47:13Z</time>
      </trkpt>
      <trkpt lat="44.84221" lon="4.68304">
        <ele>572.4</ele>
        <time>2019-11-09T11:47:15Z</time>
      </trkpt>
      <trkpt lat="44.84215" lon="4.68305">
        <ele>570.8</ele>
        <time>2019-11-09T11:47:17Z</time>
      </trkpt>
      <trkpt lat="44.8421" lon="4.68304">
        <ele>569.8</ele>
        <time>2019-11-09T11:47:19Z</time>
      </trkpt>
      <trkpt lat="44.84207" lon="4.68303">
        <ele>569.4</ele>
        <time>2019-11-09T11:47:20Z</time>
      </trkpt>
      <trkpt lat="44.84201" lon="4.68302">
        <ele>568.6</ele>
        <time>2019-11-09T11:47:22Z</time>
      </trkpt>
      <trkpt lat="44.84196" lon="4.68294">
        <ele>567.6</ele>
        <time>2019-11-09T11:47:25Z</time>
      </trkpt>
      <trkpt lat="44.84187" lon="4.68281">
        <ele>567.6</ele>
        <time>2019-11-09T11:47:31Z</time>
      </trkpt>
      <trkpt lat="44.84178" lon="4.68269">
        <ele>567.6</ele>
        <time>2019-11-09T11:47:39Z</time>
      </trkpt>
      <trkpt lat="44.84174" lon="4.68261">
        <ele>566.2</ele>
        <time>2019-11-09T11:47:41Z</time>
      </trkpt>
      <trkpt lat="44.84171" lon="4.68257">
        <ele>565.2</ele>
        <time>2019-11-09T11:47:42Z</time>
      </trkpt>
      <trkpt lat="44.84169" lon="4.68254">
        <ele>564.2</ele>
        <time>2019-11-09T11:47:43Z</time>
      </trkpt>
      <trkpt lat="44.84167" lon="4.68251">
        <ele>563</ele>
        <time>2019-11-09T11:47:44Z</time>
      </trkpt>
      <trkpt lat="44.84165" lon="4.6825">
        <ele>562.2</ele>
        <time>2019-11-09T11:47:45Z</time>
      </trkpt>
      <trkpt lat="44.84164" lon="4.68249">
        <ele>561.8</ele>
        <time>2019-11-09T11:47:46Z</time>
      </trkpt>
      <trkpt lat="44.84162" lon="4.68248">
        <ele>561.4</ele>
        <time>2019-11-09T11:47:48Z</time>
      </trkpt>
      <trkpt lat="44.84161" lon="4.68248">
        <ele>561.4</ele>
        <time>2019-11-09T11:47:50Z</time>
      </trkpt>
      <trkpt lat="44.84161" lon="4.68247">
        <ele>561.6</ele>
        <time>2019-11-09T11:47:52Z</time>
      </trkpt>
      <trkpt lat="44.84161" lon="4.68247">
        <ele>561.4</ele>
        <time>2019-11-09T11:47:57Z</time>
      </trkpt>
      <trkpt lat="44.84159" lon="4.68251">
        <ele>561.2</ele>
        <time>2019-11-09T11:48:08Z</time>
      </trkpt>
      <trkpt lat="44.84159" lon="4.68252">
        <ele>560.8</ele>
        <time>2019-11-09T11:48:13Z</time>
      </trkpt>
      <trkpt lat="44.84159" lon="4.68251">
        <ele>560.6</ele>
        <time>2019-11-09T11:48:17Z</time>
      </trkpt>
      <trkpt lat="44.84159" lon="4.68251">
        <ele>560.6</ele>
        <time>2019-11-09T11:48:25Z</time>
      </trkpt>
      <trkpt lat="44.84159" lon="4.68251">
        <ele>560.2</ele>
        <time>2019-11-09T11:48:35Z</time>
      </trkpt>
      <trkpt lat="44.8416" lon="4.68251">
        <ele>560.2</ele>
        <time>2019-11-09T11:48:36Z</time>
      </trkpt>
      <trkpt lat="44.8416" lon="4.68251">
        <ele>560.2</ele>
        <time>2019-11-09T11:48:37Z</time>
      </trkpt>
      <trkpt lat="44.8416" lon="4.68251">
        <ele>560.2</ele>
        <time>2019-11-09T11:48:38Z</time>
      </trkpt>
      <trkpt lat="44.84161" lon="4.68251">
        <ele>560.2</ele>
        <time>2019-11-09T11:48:39Z</time>
      </trkpt>
      <trkpt lat="44.84161" lon="4.68252">
        <ele>560.4</ele>
        <time>2019-11-09T11:48:45Z</time>
      </trkpt>
      <trkpt lat="44.84162" lon="4.68253">
        <ele>560.2</ele>
        <time>2019-11-09T11:48:53Z</time>
      </trkpt>
      <trkpt lat="44.84162" lon="4.68253">
        <ele>560.2</ele>
        <time>2019-11-09T11:48:54Z</time>
      </trkpt>
      <trkpt lat="44.84161" lon="4.68253">
        <ele>560</ele>
        <time>2019-11-09T11:49:01Z</time>
      </trkpt>
      <trkpt lat="44.84161" lon="4.68253">
        <ele>560.2</ele>
        <time>2019-11-09T11:49:05Z</time>
      </trkpt>
      <trkpt lat="44.84154" lon="4.6825">
        <ele>560.2</ele>
        <time>2019-11-09T11:49:14Z</time>
      </trkpt>
      <trkpt lat="44.84153" lon="4.6825">
        <ele>560.4</ele>
        <time>2019-11-09T11:49:25Z</time>
      </trkpt>
      <trkpt lat="44.84152" lon="4.68251">
        <ele>560.2</ele>
        <time>2019-11-09T11:49:37Z</time>
      </trkpt>
      <trkpt lat="44.84153" lon="4.68251">
        <ele>560.4</ele>
        <time>2019-11-09T11:49:45Z</time>
      </trkpt>
      <trkpt lat="44.84152" lon="4.68252">
        <ele>560.4</ele>
        <time>2019-11-09T11:49:47Z</time>
      </trkpt>
      <trkpt lat="44.84152" lon="4.68253">
        <ele>560.6</ele>
        <time>2019-11-09T11:49:54Z</time>
      </trkpt>
      <trkpt lat="44.84148" lon="4.68256">
        <ele>560.6</ele>
        <time>2019-11-09T11:49:58Z</time>
      </trkpt>
      <trkpt lat="44.84147" lon="4.68257">
        <ele>560.6</ele>
        <time>2019-11-09T11:49:59Z</time>
      </trkpt>
      <trkpt lat="44.84138" lon="4.68257">
        <ele>560.6</ele>
        <time>2019-11-09T11:50:04Z</time>
      </trkpt>
      <trkpt lat="44.84134" lon="4.68255">
        <ele>560.6</ele>
        <time>2019-11-09T11:50:06Z</time>
      </trkpt>
      <trkpt lat="44.84129" lon="4.68254">
        <ele>560.2</ele>
        <time>2019-11-09T11:50:09Z</time>
      </trkpt>
      <trkpt lat="44.84125" lon="4.68255">
        <ele>559.8</ele>
        <time>2019-11-09T11:50:11Z</time>
      </trkpt>
      <trkpt lat="44.84123" lon="4.68256">
        <ele>559.6</ele>
        <time>2019-11-09T11:50:12Z</time>
      </trkpt>
      <trkpt lat="44.84118" lon="4.68256">
        <ele>558.8</ele>
        <time>2019-11-09T11:50:14Z</time>
      </trkpt>
      <trkpt lat="44.84116" lon="4.68256">
        <ele>558.6</ele>
        <time>2019-11-09T11:50:15Z</time>
      </trkpt>
      <trkpt lat="44.84116" lon="4.68256">
        <ele>558.4</ele>
        <time>2019-11-09T11:50:16Z</time>
      </trkpt>
      <trkpt lat="44.84115" lon="4.68256">
        <ele>558.4</ele>
        <time>2019-11-09T11:50:17Z</time>
      </trkpt>
      <trkpt lat="44.84115" lon="4.68254">
        <ele>558.4</ele>
        <time>2019-11-09T11:50:22Z</time>
      </trkpt>
      <trkpt lat="44.84115" lon="4.68254">
        <ele>558.2</ele>
        <time>2019-11-09T11:50:24Z</time>
      </trkpt>
      <trkpt lat="44.84113" lon="4.68255">
        <ele>558</ele>
        <time>2019-11-09T11:50:30Z</time>
      </trkpt>
      <trkpt lat="44.84112" lon="4.68255">
        <ele>558</ele>
        <time>2019-11-09T11:50:32Z</time>
      </trkpt>
      <trkpt lat="44.84109" lon="4.68254">
        <ele>557.8</ele>
        <time>2019-11-09T11:50:34Z</time>
      </trkpt>
      <trkpt lat="44.84107" lon="4.68253">
        <ele>557.6</ele>
        <time>2019-11-09T11:50:35Z</time>
      </trkpt>
      <trkpt lat="44.84102" lon="4.6825">
        <ele>557.6</ele>
        <time>2019-11-09T11:50:38Z</time>
      </trkpt>
      <trkpt lat="44.84098" lon="4.68252">
        <ele>557.6</ele>
        <time>2019-11-09T11:50:41Z</time>
      </trkpt>
      <trkpt lat="44.84096" lon="4.68255">
        <ele>557.4</ele>
        <time>2019-11-09T11:50:43Z</time>
      </trkpt>
      <trkpt lat="44.84092" lon="4.68258">
        <ele>557</ele>
        <time>2019-11-09T11:50:45Z</time>
      </trkpt>
      <trkpt lat="44.84091" lon="4.68258">
        <ele>557</ele>
        <time>2019-11-09T11:50:46Z</time>
      </trkpt>
      <trkpt lat="44.84088" lon="4.68259">
        <ele>556.6</ele>
        <time>2019-11-09T11:50:48Z</time>
      </trkpt>
      <trkpt lat="44.84087" lon="4.6826">
        <ele>556.6</ele>
        <time>2019-11-09T11:50:49Z</time>
      </trkpt>
      <trkpt lat="44.84086" lon="4.68262">
        <ele>556.4</ele>
        <time>2019-11-09T11:50:50Z</time>
      </trkpt>
      <trkpt lat="44.84084" lon="4.68267">
        <ele>555.4</ele>
        <time>2019-11-09T11:50:54Z</time>
      </trkpt>
      <trkpt lat="44.84084" lon="4.68269">
        <ele>554.8</ele>
        <time>2019-11-09T11:50:55Z</time>
      </trkpt>
      <trkpt lat="44.84083" lon="4.68276">
        <ele>553.4</ele>
        <time>2019-11-09T11:50:58Z</time>
      </trkpt>
      <trkpt lat="44.84081" lon="4.68278">
        <ele>553</ele>
        <time>2019-11-09T11:50:59Z</time>
      </trkpt>
      <trkpt lat="44.8408" lon="4.68278">
        <ele>552.4</ele>
        <time>2019-11-09T11:51:00Z</time>
      </trkpt>
      <trkpt lat="44.84077" lon="4.68278">
        <ele>551.2</ele>
        <time>2019-11-09T11:51:02Z</time>
      </trkpt>
      <trkpt lat="44.84074" lon="4.6828">
        <ele>551</ele>
        <time>2019-11-09T11:51:03Z</time>
      </trkpt>
      <trkpt lat="44.8407" lon="4.68281">
        <ele>550.6</ele>
        <time>2019-11-09T11:51:05Z</time>
      </trkpt>
      <trkpt lat="44.84065" lon="4.68284">
        <ele>550.6</ele>
        <time>2019-11-09T11:51:07Z</time>
      </trkpt>
      <trkpt lat="44.84064" lon="4.68285">
        <ele>550.6</ele>
        <time>2019-11-09T11:51:08Z</time>
      </trkpt>
      <trkpt lat="44.84063" lon="4.68284">
        <ele>550.2</ele>
        <time>2019-11-09T11:51:10Z</time>
      </trkpt>
      <trkpt lat="44.84061" lon="4.68284">
        <ele>550.2</ele>
        <time>2019-11-09T11:51:11Z</time>
      </trkpt>
      <trkpt lat="44.84059" lon="4.68283">
        <ele>550</ele>
        <time>2019-11-09T11:51:13Z</time>
      </trkpt>
      <trkpt lat="44.84057" lon="4.68284">
        <ele>549.8</ele>
        <time>2019-11-09T11:51:14Z</time>
      </trkpt>
      <trkpt lat="44.84049" lon="4.68287">
        <ele>549.8</ele>
        <time>2019-11-09T11:51:19Z</time>
      </trkpt>
      <trkpt lat="44.84042" lon="4.68293">
        <ele>549.8</ele>
        <time>2019-11-09T11:51:23Z</time>
      </trkpt>
      <trkpt lat="44.84041" lon="4.68299">
        <ele>549.4</ele>
        <time>2019-11-09T11:51:25Z</time>
      </trkpt>
      <trkpt lat="44.8404" lon="4.68302">
        <ele>549.2</ele>
        <time>2019-11-09T11:51:26Z</time>
      </trkpt>
      <trkpt lat="44.84041" lon="4.68306">
        <ele>548.6</ele>
        <time>2019-11-09T11:51:28Z</time>
      </trkpt>
      <trkpt lat="44.84041" lon="4.68313">
        <ele>548</ele>
        <time>2019-11-09T11:51:30Z</time>
      </trkpt>
      <trkpt lat="44.8404" lon="4.68319">
        <ele>546.8</ele>
        <time>2019-11-09T11:51:32Z</time>
      </trkpt>
      <trkpt lat="44.84039" lon="4.68324">
        <ele>546</ele>
        <time>2019-11-09T11:51:34Z</time>
      </trkpt>
      <trkpt lat="44.84038" lon="4.68326">
        <ele>545.6</ele>
        <time>2019-11-09T11:51:35Z</time>
      </trkpt>
      <trkpt lat="44.84038" lon="4.68327">
        <ele>545.4</ele>
        <time>2019-11-09T11:51:36Z</time>
      </trkpt>
      <trkpt lat="44.84038" lon="4.68337">
        <ele>544.8</ele>
        <time>2019-11-09T11:51:41Z</time>
      </trkpt>
      <trkpt lat="44.84038" lon="4.68339">
        <ele>544.8</ele>
        <time>2019-11-09T11:51:42Z</time>
      </trkpt>
      <trkpt lat="44.84034" lon="4.68343">
        <ele>545.2</ele>
        <time>2019-11-09T11:51:46Z</time>
      </trkpt>
      <trkpt lat="44.84033" lon="4.68343">
        <ele>545.6</ele>
        <time>2019-11-09T11:51:47Z</time>
      </trkpt>
      <trkpt lat="44.84032" lon="4.68344">
        <ele>546.2</ele>
        <time>2019-11-09T11:51:49Z</time>
      </trkpt>
      <trkpt lat="44.84028" lon="4.6835">
        <ele>546.6</ele>
        <time>2019-11-09T11:51:52Z</time>
      </trkpt>
      <trkpt lat="44.84023" lon="4.68363">
        <ele>545.6</ele>
        <time>2019-11-09T11:51:56Z</time>
      </trkpt>
      <trkpt lat="44.84023" lon="4.68368">
        <ele>545</ele>
        <time>2019-11-09T11:51:59Z</time>
      </trkpt>
      <trkpt lat="44.84023" lon="4.68372">
        <ele>544.6</ele>
        <time>2019-11-09T11:52:00Z</time>
      </trkpt>
      <trkpt lat="44.84022" lon="4.6838">
        <ele>543.8</ele>
        <time>2019-11-09T11:52:05Z</time>
      </trkpt>
      <trkpt lat="44.84021" lon="4.68381">
        <ele>543.8</ele>
        <time>2019-11-09T11:52:06Z</time>
      </trkpt>
      <trkpt lat="44.84017" lon="4.68385">
        <ele>543.6</ele>
        <time>2019-11-09T11:52:09Z</time>
      </trkpt>
      <trkpt lat="44.84015" lon="4.68385">
        <ele>543.6</ele>
        <time>2019-11-09T11:52:10Z</time>
      </trkpt>
      <trkpt lat="44.84013" lon="4.68385">
        <ele>543.6</ele>
        <time>2019-11-09T11:52:12Z</time>
      </trkpt>
      <trkpt lat="44.84011" lon="4.68388">
        <ele>543.6</ele>
        <time>2019-11-09T11:52:14Z</time>
      </trkpt>
      <trkpt lat="44.84011" lon="4.68388">
        <ele>543.6</ele>
        <time>2019-11-09T11:52:15Z</time>
      </trkpt>
      <trkpt lat="44.8401" lon="4.68391">
        <ele>543.2</ele>
        <time>2019-11-09T11:52:24Z</time>
      </trkpt>
      <trkpt lat="44.84011" lon="4.68393">
        <ele>543.4</ele>
        <time>2019-11-09T11:52:28Z</time>
      </trkpt>
      <trkpt lat="44.84012" lon="4.68395">
        <ele>543.6</ele>
        <time>2019-11-09T11:52:33Z</time>
      </trkpt>
      <trkpt lat="44.84012" lon="4.68395">
        <ele>543.2</ele>
        <time>2019-11-09T11:52:44Z</time>
      </trkpt>
      <trkpt lat="44.84012" lon="4.68395">
        <ele>543</ele>
        <time>2019-11-09T11:52:56Z</time>
      </trkpt>
      <trkpt lat="44.84012" lon="4.68395">
        <ele>542.6</ele>
        <time>2019-11-09T11:53:05Z</time>
      </trkpt>
      <trkpt lat="44.84011" lon="4.68395">
        <ele>542.6</ele>
        <time>2019-11-09T11:53:09Z</time>
      </trkpt>
      <trkpt lat="44.84011" lon="4.68395">
        <ele>542.6</ele>
        <time>2019-11-09T11:53:10Z</time>
      </trkpt>
      <trkpt lat="44.84011" lon="4.68397">
        <ele>542.6</ele>
        <time>2019-11-09T11:53:14Z</time>
      </trkpt>
      <trkpt lat="44.84011" lon="4.68399">
        <ele>542.6</ele>
        <time>2019-11-09T11:53:15Z</time>
      </trkpt>
      <trkpt lat="44.8401" lon="4.68417">
        <ele>541.6</ele>
        <time>2019-11-09T11:53:20Z</time>
      </trkpt>
      <trkpt lat="44.84009" lon="4.68422">
        <ele>541.4</ele>
        <time>2019-11-09T11:53:21Z</time>
      </trkpt>
      <trkpt lat="44.84002" lon="4.68436">
        <ele>540.6</ele>
        <time>2019-11-09T11:53:25Z</time>
      </trkpt>
      <trkpt lat="44.83999" lon="4.68438">
        <ele>540.6</ele>
        <time>2019-11-09T11:53:27Z</time>
      </trkpt>
      <trkpt lat="44.83998" lon="4.68439">
        <ele>540.6</ele>
        <time>2019-11-09T11:53:28Z</time>
      </trkpt>
      <trkpt lat="44.83996" lon="4.6844">
        <ele>540.8</ele>
        <time>2019-11-09T11:53:30Z</time>
      </trkpt>
      <trkpt lat="44.83995" lon="4.68442">
        <ele>540.8</ele>
        <time>2019-11-09T11:53:31Z</time>
      </trkpt>
      <trkpt lat="44.83992" lon="4.68453">
        <ele>540.4</ele>
        <time>2019-11-09T11:53:34Z</time>
      </trkpt>
      <trkpt lat="44.83987" lon="4.68467">
        <ele>539.4</ele>
        <time>2019-11-09T11:53:37Z</time>
      </trkpt>
      <trkpt lat="44.83983" lon="4.68475">
        <ele>538.2</ele>
        <time>2019-11-09T11:53:39Z</time>
      </trkpt>
      <trkpt lat="44.8398" lon="4.6848">
        <ele>537.8</ele>
        <time>2019-11-09T11:53:40Z</time>
      </trkpt>
      <trkpt lat="44.83977" lon="4.68485">
        <ele>537.4</ele>
        <time>2019-11-09T11:53:41Z</time>
      </trkpt>
      <trkpt lat="44.83975" lon="4.68491">
        <ele>536.4</ele>
        <time>2019-11-09T11:53:42Z</time>
      </trkpt>
      <trkpt lat="44.83971" lon="4.68497">
        <ele>535.4</ele>
        <time>2019-11-09T11:53:43Z</time>
      </trkpt>
      <trkpt lat="44.83968" lon="4.68503">
        <ele>534</ele>
        <time>2019-11-09T11:53:44Z</time>
      </trkpt>
      <trkpt lat="44.83966" lon="4.68508">
        <ele>532.6</ele>
        <time>2019-11-09T11:53:45Z</time>
      </trkpt>
      <trkpt lat="44.83961" lon="4.68521">
        <ele>531</ele>
        <time>2019-11-09T11:53:47Z</time>
      </trkpt>
      <trkpt lat="44.83956" lon="4.68537">
        <ele>529.2</ele>
        <time>2019-11-09T11:53:49Z</time>
      </trkpt>
      <trkpt lat="44.83955" lon="4.68545">
        <ele>528.6</ele>
        <time>2019-11-09T11:53:50Z</time>
      </trkpt>
      <trkpt lat="44.83954" lon="4.68552">
        <ele>528.2</ele>
        <time>2019-11-09T11:53:51Z</time>
      </trkpt>
      <trkpt lat="44.83955" lon="4.6856">
        <ele>528</ele>
        <time>2019-11-09T11:53:52Z</time>
      </trkpt>
      <trkpt lat="44.83955" lon="4.68567">
        <ele>527.8</ele>
        <time>2019-11-09T11:53:53Z</time>
      </trkpt>
      <trkpt lat="44.83956" lon="4.68574">
        <ele>527.4</ele>
        <time>2019-11-09T11:53:54Z</time>
      </trkpt>
      <trkpt lat="44.83958" lon="4.68581">
        <ele>527</ele>
        <time>2019-11-09T11:53:55Z</time>
      </trkpt>
      <trkpt lat="44.83961" lon="4.68587">
        <ele>526.4</ele>
        <time>2019-11-09T11:53:56Z</time>
      </trkpt>
      <trkpt lat="44.83964" lon="4.68594">
        <ele>525.6</ele>
        <time>2019-11-09T11:53:57Z</time>
      </trkpt>
      <trkpt lat="44.83967" lon="4.68609">
        <ele>524.2</ele>
        <time>2019-11-09T11:53:59Z</time>
      </trkpt>
      <trkpt lat="44.8397" lon="4.68625">
        <ele>522.8</ele>
        <time>2019-11-09T11:54:01Z</time>
      </trkpt>
      <trkpt lat="44.83971" lon="4.68643">
        <ele>521.4</ele>
        <time>2019-11-09T11:54:03Z</time>
      </trkpt>
      <trkpt lat="44.83972" lon="4.68651">
        <ele>521.2</ele>
        <time>2019-11-09T11:54:04Z</time>
      </trkpt>
      <trkpt lat="44.83973" lon="4.68667">
        <ele>520.4</ele>
        <time>2019-11-09T11:54:06Z</time>
      </trkpt>
      <trkpt lat="44.83976" lon="4.6868">
        <ele>518.8</ele>
        <time>2019-11-09T11:54:08Z</time>
      </trkpt>
      <trkpt lat="44.83978" lon="4.68685">
        <ele>517.8</ele>
        <time>2019-11-09T11:54:09Z</time>
      </trkpt>
      <trkpt lat="44.8398" lon="4.6869">
        <ele>516.6</ele>
        <time>2019-11-09T11:54:10Z</time>
      </trkpt>
      <trkpt lat="44.83982" lon="4.68695">
        <ele>516</ele>
        <time>2019-11-09T11:54:11Z</time>
      </trkpt>
      <trkpt lat="44.83983" lon="4.687">
        <ele>515.2</ele>
        <time>2019-11-09T11:54:12Z</time>
      </trkpt>
      <trkpt lat="44.83984" lon="4.68705">
        <ele>514.4</ele>
        <time>2019-11-09T11:54:13Z</time>
      </trkpt>
      <trkpt lat="44.83986" lon="4.68711">
        <ele>513.8</ele>
        <time>2019-11-09T11:54:14Z</time>
      </trkpt>
      <trkpt lat="44.83991" lon="4.68722">
        <ele>512.2</ele>
        <time>2019-11-09T11:54:17Z</time>
      </trkpt>
      <trkpt lat="44.83989" lon="4.6874">
        <ele>511.4</ele>
        <time>2019-11-09T11:54:21Z</time>
      </trkpt>
      <trkpt lat="44.83988" lon="4.68744">
        <ele>510.8</ele>
        <time>2019-11-09T11:54:22Z</time>
      </trkpt>
      <trkpt lat="44.83985" lon="4.68753">
        <ele>509.4</ele>
        <time>2019-11-09T11:54:24Z</time>
      </trkpt>
      <trkpt lat="44.83984" lon="4.68757">
        <ele>508.4</ele>
        <time>2019-11-09T11:54:25Z</time>
      </trkpt>
      <trkpt lat="44.83984" lon="4.6876">
        <ele>507.4</ele>
        <time>2019-11-09T11:54:26Z</time>
      </trkpt>
      <trkpt lat="44.83984" lon="4.68762">
        <ele>507</ele>
        <time>2019-11-09T11:54:27Z</time>
      </trkpt>
      <trkpt lat="44.83984" lon="4.68777">
        <ele>506</ele>
        <time>2019-11-09T11:54:31Z</time>
      </trkpt>
      <trkpt lat="44.83984" lon="4.6878">
        <ele>505.6</ele>
        <time>2019-11-09T11:54:32Z</time>
      </trkpt>
      <trkpt lat="44.83984" lon="4.68788">
        <ele>504.8</ele>
        <time>2019-11-09T11:54:34Z</time>
      </trkpt>
      <trkpt lat="44.83985" lon="4.68792">
        <ele>504.4</ele>
        <time>2019-11-09T11:54:35Z</time>
      </trkpt>
      <trkpt lat="44.83986" lon="4.68805">
        <ele>503</ele>
        <time>2019-11-09T11:54:38Z</time>
      </trkpt>
      <trkpt lat="44.83985" lon="4.68809">
        <ele>502</ele>
        <time>2019-11-09T11:54:39Z</time>
      </trkpt>
      <trkpt lat="44.83984" lon="4.68815">
        <ele>501.2</ele>
        <time>2019-11-09T11:54:40Z</time>
      </trkpt>
      <trkpt lat="44.83981" lon="4.68824">
        <ele>500</ele>
        <time>2019-11-09T11:54:42Z</time>
      </trkpt>
      <trkpt lat="44.83979" lon="4.68835">
        <ele>498.2</ele>
        <time>2019-11-09T11:54:44Z</time>
      </trkpt>
      <trkpt lat="44.8398" lon="4.68839">
        <ele>497.6</ele>
        <time>2019-11-09T11:54:45Z</time>
      </trkpt>
      <trkpt lat="44.8398" lon="4.68845">
        <ele>497</ele>
        <time>2019-11-09T11:54:46Z</time>
      </trkpt>
      <trkpt lat="44.83982" lon="4.68857">
        <ele>495.4</ele>
        <time>2019-11-09T11:54:48Z</time>
      </trkpt>
      <trkpt lat="44.83983" lon="4.68869">
        <ele>493.8</ele>
        <time>2019-11-09T11:54:50Z</time>
      </trkpt>
      <trkpt lat="44.83985" lon="4.68878">
        <ele>492.4</ele>
        <time>2019-11-09T11:54:52Z</time>
      </trkpt>
      <trkpt lat="44.83985" lon="4.68889">
        <ele>491</ele>
        <time>2019-11-09T11:54:54Z</time>
      </trkpt>
      <trkpt lat="44.83985" lon="4.689">
        <ele>490</ele>
        <time>2019-11-09T11:54:56Z</time>
      </trkpt>
      <trkpt lat="44.83985" lon="4.68905">
        <ele>489.4</ele>
        <time>2019-11-09T11:54:57Z</time>
      </trkpt>
      <trkpt lat="44.83984" lon="4.68916">
        <ele>488.6</ele>
        <time>2019-11-09T11:54:59Z</time>
      </trkpt>
      <trkpt lat="44.83985" lon="4.68923">
        <ele>488</ele>
        <time>2019-11-09T11:55:00Z</time>
      </trkpt>
      <trkpt lat="44.83984" lon="4.68929">
        <ele>487.2</ele>
        <time>2019-11-09T11:55:01Z</time>
      </trkpt>
      <trkpt lat="44.83984" lon="4.68935">
        <ele>486.2</ele>
        <time>2019-11-09T11:55:02Z</time>
      </trkpt>
      <trkpt lat="44.83981" lon="4.68947">
        <ele>485</ele>
        <time>2019-11-09T11:55:04Z</time>
      </trkpt>
      <trkpt lat="44.83978" lon="4.68955">
        <ele>484.4</ele>
        <time>2019-11-09T11:55:06Z</time>
      </trkpt>
      <trkpt lat="44.83976" lon="4.68958">
        <ele>483.8</ele>
        <time>2019-11-09T11:55:07Z</time>
      </trkpt>
      <trkpt lat="44.83973" lon="4.68964">
        <ele>482.2</ele>
        <time>2019-11-09T11:55:09Z</time>
      </trkpt>
      <trkpt lat="44.83971" lon="4.68968">
        <ele>481.2</ele>
        <time>2019-11-09T11:55:11Z</time>
      </trkpt>
      <trkpt lat="44.83969" lon="4.68971">
        <ele>480.8</ele>
        <time>2019-11-09T11:55:12Z</time>
      </trkpt>
      <trkpt lat="44.83965" lon="4.68973">
        <ele>479.6</ele>
        <time>2019-11-09T11:55:14Z</time>
      </trkpt>
      <trkpt lat="44.83964" lon="4.68975">
        <ele>479</ele>
        <time>2019-11-09T11:55:15Z</time>
      </trkpt>
      <trkpt lat="44.83962" lon="4.68977">
        <ele>478.2</ele>
        <time>2019-11-09T11:55:17Z</time>
      </trkpt>
      <trkpt lat="44.83958" lon="4.68979">
        <ele>477.4</ele>
        <time>2019-11-09T11:55:19Z</time>
      </trkpt>
      <trkpt lat="44.83955" lon="4.68981">
        <ele>477</ele>
        <time>2019-11-09T11:55:20Z</time>
      </trkpt>
      <trkpt lat="44.83947" lon="4.68988">
        <ele>476</ele>
        <time>2019-11-09T11:55:24Z</time>
      </trkpt>
      <trkpt lat="44.83942" lon="4.68995">
        <ele>474.8</ele>
        <time>2019-11-09T11:55:27Z</time>
      </trkpt>
      <trkpt lat="44.8394" lon="4.69001">
        <ele>473.4</ele>
        <time>2019-11-09T11:55:29Z</time>
      </trkpt>
      <trkpt lat="44.83936" lon="4.69007">
        <ele>472.2</ele>
        <time>2019-11-09T11:55:32Z</time>
      </trkpt>
      <trkpt lat="44.83932" lon="4.69014">
        <ele>471</ele>
        <time>2019-11-09T11:55:35Z</time>
      </trkpt>
      <trkpt lat="44.83929" lon="4.69016">
        <ele>469.6</ele>
        <time>2019-11-09T11:55:37Z</time>
      </trkpt>
      <trkpt lat="44.83924" lon="4.69025">
        <ele>468.4</ele>
        <time>2019-11-09T11:55:40Z</time>
      </trkpt>
      <trkpt lat="44.83919" lon="4.69034">
        <ele>467.2</ele>
        <time>2019-11-09T11:55:42Z</time>
      </trkpt>
      <trkpt lat="44.83916" lon="4.6904">
        <ele>465.6</ele>
        <time>2019-11-09T11:55:44Z</time>
      </trkpt>
      <trkpt lat="44.83913" lon="4.69048">
        <ele>464.6</ele>
        <time>2019-11-09T11:55:46Z</time>
      </trkpt>
      <trkpt lat="44.83912" lon="4.69057">
        <ele>463.4</ele>
        <time>2019-11-09T11:55:48Z</time>
      </trkpt>
      <trkpt lat="44.83912" lon="4.69061">
        <ele>463</ele>
        <time>2019-11-09T11:55:49Z</time>
      </trkpt>
      <trkpt lat="44.83912" lon="4.69064">
        <ele>462.4</ele>
        <time>2019-11-09T11:55:50Z</time>
      </trkpt>
      <trkpt lat="44.83911" lon="4.69072">
        <ele>461</ele>
        <time>2019-11-09T11:55:52Z</time>
      </trkpt>
      <trkpt lat="44.83909" lon="4.69079">
        <ele>460</ele>
        <time>2019-11-09T11:55:54Z</time>
      </trkpt>
      <trkpt lat="44.83908" lon="4.69082">
        <ele>459.6</ele>
        <time>2019-11-09T11:55:55Z</time>
      </trkpt>
      <trkpt lat="44.83904" lon="4.69095">
        <ele>458.2</ele>
        <time>2019-11-09T11:55:58Z</time>
      </trkpt>
      <trkpt lat="44.83903" lon="4.69101">
        <ele>457.8</ele>
        <time>2019-11-09T11:55:59Z</time>
      </trkpt>
      <trkpt lat="44.83901" lon="4.69111">
        <ele>456.8</ele>
        <time>2019-11-09T11:56:01Z</time>
      </trkpt>
      <trkpt lat="44.83898" lon="4.69119">
        <ele>455.4</ele>
        <time>2019-11-09T11:56:03Z</time>
      </trkpt>
      <trkpt lat="44.83896" lon="4.69123">
        <ele>454.8</ele>
        <time>2019-11-09T11:56:04Z</time>
      </trkpt>
      <trkpt lat="44.83894" lon="4.69124">
        <ele>454.2</ele>
        <time>2019-11-09T11:56:05Z</time>
      </trkpt>
      <trkpt lat="44.83889" lon="4.6913">
        <ele>452.8</ele>
        <time>2019-11-09T11:56:07Z</time>
      </trkpt>
      <trkpt lat="44.83887" lon="4.69133">
        <ele>452.2</ele>
        <time>2019-11-09T11:56:08Z</time>
      </trkpt>
      <trkpt lat="44.83886" lon="4.69134">
        <ele>451.8</ele>
        <time>2019-11-09T11:56:09Z</time>
      </trkpt>
      <trkpt lat="44.83884" lon="4.69135">
        <ele>451.2</ele>
        <time>2019-11-09T11:56:11Z</time>
      </trkpt>
      <trkpt lat="44.83884" lon="4.69136">
        <ele>450.6</ele>
        <time>2019-11-09T11:56:18Z</time>
      </trkpt>
      <trkpt lat="44.83885" lon="4.69137">
        <ele>450.6</ele>
        <time>2019-11-09T11:56:21Z</time>
      </trkpt>
      <trkpt lat="44.83885" lon="4.69137">
        <ele>450.6</ele>
        <time>2019-11-09T11:56:26Z</time>
      </trkpt>
      <trkpt lat="44.83886" lon="4.69137">
        <ele>450.4</ele>
        <time>2019-11-09T11:56:31Z</time>
      </trkpt>
      <trkpt lat="44.83887" lon="4.69138">
        <ele>450.2</ele>
        <time>2019-11-09T11:56:37Z</time>
      </trkpt>
      <trkpt lat="44.83886" lon="4.69138">
        <ele>450</ele>
        <time>2019-11-09T11:56:40Z</time>
      </trkpt>
      <trkpt lat="44.83886" lon="4.69138">
        <ele>450</ele>
        <time>2019-11-09T11:56:43Z</time>
      </trkpt>
      <trkpt lat="44.83886" lon="4.69139">
        <ele>450</ele>
        <time>2019-11-09T11:56:50Z</time>
      </trkpt>
      <trkpt lat="44.83886" lon="4.69139">
        <ele>450</ele>
        <time>2019-11-09T11:56:54Z</time>
      </trkpt>
      <trkpt lat="44.83886" lon="4.69139">
        <ele>449.8</ele>
        <time>2019-11-09T11:56:55Z</time>
      </trkpt>
      <trkpt lat="44.83886" lon="4.69139">
        <ele>449.8</ele>
        <time>2019-11-09T11:56:56Z</time>
      </trkpt>
      <trkpt lat="44.83886" lon="4.69138">
        <ele>449.8</ele>
        <time>2019-11-09T11:57:02Z</time>
      </trkpt>
      <trkpt lat="44.83886" lon="4.69138">
        <ele>450.2</ele>
        <time>2019-11-09T11:57:06Z</time>
      </trkpt>
      <trkpt lat="44.83888" lon="4.69138">
        <ele>450.2</ele>
        <time>2019-11-09T11:57:13Z</time>
      </trkpt>
      <trkpt lat="44.83886" lon="4.69138">
        <ele>449.8</ele>
        <time>2019-11-09T11:57:20Z</time>
      </trkpt>
      <trkpt lat="44.83886" lon="4.69137">
        <ele>450</ele>
        <time>2019-11-09T11:57:26Z</time>
      </trkpt>
      <trkpt lat="44.83886" lon="4.69136">
        <ele>449.6</ele>
        <time>2019-11-09T11:57:34Z</time>
      </trkpt>
      <trkpt lat="44.83886" lon="4.69139">
        <ele>449.8</ele>
        <time>2019-11-09T11:57:41Z</time>
      </trkpt>
      <trkpt lat="44.83886" lon="4.6914">
        <ele>449.8</ele>
        <time>2019-11-09T11:57:42Z</time>
      </trkpt>
      <trkpt lat="44.83884" lon="4.69144">
        <ele>449.4</ele>
        <time>2019-11-09T11:57:44Z</time>
      </trkpt>
      <trkpt lat="44.83882" lon="4.69147">
        <ele>449.2</ele>
        <time>2019-11-09T11:57:45Z</time>
      </trkpt>
      <trkpt lat="44.83874" lon="4.69157">
        <ele>448.4</ele>
        <time>2019-11-09T11:57:49Z</time>
      </trkpt>
      <trkpt lat="44.83872" lon="4.69159">
        <ele>448</ele>
        <time>2019-11-09T11:57:50Z</time>
      </trkpt>
      <trkpt lat="44.83867" lon="4.69164">
        <ele>447</ele>
        <time>2019-11-09T11:57:52Z</time>
      </trkpt>
      <trkpt lat="44.83861" lon="4.69171">
        <ele>445.2</ele>
        <time>2019-11-09T11:57:54Z</time>
      </trkpt>
      <trkpt lat="44.83856" lon="4.69177">
        <ele>444.2</ele>
        <time>2019-11-09T11:57:56Z</time>
      </trkpt>
      <trkpt lat="44.83846" lon="4.69184">
        <ele>442.6</ele>
        <time>2019-11-09T11:57:59Z</time>
      </trkpt>
      <trkpt lat="44.83842" lon="4.69187">
        <ele>442.2</ele>
        <time>2019-11-09T11:58:00Z</time>
      </trkpt>
      <trkpt lat="44.83834" lon="4.69188">
        <ele>441.4</ele>
        <time>2019-11-09T11:58:02Z</time>
      </trkpt>
      <trkpt lat="44.83827" lon="4.69188">
        <ele>440.2</ele>
        <time>2019-11-09T11:58:04Z</time>
      </trkpt>
      <trkpt lat="44.83819" lon="4.69187">
        <ele>438.6</ele>
        <time>2019-11-09T11:58:07Z</time>
      </trkpt>
      <trkpt lat="44.83815" lon="4.69186">
        <ele>437.2</ele>
        <time>2019-11-09T11:58:09Z</time>
      </trkpt>
      <trkpt lat="44.83813" lon="4.69186">
        <ele>436</ele>
        <time>2019-11-09T11:58:10Z</time>
      </trkpt>
      <trkpt lat="44.83807" lon="4.69189">
        <ele>434.6</ele>
        <time>2019-11-09T11:58:12Z</time>
      </trkpt>
      <trkpt lat="44.83806" lon="4.69192">
        <ele>434.2</ele>
        <time>2019-11-09T11:58:13Z</time>
      </trkpt>
      <trkpt lat="44.83805" lon="4.69195">
        <ele>433.6</ele>
        <time>2019-11-09T11:58:14Z</time>
      </trkpt>
      <trkpt lat="44.83804" lon="4.69199">
        <ele>432.6</ele>
        <time>2019-11-09T11:58:15Z</time>
      </trkpt>
      <trkpt lat="44.83805" lon="4.69203">
        <ele>431.2</ele>
        <time>2019-11-09T11:58:16Z</time>
      </trkpt>
      <trkpt lat="44.83806" lon="4.69208">
        <ele>430.2</ele>
        <time>2019-11-09T11:58:17Z</time>
      </trkpt>
      <trkpt lat="44.83808" lon="4.69217">
        <ele>428.8</ele>
        <time>2019-11-09T11:58:19Z</time>
      </trkpt>
      <trkpt lat="44.83808" lon="4.69226">
        <ele>427.4</ele>
        <time>2019-11-09T11:58:21Z</time>
      </trkpt>
      <trkpt lat="44.83808" lon="4.69231">
        <ele>426.8</ele>
        <time>2019-11-09T11:58:22Z</time>
      </trkpt>
      <trkpt lat="44.83809" lon="4.69237">
        <ele>426</ele>
        <time>2019-11-09T11:58:23Z</time>
      </trkpt>
      <trkpt lat="44.83812" lon="4.69248">
        <ele>424.2</ele>
        <time>2019-11-09T11:58:25Z</time>
      </trkpt>
      <trkpt lat="44.83814" lon="4.69254">
        <ele>423.6</ele>
        <time>2019-11-09T11:58:26Z</time>
      </trkpt>
      <trkpt lat="44.83814" lon="4.69261">
        <ele>422.8</ele>
        <time>2019-11-09T11:58:27Z</time>
      </trkpt>
      <trkpt lat="44.83811" lon="4.69268">
        <ele>421.4</ele>
        <time>2019-11-09T11:58:29Z</time>
      </trkpt>
      <trkpt lat="44.83809" lon="4.69268">
        <ele>420.8</ele>
        <time>2019-11-09T11:58:32Z</time>
      </trkpt>
      <trkpt lat="44.8381" lon="4.69268">
        <ele>420.8</ele>
        <time>2019-11-09T11:58:40Z</time>
      </trkpt>
      <trkpt lat="44.8381" lon="4.69267">
        <ele>420.8</ele>
        <time>2019-11-09T11:58:52Z</time>
      </trkpt>
      <trkpt lat="44.8381" lon="4.69267">
        <ele>420.4</ele>
        <time>2019-11-09T11:59:03Z</time>
      </trkpt>
      <trkpt lat="44.8381" lon="4.69267">
        <ele>420.4</ele>
        <time>2019-11-09T11:59:06Z</time>
      </trkpt>
      <trkpt lat="44.8381" lon="4.69267">
        <ele>420.6</ele>
        <time>2019-11-09T11:59:09Z</time>
      </trkpt>
      <trkpt lat="44.83812" lon="4.69268">
        <ele>420.2</ele>
        <time>2019-11-09T11:59:19Z</time>
      </trkpt>
      <trkpt lat="44.83812" lon="4.69267">
        <ele>420</ele>
        <time>2019-11-09T11:59:24Z</time>
      </trkpt>
      <trkpt lat="44.83812" lon="4.69268">
        <ele>420</ele>
        <time>2019-11-09T11:59:30Z</time>
      </trkpt>
      <trkpt lat="44.83811" lon="4.69268">
        <ele>420.4</ele>
        <time>2019-11-09T11:59:36Z</time>
      </trkpt>
      <trkpt lat="44.83811" lon="4.69268">
        <ele>420.4</ele>
        <time>2019-11-09T11:59:39Z</time>
      </trkpt>
      <trkpt lat="44.8381" lon="4.69266">
        <ele>420.4</ele>
        <time>2019-11-09T11:59:42Z</time>
      </trkpt>
      <trkpt lat="44.8381" lon="4.69265">
        <ele>420.4</ele>
        <time>2019-11-09T11:59:43Z</time>
      </trkpt>
      <trkpt lat="44.83809" lon="4.69262">
        <ele>420.4</ele>
        <time>2019-11-09T11:59:45Z</time>
      </trkpt>
      <trkpt lat="44.83807" lon="4.69263">
        <ele>420.2</ele>
        <time>2019-11-09T11:59:48Z</time>
      </trkpt>
      <trkpt lat="44.83808" lon="4.69265">
        <ele>420</ele>
        <time>2019-11-09T11:59:49Z</time>
      </trkpt>
      <trkpt lat="44.83812" lon="4.69277">
        <ele>419</ele>
        <time>2019-11-09T11:59:53Z</time>
      </trkpt>
      <trkpt lat="44.8381" lon="4.69289">
        <ele>417.6</ele>
        <time>2019-11-09T11:59:56Z</time>
      </trkpt>
      <trkpt lat="44.83808" lon="4.69295">
        <ele>416.6</ele>
        <time>2019-11-09T11:59:58Z</time>
      </trkpt>
      <trkpt lat="44.83807" lon="4.69298">
        <ele>416.4</ele>
        <time>2019-11-09T11:59:59Z</time>
      </trkpt>
      <trkpt lat="44.838" lon="4.6931">
        <ele>415.2</ele>
        <time>2019-11-09T12:00:03Z</time>
      </trkpt>
      <trkpt lat="44.83798" lon="4.69312">
        <ele>414.8</ele>
        <time>2019-11-09T12:00:04Z</time>
      </trkpt>
      <trkpt lat="44.83796" lon="4.69314">
        <ele>414.4</ele>
        <time>2019-11-09T12:00:07Z</time>
      </trkpt>
      <trkpt lat="44.83794" lon="4.69315">
        <ele>414.2</ele>
        <time>2019-11-09T12:00:13Z</time>
      </trkpt>
      <trkpt lat="44.83792" lon="4.69316">
        <ele>414.2</ele>
        <time>2019-11-09T12:00:15Z</time>
      </trkpt>
      <trkpt lat="44.83785" lon="4.69321">
        <ele>413.4</ele>
        <time>2019-11-09T12:00:18Z</time>
      </trkpt>
      <trkpt lat="44.83782" lon="4.69323">
        <ele>413</ele>
        <time>2019-11-09T12:00:19Z</time>
      </trkpt>
      <trkpt lat="44.83774" lon="4.69329">
        <ele>411.6</ele>
        <time>2019-11-09T12:00:21Z</time>
      </trkpt>
      <trkpt lat="44.83761" lon="4.69338">
        <ele>410</ele>
        <time>2019-11-09T12:00:24Z</time>
      </trkpt>
      <trkpt lat="44.83756" lon="4.6934">
        <ele>409.4</ele>
        <time>2019-11-09T12:00:25Z</time>
      </trkpt>
      <trkpt lat="44.83751" lon="4.69341">
        <ele>408.8</ele>
        <time>2019-11-09T12:00:26Z</time>
      </trkpt>
      <trkpt lat="44.83739" lon="4.69345">
        <ele>408.4</ele>
        <time>2019-11-09T12:00:29Z</time>
      </trkpt>
      <trkpt lat="44.83713" lon="4.69351">
        <ele>407.8</ele>
        <time>2019-11-09T12:00:35Z</time>
      </trkpt>
      <trkpt lat="44.83709" lon="4.69352">
        <ele>407.4</ele>
        <time>2019-11-09T12:00:36Z</time>
      </trkpt>
      <trkpt lat="44.83696" lon="4.69362">
        <ele>407</ele>
        <time>2019-11-09T12:00:41Z</time>
      </trkpt>
      <trkpt lat="44.83694" lon="4.69379">
        <ele>407</ele>
        <time>2019-11-09T12:00:45Z</time>
      </trkpt>
      <trkpt lat="44.83692" lon="4.69383">
        <ele>407</ele>
        <time>2019-11-09T12:00:46Z</time>
      </trkpt>
      <trkpt lat="44.83687" lon="4.69386">
        <ele>406.8</ele>
        <time>2019-11-09T12:00:47Z</time>
      </trkpt>
      <trkpt lat="44.83682" lon="4.69387">
        <ele>406.4</ele>
        <time>2019-11-09T12:00:48Z</time>
      </trkpt>
      <trkpt lat="44.83676" lon="4.69387">
        <ele>405.8</ele>
        <time>2019-11-09T12:00:49Z</time>
      </trkpt>
      <trkpt lat="44.8367" lon="4.69388">
        <ele>405</ele>
        <time>2019-11-09T12:00:50Z</time>
      </trkpt>
      <trkpt lat="44.83658" lon="4.69389">
        <ele>403.6</ele>
        <time>2019-11-09T12:00:52Z</time>
      </trkpt>
      <trkpt lat="44.83652" lon="4.69391">
        <ele>403.2</ele>
        <time>2019-11-09T12:00:53Z</time>
      </trkpt>
      <trkpt lat="44.83646" lon="4.69393">
        <ele>403</ele>
        <time>2019-11-09T12:00:54Z</time>
      </trkpt>
      <trkpt lat="44.8364" lon="4.69396">
        <ele>403</ele>
        <time>2019-11-09T12:00:55Z</time>
      </trkpt>
      <trkpt lat="44.83628" lon="4.69403">
        <ele>402.6</ele>
        <time>2019-11-09T12:00:57Z</time>
      </trkpt>
      <trkpt lat="44.8361" lon="4.69414">
        <ele>401</ele>
        <time>2019-11-09T12:01:00Z</time>
      </trkpt>
      <trkpt lat="44.83604" lon="4.69417">
        <ele>400.2</ele>
        <time>2019-11-09T12:01:01Z</time>
      </trkpt>
      <trkpt lat="44.83597" lon="4.69421">
        <ele>399.4</ele>
        <time>2019-11-09T12:01:02Z</time>
      </trkpt>
      <trkpt lat="44.83589" lon="4.69425">
        <ele>398.4</ele>
        <time>2019-11-09T12:01:03Z</time>
      </trkpt>
      <trkpt lat="44.83582" lon="4.69428">
        <ele>397</ele>
        <time>2019-11-09T12:01:04Z</time>
      </trkpt>
      <trkpt lat="44.83576" lon="4.69431">
        <ele>396.2</ele>
        <time>2019-11-09T12:01:05Z</time>
      </trkpt>
      <trkpt lat="44.83571" lon="4.69434">
        <ele>395.2</ele>
        <time>2019-11-09T12:01:06Z</time>
      </trkpt>
      <trkpt lat="44.83562" lon="4.69439">
        <ele>394</ele>
        <time>2019-11-09T12:01:08Z</time>
      </trkpt>
      <trkpt lat="44.83554" lon="4.69437">
        <ele>393.4</ele>
        <time>2019-11-09T12:01:10Z</time>
      </trkpt>
      <trkpt lat="44.83553" lon="4.69437">
        <ele>393.2</ele>
        <time>2019-11-09T12:01:11Z</time>
      </trkpt>
      <trkpt lat="44.83552" lon="4.69441">
        <ele>393</ele>
        <time>2019-11-09T12:01:13Z</time>
      </trkpt>
      <trkpt lat="44.83555" lon="4.69451">
        <ele>392.2</ele>
        <time>2019-11-09T12:01:15Z</time>
      </trkpt>
      <trkpt lat="44.83556" lon="4.69458">
        <ele>391.2</ele>
        <time>2019-11-09T12:01:16Z</time>
      </trkpt>
      <trkpt lat="44.83557" lon="4.69465">
        <ele>390</ele>
        <time>2019-11-09T12:01:17Z</time>
      </trkpt>
      <trkpt lat="44.83559" lon="4.69479">
        <ele>388</ele>
        <time>2019-11-09T12:01:19Z</time>
      </trkpt>
      <trkpt lat="44.83561" lon="4.69494">
        <ele>386.4</ele>
        <time>2019-11-09T12:01:21Z</time>
      </trkpt>
      <trkpt lat="44.83559" lon="4.6951">
        <ele>384.8</ele>
        <time>2019-11-09T12:01:23Z</time>
      </trkpt>
      <trkpt lat="44.83555" lon="4.69524">
        <ele>383.2</ele>
        <time>2019-11-09T12:01:25Z</time>
      </trkpt>
      <trkpt lat="44.8355" lon="4.69536">
        <ele>381.8</ele>
        <time>2019-11-09T12:01:27Z</time>
      </trkpt>
      <trkpt lat="44.83545" lon="4.69549">
        <ele>380.6</ele>
        <time>2019-11-09T12:01:30Z</time>
      </trkpt>
      <trkpt lat="44.8354" lon="4.69555">
        <ele>380.2</ele>
        <time>2019-11-09T12:01:32Z</time>
      </trkpt>
      <trkpt lat="44.83534" lon="4.69562">
        <ele>380</ele>
        <time>2019-11-09T12:01:34Z</time>
      </trkpt>
      <trkpt lat="44.83519" lon="4.69575">
        <ele>380</ele>
        <time>2019-11-09T12:01:39Z</time>
      </trkpt>
      <trkpt lat="44.8351" lon="4.6958">
        <ele>379.4</ele>
        <time>2019-11-09T12:01:42Z</time>
      </trkpt>
      <trkpt lat="44.83508" lon="4.69584">
        <ele>379.2</ele>
        <time>2019-11-09T12:01:43Z</time>
      </trkpt>
      <trkpt lat="44.835" lon="4.69612">
        <ele>378.6</ele>
        <time>2019-11-09T12:01:49Z</time>
      </trkpt>
      <trkpt lat="44.835" lon="4.69617">
        <ele>378.4</ele>
        <time>2019-11-09T12:01:50Z</time>
      </trkpt>
      <trkpt lat="44.83495" lon="4.69635">
        <ele>377.4</ele>
        <time>2019-11-09T12:01:54Z</time>
      </trkpt>
      <trkpt lat="44.83493" lon="4.69641">
        <ele>377</ele>
        <time>2019-11-09T12:01:55Z</time>
      </trkpt>
      <trkpt lat="44.8349" lon="4.69652">
        <ele>375.8</ele>
        <time>2019-11-09T12:01:57Z</time>
      </trkpt>
      <trkpt lat="44.83487" lon="4.69658">
        <ele>375.6</ele>
        <time>2019-11-09T12:01:58Z</time>
      </trkpt>
      <trkpt lat="44.83484" lon="4.69665">
        <ele>375.4</ele>
        <time>2019-11-09T12:01:59Z</time>
      </trkpt>
      <trkpt lat="44.8348" lon="4.69672">
        <ele>375</ele>
        <time>2019-11-09T12:02:00Z</time>
      </trkpt>
      <trkpt lat="44.83477" lon="4.69679">
        <ele>374.6</ele>
        <time>2019-11-09T12:02:01Z</time>
      </trkpt>
      <trkpt lat="44.83471" lon="4.69689">
        <ele>373.4</ele>
        <time>2019-11-09T12:02:03Z</time>
      </trkpt>
      <trkpt lat="44.83462" lon="4.69693">
        <ele>372.2</ele>
        <time>2019-11-09T12:02:05Z</time>
      </trkpt>
      <trkpt lat="44.83454" lon="4.69695">
        <ele>371.4</ele>
        <time>2019-11-09T12:02:07Z</time>
      </trkpt>
      <trkpt lat="44.8345" lon="4.69693">
        <ele>371</ele>
        <time>2019-11-09T12:02:08Z</time>
      </trkpt>
      <trkpt lat="44.83442" lon="4.69688">
        <ele>369.8</ele>
        <time>2019-11-09T12:02:10Z</time>
      </trkpt>
      <trkpt lat="44.83434" lon="4.69689">
        <ele>368.4</ele>
        <time>2019-11-09T12:02:12Z</time>
      </trkpt>
      <trkpt lat="44.83426" lon="4.6969">
        <ele>367.4</ele>
        <time>2019-11-09T12:02:14Z</time>
      </trkpt>
      <trkpt lat="44.83411" lon="4.69693">
        <ele>367.2</ele>
        <time>2019-11-09T12:02:18Z</time>
      </trkpt>
      <trkpt lat="44.83403" lon="4.69691">
        <ele>366.8</ele>
        <time>2019-11-09T12:02:20Z</time>
      </trkpt>
      <trkpt lat="44.83402" lon="4.69692">
        <ele>366.2</ele>
        <time>2019-11-09T12:02:21Z</time>
      </trkpt>
      <trkpt lat="44.834" lon="4.69695">
        <ele>365.8</ele>
        <time>2019-11-09T12:02:22Z</time>
      </trkpt>
      <trkpt lat="44.83397" lon="4.697">
        <ele>365.2</ele>
        <time>2019-11-09T12:02:23Z</time>
      </trkpt>
      <trkpt lat="44.83393" lon="4.69709">
        <ele>364.2</ele>
        <time>2019-11-09T12:02:25Z</time>
      </trkpt>
      <trkpt lat="44.83392" lon="4.69712">
        <ele>364</ele>
        <time>2019-11-09T12:02:26Z</time>
      </trkpt>
      <trkpt lat="44.83383" lon="4.69727">
        <ele>363.4</ele>
        <time>2019-11-09T12:02:30Z</time>
      </trkpt>
      <trkpt lat="44.83376" lon="4.69729">
        <ele>363.2</ele>
        <time>2019-11-09T12:02:32Z</time>
      </trkpt>
      <trkpt lat="44.83367" lon="4.69733">
        <ele>362.8</ele>
        <time>2019-11-09T12:02:34Z</time>
      </trkpt>
      <trkpt lat="44.83362" lon="4.69736">
        <ele>362.6</ele>
        <time>2019-11-09T12:02:35Z</time>
      </trkpt>
      <trkpt lat="44.8335" lon="4.69739">
        <ele>361.8</ele>
        <time>2019-11-09T12:02:37Z</time>
      </trkpt>
      <trkpt lat="44.83343" lon="4.6974">
        <ele>361.2</ele>
        <time>2019-11-09T12:02:38Z</time>
      </trkpt>
      <trkpt lat="44.83337" lon="4.69741">
        <ele>360.4</ele>
        <time>2019-11-09T12:02:39Z</time>
      </trkpt>
      <trkpt lat="44.83331" lon="4.69742">
        <ele>359.8</ele>
        <time>2019-11-09T12:02:40Z</time>
      </trkpt>
      <trkpt lat="44.83325" lon="4.69741">
        <ele>359.2</ele>
        <time>2019-11-09T12:02:41Z</time>
      </trkpt>
      <trkpt lat="44.83319" lon="4.6974">
        <ele>359</ele>
        <time>2019-11-09T12:02:42Z</time>
      </trkpt>
      <trkpt lat="44.8331" lon="4.69738">
        <ele>359</ele>
        <time>2019-11-09T12:02:44Z</time>
      </trkpt>
      <trkpt lat="44.83297" lon="4.69735">
        <ele>359.6</ele>
        <time>2019-11-09T12:02:47Z</time>
      </trkpt>
      <trkpt lat="44.8329" lon="4.69733">
        <ele>360.4</ele>
        <time>2019-11-09T12:02:49Z</time>
      </trkpt>
      <trkpt lat="44.83276" lon="4.69726">
        <ele>361.4</ele>
        <time>2019-11-09T12:02:54Z</time>
      </trkpt>
      <trkpt lat="44.83254" lon="4.69722">
        <ele>361.6</ele>
        <time>2019-11-09T12:03:00Z</time>
      </trkpt>
      <trkpt lat="44.8324" lon="4.69718">
        <ele>361.8</ele>
        <time>2019-11-09T12:03:04Z</time>
      </trkpt>
      <trkpt lat="44.83234" lon="4.69717">
        <ele>362.4</ele>
        <time>2019-11-09T12:03:06Z</time>
      </trkpt>
      <trkpt lat="44.83226" lon="4.6971">
        <ele>363.2</ele>
        <time>2019-11-09T12:03:09Z</time>
      </trkpt>
      <trkpt lat="44.83224" lon="4.69709">
        <ele>363.4</ele>
        <time>2019-11-09T12:03:10Z</time>
      </trkpt>
      <trkpt lat="44.8322" lon="4.69709">
        <ele>363.8</ele>
        <time>2019-11-09T12:03:11Z</time>
      </trkpt>
      <trkpt lat="44.83213" lon="4.69709">
        <ele>365</ele>
        <time>2019-11-09T12:03:13Z</time>
      </trkpt>
      <trkpt lat="44.83194" lon="4.69709">
        <ele>365.4</ele>
        <time>2019-11-09T12:03:20Z</time>
      </trkpt>
      <trkpt lat="44.83186" lon="4.69711">
        <ele>365</ele>
        <time>2019-11-09T12:03:22Z</time>
      </trkpt>
      <trkpt lat="44.83181" lon="4.69711">
        <ele>364.8</ele>
        <time>2019-11-09T12:03:23Z</time>
      </trkpt>
      <trkpt lat="44.83176" lon="4.69709">
        <ele>364.4</ele>
        <time>2019-11-09T12:03:24Z</time>
      </trkpt>
      <trkpt lat="44.83173" lon="4.69708">
        <ele>363.8</ele>
        <time>2019-11-09T12:03:25Z</time>
      </trkpt>
      <trkpt lat="44.83167" lon="4.69707">
        <ele>363</ele>
        <time>2019-11-09T12:03:27Z</time>
      </trkpt>
      <trkpt lat="44.83164" lon="4.69708">
        <ele>362.4</ele>
        <time>2019-11-09T12:03:28Z</time>
      </trkpt>
      <trkpt lat="44.8316" lon="4.6971">
        <ele>361</ele>
        <time>2019-11-09T12:03:30Z</time>
      </trkpt>
      <trkpt lat="44.83157" lon="4.69712">
        <ele>360</ele>
        <time>2019-11-09T12:03:31Z</time>
      </trkpt>
      <trkpt lat="44.83154" lon="4.69716">
        <ele>359</ele>
        <time>2019-11-09T12:03:32Z</time>
      </trkpt>
      <trkpt lat="44.83151" lon="4.6972">
        <ele>358.2</ele>
        <time>2019-11-09T12:03:33Z</time>
      </trkpt>
      <trkpt lat="44.83149" lon="4.69725">
        <ele>357.6</ele>
        <time>2019-11-09T12:03:34Z</time>
      </trkpt>
      <trkpt lat="44.83145" lon="4.69733">
        <ele>356.4</ele>
        <time>2019-11-09T12:03:36Z</time>
      </trkpt>
      <trkpt lat="44.83139" lon="4.69741">
        <ele>354.2</ele>
        <time>2019-11-09T12:03:38Z</time>
      </trkpt>
      <trkpt lat="44.83135" lon="4.69744">
        <ele>353</ele>
        <time>2019-11-09T12:03:39Z</time>
      </trkpt>
      <trkpt lat="44.83131" lon="4.69746">
        <ele>351.8</ele>
        <time>2019-11-09T12:03:40Z</time>
      </trkpt>
      <trkpt lat="44.83127" lon="4.69747">
        <ele>350.6</ele>
        <time>2019-11-09T12:03:41Z</time>
      </trkpt>
      <trkpt lat="44.83117" lon="4.69748">
        <ele>349</ele>
        <time>2019-11-09T12:03:43Z</time>
      </trkpt>
      <trkpt lat="44.83112" lon="4.69748">
        <ele>348</ele>
        <time>2019-11-09T12:03:44Z</time>
      </trkpt>
      <trkpt lat="44.83108" lon="4.6975">
        <ele>347.4</ele>
        <time>2019-11-09T12:03:45Z</time>
      </trkpt>
      <trkpt lat="44.83103" lon="4.69752">
        <ele>346.4</ele>
        <time>2019-11-09T12:03:46Z</time>
      </trkpt>
      <trkpt lat="44.83098" lon="4.69754">
        <ele>345.6</ele>
        <time>2019-11-09T12:03:47Z</time>
      </trkpt>
      <trkpt lat="44.8309" lon="4.69757">
        <ele>344.2</ele>
        <time>2019-11-09T12:03:49Z</time>
      </trkpt>
      <trkpt lat="44.83083" lon="4.69763">
        <ele>343.4</ele>
        <time>2019-11-09T12:03:51Z</time>
      </trkpt>
      <trkpt lat="44.83078" lon="4.69766">
        <ele>343.2</ele>
        <time>2019-11-09T12:03:52Z</time>
      </trkpt>
      <trkpt lat="44.83073" lon="4.69768">
        <ele>342.8</ele>
        <time>2019-11-09T12:03:53Z</time>
      </trkpt>
      <trkpt lat="44.83062" lon="4.69772">
        <ele>341.4</ele>
        <time>2019-11-09T12:03:55Z</time>
      </trkpt>
      <trkpt lat="44.83058" lon="4.69773">
        <ele>340.2</ele>
        <time>2019-11-09T12:03:56Z</time>
      </trkpt>
      <trkpt lat="44.8305" lon="4.69771">
        <ele>338.6</ele>
        <time>2019-11-09T12:03:58Z</time>
      </trkpt>
      <trkpt lat="44.8304" lon="4.69771">
        <ele>338</ele>
        <time>2019-11-09T12:04:00Z</time>
      </trkpt>
      <trkpt lat="44.83031" lon="4.69771">
        <ele>337.6</ele>
        <time>2019-11-09T12:04:02Z</time>
      </trkpt>
      <trkpt lat="44.83026" lon="4.6977">
        <ele>337.6</ele>
        <time>2019-11-09T12:04:03Z</time>
      </trkpt>
      <trkpt lat="44.83022" lon="4.69769">
        <ele>337.4</ele>
        <time>2019-11-09T12:04:04Z</time>
      </trkpt>
      <trkpt lat="44.83004" lon="4.69765">
        <ele>336.6</ele>
        <time>2019-11-09T12:04:08Z</time>
      </trkpt>
      <trkpt lat="44.83002" lon="4.69763">
        <ele>336.6</ele>
        <time>2019-11-09T12:04:09Z</time>
      </trkpt>
      <trkpt lat="44.83" lon="4.6976">
        <ele>336.4</ele>
        <time>2019-11-09T12:04:13Z</time>
      </trkpt>
      <trkpt lat="44.82999" lon="4.69759">
        <ele>336.2</ele>
        <time>2019-11-09T12:04:22Z</time>
      </trkpt>
      <trkpt lat="44.82999" lon="4.69759">
        <ele>336.2</ele>
        <time>2019-11-09T12:04:23Z</time>
      </trkpt>
      <trkpt lat="44.82999" lon="4.69759">
        <ele>336.2</ele>
        <time>2019-11-09T12:04:24Z</time>
      </trkpt>
      <trkpt lat="44.82999" lon="4.69759">
        <ele>336.2</ele>
        <time>2019-11-09T12:04:27Z</time>
      </trkpt>
      <trkpt lat="44.83" lon="4.69759">
        <ele>336</ele>
        <time>2019-11-09T12:04:29Z</time>
      </trkpt>
      <trkpt lat="44.83" lon="4.69759">
        <ele>336</ele>
        <time>2019-11-09T12:04:39Z</time>
      </trkpt>
      <trkpt lat="44.83" lon="4.69759">
        <ele>336</ele>
        <time>2019-11-09T12:04:42Z</time>
      </trkpt>
      <trkpt lat="44.83" lon="4.69759">
        <ele>335.8</ele>
        <time>2019-11-09T12:04:52Z</time>
      </trkpt>
      <trkpt lat="44.83" lon="4.69759">
        <ele>335.8</ele>
        <time>2019-11-09T12:04:53Z</time>
      </trkpt>
      <trkpt lat="44.83002" lon="4.69759">
        <ele>335.8</ele>
        <time>2019-11-09T12:05:04Z</time>
      </trkpt>
      <trkpt lat="44.83" lon="4.69759">
        <ele>335.8</ele>
        <time>2019-11-09T12:05:10Z</time>
      </trkpt>
      <trkpt lat="44.83" lon="4.69759">
        <ele>335.6</ele>
        <time>2019-11-09T12:05:13Z</time>
      </trkpt>
      <trkpt lat="44.83" lon="4.69759">
        <ele>335.6</ele>
        <time>2019-11-09T12:05:14Z</time>
      </trkpt>
      <trkpt lat="44.83" lon="4.69759">
        <ele>335.6</ele>
        <time>2019-11-09T12:05:15Z</time>
      </trkpt>
      <trkpt lat="44.83" lon="4.69759">
        <ele>336</ele>
        <time>2019-11-09T12:05:20Z</time>
      </trkpt>
      <trkpt lat="44.83" lon="4.69761">
        <ele>336</ele>
        <time>2019-11-09T12:05:26Z</time>
      </trkpt>
      <trkpt lat="44.83001" lon="4.69762">
        <ele>336</ele>
        <time>2019-11-09T12:05:31Z</time>
      </trkpt>
      <trkpt lat="44.83" lon="4.69763">
        <ele>336</ele>
        <time>2019-11-09T12:05:38Z</time>
      </trkpt>
      <trkpt lat="44.83001" lon="4.69763">
        <ele>336</ele>
        <time>2019-11-09T12:05:48Z</time>
      </trkpt>
      <trkpt lat="44.83001" lon="4.69763">
        <ele>336</ele>
        <time>2019-11-09T12:05:59Z</time>
      </trkpt>
      <trkpt lat="44.83" lon="4.69761">
        <ele>336</ele>
        <time>2019-11-09T12:06:01Z</time>
      </trkpt>
      <trkpt lat="44.82997" lon="4.69757">
        <ele>336</ele>
        <time>2019-11-09T12:06:03Z</time>
      </trkpt>
      <trkpt lat="44.82989" lon="4.69745">
        <ele>335.2</ele>
        <time>2019-11-09T12:06:07Z</time>
      </trkpt>
      <trkpt lat="44.82986" lon="4.69743">
        <ele>334.2</ele>
        <time>2019-11-09T12:06:08Z</time>
      </trkpt>
      <trkpt lat="44.82985" lon="4.6974">
        <ele>333.2</ele>
        <time>2019-11-09T12:06:09Z</time>
      </trkpt>
      <trkpt lat="44.82982" lon="4.69738">
        <ele>332.2</ele>
        <time>2019-11-09T12:06:10Z</time>
      </trkpt>
      <trkpt lat="44.8298" lon="4.69735">
        <ele>331.2</ele>
        <time>2019-11-09T12:06:11Z</time>
      </trkpt>
      <trkpt lat="44.82975" lon="4.69729">
        <ele>329.4</ele>
        <time>2019-11-09T12:06:13Z</time>
      </trkpt>
      <trkpt lat="44.82973" lon="4.69727">
        <ele>328.4</ele>
        <time>2019-11-09T12:06:14Z</time>
      </trkpt>
      <trkpt lat="44.82971" lon="4.69727">
        <ele>327.4</ele>
        <time>2019-11-09T12:06:15Z</time>
      </trkpt>
      <trkpt lat="44.82968" lon="4.69728">
        <ele>326.4</ele>
        <time>2019-11-09T12:06:16Z</time>
      </trkpt>
      <trkpt lat="44.82965" lon="4.69728">
        <ele>325.6</ele>
        <time>2019-11-09T12:06:17Z</time>
      </trkpt>
      <trkpt lat="44.82964" lon="4.69728">
        <ele>325</ele>
        <time>2019-11-09T12:06:18Z</time>
      </trkpt>
      <trkpt lat="44.82963" lon="4.6973">
        <ele>324.4</ele>
        <time>2019-11-09T12:06:19Z</time>
      </trkpt>
      <trkpt lat="44.82962" lon="4.69733">
        <ele>324</ele>
        <time>2019-11-09T12:06:20Z</time>
      </trkpt>
      <trkpt lat="44.8296" lon="4.69736">
        <ele>323.4</ele>
        <time>2019-11-09T12:06:21Z</time>
      </trkpt>
      <trkpt lat="44.82953" lon="4.6974">
        <ele>322.4</ele>
        <time>2019-11-09T12:06:23Z</time>
      </trkpt>
      <trkpt lat="44.82951" lon="4.69741">
        <ele>321.8</ele>
        <time>2019-11-09T12:06:24Z</time>
      </trkpt>
      <trkpt lat="44.82948" lon="4.69744">
        <ele>320.6</ele>
        <time>2019-11-09T12:06:26Z</time>
      </trkpt>
      <trkpt lat="44.82946" lon="4.69747">
        <ele>320.2</ele>
        <time>2019-11-09T12:06:27Z</time>
      </trkpt>
      <trkpt lat="44.82942" lon="4.69752">
        <ele>319.6</ele>
        <time>2019-11-09T12:06:29Z</time>
      </trkpt>
      <trkpt lat="44.82938" lon="4.69753">
        <ele>318.8</ele>
        <time>2019-11-09T12:06:31Z</time>
      </trkpt>
      <trkpt lat="44.82936" lon="4.69751">
        <ele>318.4</ele>
        <time>2019-11-09T12:06:32Z</time>
      </trkpt>
      <trkpt lat="44.82928" lon="4.69746">
        <ele>317.2</ele>
        <time>2019-11-09T12:06:35Z</time>
      </trkpt>
      <trkpt lat="44.82923" lon="4.69741">
        <ele>316.4</ele>
        <time>2019-11-09T12:06:37Z</time>
      </trkpt>
      <trkpt lat="44.8292" lon="4.69738">
        <ele>316.2</ele>
        <time>2019-11-09T12:06:38Z</time>
      </trkpt>
      <trkpt lat="44.82914" lon="4.69734">
        <ele>315</ele>
        <time>2019-11-09T12:06:40Z</time>
      </trkpt>
      <trkpt lat="44.82907" lon="4.69732">
        <ele>313.8</ele>
        <time>2019-11-09T12:06:42Z</time>
      </trkpt>
      <trkpt lat="44.82904" lon="4.69731">
        <ele>313.4</ele>
        <time>2019-11-09T12:06:43Z</time>
      </trkpt>
      <trkpt lat="44.82898" lon="4.69729">
        <ele>312.6</ele>
        <time>2019-11-09T12:06:45Z</time>
      </trkpt>
      <trkpt lat="44.82887" lon="4.69725">
        <ele>311.8</ele>
        <time>2019-11-09T12:06:49Z</time>
      </trkpt>
      <trkpt lat="44.82884" lon="4.69722">
        <ele>311.6</ele>
        <time>2019-11-09T12:06:51Z</time>
      </trkpt>
      <trkpt lat="44.82877" lon="4.69717">
        <ele>310</ele>
        <time>2019-11-09T12:06:54Z</time>
      </trkpt>
      <trkpt lat="44.82871" lon="4.69718">
        <ele>308.8</ele>
        <time>2019-11-09T12:06:57Z</time>
      </trkpt>
      <trkpt lat="44.82866" lon="4.69718">
        <ele>308.2</ele>
        <time>2019-11-09T12:06:59Z</time>
      </trkpt>
      <trkpt lat="44.82858" lon="4.69717">
        <ele>307.8</ele>
        <time>2019-11-09T12:07:02Z</time>
      </trkpt>
      <trkpt lat="44.8285" lon="4.69712">
        <ele>306.6</ele>
        <time>2019-11-09T12:07:05Z</time>
      </trkpt>
      <trkpt lat="44.82846" lon="4.69711">
        <ele>305.8</ele>
        <time>2019-11-09T12:07:06Z</time>
      </trkpt>
      <trkpt lat="44.82842" lon="4.69711">
        <ele>305</ele>
        <time>2019-11-09T12:07:07Z</time>
      </trkpt>
      <trkpt lat="44.82838" lon="4.69713">
        <ele>303.8</ele>
        <time>2019-11-09T12:07:08Z</time>
      </trkpt>
      <trkpt lat="44.82832" lon="4.69715">
        <ele>302.6</ele>
        <time>2019-11-09T12:07:09Z</time>
      </trkpt>
      <trkpt lat="44.82828" lon="4.69716">
        <ele>301.6</ele>
        <time>2019-11-09T12:07:10Z</time>
      </trkpt>
      <trkpt lat="44.82824" lon="4.69716">
        <ele>300.8</ele>
        <time>2019-11-09T12:07:11Z</time>
      </trkpt>
      <trkpt lat="44.82817" lon="4.69717">
        <ele>299.4</ele>
        <time>2019-11-09T12:07:13Z</time>
      </trkpt>
      <trkpt lat="44.82814" lon="4.69718">
        <ele>298.8</ele>
        <time>2019-11-09T12:07:14Z</time>
      </trkpt>
      <trkpt lat="44.82807" lon="4.69719">
        <ele>298</ele>
        <time>2019-11-09T12:07:16Z</time>
      </trkpt>
      <trkpt lat="44.82802" lon="4.6972">
        <ele>297</ele>
        <time>2019-11-09T12:07:18Z</time>
      </trkpt>
      <trkpt lat="44.828" lon="4.69721">
        <ele>296.6</ele>
        <time>2019-11-09T12:07:19Z</time>
      </trkpt>
      <trkpt lat="44.82792" lon="4.69719">
        <ele>295.6</ele>
        <time>2019-11-09T12:07:23Z</time>
      </trkpt>
      <trkpt lat="44.82788" lon="4.69721">
        <ele>294.2</ele>
        <time>2019-11-09T12:07:25Z</time>
      </trkpt>
      <trkpt lat="44.82782" lon="4.69721">
        <ele>292.4</ele>
        <time>2019-11-09T12:07:27Z</time>
      </trkpt>
      <trkpt lat="44.82781" lon="4.69716">
        <ele>291</ele>
        <time>2019-11-09T12:07:29Z</time>
      </trkpt>
      <trkpt lat="44.82777" lon="4.69713">
        <ele>289.8</ele>
        <time>2019-11-09T12:07:31Z</time>
      </trkpt>
      <trkpt lat="44.82772" lon="4.69716">
        <ele>288.6</ele>
        <time>2019-11-09T12:07:33Z</time>
      </trkpt>
      <trkpt lat="44.8277" lon="4.6972">
        <ele>287.8</ele>
        <time>2019-11-09T12:07:35Z</time>
      </trkpt>
      <trkpt lat="44.82768" lon="4.69721">
        <ele>287.6</ele>
        <time>2019-11-09T12:07:36Z</time>
      </trkpt>
      <trkpt lat="44.8276" lon="4.69725">
        <ele>286.8</ele>
        <time>2019-11-09T12:07:40Z</time>
      </trkpt>
      <trkpt lat="44.82757" lon="4.69725">
        <ele>286.6</ele>
        <time>2019-11-09T12:07:41Z</time>
      </trkpt>
      <trkpt lat="44.82756" lon="4.69724">
        <ele>286.2</ele>
        <time>2019-11-09T12:07:42Z</time>
      </trkpt>
      <trkpt lat="44.82754" lon="4.69723">
        <ele>285</ele>
        <time>2019-11-09T12:07:44Z</time>
      </trkpt>
      <trkpt lat="44.82753" lon="4.69722">
        <ele>284.6</ele>
        <time>2019-11-09T12:07:45Z</time>
      </trkpt>
      <trkpt lat="44.82747" lon="4.69724">
        <ele>284</ele>
        <time>2019-11-09T12:07:48Z</time>
      </trkpt>
      <trkpt lat="44.82744" lon="4.69725">
        <ele>283.6</ele>
        <time>2019-11-09T12:07:49Z</time>
      </trkpt>
      <trkpt lat="44.82739" lon="4.69727">
        <ele>282.6</ele>
        <time>2019-11-09T12:07:51Z</time>
      </trkpt>
      <trkpt lat="44.82738" lon="4.69729">
        <ele>281.8</ele>
        <time>2019-11-09T12:07:52Z</time>
      </trkpt>
      <trkpt lat="44.82733" lon="4.69735">
        <ele>280.4</ele>
        <time>2019-11-09T12:07:54Z</time>
      </trkpt>
      <trkpt lat="44.8273" lon="4.69735">
        <ele>280</ele>
        <time>2019-11-09T12:07:55Z</time>
      </trkpt>
      <trkpt lat="44.82722" lon="4.69736">
        <ele>279.2</ele>
        <time>2019-11-09T12:07:58Z</time>
      </trkpt>
      <trkpt lat="44.82718" lon="4.69738">
        <ele>278.6</ele>
        <time>2019-11-09T12:08:00Z</time>
      </trkpt>
      <trkpt lat="44.82708" lon="4.69742">
        <ele>278</ele>
        <time>2019-11-09T12:08:03Z</time>
      </trkpt>
      <trkpt lat="44.82706" lon="4.69743">
        <ele>277.2</ele>
        <time>2019-11-09T12:08:04Z</time>
      </trkpt>
      <trkpt lat="44.82703" lon="4.69746">
        <ele>275.8</ele>
        <time>2019-11-09T12:08:05Z</time>
      </trkpt>
      <trkpt lat="44.82701" lon="4.6975">
        <ele>274.4</ele>
        <time>2019-11-09T12:08:06Z</time>
      </trkpt>
      <trkpt lat="44.82699" lon="4.69752">
        <ele>273.4</ele>
        <time>2019-11-09T12:08:07Z</time>
      </trkpt>
      <trkpt lat="44.82697" lon="4.69755">
        <ele>272.2</ele>
        <time>2019-11-09T12:08:08Z</time>
      </trkpt>
      <trkpt lat="44.82695" lon="4.69757">
        <ele>271</ele>
        <time>2019-11-09T12:08:09Z</time>
      </trkpt>
      <trkpt lat="44.82689" lon="4.69762">
        <ele>269.6</ele>
        <time>2019-11-09T12:08:11Z</time>
      </trkpt>
      <trkpt lat="44.82684" lon="4.69764">
        <ele>268.6</ele>
        <time>2019-11-09T12:08:13Z</time>
      </trkpt>
      <trkpt lat="44.82679" lon="4.69765">
        <ele>266.8</ele>
        <time>2019-11-09T12:08:15Z</time>
      </trkpt>
      <trkpt lat="44.82676" lon="4.69767">
        <ele>265.8</ele>
        <time>2019-11-09T12:08:16Z</time>
      </trkpt>
      <trkpt lat="44.82674" lon="4.69769">
        <ele>265</ele>
        <time>2019-11-09T12:08:17Z</time>
      </trkpt>
      <trkpt lat="44.82668" lon="4.69774">
        <ele>263.2</ele>
        <time>2019-11-09T12:08:19Z</time>
      </trkpt>
      <trkpt lat="44.82665" lon="4.69776">
        <ele>261.8</ele>
        <time>2019-11-09T12:08:20Z</time>
      </trkpt>
      <trkpt lat="44.82661" lon="4.69778">
        <ele>260.2</ele>
        <time>2019-11-09T12:08:21Z</time>
      </trkpt>
      <trkpt lat="44.82657" lon="4.6978">
        <ele>259</ele>
        <time>2019-11-09T12:08:22Z</time>
      </trkpt>
      <trkpt lat="44.82648" lon="4.69784">
        <ele>257.6</ele>
        <time>2019-11-09T12:08:24Z</time>
      </trkpt>
      <trkpt lat="44.82641" lon="4.69783">
        <ele>256</ele>
        <time>2019-11-09T12:08:26Z</time>
      </trkpt>
      <trkpt lat="44.82633" lon="4.6978">
        <ele>254.6</ele>
        <time>2019-11-09T12:08:28Z</time>
      </trkpt>
      <trkpt lat="44.82623" lon="4.69777">
        <ele>252.4</ele>
        <time>2019-11-09T12:08:30Z</time>
      </trkpt>
      <trkpt lat="44.82618" lon="4.69776">
        <ele>251.4</ele>
        <time>2019-11-09T12:08:31Z</time>
      </trkpt>
      <trkpt lat="44.82607" lon="4.69773">
        <ele>250.4</ele>
        <time>2019-11-09T12:08:33Z</time>
      </trkpt>
      <trkpt lat="44.82602" lon="4.69772">
        <ele>250.2</ele>
        <time>2019-11-09T12:08:34Z</time>
      </trkpt>
      <trkpt lat="44.826" lon="4.69771">
        <ele>250</ele>
        <time>2019-11-09T12:08:35Z</time>
      </trkpt>
      <trkpt lat="44.82599" lon="4.6977">
        <ele>250</ele>
        <time>2019-11-09T12:08:36Z</time>
      </trkpt>
      <trkpt lat="44.82598" lon="4.6977">
        <ele>250.2</ele>
        <time>2019-11-09T12:08:37Z</time>
      </trkpt>
      <trkpt lat="44.82598" lon="4.69769">
        <ele>250.4</ele>
        <time>2019-11-09T12:08:38Z</time>
      </trkpt>
      <trkpt lat="44.82599" lon="4.69769">
        <ele>250.8</ele>
        <time>2019-11-09T12:08:45Z</time>
      </trkpt>
      <trkpt lat="44.82599" lon="4.69769">
        <ele>250.6</ele>
        <time>2019-11-09T12:08:56Z</time>
      </trkpt>
      <trkpt lat="44.82599" lon="4.69769">
        <ele>250.2</ele>
        <time>2019-11-09T12:09:07Z</time>
      </trkpt>
      <trkpt lat="44.82599" lon="4.69769">
        <ele>250.2</ele>
        <time>2019-11-09T12:09:15Z</time>
      </trkpt>
      <trkpt lat="44.82599" lon="4.69769">
        <ele>250.2</ele>
        <time>2019-11-09T12:09:16Z</time>
      </trkpt>
      <trkpt lat="44.82599" lon="4.69769">
        <ele>250.2</ele>
        <time>2019-11-09T12:09:18Z</time>
      </trkpt>
      <trkpt lat="44.82599" lon="4.69769">
        <ele>250.2</ele>
        <time>2019-11-09T12:09:21Z</time>
      </trkpt>
      <trkpt lat="44.82599" lon="4.69769">
        <ele>250.2</ele>
        <time>2019-11-09T12:09:22Z</time>
      </trkpt>
      <trkpt lat="44.82599" lon="4.69769">
        <ele>250.2</ele>
        <time>2019-11-09T12:09:23Z</time>
      </trkpt>
      <trkpt lat="44.82599" lon="4.69769">
        <ele>250.2</ele>
        <time>2019-11-09T12:09:25Z</time>
      </trkpt>
      <trkpt lat="44.82599" lon="4.69769">
        <ele>250.2</ele>
        <time>2019-11-09T12:09:30Z</time>
      </trkpt>
      <trkpt lat="44.82599" lon="4.69769">
        <ele>249.8</ele>
        <time>2019-11-09T12:09:40Z</time>
      </trkpt>
      <trkpt lat="44.82599" lon="4.69769">
        <ele>250</ele>
        <time>2019-11-09T12:09:42Z</time>
      </trkpt>
      <trkpt lat="44.82599" lon="4.69769">
        <ele>250</ele>
        <time>2019-11-09T12:09:44Z</time>
      </trkpt>
      <trkpt lat="44.82599" lon="4.69769">
        <ele>250</ele>
        <time>2019-11-09T12:09:53Z</time>
      </trkpt>
      <trkpt lat="44.82599" lon="4.69769">
        <ele>249.8</ele>
        <time>2019-11-09T12:09:57Z</time>
      </trkpt>
      <trkpt lat="44.82599" lon="4.6977">
        <ele>249.8</ele>
        <time>2019-11-09T12:10:11Z</time>
      </trkpt>
      <trkpt lat="44.82599" lon="4.6977">
        <ele>249.8</ele>
        <time>2019-11-09T12:10:14Z</time>
      </trkpt>
      <trkpt lat="44.82599" lon="4.6977">
        <ele>250</ele>
        <time>2019-11-09T12:10:21Z</time>
      </trkpt>
      <trkpt lat="44.82599" lon="4.6977">
        <ele>249.6</ele>
        <time>2019-11-09T12:10:26Z</time>
      </trkpt>
      <trkpt lat="44.82599" lon="4.6977">
        <ele>249.6</ele>
        <time>2019-11-09T12:10:27Z</time>
      </trkpt>
      <trkpt lat="44.82599" lon="4.6977">
        <ele>249.8</ele>
        <time>2019-11-09T12:10:40Z</time>
      </trkpt>
      <trkpt lat="44.82599" lon="4.6977">
        <ele>249.6</ele>
        <time>2019-11-09T12:10:46Z</time>
      </trkpt>
      <trkpt lat="44.82599" lon="4.6977">
        <ele>249.6</ele>
        <time>2019-11-09T12:10:59Z</time>
      </trkpt>
      <trkpt lat="44.82599" lon="4.6977">
        <ele>249.6</ele>
        <time>2019-11-09T12:11:09Z</time>
      </trkpt>
      <trkpt lat="44.82599" lon="4.6977">
        <ele>249.6</ele>
        <time>2019-11-09T12:11:11Z</time>
      </trkpt>
      <trkpt lat="44.826" lon="4.69769">
        <ele>249.6</ele>
        <time>2019-11-09T12:11:26Z</time>
      </trkpt>
      <trkpt lat="44.826" lon="4.69769">
        <ele>249.6</ele>
        <time>2019-11-09T12:11:30Z</time>
      </trkpt>
      <trkpt lat="44.826" lon="4.69769">
        <ele>249.6</ele>
        <time>2019-11-09T12:11:31Z</time>
      </trkpt>
      <trkpt lat="44.826" lon="4.69769">
        <ele>249.6</ele>
        <time>2019-11-09T12:11:33Z</time>
      </trkpt>
      <trkpt lat="44.826" lon="4.69769">
        <ele>249.6</ele>
        <time>2019-11-09T12:11:36Z</time>
      </trkpt>
      <trkpt lat="44.826" lon="4.69769">
        <ele>249.6</ele>
        <time>2019-11-09T12:11:38Z</time>
      </trkpt>
      <trkpt lat="44.82601" lon="4.69769">
        <ele>249.6</ele>
        <time>2019-11-09T12:11:48Z</time>
      </trkpt>
      <trkpt lat="44.82601" lon="4.69769">
        <ele>249.6</ele>
        <time>2019-11-09T12:11:52Z</time>
      </trkpt>
      <trkpt lat="44.826" lon="4.69769">
        <ele>249.6</ele>
        <time>2019-11-09T12:11:58Z</time>
      </trkpt>
      <trkpt lat="44.826" lon="4.69769">
        <ele>249.6</ele>
        <time>2019-11-09T12:12:00Z</time>
      </trkpt>
      <trkpt lat="44.826" lon="4.69769">
        <ele>249.6</ele>
        <time>2019-11-09T12:12:07Z</time>
      </trkpt>
      <trkpt lat="44.826" lon="4.69769">
        <ele>249.6</ele>
        <time>2019-11-09T12:12:08Z</time>
      </trkpt>
      <trkpt lat="44.826" lon="4.69769">
        <ele>249.6</ele>
        <time>2019-11-09T12:12:20Z</time>
      </trkpt>
      <trkpt lat="44.826" lon="4.69769">
        <ele>249.6</ele>
        <time>2019-11-09T12:12:22Z</time>
      </trkpt>
      <trkpt lat="44.826" lon="4.69769">
        <ele>249.6</ele>
        <time>2019-11-09T12:12:24Z</time>
      </trkpt>
      <trkpt lat="44.826" lon="4.69769">
        <ele>249.6</ele>
        <time>2019-11-09T12:12:27Z</time>
      </trkpt>
      <trkpt lat="44.826" lon="4.69769">
        <ele>249.6</ele>
        <time>2019-11-09T12:12:35Z</time>
      </trkpt>
      <trkpt lat="44.826" lon="4.69768">
        <ele>249.6</ele>
        <time>2019-11-09T12:12:39Z</time>
      </trkpt>
      <trkpt lat="44.826" lon="4.69768">
        <ele>249.6</ele>
        <time>2019-11-09T12:12:41Z</time>
      </trkpt>
      <trkpt lat="44.82599" lon="4.69768">
        <ele>249.6</ele>
        <time>2019-11-09T12:12:43Z</time>
      </trkpt>
      <trkpt lat="44.82597" lon="4.69765">
        <ele>249.6</ele>
        <time>2019-11-09T12:12:45Z</time>
      </trkpt>
      <trkpt lat="44.82595" lon="4.69754">
        <ele>250.4</ele>
        <time>2019-11-09T12:12:49Z</time>
      </trkpt>
      <trkpt lat="44.82601" lon="4.69729">
        <ele>249.4</ele>
        <time>2019-11-09T12:12:54Z</time>
      </trkpt>
      <trkpt lat="44.82602" lon="4.69723">
        <ele>249.2</ele>
        <time>2019-11-09T12:12:55Z</time>
      </trkpt>
      <trkpt lat="44.82605" lon="4.69703">
        <ele>248.2</ele>
        <time>2019-11-09T12:12:59Z</time>
      </trkpt>
      <trkpt lat="44.82605" lon="4.69698">
        <ele>248.2</ele>
        <time>2019-11-09T12:13:00Z</time>
      </trkpt>
      <trkpt lat="44.82606" lon="4.69667">
        <ele>247</ele>
        <time>2019-11-09T12:13:06Z</time>
      </trkpt>
      <trkpt lat="44.82606" lon="4.69637">
        <ele>246.4</ele>
        <time>2019-11-09T12:13:11Z</time>
      </trkpt>
      <trkpt lat="44.82604" lon="4.6963">
        <ele>246</ele>
        <time>2019-11-09T12:13:12Z</time>
      </trkpt>
      <trkpt lat="44.826" lon="4.69617">
        <ele>245.2</ele>
        <time>2019-11-09T12:13:14Z</time>
      </trkpt>
      <trkpt lat="44.82597" lon="4.6961">
        <ele>244.6</ele>
        <time>2019-11-09T12:13:15Z</time>
      </trkpt>
      <trkpt lat="44.82595" lon="4.69604">
        <ele>244</ele>
        <time>2019-11-09T12:13:16Z</time>
      </trkpt>
      <trkpt lat="44.82592" lon="4.69598">
        <ele>243.6</ele>
        <time>2019-11-09T12:13:17Z</time>
      </trkpt>
      <trkpt lat="44.8259" lon="4.69593">
        <ele>243.2</ele>
        <time>2019-11-09T12:13:18Z</time>
      </trkpt>
      <trkpt lat="44.82585" lon="4.69582">
        <ele>242.6</ele>
        <time>2019-11-09T12:13:20Z</time>
      </trkpt>
      <trkpt lat="44.82585" lon="4.69571">
        <ele>241.8</ele>
        <time>2019-11-09T12:13:22Z</time>
      </trkpt>
      <trkpt lat="44.82593" lon="4.69552">
        <ele>242.2</ele>
        <time>2019-11-09T12:13:27Z</time>
      </trkpt>
      <trkpt lat="44.82604" lon="4.69531">
        <ele>243.4</ele>
        <time>2019-11-09T12:13:34Z</time>
      </trkpt>
      <trkpt lat="44.82605" lon="4.69529">
        <ele>243.8</ele>
        <time>2019-11-09T12:13:35Z</time>
      </trkpt>
      <trkpt lat="44.82613" lon="4.69517">
        <ele>244.8</ele>
        <time>2019-11-09T12:13:40Z</time>
      </trkpt>
      <trkpt lat="44.82614" lon="4.69514">
        <ele>245</ele>
        <time>2019-11-09T12:13:41Z</time>
      </trkpt>
      <trkpt lat="44.82616" lon="4.69512">
        <ele>245</ele>
        <time>2019-11-09T12:13:42Z</time>
      </trkpt>
      <trkpt lat="44.82621" lon="4.69501">
        <ele>246</ele>
        <time>2019-11-09T12:13:46Z</time>
      </trkpt>
      <trkpt lat="44.82625" lon="4.69495">
        <ele>246.4</ele>
        <time>2019-11-09T12:13:48Z</time>
      </trkpt>
      <trkpt lat="44.8263" lon="4.69485">
        <ele>246.8</ele>
        <time>2019-11-09T12:13:51Z</time>
      </trkpt>
      <trkpt lat="44.82632" lon="4.69481">
        <ele>247</ele>
        <time>2019-11-09T12:13:52Z</time>
      </trkpt>
      <trkpt lat="44.82641" lon="4.69464">
        <ele>247.4</ele>
        <time>2019-11-09T12:13:57Z</time>
      </trkpt>
      <trkpt lat="44.82653" lon="4.69441">
        <ele>248</ele>
        <time>2019-11-09T12:14:04Z</time>
      </trkpt>
      <trkpt lat="44.82662" lon="4.69424">
        <ele>248.6</ele>
        <time>2019-11-09T12:14:09Z</time>
      </trkpt>
      <trkpt lat="44.82673" lon="4.69403">
        <ele>249</ele>
        <time>2019-11-09T12:14:15Z</time>
      </trkpt>
      <trkpt lat="44.82678" lon="4.69393">
        <ele>249.4</ele>
        <time>2019-11-09T12:14:18Z</time>
      </trkpt>
      <trkpt lat="44.82685" lon="4.69379">
        <ele>249.8</ele>
        <time>2019-11-09T12:14:22Z</time>
      </trkpt>
      <trkpt lat="44.82688" lon="4.69371">
        <ele>250.2</ele>
        <time>2019-11-09T12:14:24Z</time>
      </trkpt>
      <trkpt lat="44.8269" lon="4.69368">
        <ele>250.4</ele>
        <time>2019-11-09T12:14:25Z</time>
      </trkpt>
      <trkpt lat="44.82698" lon="4.69356">
        <ele>251.4</ele>
        <time>2019-11-09T12:14:29Z</time>
      </trkpt>
      <trkpt lat="44.82702" lon="4.69348">
        <ele>251.8</ele>
        <time>2019-11-09T12:14:31Z</time>
      </trkpt>
      <trkpt lat="44.82708" lon="4.69337">
        <ele>252.4</ele>
        <time>2019-11-09T12:14:34Z</time>
      </trkpt>
      <trkpt lat="44.82716" lon="4.69323">
        <ele>253.4</ele>
        <time>2019-11-09T12:14:38Z</time>
      </trkpt>
      <trkpt lat="44.82718" lon="4.69319">
        <ele>253.6</ele>
        <time>2019-11-09T12:14:39Z</time>
      </trkpt>
      <trkpt lat="44.82722" lon="4.69312">
        <ele>253.8</ele>
        <time>2019-11-09T12:14:41Z</time>
      </trkpt>
      <trkpt lat="44.82727" lon="4.69302">
        <ele>254.6</ele>
        <time>2019-11-09T12:14:44Z</time>
      </trkpt>
      <trkpt lat="44.82736" lon="4.6929">
        <ele>255.4</ele>
        <time>2019-11-09T12:14:48Z</time>
      </trkpt>
      <trkpt lat="44.82737" lon="4.69287">
        <ele>255.8</ele>
        <time>2019-11-09T12:14:49Z</time>
      </trkpt>
      <trkpt lat="44.82746" lon="4.6927">
        <ele>256.8</ele>
        <time>2019-11-09T12:14:54Z</time>
      </trkpt>
      <trkpt lat="44.82749" lon="4.69261">
        <ele>257.4</ele>
        <time>2019-11-09T12:14:56Z</time>
      </trkpt>
      <trkpt lat="44.82756" lon="4.69226">
        <ele>257.8</ele>
        <time>2019-11-09T12:15:04Z</time>
      </trkpt>
      <trkpt lat="44.82758" lon="4.69202">
        <ele>257.4</ele>
        <time>2019-11-09T12:15:09Z</time>
      </trkpt>
      <trkpt lat="44.82759" lon="4.69191">
        <ele>257.4</ele>
        <time>2019-11-09T12:15:11Z</time>
      </trkpt>
      <trkpt lat="44.82765" lon="4.69149">
        <ele>257.2</ele>
        <time>2019-11-09T12:15:19Z</time>
      </trkpt>
      <trkpt lat="44.8277" lon="4.69108">
        <ele>258.2</ele>
        <time>2019-11-09T12:15:26Z</time>
      </trkpt>
      <trkpt lat="44.82774" lon="4.6909">
        <ele>257.8</ele>
        <time>2019-11-09T12:15:29Z</time>
      </trkpt>
      <trkpt lat="44.8278" lon="4.69073">
        <ele>256.8</ele>
        <time>2019-11-09T12:15:32Z</time>
      </trkpt>
      <trkpt lat="44.82782" lon="4.69067">
        <ele>256.8</ele>
        <time>2019-11-09T12:15:33Z</time>
      </trkpt>
      <trkpt lat="44.82784" lon="4.69061">
        <ele>256.8</ele>
        <time>2019-11-09T12:15:34Z</time>
      </trkpt>
      <trkpt lat="44.82797" lon="4.69032">
        <ele>255.6</ele>
        <time>2019-11-09T12:15:39Z</time>
      </trkpt>
      <trkpt lat="44.828" lon="4.69027">
        <ele>255.4</ele>
        <time>2019-11-09T12:15:40Z</time>
      </trkpt>
      <trkpt lat="44.82812" lon="4.68999">
        <ele>254.4</ele>
        <time>2019-11-09T12:15:45Z</time>
      </trkpt>
      <trkpt lat="44.82822" lon="4.68976">
        <ele>253.6</ele>
        <time>2019-11-09T12:15:49Z</time>
      </trkpt>
      <trkpt lat="44.82825" lon="4.6897">
        <ele>253.4</ele>
        <time>2019-11-09T12:15:50Z</time>
      </trkpt>
      <trkpt lat="44.82839" lon="4.68935">
        <ele>253.8</ele>
        <time>2019-11-09T12:15:56Z</time>
      </trkpt>
      <trkpt lat="44.82842" lon="4.68929">
        <ele>254</ele>
        <time>2019-11-09T12:15:57Z</time>
      </trkpt>
      <trkpt lat="44.82844" lon="4.68923">
        <ele>254</ele>
        <time>2019-11-09T12:15:58Z</time>
      </trkpt>
      <trkpt lat="44.82849" lon="4.6891">
        <ele>253.8</ele>
        <time>2019-11-09T12:16:00Z</time>
      </trkpt>
      <trkpt lat="44.82854" lon="4.68897">
        <ele>253.4</ele>
        <time>2019-11-09T12:16:02Z</time>
      </trkpt>
      <trkpt lat="44.82856" lon="4.68891">
        <ele>253.4</ele>
        <time>2019-11-09T12:16:03Z</time>
      </trkpt>
      <trkpt lat="44.82869" lon="4.68842">
        <ele>252.6</ele>
        <time>2019-11-09T12:16:10Z</time>
      </trkpt>
      <trkpt lat="44.82869" lon="4.68825">
        <ele>252.4</ele>
        <time>2019-11-09T12:16:12Z</time>
      </trkpt>
      <trkpt lat="44.82867" lon="4.68792">
        <ele>252.2</ele>
        <time>2019-11-09T12:16:16Z</time>
      </trkpt>
      <trkpt lat="44.82867" lon="4.68784">
        <ele>252.4</ele>
        <time>2019-11-09T12:16:17Z</time>
      </trkpt>
      <trkpt lat="44.82865" lon="4.6872">
        <ele>251.8</ele>
        <time>2019-11-09T12:16:25Z</time>
      </trkpt>
      <trkpt lat="44.82871" lon="4.68699">
        <ele>251.4</ele>
        <time>2019-11-09T12:16:28Z</time>
      </trkpt>
      <trkpt lat="44.82874" lon="4.68692">
        <ele>251.2</ele>
        <time>2019-11-09T12:16:29Z</time>
      </trkpt>
      <trkpt lat="44.82877" lon="4.68684">
        <ele>251.2</ele>
        <time>2019-11-09T12:16:30Z</time>
      </trkpt>
      <trkpt lat="44.82881" lon="4.68678">
        <ele>251.4</ele>
        <time>2019-11-09T12:16:31Z</time>
      </trkpt>
      <trkpt lat="44.82891" lon="4.68665">
        <ele>251.2</ele>
        <time>2019-11-09T12:16:33Z</time>
      </trkpt>
      <trkpt lat="44.829" lon="4.68654">
        <ele>250.6</ele>
        <time>2019-11-09T12:16:35Z</time>
      </trkpt>
      <trkpt lat="44.82905" lon="4.68648">
        <ele>250</ele>
        <time>2019-11-09T12:16:36Z</time>
      </trkpt>
      <trkpt lat="44.82909" lon="4.68642">
        <ele>249.8</ele>
        <time>2019-11-09T12:16:37Z</time>
      </trkpt>
      <trkpt lat="44.82915" lon="4.68627">
        <ele>249.2</ele>
        <time>2019-11-09T12:16:39Z</time>
      </trkpt>
      <trkpt lat="44.82918" lon="4.68619">
        <ele>249</ele>
        <time>2019-11-09T12:16:40Z</time>
      </trkpt>
      <trkpt lat="44.82921" lon="4.68602">
        <ele>248.6</ele>
        <time>2019-11-09T12:16:42Z</time>
      </trkpt>
      <trkpt lat="44.82922" lon="4.68582">
        <ele>248</ele>
        <time>2019-11-09T12:16:44Z</time>
      </trkpt>
      <trkpt lat="44.82923" lon="4.68573">
        <ele>247.8</ele>
        <time>2019-11-09T12:16:45Z</time>
      </trkpt>
      <trkpt lat="44.82926" lon="4.68553">
        <ele>247.2</ele>
        <time>2019-11-09T12:16:47Z</time>
      </trkpt>
      <trkpt lat="44.82928" lon="4.68544">
        <ele>246.6</ele>
        <time>2019-11-09T12:16:48Z</time>
      </trkpt>
      <trkpt lat="44.82934" lon="4.68526">
        <ele>245.6</ele>
        <time>2019-11-09T12:16:50Z</time>
      </trkpt>
      <trkpt lat="44.82937" lon="4.68517">
        <ele>245.2</ele>
        <time>2019-11-09T12:16:51Z</time>
      </trkpt>
      <trkpt lat="44.82951" lon="4.68483">
        <ele>244</ele>
        <time>2019-11-09T12:16:55Z</time>
      </trkpt>
      <trkpt lat="44.82958" lon="4.68466">
        <ele>243.4</ele>
        <time>2019-11-09T12:16:57Z</time>
      </trkpt>
      <trkpt lat="44.82968" lon="4.68439">
        <ele>243</ele>
        <time>2019-11-09T12:17:00Z</time>
      </trkpt>
      <trkpt lat="44.82976" lon="4.68412">
        <ele>242.8</ele>
        <time>2019-11-09T12:17:03Z</time>
      </trkpt>
      <trkpt lat="44.82978" lon="4.68403">
        <ele>242.6</ele>
        <time>2019-11-09T12:17:04Z</time>
      </trkpt>
      <trkpt lat="44.82982" lon="4.68385">
        <ele>242.4</ele>
        <time>2019-11-09T12:17:06Z</time>
      </trkpt>
      <trkpt lat="44.82985" lon="4.68366">
        <ele>241.6</ele>
        <time>2019-11-09T12:17:08Z</time>
      </trkpt>
      <trkpt lat="44.82985" lon="4.68355">
        <ele>241.2</ele>
        <time>2019-11-09T12:17:09Z</time>
      </trkpt>
      <trkpt lat="44.82986" lon="4.68325">
        <ele>240.4</ele>
        <time>2019-11-09T12:17:12Z</time>
      </trkpt>
      <trkpt lat="44.82987" lon="4.68287">
        <ele>239.8</ele>
        <time>2019-11-09T12:17:16Z</time>
      </trkpt>
      <trkpt lat="44.82988" lon="4.68249">
        <ele>239.4</ele>
        <time>2019-11-09T12:17:20Z</time>
      </trkpt>
      <trkpt lat="44.82988" lon="4.6821">
        <ele>239</ele>
        <time>2019-11-09T12:17:24Z</time>
      </trkpt>
      <trkpt lat="44.82991" lon="4.68137">
        <ele>239</ele>
        <time>2019-11-09T12:17:32Z</time>
      </trkpt>
      <trkpt lat="44.82994" lon="4.68085">
        <ele>238.6</ele>
        <time>2019-11-09T12:17:38Z</time>
      </trkpt>
      <trkpt lat="44.82994" lon="4.68067">
        <ele>238.6</ele>
        <time>2019-11-09T12:17:40Z</time>
      </trkpt>
      <trkpt lat="44.82996" lon="4.68014">
        <ele>238.4</ele>
        <time>2019-11-09T12:17:46Z</time>
      </trkpt>
      <trkpt lat="44.82996" lon="4.68005">
        <ele>238.4</ele>
        <time>2019-11-09T12:17:47Z</time>
      </trkpt>
      <trkpt lat="44.82996" lon="4.67996">
        <ele>238.4</ele>
        <time>2019-11-09T12:17:48Z</time>
      </trkpt>
      <trkpt lat="44.82997" lon="4.67987">
        <ele>238.2</ele>
        <time>2019-11-09T12:17:49Z</time>
      </trkpt>
      <trkpt lat="44.82997" lon="4.67978">
        <ele>238.2</ele>
        <time>2019-11-09T12:17:50Z</time>
      </trkpt>
      <trkpt lat="44.82999" lon="4.67906">
        <ele>237.2</ele>
        <time>2019-11-09T12:17:58Z</time>
      </trkpt>
      <trkpt lat="44.82996" lon="4.67847">
        <ele>236.2</ele>
        <time>2019-11-09T12:18:05Z</time>
      </trkpt>
      <trkpt lat="44.82994" lon="4.67839">
        <ele>236</ele>
        <time>2019-11-09T12:18:06Z</time>
      </trkpt>
      <trkpt lat="44.82987" lon="4.67816">
        <ele>235.6</ele>
        <time>2019-11-09T12:18:09Z</time>
      </trkpt>
      <trkpt lat="44.82982" lon="4.67801">
        <ele>235.6</ele>
        <time>2019-11-09T12:18:11Z</time>
      </trkpt>
      <trkpt lat="44.82962" lon="4.67755">
        <ele>236.2</ele>
        <time>2019-11-09T12:18:18Z</time>
      </trkpt>
      <trkpt lat="44.82943" lon="4.67709">
        <ele>236</ele>
        <time>2019-11-09T12:18:25Z</time>
      </trkpt>
      <trkpt lat="44.8294" lon="4.67703">
        <ele>236</ele>
        <time>2019-11-09T12:18:26Z</time>
      </trkpt>
      <trkpt lat="44.8292" lon="4.67656">
        <ele>236.2</ele>
        <time>2019-11-09T12:18:34Z</time>
      </trkpt>
      <trkpt lat="44.82918" lon="4.6765">
        <ele>236.2</ele>
        <time>2019-11-09T12:18:35Z</time>
      </trkpt>
      <trkpt lat="44.82913" lon="4.67639">
        <ele>236.4</ele>
        <time>2019-11-09T12:18:37Z</time>
      </trkpt>
      <trkpt lat="44.82905" lon="4.67619">
        <ele>237</ele>
        <time>2019-11-09T12:18:41Z</time>
      </trkpt>
      <trkpt lat="44.82902" lon="4.67612">
        <ele>237.4</ele>
        <time>2019-11-09T12:18:43Z</time>
      </trkpt>
      <trkpt lat="44.829" lon="4.67613">
        <ele>237.6</ele>
        <time>2019-11-09T12:18:45Z</time>
      </trkpt>
      <trkpt lat="44.82891" lon="4.67623">
        <ele>237.8</ele>
        <time>2019-11-09T12:18:49Z</time>
      </trkpt>
      <trkpt lat="44.8287" lon="4.67639">
        <ele>236.6</ele>
        <time>2019-11-09T12:18:55Z</time>
      </trkpt>
      <trkpt lat="44.82862" lon="4.67644">
        <ele>236.8</ele>
        <time>2019-11-09T12:18:57Z</time>
      </trkpt>
      <trkpt lat="44.82842" lon="4.67649">
        <ele>237</ele>
        <time>2019-11-09T12:19:01Z</time>
      </trkpt>
      <trkpt lat="44.82837" lon="4.67651">
        <ele>237</ele>
        <time>2019-11-09T12:19:02Z</time>
      </trkpt>
      <trkpt lat="44.82819" lon="4.6766">
        <ele>236.8</ele>
        <time>2019-11-09T12:19:06Z</time>
      </trkpt>
      <trkpt lat="44.82796" lon="4.67673">
        <ele>236.6</ele>
        <time>2019-11-09T12:19:11Z</time>
      </trkpt>
      <trkpt lat="44.8276" lon="4.67693">
        <ele>237.6</ele>
        <time>2019-11-09T12:19:19Z</time>
      </trkpt>
      <trkpt lat="44.82751" lon="4.67697">
        <ele>238.6</ele>
        <time>2019-11-09T12:19:21Z</time>
      </trkpt>
      <trkpt lat="44.82725" lon="4.67711">
        <ele>238.6</ele>
        <time>2019-11-09T12:19:27Z</time>
      </trkpt>
      <trkpt lat="44.82681" lon="4.67736">
        <ele>238.2</ele>
        <time>2019-11-09T12:19:37Z</time>
      </trkpt>
      <trkpt lat="44.82672" lon="4.6774">
        <ele>238.4</ele>
        <time>2019-11-09T12:19:39Z</time>
      </trkpt>
      <trkpt lat="44.82644" lon="4.67757">
        <ele>238.4</ele>
        <time>2019-11-09T12:19:46Z</time>
      </trkpt>
      <trkpt lat="44.82635" lon="4.67768">
        <ele>238.4</ele>
        <time>2019-11-09T12:19:50Z</time>
      </trkpt>
      <trkpt lat="44.82636" lon="4.67786">
        <ele>239</ele>
        <time>2019-11-09T12:19:55Z</time>
      </trkpt>
      <trkpt lat="44.82637" lon="4.67788">
        <ele>239</ele>
        <time>2019-11-09T12:19:56Z</time>
      </trkpt>
      <trkpt lat="44.82642" lon="4.67793">
        <ele>239.4</ele>
        <time>2019-11-09T12:20:00Z</time>
      </trkpt>
      <trkpt lat="44.82642" lon="4.67794">
        <ele>239.2</ele>
        <time>2019-11-09T12:20:07Z</time>
      </trkpt>
      <trkpt lat="44.82646" lon="4.67793">
        <ele>238.8</ele>
        <time>2019-11-09T12:20:37Z</time>
      </trkpt>
      <trkpt lat="44.82646" lon="4.67793">
        <ele>238.8</ele>
        <time>2019-11-09T12:20:38Z</time>
      </trkpt>
    </trkseg>
  </trk>
</gpx>